
Distance (Route):
Temperature : 16.7°C
Humidity : 75.8%
Pressure : 868.8hPa| Receiver | Frames | First received | Last received |
|---|---|---|---|
| DF8AY | 611 | 2026-09-04 17:04:50 | 2026-09-04 19:07:17 |
| DM0DOS-11 | 544 | 2026-09-04 16:52:11 | 2026-09-04 19:07:58 |
| DL1XH-west | 470 | 2026-09-04 17:18:06 | 2026-09-04 18:50:31 |
| HSKMA3-T | 456 | 2026-09-04 17:27:11 | 2026-09-04 18:57:33 |
| DL1XH1-15 | 315 | 2026-09-04 17:20:02 | 2026-09-04 18:49:59 |
| DO3MHA-11 | 232 | 2026-09-04 17:02:35 | 2026-09-04 19:16:07 |
| DL1XH-15 | 197 | 2026-09-04 17:38:27 | 2026-09-04 18:39:25 |
| AA1-15 | 193 | 2026-09-04 17:22:11 | 2026-09-04 18:45:07 |
| DL1NUX | 160 | 2026-09-04 16:49:00 | 2026-09-04 18:30:25 |
| ANDY1245 | 120 | 2026-09-04 17:06:48 | 2026-09-04 19:35:15 |
| AM1SDL-15 | 117 | 2026-09-04 17:04:02 | 2026-09-04 19:21:25 |
| NBG1-10 | 107 | 2026-09-04 16:49:18 | 2026-09-04 19:25:51 |
| BIOWL1-15 | 94 | 2026-09-04 16:53:58 | 2026-09-04 19:05:41 |
| DL3JIN-12 | 92 | 2026-09-04 17:16:27 | 2026-09-04 19:35:01 |
| DJ2DS-15 | 87 | 2026-09-04 17:20:35 | 2026-09-04 18:48:40 |
| DB0NH | 86 | 2026-09-04 16:47:19 | 2026-09-04 19:27:26 |
| SONCRA | 80 | 2026-09-04 16:52:44 | 2026-09-04 19:19:12 |
| SONDE2-11 | 75 | 2026-09-04 17:12:50 | 2026-09-04 19:20:38 |
| DF2AP-13 | 70 | 2026-09-04 16:47:56 | 2026-09-04 19:18:20 |
| EDDB2-11 | 70 | 2026-09-04 17:09:45 | 2026-09-04 19:25:16 |
| DK5PH-5 | 64 | 2026-09-04 17:09:10 | 2026-09-04 18:56:41 |
| DO8TBO-1 | 63 | 2026-09-04 16:51:07 | 2026-09-04 19:15:33 |
| OE5DXL-15 | 58 | 2026-09-04 17:34:33 | 2026-09-04 18:44:34 |
| DL1ZP-14 | 56 | 2026-09-04 16:51:01 | 2026-09-04 18:56:49 |
| HARRO8 | 55 | 2026-09-04 16:52:42 | 2026-09-04 19:07:47 |
| DF7PN | 52 | 2026-09-04 16:52:00 | 2026-09-04 18:47:26 |
| DH8WE-5 | 50 | 2026-09-04 17:09:59 | 2026-09-04 19:30:09 |
| DL1JHR | 50 | 2026-09-04 19:11:09 | 2026-09-04 19:35:20 |
| DL0LBS | 49 | 2026-09-04 16:48:18 | 2026-09-04 17:36:24 |
| DB0UT-7 | 46 | 2026-09-04 16:51:24 | 2026-09-04 19:10:27 |
| OE5FHM-15 | 42 | 2026-09-04 17:50:09 | 2026-09-04 18:34:49 |
| DJTTGO | 40 | 2026-09-04 16:52:27 | 2026-09-04 19:10:04 |
| OE5DRO-10 | 40 | 2026-09-04 17:27:18 | 2026-09-04 18:50:25 |
| DC4HF-4 | 36 | 2026-09-04 16:59:29 | 2026-09-04 18:53:02 |
| DL6DJ-15 | 34 | 2026-09-04 17:31:45 | 2026-09-04 18:46:50 |
| DB0ND-19 | 32 | 2026-09-04 16:50:18 | 2026-09-04 19:09:29 |
| D01LWL | 32 | 2026-09-04 17:16:38 | 2026-09-04 18:37:53 |
| PETON7-10 | 29 | 2026-09-04 18:06:46 | 2026-09-04 18:34:06 |
| SO1NDE-10 | 27 | 2026-09-04 16:49:00 | 2026-09-04 18:38:59 |
| KRY50SP | 26 | 2026-09-04 17:49:05 | 2026-09-04 18:35:29 |
| EDDB2-12 | 26 | 2026-09-04 18:58:45 | 2026-09-04 19:22:02 |
| SP3BTT-10 | 20 | 2026-09-04 17:39:34 | 2026-09-04 19:00:47 |
| PG1ADW-2 | 20 | 2026-09-04 17:46:13 | 2026-09-04 18:38:02 |
| OM5KV | 20 | 2026-09-04 17:57:08 | 2026-09-04 18:28:17 |
| DL1JEZ-13 | 19 | 2026-09-04 17:18:19 | 2026-09-04 19:29:12 |
| 13BRC | 17 | 2026-09-04 18:21:27 | 2026-09-04 19:14:30 |
| S52SK | 14 | 2026-09-04 18:01:35 | 2026-09-04 18:34:18 |
| DL2RXE-15 | 12 | 2026-09-04 17:32:16 | 2026-09-04 19:28:55 |
| BIOWL9-15 | 11 | 2026-09-04 17:00:02 | 2026-09-04 19:07:50 |
| DM7RM-13 | 10 | 2026-09-04 17:02:48 | 2026-09-04 18:31:37 |
| S3001 | 8 | 2026-09-04 17:56:17 | 2026-09-04 18:13:53 |
| AU51GT2 | 7 | 2026-09-04 17:51:54 | 2026-09-04 18:34:50 |
| OE5MMP-10 | 7 | 2026-09-04 18:22:02 | 2026-09-04 18:28:43 |
| DAC517 | 7 | 2026-09-04 18:49:43 | 2026-09-04 19:19:44 |
| DL4BBY-15 | 4 | 2026-09-04 17:21:24 | 2026-09-04 17:40:12 |
| DB6KT-10 | 4 | 2026-09-04 18:48:19 | 2026-09-04 19:27:28 |
| DO9LL-15 | 3 | 2026-09-04 17:51:27 | 2026-09-04 18:02:54 |
| DF3TZ-5 | 3 | 2026-09-04 18:00:20 | 2026-09-04 18:06:33 |
| HTAHTA | 2 | 2026-09-04 18:09:03 | 2026-09-04 18:30:46 |
| BIOWL7-15 | 1 | 2026-09-04 16:57:35 | 2026-09-04 16:57:35 |
| DB0DAN | 1 | 2026-09-04 16:58:40 | 2026-09-04 16:58:40 |
| DL1CLM-18 | 1 | 2026-09-04 18:14:00 | 2026-09-04 18:14:00 |
| Receiver | Date | Latitude | Longitude | Direction | Speed | Altitude | Climb | Temperature | Humidity | Pressure | Voltage | Killtimer | Uptime | BKT | XDATA |
|---|---|---|---|---|---|---|---|---|---|---|---|---|---|---|---|
| DL1JHR | 2026-09-04 19:35:20 | 50.58095 | 13.35129 | 82° | 51km/h | 1332m | -3.0m/s | 16.7°C | 75.8% | 868.8hPa | 2.7V | 07:23:00 | 00:00:00 | 00:00:00 | |
| ANDY1245 | 2026-09-04 19:35:15 | 50.58082 | 13.35026 | 79° | 53km/h | 1347m | -2.3m/s | 16.6°C | 76.2% | 867.4hPa | 2.7V | 00:00:00 | 00:00:00 | 00:00:00 | |
| ANDY1245 | 2026-09-04 19:35:09 | 50.58066 | 13.34899 | 80° | 55km/h | 1365m | -3.5m/s | 16.4°C | 76.4% | 865.6hPa | 2.7V | 00:00:00 | 00:00:00 | 00:00:00 | |
| ANDY1245 | 2026-09-04 19:35:04 | 50.58053 | 13.34790 | 83° | 57km/h | 1382m | -3.3m/s | 16.2°C | 77.2% | 864.0hPa | 2.7V | 00:00:00 | 00:00:00 | 00:00:00 | |
| DL3JIN-12 | 2026-09-04 19:35:01 | 50.58047 | 13.34722 | 83° | 58km/h | 1393m | -3.8m/s | 16.3°C | 76.8% | 862.8hPa | 2.7V | 07:24:00 | 00:00:00 | 00:00:00 | |
| DL1JHR | 2026-09-04 19:34:59 | 50.58043 | 13.34677 | 84° | 57km/h | 1400m | -3.4m/s | 16.3°C | 76.8% | 862.0hPa | 2.7V | 00:00:00 | 00:00:00 | 00:00:00 | |
| DL3JIN-12 | 2026-09-04 19:34:38 | 50.58010 | 13.34186 | 85° | 58km/h | 1469m | -2.9m/s | 15.7°C | 79.4% | 855.1hPa | 2.7V | 07:24:00 | 00:00:00 | 00:00:00 | |
| DL1JHR | 2026-09-04 19:34:38 | 50.58010 | 13.34186 | 85° | 58km/h | 1469m | -2.9m/s | 15.7°C | 79.3% | 855.1hPa | 2.7V | 00:00:00 | 00:00:00 | 00:00:00 | |
| ANDY1245 | 2026-09-04 19:34:32 | 50.58002 | 13.34045 | 84° | 60km/h | 1486m | -3.0m/s | 15.5°C | 79.9% | 853.3hPa | 2.7V | 00:00:00 | 00:00:00 | 00:00:00 | |
| ANDY1245 | 2026-09-04 19:34:26 | 50.57991 | 13.33901 | 84° | 60km/h | 1504m | -3.0m/s | 15.3°C | 80.7% | 851.5hPa | 2.7V | 00:00:00 | 00:00:00 | 00:00:00 | |
| DL3JIN-12 | 2026-09-04 19:34:17 | 50.57975 | 13.33690 | 86° | 58km/h | 1533m | -3.2m/s | 15.0°C | 82.0% | 848.8hPa | 2.7V | 07:25:00 | 00:00:00 | 00:00:00 | |
| DL1JHR | 2026-09-04 19:34:15 | 50.57971 | 13.33644 | 84° | 58km/h | 1539m | -3.2m/s | 15.0°C | 82.0% | 848.1hPa | 2.7V | 07:25:00 | 00:00:00 | 00:00:00 | |
| ANDY1245 | 2026-09-04 19:33:58 | 50.57943 | 13.33230 | 87° | 64km/h | 1592m | -3.0m/s | 14.5°C | 84.1% | 842.8hPa | 2.7V | 00:00:00 | 00:00:00 | 00:00:00 | |
| DL3JIN-12 | 2026-09-04 19:33:56 | 50.57940 | 13.33180 | 86° | 64km/h | 1598m | -2.7m/s | 14.4°C | 84.5% | 842.2hPa | 2.7V | 07:25:00 | 00:00:00 | 00:00:00 | |
| DL1JHR | 2026-09-04 19:33:54 | 50.57938 | 13.33129 | 87° | 64km/h | 1604m | -2.8m/s | 14.4°C | 84.8% | 841.7hPa | 2.7V | 07:25:00 | 00:00:00 | 00:00:00 | |
| ANDY1245 | 2026-09-04 19:33:52 | 50.57935 | 13.33078 | 86° | 64km/h | 1610m | -2.5m/s | 14.3°C | 84.9% | 841.1hPa | 2.7V | 00:00:00 | 00:00:00 | 00:00:00 | |
| ANDY1245 | 2026-09-04 19:33:47 | 50.57927 | 13.32949 | 86° | 66km/h | 1624m | -2.9m/s | 14.2°C | 85.6% | 839.7hPa | 2.7V | 00:00:00 | 00:00:00 | 00:00:00 | |
| DL3JIN-12 | 2026-09-04 19:33:35 | 50.57907 | 13.32642 | 86° | 68km/h | 1658m | -2.9m/s | 14.0°C | 85.9% | 836.2hPa | 2.7V | 07:25:00 | 00:00:00 | 00:00:00 | |
| DL1JHR | 2026-09-04 19:33:33 | 50.57904 | 13.32588 | 86° | 68km/h | 1665m | -3.0m/s | 14.0°C | 86.2% | 835.6hPa | 2.7V | 07:26:00 | 00:00:00 | 00:00:00 | |
| ANDY1245 | 2026-09-04 19:33:18 | 50.57891 | 13.32179 | 89° | 69km/h | 1713m | -3.2m/s | 13.6°C | 87.7% | 830.9hPa | 2.7V | 00:00:00 | 00:00:00 | 00:00:00 | |
| DL3JIN-12 | 2026-09-04 19:33:15 | 50.57889 | 13.32095 | 88° | 71km/h | 1722m | -3.1m/s | 13.5°C | 88.0% | 830.0hPa | 2.7V | 07:26:00 | 00:00:00 | 00:00:00 | |
| ANDY1245 | 2026-09-04 19:33:13 | 50.57887 | 13.32039 | 86° | 69km/h | 1729m | -3.2m/s | 13.4°C | 88.1% | 829.3hPa | 2.7V | 00:00:00 | 00:00:00 | 00:00:00 | |
| DL1JHR | 2026-09-04 19:33:12 | 50.57885 | 13.32011 | 86° | 71km/h | 1732m | -3.3m/s | 13.4°C | 88.2% | 829.0hPa | 2.7V | 07:26:00 | 00:00:00 | 00:00:00 | |
| ANDY1245 | 2026-09-04 19:33:08 | 50.57880 | 13.31899 | 87° | 71km/h | 1745m | -3.2m/s | 13.3°C | 88.8% | 827.7hPa | 2.7V | 00:00:00 | 00:00:00 | 00:00:00 | |
| DL3JIN-12 | 2026-09-04 19:32:55 | 50.57863 | 13.31531 | 87° | 71km/h | 1786m | -3.2m/s | 12.9°C | 90.5% | 823.7hPa | 2.7V | 07:26:00 | 00:00:00 | 00:00:00 | |
| DL1JHR | 2026-09-04 19:32:52 | 50.57858 | 13.31446 | 87° | 69km/h | 1796m | -3.1m/s | 12.8°C | 90.8% | 822.8hPa | 2.7V | 07:26:00 | 00:00:00 | 00:00:00 | |
| ANDY1245 | 2026-09-04 19:32:36 | 50.57833 | 13.30985 | 84° | 73km/h | 1847m | -2.5m/s | 12.4°C | 93.1% | 817.7hPa | 2.7V | 07:27:00 | 00:00:00 | 00:00:00 | |
| DL3JIN-12 | 2026-09-04 19:32:34 | 50.57829 | 13.30926 | 86° | 75km/h | 1852m | -2.9m/s | 12.3°C | 93.4% | 817.3hPa | 2.7V | 00:00:00 | 00:00:00 | 00:00:00 | |
| ANDY1245 | 2026-09-04 19:32:30 | 50.57823 | 13.30808 | 88° | 75km/h | 1864m | -3.0m/s | 12.2°C | 94.0% | 816.2hPa | 2.7V | 07:27:00 | 00:00:00 | 00:00:00 | |
| DL3JIN-12 | 2026-09-04 19:32:14 | 50.57802 | 13.30314 | 86° | 78km/h | 1912m | -3.0m/s | 11.8°C | 95.2% | 811.5hPa | 2.7V | 00:00:00 | 00:00:00 | 00:00:00 | |
| DL1JHR | 2026-09-04 19:32:11 | 50.57797 | 13.30221 | 86° | 78km/h | 1921m | -2.8m/s | 11.7°C | 95.9% | 810.6hPa | 2.7V | 07:27:00 | 00:00:00 | 00:00:00 | |
| ANDY1245 | 2026-09-04 19:32:02 | 50.57781 | 13.29939 | 87° | 80km/h | 1948m | -3.2m/s | 11.6°C | 96.1% | 808.1hPa | 2.7V | 07:27:00 | 00:00:00 | 00:00:00 | |
| ANDY1245 | 2026-09-04 19:31:56 | 50.57772 | 13.29750 | 86° | 78km/h | 1967m | -3.1m/s | 11.4°C | 96.9% | 806.1hPa | 2.7V | 07:27:00 | 00:00:00 | 00:00:00 | |
| DL3JIN-12 | 2026-09-04 19:31:53 | 50.57767 | 13.29655 | 86° | 80km/h | 1977m | -3.3m/s | 11.3°C | 97.2% | 805.2hPa | 2.7V | 00:00:00 | 00:00:00 | 00:00:00 | |
| ANDY1245 | 2026-09-04 19:31:51 | 50.57763 | 13.29591 | 86° | 82km/h | 1984m | -3.2m/s | 11.3°C | 97.4% | 804.6hPa | 2.7V | 00:00:00 | 00:00:00 | 00:00:00 | |
| DL1JHR | 2026-09-04 19:31:51 | 50.57763 | 13.29591 | 86° | 82km/h | 1984m | -3.2m/s | 11.3°C | 97.4% | 804.6hPa | 2.7V | 07:28:00 | 00:00:00 | 00:00:00 | |
| DL1JHR | 2026-09-04 19:31:30 | 50.57735 | 13.28909 | 87° | 86km/h | 2049m | -3.2m/s | 10.9°C | 96.1% | 798.4hPa | 2.7V | 07:28:00 | 00:00:00 | 00:00:00 | |
| ANDY1245 | 2026-09-04 19:31:23 | 50.57727 | 13.28675 | 89° | 86km/h | 2071m | -3.0m/s | 10.7°C | 96.0% | 796.2hPa | 2.7V | 00:00:00 | 00:00:00 | 00:00:00 | |
| ANDY1245 | 2026-09-04 19:31:18 | 50.57722 | 13.28507 | 89° | 84km/h | 2086m | -3.2m/s | 10.6°C | 95.6% | 794.8hPa | 2.7V | 00:00:00 | 00:00:00 | 00:00:00 | |
| ANDY1245 | 2026-09-04 19:31:12 | 50.57715 | 13.28301 | 87° | 88km/h | 2105m | -3.0m/s | 10.5°C | 93.7% | 793.0hPa | 2.7V | 00:00:00 | 00:00:00 | 00:00:00 | |
| DL1JHR | 2026-09-04 19:31:10 | 50.57712 | 13.28232 | 87° | 86km/h | 2111m | -3.3m/s | 10.4°C | 93.3% | 792.5hPa | 2.7V | 07:28:00 | 00:00:00 | 00:00:00 | |
| DL3JIN-12 | 2026-09-04 19:31:09 | 50.57711 | 13.28198 | 88° | 86km/h | 2114m | -3.3m/s | 10.4°C | 92.9% | 792.1hPa | 2.7V | 07:28:00 | 00:00:00 | 00:00:00 | |
| DL1JHR | 2026-09-04 19:30:49 | 50.57693 | 13.27510 | 89° | 86km/h | 2178m | -3.3m/s | 10.0°C | 89.6% | 786.0hPa | 2.7V | 07:28:00 | 00:00:00 | 00:00:00 | |
| DL3JIN-12 | 2026-09-04 19:30:48 | 50.57692 | 13.27475 | 89° | 88km/h | 2181m | -3.2m/s | 9.9°C | 90.2% | 785.6hPa | 2.7V | 07:28:00 | 00:00:00 | 00:00:00 | |
| ANDY1245 | 2026-09-04 19:30:44 | 50.57688 | 13.27337 | 88° | 88km/h | 2194m | -3.4m/s | 9.8°C | 89.9% | 784.6hPa | 2.7V | 00:00:00 | 00:00:00 | 00:00:00 | |
| ANDY1245 | 2026-09-04 19:30:38 | 50.57683 | 13.27131 | 88° | 86km/h | 2215m | -3.4m/s | 9.7°C | 89.9% | 782.5hPa | 2.7V | 00:00:00 | 00:00:00 | 00:00:00 | |
| ANDY1245 | 2026-09-04 19:30:33 | 50.57680 | 13.26958 | 90° | 88km/h | 2232m | -3.6m/s | 9.5°C | 90.6% | 780.9hPa | 2.7V | 00:00:00 | 00:00:00 | 00:00:00 | |
| DL1JHR | 2026-09-04 19:30:29 | 50.57679 | 13.26820 | 90° | 88km/h | 2246m | -3.3m/s | 9.4°C | 89.5% | 779.7hPa | 2.7V | 07:28:00 | 00:00:00 | 00:00:00 | |
| DL3JIN-12 | 2026-09-04 19:30:28 | 50.57678 | 13.26785 | 89° | 88km/h | 2249m | -3.3m/s | 9.4°C | 89.4% | 779.3hPa | 2.7V | 07:28:00 | 00:00:00 | 00:00:00 | |
| DH8WE-5 | 2026-09-04 19:30:09 | 50.57667 | 13.26122 | 90° | 91km/h | 2314m | -3.6m/s | 8.8°C | 90.3% | 773.3hPa | 2.7V | 07:29:00 | 00:00:00 | 00:00:00 | |
| DL1JHR | 2026-09-04 19:30:08 | 50.57666 | 13.26086 | 90° | 89km/h | 2317m | -3.8m/s | 8.8°C | 90.6% | 772.9hPa | 2.7V | 07:29:00 | 00:00:00 | 00:00:00 | |
| DL3JIN-12 | 2026-09-04 19:30:07 | 50.57666 | 13.26051 | 89° | 89km/h | 2321m | -3.7m/s | 8.8°C | 90.9% | 772.6hPa | 2.7V | 07:29:00 | 00:00:00 | 00:00:00 | |
| ANDY1245 | 2026-09-04 19:30:05 | 50.57664 | 13.25979 | 90° | 89km/h | 2329m | -3.8m/s | 8.7°C | 92.6% | 771.9hPa | 2.7V | 07:29:00 | 00:00:00 | 00:00:00 | |
| ANDY1245 | 2026-09-04 19:29:59 | 50.57661 | 13.25770 | 90° | 88km/h | 2352m | -4.0m/s | 8.5°C | 93.4% | 769.8hPa | 2.7V | 07:29:00 | 00:00:00 | 00:00:00 | |
| ANDY1245 | 2026-09-04 19:29:54 | 50.57658 | 13.25595 | 90° | 88km/h | 2372m | -3.8m/s | 8.3°C | 92.6% | 767.9hPa | 2.7V | 07:29:00 | 00:00:00 | 00:00:00 | |
| DL1JHR | 2026-09-04 19:29:47 | 50.57654 | 13.25347 | 89° | 88km/h | 2398m | -4.0m/s | 8.2°C | 91.0% | 765.5hPa | 2.7V | 07:29:00 | 00:00:00 | 00:00:00 | |
| DL3JIN-12 | 2026-09-04 19:29:46 | 50.57653 | 13.25311 | 89° | 88km/h | 2402m | -4.1m/s | 8.1°C | 92.0% | 765.2hPa | 2.7V | 07:29:00 | 00:00:00 | 00:00:00 | |
| DH8WE-5 | 2026-09-04 19:29:42 | 50.57649 | 13.25173 | 88° | 88km/h | 2418m | -4.0m/s | 8.0°C | 92.0% | 763.6hPa | 2.7V | 07:29:00 | 00:00:00 | 00:00:00 | |
| DL1JHR | 2026-09-04 19:29:27 | 50.57635 | 13.24655 | 89° | 88km/h | 2484m | -4.6m/s | 7.5°C | 92.7% | 757.7hPa | 2.7V | 07:29:00 | 00:00:00 | 00:00:00 | |
| DL3JIN-12 | 2026-09-04 19:29:26 | 50.57635 | 13.24621 | 89° | 86km/h | 2489m | -4.7m/s | 7.4°C | 91.3% | 757.2hPa | 2.7V | 07:29:00 | 00:00:00 | 00:00:00 | |
| ANDY1245 | 2026-09-04 19:29:21 | 50.57632 | 13.24450 | 89° | 86km/h | 2512m | -4.8m/s | 7.3°C | 90.6% | 755.1hPa | 2.7V | 07:29:00 | 00:00:00 | 00:00:00 | |
| ANDY1245 | 2026-09-04 19:29:16 | 50.57628 | 13.24279 | 89° | 88km/h | 2537m | -5.2m/s | 7.0°C | 91.7% | 752.8hPa | 2.7V | 00:00:00 | 00:00:00 | 00:00:00 | |
| DL1JEZ-13 | 2026-09-04 19:29:12 | 50.57626 | 13.24141 | 90° | 86km/h | 2557m | -4.6m/s | 6.9°C | 92.5% | 750.9hPa | 2.7V | 00:00:00 | 00:00:00 | 00:00:00 | |
| DL1JHR | 2026-09-04 19:29:07 | 50.57624 | 13.23971 | 89° | 84km/h | 2578m | -4.2m/s | 6.8°C | 93.6% | 749.1hPa | 2.7V | 07:30:00 | 00:00:00 | 00:00:00 | |
| DH8WE-5 | 2026-09-04 19:29:00 | 50.57620 | 13.23732 | 90° | 84km/h | 2607m | -4.0m/s | 6.5°C | 93.1% | 746.5hPa | 2.7V | 00:00:00 | 00:00:00 | 00:00:00 | |
| DL2RXE-15 | 2026-09-04 19:28:55 | 50.57618 | 13.23564 | 89° | 86km/h | 2628m | -4.3m/s | 6.4°C | 95.7% | 744.4hPa | 2.7V | 00:00:00 | 00:00:00 | 00:00:00 | |
| ANDY1245 | 2026-09-04 19:28:48 | 50.57611 | 13.23321 | 88° | 89km/h | 2656m | -3.6m/s | 6.2°C | 95.2% | 741.9hPa | 2.7V | 00:00:00 | 00:00:00 | 00:00:00 | |
| DL1JHR | 2026-09-04 19:28:46 | 50.57609 | 13.23249 | 89° | 91km/h | 2663m | -3.4m/s | 6.1°C | 94.7% | 741.5hPa | 2.7V | 07:30:00 | 00:00:00 | 00:00:00 | |
| DL3JIN-12 | 2026-09-04 19:28:44 | 50.57608 | 13.23178 | 90° | 89km/h | 2669m | -3.5m/s | 6.1°C | 95.3% | 740.7hPa | 2.7V | 07:30:00 | 00:00:00 | 00:00:00 | |
| ANDY1245 | 2026-09-04 19:28:42 | 50.57607 | 13.23110 | 91° | 84km/h | 2676m | -3.5m/s | 6.0°C | 95.0% | 740.1hPa | 2.7V | 00:00:00 | 00:00:00 | 00:00:00 | |
| ANDY1245 | 2026-09-04 19:28:37 | 50.57610 | 13.22947 | 92° | 80km/h | 2694m | -3.4m/s | 5.8°C | 95.0% | 738.6hPa | 2.7V | 00:00:00 | 00:00:00 | 00:00:00 | |
| DL1JHR | 2026-09-04 19:28:25 | 50.57618 | 13.22553 | 92° | 80km/h | 2734m | -3.0m/s | 5.7°C | 99.1% | 734.9hPa | 2.7V | 07:31:00 | 00:00:00 | 00:00:00 | |
| DL3JIN-12 | 2026-09-04 19:28:24 | 50.57619 | 13.22490 | 91° | 78km/h | 2740m | -3.0m/s | 5.7°C | 98.3% | 734.3hPa | 2.7V | 07:31:00 | 00:00:00 | 00:00:00 | |
| DL2RXE-15 | 2026-09-04 19:28:21 | 50.57619 | 13.22426 | 91° | 80km/h | 2747m | -3.0m/s | 5.6°C | 99.6% | 733.8hPa | 2.7V | 00:00:00 | 00:00:00 | 00:00:00 | |
| ANDY1245 | 2026-09-04 19:28:09 | 50.57627 | 13.22045 | 94° | 78km/h | 2782m | -3.3m/s | 5.3°C | 97.0% | 730.6hPa | 2.7V | 00:00:00 | 00:00:00 | 00:00:00 | |
| DL1JHR | 2026-09-04 19:28:05 | 50.57632 | 13.21919 | 94° | 78km/h | 2795m | -3.3m/s | 5.1°C | 94.4% | 729.4hPa | 2.7V | 07:31:00 | 00:00:00 | 00:00:00 | |
| ANDY1245 | 2026-09-04 19:28:04 | 50.57632 | 13.21888 | 94° | 78km/h | 2798m | -3.3m/s | 5.1°C | 95.4% | 729.1hPa | 2.7V | 00:00:00 | 00:00:00 | 00:00:00 | |
| DL3JIN-12 | 2026-09-04 19:28:02 | 50.57635 | 13.21827 | 96° | 78km/h | 2805m | -3.3m/s | 5.1°C | 94.5% | 728.6hPa | 2.7V | 07:31:00 | 00:00:00 | 00:00:00 | |
| ANDY1245 | 2026-09-04 19:27:58 | 50.57642 | 13.21703 | 97° | 77km/h | 2818m | -3.1m/s | 5.0°C | 97.0% | 727.4hPa | 2.7V | 00:00:00 | 00:00:00 | 00:00:00 | |
| DL1JHR | 2026-09-04 19:27:44 | 50.57663 | 13.21275 | 95° | 78km/h | 2858m | -2.2m/s | 4.7°C | 98.6% | 723.9hPa | 2.7V | 07:31:00 | 00:00:00 | 00:00:00 | |
| DL3JIN-12 | 2026-09-04 19:27:42 | 50.57666 | 13.21213 | 96° | 78km/h | 2863m | -2.4m/s | 4.6°C | 96.2% | 723.5hPa | 2.7V | 07:31:00 | 00:00:00 | 00:00:00 | |
| DH8WE-5 | 2026-09-04 19:27:34 | 50.57684 | 13.20962 | 96° | 80km/h | 2881m | -1.8m/s | 4.4°C | 98.0% | 721.8hPa | 2.7V | 07:32:00 | 00:00:00 | 00:00:00 | |
| DL2RXE-15 | 2026-09-04 19:27:30 | 50.57689 | 13.20836 | 95° | 78km/h | 2889m | -2.0m/s | 4.4°C | 99.3% | 721.1hPa | 2.7V | 00:00:00 | 00:00:00 | 00:00:00 | |
| DB6KT-10 | 2026-09-04 19:27:28 | 50.57692 | 13.20775 | 94° | 77km/h | 2893m | -1.7m/s | 4.5°C | 0% | 0hPa | 2.7V | 00:00:00 | 00:00:00 | 00:00:00 | |
| DB0NH | 2026-09-04 19:27:26 | 50.57695 | 13.20683 | 95° | 80km/h | 2897m | -1.5m/s | 4.3°C | 0% | 720.3hPa | 2.7V | 00:00:00 | 03:08:30 | 00:00:00 | |
| ANDY1245 | 2026-09-04 19:27:25 | 50.57695 | 13.20683 | 95° | 77km/h | 2897m | -1.5m/s | 4.4°C | 100.4% | 720.4hPa | 2.7V | 07:32:00 | 00:00:00 | 00:00:00 | |
| DL1JHR | 2026-09-04 19:27:24 | 50.57697 | 13.20653 | 94° | 77km/h | 2899m | -1.7m/s | 4.4°C | 0% | 720.2hPa | 2.7V | 07:32:00 | 00:00:00 | 00:00:00 | |
| DL3JIN-12 | 2026-09-04 19:27:22 | 50.57699 | 13.20591 | 96° | 78km/h | 2902m | -1.9m/s | 4.4°C | 103.1% | 719.9hPa | 2.7V | 07:32:00 | 00:00:00 | 00:00:00 | |
| ANDY1245 | 2026-09-04 19:27:19 | 50.57705 | 13.20497 | 97° | 80km/h | 2908m | -1.8m/s | 4.5°C | 105.5% | 719.4hPa | 2.7V | 07:32:00 | 00:00:00 | 00:00:00 | |
| DH8WE-5 | 2026-09-04 19:27:07 | 50.57725 | 13.20114 | 94° | 82km/h | 2927m | -1.6m/s | 4.1°C | 0% | 717.7hPa | 2.7V | 07:32:00 | 00:00:00 | 00:00:00 | |
| DB0NH | 2026-09-04 19:27:06 | 50.57727 | 13.20049 | 95° | 80km/h | 2931m | -1.4m/s | 4.1°C | 0% | 717.4hPa | 2.7V | 00:00:00 | 03:08:10 | 00:00:00 | |
| DL1JHR | 2026-09-04 19:27:03 | 50.57730 | 13.19984 | 95° | 82km/h | 2934m | -1.5m/s | 4.2°C | 0% | 717.2hPa | 2.7V | 07:32:00 | 00:00:00 | 00:00:00 | |
| DL3JIN-12 | 2026-09-04 19:27:02 | 50.57732 | 13.19951 | 96° | 82km/h | 2935m | -1.5m/s | 4.2°C | 107.3% | 717.2hPa | 2.7V | 07:32:00 | 00:00:00 | 00:00:00 | |
| DL2RXE-15 | 2026-09-04 19:26:49 | 50.57755 | 13.19536 | 94° | 82km/h | 2952m | -1.0m/s | 3.8°C | 0% | 715.6hPa | 2.7V | 00:00:00 | 00:00:00 | 00:00:00 | |
| DB0NH | 2026-09-04 19:26:45 | 50.57762 | 13.19373 | 95° | 82km/h | 2957m | -1.0m/s | 3.6°C | 0% | 715.1hPa | 2.7V | 00:00:00 | 03:07:49 | 00:00:00 | |
| DL1JEZ-13 | 2026-09-04 19:26:44 | 50.57762 | 13.19373 | 96° | 80km/h | 2957m | -1.0m/s | 3.7°C | 108.9% | 715.1hPa | 2.7V | 00:00:00 | 00:00:00 | 00:00:00 | |
| DL1JHR | 2026-09-04 19:26:43 | 50.57764 | 13.19341 | 95° | 80km/h | 2959m | -1.1m/s | 3.7°C | 0% | 715.0hPa | 2.7V | 07:33:00 | 00:00:00 | 00:00:00 | |
| DL3JIN-12 | 2026-09-04 19:26:42 | 50.57765 | 13.19310 | 95° | 78km/h | 2960m | -1.0m/s | 3.7°C | 107.5% | 714.9hPa | 2.7V | 07:33:00 | 00:00:00 | 00:00:00 | |
| ANDY1245 | 2026-09-04 19:26:41 | 50.57766 | 13.19279 | 95° | 78km/h | 2961m | -0.9m/s | 3.6°C | 111.4% | 714.9hPa | 2.7V | 00:00:00 | 00:00:00 | 00:00:00 | |
| DH8WE-5 | 2026-09-04 19:26:26 | 50.57795 | 13.18797 | 94° | 82km/h | 2986m | -4.8m/s | 3.6°C | 0% | 712.8hPa | 2.7V | 00:00:00 | 00:00:00 | 00:00:00 | |
| DL1JHR | 2026-09-04 19:26:22 | 50.57798 | 13.18668 | 93° | 80km/h | 3003m | -4.3m/s | 3.6°C | 0% | 711.3hPa | 2.7V | 07:33:00 | 00:00:00 | 00:00:00 | |
| DL3JIN-12 | 2026-09-04 19:26:21 | 50.57799 | 13.18636 | 92° | 80km/h | 3007m | -3.7m/s | 3.6°C | 115.9% | 710.9hPa | 2.7V | 07:33:00 | 00:00:00 | 00:00:00 | |
| DB0NH | 2026-09-04 19:26:12 | 50.57806 | 13.18303 | 96° | 93km/h | 3042m | -4.0m/s | 4.2°C | 0% | 707.7hPa | 2.7V | 00:00:00 | 03:07:16 | 00:00:00 | |
| ANDY1245 | 2026-09-04 19:26:09 | 50.57811 | 13.18231 | 96° | 91km/h | 3051m | -4.2m/s | 4.3°C | 115.4% | 707.0hPa | 2.7V | 00:00:00 | 00:00:00 | 00:00:00 | |
| DH8WE-5 | 2026-09-04 19:26:05 | 50.57818 | 13.18083 | 94° | 93km/h | 3068m | -3.9m/s | 4.3°C | 0% | 705.6hPa | 2.7V | 00:00:00 | 00:00:00 | 00:00:00 | |
| ANDY1245 | 2026-09-04 19:26:03 | 50.57821 | 13.18009 | 93° | 93km/h | 3076m | -4.6m/s | 4.2°C | 112.6% | 704.9hPa | 2.7V | 00:00:00 | 00:00:00 | 00:00:00 | |
| DL1JHR | 2026-09-04 19:26:01 | 50.57822 | 13.17934 | 92° | 95km/h | 3083m | -3.8m/s | 4.0°C | 0% | 704.2hPa | 2.7V | 07:33:00 | 00:00:00 | 00:00:00 | |
| DL3JIN-12 | 2026-09-04 19:26:00 | 50.57822 | 13.17897 | 92° | 95km/h | 3087m | -3.5m/s | 4.1°C | 112.3% | 703.8hPa | 2.7V | 07:33:00 | 00:00:00 | 00:00:00 | |
| NBG1-10 | 2026-09-04 19:25:51 | 50.57823 | 13.17532 | 93° | 95km/h | 3112m | -1.7m/s | 4.0°C | 0% | 701.6hPa | 2.7V | 00:00:00 | 03:06:55 | 00:00:00 | |
| DL2RXE-15 | 2026-09-04 19:25:43 | 50.57838 | 13.17271 | 96° | 100km/h | 3124m | -0.9m/s | 4.0°C | 0% | 700.6hPa | 2.7V | 00:00:00 | 00:00:00 | 00:00:00 | |
| DB0NH | 2026-09-04 19:25:42 | 50.57843 | 13.17192 | 95° | 93km/h | 3127m | -1.5m/s | 3.9°C | 0% | 700.3hPa | 2.7V | 00:00:00 | 03:06:46 | 00:00:00 | |
| DL3JIN-12 | 2026-09-04 19:25:40 | 50.57845 | 13.17153 | 96° | 97km/h | 3129m | -2.3m/s | 4.0°C | 113.8% | 700.4hPa | 2.7V | 07:34:00 | 00:00:00 | 00:00:00 | |
| DL1JEZ-13 | 2026-09-04 19:25:30 | 50.57855 | 13.16780 | 91° | 88km/h | 3148m | -3.1m/s | 4.1°C | 109.1% | 698.8hPa | 2.7V | 00:00:00 | 00:00:00 | 00:00:00 | |
| NBG1-10 | 2026-09-04 19:25:29 | 50.57856 | 13.16709 | 92° | 91km/h | 3156m | -3.8m/s | 3.9°C | 0% | 698.2hPa | 2.7V | 00:00:00 | 03:06:33 | 00:00:00 | |
| ANDY1245 | 2026-09-04 19:25:24 | 50.57859 | 13.16566 | 94° | 93km/h | 3170m | -3.4m/s | 3.8°C | 109.7% | 696.8hPa | 2.7V | 00:00:00 | 00:00:00 | 00:00:00 | |
| DL2RXE-15 | 2026-09-04 19:25:22 | 50.57862 | 13.16492 | 95° | 91km/h | 3176m | -3.5m/s | 3.3°C | 0% | 696.3hPa | 2.7V | 00:00:00 | 00:00:00 | 00:00:00 | |
| DL1JHR | 2026-09-04 19:25:20 | 50.57866 | 13.16419 | 94° | 93km/h | 3183m | -2.7m/s | 3.3°C | 0% | 695.6hPa | 2.7V | 07:34:00 | 00:00:00 | 00:00:00 | |
| DL3JIN-12 | 2026-09-04 19:25:19 | 50.57867 | 13.16381 | 94° | 93km/h | 3185m | -2.7m/s | 3.7°C | 115.8% | 695.5hPa | 2.7V | 07:34:00 | 00:00:00 | 00:00:00 | |
| EDDB2-11 | 2026-09-04 19:25:16 | 50.57869 | 13.16232 | 90° | 91km/h | 3198m | -2.7m/s | 3.7°C | 100.0% | 694.4hPa | 2.7V | 00:00:00 | 00:00:00 | 00:00:00 | |
| DB0NH | 2026-09-04 19:25:12 | 50.57870 | 13.16086 | 90° | 93km/h | 3209m | -2.9m/s | 3.6°C | 0% | 693.5hPa | 2.7V | 00:00:00 | 03:06:16 | 00:00:00 | |
| NBG1-10 | 2026-09-04 19:25:07 | 50.57873 | 13.15903 | 93° | 93km/h | 3224m | -3.5m/s | 3.2°C | 0% | 692.3hPa | 2.7V | 00:00:00 | 03:06:11 | 00:00:00 | |
| EDDB2-11 | 2026-09-04 19:24:45 | 50.57907 | 13.15093 | 95° | 93km/h | 3303m | -3.3m/s | 2.7°C | 87.7% | 685.6hPa | 2.6V | 00:00:00 | 00:00:00 | 00:00:00 | |
| DB0NH | 2026-09-04 19:24:42 | 50.57914 | 13.14983 | 96° | 93km/h | 3313m | -3.2m/s | 2.7°C | 89.7% | 684.7hPa | 2.6V | 07:34:00 | 03:05:46 | 00:00:00 | |
| DL3JIN-12 | 2026-09-04 19:24:38 | 50.57921 | 13.14873 | 96° | 93km/h | 3322m | -3.2m/s | 2.7°C | 85.4% | 683.8hPa | 2.6V | 07:34:00 | 00:00:00 | 00:00:00 | |
| NBG1-10 | 2026-09-04 19:24:34 | 50.57932 | 13.14691 | 96° | 95km/h | 3338m | -3.1m/s | 2.8°C | 85.8% | 682.6hPa | 2.6V | 00:00:00 | 03:05:38 | 00:00:00 | |
| DL3JIN-12 | 2026-09-04 19:24:18 | 50.57971 | 13.14100 | 96° | 95km/h | 3387m | -3.1m/s | 3.0°C | 80.0% | 678.4hPa | 2.6V | 07:34:00 | 00:00:00 | 00:00:00 | |
| DL1JHR | 2026-09-04 19:24:17 | 50.57971 | 13.14100 | 96° | 95km/h | 3387m | -3.1m/s | 3.0°C | 80.0% | 678.4hPa | 2.6V | 00:00:00 | 00:00:00 | 00:00:00 | |
| DL1JEZ-13 | 2026-09-04 19:24:16 | 50.57974 | 13.14062 | 96° | 95km/h | 3390m | -3.1m/s | 3.0°C | 79.7% | 678.2hPa | 2.6V | 00:00:00 | 00:00:00 | 00:00:00 | |
| EDDB2-11 | 2026-09-04 19:24:14 | 50.57981 | 13.13949 | 95° | 95km/h | 3399m | -3.0m/s | 3.0°C | 76.5% | 677.3hPa | 2.6V | 00:00:00 | 00:00:00 | 00:00:00 | |
| ANDY1245 | 2026-09-04 19:24:13 | 50.57981 | 13.13949 | 96° | 97km/h | 3399m | -3.0m/s | 3.0°C | 76.5% | 677.3hPa | 2.6V | 07:34:00 | 00:00:00 | 00:00:00 | |
| DB0NH | 2026-09-04 19:24:12 | 50.57985 | 13.13873 | 95° | 102km/h | 3405m | -2.8m/s | 3.0°C | 78.8% | 676.8hPa | 2.6V | 00:00:00 | 03:05:16 | 00:00:00 | |
| ANDY1245 | 2026-09-04 19:24:08 | 50.57992 | 13.13757 | 96° | 97km/h | 3414m | -3.0m/s | 3.0°C | 77.7% | 676.3hPa | 2.7V | 00:00:00 | 00:00:00 | 00:00:00 | |
| NBG1-10 | 2026-09-04 19:24:01 | 50.58008 | 13.13448 | 95° | 106km/h | 3438m | -3.1m/s | 2.9°C | 82.4% | 674.1hPa | 2.7V | 07:35:00 | 03:05:05 | 00:00:00 | |
| DL3JIN-12 | 2026-09-04 19:23:57 | 50.58015 | 13.13332 | 96° | 99km/h | 3447m | -2.9m/s | 3.0°C | 79.2% | 673.5hPa | 2.7V | 07:35:00 | 00:00:00 | 00:00:00 | |
| DL1JHR | 2026-09-04 19:23:54 | 50.58022 | 13.13214 | 97° | 102km/h | 3456m | -3.1m/s | 3.2°C | 77.1% | 672.7hPa | 2.7V | 00:00:00 | 00:00:00 | 00:00:00 | |
| DL2RXE-15 | 2026-09-04 19:23:46 | 50.58044 | 13.12883 | 98° | 106km/h | 3481m | -3.1m/s | 3.0°C | 77.0% | 670.7hPa | 2.7V | 00:00:00 | 00:00:00 | 00:00:00 | |
| EDDB2-11 | 2026-09-04 19:23:43 | 50.58056 | 13.12717 | 96° | 104km/h | 3494m | -3.3m/s | 2.8°C | 77.6% | 669.6hPa | 2.7V | 00:00:00 | 00:00:00 | 00:00:00 | |
| ANDY1245 | 2026-09-04 19:23:40 | 50.58062 | 13.12633 | 98° | 106km/h | 3501m | -3.7m/s | 2.8°C | 77.2% | 669.0hPa | 2.7V | 00:00:00 | 00:00:00 | 00:00:00 | |
| DB0NH | 2026-09-04 19:23:36 | 50.58079 | 13.12422 | 98° | 111km/h | 3519m | -3.7m/s | 3.9°C | 63.9% | 667.4hPa | 2.7V | 00:00:00 | 03:04:40 | 00:00:00 | |
| ANDY1245 | 2026-09-04 19:23:35 | 50.58079 | 13.12422 | 99° | 110km/h | 3519m | -3.8m/s | 4.0°C | 62.2% | 667.5hPa | 2.7V | 00:00:00 | 00:00:00 | 00:00:00 | |
| DL1JHR | 2026-09-04 19:23:34 | 50.58082 | 13.12379 | 99° | 110km/h | 3523m | -3.8m/s | 3.9°C | 63.1% | 667.2hPa | 2.7V | 00:00:00 | 00:00:00 | 00:00:00 | |
| ANDY1245 | 2026-09-04 19:23:29 | 50.58101 | 13.12163 | 99° | 111km/h | 3541m | -3.7m/s | 3.8°C | 63.3% | 665.7hPa | 2.7V | 00:00:00 | 00:00:00 | 00:00:00 | |
| NBG1-10 | 2026-09-04 19:23:28 | 50.58108 | 13.12075 | 98° | 113km/h | 3549m | -3.6m/s | 3.7°C | 64.0% | 665.1hPa | 2.7V | 00:00:00 | 03:04:32 | 00:00:00 | |
| DL3JIN-12 | 2026-09-04 19:23:15 | 50.58154 | 13.11546 | 99° | 111km/h | 3593m | -3.7m/s | 3.6°C | 61.0% | 661.4hPa | 2.7V | 07:36:00 | 00:00:00 | 00:00:00 | |
| DL1JHR | 2026-09-04 19:23:14 | 50.58158 | 13.11502 | 99° | 113km/h | 3597m | -3.8m/s | 3.5°C | 61.0% | 661.2hPa | 2.7V | 07:36:00 | 00:00:00 | 00:00:00 | |
| EDDB2-11 | 2026-09-04 19:23:12 | 50.58170 | 13.11368 | 98° | 113km/h | 3608m | -3.8m/s | 3.5°C | 61.3% | 660.3hPa | 2.7V | 00:00:00 | 00:00:00 | 00:00:00 | |
| DB0NH | 2026-09-04 19:23:06 | 50.58194 | 13.11099 | 99° | 115km/h | 3631m | -3.7m/s | 3.2°C | 64.3% | 658.4hPa | 2.7V | 00:00:00 | 03:04:10 | 00:00:00 | |
| DL1JEZ-13 | 2026-09-04 19:23:03 | 50.58202 | 13.11009 | 99° | 113km/h | 3638m | -3.8m/s | 3.2°C | 62.8% | 657.7hPa | 2.7V | 00:00:00 | 00:00:00 | 00:00:00 | |
| ANDY1245 | 2026-09-04 19:23:01 | 50.58210 | 13.10919 | 99° | 113km/h | 3646m | -3.8m/s | 3.1°C | 63.5% | 657.1hPa | 2.7V | 00:00:00 | 00:00:00 | 00:00:00 | |
| ANDY1245 | 2026-09-04 19:22:55 | 50.58232 | 13.10650 | 98° | 115km/h | 3669m | -3.7m/s | 2.9°C | 64.1% | 655.2hPa | 2.7V | 00:00:00 | 00:00:00 | 00:00:00 | |
| DL1JHR | 2026-09-04 19:22:53 | 50.58240 | 13.10559 | 98° | 115km/h | 3676m | -3.8m/s | 2.9°C | 63.8% | 654.8hPa | 2.7V | 07:36:00 | 00:00:00 | 00:00:00 | |
| ANDY1245 | 2026-09-04 19:22:50 | 50.58250 | 13.10423 | 99° | 115km/h | 3688m | -3.8m/s | 2.8°C | 63.8% | 653.8hPa | 2.7V | 00:00:00 | 00:00:00 | 00:00:00 | |
| EDDB2-11 | 2026-09-04 19:22:41 | 50.58286 | 13.09968 | 97° | 115km/h | 3727m | -3.7m/s | 2.4°C | 65.0% | 650.7hPa | 2.7V | 00:00:00 | 00:00:00 | 00:00:00 | |
| DB0NH | 2026-09-04 19:22:36 | 50.58304 | 13.09740 | 98° | 117km/h | 3746m | -3.7m/s | 2.2°C | 68.0% | 649.1hPa | 2.7V | 00:00:00 | 03:03:40 | 00:00:00 | |
| DL3JIN-12 | 2026-09-04 19:22:33 | 50.58311 | 13.09649 | 98° | 117km/h | 3754m | -3.8m/s | 2.1°C | 66.4% | 648.5hPa | 2.6V | 07:36:00 | 00:00:00 | 00:00:00 | |
| DL1JHR | 2026-09-04 19:22:32 | 50.58315 | 13.09604 | 99° | 117km/h | 3758m | -3.8m/s | 2.1°C | 66.6% | 648.1hPa | 2.6V | 07:36:00 | 00:00:00 | 00:00:00 | |
| NBG1-10 | 2026-09-04 19:22:22 | 50.58358 | 13.09100 | 98° | 119km/h | 3800m | -3.8m/s | 1.7°C | 72.0% | 644.7hPa | 2.6V | 00:00:00 | 03:03:26 | 00:00:00 | |
| ANDY1245 | 2026-09-04 19:22:18 | 50.58369 | 13.08962 | 99° | 117km/h | 3811m | -3.8m/s | 1.6°C | 69.1% | 643.9hPa | 2.6V | 07:37:00 | 00:00:00 | 00:00:00 | |
| DL3JIN-12 | 2026-09-04 19:22:13 | 50.58390 | 13.08730 | 99° | 117km/h | 3830m | -3.8m/s | 1.5°C | 68.0% | 642.4hPa | 2.6V | 07:37:00 | 00:00:00 | 00:00:00 | |
| ANDY1245 | 2026-09-04 19:22:12 | 50.58393 | 13.08684 | 99° | 119km/h | 3834m | -3.8m/s | 1.5°C | 69.3% | 642.0hPa | 2.6V | 07:37:00 | 00:00:00 | 00:00:00 | |
| DL1JHR | 2026-09-04 19:22:11 | 50.58398 | 13.08637 | 99° | 119km/h | 3838m | -3.7m/s | 1.4°C | 70.0% | 641.7hPa | 2.6V | 07:37:00 | 00:00:00 | 00:00:00 | |
| EDDB2-11 | 2026-09-04 19:22:10 | 50.58405 | 13.08544 | 97° | 117km/h | 3845m | -3.8m/s | 1.3°C | 70.7% | 641.1hPa | 2.6V | 00:00:00 | 00:00:00 | 00:00:00 | |
| DB0NH | 2026-09-04 19:22:06 | 50.58420 | 13.08357 | 98° | 119km/h | 3861m | -3.6m/s | 1.1°C | 74.8% | 639.8hPa | 2.6V | 00:00:00 | 03:03:10 | 00:00:00 | |
| EDDB2-12 | 2026-09-04 19:22:02 | 50.58451 | 13.07982 | 97° | 119km/h | 3890m | -3.6m/s | 0.9°C | 75.4% | 637.6hPa | 2.6V | 00:00:00 | 00:00:00 | 00:00:00 | |
| DL3JIN-12 | 2026-09-04 19:21:52 | 50.58470 | 13.07747 | 98° | 119km/h | 3908m | -3.6m/s | 0.8°C | 78.7% | 636.0hPa | 2.6V | 07:37:00 | 00:00:00 | 00:00:00 | |
| DL1JHR | 2026-09-04 19:21:50 | 50.58477 | 13.07653 | 98° | 120km/h | 3916m | -3.6m/s | 0.7°C | 79.2% | 635.5hPa | 2.6V | 07:37:00 | 00:00:00 | 00:00:00 | |
| NBG1-10 | 2026-09-04 19:21:49 | 50.58484 | 13.07559 | 97° | 120km/h | 3923m | -3.6m/s | 0.6°C | 82.2% | 635.0hPa | 2.6V | 00:00:00 | 03:02:53 | 00:00:00 | |
| ANDY1245 | 2026-09-04 19:21:44 | 50.58498 | 13.07370 | 98° | 120km/h | 3937m | -3.6m/s | 0.5°C | 80.2% | 633.8hPa | 2.7V | 07:37:00 | 00:00:00 | 00:00:00 | |
| EDDB2-11 | 2026-09-04 19:21:39 | 50.58520 | 13.07087 | 97° | 119km/h | 3959m | -3.6m/s | 0.3°C | 80.9% | 632.1hPa | 2.7V | 00:00:00 | 00:00:00 | 00:00:00 | |
| DB0NH | 2026-09-04 19:21:36 | 50.58531 | 13.06945 | 97° | 120km/h | 3970m | -3.5m/s | 0°C | 0% | 0hPa | 2.7V | 00:00:00 | 03:02:40 | 00:00:00 | |
| ANDY1245 | 2026-09-04 19:21:34 | 50.58535 | 13.06898 | 98° | 119km/h | 3973m | -3.7m/s | 0.2°C | 81.7% | 630.9hPa | 2.7V | 00:00:00 | 00:00:00 | 00:00:00 | |
| DL3JIN-12 | 2026-09-04 19:21:31 | 50.58545 | 13.06756 | 98° | 119km/h | 3984m | -3.6m/s | 0.1°C | 81.9% | 630.2hPa | 2.7V | 07:38:00 | 00:00:00 | 00:00:00 | |
| DL1JHR | 2026-09-04 19:21:30 | 50.58549 | 13.06709 | 98° | 120km/h | 3988m | -3.6m/s | 0.1°C | 81.9% | 629.9hPa | 2.7V | 07:38:00 | 00:00:00 | 00:00:00 | |
| AM1SDL-15 | 2026-09-04 19:21:25 | 50.58571 | 13.06423 | 98° | 120km/h | 4009m | -3.6m/s | -0.0°C | 85.6% | 628.1hPa | 2.7V | 00:00:00 | 03:02:29 | 00:00:00 | |
| NBG1-10 | 2026-09-04 19:21:16 | 50.58606 | 13.05997 | 98° | 122km/h | 4041m | -3.6m/s | -0.3°C | 86.4% | 625.7hPa | 2.7V | 00:00:00 | 03:02:20 | 00:00:00 | |
| DL3JIN-12 | 2026-09-04 19:21:10 | 50.58626 | 13.05759 | 98° | 120km/h | 4059m | -3.5m/s | -0.5°C | 83.4% | 624.4hPa | 2.7V | 07:38:00 | 00:00:00 | 00:00:00 | |
| DL1JHR | 2026-09-04 19:21:09 | 50.58630 | 13.05711 | 98° | 122km/h | 4063m | -3.5m/s | -0.5°C | 83.2% | 624.0hPa | 2.7V | 07:38:00 | 00:00:00 | 00:00:00 | |
| EDDB2-11 | 2026-09-04 19:21:08 | 50.58638 | 13.05615 | 97° | 120km/h | 4070m | -3.5m/s | -0.6°C | 83.7% | 623.5hPa | 2.7V | 00:00:00 | 00:00:00 | 00:00:00 | |
| DB0NH | 2026-09-04 19:21:06 | 50.58646 | 13.05518 | 98° | 122km/h | 4077m | -3.6m/s | -0.6°C | 87.1% | 622.8hPa | 2.7V | 00:00:00 | 03:02:10 | 00:00:00 | |
| EDDB2-12 | 2026-09-04 19:21:00 | 50.58681 | 13.05037 | 96° | 120km/h | 4111m | -3.3m/s | -0.8°C | 81.4% | 620.2hPa | 2.7V | 00:00:00 | 00:00:00 | 00:00:00 | |
| ANDY1245 | 2026-09-04 19:20:56 | 50.58677 | 13.05084 | 97° | 120km/h | 4108m | -3.5m/s | -0.8°C | 81.7% | 620.6hPa | 2.7V | 00:00:00 | 00:00:00 | 00:00:00 | |
| AM1SDL-15 | 2026-09-04 19:20:49 | 50.58703 | 13.04698 | 96° | 122km/h | 4135m | -3.3m/s | -0.9°C | 83.0% | 618.4hPa | 2.7V | 00:00:00 | 03:01:53 | 00:00:00 | |
| DL1JHR | 2026-09-04 19:20:48 | 50.58703 | 13.04698 | 97° | 122km/h | 4135m | -3.4m/s | -0.9°C | 80.1% | 618.4hPa | 2.7V | 07:39:00 | 00:00:00 | 00:00:00 | |
| NBG1-10 | 2026-09-04 19:20:43 | 50.58721 | 13.04407 | 96° | 122km/h | 4155m | -3.3m/s | -1.0°C | 82.7% | 616.8hPa | 2.7V | 00:00:00 | 03:01:47 | 00:00:00 | |
| SONDE2-11 | 2026-09-04 19:20:38 | 50.58735 | 13.04166 | 94° | 120km/h | 4172m | -3.3m/s | -1.2°C | 79.8% | 615.5hPa | 2.7V | 00:00:00 | 00:00:00 | 00:00:00 | |
| EDDB2-11 | 2026-09-04 19:20:37 | 50.58740 | 13.04069 | 94° | 120km/h | 4179m | -3.5m/s | -1.2°C | 80.0% | 615.0hPa | 2.7V | 00:00:00 | 00:00:00 | 00:00:00 | |
| DB0NH | 2026-09-04 19:20:36 | 50.58740 | 13.04069 | 95° | 122km/h | 4179m | -3.4m/s | -1.2°C | 83.0% | 614.9hPa | 2.7V | 07:38:00 | 03:01:40 | 00:00:00 | |
| EDDB2-12 | 2026-09-04 19:20:29 | 50.58761 | 13.03680 | 94° | 122km/h | 4205m | -3.4m/s | -1.5°C | 81.1% | 612.9hPa | 2.7V | 00:00:00 | 00:00:00 | 00:00:00 | |
| DL1JHR | 2026-09-04 19:20:27 | 50.58761 | 13.03680 | 96° | 122km/h | 4206m | -3.4m/s | -1.5°C | 81.1% | 612.9hPa | 2.7V | 07:39:00 | 00:00:00 | 00:00:00 | |
| AM1SDL-15 | 2026-09-04 19:20:25 | 50.58768 | 13.03534 | 95° | 122km/h | 4215m | -3.3m/s | -1.5°C | 84.6% | 612.2hPa | 2.7V | 00:00:00 | 03:01:29 | 00:00:00 | |
| ANDY1245 | 2026-09-04 19:20:23 | 50.58771 | 13.03486 | 96° | 122km/h | 4219m | -3.3m/s | -1.6°C | 81.7% | 612.0hPa | 2.6V | 00:00:00 | 00:00:00 | 00:00:00 | |
| ANDY1245 | 2026-09-04 19:20:18 | 50.58783 | 13.03244 | 96° | 122km/h | 4237m | -3.6m/s | -1.7°C | 81.2% | 610.7hPa | 2.6V | 00:00:00 | 00:00:00 | 00:00:00 | |
| AM1SDL-15 | 2026-09-04 19:20:11 | 50.58803 | 13.02855 | 95° | 122km/h | 4265m | -3.3m/s | -1.9°C | 81.0% | 608.5hPa | 2.6V | 00:00:00 | 03:01:15 | 00:00:00 | |
| NBG1-10 | 2026-09-04 19:20:10 | 50.58806 | 13.02807 | 95° | 124km/h | 4269m | -3.2m/s | -1.9°C | 81.7% | 608.1hPa | 2.6V | 00:00:00 | 03:01:14 | 00:00:00 | |
| DL3JIN-12 | 2026-09-04 19:20:08 | 50.58808 | 13.02758 | 95° | 122km/h | 4272m | -3.3m/s | -2.0°C | 79.8% | 607.8hPa | 2.6V | 07:39:00 | 00:00:00 | 00:00:00 | |
| SONDE2-11 | 2026-09-04 19:20:07 | 50.58812 | 13.02661 | 94° | 122km/h | 4279m | -3.4m/s | -2.1°C | 78.5% | 607.4hPa | 2.6V | 00:00:00 | 00:00:00 | 00:00:00 | |
| EDDB2-11 | 2026-09-04 19:20:06 | 50.58817 | 13.02563 | 94° | 122km/h | 4286m | -3.5m/s | -2.1°C | 78.5% | 606.9hPa | 2.6V | 00:00:00 | 00:00:00 | 00:00:00 | |
| EDDB2-12 | 2026-09-04 19:19:58 | 50.58836 | 13.02172 | 94° | 122km/h | 4313m | -3.3m/s | -2.4°C | 80.6% | 604.8hPa | 2.6V | 00:00:00 | 00:00:00 | 00:00:00 | |
| DB0NH | 2026-09-04 19:19:57 | 50.58836 | 13.02172 | 95° | 124km/h | 4314m | -3.3m/s | -2.3°C | 83.7% | 604.8hPa | 2.6V | 00:00:00 | 03:01:01 | 00:00:00 | |
| ANDY1245 | 2026-09-04 19:19:50 | 50.58850 | 13.01878 | 95° | 124km/h | 4334m | -3.5m/s | -2.6°C | 81.1% | 603.2hPa | 2.6V | 07:40:00 | 00:00:00 | 00:00:00 | |
| DL3JIN-12 | 2026-09-04 19:19:48 | 50.58855 | 13.01779 | 96° | 124km/h | 4341m | -3.5m/s | -2.7°C | 81.5% | 602.6hPa | 2.6V | 07:40:00 | 00:00:00 | 00:00:00 | |
| AM1SDL-15 | 2026-09-04 19:19:46 | 50.58862 | 13.01632 | 95° | 124km/h | 4352m | -3.6m/s | -2.7°C | 84.8% | 601.8hPa | 2.6V | 00:00:00 | 03:00:50 | 00:00:00 | |
| ANDY1245 | 2026-09-04 19:19:45 | 50.58862 | 13.01632 | 95° | 124km/h | 4352m | -3.6m/s | -2.8°C | 81.6% | 601.8hPa | 2.6V | 07:40:00 | 00:00:00 | 00:00:00 | |
| DAC517 | 2026-09-04 19:19:44 | 50.58864 | 13.01583 | 95° | 124km/h | 4356m | -3.6m/s | 0°C | 0% | 0hPa | 2.6V | 00:00:00 | 00:00:00 | 00:00:00 | |
| ANDY1245 | 2026-09-04 19:19:40 | 50.58873 | 13.01386 | 95° | 124km/h | 4370m | -3.5m/s | -2.9°C | 82.2% | 600.4hPa | 2.6V | 07:40:00 | 00:00:00 | 00:00:00 | |
| NBG1-10 | 2026-09-04 19:19:37 | 50.58883 | 13.01189 | 95° | 124km/h | 4384m | -3.3m/s | -3.0°C | 86.3% | 599.3hPa | 2.6V | 07:39:00 | 03:00:41 | 00:00:00 | |
| SONDE2-11 | 2026-09-04 19:19:36 | 50.58885 | 13.01140 | 94° | 122km/h | 4387m | -3.6m/s | -3.1°C | 83.0% | 599.1hPa | 2.6V | 00:00:00 | 00:00:00 | 00:00:00 | |
| EDDB2-11 | 2026-09-04 19:19:35 | 50.58887 | 13.01090 | 93° | 124km/h | 4391m | -3.4m/s | -3.1°C | 83.2% | 598.8hPa | 2.6V | 00:00:00 | 00:00:00 | 00:00:00 | |
| AM1SDL-15 | 2026-09-04 19:19:34 | 50.58890 | 13.01041 | 95° | 124km/h | 4394m | -3.4m/s | -3.1°C | 86.7% | 598.5hPa | 2.6V | 00:00:00 | 03:00:38 | 00:00:00 | |
| DB0NH | 2026-09-04 19:19:27 | 50.58906 | 13.00695 | 95° | 124km/h | 4418m | -3.4m/s | -3.3°C | 87.9% | 596.7hPa | 2.6V | 00:00:00 | 03:00:31 | 00:00:00 | |
| DL1JHR | 2026-09-04 19:19:26 | 50.58906 | 13.00695 | 95° | 124km/h | 4418m | -3.4m/s | -3.4°C | 84.5% | 596.8hPa | 2.7V | 07:40:00 | 00:00:00 | 00:00:00 | |
| DAC517 | 2026-09-04 19:19:23 | 50.58913 | 13.00546 | 95° | 124km/h | 4429m | -3.4m/s | 0°C | 0% | 0hPa | 2.7V | 00:00:00 | 00:00:00 | 00:00:00 | |
| AM1SDL-15 | 2026-09-04 19:19:22 | 50.58917 | 13.00447 | 95° | 124km/h | 4435m | -3.4m/s | -3.5°C | 87.8% | 595.5hPa | 2.7V | 00:00:00 | 03:00:26 | 00:00:00 | |
| DL1JEZ-13 | 2026-09-04 19:19:19 | 50.58921 | 13.00348 | 95° | 126km/h | 4442m | -3.6m/s | -3.6°C | 85.0% | 595.1hPa | 2.7V | 00:00:00 | 00:00:00 | 00:00:00 | |
| SONCRA | 2026-09-04 19:19:12 | 50.58943 | 12.99852 | 94° | 122km/h | 4477m | -3.5m/s | -3.9°C | 86.7% | 592.4hPa | 2.7V | 00:00:00 | 00:00:00 | 00:00:00 | |
| AM1SDL-15 | 2026-09-04 19:19:10 | 50.58943 | 12.99852 | 95° | 124km/h | 4477m | -3.4m/s | -3.9°C | 90.3% | 592.3hPa | 2.7V | 00:00:00 | 03:00:14 | 00:00:00 | |
| ANDY1245 | 2026-09-04 19:19:07 | 50.58948 | 12.99754 | 95° | 124km/h | 4484m | -3.5m/s | -4.0°C | 87.0% | 591.8hPa | 2.7V | 07:40:00 | 00:00:00 | 00:00:00 | |
| DL3JIN-12 | 2026-09-04 19:19:06 | 50.58949 | 12.99705 | 95° | 124km/h | 4488m | -3.4m/s | -4.0°C | 87.0% | 591.5hPa | 2.7V | 07:40:00 | 00:00:00 | 00:00:00 | |
| SONDE2-11 | 2026-09-04 19:19:05 | 50.58953 | 12.99606 | 93° | 124km/h | 4494m | -3.3m/s | -4.1°C | 87.6% | 591.1hPa | 2.7V | 00:00:00 | 00:00:00 | 00:00:00 | |
| NBG1-10 | 2026-09-04 19:19:04 | 50.58955 | 12.99557 | 93° | 126km/h | 4498m | -3.2m/s | -4.1°C | 91.5% | 590.9hPa | 2.7V | 00:00:00 | 03:00:08 | 00:00:00 | |
| DAC517 | 2026-09-04 19:19:03 | 50.58955 | 12.99557 | 94° | 124km/h | 4498m | -3.2m/s | 0°C | 0% | 0hPa | 2.7V | 00:00:00 | 00:00:00 | 00:00:00 | |
| EDDB2-12 | 2026-09-04 19:18:56 | 50.58968 | 12.99111 | 92° | 122km/h | 4528m | -3.4m/s | -4.4°C | 89.0% | 588.6hPa | 2.7V | 00:00:00 | 00:00:00 | 00:00:00 | |
| AM1SDL-15 | 2026-09-04 19:18:46 | 50.58981 | 12.98665 | 93° | 126km/h | 4559m | -3.4m/s | -3.9°C | 66.5% | 586.2hPa | 2.7V | 00:00:00 | 02:59:50 | 00:00:00 | |
| DL1JHR | 2026-09-04 19:18:45 | 50.58981 | 12.98665 | 94° | 126km/h | 4559m | -3.4m/s | -4.0°C | 63.9% | 586.2hPa | 2.7V | 07:40:00 | 00:00:00 | 00:00:00 | |
| AM1SDL-15 | 2026-09-04 19:18:34 | 50.58999 | 12.98064 | 92° | 128km/h | 4601m | -3.3m/s | -4.1°C | 60.4% | 583.2hPa | 2.7V | 00:00:00 | 02:59:38 | 00:00:00 | |
| EDDB2-11 | 2026-09-04 19:18:33 | 50.59002 | 12.97963 | 91° | 126km/h | 4607m | -3.4m/s | -4.3°C | 57.8% | 582.7hPa | 2.7V | 00:00:00 | 00:00:00 | 00:00:00 | |
| NBG1-10 | 2026-09-04 19:18:31 | 50.59003 | 12.97912 | 92° | 130km/h | 4611m | -3.5m/s | -4.2°C | 59.6% | 582.3hPa | 2.7V | 00:00:00 | 02:59:35 | 00:00:00 | |
| ANDY1245 | 2026-09-04 19:18:29 | 50.59004 | 12.97861 | 93° | 130km/h | 4614m | -3.4m/s | -4.3°C | 56.2% | 582.3hPa | 2.6V | 00:00:00 | 00:00:00 | 00:00:00 | |
| DB0NH | 2026-09-04 19:18:27 | 50.59007 | 12.97707 | 92° | 130km/h | 4625m | -3.5m/s | -4.3°C | 58.3% | 581.3hPa | 2.6V | 00:00:00 | 02:59:31 | 00:00:00 | |
| DL3JIN-12 | 2026-09-04 19:18:25 | 50.59008 | 12.97656 | 93° | 128km/h | 4629m | -3.4m/s | -4.3°C | 55.8% | 581.2hPa | 2.6V | 07:40:00 | 00:00:00 | 00:00:00 | |
| DL1JHR | 2026-09-04 19:18:24 | 50.59009 | 12.97604 | 92° | 130km/h | 4632m | -3.4m/s | -4.3°C | 56.7% | 580.9hPa | 2.6V | 07:40:00 | 00:00:00 | 00:00:00 | |
| ANDY1245 | 2026-09-04 19:18:23 | 50.59009 | 12.97553 | 92° | 130km/h | 4635m | -3.5m/s | -4.3°C | 56.8% | 580.7hPa | 2.6V | 00:00:00 | 00:00:00 | 00:00:00 | |
| AM1SDL-15 | 2026-09-04 19:18:22 | 50.59011 | 12.97450 | 91° | 130km/h | 4643m | -3.3m/s | -4.3°C | 59.5% | 580.1hPa | 2.6V | 07:40:00 | 02:59:26 | 00:00:00 | |
| DF2AP-13 | 2026-09-04 19:18:20 | 50.59012 | 12.97347 | 92° | 131km/h | 4650m | -3.4m/s | -4.3°C | 60.4% | 579.6hPa | 2.6V | 00:00:00 | 02:59:24 | 00:00:00 | |
| SONCRA | 2026-09-04 19:18:10 | 50.59016 | 12.96829 | 90° | 130km/h | 4684m | -3.5m/s | -4.5°C | 67.6% | 577.0hPa | 2.6V | 00:00:00 | 00:00:00 | 00:00:00 | |
| DL1JEZ-13 | 2026-09-04 19:18:06 | 50.59016 | 12.96673 | 91° | 131km/h | 4695m | -3.5m/s | -4.6°C | 72.5% | 576.3hPa | 2.6V | 00:00:00 | 00:00:00 | 00:00:00 | |
| DL3JIN-12 | 2026-09-04 19:18:04 | 50.59016 | 12.96569 | 91° | 130km/h | 4702m | -3.5m/s | -4.6°C | 74.8% | 575.7hPa | 2.6V | 07:41:00 | 00:00:00 | 00:00:00 | |
| SONDE2-11 | 2026-09-04 19:18:03 | 50.59015 | 12.96465 | 90° | 130km/h | 4709m | -3.5m/s | -4.7°C | 76.9% | 575.2hPa | 2.6V | 00:00:00 | 00:00:00 | 00:00:00 | |
| EDDB2-11 | 2026-09-04 19:18:02 | 50.59016 | 12.96361 | 90° | 131km/h | 4716m | -3.4m/s | -4.8°C | 77.6% | 574.7hPa | 2.6V | 00:00:00 | 00:00:00 | 00:00:00 | |
| EDDB2-12 | 2026-09-04 19:17:54 | 50.59024 | 12.95939 | 91° | 131km/h | 4745m | -3.4m/s | -5.0°C | 81.8% | 572.5hPa | 2.6V | 00:00:00 | 00:00:00 | 00:00:00 | |
| ANDY1245 | 2026-09-04 19:17:53 | 50.59023 | 12.95992 | 93° | 131km/h | 4742m | -3.7m/s | -5.0°C | 83.5% | 573.0hPa | 2.6V | 00:00:00 | 00:00:00 | 00:00:00 | |
| DF2AP-13 | 2026-09-04 19:17:50 | 50.59027 | 12.95781 | 92° | 133km/h | 4756m | -3.5m/s | -4.9°C | 82.7% | 571.7hPa | 2.6V | 00:00:00 | 02:58:54 | 00:00:00 | |
| AM1SDL-15 | 2026-09-04 19:17:46 | 50.59030 | 12.95571 | 92° | 133km/h | 4772m | -3.6m/s | -5.0°C | 80.1% | 570.6hPa | 2.6V | 00:00:00 | 02:58:50 | 00:00:00 | |
| DL3JIN-12 | 2026-09-04 19:17:44 | 50.59030 | 12.95518 | 92° | 133km/h | 4775m | -3.7m/s | -5.1°C | 75.8% | 570.5hPa | 2.6V | 07:41:00 | 00:00:00 | 00:00:00 | |
| DL1JHR | 2026-09-04 19:17:42 | 50.59031 | 12.95412 | 92° | 133km/h | 4783m | -3.8m/s | -5.1°C | 72.1% | 569.9hPa | 2.6V | 07:41:00 | 00:00:00 | 00:00:00 | |
| AM1SDL-15 | 2026-09-04 19:17:34 | 50.59038 | 12.94935 | 92° | 133km/h | 4818m | -3.7m/s | -5.1°C | 63.3% | 567.3hPa | 2.6V | 00:00:00 | 02:58:38 | 00:00:00 | |
| SONDE2-11 | 2026-09-04 19:17:32 | 50.59039 | 12.94830 | 91° | 133km/h | 4825m | -4.0m/s | -5.2°C | 60.1% | 566.8hPa | 2.6V | 00:00:00 | 00:00:00 | 00:00:00 | |
| EDDB2-11 | 2026-09-04 19:17:31 | 50.59040 | 12.94723 | 91° | 133km/h | 4833m | -4.0m/s | -5.3°C | 57.9% | 566.2hPa | 2.6V | 00:00:00 | 00:00:00 | 00:00:00 | |
| DB0NH | 2026-09-04 19:17:27 | 50.59042 | 12.94564 | 92° | 135km/h | 4845m | -3.8m/s | -5.2°C | 56.4% | 565.3hPa | 2.6V | 00:00:00 | 02:58:31 | 00:00:00 | |
| NBG1-10 | 2026-09-04 19:17:25 | 50.59043 | 12.94459 | 92° | 135km/h | 4853m | -3.8m/s | -5.2°C | 54.6% | 564.8hPa | 2.6V | 00:00:00 | 02:58:29 | 00:00:00 | |
| ANDY1245 | 2026-09-04 19:17:23 | 50.59044 | 12.94406 | 92° | 133km/h | 4857m | -3.9m/s | -5.3°C | 51.2% | 564.5hPa | 2.6V | 00:00:00 | 00:00:00 | 00:00:00 | |
| AM1SDL-15 | 2026-09-04 19:17:22 | 50.59045 | 12.94299 | 92° | 135km/h | 4865m | -3.8m/s | -5.3°C | 52.8% | 563.9hPa | 2.6V | 00:00:00 | 02:58:26 | 00:00:00 | |
| DL1JHR | 2026-09-04 19:17:21 | 50.59045 | 12.94299 | 92° | 133km/h | 4865m | -3.8m/s | -5.3°C | 50.5% | 563.9hPa | 2.6V | 07:42:00 | 00:00:00 | 00:00:00 | |
| DH8WE-5 | 2026-09-04 19:17:11 | 50.59051 | 12.93710 | 91° | 133km/h | 4908m | -3.8m/s | -5.5°C | 52.1% | 561.0hPa | 2.6V | 00:00:00 | 00:00:00 | 00:00:00 | |
| AM1SDL-15 | 2026-09-04 19:17:10 | 50.59051 | 12.93657 | 91° | 135km/h | 4912m | -3.9m/s | -5.5°C | 55.5% | 560.6hPa | 2.6V | 00:00:00 | 02:58:14 | 00:00:00 | |
| SONCRA | 2026-09-04 19:17:08 | 50.59052 | 12.93497 | 90° | 133km/h | 4924m | -3.9m/s | -5.6°C | 48.9% | 559.7hPa | 2.6V | 00:00:00 | 00:00:00 | 00:00:00 | |
| DL3JIN-12 | 2026-09-04 19:17:03 | 50.59052 | 12.93337 | 91° | 135km/h | 4936m | -4.1m/s | -5.6°C | 49.4% | 558.9hPa | 2.6V | 07:42:00 | 00:00:00 | 00:00:00 | |
| SONDE2-11 | 2026-09-04 19:17:01 | 50.59053 | 12.93176 | 90° | 133km/h | 4948m | -3.9m/s | -5.6°C | 44.9% | 558.0hPa | 2.6V | 00:00:00 | 00:00:00 | 00:00:00 | |
| EDDB2-11 | 2026-09-04 19:16:59 | 50.59053 | 12.93069 | 90° | 133km/h | 4956m | -4.0m/s | -5.7°C | 44.3% | 557.5hPa | 2.6V | 00:00:00 | 00:00:00 | 00:00:00 | |
| EDDB2-12 | 2026-09-04 19:16:51 | 50.59055 | 12.92639 | 90° | 135km/h | 4988m | -4.2m/s | -5.8°C | 44.0% | 555.1hPa | 2.6V | 00:00:00 | 00:00:00 | 00:00:00 | |
| ANDY1245 | 2026-09-04 19:16:47 | 50.59057 | 12.92476 | 92° | 137km/h | 5000m | -4.1m/s | -5.8°C | 39.5% | 554.3hPa | 2.6V | 00:00:00 | 00:00:00 | 00:00:00 | |
| AM1SDL-15 | 2026-09-04 19:16:46 | 50.59058 | 12.92368 | 92° | 135km/h | 5008m | -4.0m/s | -5.8°C | 44.4% | 553.6hPa | 2.6V | 07:42:00 | 02:57:50 | 00:00:00 | |
| DL3JIN-12 | 2026-09-04 19:16:42 | 50.59060 | 12.92205 | 92° | 137km/h | 5021m | -4.1m/s | -6.0°C | 56.1% | 552.9hPa | 2.6V | 07:42:00 | 00:00:00 | 00:00:00 | |
| ANDY1245 | 2026-09-04 19:16:41 | 50.59060 | 12.92151 | 92° | 137km/h | 5025m | -3.9m/s | -6.0°C | 56.8% | 552.6hPa | 2.6V | 00:00:00 | 00:00:00 | 00:00:00 | |
| DL1JHR | 2026-09-04 19:16:40 | 50.59060 | 12.92097 | 92° | 137km/h | 5029m | -3.9m/s | -6.1°C | 57.3% | 552.3hPa | 2.6V | 07:42:00 | 00:00:00 | 00:00:00 | |
| SONCRA | 2026-09-04 19:16:37 | 50.59062 | 12.91827 | 90° | 135km/h | 5049m | -3.9m/s | -6.3°C | 60.8% | 550.9hPa | 2.6V | 00:00:00 | 00:00:00 | 00:00:00 | |
| AM1SDL-15 | 2026-09-04 19:16:34 | 50.59062 | 12.91719 | 91° | 137km/h | 5057m | -4.1m/s | -6.3°C | 63.3% | 550.2hPa | 2.6V | 00:00:00 | 02:57:38 | 00:00:00 | |
| SONDE2-11 | 2026-09-04 19:16:30 | 50.59063 | 12.91503 | 90° | 135km/h | 5074m | -4.1m/s | -6.4°C | 59.1% | 549.1hPa | 2.6V | 00:00:00 | 00:00:00 | 00:00:00 | |
| EDDB2-11 | 2026-09-04 19:16:29 | 50.59064 | 12.91394 | 90° | 135km/h | 5082m | -4.1m/s | -6.5°C | 58.5% | 548.5hPa | 2.6V | 00:00:00 | 00:00:00 | 00:00:00 | |
| DB6KT-10 | 2026-09-04 19:16:24 | 50.59064 | 12.91232 | 91° | 137km/h | 5094m | -4.2m/s | -6.5°C | 0% | 0hPa | 2.6V | 00:00:00 | 00:00:00 | 00:00:00 | |
| DB0NH | 2026-09-04 19:16:22 | 50.59065 | 12.91068 | 91° | 139km/h | 5107m | -4.0m/s | -6.5°C | 59.0% | 546.8hPa | 2.6V | 07:42:00 | 02:57:26 | 00:00:00 | |
| EDDB2-12 | 2026-09-04 19:16:20 | 50.59065 | 12.90959 | 89° | 137km/h | 5115m | -4.2m/s | -6.6°C | 56.0% | 546.2hPa | 2.6V | 00:00:00 | 00:00:00 | 00:00:00 | |
| NBG1-10 | 2026-09-04 19:16:19 | 50.59065 | 12.90903 | 90° | 139km/h | 5119m | -4.3m/s | -6.5°C | 57.2% | 546.0hPa | 2.6V | 00:00:00 | 02:57:23 | 00:00:00 | |
| ANDY1245 | 2026-09-04 19:16:12 | 50.59062 | 12.90573 | 90° | 139km/h | 5145m | -4.1m/s | -6.7°C | 50.3% | 544.2hPa | 2.6V | 00:00:00 | 00:00:00 | 00:00:00 | |
| AM1SDL-15 | 2026-09-04 19:16:10 | 50.59061 | 12.90407 | 90° | 139km/h | 5157m | -4.2m/s | -6.6°C | 51.7% | 543.3hPa | 2.6V | 00:00:00 | 02:57:14 | 00:00:00 | |
| DO3MHA-11 | 2026-09-04 19:16:07 | 50.59059 | 12.90241 | 89° | 139km/h | 5170m | -4.0m/s | -6.7°C | 50.4% | 542.4hPa | 2.6V | 00:00:00 | 02:57:11 | 00:00:00 | |
| SONCRA | 2026-09-04 19:16:06 | 50.59058 | 12.90131 | 88° | 139km/h | 5178m | -4.3m/s | -6.8°C | 48.5% | 541.9hPa | 2.6V | 00:00:00 | 00:00:00 | 00:00:00 | |
| ANDY1245 | 2026-09-04 19:16:02 | 50.59056 | 12.90020 | 89° | 139km/h | 5187m | -4.2m/s | -6.8°C | 47.4% | 541.3hPa | 2.6V | 00:00:00 | 00:00:00 | 00:00:00 | |
| SONDE2-11 | 2026-09-04 19:15:59 | 50.59052 | 12.89799 | 88° | 139km/h | 5203m | -4.2m/s | -6.8°C | 46.0% | 540.1hPa | 2.6V | 00:00:00 | 00:00:00 | 00:00:00 | |
| EDDB2-12 | 2026-09-04 19:15:49 | 50.59039 | 12.89245 | 88° | 139km/h | 5247m | -4.2m/s | -7.0°C | 42.3% | 537.2hPa | 2.6V | 00:00:00 | 00:00:00 | 00:00:00 | |
| DO3MHA-11 | 2026-09-04 19:15:47 | 50.59036 | 12.89134 | 89° | 139km/h | 5255m | -4.1m/s | -7.1°C | 47.3% | 536.5hPa | 2.6V | 07:43:00 | 02:56:51 | 00:00:00 | |
| NBG1-10 | 2026-09-04 19:15:46 | 50.59036 | 12.89079 | 89° | 137km/h | 5259m | -4.1m/s | -7.1°C | 47.4% | 536.2hPa | 2.6V | 00:00:00 | 02:56:50 | 00:00:00 | |
| DL3JIN-12 | 2026-09-04 19:15:40 | 50.59030 | 12.88802 | 89° | 139km/h | 5281m | -4.3m/s | -7.4°C | 46.7% | 534.8hPa | 2.6V | 07:44:00 | 00:00:00 | 00:00:00 | |
| DL1JEZ-13 | 2026-09-04 19:15:38 | 50.59027 | 12.88692 | 89° | 139km/h | 5289m | -4.4m/s | -7.4°C | 47.1% | 534.3hPa | 2.6V | 00:00:00 | 00:00:00 | 00:00:00 | |
| DO3MHA-11 | 2026-09-04 19:15:37 | 50.59024 | 12.88582 | 88° | 137km/h | 5298m | -4.2m/s | -7.5°C | 49.9% | 533.7hPa | 2.6V | 00:00:00 | 02:56:41 | 00:00:00 | |
| SONCRA | 2026-09-04 19:15:35 | 50.59021 | 12.88473 | 87° | 135km/h | 5306m | -4.3m/s | -7.6°C | 49.0% | 533.1hPa | 2.6V | 00:00:00 | 00:00:00 | 00:00:00 | |
| AM1SDL-15 | 2026-09-04 19:15:34 | 50.59019 | 12.88419 | 88° | 137km/h | 5311m | -4.2m/s | -7.6°C | 51.9% | 532.7hPa | 2.6V | 00:00:00 | 02:56:38 | 00:00:00 | |
| DO8TBO-1 | 2026-09-04 19:15:33 | 50.59018 | 12.88364 | 88° | 137km/h | 5315m | -4.3m/s | -7.6°C | 52.0% | 532.4hPa | 2.6V | 07:43:00 | 02:56:37 | 00:00:00 | |
| SONDE2-11 | 2026-09-04 19:15:28 | 50.59009 | 12.88092 | 87° | 137km/h | 5337m | -4.4m/s | -7.9°C | 48.6% | 531.0hPa | 2.6V | 00:00:00 | 00:00:00 | 00:00:00 | |
| DO3MHA-11 | 2026-09-04 19:15:27 | 50.59008 | 12.88037 | 88° | 137km/h | 5341m | -4.4m/s | -7.8°C | 51.6% | 530.7hPa | 2.6V | 00:00:00 | 02:56:31 | 00:00:00 | |
| EDDB2-11 | 2026-09-04 19:15:26 | 50.59006 | 12.87982 | 87° | 137km/h | 5346m | -4.4m/s | -7.9°C | 48.5% | 530.5hPa | 2.6V | 00:00:00 | 00:00:00 | 00:00:00 | |
| ANDY1245 | 2026-09-04 19:15:23 | 50.59003 | 12.87873 | 89° | 137km/h | 5354m | -4.2m/s | -8.0°C | 48.2% | 529.8hPa | 2.6V | 07:44:00 | 00:00:00 | 00:00:00 | |
| DB0NH | 2026-09-04 19:15:22 | 50.59000 | 12.87764 | 88° | 135km/h | 5363m | -4.2m/s | -8.0°C | 50.2% | 529.1hPa | 2.6V | 00:00:00 | 02:56:26 | 00:00:00 | |
| DF2AP-13 | 2026-09-04 19:15:20 | 50.58997 | 12.87655 | 88° | 135km/h | 5371m | -4.2m/s | -8.1°C | 50.2% | 528.6hPa | 2.6V | 00:00:00 | 02:56:24 | 00:00:00 | |
| DL3JIN-12 | 2026-09-04 19:15:19 | 50.58997 | 12.87655 | 88° | 137km/h | 5371m | -4.2m/s | -8.1°C | 47.7% | 528.6hPa | 2.6V | 07:44:00 | 00:00:00 | 00:00:00 | |
| EDDB2-12 | 2026-09-04 19:15:18 | 50.58993 | 12.87546 | 87° | 135km/h | 5380m | -4.4m/s | -8.2°C | 48.6% | 528.0hPa | 2.6V | 00:00:00 | 00:00:00 | 00:00:00 | |
| DO3MHA-11 | 2026-09-04 19:15:17 | 50.58992 | 12.87492 | 88° | 135km/h | 5384m | -4.2m/s | -8.2°C | 52.9% | 527.6hPa | 2.6V | 00:00:00 | 02:56:21 | 00:00:00 | |
| NBG1-10 | 2026-09-04 19:15:13 | 50.58984 | 12.87277 | 87° | 133km/h | 5401m | -4.3m/s | -8.3°C | 52.8% | 526.5hPa | 2.5V | 07:43:00 | 02:56:17 | 00:00:00 | |
| AM1SDL-15 | 2026-09-04 19:15:10 | 50.58977 | 12.87117 | 87° | 135km/h | 5414m | -4.4m/s | -8.4°C | 52.3% | 525.7hPa | 2.5V | 07:43:00 | 02:56:14 | 00:00:00 | |
| SONCRA | 2026-09-04 19:15:04 | 50.58960 | 12.86743 | 85° | 133km/h | 5445m | -4.3m/s | -8.7°C | 48.7% | 523.5hPa | 2.5V | 00:00:00 | 00:00:00 | 00:00:00 | |
| DO3MHA-11 | 2026-09-04 19:15:03 | 50.58960 | 12.86743 | 86° | 135km/h | 5445m | -4.2m/s | -8.7°C | 51.3% | 523.5hPa | 2.5V | 00:00:00 | 02:56:07 | 00:00:00 | |
| SONDE2-11 | 2026-09-04 19:14:57 | 50.58945 | 12.86423 | 85° | 133km/h | 5471m | -4.3m/s | -8.9°C | 47.2% | 521.8hPa | 2.5V | 00:00:00 | 00:00:00 | 00:00:00 | |
| EDDB2-11 | 2026-09-04 19:14:55 | 50.58940 | 12.86316 | 85° | 133km/h | 5480m | -4.5m/s | -8.9°C | 46.8% | 521.2hPa | 2.5V | 00:00:00 | 00:00:00 | 00:00:00 | |
| EDDB2-12 | 2026-09-04 19:14:47 | 50.58920 | 12.85892 | 85° | 133km/h | 5516m | -4.4m/s | -9.1°C | 44.5% | 518.8hPa | 2.5V | 00:00:00 | 00:00:00 | 00:00:00 | |
| AM1SDL-15 | 2026-09-04 19:14:46 | 50.58917 | 12.85839 | 86° | 133km/h | 5521m | -4.4m/s | -9.1°C | 46.9% | 518.4hPa | 2.5V | 00:00:00 | 02:55:50 | 00:00:00 | |
| DF2AP-13 | 2026-09-04 19:14:45 | 50.58914 | 12.85786 | 86° | 135km/h | 5525m | -4.6m/s | -9.1°C | 46.7% | 518.2hPa | 2.5V | 00:00:00 | 02:55:49 | 00:00:00 | |
| DO3MHA-11 | 2026-09-04 19:14:43 | 50.58910 | 12.85681 | 87° | 133km/h | 5535m | -4.5m/s | -9.1°C | 46.0% | 517.5hPa | 2.6V | 00:00:00 | 02:55:47 | 00:00:00 | |
| NBG1-10 | 2026-09-04 19:14:40 | 50.58903 | 12.85522 | 87° | 135km/h | 5548m | -4.4m/s | -9.1°C | 44.0% | 516.7hPa | 2.6V | 00:00:00 | 02:55:44 | 00:00:00 | |
| DL3JIN-12 | 2026-09-04 19:14:38 | 50.58901 | 12.85469 | 88° | 133km/h | 5553m | -4.7m/s | -9.2°C | 40.8% | 516.4hPa | 2.6V | 07:45:00 | 00:00:00 | 00:00:00 | |
| DL1JHR | 2026-09-04 19:14:35 | 50.58895 | 12.85309 | 88° | 135km/h | 5566m | -4.5m/s | -9.2°C | 43.1% | 515.5hPa | 2.6V | 07:45:00 | 00:00:00 | 00:00:00 | |
| AM1SDL-15 | 2026-09-04 19:14:34 | 50.58892 | 12.85202 | 88° | 135km/h | 5575m | -4.7m/s | -9.3°C | 47.0% | 514.8hPa | 2.6V | 00:00:00 | 02:55:38 | 00:00:00 | |
| SONCRA | 2026-09-04 19:14:33 | 50.58889 | 12.85095 | 87° | 133km/h | 5585m | -4.6m/s | -9.4°C | 44.5% | 514.2hPa | 2.6V | 00:00:00 | 00:00:00 | 00:00:00 | |
| 13BRC | 2026-09-04 19:14:30 | 50.58887 | 12.85042 | 88° | 133km/h | 5589m | -4.5m/s | 0°C | 0% | 513.9hPa | 2.6V | 00:00:00 | 00:00:00 | 00:00:00 | |
| SONDE2-11 | 2026-09-04 19:14:26 | 50.58880 | 12.84776 | 87° | 133km/h | 5612m | -4.7m/s | -9.6°C | 42.3% | 512.3hPa | 2.6V | 00:00:00 | 00:00:00 | 00:00:00 | |
| DL1JEZ-13 | 2026-09-04 19:14:25 | 50.58879 | 12.84776 | 89° | 135km/h | 5613m | -4.7m/s | -9.6°C | 42.3% | 512.3hPa | 2.6V | 00:00:00 | 00:00:00 | 00:00:00 | |
| EDDB2-11 | 2026-09-04 19:14:24 | 50.58877 | 12.84669 | 87° | 135km/h | 5622m | -4.6m/s | -9.6°C | 42.2% | 511.8hPa | 2.6V | 00:00:00 | 00:00:00 | 00:00:00 | |
| DO3MHA-11 | 2026-09-04 19:14:23 | 50.58876 | 12.84615 | 88° | 135km/h | 5627m | -4.8m/s | -9.6°C | 43.8% | 511.4hPa | 2.6V | 07:44:00 | 02:55:27 | 00:00:00 | |
| DB0NH | 2026-09-04 19:14:18 | 50.58869 | 12.84345 | 88° | 135km/h | 5650m | -4.9m/s | -9.7°C | 40.5% | 509.8hPa | 2.6V | 00:00:00 | 02:55:22 | 00:00:00 | |
| ANDY1245 | 2026-09-04 19:14:17 | 50.58869 | 12.84345 | 88° | 135km/h | 5650m | -5.0m/s | -9.8°C | 38.3% | 509.9hPa | 2.6V | 00:00:00 | 00:00:00 | 00:00:00 | |
| DL1JHR | 2026-09-04 19:14:14 | 50.58864 | 12.84184 | 89° | 135km/h | 5664m | -4.5m/s | -9.9°C | 36.9% | 508.9hPa | 2.6V | 07:45:00 | 00:00:00 | 00:00:00 | |
| DO3MHA-11 | 2026-09-04 19:14:13 | 50.58862 | 12.84077 | 88° | 133km/h | 5674m | -4.9m/s | -9.9°C | 38.7% | 508.3hPa | 2.6V | 00:00:00 | 02:55:17 | 00:00:00 | |
| ANDY1245 | 2026-09-04 19:14:11 | 50.58860 | 12.84023 | 89° | 135km/h | 5679m | -5.0m/s | -9.9°C | 36.4% | 508.0hPa | 2.5V | 00:00:00 | 00:00:00 | 00:00:00 | |
| DF2AP-13 | 2026-09-04 19:14:10 | 50.58858 | 12.83917 | 89° | 135km/h | 5688m | -4.6m/s | -9.9°C | 36.6% | 507.3hPa | 2.5V | 00:00:00 | 02:55:14 | 00:00:00 | |
| NBG1-10 | 2026-09-04 19:14:07 | 50.58855 | 12.83757 | 89° | 137km/h | 5703m | -4.9m/s | -10.0°C | 36.9% | 506.4hPa | 2.5V | 00:00:00 | 02:55:11 | 00:00:00 | |
| ANDY1245 | 2026-09-04 19:14:06 | 50.58855 | 12.83757 | 90° | 133km/h | 5703m | -5.0m/s | -10.1°C | 34.8% | 506.4hPa | 2.5V | 00:00:00 | 00:00:00 | 00:00:00 | |
| AM1SDL-15 | 2026-09-04 19:14:04 | 50.58853 | 12.83597 | 89° | 135km/h | 5717m | -4.6m/s | -10.1°C | 38.2% | 505.5hPa | 2.5V | 00:00:00 | 02:55:08 | 00:00:00 | |
| SONCRA | 2026-09-04 19:14:02 | 50.58850 | 12.83436 | 88° | 135km/h | 5731m | -4.8m/s | -10.2°C | 36.2% | 504.6hPa | 2.5V | 00:00:00 | 00:00:00 | 00:00:00 | |
| SONDE2-11 | 2026-09-04 19:13:55 | 50.58843 | 12.83111 | 88° | 137km/h | 5760m | -4.8m/s | -10.4°C | 35.0% | 502.7hPa | 2.5V | 00:00:00 | 00:00:00 | 00:00:00 | |
| EDDB2-11 | 2026-09-04 19:13:54 | 50.58841 | 12.83003 | 88° | 137km/h | 5769m | -4.7m/s | -10.4°C | 35.0% | 502.1hPa | 2.5V | 00:00:00 | 00:00:00 | 00:00:00 | |
| EDDB2-12 | 2026-09-04 19:13:45 | 50.58834 | 12.82567 | 88° | 137km/h | 5807m | -4.6m/s | -10.7°C | 36.9% | 499.6hPa | 2.5V | 00:00:00 | 00:00:00 | 00:00:00 | |
| DO3MHA-11 | 2026-09-04 19:13:43 | 50.58831 | 12.82457 | 89° | 137km/h | 5816m | -4.9m/s | -10.8°C | 39.7% | 498.9hPa | 2.5V | 00:00:00 | 02:54:47 | 00:00:00 | |
| DB6KT-10 | 2026-09-04 19:13:37 | 50.58826 | 12.82184 | 89° | 139km/h | 5841m | -4.8m/s | -11.1°C | 0% | 0hPa | 2.5V | 00:00:00 | 00:00:00 | 00:00:00 | |
| NBG1-10 | 2026-09-04 19:13:34 | 50.58821 | 12.81966 | 88° | 137km/h | 5859m | -4.8m/s | -11.2°C | 46.4% | 496.2hPa | 2.5V | 00:00:00 | 02:54:38 | 00:00:00 | |
| DO3MHA-11 | 2026-09-04 19:13:33 | 50.58820 | 12.81912 | 88° | 137km/h | 5864m | -4.8m/s | -11.2°C | 45.9% | 495.9hPa | 2.6V | 00:00:00 | 02:54:37 | 00:00:00 | |
| SONCRA | 2026-09-04 19:13:31 | 50.58817 | 12.81749 | 88° | 135km/h | 5878m | -4.7m/s | -11.5°C | 46.1% | 495.0hPa | 2.6V | 00:00:00 | 00:00:00 | 00:00:00 | |
| ANDY1245 | 2026-09-04 19:13:28 | 50.58815 | 12.81694 | 89° | 137km/h | 5883m | -4.9m/s | -11.5°C | 46.1% | 494.6hPa | 2.6V | 00:00:00 | 00:00:00 | 00:00:00 | |
| SONDE2-11 | 2026-09-04 19:13:24 | 50.58809 | 12.81422 | 87° | 137km/h | 5907m | -4.8m/s | -11.7°C | 47.8% | 493.2hPa | 2.6V | 00:00:00 | 00:00:00 | 00:00:00 | |
| DO3MHA-11 | 2026-09-04 19:13:23 | 50.58808 | 12.81368 | 88° | 137km/h | 5912m | -4.7m/s | -11.7°C | 50.5% | 492.8hPa | 2.6V | 00:00:00 | 02:54:27 | 00:00:00 | |
| EDDB2-11 | 2026-09-04 19:13:22 | 50.58807 | 12.81313 | 87° | 135km/h | 5916m | -4.6m/s | -11.8°C | 48.1% | 492.6hPa | 2.6V | 00:00:00 | 00:00:00 | 00:00:00 | |
| DL3JIN-12 | 2026-09-04 19:13:16 | 50.58799 | 12.81042 | 88° | 137km/h | 5940m | -4.6m/s | -12.1°C | 49.8% | 491.1hPa | 2.6V | 07:45:00 | 00:00:00 | 00:00:00 | |
| EDDB2-12 | 2026-09-04 19:13:14 | 50.58794 | 12.80880 | 86° | 135km/h | 5954m | -4.7m/s | -12.2°C | 50.4% | 490.2hPa | 2.6V | 00:00:00 | 00:00:00 | 00:00:00 | |
| DO3MHA-11 | 2026-09-04 19:13:13 | 50.58792 | 12.80826 | 87° | 135km/h | 5959m | -4.4m/s | -12.2°C | 53.6% | 489.9hPa | 2.6V | 00:00:00 | 02:54:17 | 00:00:00 | |
| DL1JEZ-13 | 2026-09-04 19:13:12 | 50.58792 | 12.80826 | 88° | 135km/h | 5959m | -4.4m/s | -12.2°C | 50.5% | 489.9hPa | 2.6V | 00:00:00 | 00:00:00 | 00:00:00 | |
| DB0NH | 2026-09-04 19:13:05 | 50.58777 | 12.80396 | 87° | 135km/h | 5995m | -4.5m/s | -12.5°C | 52.0% | 487.5hPa | 2.6V | 00:00:00 | 02:54:09 | 00:00:00 | |
| DO3MHA-11 | 2026-09-04 19:13:03 | 50.58773 | 12.80289 | 87° | 135km/h | 6004m | -4.6m/s | -12.5°C | 51.8% | 486.9hPa | 2.6V | 07:46:00 | 02:54:07 | 00:00:00 | |
| SONCRA | 2026-09-04 19:13:00 | 50.58758 | 12.79967 | 85° | 135km/h | 6031m | -4.4m/s | -12.8°C | 48.0% | 485.3hPa | 2.6V | 00:00:00 | 00:00:00 | 00:00:00 | |
| SONDE2-11 | 2026-09-04 19:12:53 | 50.58746 | 12.79698 | 86° | 135km/h | 6053m | -4.5m/s | -13.0°C | 47.4% | 483.8hPa | 2.6V | 00:00:00 | 00:00:00 | 00:00:00 | |
| EDDB2-11 | 2026-09-04 19:12:51 | 50.58744 | 12.79645 | 86° | 133km/h | 6058m | -4.5m/s | -13.0°C | 47.7% | 483.6hPa | 2.6V | 00:00:00 | 00:00:00 | 00:00:00 | |
| ANDY1245 | 2026-09-04 19:12:49 | 50.58742 | 12.79591 | 88° | 135km/h | 6062m | -4.4m/s | -13.0°C | 48.2% | 483.2hPa | 2.6V | 07:46:00 | 00:00:00 | 00:00:00 | |
| AM1SDL-15 | 2026-09-04 19:12:45 | 50.58732 | 12.79327 | 87° | 133km/h | 6085m | -4.3m/s | -13.1°C | 48.4% | 481.8hPa | 2.6V | 00:00:00 | 02:53:49 | 00:00:00 | |
| DO3MHA-11 | 2026-09-04 19:12:43 | 50.58727 | 12.79221 | 86° | 133km/h | 6094m | -4.4m/s | -13.2°C | 47.6% | 481.2hPa | 2.5V | 00:00:00 | 02:53:47 | 00:00:00 | |
| DB0NH | 2026-09-04 19:12:35 | 50.58709 | 12.78796 | 87° | 133km/h | 6129m | -4.3m/s | -13.4°C | 41.7% | 479.0hPa | 2.5V | 00:00:00 | 02:53:39 | 00:00:00 | |
| DL3JIN-12 | 2026-09-04 19:12:34 | 50.58709 | 12.78796 | 88° | 135km/h | 6129m | -4.3m/s | -13.4°C | 39.1% | 479.1hPa | 2.5V | 07:46:00 | 00:00:00 | 00:00:00 | |
| DO3MHA-11 | 2026-09-04 19:12:33 | 50.58706 | 12.78690 | 88° | 133km/h | 6138m | -4.2m/s | -13.4°C | 38.6% | 478.4hPa | 2.5V | 00:00:00 | 02:53:37 | 00:00:00 | |
| DF2AP-13 | 2026-09-04 19:12:32 | 50.58704 | 12.78637 | 88° | 131km/h | 6142m | -4.4m/s | -13.4°C | 36.8% | 478.2hPa | 2.5V | 00:00:00 | 02:53:36 | 00:00:00 | |
| SONCRA | 2026-09-04 19:12:29 | 50.58699 | 12.78425 | 87° | 133km/h | 6159m | -4.4m/s | -13.3°C | 27.9% | 477.2hPa | 2.5V | 00:00:00 | 00:00:00 | 00:00:00 | |
| NBG1-10 | 2026-09-04 19:12:28 | 50.58699 | 12.78425 | 88° | 131km/h | 6159m | -4.3m/s | -13.2°C | 29.9% | 477.1hPa | 2.5V | 00:00:00 | 02:53:32 | 00:00:00 | |
| DO3MHA-11 | 2026-09-04 19:12:23 | 50.58691 | 12.78160 | 88° | 133km/h | 6181m | -4.3m/s | -13.1°C | 24.9% | 475.7hPa | 2.5V | 00:00:00 | 02:53:27 | 00:00:00 | |
| SONDE2-11 | 2026-09-04 19:12:22 | 50.58689 | 12.78055 | 87° | 133km/h | 6190m | -4.2m/s | -13.0°C | 19.0% | 475.2hPa | 2.5V | 00:00:00 | 00:00:00 | 00:00:00 | |
| EDDB2-11 | 2026-09-04 19:12:20 | 50.58687 | 12.78002 | 87° | 131km/h | 6194m | -4.5m/s | -12.9°C | 16.6% | 475.0hPa | 2.5V | 00:00:00 | 00:00:00 | 00:00:00 | |
| ANDY1245 | 2026-09-04 19:12:17 | 50.58685 | 12.77896 | 89° | 133km/h | 6203m | -4.2m/s | -12.9°C | 14.1% | 474.4hPa | 2.5V | 00:00:00 | 00:00:00 | 00:00:00 | |
| DL3JIN-12 | 2026-09-04 19:12:14 | 50.58681 | 12.77738 | 89° | 131km/h | 6215m | -4.3m/s | -13.0°C | 12.3% | 473.6hPa | 2.5V | 07:47:00 | 00:00:00 | 00:00:00 | |
| DO3MHA-11 | 2026-09-04 19:12:13 | 50.58679 | 12.77634 | 88° | 131km/h | 6224m | -4.2m/s | 0°C | 0% | 0hPa | 2.5V | 00:00:00 | 02:53:17 | 00:00:00 | |
| EDDB2-12 | 2026-09-04 19:12:12 | 50.58677 | 12.77582 | 87° | 130km/h | 6228m | -4.5m/s | -13.1°C | 12.3% | 472.8hPa | 2.5V | 00:00:00 | 00:00:00 | 00:00:00 | |
| ANDY1245 | 2026-09-04 19:12:11 | 50.58677 | 12.77582 | 89° | 131km/h | 6228m | -4.5m/s | -13.1°C | 12.3% | 472.8hPa | 2.5V | 00:00:00 | 00:00:00 | 00:00:00 | |
| DB0NH | 2026-09-04 19:12:05 | 50.58669 | 12.77217 | 89° | 131km/h | 6258m | -4.2m/s | -13.3°C | 12.6% | 470.9hPa | 2.5V | 07:47:00 | 02:53:09 | 00:00:00 | |
| DO3MHA-11 | 2026-09-04 19:12:03 | 50.58667 | 12.77113 | 88° | 131km/h | 6267m | -4.1m/s | -13.4°C | 12.3% | 470.4hPa | 2.5V | 00:00:00 | 02:53:07 | 00:00:00 | |
| SONCRA | 2026-09-04 19:11:57 | 50.58659 | 12.76800 | 87° | 131km/h | 6292m | -4.1m/s | -13.6°C | 10.7% | 468.9hPa | 2.5V | 00:00:00 | 00:00:00 | 00:00:00 | |
| SONDE2-11 | 2026-09-04 19:11:51 | 50.58646 | 12.76433 | 86° | 131km/h | 6321m | -4.0m/s | -13.7°C | 9.5% | 467.1hPa | 2.5V | 00:00:00 | 00:00:00 | 00:00:00 | |
| EDDB2-11 | 2026-09-04 19:11:49 | 50.58644 | 12.76381 | 86° | 131km/h | 6325m | -4.1m/s | -13.7°C | 9.4% | 466.8hPa | 2.5V | 00:00:00 | 00:00:00 | 00:00:00 | |
| 13BRC | 2026-09-04 19:11:46 | 50.58640 | 12.76276 | 88° | 131km/h | 6333m | -4.0m/s | 0°C | 0% | 466.3hPa | 2.5V | 00:00:00 | 00:00:00 | 00:00:00 | |
| DO3MHA-11 | 2026-09-04 19:11:43 | 50.58631 | 12.76069 | 86° | 131km/h | 6350m | -4.0m/s | -13.7°C | 9.3% | 465.3hPa | 2.5V | 07:47:00 | 02:52:47 | 00:00:00 | |
| EDDB2-12 | 2026-09-04 19:11:41 | 50.58626 | 12.75964 | 85° | 131km/h | 6358m | -4.0m/s | -13.8°C | 8.3% | 464.9hPa | 2.6V | 00:00:00 | 00:00:00 | 00:00:00 | |
| AM1SDL-15 | 2026-09-04 19:11:38 | 50.58618 | 12.75808 | 86° | 131km/h | 6370m | -4.0m/s | -13.8°C | 9.0% | 464.1hPa | 2.6V | 00:00:00 | 02:52:42 | 00:00:00 | |
| DAC517 | 2026-09-04 19:11:37 | 50.58618 | 12.75808 | 87° | 131km/h | 6370m | -4.1m/s | 0°C | 0% | 0hPa | 2.6V | 00:00:00 | 00:00:00 | 00:00:00 | |
| DO3MHA-11 | 2026-09-04 19:11:33 | 50.58606 | 12.75545 | 87° | 131km/h | 6390m | -4.0m/s | -13.8°C | 9.0% | 462.8hPa | 2.6V | 00:00:00 | 02:52:37 | 00:00:00 | |
| ANDY1245 | 2026-09-04 19:11:32 | 50.58607 | 12.75545 | 87° | 131km/h | 6390m | -4.0m/s | -13.8°C | 8.2% | 462.9hPa | 2.6V | 00:00:00 | 00:00:00 | 00:00:00 | |
| DL1JHR | 2026-09-04 19:11:30 | 50.58602 | 12.75440 | 87° | 131km/h | 6398m | -3.9m/s | 0°C | 0% | 0hPa | 2.6V | 00:00:00 | 00:00:00 | 00:00:00 | |
| AM1SDL-15 | 2026-09-04 19:11:26 | 50.58592 | 12.75181 | 87° | 131km/h | 6418m | -4.0m/s | -13.9°C | 8.7% | 461.1hPa | 2.6V | 00:00:00 | 02:52:30 | 00:00:00 | |
| DO3MHA-11 | 2026-09-04 19:11:23 | 50.58585 | 12.75025 | 87° | 131km/h | 6430m | -4.0m/s | -14.0°C | 9.0% | 460.4hPa | 2.5V | 00:00:00 | 02:52:27 | 00:00:00 | |
| NBG1-10 | 2026-09-04 19:11:22 | 50.58583 | 12.74973 | 87° | 131km/h | 6434m | -3.9m/s | -14.0°C | 8.8% | 460.1hPa | 2.5V | 00:00:00 | 02:52:26 | 00:00:00 | |
| SONDE2-11 | 2026-09-04 19:11:20 | 50.58577 | 12.74817 | 86° | 131km/h | 6446m | -4.0m/s | -14.0°C | 7.2% | 459.4hPa | 2.5V | 00:00:00 | 00:00:00 | 00:00:00 | |
| EDDB2-11 | 2026-09-04 19:11:18 | 50.58575 | 12.74765 | 86° | 130km/h | 6450m | -4.1m/s | -14.0°C | 6.9% | 459.2hPa | 2.5V | 00:00:00 | 00:00:00 | 00:00:00 | |
| AM1SDL-15 | 2026-09-04 19:11:14 | 50.58567 | 12.74556 | 87° | 131km/h | 6466m | -3.8m/s | -14.0°C | 6.8% | 458.2hPa | 2.5V | 00:00:00 | 02:52:18 | 00:00:00 | |
| DO3MHA-11 | 2026-09-04 19:11:13 | 50.58565 | 12.74504 | 87° | 131km/h | 6470m | -3.9m/s | -14.0°C | 6.9% | 458.0hPa | 2.5V | 00:00:00 | 02:52:17 | 00:00:00 | |
| DL3JIN-12 | 2026-09-04 19:11:12 | 50.58566 | 12.74504 | 88° | 131km/h | 6470m | -4.0m/s | -14.1°C | 6.2% | 458.0hPa | 2.6V | 07:48:00 | 00:00:00 | 00:00:00 | |
| DAC517 | 2026-09-04 19:11:11 | 50.58564 | 12.74452 | 88° | 131km/h | 6474m | -4.1m/s | 0°C | 0% | 0hPa | 2.6V | 00:00:00 | 00:00:00 | 00:00:00 | |
| EDDB2-12 | 2026-09-04 19:11:10 | 50.58560 | 12.74348 | 86° | 130km/h | 6482m | -3.8m/s | -14.1°C | 5.6% | 457.4hPa | 2.6V | 00:00:00 | 00:00:00 | 00:00:00 | |
| DL1JHR | 2026-09-04 19:11:09 | 50.58560 | 12.74348 | 88° | 131km/h | 6482m | -3.8m/s | 0°C | 0% | 0hPa | 2.6V | 00:00:00 | 00:00:00 | 00:00:00 | |
| 13BRC | 2026-09-04 19:11:05 | 50.58552 | 12.74140 | 87° | 131km/h | 6498m | -3.8m/s | 0°C | 0% | 456.4hPa | 2.6V | 00:00:00 | 00:00:00 | 00:00:00 | |
| DO3MHA-11 | 2026-09-04 19:11:03 | 50.58545 | 12.73984 | 86° | 131km/h | 6510m | -3.8m/s | -14.2°C | 5.7% | 455.6hPa | 2.6V | 00:00:00 | 02:52:07 | 00:00:00 | |
| SONCRA | 2026-09-04 19:10:55 | 50.58525 | 12.73566 | 85° | 130km/h | 6541m | -3.9m/s | -14.5°C | 5.3% | 453.9hPa | 2.6V | 00:00:00 | 00:00:00 | 00:00:00 | |
| SONDE2-11 | 2026-09-04 19:10:49 | 50.58504 | 12.73203 | 84° | 130km/h | 6568m | -3.7m/s | -14.6°C | 5.0% | 452.2hPa | 2.6V | 00:00:00 | 00:00:00 | 00:00:00 | |
| EDDB2-11 | 2026-09-04 19:10:47 | 50.58500 | 12.73151 | 84° | 131km/h | 6572m | -3.9m/s | -14.7°C | 5.0% | 452.0hPa | 2.6V | 00:00:00 | 00:00:00 | 00:00:00 | |
| DL1JEZ-13 | 2026-09-04 19:10:46 | 50.58500 | 12.73151 | 85° | 131km/h | 6572m | -3.9m/s | -14.6°C | 5.0% | 452.0hPa | 2.6V | 00:00:00 | 00:00:00 | 00:00:00 | |
| DO3MHA-11 | 2026-09-04 19:10:43 | 50.58488 | 12.72942 | 85° | 131km/h | 6587m | -3.6m/s | -14.7°C | 5.6% | 451.0hPa | 2.6V | 00:00:00 | 02:51:47 | 00:00:00 | |
| EDDB2-12 | 2026-09-04 19:10:39 | 50.58476 | 12.72734 | 84° | 130km/h | 6602m | -3.9m/s | -14.7°C | 4.6% | 450.2hPa | 2.6V | 00:00:00 | 00:00:00 | 00:00:00 | |
| AM1SDL-15 | 2026-09-04 19:10:36 | 50.58467 | 12.72578 | 85° | 131km/h | 6614m | -3.9m/s | -14.7°C | 5.4% | 449.4hPa | 2.6V | 00:00:00 | 02:51:40 | 00:00:00 | |
| DB0NH | 2026-09-04 19:10:33 | 50.58458 | 12.72423 | 86° | 131km/h | 6626m | -3.9m/s | -14.8°C | 5.5% | 448.7hPa | 2.6V | 00:00:00 | 02:51:37 | 00:00:00 | |
| DL3JIN-12 | 2026-09-04 19:10:30 | 50.58452 | 12.72319 | 86° | 131km/h | 6633m | -3.9m/s | -14.9°C | 5.0% | 448.3hPa | 2.6V | 07:49:00 | 00:00:00 | 00:00:00 | |
| DB0UT-7 | 2026-09-04 19:10:27 | 50.58441 | 12.72112 | 85° | 131km/h | 6649m | -3.8m/s | -14.9°C | 6.0% | 447.3hPa | 2.6V | 00:00:00 | 00:00:00 | 00:00:00 | |
| ANDY1245 | 2026-09-04 19:10:26 | 50.58441 | 12.72112 | 86° | 131km/h | 6649m | -3.8m/s | -15.0°C | 5.3% | 447.4hPa | 2.6V | 07:49:00 | 00:00:00 | 00:00:00 | |
| AM1SDL-15 | 2026-09-04 19:10:24 | 50.58432 | 12.71957 | 85° | 131km/h | 6661m | -3.9m/s | -15.0°C | 6.1% | 446.7hPa | 2.6V | 00:00:00 | 02:51:28 | 00:00:00 | |
| DO3MHA-11 | 2026-09-04 19:10:23 | 50.58429 | 12.71905 | 85° | 131km/h | 6665m | -3.8m/s | -15.0°C | 6.1% | 446.4hPa | 2.6V | 07:48:00 | 02:51:27 | 00:00:00 | |
| ANDY1245 | 2026-09-04 19:10:21 | 50.58426 | 12.71853 | 86° | 131km/h | 6669m | -3.8m/s | -15.1°C | 5.6% | 446.2hPa | 2.6V | 07:49:00 | 00:00:00 | 00:00:00 | |
| SONDE2-11 | 2026-09-04 19:10:18 | 50.58411 | 12.71595 | 85° | 130km/h | 6688m | -3.6m/s | -15.3°C | 5.8% | 445.1hPa | 2.6V | 00:00:00 | 00:00:00 | 00:00:00 | |
| NBG1-10 | 2026-09-04 19:10:16 | 50.58408 | 12.71543 | 86° | 133km/h | 6691m | -3.8m/s | -15.2°C | 6.6% | 444.8hPa | 2.6V | 00:00:00 | 02:51:20 | 00:00:00 | |
| ANDY1245 | 2026-09-04 19:10:15 | 50.58408 | 12.71543 | 86° | 131km/h | 6691m | -3.9m/s | -15.3°C | 5.9% | 444.9hPa | 2.5V | 07:49:00 | 00:00:00 | 00:00:00 | |
| DO3MHA-11 | 2026-09-04 19:10:13 | 50.58400 | 12.71387 | 86° | 133km/h | 6703m | -3.9m/s | -15.4°C | 6.7% | 444.1hPa | 2.5V | 00:00:00 | 02:51:17 | 00:00:00 | |
| AM1SDL-15 | 2026-09-04 19:10:12 | 50.58398 | 12.71335 | 86° | 133km/h | 6707m | -3.8m/s | -15.4°C | 6.8% | 443.9hPa | 2.6V | 07:48:00 | 02:51:16 | 00:00:00 | |
| DL3JIN-12 | 2026-09-04 19:10:10 | 50.58395 | 12.71282 | 87° | 133km/h | 6711m | -3.7m/s | -15.5°C | 6.1% | 443.7hPa | 2.6V | 07:49:00 | 00:00:00 | 00:00:00 | |
| EDDB2-12 | 2026-09-04 19:10:08 | 50.58387 | 12.71125 | 85° | 131km/h | 6722m | -3.9m/s | -15.6°C | 6.6% | 443.1hPa | 2.6V | 00:00:00 | 00:00:00 | 00:00:00 | |
| DJTTGO | 2026-09-04 19:10:04 | 50.58378 | 12.70967 | 86° | 133km/h | 6734m | -3.8m/s | -15.7°C | 6.3% | 442.4hPa | 2.6V | 00:00:00 | 00:00:00 | 00:00:00 | |
| DO3MHA-11 | 2026-09-04 19:10:03 | 50.58372 | 12.70862 | 85° | 133km/h | 6742m | -3.8m/s | -15.7°C | 6.5% | 441.9hPa | 2.6V | 00:00:00 | 02:51:07 | 00:00:00 | |
| SONCRA | 2026-09-04 19:09:53 | 50.58347 | 12.70335 | 85° | 133km/h | 6780m | -3.9m/s | -15.9°C | 4.9% | 439.6hPa | 2.6V | 00:00:00 | 00:00:00 | 00:00:00 | |
| SONDE2-11 | 2026-09-04 19:09:46 | 50.58331 | 12.69963 | 86° | 133km/h | 6808m | -4.1m/s | -16.1°C | 5.5% | 438.1hPa | 2.6V | 00:00:00 | 00:00:00 | 00:00:00 | |
| EDDB2-11 | 2026-09-04 19:09:45 | 50.58329 | 12.69909 | 86° | 133km/h | 6812m | -3.8m/s | -16.1°C | 5.5% | 437.8hPa | 2.6V | 00:00:00 | 00:00:00 | 00:00:00 | |
| DO3MHA-11 | 2026-09-04 19:09:43 | 50.58325 | 12.69803 | 87° | 135km/h | 6820m | -4.1m/s | -16.1°C | 6.3% | 437.3hPa | 2.6V | 00:00:00 | 02:50:47 | 00:00:00 | |
| ANDY1245 | 2026-09-04 19:09:42 | 50.58325 | 12.69803 | 88° | 133km/h | 6820m | -4.1m/s | -16.1°C | 5.6% | 437.4hPa | 2.6V | 00:00:00 | 00:00:00 | 00:00:00 | |
| EDDB2-12 | 2026-09-04 19:09:37 | 50.58314 | 12.69483 | 86° | 133km/h | 6843m | -4.0m/s | -16.3°C | 5.7% | 435.9hPa | 2.6V | 00:00:00 | 00:00:00 | 00:00:00 | |
| AM1SDL-15 | 2026-09-04 19:09:36 | 50.58312 | 12.69430 | 87° | 135km/h | 6848m | -4.0m/s | -16.3°C | 6.5% | 435.7hPa | 2.6V | 00:00:00 | 02:50:40 | 00:00:00 | |
| DO3MHA-11 | 2026-09-04 19:09:33 | 50.58305 | 12.69270 | 87° | 135km/h | 6860m | -3.9m/s | -16.4°C | 6.6% | 435.0hPa | 2.6V | 00:00:00 | 02:50:37 | 00:00:00 | |
| DB0ND-19 | 2026-09-04 19:09:29 | 50.58294 | 12.69003 | 86° | 133km/h | 6880m | -4.1m/s | -16.6°C | 6.2% | 433.8hPa | 2.6V | 00:00:00 | 00:00:00 | 00:00:00 | |
| DB0NH | 2026-09-04 19:09:27 | 50.58292 | 12.68950 | 87° | 135km/h | 6884m | -4.1m/s | -16.6°C | 6.9% | 433.5hPa | 2.6V | 00:00:00 | 02:50:31 | 00:00:00 | |
| DO3MHA-11 | 2026-09-04 19:09:23 | 50.58284 | 12.68737 | 87° | 135km/h | 6900m | -4.0m/s | -16.8°C | 7.1% | 432.6hPa | 2.6V | 00:00:00 | 02:50:27 | 00:00:00 | |
| SONCRA | 2026-09-04 19:09:22 | 50.58283 | 12.68683 | 87° | 133km/h | 6904m | -4.1m/s | -16.8°C | 6.3% | 432.4hPa | 2.6V | 00:00:00 | 00:00:00 | 00:00:00 | |
| SONDE2-11 | 2026-09-04 19:09:15 | 50.58272 | 12.68309 | 87° | 135km/h | 6933m | -4.3m/s | -17.1°C | 6.6% | 430.8hPa | 2.6V | 00:00:00 | 00:00:00 | 00:00:00 | |
| EDDB2-11 | 2026-09-04 19:09:14 | 50.58271 | 12.68256 | 88° | 133km/h | 6937m | -4.1m/s | -17.1°C | 6.6% | 430.6hPa | 2.6V | 00:00:00 | 00:00:00 | 00:00:00 | |
| DO3MHA-11 | 2026-09-04 19:09:13 | 50.58269 | 12.68202 | 88° | 135km/h | 6942m | -4.1m/s | -17.1°C | 7.5% | 430.3hPa | 2.6V | 00:00:00 | 02:50:17 | 00:00:00 | |
| AM1SDL-15 | 2026-09-04 19:09:11 | 50.58267 | 12.68094 | 89° | 135km/h | 6950m | -4.0m/s | -17.1°C | 8.2% | 429.8hPa | 2.6V | 00:00:00 | 02:50:15 | 00:00:00 | |
| NBG1-10 | 2026-09-04 19:09:10 | 50.58267 | 12.68040 | 89° | 133km/h | 6954m | -4.0m/s | -17.2°C | 8.5% | 429.6hPa | 2.6V | 00:00:00 | 02:50:14 | 00:00:00 | |
| DL3JIN-12 | 2026-09-04 19:09:08 | 50.58266 | 12.67986 | 90° | 135km/h | 6958m | -4.0m/s | -17.2°C | 7.8% | 429.3hPa | 2.6V | 07:50:00 | 00:00:00 | 00:00:00 | |
| EDDB2-12 | 2026-09-04 19:09:06 | 50.58264 | 12.67825 | 89° | 135km/h | 6970m | -4.3m/s | -17.3°C | 9.2% | 428.7hPa | 2.6V | 00:00:00 | 00:00:00 | 00:00:00 | |
| ANDY1245 | 2026-09-04 19:09:04 | 50.58263 | 12.67771 | 90° | 135km/h | 6974m | -4.2m/s | -17.4°C | 9.6% | 428.4hPa | 2.6V | 00:00:00 | 00:00:00 | 00:00:00 | |
| DO3MHA-11 | 2026-09-04 19:09:03 | 50.58262 | 12.67663 | 90° | 135km/h | 6983m | -4.0m/s | -17.4°C | 11.1% | 427.9hPa | 2.6V | 07:50:00 | 02:50:07 | 00:00:00 | |
| DH8WE-5 | 2026-09-04 19:09:02 | 50.58262 | 12.67663 | 90° | 135km/h | 6983m | -4.0m/s | -17.4°C | 10.0% | 427.9hPa | 2.6V | 00:00:00 | 00:00:00 | 00:00:00 | |
| SONCRA | 2026-09-04 19:08:51 | 50.58260 | 12.67019 | 90° | 133km/h | 7033m | -4.3m/s | -17.8°C | 10.8% | 425.1hPa | 2.6V | 00:00:00 | 00:00:00 | 00:00:00 | |
| AM1SDL-15 | 2026-09-04 19:08:47 | 50.58261 | 12.66806 | 91° | 131km/h | 7050m | -4.1m/s | -17.8°C | 11.3% | 424.0hPa | 2.6V | 00:00:00 | 02:49:51 | 00:00:00 | |
| DB0UT-7 | 2026-09-04 19:08:45 | 50.58262 | 12.66701 | 91° | 131km/h | 7058m | -4.0m/s | -17.9°C | 11.3% | 423.6hPa | 2.6V | 00:00:00 | 00:00:00 | 00:00:00 | |
| SONDE2-11 | 2026-09-04 19:08:44 | 50.58263 | 12.66648 | 90° | 131km/h | 7062m | -4.4m/s | -18.0°C | 10.3% | 423.4hPa | 2.6V | 00:00:00 | 00:00:00 | 00:00:00 | |
| DO3MHA-11 | 2026-09-04 19:08:43 | 50.58263 | 12.66595 | 91° | 131km/h | 7067m | -4.5m/s | -17.9°C | 11.4% | 423.2hPa | 2.6V | 00:00:00 | 02:49:47 | 00:00:00 | |
| 13BRC | 2026-09-04 19:08:42 | 50.58263 | 12.66595 | 92° | 131km/h | 7067m | -4.6m/s | 0°C | 0% | 423.2hPa | 2.6V | 00:00:00 | 00:00:00 | 00:00:00 | |
| NBG1-10 | 2026-09-04 19:08:37 | 50.58265 | 12.66282 | 91° | 131km/h | 7092m | -4.3m/s | -18.0°C | 7.8% | 421.7hPa | 2.6V | 00:00:00 | 02:49:41 | 00:00:00 | |
| EDDB2-12 | 2026-09-04 19:08:35 | 50.58266 | 12.66178 | 89° | 130km/h | 7101m | -4.4m/s | -18.0°C | 4.7% | 421.2hPa | 2.5V | 00:00:00 | 00:00:00 | 00:00:00 | |
| DO3MHA-11 | 2026-09-04 19:08:32 | 50.58266 | 12.66022 | 91° | 131km/h | 7114m | -4.3m/s | -18.0°C | 5.9% | 420.5hPa | 2.5V | 00:00:00 | 02:49:36 | 00:00:00 | |
| ANDY1245 | 2026-09-04 19:08:30 | 50.58266 | 12.65971 | 91° | 130km/h | 7119m | -4.5m/s | -18.1°C | 5.6% | 420.2hPa | 2.5V | 00:00:00 | 00:00:00 | 00:00:00 | |
| DB0NH | 2026-09-04 19:08:27 | 50.58268 | 12.65763 | 92° | 131km/h | 7136m | -4.3m/s | -18.1°C | 11.7% | 419.1hPa | 2.5V | 00:00:00 | 02:49:31 | 00:00:00 | |
| DL3JIN-12 | 2026-09-04 19:08:26 | 50.58268 | 12.65763 | 92° | 131km/h | 7136m | -4.3m/s | -18.2°C | 10.5% | 419.2hPa | 2.6V | 07:51:00 | 00:00:00 | 00:00:00 | |
| ANDY1245 | 2026-09-04 19:08:25 | 50.58269 | 12.65711 | 92° | 131km/h | 7141m | -4.3m/s | -18.2°C | 12.5% | 419.0hPa | 2.6V | 00:00:00 | 00:00:00 | 00:00:00 | |
| DO8TBO-1 | 2026-09-04 19:08:23 | 50.58270 | 12.65555 | 91° | 131km/h | 7153m | -4.4m/s | -18.2°C | 15.7% | 418.2hPa | 2.6V | 00:00:00 | 02:49:27 | 00:00:00 | |
| DO3MHA-11 | 2026-09-04 19:08:22 | 50.58270 | 12.65503 | 91° | 131km/h | 7158m | -4.4m/s | -18.3°C | 15.6% | 418.0hPa | 2.6V | 00:00:00 | 02:49:26 | 00:00:00 | |
| 13BRC | 2026-09-04 19:08:21 | 50.58270 | 12.65503 | 92° | 131km/h | 7158m | -4.4m/s | 0°C | 0% | 418.0hPa | 2.6V | 00:00:00 | 00:00:00 | 00:00:00 | |
| SONCRA | 2026-09-04 19:08:20 | 50.58271 | 12.65399 | 90° | 130km/h | 7166m | -4.5m/s | -18.4°C | 13.8% | 417.5hPa | 2.6V | 00:00:00 | 00:00:00 | 00:00:00 | |
| ANDY1245 | 2026-09-04 19:08:19 | 50.58271 | 12.65399 | 91° | 131km/h | 7166m | -4.5m/s | -18.4°C | 13.8% | 417.5hPa | 2.6V | 00:00:00 | 00:00:00 | 00:00:00 | |
| SONDE2-11 | 2026-09-04 19:08:13 | 50.58271 | 12.65033 | 89° | 131km/h | 7198m | -4.5m/s | -18.6°C | 12.2% | 415.8hPa | 2.6V | 00:00:00 | 00:00:00 | 00:00:00 | |
| DO3MHA-11 | 2026-09-04 19:08:12 | 50.58270 | 12.64981 | 90° | 133km/h | 7202m | -4.2m/s | -18.5°C | 13.2% | 415.5hPa | 2.6V | 00:00:00 | 02:49:16 | 00:00:00 | |
| AM1SDL-15 | 2026-09-04 19:08:11 | 50.58270 | 12.64928 | 90° | 133km/h | 7207m | -4.6m/s | -18.5°C | 12.4% | 415.3hPa | 2.6V | 00:00:00 | 02:49:15 | 00:00:00 | |
| DF2AP-13 | 2026-09-04 19:08:06 | 50.58269 | 12.64664 | 90° | 131km/h | 7229m | -4.4m/s | -18.7°C | 11.3% | 414.0hPa | 2.6V | 00:00:00 | 02:49:10 | 00:00:00 | |
| DL3JIN-12 | 2026-09-04 19:08:05 | 50.58269 | 12.64664 | 91° | 131km/h | 7229m | -4.4m/s | -18.7°C | 10.1% | 414.1hPa | 2.6V | 07:51:00 | 00:00:00 | 00:00:00 | |
| NBG1-10 | 2026-09-04 19:08:04 | 50.58269 | 12.64559 | 91° | 131km/h | 7238m | -4.4m/s | -18.8°C | 11.4% | 413.5hPa | 2.6V | 00:00:00 | 02:49:08 | 00:00:00 | |
| DO3MHA-11 | 2026-09-04 19:08:02 | 50.58269 | 12.64454 | 90° | 131km/h | 7247m | -4.4m/s | -18.8°C | 11.3% | 413.0hPa | 2.6V | 00:00:00 | 02:49:06 | 00:00:00 | |
| 13BRC | 2026-09-04 19:08:00 | 50.58269 | 12.64402 | 91° | 131km/h | 7251m | -4.7m/s | 0°C | 0% | 412.8hPa | 2.6V | 00:00:00 | 00:00:00 | 00:00:00 | |
| AM1SDL-15 | 2026-09-04 19:07:59 | 50.58269 | 12.64297 | 90° | 131km/h | 7260m | -4.5m/s | -18.9°C | 10.3% | 412.3hPa | 2.6V | 00:00:00 | 02:49:03 | 00:00:00 | |
| DM0DOS-11 | 2026-09-04 19:07:58 | 50.58268 | 12.64088 | 89° | 131km/h | 7278m | -4.4m/s | -19.1°C | 8.4% | 411.3hPa | 2.6V | 07:51:13 | 02:48:59 | 00:00:00 | |
| BIOWL9-15 | 2026-09-04 19:07:50 | 50.58266 | 12.63774 | 89° | 130km/h | 7306m | -4.6m/s | 0°C | -1.0% | -1.0hPa | 2.5V | 00:00:00 | 00:00:00 | 00:00:00 | |
| SONCRA | 2026-09-04 19:07:49 | 50.58266 | 12.63774 | 89° | 130km/h | 7306m | -4.6m/s | -19.3°C | 8.8% | 409.8hPa | 2.5V | 00:00:00 | 00:00:00 | 00:00:00 | |
| HARRO8 | 2026-09-04 19:07:47 | 50.58266 | 12.63670 | 90° | 130km/h | 7315m | -4.7m/s | -19.4°C | 9.8% | 409.3hPa | 2.5V | 00:00:00 | 00:00:00 | 00:00:00 | |
| DM0DOS-11 | 2026-09-04 19:07:46 | 50.58267 | 12.63566 | 90° | 131km/h | 7325m | -4.7m/s | -19.4°C | 11.6% | 408.8hPa | 2.5V | 07:51:23 | 02:48:49 | 00:00:00 | |
| DL3JIN-12 | 2026-09-04 19:07:45 | 50.58266 | 12.63618 | 91° | 131km/h | 7320m | -4.7m/s | -19.4°C | 10.0% | 409.0hPa | 2.6V | 07:51:00 | 00:00:00 | 00:00:00 | |
| DO3MHA-11 | 2026-09-04 19:07:42 | 50.58267 | 12.63410 | 91° | 131km/h | 7338m | -4.6m/s | -19.5°C | 12.5% | 408.0hPa | 2.6V | 07:51:00 | 02:48:46 | 00:00:00 | |
| EDDB2-11 | 2026-09-04 19:07:41 | 50.58267 | 12.63358 | 90° | 130km/h | 7343m | -4.5m/s | -19.6°C | 12.4% | 407.8hPa | 2.5V | 00:00:00 | 00:00:00 | 00:00:00 | |
| ANDY1245 | 2026-09-04 19:07:40 | 50.58267 | 12.63358 | 91° | 130km/h | 7343m | -4.5m/s | -19.6°C | 12.4% | 407.8hPa | 2.5V | 00:00:00 | 00:00:00 | 00:00:00 | |
| DH8WE-5 | 2026-09-04 19:07:39 | 50.58267 | 12.63306 | 91° | 131km/h | 7348m | -4.5m/s | -19.7°C | 12.7% | 407.5hPa | 2.5V | 07:51:00 | 00:00:00 | 00:00:00 | |
| DF2AP-13 | 2026-09-04 19:07:36 | 50.58267 | 12.63099 | 91° | 130km/h | 7366m | -4.5m/s | -19.7°C | 14.4% | 406.4hPa | 2.5V | 00:00:00 | 02:48:40 | 00:00:00 | |
| DM0DOS-11 | 2026-09-04 19:07:34 | 50.58268 | 12.62943 | 90° | 130km/h | 7380m | -4.8m/s | -19.8°C | 12.6% | 405.7hPa | 2.5V | 07:51:35 | 02:48:37 | 00:00:00 | |
| DF8AY | 2026-09-04 19:07:17 | 50.58267 | 12.62116 | 90° | 130km/h | 7456m | -4.9m/s | -20.3°C | 13.7% | 401.6hPa | 2.6V | 07:52:45 | 02:48:21 | 00:00:00 | |
| DF8AY | 2026-09-04 19:07:02 | 50.58260 | 12.61345 | 89° | 130km/h | 7527m | -5m/s | -20.9°C | 13.6% | 397.7hPa | 2.5V | 07:52:45 | 02:48:06 | 00:00:00 | |
| DF8AY | 2026-09-04 19:06:52 | 50.58253 | 12.60831 | 88° | 130km/h | 7576m | -4.9m/s | -21.3°C | 19.2% | 395hPa | 2.6V | 07:52:45 | 02:47:56 | 00:00:00 | |
| SONCRA | 2026-09-04 19:06:47 | 50.58248 | 12.60575 | 88° | 128km/h | 7601m | -4.9m/s | -21.4°C | 15.6% | 393.7hPa | 2.5V | 00:00:00 | 00:00:00 | 00:00:00 | |
| DF8AY | 2026-09-04 19:06:42 | 50.58243 | 12.60318 | 88° | 130km/h | 7626m | -4.9m/s | -21.6°C | 16.8% | 392.4hPa | 2.5V | 07:52:45 | 02:47:46 | 00:00:00 | |
| DF8AY | 2026-09-04 19:06:31 | 50.58230 | 12.59753 | 88° | 130km/h | 7681m | -5.1m/s | -21.9°C | 15.6% | 389.5hPa | 2.6V | 07:52:45 | 02:47:35 | 00:00:00 | |
| DF8AY | 2026-09-04 19:06:21 | 50.58214 | 12.59193 | 88° | 128km/h | 7737m | -5.3m/s | -22.4°C | 17.9% | 386.5hPa | 2.6V | 07:54:27 | 02:47:24 | 00:00:00 | |
| DF8AY | 2026-09-04 19:06:09 | 50.58198 | 12.58635 | 87° | 126km/h | 7794m | -5.4m/s | -23°C | 21.6% | 383.5hPa | 2.6V | 07:54:27 | 02:47:13 | 00:00:00 | |
| DF8AY | 2026-09-04 19:05:58 | 50.58179 | 12.58084 | 88° | 126km/h | 7852m | -5.4m/s | -23.3°C | 20.7% | 380.5hPa | 2.5V | 07:54:27 | 02:47:02 | 00:00:00 | |
| DB0NH | 2026-09-04 19:05:57 | 50.58177 | 12.58034 | 89° | 124km/h | 7857m | -5.1m/s | -23.3°C | 19.1% | 380.2hPa | 2.6V | 00:00:00 | 02:47:01 | 00:00:00 | |
| AM1SDL-15 | 2026-09-04 19:05:56 | 50.58176 | 12.57984 | 88° | 124km/h | 7862m | -5.3m/s | -23.3°C | 19.0% | 379.9hPa | 2.6V | 00:00:00 | 02:47:00 | 00:00:00 | |
| DF2AP-13 | 2026-09-04 19:05:55 | 50.58175 | 12.57934 | 88° | 124km/h | 7867m | -5.4m/s | -23.4°C | 19.0% | 379.7hPa | 2.6V | 00:00:00 | 02:46:59 | 00:00:00 | |
| DL1JEZ-13 | 2026-09-04 19:05:54 | 50.58175 | 12.57934 | 89° | 126km/h | 7867m | -5.4m/s | -23.4°C | 16.9% | 379.7hPa | 2.6V | 00:00:00 | 00:00:00 | 00:00:00 | |
| DM0DOS-11 | 2026-09-04 19:05:53 | 50.58165 | 12.57588 | 87° | 124km/h | 7904m | -5.2m/s | -23.6°C | 18.5% | 377.8hPa | 2.6V | 07:53:20 | 02:46:52 | 00:00:00 | |
| DF8AY | 2026-09-04 19:05:47 | 50.58164 | 12.57539 | 87° | 124km/h | 7909m | -5.3m/s | -23.6°C | 20% | 377.5hPa | 2.5V | 07:54:27 | 02:46:51 | 00:00:00 | |
| BIOWL9-15 | 2026-09-04 19:05:46 | 50.58161 | 12.57440 | 88° | 124km/h | 7919m | -5.2m/s | 0°C | -1.0% | -1.0hPa | 2.5V | 00:00:00 | 00:00:00 | 00:00:00 | |
| SONCRA | 2026-09-04 19:05:45 | 50.58161 | 12.57440 | 88° | 124km/h | 7919m | -5.2m/s | -23.7°C | 16.3% | 377.0hPa | 2.5V | 00:00:00 | 00:00:00 | 00:00:00 | |
| BIOWL1-15 | 2026-09-04 19:05:41 | 50.58158 | 12.57242 | 89° | 124km/h | 7941m | -5.1m/s | -23.9°C | 19.6% | 375.9hPa | 2.5V | 07:53:36 | 02:46:45 | 00:00:00 | |
| DF8AY | 2026-09-04 19:05:35 | 50.58154 | 12.56896 | 88° | 124km/h | 7977m | -5.2m/s | -24.1°C | 18% | 374hPa | 2.5V | 07:54:27 | 02:46:38 | 00:00:00 | |
| BIOWL1-15 | 2026-09-04 19:05:30 | 50.58151 | 12.56699 | 89° | 124km/h | 7998m | -5.3m/s | 0°C | 0% | 373hPa | 2.5V | 18:12:15 | 02:46:34 | 00:00:00 | |
| DF8AY | 2026-09-04 19:05:24 | 50.58147 | 12.56401 | 89° | 126km/h | 8029m | -5.4m/s | -24.4°C | 17.4% | 371.3hPa | 2.5V | 07:54:27 | 02:46:28 | 00:00:00 | |
| BIOWL1-15 | 2026-09-04 19:05:19 | 50.58145 | 12.56153 | 89° | 124km/h | 8055m | -5.4m/s | 0°C | 0% | 0hPa | 2.5V | 18:12:15 | 02:46:23 | 00:00:00 | |
| DB0UT-7 | 2026-09-04 19:05:19 | 50.58145 | 12.56153 | 90° | 124km/h | 8056m | -5.4m/s | -24.5°C | 16.2% | 369.9hPa | 2.5V | 00:00:00 | 00:00:00 | 00:00:00 | |
| 13BRC | 2026-09-04 19:05:18 | 50.58145 | 12.56153 | 90° | 124km/h | 8056m | -5.4m/s | 0°C | 0% | 370.0hPa | 2.6V | 00:00:00 | 00:00:00 | 00:00:00 | |
| DH8WE-5 | 2026-09-04 19:05:14 | 50.58143 | 12.55955 | 90° | 124km/h | 8076m | -5.4m/s | -24.7°C | 14.3% | 368.9hPa | 2.6V | 07:54:00 | 00:00:00 | 00:00:00 | |
| BIOWL1-15 | 2026-09-04 19:05:08 | 50.58127 | 12.55062 | 88° | 124km/h | 8170m | -5.2m/s | 0°C | 0% | 0hPa | 2.6V | 18:12:15 | 02:46:01 | 00:00:00 | |
| DF8AY | 2026-09-04 19:05:06 | 50.58137 | 12.55508 | 89° | 124km/h | 8123m | -5.3m/s | -25°C | 16.9% | 366.5hPa | 2.5V | 07:54:27 | 02:46:10 | 00:00:00 | |
| DF8AY | 2026-09-04 19:05:01 | 50.58126 | 12.55013 | 88° | 124km/h | 8175m | -5.4m/s | -25.3°C | 16.3% | 364hPa | 2.5V | 07:54:27 | 02:46:00 | 00:00:00 | |
| EDDB2-12 | 2026-09-04 19:04:57 | 50.58127 | 12.55062 | 87° | 124km/h | 8170m | -5.2m/s | -25.3°C | 13.1% | 364.2hPa | 2.6V | 00:00:00 | 00:00:00 | 00:00:00 | |
| DF8AY | 2026-09-04 19:04:44 | 50.58108 | 12.54421 | 87° | 124km/h | 8238m | -5.4m/s | -25.8°C | 16.4% | 360.8hPa | 2.6V | 07:54:27 | 02:45:48 | 00:00:00 | |
| DF8AY | 2026-09-04 19:04:34 | 50.58092 | 12.53930 | 87° | 124km/h | 8291m | -5.2m/s | -26.2°C | 16.2% | 358.2hPa | 2.6V | 07:55:18 | 02:45:38 | 00:00:00 | |
| DF8AY | 2026-09-04 19:04:23 | 50.58074 | 12.53390 | 87° | 124km/h | 8349m | -5.4m/s | -26.7°C | 16.6% | 355.3hPa | 2.5V | 07:55:18 | 02:45:27 | 00:00:00 | |
| DF8AY | 2026-09-04 19:04:12 | 50.58056 | 12.52850 | 87° | 124km/h | 8408m | -5.3m/s | -27.2°C | 16.7% | 352.4hPa | 2.6V | 07:55:18 | 02:45:16 | 00:00:00 | |
| DF8AY | 2026-09-04 19:04:02 | 50.58040 | 12.52359 | 88° | 124km/h | 8462m | -5.3m/s | -27.7°C | 17% | 349.8hPa | 2.5V | 07:55:18 | 02:45:06 | 00:00:00 | |
| DF8AY | 2026-09-04 19:03:51 | 50.58027 | 12.51822 | 87° | 120km/h | 8521m | -5.2m/s | -28°C | 15.5% | 346.9hPa | 2.6V | 07:55:18 | 02:44:55 | 00:00:00 | |
| DB0ND-19 | 2026-09-04 19:03:47 | 50.58020 | 12.51630 | 86° | 120km/h | 8542m | -5.3m/s | 0°C | -1.0% | 345.9hPa | 2.5V | 00:00:00 | 00:00:00 | 00:00:00 | |
| DF8AY | 2026-09-04 19:03:41 | 50.58009 | 12.51344 | 87° | 120km/h | 8575m | -5.3m/s | -28.2°C | 15.2% | 344.3hPa | 2.5V | 07:56:09 | 02:44:45 | 00:00:00 | |
| DF8AY | 2026-09-04 19:03:30 | 50.57988 | 12.50823 | 86° | 119km/h | 8634m | -5.3m/s | -28.3°C | 14.6% | 341.5hPa | 2.5V | 07:56:09 | 02:44:34 | 00:00:00 | |
| DF8AY | 2026-09-04 19:03:20 | 50.57968 | 12.50350 | 87° | 119km/h | 8687m | -5.3m/s | -28.6°C | 14.1% | 339hPa | 2.6V | 07:56:09 | 02:44:24 | 00:00:00 | |
| DF8AY | 2026-09-04 19:03:09 | 50.57949 | 12.49832 | 87° | 119km/h | 8747m | -5.4m/s | -29°C | 14.3% | 336.2hPa | 2.6V | 07:56:09 | 02:44:13 | 00:00:00 | |
| DF8AY | 2026-09-04 19:02:59 | 50.57934 | 12.49359 | 87° | 119km/h | 8800m | -5.4m/s | -29.5°C | 15% | 333.6hPa | 2.5V | 07:56:09 | 02:44:03 | 00:00:00 | |
| DF8AY | 2026-09-04 19:02:48 | 50.57919 | 12.48835 | 88° | 120km/h | 8861m | -5.6m/s | -29.9°C | 14% | 330.8hPa | 2.6V | 07:57:00 | 02:43:52 | 00:00:00 | |
| DF8AY | 2026-09-04 19:02:38 | 50.57906 | 12.48359 | 88° | 120km/h | 8916m | -5.7m/s | -30.3°C | 13.5% | 328.2hPa | 2.6V | 07:57:00 | 02:43:42 | 00:00:00 | |
| DF8AY | 2026-09-04 19:02:28 | 50.57890 | 12.47879 | 87° | 120km/h | 8971m | -5.5m/s | -30.8°C | 13.6% | 325.8hPa | 2.6V | 07:57:00 | 02:43:32 | 00:00:00 | |
| DF8AY | 2026-09-04 19:02:18 | 50.57875 | 12.47406 | 87° | 119km/h | 9026m | -5.4m/s | -31.3°C | 14.1% | 323.2hPa | 2.6V | 07:57:00 | 02:43:22 | 00:00:00 | |
| DF8AY | 2026-09-04 19:02:12 | 50.57860 | 12.46886 | 88° | 119km/h | 9087m | -5.4m/s | -31.7°C | 14.2% | 320.5hPa | 2.5V | 07:57:51 | 02:43:11 | 00:00:00 | |
| DF8AY | 2026-09-04 19:02:02 | 50.57846 | 12.46413 | 88° | 120km/h | 9142m | -5.4m/s | -32.1°C | 14.1% | 318hPa | 2.5V | 07:57:51 | 02:43:01 | 00:00:00 | |
| DF8AY | 2026-09-04 19:01:47 | 50.57833 | 12.45938 | 87° | 119km/h | 9197m | -5.5m/s | -32.4°C | 13.5% | 315.5hPa | 2.5V | 07:57:51 | 02:42:51 | 00:00:00 | |
| DF8AY | 2026-09-04 19:01:36 | 50.57821 | 12.45423 | 88° | 117km/h | 9258m | -5.9m/s | -32.9°C | 13.3% | 312.8hPa | 2.5V | 07:57:51 | 02:42:40 | 00:00:00 | |
| DM0DOS-11 | 2026-09-04 19:01:34 | 50.57814 | 12.45097 | 88° | 117km/h | 9296m | -5.3m/s | -33.2°C | 13.2% | 311.1hPa | 2.4V | 07:57:39 | 02:42:33 | 00:00:00 | |
| DF8AY | 2026-09-04 19:01:25 | 50.57810 | 12.44911 | 88° | 117km/h | 9318m | -5.5m/s | -33.4°C | 14.6% | 310hPa | 2.4V | 07:57:51 | 02:42:29 | 00:00:00 | |
| DB0UT-7 | 2026-09-04 19:01:24 | 50.57809 | 12.44865 | 89° | 106km/h | 9324m | -5.7m/s | -33.4°C | 13.6% | 309.8hPa | 2.4V | 07:57:00 | 02:42:28 | 00:00:00 | |
| ANDY1245 | 2026-09-04 19:01:23 | 50.57809 | 12.44865 | 89° | 117km/h | 9324m | -5.7m/s | -33.5°C | 11.2% | 309.8hPa | 2.4V | 00:00:00 | 00:00:00 | 00:00:00 | |
| DO3MHA-11 | 2026-09-04 19:01:22 | 50.57807 | 12.44773 | 88° | 115km/h | 9335m | -5.7m/s | -33.5°C | 13.7% | 309.3hPa | 2.4V | 00:00:00 | 02:42:26 | 00:00:00 | |
| DM0DOS-11 | 2026-09-04 19:01:19 | 50.57804 | 12.44635 | 88° | 115km/h | 9352m | -5.6m/s | -33.7°C | 13.9% | 308.6hPa | 2.4V | 07:57:49 | 02:42:23 | 00:00:00 | |
| DF8AY | 2026-09-04 19:01:15 | 50.57800 | 12.44451 | 88° | 115km/h | 9374m | -5.5m/s | -33.9°C | 15.1% | 307.6hPa | 2.4V | 07:58:42 | 02:42:19 | 00:00:00 | |
| DJTTGO | 2026-09-04 19:01:14 | 50.57800 | 12.44451 | 89° | 115km/h | 9374m | -5.5m/s | -33.9°C | 11.6% | 307.6hPa | 2.5V | 00:00:00 | 00:00:00 | 00:00:00 | |
| DM0DOS-11 | 2026-09-04 19:01:13 | 50.57795 | 12.44135 | 89° | 113km/h | 9413m | -5.4m/s | -34.2°C | 14.8% | 305.9hPa | 2.5V | 07:58:00 | 02:42:12 | 00:00:00 | |
| DF8AY | 2026-09-04 19:01:05 | 50.57793 | 12.44001 | 89° | 111km/h | 9430m | -5.7m/s | -34.4°C | 16.3% | 305.2hPa | 2.5V | 07:58:42 | 02:42:09 | 00:00:00 | |
| DF8AY | 2026-09-04 19:00:54 | 50.57785 | 12.43516 | 89° | 110km/h | 9491m | -5.6m/s | -34.9°C | 20.7% | 302.5hPa | 2.5V | 07:58:42 | 02:41:58 | 00:00:00 | |
| EDDB2-12 | 2026-09-04 19:00:49 | 50.57781 | 12.43299 | 87° | 108km/h | 9519m | -5.6m/s | -35.1°C | 17.4% | 301.3hPa | 2.4V | 00:00:00 | 00:00:00 | 00:00:00 | |
| DM0DOS-11 | 2026-09-04 19:00:48 | 50.57780 | 12.43256 | 87° | 108km/h | 9525m | -5.6m/s | -35.1°C | 20.5% | 301.1hPa | 2.4V | 07:58:20 | 02:41:52 | 00:00:00 | |
| SP3BTT-10 | 2026-09-04 19:00:47 | 50.57778 | 12.43213 | 88° | 104km/h | 9530m | -5.5m/s | -35.1°C | 20.5% | 300.8hPa | 2.4V | 07:58:00 | 00:00:00 | 00:00:00 | |
| ANDY1245 | 2026-09-04 19:00:46 | 50.57779 | 12.43213 | 89° | 108km/h | 9530m | -5.6m/s | -35.2°C | 17.2% | 300.8hPa | 2.5V | 00:00:00 | 00:00:00 | 00:00:00 | |
| DH8WE-5 | 2026-09-04 19:00:44 | 50.57776 | 12.43128 | 88° | 108km/h | 9542m | -5.8m/s | -35.2°C | 15.9% | 300.3hPa | 2.5V | 07:58:00 | 00:00:00 | 00:00:00 | |
| DM0DOS-11 | 2026-09-04 19:00:43 | 50.57767 | 12.42834 | 87° | 104km/h | 9581m | -5.7m/s | -35.3°C | 18.5% | 298.6hPa | 2.5V | 07:58:30 | 02:41:42 | 00:00:00 | |
| DF8AY | 2026-09-04 19:00:43 | 50.57773 | 12.43043 | 87° | 106km/h | 9553m | -5.6m/s | -35.3°C | 18.5% | 299.9hPa | 2.4V | 07:58:42 | 02:41:47 | 00:00:00 | |
| DF8AY | 2026-09-04 19:00:32 | 50.57758 | 12.42585 | 87° | 104km/h | 9614m | -5.6m/s | -35.6°C | 23.3% | 297.2hPa | 2.4V | 07:58:42 | 02:41:36 | 00:00:00 | |
| DO3MHA-11 | 2026-09-04 19:00:32 | 50.57758 | 12.42584 | 87° | 104km/h | 9614m | -5.6m/s | -35.5°C | 21.9% | 297.2hPa | 2.5V | 00:00:00 | 02:41:36 | 00:00:00 | |
| DL3JIN-12 | 2026-09-04 19:00:31 | 50.57758 | 12.42584 | 88° | 104km/h | 9614m | -5.6m/s | -35.6°C | 18.4% | 297.2hPa | 2.5V | 07:58:00 | 00:00:00 | 00:00:00 | |
| DM0DOS-11 | 2026-09-04 19:00:28 | 50.57752 | 12.42418 | 87° | 104km/h | 9637m | -5.7m/s | -35.7°C | 24% | 296.3hPa | 2.5V | 07:58:40 | 02:41:32 | 00:00:00 | |
| SONDE2-11 | 2026-09-04 19:00:28 | 50.57751 | 12.42377 | 87° | 102km/h | 9643m | -5.5m/s | -35.8°C | 20.5% | 296.0hPa | 2.5V | 00:00:00 | 00:00:00 | 00:00:00 | |
| DF2AP-13 | 2026-09-04 19:00:26 | 50.57749 | 12.42336 | 88° | 102km/h | 9648m | -5.9m/s | -35.7°C | 24.6% | 295.7hPa | 2.5V | 00:00:00 | 02:41:30 | 00:00:00 | |
| DB0NH | 2026-09-04 19:00:25 | 50.57749 | 12.42295 | 88° | 102km/h | 9654m | -5.5m/s | -35.8°C | 24.6% | 295.5hPa | 2.5V | 00:00:00 | 02:41:29 | 00:00:00 | |
| DH8WE-5 | 2026-09-04 19:00:24 | 50.57748 | 12.42295 | 89° | 104km/h | 9654m | -5.5m/s | -35.8°C | 20.8% | 295.5hPa | 2.5V | 07:59:00 | 00:00:00 | 00:00:00 | |
| DM0DOS-11 | 2026-09-04 19:00:23 | 50.57742 | 12.42009 | 88° | 102km/h | 9694m | -5.7m/s | -36.1°C | 26.8% | 293.8hPa | 2.5V | 07:58:50 | 02:41:22 | 00:00:00 | |
| DF8AY | 2026-09-04 19:00:22 | 50.57746 | 12.42172 | 88° | 102km/h | 9671m | -5.8m/s | -36°C | 27% | 294.8hPa | 2.5V | 07:59:33 | 02:41:26 | 00:00:00 | |
| DO3MHA-11 | 2026-09-04 19:00:22 | 50.57745 | 12.42172 | 88° | 102km/h | 9671m | -5.7m/s | -35.9°C | 25.4% | 294.8hPa | 2.4V | 00:00:00 | 02:41:26 | 00:00:00 | |
| DL2RXE-15 | 2026-09-04 19:00:19 | 50.57744 | 12.42090 | 89° | 102km/h | 9683m | -5.7m/s | -36.1°C | 22.0% | 294.3hPa | 2.4V | 00:00:00 | 00:00:00 | 00:00:00 | |
| EDDB2-12 | 2026-09-04 19:00:18 | 50.57742 | 12.42009 | 88° | 100km/h | 9694m | -5.7m/s | -36.1°C | 22.7% | 293.8hPa | 2.4V | 00:00:00 | 00:00:00 | 00:00:00 | |
| AM1SDL-15 | 2026-09-04 19:00:16 | 50.57740 | 12.41928 | 89° | 102km/h | 9705m | -5.5m/s | -36.2°C | 27.6% | 293.3hPa | 2.4V | 00:00:00 | 02:41:20 | 00:00:00 | |
| DM0DOS-11 | 2026-09-04 19:00:13 | 50.57737 | 12.41603 | 89° | 102km/h | 9751m | -5.8m/s | -36.6°C | 29.8% | 291.4hPa | 2.4V | 07:59:00 | 02:41:12 | 00:00:00 | |
| DF8AY | 2026-09-04 19:00:11 | 50.57738 | 12.41724 | 89° | 102km/h | 9733m | -5.7m/s | -36.5°C | 30.2% | 292.2hPa | 2.5V | 07:59:33 | 02:41:15 | 00:00:00 | |
| DF8AY | 2026-09-04 19:00:01 | 50.57735 | 12.41322 | 89° | 100km/h | 9790m | -5.8m/s | -37°C | 34.6% | 289.8hPa | 2.5V | 07:59:33 | 02:41:05 | 00:00:00 | |
| DM0DOS-11 | 2026-09-04 18:59:58 | 50.57734 | 12.41162 | 89° | 100km/h | 9813m | -5.8m/s | -37.2°C | 37.2% | 288.8hPa | 2.4V | 07:59:11 | 02:41:01 | 00:00:00 | |
| DF8AY | 2026-09-04 18:59:50 | 50.57732 | 12.40881 | 89° | 102km/h | 9853m | -5.7m/s | -37.6°C | 44.7% | 287.1hPa | 2.5V | 07:59:33 | 02:40:54 | 00:00:00 | |
| 13BRC | 2026-09-04 18:59:49 | 50.57732 | 12.40880 | 90° | 102km/h | 9853m | -5.7m/s | 0°C | 0% | 0hPa | 2.4V | 00:00:00 | 00:00:00 | 00:00:00 | |
| DM0DOS-11 | 2026-09-04 18:59:48 | 50.57731 | 12.40760 | 89° | 102km/h | 9870m | -5.6m/s | -37.8°C | 46.3% | 286.4hPa | 2.4V | 07:59:21 | 02:40:51 | 00:00:00 | |
| EDDB2-12 | 2026-09-04 18:59:47 | 50.57731 | 12.40760 | 89° | 100km/h | 9870m | -5.6m/s | -37.8°C | 39.9% | 286.4hPa | 2.5V | 00:00:00 | 00:00:00 | 00:00:00 | |
| DF8AY | 2026-09-04 18:59:39 | 50.57729 | 12.40437 | 90° | 102km/h | 9915m | -5.7m/s | -38.2°C | 50% | 284.6hPa | 2.5V | 07:59:33 | 02:40:43 | 00:00:00 | |
| DF8AY | 2026-09-04 18:59:29 | 50.57729 | 12.40029 | 90° | 104km/h | 9972m | -5.7m/s | -38.8°C | 49.5% | 282.2hPa | 2.4V | 08:00:24 | 02:40:33 | 00:00:00 | |
| DF8AY | 2026-09-04 18:59:18 | 50.57728 | 12.39580 | 90° | 102km/h | 10034m | -5.8m/s | -39.3°C | 48.7% | 279.7hPa | 2.4V | 08:00:24 | 02:40:22 | 00:00:00 | |
| SP3BTT-10 | 2026-09-04 18:59:16 | 50.57727 | 12.39497 | 90° | 104km/h | 10046m | -5.7m/s | -39.3°C | 50.7% | 279.2hPa | 2.5V | 00:00:00 | 00:00:00 | 00:00:00 | |
| DM0DOS-11 | 2026-09-04 18:59:15 | 50.57725 | 12.39251 | 88° | 104km/h | 10080m | -5.5m/s | -39.6°C | 40.2% | 277.8hPa | 2.5V | 07:59:58 | 02:40:14 | 00:00:00 | |
| DF8AY | 2026-09-04 18:59:08 | 50.57724 | 12.39168 | 89° | 104km/h | 10092m | -5.8m/s | -39.8°C | 37.7% | 277.3hPa | 2.4V | 08:00:24 | 02:40:12 | 00:00:00 | |
| DO8TBO-1 | 2026-09-04 18:59:06 | 50.57723 | 12.39086 | 89° | 104km/h | 10104m | -5.6m/s | -39.8°C | 34.9% | 276.8hPa | 2.5V | 00:00:00 | 02:40:10 | 00:00:00 | |
| AM1SDL-15 | 2026-09-04 18:59:03 | 50.57721 | 12.38962 | 89° | 104km/h | 10121m | -5.6m/s | -39.9°C | 33.3% | 276.1hPa | 2.5V | 00:00:00 | 02:40:07 | 00:00:00 | |
| DL3JIN-12 | 2026-09-04 18:59:02 | 50.57721 | 12.38962 | 90° | 104km/h | 10121m | -5.6m/s | -39.9°C | 28.0% | 276.2hPa | 2.5V | 08:00:00 | 00:00:00 | 00:00:00 | |
| SONCRA | 2026-09-04 18:59:01 | 50.57720 | 12.38880 | 89° | 102km/h | 10132m | -5.8m/s | -40.0°C | 28.3% | 275.7hPa | 2.5V | 00:00:00 | 00:00:00 | 00:00:00 | |
| HARRO8 | 2026-09-04 18:58:59 | 50.57719 | 12.38798 | 89° | 104km/h | 10144m | -5.6m/s | -40.1°C | 28.6% | 275.2hPa | 2.5V | 00:00:00 | 00:00:00 | 00:00:00 | |
| DM0DOS-11 | 2026-09-04 18:58:58 | 50.57719 | 12.38756 | 89° | 104km/h | 10150m | -5.8m/s | -40.1°C | 34.2% | 275hPa | 2.5V | 08:00:10 | 02:40:02 | 00:00:00 | |
| DF8AY | 2026-09-04 18:58:57 | 50.57718 | 12.38715 | 89° | 104km/h | 10156m | -5.8m/s | -40.2°C | 35% | 274.8hPa | 2.5V | 08:00:24 | 02:40:01 | 00:00:00 | |
| DF8AY | 2026-09-04 18:58:47 | 50.57715 | 12.38299 | 89° | 104km/h | 10214m | -5.8m/s | -40.7°C | 40.7% | 272.4hPa | 2.5V | 08:00:24 | 02:39:51 | 00:00:00 | |
| EDDB2-12 | 2026-09-04 18:58:45 | 50.57714 | 12.38215 | 88° | 104km/h | 10225m | -5.6m/s | -40.8°C | 34.8% | 271.9hPa | 2.4V | 00:00:00 | 00:00:00 | 00:00:00 | |
| DF8AY | 2026-09-04 18:58:36 | 50.57707 | 12.37842 | 88° | 106km/h | 10278m | -5.8m/s | -41.2°C | 43% | 269.9hPa | 2.4V | 08:01:15 | 02:39:40 | 00:00:00 | |
| DF8AY | 2026-09-04 18:58:31 | 50.57696 | 12.37426 | 88° | 104km/h | 10337m | -6.1m/s | -41.7°C | 45.2% | 267.5hPa | 2.4V | 08:01:15 | 02:39:30 | 00:00:00 | |
| DF8AY | 2026-09-04 18:58:15 | 50.57683 | 12.36970 | 87° | 104km/h | 10403m | -5.9m/s | -42.3°C | 49% | 264.9hPa | 2.4V | 08:01:15 | 02:39:19 | 00:00:00 | |
| DF8AY | 2026-09-04 18:58:05 | 50.57668 | 12.36555 | 87° | 106km/h | 10463m | -6.2m/s | -42.9°C | 50% | 262.6hPa | 2.5V | 08:01:15 | 02:39:09 | 00:00:00 | |
| DF8AY | 2026-09-04 18:57:54 | 50.57650 | 12.36096 | 87° | 106km/h | 10530m | -6.1m/s | -43.6°C | 44.2% | 260hPa | 2.5V | 08:01:15 | 02:38:58 | 00:00:00 | |
| SONDE2-11 | 2026-09-04 18:57:52 | 50.57647 | 12.36012 | 87° | 106km/h | 10542m | -5.9m/s | -43.7°C | 35.7% | 259.5hPa | 2.4V | 00:00:00 | 00:00:00 | 00:00:00 | |
| EDDB2-11 | 2026-09-04 18:57:51 | 50.57646 | 12.35969 | 87° | 108km/h | 10548m | -6.2m/s | -43.7°C | 35.0% | 259.3hPa | 2.4V | 00:00:00 | 00:00:00 | 00:00:00 | |
| DF8AY | 2026-09-04 18:57:44 | 50.57637 | 12.35670 | 87° | 106km/h | 10591m | -6m/s | -44.1°C | 36.1% | 257.6hPa | 2.4V | 08:02:06 | 02:38:48 | 00:00:00 | |
| HSKMA3-T | 2026-09-04 18:57:33 | 50.57620 | 12.35204 | 86° | 108km/h | 10658m | -6.1m/s | -44.6°C | 29.8% | 255.1hPa | 2.4V | 08:02:06 | 02:38:37 | 00:00:00 | |
| DF8AY | 2026-09-04 18:57:23 | 50.57604 | 12.34777 | 87° | 108km/h | 10719m | -6.1m/s | -45.1°C | 30.8% | 252.7hPa | 2.5V | 08:02:06 | 02:38:27 | 00:00:00 | |
| HSKMA3-T | 2026-09-04 18:57:15 | 50.57588 | 12.34435 | 85° | 108km/h | 10769m | -6.3m/s | -45.5°C | 31% | 250.8hPa | 2.4V | 08:02:06 | 02:38:19 | 00:00:00 | |
| DF8AY | 2026-09-04 18:57:12 | 50.57581 | 12.34306 | 85° | 108km/h | 10787m | -6.1m/s | -45.7°C | 31.1% | 250.2hPa | 2.4V | 08:02:06 | 02:38:16 | 00:00:00 | |
| HSKMA3-T | 2026-09-04 18:57:05 | 50.57562 | 12.34008 | 84° | 108km/h | 10831m | -6.3m/s | -46.1°C | 31.3% | 248.5hPa | 2.5V | 08:02:06 | 02:38:09 | 00:00:00 | |
| DF8AY | 2026-09-04 18:57:02 | 50.57554 | 12.33881 | 84° | 108km/h | 10850m | -6m/s | -46.2°C | 31.3% | 247.8hPa | 2.4V | 08:02:06 | 02:38:06 | 00:00:00 | |
| HSKMA3-T | 2026-09-04 18:56:53 | 50.57528 | 12.33500 | 84° | 108km/h | 10907m | -6.3m/s | -46.7°C | 32.8% | 245.7hPa | 2.5V | 08:03:48 | 02:37:57 | 00:00:00 | |
| DF8AY | 2026-09-04 18:56:52 | 50.57525 | 12.33458 | 84° | 108km/h | 10913m | -6.2m/s | -46.7°C | 33% | 245.4hPa | 2.5V | 08:02:57 | 02:37:56 | 00:00:00 | |
| SONDE2-11 | 2026-09-04 18:56:50 | 50.57519 | 12.33373 | 83° | 106km/h | 10926m | -6.2m/s | -46.8°C | 26.2% | 245.0hPa | 2.5V | 00:00:00 | 00:00:00 | 00:00:00 | |
| DL1ZP-14 | 2026-09-04 18:56:49 | 50.57513 | 12.33289 | 83° | 106km/h | 10938m | -6.3m/s | -46.9°C | 26.3% | 244.6hPa | 2.5V | 00:00:00 | 00:00:00 | 00:00:00 | |
| HSKMA3-T | 2026-09-04 18:56:43 | 50.57497 | 12.33077 | 84° | 108km/h | 10969m | -6.3m/s | -47.2°C | 33.5% | 243.4hPa | 2.4V | 08:03:48 | 02:37:47 | 00:00:00 | |
| DF8AY | 2026-09-04 18:56:42 | 50.57494 | 12.33034 | 83° | 108km/h | 10976m | -6.3m/s | -47.3°C | 33.4% | 243.2hPa | 2.4V | 08:02:57 | 02:37:46 | 00:00:00 | |
| DO3MHA-11 | 2026-09-04 18:56:42 | 50.57494 | 12.33034 | 84° | 108km/h | 10976m | -6.2m/s | -47.2°C | 32.9% | 243.1hPa | 2.4V | 00:00:00 | 02:37:46 | 00:00:00 | |
| DK5PH-5 | 2026-09-04 18:56:41 | 50.57491 | 12.32992 | 84° | 110km/h | 10983m | -6.3m/s | -47.3°C | 32.8% | 242.9hPa | 2.4V | 00:00:00 | 02:37:45 | 00:00:00 | |
| DH8WE-5 | 2026-09-04 18:56:40 | 50.57491 | 12.32992 | 85° | 108km/h | 10983m | -6.3m/s | -47.4°C | 26.3% | 242.9hPa | 2.4V | 08:02:00 | 00:00:00 | 00:00:00 | |
| DM0DOS-11 | 2026-09-04 18:56:36 | 50.57458 | 12.32566 | 82° | 110km/h | 11045m | -6.3m/s | -47.9°C | 30.3% | 240.6hPa | 2.4V | 08:02:37 | 02:37:35 | 00:00:00 | |
| DO3MHA-11 | 2026-09-04 18:56:32 | 50.57462 | 12.32609 | 84° | 110km/h | 11039m | -6.3m/s | -47.8°C | 30.5% | 240.8hPa | 2.4V | 00:00:00 | 02:37:36 | 00:00:00 | |
| DF8AY | 2026-09-04 18:56:31 | 50.57458 | 12.32566 | 83° | 110km/h | 11045m | -6.3m/s | -47.9°C | 30.9% | 240.7hPa | 2.4V | 08:02:57 | 02:37:35 | 00:00:00 | |
| NBG1-10 | 2026-09-04 18:56:31 | 50.57458 | 12.32566 | 83° | 110km/h | 11045m | -6.3m/s | -47.8°C | 30.3% | 240.6hPa | 2.4V | 00:00:00 | 02:37:35 | 00:00:00 | |
| DO8TBO-1 | 2026-09-04 18:56:30 | 50.57455 | 12.32523 | 83° | 110km/h | 11052m | -6.2m/s | -47.9°C | 30.2% | 240.4hPa | 2.4V | 00:00:00 | 02:37:34 | 00:00:00 | |
| 13BRC | 2026-09-04 18:56:29 | 50.57455 | 12.32523 | 84° | 110km/h | 11052m | -6.2m/s | -47.9°C | 23.9% | 240.4hPa | 2.5V | 08:02:00 | 00:00:00 | 00:00:00 | |
| DF2AP-13 | 2026-09-04 18:56:28 | 50.57448 | 12.32437 | 83° | 110km/h | 11064m | -6.2m/s | -48.0°C | 30.5% | 239.9hPa | 2.5V | 00:00:00 | 02:37:32 | 00:00:00 | |
| DM0DOS-11 | 2026-09-04 18:56:26 | 50.57424 | 12.32134 | 83° | 110km/h | 11108m | -6.2m/s | -48.4°C | 30.9% | 238.3hPa | 2.5V | 08:02:47 | 02:37:25 | 00:00:00 | |
| DF8AY | 2026-09-04 18:56:21 | 50.57424 | 12.32134 | 83° | 110km/h | 11108m | -6.3m/s | -48.4°C | 31.4% | 238.3hPa | 2.5V | 08:02:57 | 02:37:25 | 00:00:00 | |
| DF8AY | 2026-09-04 18:56:10 | 50.57387 | 12.31660 | 83° | 110km/h | 11178m | -6.5m/s | 0°C | 0% | 235.8hPa | 2.5V | 18:12:15 | 02:37:14 | 00:00:00 | |
| 13BRC | 2026-09-04 18:56:09 | 50.57387 | 12.31660 | 84° | 110km/h | 11178m | -6.5m/s | -48.9°C | 26.3% | 235.8hPa | 2.4V | 08:03:00 | 00:00:00 | 00:00:00 | |
| DM0DOS-11 | 2026-09-04 18:56:08 | 50.57373 | 12.31489 | 81° | 108km/h | 11203m | -6.3m/s | -49.1°C | 34.9% | 234.9hPa | 2.4V | 08:03:02 | 02:37:10 | 00:00:00 | |
| DF8AY | 2026-09-04 18:56:00 | 50.57350 | 12.31234 | 82° | 108km/h | 11242m | -6.2m/s | 0°C | 0% | 0hPa | 2.4V | 18:12:15 | 02:37:04 | 00:00:00 | |
| DO8TBO-1 | 2026-09-04 18:56:00 | 50.57350 | 12.31234 | 83° | 108km/h | 11242m | -6.2m/s | -49.5°C | 38.0% | 233.5hPa | 2.5V | 00:00:00 | 02:37:04 | 00:00:00 | |
| DH8WE-5 | 2026-09-04 18:55:59 | 50.57350 | 12.31234 | 83° | 108km/h | 11242m | -6.2m/s | -49.5°C | 30.3% | 233.5hPa | 2.5V | 08:03:00 | 00:00:00 | 00:00:00 | |
| DM0DOS-11 | 2026-09-04 18:55:58 | 50.57335 | 12.31064 | 82° | 108km/h | 11267m | -6.4m/s | -49.7°C | 40.5% | 232.7hPa | 2.5V | 08:03:12 | 02:37:00 | 00:00:00 | |
| DF8AY | 2026-09-04 18:55:49 | 50.57310 | 12.30764 | 82° | 110km/h | 11312m | -6.5m/s | 0°C | 0% | 0hPa | 2.5V | 18:12:15 | 02:36:53 | 00:00:00 | |
| DM0DOS-11 | 2026-09-04 18:55:48 | 50.57299 | 12.30636 | 81° | 110km/h | 11331m | -6.1m/s | -50.3°C | 47.4% | 230.4hPa | 2.4V | 08:03:22 | 02:36:50 | 00:00:00 | |
| HSKMA3-T | 2026-09-04 18:55:45 | 50.57295 | 12.30593 | 82° | 110km/h | 11337m | -6.3m/s | -50.4°C | 47% | 230.2hPa | 2.5V | 08:03:48 | 02:36:49 | 00:00:00 | |
| DO3MHA-11 | 2026-09-04 18:55:42 | 50.57283 | 12.30466 | 83° | 110km/h | 11356m | -6.2m/s | -50.5°C | 49.4% | 229.5hPa | 2.4V | 00:00:00 | 02:36:46 | 00:00:00 | |
| DK5PH-5 | 2026-09-04 18:55:41 | 50.57280 | 12.30423 | 83° | 110km/h | 11362m | -6.0m/s | -50.6°C | 49.6% | 229.3hPa | 2.4V | 08:03:00 | 02:36:45 | 00:00:00 | |
| DH8WE-5 | 2026-09-04 18:55:39 | 50.57277 | 12.30380 | 83° | 108km/h | 11368m | -6.3m/s | -50.7°C | 40.2% | 229.1hPa | 2.4V | 08:03:00 | 00:00:00 | 00:00:00 | |
| DM0DOS-11 | 2026-09-04 18:55:38 | 50.57263 | 12.30209 | 83° | 110km/h | 11393m | -6.3m/s | -50.9°C | 48.9% | 228.2hPa | 2.4V | 08:03:32 | 02:36:40 | 00:00:00 | |
| HSKMA3-T | 2026-09-04 18:55:34 | 50.57256 | 12.30123 | 84° | 110km/h | 11406m | -6.3m/s | -51°C | 48.3% | 227.8hPa | 2.4V | 08:03:48 | 02:36:38 | 00:00:00 | |
| DO3MHA-11 | 2026-09-04 18:55:32 | 50.57250 | 12.30036 | 84° | 110km/h | 11418m | -6.0m/s | -51.1°C | 50.8% | 227.3hPa | 2.5V | 00:00:00 | 02:36:36 | 00:00:00 | |
| DO8TBO-1 | 2026-09-04 18:55:30 | 50.57244 | 12.29950 | 84° | 110km/h | 11431m | -6.3m/s | -51.2°C | 52.8% | 226.8hPa | 2.5V | 00:00:00 | 02:36:34 | 00:00:00 | |
| DM0DOS-11 | 2026-09-04 18:55:28 | 50.57231 | 12.29779 | 83° | 108km/h | 11456m | -6.4m/s | -51.5°C | 54.1% | 226hPa | 2.5V | 08:03:42 | 02:36:30 | 00:00:00 | |
| HSKMA3-T | 2026-09-04 18:55:24 | 50.57224 | 12.29693 | 84° | 110km/h | 11469m | -6.4m/s | -51.6°C | 52.7% | 225.5hPa | 2.5V | 08:03:48 | 02:36:28 | 00:00:00 | |
| SONCRA | 2026-09-04 18:55:24 | 50.57221 | 12.29650 | 83° | 108km/h | 11475m | -6.5m/s | -51.6°C | 43.9% | 225.3hPa | 2.4V | 00:00:00 | 00:00:00 | 00:00:00 | |
| DB0NH | 2026-09-04 18:55:23 | 50.57221 | 12.29649 | 84° | 111km/h | 11476m | -6.5m/s | -51.6°C | 54.3% | 225.2hPa | 2.4V | 00:00:00 | 02:36:27 | 00:00:00 | |
| DO3MHA-11 | 2026-09-04 18:55:22 | 50.57218 | 12.29606 | 84° | 111km/h | 11482m | -6.5m/s | -51.6°C | 54.0% | 225.1hPa | 2.4V | 00:00:00 | 02:36:26 | 00:00:00 | |
| DH8WE-5 | 2026-09-04 18:55:19 | 50.57211 | 12.29519 | 84° | 111km/h | 11495m | -6.2m/s | -51.8°C | 42.7% | 224.7hPa | 2.4V | 08:03:00 | 00:00:00 | 00:00:00 | |
| DM0DOS-11 | 2026-09-04 18:55:18 | 50.57196 | 12.29300 | 83° | 111km/h | 11527m | -6.1m/s | -52°C | 51.1% | 223.5hPa | 2.4V | 08:03:53 | 02:36:19 | 00:00:00 | |
| HSKMA3-T | 2026-09-04 18:55:14 | 50.57193 | 12.29256 | 84° | 111km/h | 11533m | -6.1m/s | -52°C | 49.8% | 223.3hPa | 2.5V | 08:04:39 | 02:36:18 | 00:00:00 | |
| DO3MHA-11 | 2026-09-04 18:55:12 | 50.57187 | 12.29169 | 84° | 111km/h | 11546m | -6.3m/s | -52.1°C | 50.6% | 222.9hPa | 2.5V | 00:00:00 | 02:36:16 | 00:00:00 | |
| DK5PH-5 | 2026-09-04 18:55:11 | 50.57184 | 12.29125 | 85° | 110km/h | 11552m | -6.4m/s | -52.1°C | 50.5% | 222.6hPa | 2.5V | 00:00:00 | 02:36:15 | 00:00:00 | |
| DM0DOS-11 | 2026-09-04 18:55:08 | 50.57168 | 12.28863 | 84° | 110km/h | 11590m | -6.3m/s | -52.5°C | 50.4% | 221.4hPa | 2.5V | 08:04:03 | 02:36:09 | 00:00:00 | |
| HSKMA3-T | 2026-09-04 18:55:03 | 50.57163 | 12.28776 | 85° | 110km/h | 11603m | -6.5m/s | -52.6°C | 49.8% | 220.9hPa | 2.4V | 08:04:39 | 02:36:07 | 00:00:00 | |
| HSKMA3-T | 2026-09-04 18:54:52 | 50.57135 | 12.28296 | 85° | 111km/h | 11675m | -6.7m/s | -53.3°C | 51.8% | 218.5hPa | 2.5V | 08:04:39 | 02:35:56 | 00:00:00 | |
| HARRO8 | 2026-09-04 18:54:51 | 50.57123 | 12.28076 | 85° | 110km/h | 11709m | -7.3m/s | -53.6°C | 42.8% | 217.3hPa | 2.5V | 00:00:00 | 00:00:00 | 00:00:00 | |
| DM0DOS-11 | 2026-09-04 18:54:48 | 50.57115 | 12.27903 | 85° | 110km/h | 11740m | -7.9m/s | -53.9°C | 52.7% | 216.3hPa | 2.5V | 08:04:25 | 02:35:47 | 00:00:00 | |
| SONDE2-11 | 2026-09-04 18:54:46 | 50.57121 | 12.28032 | 85° | 108km/h | 11717m | -7.1m/s | -53.7°C | 42.4% | 217.1hPa | 2.6V | 00:00:00 | 00:00:00 | 00:00:00 | |
| EDDB2-11 | 2026-09-04 18:54:45 | 50.57119 | 12.27989 | 85° | 108km/h | 11724m | -8.6m/s | -53.7°C | 42.0% | 216.8hPa | 2.6V | 00:00:00 | 00:00:00 | 00:00:00 | |
| HSKMA3-T | 2026-09-04 18:54:41 | 50.57110 | 12.27815 | 85° | 113km/h | 11756m | -8.1m/s | -54°C | 50.4% | 215.7hPa | 2.6V | 08:04:39 | 02:35:45 | 00:00:00 | |
| HSKMA3-T | 2026-09-04 18:54:30 | 50.57083 | 12.27315 | 85° | 113km/h | 11844m | -7.2m/s | -54.5°C | 50.7% | 212.8hPa | 2.5V | 08:04:39 | 02:35:34 | 00:00:00 | |
| HSKMA3-T | 2026-09-04 18:54:20 | 50.57057 | 12.26820 | 84° | 115km/h | 11918m | -6.4m/s | -55.3°C | 53.3% | 210.3hPa | 2.4V | 08:05:30 | 02:35:23 | 00:00:00 | |
| HSKMA3-T | 2026-09-04 18:54:09 | 50.57026 | 12.26362 | 84° | 117km/h | 11984m | -6.4m/s | -55.9°C | 54.5% | 208.2hPa | 2.6V | 08:05:30 | 02:35:13 | 00:00:00 | |
| HSKMA3-T | 2026-09-04 18:53:59 | 50.56990 | 12.25904 | 82° | 117km/h | 12048m | -6.7m/s | -56.5°C | 55.4% | 206.1hPa | 2.5V | 08:05:30 | 02:35:03 | 00:00:00 | |
| DF8AY | 2026-09-04 18:53:54 | 50.56971 | 12.25674 | 83° | 117km/h | 12082m | -6.6m/s | -56.8°C | 55.7% | 205hPa | 2.5V | 08:05:30 | 02:34:58 | 00:00:00 | |
| SONCRA | 2026-09-04 18:53:50 | 50.56956 | 12.25489 | 82° | 117km/h | 12108m | -6.5m/s | -57.1°C | 46.8% | 204.1hPa | 2.5V | 00:00:00 | 00:00:00 | 00:00:00 | |
| DF8AY | 2026-09-04 18:53:49 | 50.56930 | 12.25211 | 82° | 119km/h | 12148m | -6.6m/s | -57.5°C | 56.3% | 202.8hPa | 2.5V | 08:05:30 | 02:34:48 | 00:00:00 | |
| HSKMA3-T | 2026-09-04 18:53:49 | 50.56951 | 12.25443 | 82° | 117km/h | 12115m | -6.7m/s | -57.2°C | 56% | 203.9hPa | 2.5V | 08:05:30 | 02:34:53 | 00:00:00 | |
| HARRO8 | 2026-09-04 18:53:49 | 50.56947 | 12.25397 | 81° | 117km/h | 12122m | -6.4m/s | -57.2°C | 47.1% | 203.7hPa | 2.5V | 00:00:00 | 00:00:00 | 00:00:00 | |
| HSKMA3-T | 2026-09-04 18:53:38 | 50.56904 | 12.24929 | 82° | 120km/h | 12186m | -6.5m/s | -57.8°C | 56.6% | 201.6hPa | 2.5V | 08:05:30 | 02:34:42 | 00:00:00 | |
| DF8AY | 2026-09-04 18:53:33 | 50.56882 | 12.24694 | 81° | 120km/h | 12219m | -6.5m/s | -58.1°C | 56.7% | 200.6hPa | 2.5V | 08:06:21 | 02:34:37 | 00:00:00 | |
| HSKMA3-T | 2026-09-04 18:53:27 | 50.56854 | 12.24411 | 81° | 120km/h | 12257m | -6.5m/s | -58.5°C | 56.8% | 199.3hPa | 2.5V | 08:06:21 | 02:34:31 | 00:00:00 | |
| DF8AY | 2026-09-04 18:53:23 | 50.56836 | 12.24222 | 83° | 120km/h | 12283m | -6.4m/s | -58.8°C | 56.8% | 198.5hPa | 2.6V | 08:06:21 | 02:34:27 | 00:00:00 | |
| HSKMA3-T | 2026-09-04 18:53:16 | 50.56807 | 12.23889 | 83° | 120km/h | 12329m | -6.6m/s | -59.2°C | 56.4% | 197.1hPa | 2.5V | 08:06:21 | 02:34:20 | 00:00:00 | |
| DF8AY | 2026-09-04 18:53:13 | 50.56796 | 12.23746 | 83° | 120km/h | 12349m | -6.5m/s | -59.3°C | 56.3% | 196.5hPa | 2.5V | 08:06:21 | 02:34:17 | 00:00:00 | |
| HSKMA3-T | 2026-09-04 18:53:06 | 50.56770 | 12.23411 | 83° | 122km/h | 12395m | -6.8m/s | -59.7°C | 56.1% | 195.1hPa | 2.5V | 08:06:21 | 02:34:10 | 00:00:00 | |
| DF8AY | 2026-09-04 18:53:02 | 50.56757 | 12.23217 | 83° | 124km/h | 12422m | -6.5m/s | -59.9°C | 55.8% | 194.2hPa | 2.5V | 08:06:21 | 02:34:06 | 00:00:00 | |
| DC4HF-4 | 2026-09-04 18:53:02 | 50.56702 | 12.22441 | 83° | 122km/h | 12526m | -6.4m/s | -60.5°C | 46.5% | 191.0hPa | 2.5V | 00:00:00 | 00:00:00 | 00:00:00 | |
| DO3MHA-11 | 2026-09-04 18:53:01 | 50.56753 | 12.23168 | 84° | 122km/h | 12428m | -6.5m/s | -59.9°C | 62.2% | 194.0hPa | 2.5V | 00:00:00 | 02:34:05 | 00:00:00 | |
| DM0DOS-11 | 2026-09-04 18:52:58 | 50.56730 | 12.22829 | 83° | 122km/h | 12474m | -6.7m/s | -60.2°C | 61.9% | 192.6hPa | 2.5V | 08:06:14 | 02:33:58 | 00:00:00 | |
| HSKMA3-T | 2026-09-04 18:52:55 | 50.56734 | 12.22877 | 84° | 122km/h | 12467m | -6.6m/s | -60.2°C | 55.1% | 192.8hPa | 2.5V | 08:06:21 | 02:33:59 | 00:00:00 | |
| DF8AY | 2026-09-04 18:52:52 | 50.56724 | 12.22732 | 84° | 122km/h | 12487m | -6.5m/s | -60.3°C | 54.6% | 192.2hPa | 2.5V | 08:06:21 | 02:33:56 | 00:00:00 | |
| DO3MHA-11 | 2026-09-04 18:52:51 | 50.56720 | 12.22684 | 84° | 124km/h | 12494m | -6.4m/s | -60.3°C | 61.3% | 191.9hPa | 2.5V | 00:00:00 | 02:33:55 | 00:00:00 | |
| DL3JIN-12 | 2026-09-04 18:52:50 | 50.56720 | 12.22684 | 84° | 124km/h | 12494m | -6.4m/s | -60.3°C | 47.0% | 192.0hPa | 2.5V | 08:06:00 | 00:00:00 | 00:00:00 | |
| DM0DOS-11 | 2026-09-04 18:52:48 | 50.56694 | 12.22342 | 82° | 126km/h | 12539m | -6.4m/s | -60.5°C | 60.4% | 190.6hPa | 2.5V | 08:06:24 | 02:33:48 | 00:00:00 | |
| HSKMA3-T | 2026-09-04 18:52:45 | 50.56698 | 12.22392 | 83° | 124km/h | 12532m | -6.3m/s | -60.5°C | 53.7% | 190.8hPa | 2.5V | 08:07:12 | 02:33:49 | 00:00:00 | |
| DF8AY | 2026-09-04 18:52:41 | 50.56683 | 12.22193 | 83° | 128km/h | 12558m | -6.4m/s | -60.6°C | 52.9% | 190.1hPa | 2.5V | 08:07:12 | 02:33:45 | 00:00:00 | |
| DK5PH-5 | 2026-09-04 18:52:41 | 50.56683 | 12.22193 | 83° | 130km/h | 12558m | -6.4m/s | -60.5°C | 59.2% | 190.0hPa | 2.5V | 00:00:00 | 02:33:45 | 00:00:00 | |
| NBG1-10 | 2026-09-04 18:52:40 | 50.56679 | 12.22143 | 83° | 130km/h | 12564m | -6.4m/s | -60.5°C | 59.1% | 189.8hPa | 2.6V | 00:00:00 | 02:33:44 | 00:00:00 | |
| DJTTGO | 2026-09-04 18:52:39 | 50.56679 | 12.22143 | 84° | 130km/h | 12564m | -6.4m/s | -60.6°C | 45.0% | 189.8hPa | 2.6V | 00:00:00 | 00:00:00 | 00:00:00 | |
| DM0DOS-11 | 2026-09-04 18:52:38 | 50.56651 | 12.21838 | 81° | 130km/h | 12602m | -6.2m/s | -60.9°C | 58.9% | 188.6hPa | 2.6V | 08:06:34 | 02:33:38 | 00:00:00 | |
| HSKMA3-T | 2026-09-04 18:52:34 | 50.56651 | 12.21838 | 81° | 130km/h | 12602m | -6.2m/s | -60.9°C | 52% | 188.6hPa | 2.6V | 08:07:12 | 02:33:38 | 00:00:00 | |
| DF8AY | 2026-09-04 18:52:31 | 50.56637 | 12.21685 | 81° | 130km/h | 12621m | -6.4m/s | -61°C | 51.5% | 188.1hPa | 2.5V | 08:07:12 | 02:33:35 | 00:00:00 | |
| DO3MHA-11 | 2026-09-04 18:52:31 | 50.56636 | 12.21685 | 82° | 130km/h | 12621m | -6.4m/s | -61.0°C | 58.6% | 188.0hPa | 2.5V | 00:00:00 | 02:33:35 | 00:00:00 | |
| DL3JIN-12 | 2026-09-04 18:52:30 | 50.56637 | 12.21686 | 82° | 130km/h | 12621m | -6.4m/s | -61.0°C | 44.5% | 188.0hPa | 2.5V | 08:07:00 | 00:00:00 | 00:00:00 | |
| DL1JEZ-13 | 2026-09-04 18:52:29 | 50.56631 | 12.21634 | 82° | 130km/h | 12628m | -6.2m/s | -61.1°C | 44.3% | 187.9hPa | 2.5V | 00:00:00 | 00:00:00 | 00:00:00 | |
| DM0DOS-11 | 2026-09-04 18:52:28 | 50.56599 | 12.21329 | 79° | 130km/h | 12666m | -6.5m/s | -60.9°C | 55.3% | 186.7hPa | 2.5V | 08:06:44 | 02:33:28 | 00:00:00 | |
| HSKMA3-T | 2026-09-04 18:52:24 | 50.56600 | 12.21329 | 80° | 130km/h | 12666m | -6.5m/s | -60.9°C | 50.4% | 186.7hPa | 2.5V | 08:07:12 | 02:33:28 | 00:00:00 | |
| DF8AY | 2026-09-04 18:52:20 | 50.56576 | 12.21128 | 79° | 130km/h | 12691m | -6.4m/s | -61°C | 50.2% | 185.9hPa | 2.6V | 08:07:12 | 02:33:24 | 00:00:00 | |
| HSKMA3-T | 2026-09-04 18:52:14 | 50.56538 | 12.20825 | 79° | 130km/h | 12730m | -6.3m/s | -61.3°C | 49.7% | 184.8hPa | 2.6V | 08:07:12 | 02:33:18 | 00:00:00 | |
| DF8AY | 2026-09-04 18:52:10 | 50.56512 | 12.20622 | 78° | 131km/h | 12755m | -6.4m/s | -61.4°C | 49% | 184hPa | 2.5V | 08:07:12 | 02:33:14 | 00:00:00 | |
| HSKMA3-T | 2026-09-04 18:52:03 | 50.56464 | 12.20264 | 78° | 133km/h | 12800m | -6.5m/s | -61.8°C | 47.9% | 182.7hPa | 2.6V | 08:07:12 | 02:33:07 | 00:00:00 | |
| DF8AY | 2026-09-04 18:51:59 | 50.56436 | 12.20058 | 77° | 133km/h | 12826m | -6.3m/s | -62°C | 47.2% | 181.9hPa | 2.5V | 08:07:12 | 02:33:03 | 00:00:00 | |
| HSKMA3-T | 2026-09-04 18:51:53 | 50.56391 | 12.19753 | 76° | 131km/h | 12864m | -6.3m/s | -62.3°C | 45.7% | 180.8hPa | 2.5V | 08:08:03 | 02:32:57 | 00:00:00 | |
| DF8AY | 2026-09-04 18:51:49 | 50.56357 | 12.19549 | 75° | 133km/h | 12889m | -6.2m/s | -62.5°C | 44.3% | 180.1hPa | 2.6V | 08:08:03 | 02:32:53 | 00:00:00 | |
| SONCRA | 2026-09-04 18:51:46 | 50.56330 | 12.19393 | 75° | 135km/h | 12908m | -6.3m/s | -62.6°C | 36.5% | 179.5hPa | 2.5V | 00:00:00 | 00:00:00 | 00:00:00 | |
| HSKMA3-T | 2026-09-04 18:51:42 | 50.56297 | 12.19182 | 77° | 137km/h | 12933m | -6.2m/s | -62.7°C | 41.6% | 178.8hPa | 2.5V | 08:08:03 | 02:32:46 | 00:00:00 | |
| DF8AY | 2026-09-04 18:51:39 | 50.56273 | 12.19023 | 77° | 137km/h | 12952m | -6.7m/s | -62.6°C | 40.3% | 178.2hPa | 2.5V | 08:08:03 | 02:32:43 | 00:00:00 | |
| EDDB2-11 | 2026-09-04 18:51:39 | 50.56265 | 12.18970 | 76° | 137km/h | 12959m | -6.3m/s | -62.5°C | 33.5% | 178.1hPa | 2.5V | 00:00:00 | 00:00:00 | 00:00:00 | |
| DM0DOS-11 | 2026-09-04 18:51:38 | 50.56233 | 12.18756 | 77° | 139km/h | 12984m | -6.2m/s | -62.3°C | 44.6% | 177.3hPa | 2.5V | 08:07:34 | 02:32:38 | 00:00:00 | |
| HSKMA3-T | 2026-09-04 18:51:32 | 50.56218 | 12.18649 | 78° | 139km/h | 12997m | -6.4m/s | -62.4°C | 38.4% | 177hPa | 2.6V | 08:08:03 | 02:32:36 | 00:00:00 | |
| DF8AY | 2026-09-04 18:51:29 | 50.56198 | 12.18488 | 80° | 137km/h | 13016m | -6.5m/s | -62.4°C | 37.7% | 176.4hPa | 2.5V | 08:08:03 | 02:32:33 | 00:00:00 | |
| DM0DOS-11 | 2026-09-04 18:51:28 | 50.56169 | 12.18214 | 81° | 142km/h | 13048m | -6.1m/s | -62.7°C | 42.3% | 175.5hPa | 2.5V | 08:07:44 | 02:32:28 | 00:00:00 | |
| HSKMA3-T | 2026-09-04 18:51:21 | 50.56153 | 12.18046 | 82° | 144km/h | 13066m | -6.3m/s | -62.8°C | 35.3% | 174.9hPa | 2.5V | 08:08:03 | 02:32:25 | 00:00:00 | |
| DF8AY | 2026-09-04 18:51:18 | 50.56138 | 12.17875 | 83° | 144km/h | 13086m | -6.3m/s | -62.6°C | 34.3% | 174.4hPa | 2.5V | 08:08:03 | 02:32:22 | 00:00:00 | |
| DM0DOS-11 | 2026-09-04 18:51:18 | 50.56121 | 12.17648 | 83° | 144km/h | 13111m | -6.5m/s | -62.4°C | 37.8% | 173.7hPa | 2.6V | 08:07:54 | 02:32:18 | 00:00:00 | |
| HSKMA3-T | 2026-09-04 18:51:11 | 50.56108 | 12.17477 | 84° | 144km/h | 13131m | -6.7m/s | -62.2°C | 32.3% | 173.1hPa | 2.5V | 08:08:03 | 02:32:15 | 00:00:00 | |
| DO3MHA-11 | 2026-09-04 18:51:11 | 50.56108 | 12.17477 | 84° | 142km/h | 13131m | -6.7m/s | -62.1°C | 36.3% | 173.1hPa | 2.5V | 00:00:00 | 02:32:15 | 00:00:00 | |
| SONDE2-11 | 2026-09-04 18:51:09 | 50.56101 | 12.17364 | 84° | 142km/h | 13144m | -6.4m/s | -62.2°C | 24.9% | 172.7hPa | 2.5V | 00:00:00 | 00:00:00 | 00:00:00 | |
| DM0DOS-11 | 2026-09-04 18:51:08 | 50.56080 | 12.17083 | 83° | 142km/h | 13176m | -6.5m/s | -62.4°C | 34.5% | 171.9hPa | 2.5V | 08:08:04 | 02:32:08 | 00:00:00 | |
| DF8AY | 2026-09-04 18:51:08 | 50.56097 | 12.17308 | 83° | 142km/h | 13150m | -6.6m/s | -62.2°C | 31.5% | 172.6hPa | 2.6V | 08:08:03 | 02:32:12 | 00:00:00 | |
| HSKMA3-T | 2026-09-04 18:51:01 | 50.56067 | 12.16916 | 83° | 141km/h | 13195m | -6.6m/s | -62.5°C | 29.8% | 171.3hPa | 2.6V | 08:08:54 | 02:32:05 | 00:00:00 | |
| NBG1-10 | 2026-09-04 18:51:01 | 50.56067 | 12.16916 | 83° | 139km/h | 13195m | -6.5m/s | -62.5°C | 33.9% | 171.3hPa | 2.5V | 00:00:00 | 02:32:05 | 00:00:00 | |
| DM0DOS-11 | 2026-09-04 18:50:58 | 50.56038 | 12.16532 | 83° | 139km/h | 13242m | -6.7m/s | -62.9°C | 32.3% | 170hPa | 2.5V | 08:08:14 | 02:31:58 | 00:00:00 | |
| DF8AY | 2026-09-04 18:50:57 | 50.56050 | 12.16697 | 83° | 139km/h | 13222m | -6.9m/s | -62.7°C | 28.6% | 170.6hPa | 2.5V | 08:08:54 | 02:32:01 | 00:00:00 | |
| HSKMA3-T | 2026-09-04 18:50:50 | 50.56019 | 12.16314 | 81° | 137km/h | 13270m | -7.1m/s | -63°C | 26.4% | 169.2hPa | 2.6V | 08:08:54 | 02:31:54 | 00:00:00 | |
| DF8AY | 2026-09-04 18:50:47 | 50.56002 | 12.16152 | 80° | 139km/h | 13290m | -7.2m/s | -63°C | 25.6% | 168.7hPa | 2.5V | 08:08:54 | 02:31:51 | 00:00:00 | |
| HSKMA3-T | 2026-09-04 18:50:40 | 50.55969 | 12.15768 | 85° | 141km/h | 13341m | -7.3m/s | -63.1°C | 23.5% | 167.3hPa | 2.5V | 08:08:54 | 02:31:44 | 00:00:00 | |
| SONDE2-11 | 2026-09-04 18:50:38 | 50.55962 | 12.15657 | 84° | 141km/h | 13355m | -7.4m/s | -63.1°C | 18.9% | 166.9hPa | 2.6V | 00:00:00 | 00:00:00 | 00:00:00 | |
| EDDB2-11 | 2026-09-04 18:50:37 | 50.55955 | 12.15546 | 83° | 139km/h | 13370m | -7.2m/s | -63.0°C | 18.2% | 166.5hPa | 2.6V | 00:00:00 | 00:00:00 | 00:00:00 | |
| DM0DOS-11 | 2026-09-04 18:50:36 | 50.55938 | 12.15271 | 86° | 137km/h | 13406m | -7.3m/s | -62.3°C | 25.9% | 165.6hPa | 2.6V | 08:08:37 | 02:31:35 | 00:00:00 | |
| DF8AY | 2026-09-04 18:50:36 | 50.55955 | 12.15546 | 84° | 141km/h | 13370m | -7.2m/s | -63°C | 22% | 166.5hPa | 2.5V | 08:08:54 | 02:31:40 | 00:00:00 | |
| DL1XH-west | 2026-09-04 18:50:31 | 50.55938 | 12.15271 | 86° | 137km/h | 13406m | -7.3m/s | -62.3°C | 20.5% | 165.6hPa | 2.6V | 08:08:54 | 02:31:35 | 00:00:00 | |
| HSKMA3-T | 2026-09-04 18:50:29 | 50.55934 | 12.15162 | 87° | 139km/h | 13421m | -7.2m/s | -61.5°C | 19.8% | 165.2hPa | 2.5V | 08:08:54 | 02:31:33 | 00:00:00 | |
| DF8AY | 2026-09-04 18:50:25 | 50.55930 | 12.14940 | 88° | 141km/h | 13449m | -7.2m/s | -61.5°C | 19.5% | 164.4hPa | 2.6V | 08:08:54 | 02:31:29 | 00:00:00 | |
| OE5DRO-10 | 2026-09-04 18:50:25 | 50.55930 | 12.14940 | 89° | 142km/h | 13449m | -7.1m/s | -61.4°C | 23.2% | 164.4hPa | 2.6V | 00:00:00 | 00:00:00 | 00:00:00 | |
| DL3JIN-12 | 2026-09-04 18:50:24 | 50.55930 | 12.14940 | 89° | 141km/h | 13449m | -7.2m/s | -61.5°C | 15.2% | 164.4hPa | 2.5V | 08:08:00 | 00:00:00 | 00:00:00 | |
| DM0DOS-11 | 2026-09-04 18:50:23 | 50.55928 | 12.14548 | 90° | 141km/h | 13500m | -8m/s | -61.4°C | 22.2% | 163hPa | 2.5V | 08:08:50 | 02:31:22 | 00:00:00 | |
| DL1XH-west | 2026-09-04 18:50:20 | 50.55928 | 12.14660 | 90° | 141km/h | 13485m | -7.6m/s | -61.6°C | 19.3% | 163.4hPa | 2.6V | 08:08:54 | 02:31:24 | 00:00:00 | |
| HSKMA3-T | 2026-09-04 18:50:19 | 50.55928 | 12.14604 | 91° | 141km/h | 13493m | -7.5m/s | -61.5°C | 19.3% | 163.2hPa | 2.6V | 08:08:54 | 02:31:23 | 00:00:00 | |
| DF8AY | 2026-09-04 18:50:14 | 50.55933 | 12.14326 | 92° | 141km/h | 13532m | -8m/s | -60.9°C | 18.5% | 162.2hPa | 2.6V | 08:08:54 | 02:31:18 | 00:00:00 | |
| DL1XH-west | 2026-09-04 18:50:10 | 50.55938 | 12.14100 | 92° | 142km/h | 13564m | -7.7m/s | -60.9°C | 17.7% | 161.4hPa | 2.5V | 08:09:45 | 02:31:14 | 00:00:00 | |
| DAC517 | 2026-09-04 18:50:10 | 50.55938 | 12.14100 | 93° | 142km/h | 13564m | -7.7m/s | 0°C | 0% | 0hPa | 2.6V | 00:00:00 | 00:00:00 | 00:00:00 | |
| DM0DOS-11 | 2026-09-04 18:50:08 | 50.55942 | 12.13930 | 92° | 142km/h | 13587m | -7.9m/s | -61°C | 19.5% | 160.8hPa | 2.6V | 08:09:01 | 02:31:11 | 00:00:00 | |
| HSKMA3-T | 2026-09-04 18:50:08 | 50.55941 | 12.13986 | 92° | 142km/h | 13579m | -7.9m/s | -60.9°C | 17.2% | 161hPa | 2.6V | 08:09:45 | 02:31:12 | 00:00:00 | |
| DF8AY | 2026-09-04 18:50:04 | 50.55947 | 12.13761 | 93° | 142km/h | 13611m | -7.7m/s | -61.2°C | 16.3% | 160.2hPa | 2.5V | 08:09:45 | 02:31:08 | 00:00:00 | |
| DL3JIN-12 | 2026-09-04 18:50:03 | 50.55947 | 12.13761 | 94° | 142km/h | 13611m | -7.7m/s | -61.2°C | 12.1% | 160.2hPa | 2.5V | 08:09:00 | 00:00:00 | 00:00:00 | |
| AM1SDL-15 | 2026-09-04 18:50:02 | 50.55951 | 12.13647 | 94° | 141km/h | 13627m | -7.9m/s | -61.2°C | 18.7% | 159.7hPa | 2.5V | 00:00:00 | 02:31:06 | 00:00:00 | |
| DO3MHA-11 | 2026-09-04 18:50:01 | 50.55954 | 12.13591 | 94° | 139km/h | 13635m | -7.9m/s | -61.3°C | 18.6% | 159.5hPa | 2.5V | 00:00:00 | 02:31:05 | 00:00:00 | |
| DL1XH1-15 | 2026-09-04 18:49:59 | 50.55973 | 12.13205 | 94° | 137km/h | 13690m | -8.1m/s | -61.8°C | 17.3% | 158.1hPa | 2.5V | 08:09:14 | 02:30:58 | 00:00:00 | |
| DL1XH-west | 2026-09-04 18:49:59 | 50.55959 | 12.13479 | 94° | 141km/h | 13650m | -8m/s | -61.5°C | 15.1% | 159.1hPa | 2.5V | 08:09:45 | 02:31:03 | 00:00:00 | |
| DM0DOS-11 | 2026-09-04 18:49:58 | 50.55970 | 12.13259 | 94° | 137km/h | 13682m | -8.1m/s | -61.7°C | 17.6% | 158.3hPa | 2.6V | 08:09:13 | 02:30:59 | 00:00:00 | |
| HSKMA3-T | 2026-09-04 18:49:58 | 50.55962 | 12.13423 | 95° | 141km/h | 13658m | -8m/s | -61.5°C | 14.8% | 158.9hPa | 2.5V | 08:09:45 | 02:31:02 | 00:00:00 | |
| DF8AY | 2026-09-04 18:49:54 | 50.55973 | 12.13205 | 95° | 137km/h | 13690m | -8.1m/s | -61.8°C | 13.6% | 158.1hPa | 2.5V | 08:09:45 | 02:30:58 | 00:00:00 | |
| DB0NH | 2026-09-04 18:49:53 | 50.55975 | 12.13151 | 96° | 120km/h | 13698m | -8.3m/s | -61.8°C | 17.1% | 157.9hPa | 2.6V | 00:00:00 | 02:30:57 | 00:00:00 | |
| DO3MHA-11 | 2026-09-04 18:49:51 | 50.55981 | 12.13044 | 95° | 128km/h | 13715m | -8.1m/s | -61.9°C | 16.7% | 157.4hPa | 2.6V | 00:00:00 | 02:30:55 | 00:00:00 | |
| AM1SDL-15 | 2026-09-04 18:49:50 | 50.55984 | 12.12992 | 96° | 126km/h | 13723m | -7.9m/s | -61.9°C | 16.4% | 157.2hPa | 2.6V | 00:00:00 | 02:30:54 | 00:00:00 | |
| DL1XH1-15 | 2026-09-04 18:49:49 | 50.56007 | 12.12686 | 97° | 126km/h | 13772m | -8.3m/s | -61.6°C | 14.4% | 156hPa | 2.6V | 08:09:24 | 02:30:48 | 00:00:00 | |
| DL1XH-west | 2026-09-04 18:49:49 | 50.55987 | 12.12939 | 96° | 131km/h | 13731m | -8.1m/s | -61.9°C | 12% | 157.1hPa | 2.6V | 08:09:45 | 02:30:53 | 00:00:00 | |
| DM0DOS-11 | 2026-09-04 18:49:48 | 50.56003 | 12.12735 | 97° | 128km/h | 13764m | -8.1m/s | -61.6°C | 14.7% | 156.2hPa | 2.5V | 08:09:23 | 02:30:49 | 00:00:00 | |
| DF8AY | 2026-09-04 18:49:48 | 50.56011 | 12.12637 | 97° | 124km/h | 13781m | -8.2m/s | -61.6°C | 10.3% | 155.8hPa | 2.6V | 08:09:45 | 02:30:47 | 00:00:00 | |
| HSKMA3-T | 2026-09-04 18:49:48 | 50.55991 | 12.12888 | 97° | 131km/h | 13739m | -8.5m/s | -61.8°C | 11.7% | 156.9hPa | 2.5V | 08:09:45 | 02:30:52 | 00:00:00 | |
| OE5DRO-10 | 2026-09-04 18:49:47 | 50.55995 | 12.12836 | 98° | 119km/h | 13748m | -8.0m/s | -61.6°C | 15.2% | 156.6hPa | 2.5V | 00:00:00 | 00:00:00 | 00:00:00 | |
| DAC517 | 2026-09-04 18:49:43 | 50.56007 | 12.12686 | 98° | 126km/h | 13772m | -8.3m/s | 0°C | 0% | 0hPa | 2.5V | 00:00:00 | 00:00:00 | 00:00:00 | |
| DO8TBO-1 | 2026-09-04 18:49:42 | 50.56014 | 12.12588 | 97° | 113km/h | 13789m | -8.0m/s | -61.5°C | 13.7% | 155.6hPa | 2.5V | 00:00:00 | 02:30:46 | 00:00:00 | |
| DO3MHA-11 | 2026-09-04 18:49:41 | 50.56018 | 12.12540 | 98° | 119km/h | 13797m | -8.0m/s | -61.5°C | 13.4% | 155.4hPa | 2.5V | 00:00:00 | 02:30:45 | 00:00:00 | |
| HARRO8 | 2026-09-04 18:49:40 | 50.56022 | 12.12492 | 96° | 120km/h | 13805m | -7.8m/s | -61.4°C | 7.1% | 155.2hPa | 2.5V | 00:00:00 | 00:00:00 | 00:00:00 | |
| DL1XH1-15 | 2026-09-04 18:49:39 | 50.56043 | 12.12211 | 96° | 117km/h | 13854m | -8.2m/s | -61.3°C | 11.8% | 154hPa | 2.5V | 08:09:34 | 02:30:38 | 00:00:00 | |
| DM0DOS-11 | 2026-09-04 18:49:38 | 50.56040 | 12.12257 | 96° | 117km/h | 13845m | -8.3m/s | -61.4°C | 11.9% | 154.2hPa | 2.5V | 08:09:33 | 02:30:39 | 00:00:00 | |
| DL1XH-west | 2026-09-04 18:49:38 | 50.56029 | 12.12398 | 97° | 120km/h | 13821m | -8.1m/s | -61.4°C | 8.8% | 154.8hPa | 2.6V | 08:09:45 | 02:30:42 | 00:00:00 | |
| HSKMA3-T | 2026-09-04 18:49:37 | 50.56033 | 12.12351 | 97° | 119km/h | 13829m | -8.3m/s | -61.3°C | 8.5% | 154.6hPa | 2.6V | 08:09:45 | 02:30:41 | 00:00:00 | |
| DF8AY | 2026-09-04 18:49:33 | 50.56047 | 12.12166 | 97° | 115km/h | 13862m | -8.4m/s | -61.2°C | 7.8% | 153.8hPa | 2.5V | 08:09:45 | 02:30:37 | 00:00:00 | |
| DO3MHA-11 | 2026-09-04 18:49:31 | 50.56054 | 12.12076 | 98° | 111km/h | 13878m | -8.2m/s | -60.8°C | 10.8% | 153.3hPa | 2.5V | 00:00:00 | 02:30:35 | 00:00:00 | |
| DL1XH1-15 | 2026-09-04 18:49:29 | 50.56078 | 12.11765 | 95° | 111km/h | 13935m | -8.4m/s | -61°C | 10.5% | 151.9hPa | 2.5V | 08:09:44 | 02:30:28 | 00:00:00 | |
| DM0DOS-11 | 2026-09-04 18:49:28 | 50.56075 | 12.11809 | 96° | 111km/h | 13927m | -8.2m/s | -61°C | 10.5% | 152.1hPa | 2.6V | 08:09:43 | 02:30:29 | 00:00:00 | |
| DL1XH-west | 2026-09-04 18:49:28 | 50.56065 | 12.11942 | 97° | 113km/h | 13903m | -8.2m/s | -60.9°C | 7.1% | 152.7hPa | 2.5V | 08:09:45 | 02:30:32 | 00:00:00 | |
| HSKMA3-T | 2026-09-04 18:49:26 | 50.56072 | 12.11853 | 97° | 113km/h | 13919m | -8.3m/s | -61°C | 7% | 152.3hPa | 2.6V | 08:09:45 | 02:30:30 | 00:00:00 | |
| DF8AY | 2026-09-04 18:49:22 | 50.56083 | 12.11679 | 95° | 108km/h | 13952m | -8.4m/s | -61.1°C | 6.6% | 151.5hPa | 2.5V | 08:10:36 | 02:30:26 | 00:00:00 | |
| NBG1-10 | 2026-09-04 18:49:22 | 50.56083 | 12.11679 | 95° | 104km/h | 13953m | -8.3m/s | -61.1°C | 10.4% | 151.4hPa | 2.6V | 00:00:00 | 02:30:26 | 00:00:00 | |
| DO3MHA-11 | 2026-09-04 18:49:21 | 50.56085 | 12.11636 | 95° | 106km/h | 13961m | -8.3m/s | -61.1°C | 10.3% | 151.2hPa | 2.6V | 00:00:00 | 02:30:25 | 00:00:00 | |
| DL1XH1-15 | 2026-09-04 18:49:19 | 50.56099 | 12.11343 | 94° | 106km/h | 14021m | -8.7m/s | -61.3°C | 10% | 149.8hPa | 2.6V | 08:09:54 | 02:30:18 | 00:00:00 | |
| DM0DOS-11 | 2026-09-04 18:49:18 | 50.56097 | 12.11385 | 94° | 106km/h | 14012m | -8.5m/s | -61.3°C | 10.1% | 150.1hPa | 2.5V | 08:09:53 | 02:30:19 | 00:00:00 | |
| DL1XH-west | 2026-09-04 18:49:18 | 50.56092 | 12.11510 | 94° | 106km/h | 13986m | -8.7m/s | -61.2°C | 6.3% | 150.7hPa | 2.5V | 08:10:36 | 02:30:22 | 00:00:00 | |
| HSKMA3-T | 2026-09-04 18:49:16 | 50.56095 | 12.11427 | 94° | 106km/h | 14004m | -8.6m/s | -61.3°C | 6.1% | 150.3hPa | 2.5V | 08:10:36 | 02:30:20 | 00:00:00 | |
| DF8AY | 2026-09-04 18:49:12 | 50.56103 | 12.11259 | 94° | 106km/h | 14038m | -8.7m/s | -61.4°C | 5.8% | 149.4hPa | 2.5V | 08:10:36 | 02:30:16 | 00:00:00 | |
| DO8TBO-1 | 2026-09-04 18:49:12 | 50.56103 | 12.11258 | 94° | 104km/h | 14038m | -8.7m/s | -61.3°C | 10.0% | 149.4hPa | 2.5V | 00:00:00 | 02:30:16 | 00:00:00 | |
| DO3MHA-11 | 2026-09-04 18:49:11 | 50.56105 | 12.11216 | 94° | 104km/h | 14047m | -8.6m/s | -61.3°C | 10.0% | 149.2hPa | 2.5V | 00:00:00 | 02:30:15 | 00:00:00 | |
| HARRO8 | 2026-09-04 18:49:09 | 50.56109 | 12.11049 | 91° | 104km/h | 14081m | -8.5m/s | -61.2°C | 4.6% | 148.4hPa | 2.5V | 00:00:00 | 00:00:00 | 00:00:00 | |
| DM0DOS-11 | 2026-09-04 18:49:08 | 50.56112 | 12.10926 | 92° | 102km/h | 14106m | -8.5m/s | -61.3°C | 9.6% | 147.8hPa | 2.5V | 08:10:04 | 02:30:08 | 00:00:00 | |
| DL1XH-west | 2026-09-04 18:49:08 | 50.56109 | 12.11091 | 92° | 106km/h | 14072m | -8.5m/s | -61.2°C | 5.5% | 148.6hPa | 2.6V | 08:10:36 | 02:30:12 | 00:00:00 | |
| HSKMA3-T | 2026-09-04 18:49:06 | 50.56110 | 12.11008 | 92° | 104km/h | 14089m | -8.6m/s | -61.2°C | 5.5% | 148.2hPa | 2.5V | 08:10:36 | 02:30:10 | 00:00:00 | |
| DF8AY | 2026-09-04 18:49:02 | 50.56113 | 12.10845 | 92° | 102km/h | 14123m | -8.7m/s | -61.3°C | 5.1% | 147.4hPa | 2.6V | 08:10:36 | 02:30:06 | 00:00:00 | |
| DO3MHA-11 | 2026-09-04 18:49:01 | 50.56114 | 12.10804 | 92° | 102km/h | 14132m | -8.7m/s | -61.3°C | 9.5% | 147.1hPa | 2.5V | 00:00:00 | 02:30:05 | 00:00:00 | |
| DM0DOS-11 | 2026-09-04 18:48:58 | 50.56117 | 12.10520 | 92° | 104km/h | 14192m | -8.6m/s | -61.1°C | 9.3% | 145.8hPa | 2.5V | 08:10:14 | 02:29:58 | 00:00:00 | |
| DL1XH-west | 2026-09-04 18:48:57 | 50.56115 | 12.10643 | 91° | 102km/h | 14166m | -8.8m/s | -61.3°C | 4.9% | 146.4hPa | 2.5V | 08:10:36 | 02:30:01 | 00:00:00 | |
| HSKMA3-T | 2026-09-04 18:48:55 | 50.56116 | 12.10561 | 92° | 104km/h | 14183m | -8.7m/s | -61.2°C | 4.8% | 145.9hPa | 2.6V | 08:10:36 | 02:29:59 | 00:00:00 | |
| DF8AY | 2026-09-04 18:48:51 | 50.56120 | 12.10396 | 92° | 104km/h | 14217m | -8.6m/s | -60.8°C | 4.5% | 145.2hPa | 2.5V | 08:10:36 | 02:29:55 | 00:00:00 | |
| DO3MHA-11 | 2026-09-04 18:48:51 | 50.56120 | 12.10396 | 93° | 104km/h | 14218m | -8.6m/s | -60.7°C | 8.8% | 145.1hPa | 2.6V | 00:00:00 | 02:29:55 | 00:00:00 | |
| NBG1-10 | 2026-09-04 18:48:49 | 50.56121 | 12.10314 | 91° | 102km/h | 14235m | -8.6m/s | -60.6°C | 8.7% | 144.7hPa | 2.6V | 08:10:00 | 02:29:53 | 00:00:00 | |
| DL1JEZ-13 | 2026-09-04 18:48:48 | 50.56121 | 12.10314 | 92° | 104km/h | 14235m | -8.7m/s | -60.7°C | 3.9% | 144.8hPa | 2.6V | 00:00:00 | 00:00:00 | 00:00:00 | |
| DM0DOS-11 | 2026-09-04 18:48:47 | 50.56120 | 12.10109 | 87° | 102km/h | 14278m | -8.6m/s | -60.5°C | 8.6% | 143.8hPa | 2.6V | 08:10:24 | 02:29:48 | 00:00:00 | |
| DL1XH-west | 2026-09-04 18:48:46 | 50.56121 | 12.10191 | 89° | 102km/h | 14261m | -8.5m/s | -60.7°C | 4.4% | 144.2hPa | 2.5V | 08:10:36 | 02:29:50 | 00:00:00 | |
| HSKMA3-T | 2026-09-04 18:48:44 | 50.56120 | 12.10109 | 88° | 102km/h | 14278m | -8.6m/s | -60.6°C | 4.3% | 143.8hPa | 2.6V | 08:10:36 | 02:29:48 | 00:00:00 | |
| DF8AY | 2026-09-04 18:48:41 | 50.56116 | 12.09986 | 87° | 104km/h | 14303m | -8.6m/s | -60.1°C | 4.2% | 143.2hPa | 2.5V | 08:10:36 | 02:29:45 | 00:00:00 | |
| DK5PH-5 | 2026-09-04 18:48:41 | 50.56116 | 12.09986 | 87° | 102km/h | 14304m | -8.6m/s | -60.0°C | 8.2% | 143.1hPa | 2.5V | 00:00:00 | 02:29:45 | 00:00:00 | |
| DJ2DS-15 | 2026-09-04 18:48:40 | 50.56113 | 12.09904 | 86° | 102km/h | 14320m | -8.5m/s | -60.0°C | 3.7% | 142.8hPa | 2.5V | 00:00:00 | 00:00:00 | 00:00:00 | |
| HARRO8 | 2026-09-04 18:48:38 | 50.56112 | 12.09864 | 87° | 102km/h | 14329m | -8.4m/s | -60.0°C | 3.7% | 142.6hPa | 2.5V | 00:00:00 | 00:00:00 | 00:00:00 | |
| DM0DOS-11 | 2026-09-04 18:48:37 | 50.56109 | 12.09701 | 89° | 102km/h | 14363m | -8.5m/s | -59.8°C | 8% | 141.8hPa | 2.5V | 08:10:34 | 02:29:38 | 00:00:00 | |
| DL1XH-west | 2026-09-04 18:48:35 | 50.56109 | 12.09742 | 89° | 102km/h | 14354m | -8.5m/s | -59.9°C | 4% | 142hPa | 2.5V | 08:10:36 | 02:29:39 | 00:00:00 | |
| HSKMA3-T | 2026-09-04 18:48:33 | 50.56109 | 12.09661 | 91° | 102km/h | 14371m | -8.7m/s | -59.7°C | 4% | 141.6hPa | 2.6V | 08:10:36 | 02:29:37 | 00:00:00 | |
| DF8AY | 2026-09-04 18:48:31 | 50.56111 | 12.09539 | 92° | 102km/h | 14397m | -8.4m/s | -59.6°C | 4% | 141hPa | 2.5V | 08:11:27 | 02:29:34 | 00:00:00 | |
| DL1XH-west | 2026-09-04 18:48:24 | 50.56120 | 12.09298 | 93° | 100km/h | 14447m | -8.4m/s | -59.5°C | 3.8% | 139.9hPa | 2.5V | 08:11:27 | 02:29:28 | 00:00:00 | |
| HSKMA3-T | 2026-09-04 18:48:22 | 50.56122 | 12.09219 | 94° | 100km/h | 14464m | -8.4m/s | -59.6°C | 3.8% | 139.5hPa | 2.5V | 08:11:27 | 02:29:26 | 00:00:00 | |
| DF8AY | 2026-09-04 18:48:20 | 50.56126 | 12.09139 | 94° | 100km/h | 14480m | -8.1m/s | -59.7°C | 3.8% | 139.1hPa | 2.6V | 08:11:27 | 02:29:24 | 00:00:00 | |
| DL3JIN-12 | 2026-09-04 18:48:20 | 50.56124 | 12.09179 | 95° | 100km/h | 14472m | -8.4m/s | -59.6°C | 3.4% | 139.4hPa | 2.5V | 08:11:00 | 00:00:00 | 00:00:00 | |
| DB6KT-10 | 2026-09-04 18:48:19 | 50.56125 | 12.09139 | 95° | 100km/h | 14480m | -8.1m/s | 0°C | 0% | 0hPa | 2.5V | 00:00:00 | 00:00:00 | 00:00:00 | |
| DM0DOS-11 | 2026-09-04 18:48:16 | 50.56136 | 12.08860 | 92° | 100km/h | 14537m | -8.3m/s | -59.4°C | 7.4% | 137.9hPa | 2.5V | 08:10:55 | 02:29:17 | 00:00:00 | |
| DL1XH-west | 2026-09-04 18:48:13 | 50.56136 | 12.08860 | 92° | 100km/h | 14537m | -8.3m/s | -59.4°C | 3.6% | 137.9hPa | 2.5V | 08:11:27 | 02:29:17 | 00:00:00 | |
| HSKMA3-T | 2026-09-04 18:48:11 | 50.56139 | 12.08780 | 93° | 100km/h | 14554m | -8.4m/s | -59.4°C | 3.6% | 137.5hPa | 2.5V | 08:11:27 | 02:29:15 | 00:00:00 | |
| DF8AY | 2026-09-04 18:48:09 | 50.56140 | 12.08699 | 92° | 102km/h | 14570m | -8.3m/s | -59.6°C | 3.6% | 137.2hPa | 2.6V | 08:11:27 | 02:29:13 | 00:00:00 | |
| OE5DRO-10 | 2026-09-04 18:48:09 | 50.56140 | 12.08699 | 92° | 104km/h | 14570m | -8.3m/s | -59.5°C | 7.5% | 137.1hPa | 2.6V | 00:00:00 | 00:00:00 | 00:00:00 | |
| HARRO8 | 2026-09-04 18:48:07 | 50.56141 | 12.08619 | 89° | 100km/h | 14587m | -8.5m/s | -59.7°C | 3.2% | 136.8hPa | 2.6V | 00:00:00 | 00:00:00 | 00:00:00 | |
| DM0DOS-11 | 2026-09-04 18:48:06 | 50.56137 | 12.08457 | 88° | 102km/h | 14620m | -8.1m/s | -60°C | 7.7% | 136.1hPa | 2.6V | 08:11:05 | 02:29:07 | 00:00:00 | |
| DL1XH-west | 2026-09-04 18:48:03 | 50.56137 | 12.08457 | 88° | 102km/h | 14620m | -8.1m/s | -60.1°C | 3.6% | 136.1hPa | 2.6V | 08:11:27 | 02:29:07 | 00:00:00 | |
| HSKMA3-T | 2026-09-04 18:48:00 | 50.56136 | 12.08334 | 90° | 104km/h | 14645m | -8.5m/s | -60.2°C | 3.6% | 135.5hPa | 2.5V | 08:11:27 | 02:29:04 | 00:00:00 | |
| DF8AY | 2026-09-04 18:47:59 | 50.56136 | 12.08292 | 90° | 104km/h | 14654m | -8.6m/s | -60.3°C | 3.5% | 135.3hPa | 2.5V | 08:11:27 | 02:29:03 | 00:00:00 | |
| DL1XH-west | 2026-09-04 18:47:52 | 50.56140 | 12.08002 | 92° | 104km/h | 14712m | -8.4m/s | -60°C | 3.5% | 134.1hPa | 2.6V | 08:11:27 | 02:28:56 | 00:00:00 | |
| DF8AY | 2026-09-04 18:47:49 | 50.56142 | 12.07878 | 92° | 104km/h | 14737m | -8.3m/s | -59.8°C | 3.3% | 133.6hPa | 2.5V | 08:11:27 | 02:28:53 | 00:00:00 | |
| DL1XH-west | 2026-09-04 18:47:41 | 50.56151 | 12.07541 | 93° | 110km/h | 14803m | -8.2m/s | -59.5°C | 2.9% | 132.2hPa | 2.6V | 08:11:27 | 02:28:45 | 00:00:00 | |
| HSKMA3-T | 2026-09-04 18:47:40 | 50.56155 | 12.07454 | 94° | 111km/h | 14820m | -8.3m/s | -59.6°C | 2.9% | 131.8hPa | 2.5V | 08:12:18 | 02:28:43 | 00:00:00 | |
| DF8AY | 2026-09-04 18:47:38 | 50.56156 | 12.07410 | 93° | 111km/h | 14828m | -8.1m/s | -59.6°C | 3% | 131.7hPa | 2.5V | 08:12:18 | 02:28:42 | 00:00:00 | |
| DL1XH-west | 2026-09-04 18:47:30 | 50.56168 | 12.07063 | 93° | 108km/h | 14893m | -7.9m/s | -59.5°C | 2.6% | 130.3hPa | 2.5V | 08:12:18 | 02:28:34 | 00:00:00 | |
| HSKMA3-T | 2026-09-04 18:47:29 | 50.56170 | 12.07021 | 94° | 106km/h | 14901m | -8.1m/s | -59.4°C | 2.6% | 130.1hPa | 2.6V | 08:12:18 | 02:28:33 | 00:00:00 | |
| DF8AY | 2026-09-04 18:47:28 | 50.56172 | 12.06979 | 94° | 106km/h | 14909m | -8m/s | -59.3°C | 2.5% | 130hPa | 2.6V | 08:12:18 | 02:28:32 | 00:00:00 | |
| DJ2DS-15 | 2026-09-04 18:47:28 | 50.56174 | 12.06937 | 94° | 106km/h | 14917m | -7.8m/s | -59.2°C | 2.6% | 129.8hPa | 2.5V | 00:00:00 | 00:00:00 | 00:00:00 | |
| DF7PN | 2026-09-04 18:47:26 | 50.56176 | 12.06895 | 93° | 106km/h | 14925m | -7.9m/s | -59.2°C | 2.6% | 129.7hPa | 2.5V | 00:00:00 | 00:00:00 | 00:00:00 | |
| AM1SDL-15 | 2026-09-04 18:47:25 | 50.56177 | 12.06852 | 94° | 102km/h | 14933m | -7.7m/s | -59.1°C | 6.7% | 129.4hPa | 2.5V | 00:00:00 | 02:28:29 | 00:00:00 | |
| DF2AP-13 | 2026-09-04 18:47:24 | 50.56179 | 12.06810 | 94° | 95km/h | 14941m | -7.9m/s | -59.0°C | 6.7% | 129.2hPa | 2.5V | 00:00:00 | 02:28:28 | 00:00:00 | |
| DH8WE-5 | 2026-09-04 18:47:23 | 50.56179 | 12.06810 | 95° | 108km/h | 14941m | -7.9m/s | -59.0°C | 2.5% | 129.3hPa | 2.6V | 08:12:00 | 00:00:00 | 00:00:00 | |
| DB0NH | 2026-09-04 18:47:22 | 50.56183 | 12.06726 | 94° | 93km/h | 14957m | -8.0m/s | -59.0°C | 6.7% | 128.9hPa | 2.6V | 08:11:00 | 02:28:26 | 00:00:00 | |
| DO3MHA-11 | 2026-09-04 18:47:21 | 50.56184 | 12.06684 | 93° | 97km/h | 14964m | -7.6m/s | -59.0°C | 6.8% | 128.8hPa | 2.5V | 00:00:00 | 02:28:25 | 00:00:00 | |
| DL1XH1-15 | 2026-09-04 18:47:19 | 50.56190 | 12.06410 | 92° | 93km/h | 15020m | -8m/s | -59°C | 6.7% | 127.7hPa | 2.5V | 08:11:54 | 02:28:18 | 00:00:00 | |
| DL1XH-west | 2026-09-04 18:47:19 | 50.56187 | 12.06603 | 92° | 102km/h | 14980m | -7.8m/s | -59°C | 2.4% | 128.5hPa | 2.5V | 08:12:18 | 02:28:23 | 00:00:00 | |
| HSKMA3-T | 2026-09-04 18:47:18 | 50.56187 | 12.06563 | 91° | 100km/h | 14988m | -8m/s | -58.9°C | 2.4% | 128.3hPa | 2.6V | 08:12:18 | 02:28:22 | 00:00:00 | |
| DF8AY | 2026-09-04 18:47:17 | 50.56188 | 12.06524 | 91° | 99km/h | 14996m | -8.1m/s | -58.9°C | 2.3% | 128.2hPa | 2.6V | 08:12:18 | 02:28:21 | 00:00:00 | |
| AM1SDL-15 | 2026-09-04 18:47:13 | 50.56192 | 12.06373 | 94° | 91km/h | 15028m | -8.0m/s | -58.9°C | 6.6% | 127.4hPa | 2.5V | 00:00:00 | 02:28:17 | 00:00:00 | |
| DO3MHA-11 | 2026-09-04 18:47:11 | 50.56194 | 12.06300 | 94° | 91km/h | 15044m | -7.9m/s | -58.9°C | 6.6% | 127.1hPa | 2.6V | 08:11:00 | 02:28:15 | 00:00:00 | |
| NBG1-10 | 2026-09-04 18:47:10 | 50.56195 | 12.06264 | 93° | 89km/h | 15052m | -7.8m/s | -58.9°C | 6.6% | 127.0hPa | 2.5V | 00:00:00 | 02:28:14 | 00:00:00 | |
| DL1XH1-15 | 2026-09-04 18:47:09 | 50.56203 | 12.06050 | 92° | 89km/h | 15100m | -8.3m/s | -57.7°C | 6.1% | 126hPa | 2.5V | 08:12:04 | 02:28:08 | 00:00:00 | |
| DL1XH-west | 2026-09-04 18:47:09 | 50.56197 | 12.06228 | 93° | 91km/h | 15060m | -7.7m/s | -58.9°C | 2.2% | 126.8hPa | 2.5V | 08:12:18 | 02:28:13 | 00:00:00 | |
| HSKMA3-T | 2026-09-04 18:47:08 | 50.56198 | 12.06192 | 93° | 91km/h | 15067m | -7.9m/s | -58.8°C | 2.2% | 126.7hPa | 2.5V | 08:12:18 | 02:28:12 | 00:00:00 | |
| DF8AY | 2026-09-04 18:47:07 | 50.56199 | 12.06157 | 93° | 89km/h | 15075m | -8.1m/s | -58.7°C | 2.2% | 126.5hPa | 2.5V | 08:12:18 | 02:28:11 | 00:00:00 | |
| SONCRA | 2026-09-04 18:47:07 | 50.56199 | 12.06157 | 93° | 89km/h | 15075m | -8.1m/s | -58.7°C | 2.4% | 126.5hPa | 2.6V | 00:00:00 | 00:00:00 | 00:00:00 | |
| DJTTGO | 2026-09-04 18:47:04 | 50.56201 | 12.06085 | 94° | 89km/h | 15092m | -8.4m/s | -58.1°C | 2.3% | 126.2hPa | 2.6V | 00:00:00 | 00:00:00 | 00:00:00 | |
| DH8WE-5 | 2026-09-04 18:47:02 | 50.56203 | 12.06014 | 94° | 91km/h | 15108m | -8.3m/s | -57.5°C | 2.2% | 125.8hPa | 2.6V | 08:12:00 | 00:00:00 | 00:00:00 | |
| SONDE2-11 | 2026-09-04 18:47:01 | 50.56207 | 12.05904 | 92° | 93km/h | 15133m | -8.2m/s | -57.1°C | 2.1% | 125.4hPa | 2.6V | 00:00:00 | 00:00:00 | 00:00:00 | |
| DL1XH1-15 | 2026-09-04 18:46:59 | 50.56213 | 12.05680 | 94° | 91km/h | 15183m | -8.3m/s | -57.3°C | 5.7% | 124.4hPa | 2.6V | 08:12:14 | 02:27:58 | 00:00:00 | |
| DL1XH-west | 2026-09-04 18:46:58 | 50.56208 | 12.05829 | 92° | 95km/h | 15149m | -8.4m/s | -57.1°C | 1.7% | 125hPa | 2.5V | 08:12:18 | 02:28:02 | 00:00:00 | |
| DF8AY | 2026-09-04 18:46:57 | 50.56209 | 12.05791 | 92° | 95km/h | 15158m | -8.3m/s | -57.1°C | 1.7% | 124.9hPa | 2.5V | 08:12:18 | 02:28:01 | 00:00:00 | |
| DM0DOS-11 | 2026-09-04 18:46:55 | 50.56215 | 12.05644 | 93° | 89km/h | 15191m | -8.1m/s | -57.4°C | 5.7% | 124.2hPa | 2.5V | 08:12:15 | 02:27:57 | 00:00:00 | |
| DJ2DS-15 | 2026-09-04 18:46:52 | 50.56217 | 12.05574 | 93° | 88km/h | 15207m | -8.2m/s | -57.5°C | 2.0% | 123.9hPa | 2.5V | 00:00:00 | 00:00:00 | 00:00:00 | |
| DL6DJ-15 | 2026-09-04 18:46:50 | 50.56220 | 12.05504 | 92° | 86km/h | 15224m | -8.3m/s | -57.6°C | 2.1% | 123.6hPa | 2.5V | 00:00:00 | 00:00:00 | 00:00:00 | |
| DL1XH1-15 | 2026-09-04 18:46:49 | 50.56223 | 12.05332 | 92° | 88km/h | 15266m | -8.2m/s | -57.2°C | 5.7% | 122.8hPa | 2.5V | 08:12:24 | 02:27:48 | 00:00:00 | |
| DL1XH-west | 2026-09-04 18:46:48 | 50.56221 | 12.05470 | 92° | 88km/h | 15232m | -8.5m/s | -57.6°C | 1.7% | 123.4hPa | 2.6V | 08:13:09 | 02:27:52 | 00:00:00 | |
| HSKMA3-T | 2026-09-04 18:46:47 | 50.56221 | 12.05435 | 91° | 88km/h | 15241m | -8.5m/s | -57.5°C | 1.7% | 123.3hPa | 2.5V | 08:13:09 | 02:27:51 | 00:00:00 | |
| DF8AY | 2026-09-04 18:46:46 | 50.56222 | 12.05401 | 91° | 88km/h | 15249m | -8.4m/s | -57.4°C | 1.7% | 123.1hPa | 2.5V | 08:13:09 | 02:27:50 | 00:00:00 | |
| DM0DOS-11 | 2026-09-04 18:46:45 | 50.56224 | 12.05297 | 93° | 88km/h | 15275m | -8.3m/s | -57.2°C | 5.8% | 122.6hPa | 2.6V | 08:12:25 | 02:27:47 | 00:00:00 | |
| DF8AY | 2026-09-04 18:46:40 | 50.56236 | 12.05020 | 93° | 84km/h | 15343m | -8.4m/s | -57.2°C | 1.7% | 121.3hPa | 2.5V | 08:13:09 | 02:27:39 | 00:00:00 | |
| DL1XH1-15 | 2026-09-04 18:46:39 | 50.56237 | 12.04987 | 92° | 84km/h | 15351m | -8.3m/s | -57.2°C | 5.9% | 121.1hPa | 2.5V | 08:12:34 | 02:27:38 | 00:00:00 | |
| DL1XH-west | 2026-09-04 18:46:37 | 50.56234 | 12.05088 | 94° | 86km/h | 15326m | -8.3m/s | -57.2°C | 1.7% | 121.7hPa | 2.6V | 08:13:09 | 02:27:41 | 00:00:00 | |
| HSKMA3-T | 2026-09-04 18:46:36 | 50.56235 | 12.05054 | 93° | 86km/h | 15334m | -8.4m/s | -57.3°C | 1.7% | 121.5hPa | 2.6V | 08:13:09 | 02:27:40 | 00:00:00 | |
| DM0DOS-11 | 2026-09-04 18:46:35 | 50.56238 | 12.04954 | 92° | 84km/h | 15359m | -8.3m/s | -57.1°C | 5.8% | 121hPa | 2.5V | 08:12:35 | 02:27:37 | 00:00:00 | |
| HARRO8 | 2026-09-04 18:46:34 | 50.56238 | 12.04954 | 92° | 82km/h | 15359m | -8.3m/s | -57.1°C | 2.0% | 121.0hPa | 2.6V | 00:00:00 | 00:00:00 | 00:00:00 | |
| SP3BTT-10 | 2026-09-04 18:46:32 | 50.56239 | 12.04921 | 93° | 82km/h | 15368m | -8.5m/s | -57.0°C | 5.8% | 120.8hPa | 2.6V | 08:12:00 | 00:00:00 | 00:00:00 | |
| DO3MHA-11 | 2026-09-04 18:46:31 | 50.56240 | 12.04888 | 93° | 80km/h | 15377m | -8.7m/s | -57.0°C | 5.8% | 120.6hPa | 2.5V | 00:00:00 | 02:27:35 | 00:00:00 | |
| SONDE2-11 | 2026-09-04 18:46:30 | 50.56243 | 12.04822 | 94° | 82km/h | 15394m | -8.4m/s | -56.8°C | 2.0% | 120.3hPa | 2.5V | 00:00:00 | 00:00:00 | 00:00:00 | |
| DL1XH1-15 | 2026-09-04 18:46:29 | 50.56250 | 12.04663 | 93° | 77km/h | 15436m | -8.5m/s | -55.9°C | 5.3% | 119.5hPa | 2.5V | 08:12:44 | 02:27:28 | 00:00:00 | |
| DL1XH-west | 2026-09-04 18:46:27 | 50.56246 | 12.04757 | 94° | 80km/h | 15411m | -8.3m/s | -56.5°C | 1.5% | 120hPa | 2.5V | 08:13:09 | 02:27:31 | 00:00:00 | |
| HSKMA3-T | 2026-09-04 18:46:26 | 50.56247 | 12.04725 | 94° | 80km/h | 15419m | -8.4m/s | -56.3°C | 1.5% | 119.8hPa | 2.6V | 08:13:09 | 02:27:30 | 00:00:00 | |
| DM0DOS-11 | 2026-09-04 18:46:25 | 50.56251 | 12.04632 | 92° | 77km/h | 15445m | -8.6m/s | -55.5°C | 5% | 119.4hPa | 2.5V | 08:12:45 | 02:27:27 | 00:00:00 | |
| DF8AY | 2026-09-04 18:46:25 | 50.56249 | 12.04694 | 94° | 78km/h | 15427m | -8.4m/s | -56.2°C | 1.5% | 119.7hPa | 2.6V | 08:13:09 | 02:27:29 | 00:00:00 | |
| DF2AP-13 | 2026-09-04 18:46:24 | 50.56250 | 12.04662 | 94° | 77km/h | 15436m | -8.4m/s | -55.8°C | 5.3% | 119.5hPa | 2.6V | 00:00:00 | 02:27:28 | 00:00:00 | |
| DJTTGO | 2026-09-04 18:46:23 | 50.56250 | 12.04662 | 94° | 78km/h | 15436m | -8.5m/s | -55.9°C | 1.8% | 119.5hPa | 2.6V | 00:00:00 | 00:00:00 | 00:00:00 | |
| DB0NH | 2026-09-04 18:46:22 | 50.56252 | 12.04602 | 93° | 77km/h | 15453m | -8.4m/s | -55.4°C | 5.0% | 119.2hPa | 2.6V | 00:00:00 | 02:27:26 | 00:00:00 | |
| DH8WE-5 | 2026-09-04 18:46:21 | 50.56252 | 12.04602 | 94° | 77km/h | 15453m | -8.5m/s | -55.4°C | 1.7% | 119.2hPa | 2.6V | 08:13:00 | 00:00:00 | 00:00:00 | |
| DO3MHA-11 | 2026-09-04 18:46:20 | 50.56253 | 12.04542 | 92° | 77km/h | 15471m | -8.7m/s | -55.4°C | 5.0% | 118.8hPa | 2.6V | 00:00:00 | 02:27:24 | 00:00:00 | |
| DL1XH1-15 | 2026-09-04 18:46:19 | 50.56258 | 12.04362 | 91° | 77km/h | 15523m | -8.8m/s | -55.4°C | 5% | 117.9hPa | 2.6V | 08:12:54 | 02:27:18 | 00:00:00 | |
| DL1XH-west | 2026-09-04 18:46:16 | 50.56257 | 12.04422 | 93° | 75km/h | 15506m | -8.9m/s | -55.6°C | 1.4% | 118.2hPa | 2.5V | 08:13:09 | 02:27:20 | 00:00:00 | |
| HSKMA3-T | 2026-09-04 18:46:15 | 50.56258 | 12.04392 | 92° | 77km/h | 15515m | -8.7m/s | -55.6°C | 1.3% | 118.1hPa | 2.6V | 08:13:09 | 02:27:19 | 00:00:00 | |
| DM0DOS-11 | 2026-09-04 18:46:15 | 50.56259 | 12.04331 | 91° | 77km/h | 15532m | -8.7m/s | -55.3°C | 4.9% | 117.8hPa | 2.5V | 08:12:55 | 02:27:17 | 00:00:00 | |
| DF8AY | 2026-09-04 18:46:14 | 50.56259 | 12.04362 | 91° | 77km/h | 15523m | -8.8m/s | -55.4°C | 1.3% | 117.9hPa | 2.6V | 08:13:09 | 02:27:18 | 00:00:00 | |
| AM1SDL-15 | 2026-09-04 18:46:13 | 50.56259 | 12.04331 | 92° | 78km/h | 15532m | -8.6m/s | -55.3°C | 4.9% | 117.7hPa | 2.5V | 00:00:00 | 02:27:17 | 00:00:00 | |
| OE5DRO-10 | 2026-09-04 18:46:12 | 50.56260 | 12.04301 | 92° | 78km/h | 15541m | -8.8m/s | -55.3°C | 5.0% | 117.5hPa | 2.5V | 00:00:00 | 00:00:00 | 00:00:00 | |
| DK5PH-5 | 2026-09-04 18:46:11 | 50.56260 | 12.04270 | 91° | 80km/h | 15550m | -9.0m/s | -55.4°C | 5.0% | 117.3hPa | 2.5V | 00:00:00 | 02:27:15 | 00:00:00 | |
| DO3MHA-11 | 2026-09-04 18:46:10 | 50.56260 | 12.04239 | 90° | 78km/h | 15559m | -8.9m/s | -55.4°C | 5.0% | 117.2hPa | 2.5V | 00:00:00 | 02:27:14 | 00:00:00 | |
| DL1XH1-15 | 2026-09-04 18:46:09 | 50.56260 | 12.04054 | 90° | 77km/h | 15613m | -9m/s | -55.9°C | 5.2% | 116.3hPa | 2.5V | 08:13:04 | 02:27:08 | 00:00:00 | |
| DL1XH-west | 2026-09-04 18:46:06 | 50.56259 | 12.04115 | 89° | 77km/h | 15595m | -9m/s | -55.8°C | 1.4% | 116.6hPa | 2.5V | 08:13:09 | 02:27:10 | 00:00:00 | |
| DM0DOS-11 | 2026-09-04 18:46:05 | 50.56260 | 12.04023 | 90° | 77km/h | 15622m | -8.9m/s | -56°C | 5.3% | 116.1hPa | 2.6V | 08:13:05 | 02:27:07 | 00:00:00 | |
| HSKMA3-T | 2026-09-04 18:46:05 | 50.56259 | 12.04084 | 91° | 77km/h | 15604m | -9.1m/s | -55.9°C | 1.4% | 116.4hPa | 2.5V | 08:13:09 | 02:27:09 | 00:00:00 | |
| DF8AY | 2026-09-04 18:46:04 | 50.56260 | 12.04054 | 91° | 77km/h | 15613m | -9m/s | -55.9°C | 1.4% | 116.3hPa | 2.5V | 08:13:09 | 02:27:08 | 00:00:00 | |
| NBG1-10 | 2026-09-04 18:46:04 | 50.56260 | 12.04054 | 91° | 80km/h | 15613m | -9.0m/s | -55.9°C | 5.2% | 116.2hPa | 2.5V | 00:00:00 | 02:27:08 | 00:00:00 | |
| ANDY1245 | 2026-09-04 18:46:02 | 50.56260 | 12.04023 | 91° | 77km/h | 15622m | -8.9m/s | -56.0°C | 1.8% | 116.1hPa | 2.5V | 08:13:00 | 00:00:00 | 00:00:00 | |
| AM1SDL-15 | 2026-09-04 18:46:01 | 50.56260 | 12.03962 | 91° | 78km/h | 15641m | -8.9m/s | -56.1°C | 5.3% | 115.7hPa | 2.5V | 00:00:00 | 02:27:05 | 00:00:00 | |
| DO3MHA-11 | 2026-09-04 18:46:00 | 50.56260 | 12.03930 | 91° | 78km/h | 15649m | -8.9m/s | -56.1°C | 5.3% | 115.6hPa | 2.5V | 00:00:00 | 02:27:04 | 00:00:00 | |
| DL1XH1-15 | 2026-09-04 18:45:59 | 50.56263 | 12.03745 | 89° | 78km/h | 15704m | -8.8m/s | -56.2°C | 5.4% | 114.6hPa | 2.5V | 08:13:14 | 02:26:58 | 00:00:00 | |
| DL1XH-west | 2026-09-04 18:45:56 | 50.56262 | 12.03807 | 91° | 78km/h | 15685m | -9.3m/s | -56.2°C | 1.5% | 115hPa | 2.5V | 08:14:00 | 02:27:00 | 00:00:00 | |
| DM0DOS-11 | 2026-09-04 18:45:55 | 50.56263 | 12.03714 | 91° | 78km/h | 15712m | -9m/s | -56.2°C | 5.4% | 114.5hPa | 2.5V | 08:13:15 | 02:26:57 | 00:00:00 | |
| HSKMA3-T | 2026-09-04 18:45:55 | 50.56262 | 12.03776 | 91° | 77km/h | 15694m | -9.1m/s | -56.2°C | 1.5% | 114.8hPa | 2.5V | 08:14:00 | 02:26:59 | 00:00:00 | |
| DF8AY | 2026-09-04 18:45:53 | 50.56263 | 12.03714 | 91° | 78km/h | 15712m | -9m/s | -56.2°C | 1.5% | 114.5hPa | 2.5V | 08:14:00 | 02:26:57 | 00:00:00 | |
| DF7PN | 2026-09-04 18:45:53 | 50.56263 | 12.03682 | 91° | 78km/h | 15722m | -9.2m/s | -56.2°C | 1.8% | 114.3hPa | 2.5V | 00:00:00 | 00:00:00 | 00:00:00 | |
| DC4HF-4 | 2026-09-04 18:45:49 | 50.56266 | 12.03586 | 93° | 80km/h | 15749m | -8.9m/s | -56.2°C | 1.9% | 113.8hPa | 2.5V | 00:00:00 | 00:00:00 | 00:00:00 | |
| DL1XH1-15 | 2026-09-04 18:45:49 | 50.56276 | 12.03420 | 98° | 86km/h | 15795m | -9.4m/s | -55.7°C | 5.2% | 113hPa | 2.5V | 08:13:24 | 02:26:48 | 00:00:00 | |
| DM0DOS-11 | 2026-09-04 18:45:48 | 50.56279 | 12.03387 | 98° | 84km/h | 15804m | -9.4m/s | -55.7°C | 5.2% | 112.8hPa | 2.5V | 08:13:25 | 02:26:47 | 00:00:00 | |
| DL1XH-west | 2026-09-04 18:45:45 | 50.56273 | 12.03454 | 97° | 86km/h | 15785m | -9.4m/s | -55.7°C | 1.4% | 113.1hPa | 2.6V | 08:14:00 | 02:26:49 | 00:00:00 | |
| HSKMA3-T | 2026-09-04 18:45:44 | 50.56276 | 12.03420 | 98° | 86km/h | 15795m | -9.4m/s | -55.7°C | 1.4% | 113hPa | 2.5V | 08:14:00 | 02:26:48 | 00:00:00 | |
| DF8AY | 2026-09-04 18:45:43 | 50.56279 | 12.03387 | 98° | 84km/h | 15804m | -9.4m/s | -55.7°C | 1.4% | 112.8hPa | 2.5V | 08:14:00 | 02:26:47 | 00:00:00 | |
| DJTTGO | 2026-09-04 18:45:42 | 50.56279 | 12.03387 | 99° | 84km/h | 15804m | -9.4m/s | -55.7°C | 1.8% | 112.8hPa | 2.6V | 08:14:00 | 00:00:00 | 00:00:00 | |
| DJ2DS-15 | 2026-09-04 18:45:40 | 50.56289 | 12.03258 | 96° | 78km/h | 15842m | -9.3m/s | -55.9°C | 1.8% | 112.1hPa | 2.6V | 00:00:00 | 00:00:00 | 00:00:00 | |
| DL1XH1-15 | 2026-09-04 18:45:39 | 50.56299 | 12.03107 | 96° | 77km/h | 15890m | -9.3m/s | -56°C | 5.2% | 111.3hPa | 2.6V | 08:13:34 | 02:26:38 | 00:00:00 | |
| DL1XH-west | 2026-09-04 18:45:34 | 50.56299 | 12.03107 | 97° | 77km/h | 15890m | -9.3m/s | -56°C | 1.5% | 111.3hPa | 2.6V | 08:14:00 | 02:26:38 | 00:00:00 | |
| DM0DOS-11 | 2026-09-04 18:45:33 | 50.56301 | 12.03077 | 95° | 75km/h | 15899m | -9.3m/s | -56°C | 5.2% | 111.1hPa | 2.5V | 08:13:35 | 02:26:37 | 00:00:00 | |
| HSKMA3-T | 2026-09-04 18:45:33 | 50.56301 | 12.03077 | 96° | 75km/h | 15899m | -9.3m/s | -56°C | 1.4% | 111.1hPa | 2.5V | 08:14:00 | 02:26:37 | 00:00:00 | |
| DF8AY | 2026-09-04 18:45:32 | 50.56303 | 12.03047 | 96° | 75km/h | 15908m | -9.4m/s | -56°C | 1.5% | 111hPa | 2.5V | 08:14:00 | 02:26:36 | 00:00:00 | |
| HARRO8 | 2026-09-04 18:45:32 | 50.56305 | 12.03017 | 96° | 73km/h | 15918m | -9.5m/s | -56.0°C | 1.8% | 110.8hPa | 2.5V | 00:00:00 | 00:00:00 | 00:00:00 | |
| NBG1-10 | 2026-09-04 18:45:31 | 50.56305 | 12.03017 | 97° | 75km/h | 15918m | -9.5m/s | -55.9°C | 5.3% | 110.8hPa | 2.5V | 00:00:00 | 02:26:35 | 00:00:00 | |
| DL1XH1-15 | 2026-09-04 18:45:29 | 50.56314 | 12.02813 | 91° | 75km/h | 15984m | -9.7m/s | -55.7°C | 5.1% | 109.7hPa | 2.6V | 08:13:44 | 02:26:28 | 00:00:00 | |
| DM0DOS-11 | 2026-09-04 18:45:28 | 50.56315 | 12.02783 | 91° | 75km/h | 15993m | -9.5m/s | -55.8°C | 5.1% | 109.5hPa | 2.6V | 08:13:45 | 02:26:27 | 00:00:00 | |
| DL1XH-west | 2026-09-04 18:45:23 | 50.56315 | 12.02783 | 92° | 75km/h | 15993m | -9.5m/s | -55.8°C | 1.4% | 109.5hPa | 2.6V | 08:14:00 | 02:26:27 | 00:00:00 | |
| HSKMA3-T | 2026-09-04 18:45:22 | 50.56316 | 12.02753 | 92° | 75km/h | 16003m | -9.6m/s | -55.8°C | 1.4% | 109.3hPa | 2.5V | 08:14:00 | 02:26:26 | 00:00:00 | |
| DF8AY | 2026-09-04 18:45:21 | 50.56317 | 12.02723 | 93° | 77km/h | 16013m | -9.6m/s | -55.9°C | 1.4% | 109.2hPa | 2.5V | 08:14:00 | 02:26:25 | 00:00:00 | |
| DO3MHA-11 | 2026-09-04 18:45:20 | 50.56318 | 12.02693 | 94° | 75km/h | 16022m | -9.7m/s | -55.9°C | 5.1% | 109.0hPa | 2.5V | 00:00:00 | 02:26:24 | 00:00:00 | |
| DL1XH1-15 | 2026-09-04 18:45:19 | 50.56325 | 12.02515 | 93° | 73km/h | 16081m | -9.9m/s | -56.3°C | 5.2% | 108hPa | 2.5V | 08:13:54 | 02:26:18 | 00:00:00 | |
| DM0DOS-11 | 2026-09-04 18:45:18 | 50.56326 | 12.02486 | 93° | 73km/h | 16091m | -9.8m/s | -56.3°C | 5.2% | 107.8hPa | 2.5V | 08:13:55 | 02:26:17 | 00:00:00 | |
| DL1XH-west | 2026-09-04 18:45:13 | 50.56326 | 12.02486 | 94° | 73km/h | 16091m | -9.8m/s | -56.3°C | 1.4% | 107.8hPa | 2.5V | 08:14:00 | 02:26:17 | 00:00:00 | |
| HSKMA3-T | 2026-09-04 18:45:12 | 50.56328 | 12.02457 | 95° | 73km/h | 16100m | -9.9m/s | -56.3°C | 1.5% | 107.7hPa | 2.6V | 08:14:00 | 02:26:16 | 00:00:00 | |
| DF8AY | 2026-09-04 18:45:11 | 50.56330 | 12.02429 | 96° | 73km/h | 16111m | -9.8m/s | -56.3°C | 1.5% | 107.5hPa | 2.6V | 08:14:00 | 02:26:15 | 00:00:00 | |
| DK5PH-5 | 2026-09-04 18:45:11 | 50.56330 | 12.02429 | 96° | 77km/h | 16111m | -9.7m/s | -56.3°C | 5.3% | 107.4hPa | 2.6V | 00:00:00 | 02:26:15 | 00:00:00 | |
| DO8TBO-1 | 2026-09-04 18:45:10 | 50.56331 | 12.02400 | 97° | 77km/h | 16120m | -9.8m/s | -56.3°C | 5.3% | 107.3hPa | 2.5V | 00:00:00 | 02:26:14 | 00:00:00 | |
| DL1XH1-15 | 2026-09-04 18:45:09 | 50.56346 | 12.02221 | 95° | 78km/h | 16180m | -9.9m/s | -56.8°C | 5.3% | 106.3hPa | 2.5V | 08:14:04 | 02:26:08 | 00:00:00 | |
| AA1-15 | 2026-09-04 18:45:07 | 50.56339 | 12.02312 | 98° | 77km/h | 16150m | -10m/s | 0°C | 0% | 0hPa | 2.6V | 18:12:15 | 02:26:11 | 00:00:00 | |
| DM0DOS-11 | 2026-09-04 18:45:03 | 50.56348 | 12.02190 | 95° | 78km/h | 16190m | -10.1m/s | -56.8°C | 5.4% | 106.2hPa | 2.5V | 08:14:05 | 02:26:07 | 00:00:00 | |
| DL1XH-west | 2026-09-04 18:45:02 | 50.56350 | 12.02159 | 96° | 78km/h | 16200m | -10m/s | -56.9°C | 1.5% | 106hPa | 2.5V | 08:14:51 | 02:26:06 | 00:00:00 | |
| HSKMA3-T | 2026-09-04 18:45:01 | 50.56352 | 12.02128 | 96° | 78km/h | 16210m | -10.1m/s | -57°C | 1.5% | 105.8hPa | 2.6V | 08:14:51 | 02:26:05 | 00:00:00 | |
| DF8AY | 2026-09-04 18:45:00 | 50.56354 | 12.02097 | 97° | 78km/h | 16220m | -10.1m/s | -57°C | 1.5% | 105.7hPa | 2.6V | 08:14:51 | 02:26:04 | 00:00:00 | |
| DO3MHA-11 | 2026-09-04 18:45:00 | 50.56354 | 12.02097 | 97° | 80km/h | 16221m | -10.0m/s | -57.0°C | 5.4% | 105.6hPa | 2.5V | 00:00:00 | 02:26:04 | 00:00:00 | |
| DH8WE-5 | 2026-09-04 18:44:59 | 50.56355 | 12.02097 | 98° | 78km/h | 16221m | -10.1m/s | -57.0°C | 1.8% | 105.6hPa | 2.5V | 08:14:00 | 00:00:00 | 00:00:00 | |
| DM0DOS-11 | 2026-09-04 18:44:58 | 50.56379 | 12.01878 | 101° | 80km/h | 16291m | -10.1m/s | -57.1°C | 5.5% | 104.5hPa | 2.5V | 08:14:15 | 02:25:57 | 00:00:00 | |
| DL1XH-west | 2026-09-04 18:44:51 | 50.56388 | 12.01816 | 102° | 78km/h | 16310m | -10m/s | -57.2°C | 1.5% | 104.1hPa | 2.5V | 08:14:51 | 02:25:55 | 00:00:00 | |
| DF8AY | 2026-09-04 18:44:50 | 50.56392 | 12.01786 | 103° | 78km/h | 16321m | -10.3m/s | -57.1°C | 1.4% | 104hPa | 2.6V | 08:14:51 | 02:25:54 | 00:00:00 | |
| DL6DJ-15 | 2026-09-04 18:44:45 | 50.56414 | 12.01637 | 102° | 75km/h | 16372m | -10.3m/s | -57.0°C | 1.8% | 103.1hPa | 2.6V | 00:00:00 | 00:00:00 | 00:00:00 | |
| DM0DOS-11 | 2026-09-04 18:44:43 | 50.56421 | 12.01579 | 100° | 73km/h | 16392m | -10.3m/s | -56.9°C | 5.3% | 102.8hPa | 2.6V | 08:14:25 | 02:25:47 | 00:00:00 | |
| AA1-15 | 2026-09-04 18:44:40 | 50.56431 | 12.01495 | 99° | 69km/h | 16424m | -10.4m/s | 0°C | 0% | 0hPa | 2.5V | 18:12:15 | 02:25:44 | 00:00:00 | |
| DF8AY | 2026-09-04 18:44:39 | 50.56433 | 12.01468 | 99° | 68km/h | 16434m | -10.3m/s | -56.8°C | 1.2% | 102.1hPa | 2.6V | 08:14:51 | 02:25:43 | 00:00:00 | |
| DH8WE-5 | 2026-09-04 18:44:38 | 50.56433 | 12.01468 | 100° | 68km/h | 16434m | -10.3m/s | -56.8°C | 1.6% | 102.1hPa | 2.5V | 08:14:00 | 00:00:00 | 00:00:00 | |
| OE5DRO-10 | 2026-09-04 18:44:37 | 50.56439 | 12.01415 | 101° | 60km/h | 16455m | -10.2m/s | -56.7°C | 5.2% | 101.7hPa | 2.5V | 00:00:00 | 00:00:00 | 00:00:00 | |
| DO8TBO-1 | 2026-09-04 18:44:36 | 50.56442 | 12.01390 | 102° | 58km/h | 16465m | -10.4m/s | -56.8°C | 5.2% | 101.6hPa | 2.5V | 00:00:00 | 02:25:40 | 00:00:00 | |
| OE5DXL-15 | 2026-09-04 18:44:34 | 50.56449 | 12.01339 | 103° | 58km/h | 16486m | -10.2m/s | -56.9°C | 5.2% | 101.2hPa | 2.5V | 00:00:00 | 00:00:00 | 00:00:00 | |
| SONCRA | 2026-09-04 18:44:32 | 50.56462 | 12.01267 | 107° | 60km/h | 16517m | -10.3m/s | -56.8°C | 1.6% | 100.8hPa | 2.5V | 00:00:00 | 00:00:00 | 00:00:00 | |
| HARRO8 | 2026-09-04 18:44:30 | 50.56471 | 12.01221 | 109° | 60km/h | 16537m | -10.7m/s | -56.8°C | 1.6% | 100.5hPa | 2.5V | 00:00:00 | 00:00:00 | 00:00:00 | |
| DL1XH1-15 | 2026-09-04 18:44:29 | 50.56496 | 12.01109 | 109° | 58km/h | 16590m | -10.6m/s | -56.8°C | 5% | 99.7hPa | 2.5V | 08:14:44 | 02:25:28 | 00:00:00 | |
| HSKMA3-T | 2026-09-04 18:44:29 | 50.56471 | 12.01221 | 110° | 62km/h | 16537m | -10.7m/s | -56.8°C | 1.2% | 100.5hPa | 2.5V | 08:14:51 | 02:25:33 | 00:00:00 | |
| AA1-15 | 2026-09-04 18:44:25 | 50.56492 | 12.01131 | 109° | 58km/h | 16579m | -10.5m/s | 0°C | 0% | 0hPa | 2.5V | 18:12:15 | 02:25:29 | 00:00:00 | |
| DF8AY | 2026-09-04 18:44:19 | 50.56522 | 12.01003 | 111° | 57km/h | 16642m | -10.6m/s | -57.1°C | 1.1% | 98.8hPa | 2.5V | 08:14:51 | 02:25:23 | 00:00:00 | |
| DL1XH1-15 | 2026-09-04 18:44:19 | 50.56543 | 12.00896 | 103° | 57km/h | 16694m | -10.2m/s | -57.3°C | 5.2% | 98hPa | 2.5V | 08:14:54 | 02:25:18 | 00:00:00 | |
| DL1XH-west | 2026-09-04 18:44:18 | 50.56527 | 12.00982 | 110° | 57km/h | 16652m | -10.5m/s | -57.1°C | 1.1% | 98.7hPa | 2.5V | 08:14:51 | 02:25:22 | 00:00:00 | |
| DB0UT-7 | 2026-09-04 18:44:18 | 50.56527 | 12.00982 | 110° | 49km/h | 16653m | -10.4m/s | -57.1°C | 5.1% | 98.6hPa | 2.5V | 00:00:00 | 02:25:22 | 00:00:00 | |
| SP3BTT-10 | 2026-09-04 18:44:17 | 50.56531 | 12.00961 | 110° | 55km/h | 16663m | -10.5m/s | -57.1°C | 5.1% | 98.5hPa | 2.5V | 00:00:00 | 00:00:00 | 00:00:00 | |
| DL6DJ-15 | 2026-09-04 18:44:14 | 50.56543 | 12.00896 | 103° | 57km/h | 16694m | -10.2m/s | -57.3°C | 1.6% | 98.0hPa | 2.5V | 00:00:00 | 00:00:00 | 00:00:00 | |
| AM1SDL-15 | 2026-09-04 18:44:13 | 50.56546 | 12.00874 | 103° | 58km/h | 16704m | -10.1m/s | -57.3°C | 5.2% | 97.8hPa | 2.5V | 00:00:00 | 02:25:17 | 00:00:00 | |
| DK5PH-5 | 2026-09-04 18:44:11 | 50.56552 | 12.00829 | 100° | 60km/h | 16725m | -10.1m/s | -57.4°C | 5.2% | 97.5hPa | 2.6V | 00:00:00 | 02:25:15 | 00:00:00 | |
| DO3MHA-11 | 2026-09-04 18:44:10 | 50.56554 | 12.00807 | 99° | 60km/h | 16735m | -10.2m/s | -57.5°C | 5.2% | 97.3hPa | 2.6V | 08:14:00 | 02:25:14 | 00:00:00 | |
| DL1XH1-15 | 2026-09-04 18:44:09 | 50.56565 | 12.00669 | 94° | 60km/h | 16796m | -10.1m/s | -57.8°C | 5.4% | 96.5hPa | 2.6V | 08:15:04 | 02:25:08 | 00:00:00 | |
| DF8AY | 2026-09-04 18:44:08 | 50.56558 | 12.00762 | 98° | 58km/h | 16755m | -10.1m/s | -57.7°C | 1.1% | 97.1hPa | 2.5V | 08:15:42 | 02:25:12 | 00:00:00 | |
| DJ2DS-15 | 2026-09-04 18:44:08 | 50.56558 | 12.00762 | 98° | 62km/h | 16755m | -10.0m/s | -57.6°C | 5.3% | 97.0hPa | 2.5V | 00:00:00 | 02:25:12 | 00:00:00 | |
| DM0DOS-11 | 2026-09-04 18:44:07 | 50.56568 | 12.00620 | 93° | 64km/h | 16817m | -10.6m/s | -57.9°C | 5.4% | 96.1hPa | 2.5V | 08:15:06 | 02:25:06 | 00:00:00 | |
| DL1XH-west | 2026-09-04 18:44:07 | 50.56560 | 12.00740 | 98° | 58km/h | 16765m | -10.2m/s | -57.7°C | 1.1% | 96.9hPa | 2.5V | 08:15:42 | 02:25:11 | 00:00:00 | |
| DO8TBO-1 | 2026-09-04 18:44:06 | 50.56562 | 12.00717 | 98° | 60km/h | 16776m | -10.2m/s | -57.7°C | 5.4% | 96.7hPa | 2.5V | 00:00:00 | 02:25:10 | 00:00:00 | |
| DB0ND-19 | 2026-09-04 18:44:05 | 50.56564 | 12.00693 | 96° | 58km/h | 16786m | -10.4m/s | -57.8°C | 1.6% | 96.6hPa | 2.6V | 00:00:00 | 00:00:00 | 00:00:00 | |
| OE5DXL-15 | 2026-09-04 18:44:04 | 50.56565 | 12.00669 | 95° | 60km/h | 16796m | -10.1m/s | -57.7°C | 5.4% | 96.4hPa | 2.6V | 00:00:00 | 00:00:00 | 00:00:00 | |
| ANDY1245 | 2026-09-04 18:44:02 | 50.56567 | 12.00645 | 95° | 62km/h | 16806m | -10.3m/s | -57.8°C | 1.6% | 96.3hPa | 2.6V | 08:15:00 | 00:00:00 | 00:00:00 | |
| DC4HF-4 | 2026-09-04 18:44:01 | 50.56569 | 12.00595 | 93° | 64km/h | 16827m | -10.4m/s | -57.9°C | 1.6% | 96.0hPa | 2.6V | 00:00:00 | 00:00:00 | 00:00:00 | |
| DO3MHA-11 | 2026-09-04 18:44:00 | 50.56569 | 12.00569 | 94° | 64km/h | 16838m | -10.4m/s | -57.8°C | 5.5% | 95.8hPa | 2.6V | 00:00:00 | 02:25:04 | 00:00:00 | |
| DL1XH1-15 | 2026-09-04 18:43:59 | 50.56579 | 12.00418 | 98° | 62km/h | 16901m | -10.6m/s | -57.9°C | 5.5% | 94.8hPa | 2.6V | 08:15:14 | 02:24:58 | 00:00:00 | |
| HARRO8 | 2026-09-04 18:43:59 | 50.56572 | 12.00518 | 94° | 64km/h | 16859m | -10.4m/s | -57.7°C | 1.5% | 95.5hPa | 2.5V | 00:00:00 | 00:00:00 | 00:00:00 | |
| DJTTGO | 2026-09-04 18:43:58 | 50.56571 | 12.00544 | 95° | 66km/h | 16848m | -10.6m/s | -57.8°C | 1.6% | 95.7hPa | 2.5V | 00:00:00 | 00:00:00 | 00:00:00 | |
| DM0DOS-11 | 2026-09-04 18:43:57 | 50.56584 | 12.00370 | 99° | 62km/h | 16922m | -10.6m/s | -57.9°C | 5.5% | 94.5hPa | 2.5V | 08:15:16 | 02:24:56 | 00:00:00 | |
| HSKMA3-T | 2026-09-04 18:43:57 | 50.56573 | 12.00493 | 95° | 64km/h | 16869m | -10.7m/s | -57.7°C | 1.1% | 95.4hPa | 2.5V | 08:15:42 | 02:25:01 | 00:00:00 | |
| DL1XH-west | 2026-09-04 18:43:56 | 50.56575 | 12.00467 | 97° | 64km/h | 16880m | -10.7m/s | -57.8°C | 1% | 95.2hPa | 2.5V | 08:15:42 | 02:25:00 | 00:00:00 | |
| SONDE2-11 | 2026-09-04 18:43:54 | 50.56579 | 12.00418 | 98° | 62km/h | 16901m | -10.6m/s | -57.9°C | 1.6% | 94.8hPa | 2.5V | 00:00:00 | 00:00:00 | 00:00:00 | |
| EDDB2-11 | 2026-09-04 18:43:53 | 50.56582 | 12.00394 | 99° | 60km/h | 16912m | -10.8m/s | -57.9°C | 1.5% | 94.7hPa | 2.5V | 00:00:00 | 00:00:00 | 00:00:00 | |
| DJ2DS-15 | 2026-09-04 18:43:52 | 50.56587 | 12.00346 | 99° | 60km/h | 16933m | -10.4m/s | -57.7°C | 1.5% | 94.4hPa | 2.5V | 00:00:00 | 00:00:00 | 00:00:00 | |
| DO3MHA-11 | 2026-09-04 18:43:50 | 50.56589 | 12.00322 | 101° | 58km/h | 16944m | -10.6m/s | -57.6°C | 5.3% | 94.2hPa | 2.5V | 00:00:00 | 02:24:54 | 00:00:00 | |
| DL1XH1-15 | 2026-09-04 18:43:49 | 50.56606 | 12.00186 | 98° | 57km/h | 17007m | -10.5m/s | -57.4°C | 5.3% | 93.3hPa | 2.5V | 08:15:24 | 02:24:48 | 00:00:00 | |
| DF7PN | 2026-09-04 18:43:49 | 50.56595 | 12.00276 | 101° | 58km/h | 16965m | -10.6m/s | -57.6°C | 1.5% | 93.9hPa | 2.6V | 00:00:00 | 00:00:00 | 00:00:00 | |
| DJ2DS-15 | 2026-09-04 18:43:48 | 50.56595 | 12.00276 | 102° | 55km/h | 16965m | -10.5m/s | -57.5°C | 5.3% | 93.9hPa | 2.6V | 00:00:00 | 02:24:52 | 00:00:00 | |
| DM0DOS-11 | 2026-09-04 18:43:47 | 50.56610 | 12.00142 | 96° | 57km/h | 17028m | -10.3m/s | -57.3°C | 5.3% | 93hPa | 2.6V | 08:15:26 | 02:24:46 | 00:00:00 | |
| DL1XH-west | 2026-09-04 18:43:46 | 50.56601 | 12.00231 | 101° | 57km/h | 16986m | -10.5m/s | -57.5°C | 1% | 93.6hPa | 2.5V | 08:15:42 | 02:24:50 | 00:00:00 | |
| 13BRC | 2026-09-04 18:43:45 | 50.56601 | 12.00231 | 102° | 57km/h | 16986m | -10.5m/s | -57.5°C | 1.5% | 93.6hPa | 2.5V | 08:15:00 | 00:00:00 | 00:00:00 | |
| DL6DJ-15 | 2026-09-04 18:43:43 | 50.56608 | 12.00164 | 97° | 57km/h | 17018m | -10.3m/s | -57.4°C | 1.5% | 93.2hPa | 2.5V | 00:00:00 | 00:00:00 | 00:00:00 | |
| DK5PH-5 | 2026-09-04 18:43:41 | 50.56611 | 12.00119 | 96° | 49km/h | 17038m | -10.1m/s | -57.0°C | 5.2% | 92.8hPa | 2.5V | 00:00:00 | 02:24:45 | 00:00:00 | |
| DO3MHA-11 | 2026-09-04 18:43:40 | 50.56612 | 12.00097 | 93° | 55km/h | 17048m | -10.0m/s | -56.6°C | 4.9% | 92.6hPa | 2.5V | 00:00:00 | 02:24:44 | 00:00:00 | |
| DL1XH1-15 | 2026-09-04 18:43:39 | 50.56613 | 11.99965 | 91° | 53km/h | 17109m | -10.1m/s | -56.7°C | 5.1% | 91.8hPa | 2.5V | 08:15:34 | 02:24:38 | 00:00:00 | |
| DM0DOS-11 | 2026-09-04 18:43:37 | 50.56614 | 11.99923 | 93° | 53km/h | 17129m | -10m/s | -56.6°C | 5% | 91.5hPa | 2.6V | 08:15:36 | 02:24:36 | 00:00:00 | |
| HSKMA3-T | 2026-09-04 18:43:36 | 50.56613 | 12.00008 | 91° | 55km/h | 17089m | -10.3m/s | -56.7°C | 0.9% | 92.1hPa | 2.5V | 08:15:42 | 02:24:40 | 00:00:00 | |
| DL1XH-west | 2026-09-04 18:43:35 | 50.56613 | 11.99987 | 91° | 55km/h | 17099m | -10.2m/s | -56.7°C | 0.9% | 91.9hPa | 2.5V | 08:15:42 | 02:24:39 | 00:00:00 | |
| DO8TBO-1 | 2026-09-04 18:43:35 | 50.56613 | 11.99986 | 91° | 47km/h | 17100m | -10.1m/s | -56.7°C | 5.1% | 91.9hPa | 2.5V | 00:00:00 | 02:24:39 | 00:00:00 | |
| OE5DXL-15 | 2026-09-04 18:43:34 | 50.56613 | 11.99965 | 92° | 47km/h | 17110m | -10.1m/s | -56.7°C | 5.1% | 91.7hPa | 2.5V | 00:00:00 | 00:00:00 | 00:00:00 | |
| DL3JIN-12 | 2026-09-04 18:43:32 | 50.56614 | 11.99944 | 94° | 53km/h | 17120m | -10.2m/s | -56.7°C | 1.5% | 91.6hPa | 2.5V | 08:15:00 | 00:00:00 | 00:00:00 | |
| SONCRA | 2026-09-04 18:43:30 | 50.56617 | 11.99863 | 92° | 47km/h | 17160m | -9.9m/s | -56.7°C | 1.4% | 91.1hPa | 2.5V | 00:00:00 | 00:00:00 | 00:00:00 | |
| DL1XH1-15 | 2026-09-04 18:43:29 | 50.56617 | 11.99772 | 88° | 44km/h | 17209m | -9.8m/s | -56.3°C | 5% | 90.3hPa | 2.5V | 08:15:44 | 02:24:28 | 00:00:00 | |
| DJ2DS-15 | 2026-09-04 18:43:28 | 50.56617 | 11.99844 | 93° | 46km/h | 17170m | -9.7m/s | -56.6°C | 5.1% | 90.9hPa | 2.5V | 08:15:00 | 02:24:32 | 00:00:00 | |
| DM0DOS-11 | 2026-09-04 18:43:27 | 50.56616 | 11.99738 | 86° | 42km/h | 17229m | -10.1m/s | -56.3°C | 5% | 90.1hPa | 2.5V | 08:15:46 | 02:24:26 | 00:00:00 | |
| HSKMA3-T | 2026-09-04 18:43:25 | 50.56618 | 11.99790 | 88° | 44km/h | 17199m | -9.9m/s | -56.3°C | 0.8% | 90.5hPa | 2.5V | 08:16:33 | 02:24:29 | 00:00:00 | |
| DL1XH-west | 2026-09-04 18:43:24 | 50.56617 | 11.99772 | 88° | 44km/h | 17209m | -9.8m/s | -56.3°C | 0.9% | 90.4hPa | 2.5V | 08:16:33 | 02:24:28 | 00:00:00 | |
| SONDE2-11 | 2026-09-04 18:43:23 | 50.56617 | 11.99755 | 87° | 42km/h | 17219m | -10.0m/s | -56.3°C | 1.4% | 90.2hPa | 2.5V | 00:00:00 | 00:00:00 | 00:00:00 | |
| DB0NH | 2026-09-04 18:43:22 | 50.56616 | 11.99738 | 87° | 47km/h | 17229m | -10.0m/s | -56.3°C | 5.0% | 90.0hPa | 2.5V | 00:00:00 | 02:24:26 | 00:00:00 | |
| OE5DRO-10 | 2026-09-04 18:43:21 | 50.56615 | 11.99721 | 85° | 47km/h | 17239m | -10.0m/s | -56.2°C | 5.0% | 89.9hPa | 2.5V | 00:00:00 | 00:00:00 | 00:00:00 | |
| DO3MHA-11 | 2026-09-04 18:43:20 | 50.56614 | 11.99704 | 80° | 46km/h | 17249m | -9.5m/s | -56.1°C | 5.1% | 89.8hPa | 2.5V | 00:00:00 | 02:24:24 | 00:00:00 | |
| DL1XH1-15 | 2026-09-04 18:43:19 | 50.56598 | 11.99602 | 69° | 47km/h | 17307m | -9.8m/s | -55.3°C | 4.6% | 89hPa | 2.5V | 08:15:54 | 02:24:18 | 00:00:00 | |
| NBG1-10 | 2026-09-04 18:43:19 | 50.56612 | 11.99688 | 79° | 47km/h | 17259m | -9.6m/s | -55.8°C | 4.9% | 89.6hPa | 2.5V | 00:00:00 | 02:24:23 | 00:00:00 | |
| DF7PN | 2026-09-04 18:43:18 | 50.56604 | 11.99637 | 74° | 44km/h | 17288m | -9.7m/s | -55.4°C | 1.3% | 89.2hPa | 2.5V | 00:00:00 | 00:00:00 | 00:00:00 | |
| DM0DOS-11 | 2026-09-04 18:43:17 | 50.56588 | 11.99567 | 65° | 47km/h | 17327m | -9.6m/s | -55.3°C | 4.6% | 88.7hPa | 2.5V | 08:15:56 | 02:24:16 | 00:00:00 | |
| HSKMA3-T | 2026-09-04 18:43:14 | 50.56597 | 11.99602 | 69° | 47km/h | 17307m | -9.9m/s | -55.3°C | 0.7% | 89hPa | 2.5V | 08:16:33 | 02:24:18 | 00:00:00 | |
| DL1XH-west | 2026-09-04 18:43:13 | 50.56593 | 11.99584 | 68° | 47km/h | 17317m | -9.6m/s | -55.3°C | 0.7% | 88.8hPa | 2.5V | 08:16:33 | 02:24:17 | 00:00:00 | |
| DL6DJ-15 | 2026-09-04 18:43:12 | 50.56588 | 11.99567 | 65° | 47km/h | 17327m | -9.6m/s | -55.3°C | 1.3% | 88.7hPa | 2.6V | 00:00:00 | 00:00:00 | 00:00:00 | |
| DK5PH-5 | 2026-09-04 18:43:11 | 50.56583 | 11.99549 | 67° | 49km/h | 17336m | -9.7m/s | -55.1°C | 4.5% | 88.5hPa | 2.6V | 00:00:00 | 02:24:15 | 00:00:00 | |
| DO3MHA-11 | 2026-09-04 18:43:10 | 50.56578 | 11.99532 | 66° | 49km/h | 17346m | -9.5m/s | -55.1°C | 4.5% | 88.4hPa | 2.6V | 00:00:00 | 02:24:14 | 00:00:00 | |
| DL1XH1-15 | 2026-09-04 18:43:09 | 50.56545 | 11.99427 | 61° | 49km/h | 17405m | -10.3m/s | -54.9°C | 4.4% | 87.6hPa | 2.6V | 08:16:04 | 02:24:08 | 00:00:00 | |
| DJ2DS-15 | 2026-09-04 18:43:08 | 50.56568 | 11.99497 | 64° | 49km/h | 17366m | -9.7m/s | -54.8°C | 4.4% | 88.1hPa | 2.5V | 00:00:00 | 02:24:12 | 00:00:00 | |
| DM0DOS-11 | 2026-09-04 18:43:07 | 50.56533 | 11.99393 | 62° | 47km/h | 17426m | -10.2m/s | -54.8°C | 4.3% | 87.3hPa | 2.5V | 08:16:06 | 02:24:06 | 00:00:00 | |
| DL1XH-west | 2026-09-04 18:43:03 | 50.56539 | 11.99410 | 62° | 49km/h | 17416m | -10.2m/s | -54.9°C | 0.6% | 87.5hPa | 2.5V | 08:16:33 | 02:24:07 | 00:00:00 | |
| DB0ND-19 | 2026-09-04 18:43:03 | 50.56539 | 11.99410 | 61° | 47km/h | 17416m | -10.2m/s | -54.9°C | 1.2% | 87.5hPa | 2.6V | 00:00:00 | 00:00:00 | 00:00:00 | |
| OE5DRO-10 | 2026-09-04 18:43:02 | 50.56533 | 11.99393 | 63° | 49km/h | 17426m | -10.2m/s | -54.8°C | 4.3% | 87.3hPa | 2.6V | 00:00:00 | 00:00:00 | 00:00:00 | |
| DO3MHA-11 | 2026-09-04 18:43:00 | 50.56522 | 11.99359 | 63° | 47km/h | 17446m | -9.9m/s | -54.8°C | 4.3% | 87.0hPa | 2.6V | 00:00:00 | 02:24:04 | 00:00:00 | |
| DL1XH1-15 | 2026-09-04 18:42:59 | 50.56489 | 11.99259 | 62° | 47km/h | 17508m | -10.4m/s | -55.4°C | 4.4% | 86.2hPa | 2.6V | 08:16:14 | 02:23:58 | 00:00:00 | |
| SONCRA | 2026-09-04 18:42:58 | 50.56511 | 11.99326 | 62° | 46km/h | 17467m | -10.1m/s | -55.0°C | 1.2% | 86.8hPa | 2.5V | 00:00:00 | 00:00:00 | 00:00:00 | |
| DM0DOS-11 | 2026-09-04 18:42:57 | 50.56478 | 11.99225 | 62° | 49km/h | 17529m | -10.2m/s | -55.5°C | 4.5% | 86hPa | 2.5V | 08:16:16 | 02:23:56 | 00:00:00 | |
| DL1XH-west | 2026-09-04 18:42:53 | 50.56484 | 11.99242 | 63° | 47km/h | 17519m | -10.3m/s | -55.4°C | 0.6% | 86.1hPa | 2.6V | 08:16:33 | 02:23:57 | 00:00:00 | |
| SONDE2-11 | 2026-09-04 18:42:52 | 50.56478 | 11.99225 | 62° | 47km/h | 17529m | -10.2m/s | -55.5°C | 1.3% | 86.0hPa | 2.5V | 00:00:00 | 00:00:00 | 00:00:00 | |
| EDDB2-11 | 2026-09-04 18:42:51 | 50.56473 | 11.99207 | 63° | 49km/h | 17539m | -10.2m/s | -55.6°C | 1.2% | 85.8hPa | 2.5V | 00:00:00 | 00:00:00 | 00:00:00 | |
| DO3MHA-11 | 2026-09-04 18:42:50 | 50.56467 | 11.99190 | 65° | 53km/h | 17549m | -10.1m/s | -55.7°C | 4.5% | 85.6hPa | 2.5V | 00:00:00 | 02:23:54 | 00:00:00 | |
| DL1XH1-15 | 2026-09-04 18:42:49 | 50.56435 | 11.99076 | 68° | 53km/h | 17610m | -10m/s | -56.3°C | 4.8% | 84.9hPa | 2.5V | 08:16:24 | 02:23:48 | 00:00:00 | |
| DC4HF-4 | 2026-09-04 18:42:49 | 50.56461 | 11.99172 | 64° | 51km/h | 17560m | -9.8m/s | -55.8°C | 1.2% | 85.5hPa | 2.6V | 00:00:00 | 00:00:00 | 00:00:00 | |
| DJ2DS-15 | 2026-09-04 18:42:48 | 50.56456 | 11.99153 | 66° | 57km/h | 17570m | -10.0m/s | -55.9°C | 4.6% | 85.4hPa | 2.6V | 00:00:00 | 02:23:52 | 00:00:00 | |
| DM0DOS-11 | 2026-09-04 18:42:47 | 50.56425 | 11.99036 | 68° | 55km/h | 17630m | -10.2m/s | -56.5°C | 4.9% | 84.6hPa | 2.6V | 08:16:26 | 02:23:46 | 00:00:00 | |
| DF7PN | 2026-09-04 18:42:46 | 50.56445 | 11.99115 | 66° | 53km/h | 17589m | -10.3m/s | -56.1°C | 1.3% | 85.2hPa | 2.6V | 00:00:00 | 00:00:00 | 00:00:00 | |
| DF8AY | 2026-09-04 18:42:44 | 50.56430 | 11.99056 | 68° | 55km/h | 17620m | -10m/s | -56.4°C | 0.7% | 84.7hPa | 2.6V | 08:16:33 | 02:23:47 | 00:00:00 | |
| DL1XH-west | 2026-09-04 18:42:42 | 50.56425 | 11.99036 | 69° | 55km/h | 17630m | -10.2m/s | -56.5°C | 0.8% | 84.6hPa | 2.6V | 08:16:33 | 02:23:46 | 00:00:00 | |
| DK5PH-5 | 2026-09-04 18:42:41 | 50.56420 | 11.99016 | 70° | 57km/h | 17640m | -9.9m/s | -56.5°C | 4.9% | 84.4hPa | 2.5V | 00:00:00 | 02:23:45 | 00:00:00 | |
| DO3MHA-11 | 2026-09-04 18:42:40 | 50.56415 | 11.98996 | 71° | 58km/h | 17650m | -10.2m/s | -56.5°C | 4.9% | 84.3hPa | 2.5V | 08:16:00 | 02:23:44 | 00:00:00 | |
| DL1XH1-15 | 2026-09-04 18:42:39 | 50.56391 | 11.98864 | 77° | 60km/h | 17712m | -10m/s | -56.5°C | 4.8% | 83.5hPa | 2.5V | 08:16:34 | 02:23:38 | 00:00:00 | |
| ANDY1245 | 2026-09-04 18:42:39 | 50.56411 | 11.98975 | 72° | 57km/h | 17660m | -10.0m/s | -56.5°C | 1.4% | 84.2hPa | 2.6V | 00:00:00 | 00:00:00 | 00:00:00 | |
| DM0DOS-11 | 2026-09-04 18:42:37 | 50.56385 | 11.98817 | 81° | 60km/h | 17732m | -10.1m/s | -56.7°C | 4.9% | 83.3hPa | 2.6V | 08:16:36 | 02:23:36 | 00:00:00 | |
| DL1XH-west | 2026-09-04 18:42:32 | 50.56386 | 11.98817 | 81° | 60km/h | 17732m | -10.1m/s | -56.7°C | 0.7% | 83.3hPa | 2.6V | 08:17:24 | 02:23:36 | 00:00:00 | |
| DO3MHA-11 | 2026-09-04 18:42:30 | 50.56382 | 11.98770 | 84° | 57km/h | 17752m | -10.0m/s | -56.7°C | 4.9% | 82.9hPa | 2.5V | 00:00:00 | 02:23:34 | 00:00:00 | |
| DL1XH1-15 | 2026-09-04 18:42:29 | 50.56377 | 11.98633 | 89° | 57km/h | 17814m | -10.1m/s | -56.4°C | 4.7% | 82.2hPa | 2.5V | 08:16:44 | 02:23:28 | 00:00:00 | |
| DJ2DS-15 | 2026-09-04 18:42:28 | 50.56379 | 11.98723 | 86° | 53km/h | 17773m | -10.3m/s | -56.7°C | 4.9% | 82.7hPa | 2.5V | 00:00:00 | 02:23:32 | 00:00:00 | |
| DM0DOS-11 | 2026-09-04 18:42:27 | 50.56377 | 11.98589 | 91° | 55km/h | 17834m | -10.2m/s | -56.1°C | 4.6% | 81.9hPa | 2.5V | 08:16:46 | 02:23:26 | 00:00:00 | |
| DL1XH-west | 2026-09-04 18:42:22 | 50.56377 | 11.98589 | 92° | 55km/h | 17835m | -10.2m/s | -56.1°C | 0.7% | 81.9hPa | 2.5V | 08:17:24 | 02:23:26 | 00:00:00 | |
| HSKMA3-T | 2026-09-04 18:42:21 | 50.56378 | 11.98567 | 93° | 55km/h | 17845m | -10.1m/s | -56.2°C | 0.6% | 81.8hPa | 2.6V | 08:17:24 | 02:23:25 | 00:00:00 | |
| DO3MHA-11 | 2026-09-04 18:42:20 | 50.56379 | 11.98545 | 95° | 53km/h | 17855m | -10.2m/s | -56.0°C | 4.6% | 81.6hPa | 2.6V | 00:00:00 | 02:23:24 | 00:00:00 | |
| DL1XH1-15 | 2026-09-04 18:42:19 | 50.56387 | 11.98419 | 96° | 53km/h | 17917m | -10m/s | -56.3°C | 4.6% | 80.9hPa | 2.6V | 08:16:54 | 02:23:18 | 00:00:00 | |
| DL1ZP-14 | 2026-09-04 18:42:19 | 50.56380 | 11.98524 | 95° | 53km/h | 17866m | -10.2m/s | -56.1°C | 1.3% | 81.5hPa | 2.5V | 00:00:00 | 00:00:00 | 00:00:00 | |
| DM0DOS-11 | 2026-09-04 18:42:17 | 50.56390 | 11.98378 | 97° | 51km/h | 17937m | -10.3m/s | -56.4°C | 4.6% | 80.6hPa | 2.5V | 08:16:56 | 02:23:16 | 00:00:00 | |
| DL1XH-west | 2026-09-04 18:42:11 | 50.56392 | 11.98358 | 96° | 49km/h | 17948m | -10.1m/s | -56.5°C | 0.6% | 80.5hPa | 2.5V | 08:17:24 | 02:23:15 | 00:00:00 | |
| DK5PH-5 | 2026-09-04 18:42:11 | 50.56392 | 11.98358 | 97° | 44km/h | 17948m | -10.0m/s | -56.4°C | 4.6% | 80.4hPa | 2.5V | 08:16:00 | 02:23:15 | 00:00:00 | |
| DO3MHA-11 | 2026-09-04 18:42:10 | 50.56393 | 11.98339 | 97° | 47km/h | 17958m | -9.9m/s | -56.5°C | 4.6% | 80.3hPa | 2.6V | 00:00:00 | 02:23:14 | 00:00:00 | |
| DL1XH1-15 | 2026-09-04 18:42:09 | 50.56402 | 11.98226 | 99° | 47km/h | 18019m | -10.4m/s | -57°C | 4.9% | 79.6hPa | 2.6V | 08:17:04 | 02:23:08 | 00:00:00 | |
| DJ2DS-15 | 2026-09-04 18:42:08 | 50.56396 | 11.98301 | 96° | 46km/h | 17979m | -10.0m/s | -56.7°C | 4.7% | 80.1hPa | 2.5V | 00:00:00 | 02:23:12 | 00:00:00 | |
| DM0DOS-11 | 2026-09-04 18:42:07 | 50.56407 | 11.98188 | 102° | 49km/h | 18041m | -10.1m/s | -57.2°C | 4.9% | 79.3hPa | 2.5V | 08:17:06 | 02:23:06 | 00:00:00 | |
| DL1XH-west | 2026-09-04 18:42:01 | 50.56410 | 11.98170 | 103° | 49km/h | 18051m | -10.1m/s | -57.3°C | 0.8% | 79.2hPa | 2.5V | 08:17:24 | 02:23:05 | 00:00:00 | |
| DF8AY | 2026-09-04 18:42:00 | 50.56413 | 11.98151 | 104° | 47km/h | 18061m | -10m/s | -57.3°C | 0.8% | 79hPa | 2.5V | 08:17:24 | 02:23:04 | 00:00:00 | |
| DO3MHA-11 | 2026-09-04 18:42:00 | 50.56413 | 11.98151 | 105° | 46km/h | 18061m | -9.9m/s | -57.3°C | 5.0% | 79.0hPa | 2.6V | 00:00:00 | 02:23:04 | 00:00:00 | |
| AM1SDL-15 | 2026-09-04 18:41:59 | 50.56416 | 11.98132 | 107° | 44km/h | 18071m | -10.3m/s | -57.3°C | 5.0% | 78.9hPa | 2.6V | 00:00:00 | 02:23:03 | 00:00:00 | |
| SP3BTT-10 | 2026-09-04 18:41:58 | 50.56420 | 11.98114 | 110° | 44km/h | 18082m | -10.3m/s | -57.4°C | 5.0% | 78.8hPa | 2.6V | 00:00:00 | 00:00:00 | 00:00:00 | |
| DM0DOS-11 | 2026-09-04 18:41:57 | 50.56445 | 11.98012 | 110° | 42km/h | 18144m | -10.2m/s | -57.7°C | 5.1% | 78hPa | 2.5V | 08:17:16 | 02:22:56 | 00:00:00 | |
| DL1XH-west | 2026-09-04 18:41:50 | 50.56451 | 11.97982 | 107° | 38km/h | 18165m | -10.2m/s | -57.7°C | 0.8% | 77.7hPa | 2.5V | 08:17:24 | 02:22:54 | 00:00:00 | |
| EDDB2-11 | 2026-09-04 18:41:49 | 50.56454 | 11.97967 | 106° | 37km/h | 18175m | -10.4m/s | -57.7°C | 1.3% | 77.6hPa | 2.6V | 00:00:00 | 00:00:00 | 00:00:00 | |
| DJ2DS-15 | 2026-09-04 18:41:48 | 50.56457 | 11.97953 | 107° | 40km/h | 18186m | -10.3m/s | -57.5°C | 5.1% | 77.5hPa | 2.6V | 00:00:00 | 02:22:52 | 00:00:00 | |
| DM0DOS-11 | 2026-09-04 18:41:47 | 50.56467 | 11.97873 | 96° | 35km/h | 18249m | -10.5m/s | -57.3°C | 5% | 76.7hPa | 2.6V | 08:17:26 | 02:22:46 | 00:00:00 | |
| DL1XH-west | 2026-09-04 18:41:40 | 50.56469 | 11.97844 | 95° | 38km/h | 18270m | -10.4m/s | -57.4°C | 0.8% | 76.5hPa | 2.5V | 08:18:15 | 02:22:44 | 00:00:00 | |
| DF8AY | 2026-09-04 18:41:39 | 50.56470 | 11.97828 | 93° | 38km/h | 18281m | -10.5m/s | -57.4°C | 0.7% | 76.3hPa | 2.5V | 08:18:15 | 02:22:43 | 00:00:00 | |
| DL1XH-west | 2026-09-04 18:41:29 | 50.56463 | 11.97663 | 86° | 44km/h | 18388m | -10.6m/s | -56.9°C | 0.8% | 75.1hPa | 2.5V | 08:18:15 | 02:22:33 | 00:00:00 | |
| DF8AY | 2026-09-04 18:41:28 | 50.56463 | 11.97646 | 88° | 42km/h | 18398m | -10.6m/s | -56.6°C | 0.7% | 75hPa | 2.5V | 08:18:15 | 02:22:32 | 00:00:00 | |
| DM0DOS-11 | 2026-09-04 18:41:27 | 50.56466 | 11.97551 | 92° | 38km/h | 18463m | -10.8m/s | -56.8°C | 5.1% | 74.2hPa | 2.6V | 08:17:46 | 02:22:26 | 00:00:00 | |
| DL1XH-west | 2026-09-04 18:41:19 | 50.56466 | 11.97504 | 88° | 42km/h | 18496m | -10.8m/s | -56.7°C | 0.8% | 73.8hPa | 2.5V | 08:18:15 | 02:22:23 | 00:00:00 | |
| DF8AY | 2026-09-04 18:41:17 | 50.56464 | 11.97468 | 84° | 47km/h | 18517m | -10.5m/s | -56.6°C | 0.7% | 73.6hPa | 2.5V | 08:18:15 | 02:22:21 | 00:00:00 | |
| DL1ZP-14 | 2026-09-04 18:41:17 | 50.56463 | 11.97450 | 83° | 47km/h | 18528m | -10.5m/s | -56.4°C | 1.3% | 73.4hPa | 2.6V | 00:00:00 | 00:00:00 | 00:00:00 | |
| SP3BTT-10 | 2026-09-04 18:41:13 | 50.56458 | 11.97391 | 82° | 40km/h | 18560m | -10.4m/s | -55.9°C | 4.8% | 73.0hPa | 2.6V | 00:00:00 | 00:00:00 | 00:00:00 | |
| DJTTGO | 2026-09-04 18:41:12 | 50.56458 | 11.97391 | 82° | 51km/h | 18560m | -10.4m/s | -55.9°C | 1.2% | 73.1hPa | 2.6V | 00:00:00 | 00:00:00 | 00:00:00 | |
| DK5PH-5 | 2026-09-04 18:41:11 | 50.56455 | 11.97351 | 84° | 42km/h | 18581m | -10.5m/s | -55.8°C | 4.8% | 72.8hPa | 2.6V | 00:00:00 | 02:22:15 | 00:00:00 | |
| DO3MHA-11 | 2026-09-04 18:41:10 | 50.56453 | 11.97332 | 86° | 46km/h | 18592m | -10.4m/s | -55.7°C | 4.8% | 72.6hPa | 2.6V | 08:17:00 | 02:22:14 | 00:00:00 | |
| DL1XH1-15 | 2026-09-04 18:41:09 | 50.56449 | 11.97222 | 84° | 44km/h | 18656m | -10.9m/s | -54.2°C | 4.2% | 71.9hPa | 2.5V | 08:18:04 | 02:22:08 | 00:00:00 | |
| DL1XH-west | 2026-09-04 18:41:09 | 50.56452 | 11.97312 | 87° | 49km/h | 18602m | -10.9m/s | -55.6°C | 0.6% | 72.5hPa | 2.5V | 08:18:15 | 02:22:13 | 00:00:00 | |
| OE5DRO-10 | 2026-09-04 18:41:08 | 50.56452 | 11.97293 | 88° | 40km/h | 18613m | -10.8m/s | -55.4°C | 4.8% | 72.4hPa | 2.5V | 00:00:00 | 00:00:00 | 00:00:00 | |
| HSKMA3-T | 2026-09-04 18:41:08 | 50.56452 | 11.97293 | 88° | 47km/h | 18613m | -10.8m/s | -55.4°C | 0.7% | 72.5hPa | 2.5V | 08:18:15 | 02:22:12 | 00:00:00 | |
| DM0DOS-11 | 2026-09-04 18:41:07 | 50.56446 | 11.97189 | 80° | 42km/h | 18678m | -11.2m/s | -54.1°C | 4.2% | 71.7hPa | 2.5V | 08:18:06 | 02:22:06 | 00:00:00 | |
| DF8AY | 2026-09-04 18:41:06 | 50.56451 | 11.97257 | 86° | 46km/h | 18635m | -10.6m/s | -55°C | 0.6% | 72.2hPa | 2.6V | 08:18:15 | 02:22:10 | 00:00:00 | |
| DJ2DS-15 | 2026-09-04 18:41:06 | 50.56451 | 11.97257 | 86° | 40km/h | 18635m | -10.5m/s | -54.9°C | 4.6% | 72.2hPa | 2.6V | 00:00:00 | 02:22:10 | 00:00:00 | |
| DO3MHA-11 | 2026-09-04 18:41:00 | 50.56442 | 11.97156 | 79° | 38km/h | 18700m | -10.9m/s | -54.1°C | 4.2% | 71.4hPa | 2.6V | 00:00:00 | 02:22:04 | 00:00:00 | |
| DL1XH1-15 | 2026-09-04 18:40:59 | 50.56427 | 11.97064 | 75° | 37km/h | 18766m | -11.4m/s | -54.5°C | 4.2% | 70.7hPa | 2.6V | 08:18:14 | 02:21:58 | 00:00:00 | |
| DB0ND-19 | 2026-09-04 18:40:59 | 50.56428 | 11.97064 | 75° | 37km/h | 18766m | -11.4m/s | -54.5°C | 1.1% | 70.7hPa | 2.5V | 00:00:00 | 00:00:00 | 00:00:00 | |
| DL1XH-west | 2026-09-04 18:40:59 | 50.56440 | 11.97140 | 75° | 42km/h | 18711m | -10.6m/s | -54.2°C | 0.4% | 71.3hPa | 2.6V | 08:18:15 | 02:22:03 | 00:00:00 | |
| DO8TBO-1 | 2026-09-04 18:40:58 | 50.56437 | 11.97124 | 77° | 40km/h | 18722m | -10.7m/s | -54.2°C | 4.2% | 71.2hPa | 2.5V | 08:18:00 | 02:22:02 | 00:00:00 | |
| DM0DOS-11 | 2026-09-04 18:40:57 | 50.56423 | 11.97036 | 72° | 35km/h | 18789m | -10.8m/s | -54.6°C | 4.3% | 70.5hPa | 2.6V | 08:18:16 | 02:21:56 | 00:00:00 | |
| HSKMA3-T | 2026-09-04 18:40:57 | 50.56435 | 11.97109 | 74° | 40km/h | 18733m | -10.7m/s | -54.3°C | 0.3% | 71.1hPa | 2.5V | 08:18:15 | 02:22:01 | 00:00:00 | |
| DF8AY | 2026-09-04 18:40:56 | 50.56432 | 11.97094 | 78° | 38km/h | 18744m | -11.2m/s | -54.3°C | 0.4% | 71hPa | 2.5V | 08:18:15 | 02:22:00 | 00:00:00 | |
| SONCRA | 2026-09-04 18:40:54 | 50.56428 | 11.97064 | 75° | 37km/h | 18766m | -11.4m/s | -54.5°C | 1.1% | 70.7hPa | 2.6V | 00:00:00 | 00:00:00 | 00:00:00 | |
| HARRO8 | 2026-09-04 18:40:52 | 50.56423 | 11.97036 | 72° | 33km/h | 18789m | -10.8m/s | -54.6°C | 1.1% | 70.5hPa | 2.6V | 00:00:00 | 00:00:00 | 00:00:00 | |
| DB0UT-7 | 2026-09-04 18:40:51 | 50.56420 | 11.97023 | 76° | 27km/h | 18800m | -11.1m/s | -54.4°C | 4.3% | 70.3hPa | 2.6V | 00:00:00 | 02:21:55 | 00:00:00 | |
| DB0NH | 2026-09-04 18:40:50 | 50.56418 | 11.97010 | 72° | 37km/h | 18811m | -11.2m/s | -54.5°C | 4.2% | 70.2hPa | 2.6V | 00:00:00 | 02:21:54 | 00:00:00 | |
| DL1XH1-15 | 2026-09-04 18:40:49 | 50.56400 | 11.96916 | 78° | 47km/h | 18879m | -10.8m/s | -54.9°C | 4.5% | 69.5hPa | 2.6V | 08:18:24 | 02:21:48 | 00:00:00 | |
| DL1XH-west | 2026-09-04 18:40:48 | 50.56412 | 11.96982 | 73° | 38km/h | 18834m | -11.3m/s | -54.7°C | 0.4% | 70hPa | 2.5V | 08:19:06 | 02:21:52 | 00:00:00 | |
| DM0DOS-11 | 2026-09-04 18:40:47 | 50.56396 | 11.96877 | 79° | 49km/h | 18901m | -10.3m/s | -54.9°C | 4.6% | 69.2hPa | 2.5V | 08:18:26 | 02:21:46 | 00:00:00 | |
| DF8AY | 2026-09-04 18:40:46 | 50.56406 | 11.96951 | 72° | 44km/h | 18856m | -11.1m/s | -54.9°C | 0.5% | 69.7hPa | 2.6V | 08:19:06 | 02:21:50 | 00:00:00 | |
| DL1ZP-14 | 2026-09-04 18:40:46 | 50.56403 | 11.96934 | 75° | 46km/h | 18868m | -11.2m/s | -54.9°C | 0% | 69.6hPa | 2.6V | 00:00:00 | 00:00:00 | 00:00:00 | |
| DJ2DS-15 | 2026-09-04 18:40:45 | 50.56403 | 11.96934 | 76° | 38km/h | 18868m | -11.2m/s | -54.9°C | 4.4% | 69.5hPa | 2.5V | 00:00:00 | 02:21:49 | 00:00:00 | |
| DF7PN | 2026-09-04 18:40:42 | 50.56396 | 11.96878 | 79° | 47km/h | 18901m | -10.3m/s | -54.9°C | 1.2% | 69.2hPa | 2.5V | 00:00:00 | 00:00:00 | 00:00:00 | |
| DK5PH-5 | 2026-09-04 18:40:41 | 50.56394 | 11.96858 | 85° | 29km/h | 18912m | -11.3m/s | -54.8°C | 4.5% | 69.1hPa | 2.5V | 00:00:00 | 02:21:45 | 00:00:00 | |
| DO3MHA-11 | 2026-09-04 18:40:40 | 50.56393 | 11.96840 | 85° | 38km/h | 18923m | -10.5m/s | -54.7°C | 4.6% | 69.0hPa | 2.5V | 00:00:00 | 02:21:44 | 00:00:00 | |
| DL1XH1-15 | 2026-09-04 18:40:39 | 50.56390 | 11.96747 | 88° | 33km/h | 18986m | -10.2m/s | -54.9°C | 4.7% | 68.3hPa | 2.5V | 08:18:34 | 02:21:38 | 00:00:00 | |
| DL1XH-west | 2026-09-04 18:40:38 | 50.56392 | 11.96805 | 86° | 42km/h | 18944m | -9.8m/s | -54.8°C | 0.5% | 68.8hPa | 2.6V | 08:19:06 | 02:21:42 | 00:00:00 | |
| HSKMA3-T | 2026-09-04 18:40:36 | 50.56390 | 11.96774 | 86° | 35km/h | 18964m | -9.9m/s | -54.8°C | 0.5% | 68.6hPa | 2.5V | 08:19:06 | 02:21:40 | 00:00:00 | |
| DF8AY | 2026-09-04 18:40:35 | 50.56390 | 11.96760 | 92° | 35km/h | 18975m | -10.8m/s | -54.9°C | 0.6% | 68.5hPa | 2.5V | 08:19:06 | 02:21:39 | 00:00:00 | |
| DF2AP-13 | 2026-09-04 18:40:35 | 50.56390 | 11.96760 | 93° | 26km/h | 18975m | -10.8m/s | -54.8°C | 4.6% | 68.4hPa | 2.5V | 08:18:00 | 02:21:39 | 00:00:00 | |
| NBG1-10 | 2026-09-04 18:40:34 | 50.56390 | 11.96747 | 89° | 26km/h | 18986m | -10.2m/s | -54.9°C | 4.7% | 68.3hPa | 2.5V | 00:00:00 | 02:21:38 | 00:00:00 | |
| DJTTGO | 2026-09-04 18:40:31 | 50.56390 | 11.96721 | 87° | 33km/h | 19008m | -11.0m/s | -54.8°C | 1.1% | 68.1hPa | 2.6V | 08:19:00 | 00:00:00 | 00:00:00 | |
| DO3MHA-11 | 2026-09-04 18:40:30 | 50.56389 | 11.96695 | 86° | 26km/h | 19030m | -10.7m/s | -54.6°C | 4.6% | 67.8hPa | 2.6V | 00:00:00 | 02:21:34 | 00:00:00 | |
| DL1XH1-15 | 2026-09-04 18:40:29 | 50.56381 | 11.96627 | 74° | 22km/h | 19096m | -11.5m/s | -53.5°C | 4.2% | 67.2hPa | 2.6V | 08:18:44 | 02:21:28 | 00:00:00 | |
| DL1XH-west | 2026-09-04 18:40:28 | 50.56387 | 11.96669 | 85° | 31km/h | 19052m | -11.2m/s | -54.6°C | 0.6% | 67.6hPa | 2.5V | 08:19:06 | 02:21:32 | 00:00:00 | |
| HSKMA3-T | 2026-09-04 18:40:26 | 50.56384 | 11.96646 | 76° | 27km/h | 19074m | -11.1m/s | -54°C | 0.5% | 67.4hPa | 2.5V | 08:19:06 | 02:21:30 | 00:00:00 | |
| DF8AY | 2026-09-04 18:40:24 | 50.56381 | 11.96627 | 75° | 22km/h | 19096m | -11.5m/s | -53.5°C | 0.4% | 67.2hPa | 2.6V | 08:19:06 | 02:21:28 | 00:00:00 | |
| DL1XH-west | 2026-09-04 18:40:18 | 50.56369 | 11.96578 | 60° | 20km/h | 19179m | -11.9m/s | -53°C | 0.2% | 66.3hPa | 2.6V | 08:19:06 | 02:21:21 | 00:00:00 | |
| DM0DOS-11 | 2026-09-04 18:40:18 | 50.56357 | 11.96537 | 75° | 24km/h | 19239m | -12.2m/s | -53.3°C | 4% | 65.7hPa | 2.6V | 08:18:56 | 02:21:16 | 00:00:00 | |
| HSKMA3-T | 2026-09-04 18:40:16 | 50.56367 | 11.96571 | 63° | 20km/h | 19191m | -11.5m/s | -53°C | 0.2% | 66.2hPa | 2.5V | 08:19:06 | 02:21:20 | 00:00:00 | |
| DF8AY | 2026-09-04 18:40:14 | 50.56362 | 11.96555 | 64° | 24km/h | 19215m | -11.9m/s | -53.1°C | 0.2% | 65.9hPa | 2.5V | 08:19:06 | 02:21:18 | 00:00:00 | |
| DL1JEZ-13 | 2026-09-04 18:40:12 | 50.56359 | 11.96546 | 68° | 24km/h | 19227m | -12.2m/s | -53.2°C | 1.0% | 65.8hPa | 2.5V | 08:19:00 | 00:00:00 | 00:00:00 | |
| DK5PH-5 | 2026-09-04 18:40:11 | 50.56355 | 11.96528 | 73° | 26km/h | 19251m | -11.8m/s | -53.3°C | 4.0% | 65.5hPa | 2.5V | 00:00:00 | 02:21:15 | 00:00:00 | |
| DO3MHA-11 | 2026-09-04 18:40:10 | 50.56354 | 11.96519 | 75° | 26km/h | 19263m | -11.6m/s | -53.2°C | 4.0% | 65.4hPa | 2.5V | 00:00:00 | 02:21:14 | 00:00:00 | |
| DL1XH1-15 | 2026-09-04 18:40:09 | 50.56346 | 11.96458 | 74° | 27km/h | 19337m | -12.2m/s | -53°C | 3.8% | 64.7hPa | 2.5V | 08:19:04 | 02:21:08 | 00:00:00 | |
| DM0DOS-11 | 2026-09-04 18:40:07 | 50.56342 | 11.96437 | 72° | 26km/h | 19361m | -12.4m/s | -53.1°C | 3.9% | 64.4hPa | 2.6V | 08:19:06 | 02:21:06 | 00:00:00 | |
| DL1XH-west | 2026-09-04 18:40:07 | 50.56350 | 11.96490 | 77° | 26km/h | 19299m | -12.8m/s | -53.1°C | 0.2% | 65.1hPa | 2.6V | 08:19:06 | 02:21:11 | 00:00:00 | |
| HSKMA3-T | 2026-09-04 18:40:06 | 50.56348 | 11.96479 | 79° | 27km/h | 19312m | -12.2m/s | -53.1°C | 0.2% | 64.9hPa | 2.5V | 08:19:06 | 02:21:10 | 00:00:00 | |
| DF8AY | 2026-09-04 18:40:03 | 50.56336 | 11.96409 | 71° | 26km/h | 19400m | -12.9m/s | -53.5°C | 0.2% | 64hPa | 2.5V | 08:19:57 | 02:21:03 | 00:00:00 | |
| NBG1-10 | 2026-09-04 18:40:01 | 50.56340 | 11.96428 | 71° | 27km/h | 19374m | -12.7m/s | -53.2°C | 3.9% | 64.2hPa | 2.5V | 00:00:00 | 02:21:05 | 00:00:00 | |
| DO3MHA-11 | 2026-09-04 18:40:00 | 50.56338 | 11.96418 | 73° | 24km/h | 19387m | -13.2m/s | -53.3°C | 3.9% | 64.1hPa | 2.5V | 00:00:00 | 02:21:04 | 00:00:00 | |
| DL1XH1-15 | 2026-09-04 18:39:59 | 50.56333 | 11.96366 | 95° | 22km/h | 19463m | -12.3m/s | -54°C | 4.1% | 63.4hPa | 2.5V | 08:19:14 | 02:20:58 | 00:00:00 | |
| DO8TBO-1 | 2026-09-04 18:39:58 | 50.56334 | 11.96400 | 76° | 31km/h | 19413m | -12.7m/s | -53.5°C | 3.9% | 63.9hPa | 2.5V | 00:00:00 | 02:21:02 | 00:00:00 | |
| DM0DOS-11 | 2026-09-04 18:39:57 | 50.56335 | 11.96349 | 106° | 24km/h | 19488m | -12.3m/s | -54.2°C | 4.1% | 63.1hPa | 2.5V | 08:19:16 | 02:20:56 | 00:00:00 | |
| DL1XH-west | 2026-09-04 18:39:56 | 50.56333 | 11.96383 | 83° | 22km/h | 19438m | -12.5m/s | -53.8°C | 0.2% | 63.7hPa | 2.6V | 08:19:57 | 02:21:00 | 00:00:00 | |
| DF8AY | 2026-09-04 18:39:53 | 50.56334 | 11.96358 | 103° | 24km/h | 19475m | -12.3m/s | -54.2°C | 0.3% | 63.3hPa | 2.5V | 08:19:57 | 02:20:57 | 00:00:00 | |
| OE5DXL-15 | 2026-09-04 18:39:52 | 50.56335 | 11.96349 | 107° | 26km/h | 19488m | -12.2m/s | -54.2°C | 4.1% | 63.1hPa | 2.6V | 00:00:00 | 00:00:00 | 00:00:00 | |
| DO3MHA-11 | 2026-09-04 18:39:50 | 50.56339 | 11.96329 | 106° | 27km/h | 19513m | -12.4m/s | -54.3°C | 4.2% | 62.9hPa | 2.6V | 00:00:00 | 02:20:54 | 00:00:00 | |
| DL1XH1-15 | 2026-09-04 18:39:49 | 50.56346 | 11.96266 | 98° | 27km/h | 19590m | -12.7m/s | -54.6°C | 4.2% | 62.1hPa | 2.6V | 08:19:24 | 02:20:48 | 00:00:00 | |
| DC4HF-4 | 2026-09-04 18:39:49 | 50.56342 | 11.96309 | 104° | 26km/h | 19539m | -13.2m/s | -54.5°C | 1.0% | 62.6hPa | 2.5V | 00:00:00 | 00:00:00 | 00:00:00 | |
| DM0DOS-11 | 2026-09-04 18:39:47 | 50.56348 | 11.96245 | 103° | 27km/h | 19616m | -13.2m/s | -54.8°C | 4.3% | 61.9hPa | 2.5V | 08:19:26 | 02:20:46 | 00:00:00 | |
| DL1XH-west | 2026-09-04 18:39:45 | 50.56345 | 11.96277 | 94° | 27km/h | 19578m | -12.5m/s | -54.6°C | 0.4% | 62.3hPa | 2.5V | 08:19:57 | 02:20:49 | 00:00:00 | |
| DF8AY | 2026-09-04 18:39:43 | 50.56347 | 11.96256 | 96° | 26km/h | 19603m | -12.7m/s | -54.7°C | 0.4% | 62hPa | 2.6V | 08:19:57 | 02:20:47 | 00:00:00 | |
| DK5PH-5 | 2026-09-04 18:39:41 | 50.56350 | 11.96235 | 107° | 29km/h | 19629m | -12.5m/s | -54.9°C | 4.3% | 61.7hPa | 2.5V | 00:00:00 | 02:20:45 | 00:00:00 | |
| DO3MHA-11 | 2026-09-04 18:39:40 | 50.56353 | 11.96224 | 115° | 35km/h | 19642m | -13.2m/s | -54.9°C | 4.3% | 61.6hPa | 2.5V | 08:19:00 | 02:20:44 | 00:00:00 | |
| DL1XH1-15 | 2026-09-04 18:39:39 | 50.56380 | 11.96157 | 127° | 37km/h | 19721m | -12.6m/s | -55.6°C | 4.6% | 60.9hPa | 2.5V | 08:19:34 | 02:20:38 | 00:00:00 | |
| DB0UT-7 | 2026-09-04 18:39:38 | 50.56360 | 11.96203 | 122° | 29km/h | 19669m | -13.0m/s | -55.1°C | 4.4% | 61.3hPa | 2.6V | 08:19:00 | 00:00:00 | 00:00:00 | |
| DM0DOS-11 | 2026-09-04 18:39:37 | 50.56391 | 11.96134 | 125° | 35km/h | 19746m | -12.4m/s | -55.7°C | 4.6% | 60.7hPa | 2.5V | 08:19:36 | 02:20:36 | 00:00:00 | |
| HSKMA3-T | 2026-09-04 18:39:35 | 50.56375 | 11.96169 | 124° | 35km/h | 19708m | -12.8m/s | -55.5°C | 0.5% | 61hPa | 2.5V | 08:19:57 | 02:20:39 | 00:00:00 | |
| DL1XH-west | 2026-09-04 18:39:34 | 50.56380 | 11.96157 | 128° | 37km/h | 19721m | -12.6m/s | -55.6°C | 0.6% | 60.9hPa | 2.5V | 08:19:57 | 02:20:38 | 00:00:00 | |
| AA1-15 | 2026-09-04 18:39:33 | 50.56386 | 11.96146 | 125° | 35km/h | 19733m | -12.6m/s | -55.7°C | 0.6% | 60.8hPa | 2.5V | 08:29:18 | 02:20:37 | 00:00:00 | |
| DF8AY | 2026-09-04 18:39:32 | 50.56391 | 11.96134 | 125° | 35km/h | 19746m | -12.4m/s | -55.7°C | 0.6% | 60.7hPa | 2.5V | 08:19:57 | 02:20:36 | 00:00:00 | |
| ANDY1245 | 2026-09-04 18:39:31 | 50.56391 | 11.96134 | 126° | 35km/h | 19746m | -12.4m/s | -55.7°C | 1.2% | 60.7hPa | 2.6V | 00:00:00 | 00:00:00 | 00:00:00 | |
| DO3MHA-11 | 2026-09-04 18:39:30 | 50.56400 | 11.96112 | 122° | 29km/h | 19772m | -12.8m/s | -55.6°C | 4.6% | 60.3hPa | 2.6V | 00:00:00 | 02:20:34 | 00:00:00 | |
| DL1XH1-15 | 2026-09-04 18:39:29 | 50.56422 | 11.96049 | 119° | 27km/h | 19850m | -12.4m/s | -55.8°C | 4.7% | 59.7hPa | 2.6V | 08:19:44 | 02:20:28 | 00:00:00 | |
| DF8AY | 2026-09-04 18:39:27 | 50.56430 | 11.96030 | 122° | 27km/h | 19876m | -13.3m/s | -55.7°C | 0.6% | 59.5hPa | 2.5V | 08:19:57 | 02:20:26 | 00:00:00 | |
| DM0DOS-11 | 2026-09-04 18:39:26 | 50.56433 | 11.96021 | 125° | 27km/h | 19889m | -13.5m/s | -55.7°C | 4.7% | 59.3hPa | 2.5V | 08:19:47 | 02:20:25 | 00:00:00 | |
| DB0ND-19 | 2026-09-04 18:39:26 | 50.56422 | 11.96049 | 119° | 27km/h | 19850m | -12.4m/s | -55.8°C | 1.2% | 59.7hPa | 2.5V | 00:00:00 | 00:00:00 | 00:00:00 | |
| DL1XH-15 | 2026-09-04 18:39:25 | 50.56437 | 11.96012 | 117° | 27km/h | 19903m | -13.4m/s | -55.6°C | 4.6% | 59.2hPa | 2.5V | 08:19:48 | 02:20:24 | 00:00:00 | |
| HSKMA3-T | 2026-09-04 18:39:25 | 50.56419 | 11.96059 | 117° | 27km/h | 19837m | -12.8m/s | -55.8°C | 0.6% | 59.8hPa | 2.6V | 08:19:57 | 02:20:29 | 00:00:00 | |
| DL1XH-west | 2026-09-04 18:39:24 | 50.56422 | 11.96049 | 119° | 29km/h | 19850m | -12.4m/s | -55.8°C | 0.6% | 59.7hPa | 2.6V | 08:19:57 | 02:20:28 | 00:00:00 | |
| AM1SDL-15 | 2026-09-04 18:39:21 | 50.56434 | 11.96021 | 126° | 24km/h | 19890m | -13.5m/s | -55.6°C | 4.7% | 59.3hPa | 2.5V | 08:19:00 | 02:20:25 | 00:00:00 | |
| DB0NH | 2026-09-04 18:39:20 | 50.56437 | 11.96012 | 118° | 27km/h | 19903m | -13.3m/s | -55.6°C | 4.6% | 59.1hPa | 2.5V | 00:00:00 | 02:20:24 | 00:00:00 | |
| DL1XH1-15 | 2026-09-04 18:39:19 | 50.56443 | 11.95959 | 74° | 22km/h | 19981m | -12.1m/s | -55.5°C | 4.7% | 58.5hPa | 2.5V | 08:19:54 | 02:20:18 | 00:00:00 | |
| HARRO8 | 2026-09-04 18:39:19 | 50.56440 | 11.96003 | 118° | 26km/h | 19916m | -13.4m/s | -55.5°C | 1.1% | 59.1hPa | 2.5V | 00:00:00 | 00:00:00 | 00:00:00 | |
| DM0DOS-11 | 2026-09-04 18:39:16 | 50.56435 | 11.95934 | 53° | 26km/h | 20017m | -12.4m/s | -55.7°C | 4.8% | 58.1hPa | 2.5V | 08:19:57 | 02:20:15 | 00:00:00 | |
| HSKMA3-T | 2026-09-04 18:39:14 | 50.56443 | 11.95959 | 75° | 22km/h | 19981m | -12.1m/s | -55.5°C | 0.6% | 58.5hPa | 2.5V | 08:19:57 | 02:20:18 | 00:00:00 | |
| DL1XH-west | 2026-09-04 18:39:13 | 50.56441 | 11.95951 | 64° | 24km/h | 19993m | -11.9m/s | -55.5°C | 0.6% | 58.4hPa | 2.6V | 08:19:57 | 02:20:17 | 00:00:00 | |
| DF8AY | 2026-09-04 18:39:11 | 50.56435 | 11.95934 | 54° | 26km/h | 20017m | -12.4m/s | -55.7°C | 0.6% | 58.1hPa | 2.5V | 08:19:57 | 02:20:15 | 00:00:00 | |
| DK5PH-5 | 2026-09-04 18:39:11 | 50.56435 | 11.95934 | 54° | 27km/h | 20017m | -12.4m/s | -55.6°C | 4.8% | 58.1hPa | 2.5V | 00:00:00 | 02:20:15 | 00:00:00 | |
| OE5DXL-15 | 2026-09-04 18:39:10 | 50.56431 | 11.95926 | 52° | 27km/h | 20030m | -13.2m/s | -55.6°C | 4.8% | 58.0hPa | 2.6V | 00:00:00 | 00:00:00 | 00:00:00 | |
| DF7PN | 2026-09-04 18:39:09 | 50.56427 | 11.95919 | 50° | 26km/h | 20043m | -13.3m/s | -55.6°C | 1.2% | 57.9hPa | 2.6V | 00:00:00 | 00:00:00 | 00:00:00 | |
| DL1XH-15 | 2026-09-04 18:39:08 | 50.56413 | 11.95886 | 61° | 24km/h | 20093m | -11.8m/s | -55.5°C | 4.8% | 57.4hPa | 2.6V | 08:20:03 | 02:20:09 | 00:00:00 | |
| DB0UT-7 | 2026-09-04 18:39:08 | 50.56423 | 11.95910 | 53° | 27km/h | 20056m | -12.4m/s | -55.5°C | 4.8% | 57.7hPa | 2.5V | 00:00:00 | 02:20:12 | 00:00:00 | |
| DH8WE-5 | 2026-09-04 18:39:07 | 50.56423 | 11.95910 | 53° | 26km/h | 20056m | -12.4m/s | -55.6°C | 1.2% | 57.8hPa | 2.5V | 08:20:00 | 00:00:00 | 00:00:00 | |
| DM0DOS-11 | 2026-09-04 18:39:06 | 50.56403 | 11.95849 | 71° | 29km/h | 20143m | -12.9m/s | -55.3°C | 4.9% | 57hPa | 2.5V | 08:20:07 | 02:20:05 | 00:00:00 | |
| HSKMA3-T | 2026-09-04 18:39:03 | 50.56408 | 11.95869 | 67° | 24km/h | 20118m | -12.4m/s | -55.4°C | 0.7% | 57.2hPa | 2.5V | 08:20:48 | 02:20:07 | 00:00:00 | |
| DL1XH-west | 2026-09-04 18:39:02 | 50.56406 | 11.95859 | 69° | 27km/h | 20131m | -12.8m/s | -55.4°C | 0.7% | 57.1hPa | 2.5V | 08:20:48 | 02:20:06 | 00:00:00 | |
| DF8AY | 2026-09-04 18:39:00 | 50.56401 | 11.95837 | 73° | 33km/h | 20156m | -12.6m/s | -55.2°C | 0.7% | 56.9hPa | 2.6V | 08:20:48 | 02:20:04 | 00:00:00 | |
| DO3MHA-11 | 2026-09-04 18:39:00 | 50.56401 | 11.95837 | 74° | 35km/h | 20156m | -12.5m/s | -55.1°C | 4.8% | 56.8hPa | 2.5V | 00:00:00 | 02:20:04 | 00:00:00 | |
| SO1NDE-10 | 2026-09-04 18:38:59 | 50.56398 | 11.95824 | 77° | 37km/h | 20169m | -12.8m/s | 0°C | 0% | 0hPa | 2.5V | 08:20:00 | 02:20:03 | 00:00:00 | |
| DO8TBO-1 | 2026-09-04 18:38:58 | 50.56396 | 11.95810 | 74° | 22km/h | 20182m | -12.9m/s | -54.8°C | 4.7% | 56.6hPa | 2.5V | 00:00:00 | 02:20:02 | 00:00:00 | |
| AM1SDL-15 | 2026-09-04 18:38:57 | 50.56393 | 11.95796 | 77° | 33km/h | 20195m | -12.8m/s | -54.5°C | 4.6% | 56.5hPa | 2.5V | 00:00:00 | 02:20:01 | 00:00:00 | |
| DM0DOS-11 | 2026-09-04 18:38:56 | 50.56389 | 11.95711 | 94° | 31km/h | 20272m | -12.6m/s | -53.6°C | 4.3% | 55.9hPa | 2.5V | 08:20:17 | 02:19:55 | 00:00:00 | |
| HSKMA3-T | 2026-09-04 18:38:52 | 50.56388 | 11.95724 | 92° | 35km/h | 20259m | -13m/s | -53.9°C | 0.5% | 56hPa | 2.5V | 08:20:48 | 02:19:56 | 00:00:00 | |
| DL1XH-west | 2026-09-04 18:38:51 | 50.56389 | 11.95711 | 94° | 31km/h | 20272m | -12.6m/s | -53.6°C | 0.4% | 55.9hPa | 2.5V | 08:20:48 | 02:19:55 | 00:00:00 | |
| DF8AY | 2026-09-04 18:38:49 | 50.56391 | 11.95688 | 101° | 27km/h | 20298m | -12.7m/s | -53.5°C | 0.4% | 55.6hPa | 2.6V | 08:20:48 | 02:19:53 | 00:00:00 | |
| DL1XH1-15 | 2026-09-04 18:38:49 | 50.56389 | 11.95642 | 75° | 22km/h | 20361m | -12.9m/s | -53°C | 4.1% | 55.1hPa | 2.5V | 08:20:24 | 02:19:48 | 00:00:00 | |
| HARRO8 | 2026-09-04 18:38:48 | 50.56391 | 11.95668 | 85° | 24km/h | 20323m | -12.1m/s | -53.4°C | 1.0% | 55.4hPa | 2.6V | 00:00:00 | 00:00:00 | 00:00:00 | |
| DH8WE-5 | 2026-09-04 18:38:47 | 50.56392 | 11.95677 | 95° | 24km/h | 20311m | -12.3m/s | -53.5°C | 1.0% | 55.5hPa | 2.6V | 08:20:00 | 00:00:00 | 00:00:00 | |
| DM0DOS-11 | 2026-09-04 18:38:46 | 50.56384 | 11.95618 | 68° | 22km/h | 20400m | -13m/s | -52.9°C | 4% | 54.8hPa | 2.6V | 08:20:27 | 02:19:45 | 00:00:00 | |
| HSKMA3-T | 2026-09-04 18:38:41 | 50.56383 | 11.95618 | 69° | 22km/h | 20400m | -13m/s | -52.9°C | 0.3% | 54.8hPa | 2.6V | 08:20:48 | 02:19:45 | 00:00:00 | |
| DL1XH-west | 2026-09-04 18:38:40 | 50.56381 | 11.95610 | 63° | 20km/h | 20413m | -12.9m/s | -52.7°C | 0.3% | 54.7hPa | 2.5V | 08:20:48 | 02:19:44 | 00:00:00 | |
| OE5DXL-15 | 2026-09-04 18:38:40 | 50.56381 | 11.95610 | 63° | 20km/h | 20413m | -12.9m/s | -52.6°C | 4.0% | 54.6hPa | 2.5V | 00:00:00 | 00:00:00 | 00:00:00 | |
| DL1XH1-15 | 2026-09-04 18:38:39 | 50.56367 | 11.95565 | 70° | 20km/h | 20490m | -12.7m/s | -52.7°C | 3.9% | 54hPa | 2.5V | 08:20:34 | 02:19:38 | 00:00:00 | |
| DF8AY | 2026-09-04 18:38:39 | 50.56379 | 11.95603 | 63° | 22km/h | 20426m | -12.3m/s | -52.7°C | 0.3% | 54.5hPa | 2.5V | 08:20:48 | 02:19:43 | 00:00:00 | |
| DF7PN | 2026-09-04 18:38:38 | 50.56376 | 11.95595 | 63° | 20km/h | 20438m | -12.6m/s | -52.7°C | 0.9% | 54.5hPa | 2.6V | 00:00:00 | 00:00:00 | 00:00:00 | |
| DO3MHA-11 | 2026-09-04 18:38:37 | 50.56373 | 11.95587 | 59° | 16km/h | 20451m | -13.0m/s | -52.7°C | 4.0% | 54.3hPa | 2.6V | 00:00:00 | 02:19:41 | 00:00:00 | |
| DM0DOS-11 | 2026-09-04 18:38:36 | 50.56363 | 11.95546 | 68° | 15km/h | 20529m | -12.9m/s | -52.8°C | 4% | 53.7hPa | 2.6V | 08:20:37 | 02:19:35 | 00:00:00 | |
| HSKMA3-T | 2026-09-04 18:38:31 | 50.56363 | 11.95546 | 68° | 15km/h | 20529m | -12.9m/s | -52.8°C | 0.3% | 53.7hPa | 2.6V | 08:20:48 | 02:19:35 | 00:00:00 | |
| DL1XH-west | 2026-09-04 18:38:30 | 50.56361 | 11.95541 | 62° | 13km/h | 20542m | -13.7m/s | -52.8°C | 0.3% | 53.6hPa | 2.6V | 08:20:48 | 02:19:34 | 00:00:00 | |
| DL1XH1-15 | 2026-09-04 18:38:29 | 50.56349 | 11.95521 | 44° | 15km/h | 20621m | -13m/s | -52.6°C | 3.9% | 52.9hPa | 2.6V | 08:20:44 | 02:19:28 | 00:00:00 | |
| DF8AY | 2026-09-04 18:38:28 | 50.56358 | 11.95534 | 50° | 11km/h | 20569m | -12.5m/s | -52.6°C | 0.3% | 53.4hPa | 2.5V | 08:20:48 | 02:19:32 | 00:00:00 | |
| DO3MHA-11 | 2026-09-04 18:38:27 | 50.56356 | 11.95531 | 47° | 16km/h | 20582m | -12.4m/s | -52.6°C | 3.9% | 53.2hPa | 2.5V | 00:00:00 | 02:19:31 | 00:00:00 | |
| DM0DOS-11 | 2026-09-04 18:38:26 | 50.56342 | 11.95505 | 62° | 18km/h | 20660m | -13m/s | -52.7°C | 3.9% | 52.6hPa | 2.5V | 08:20:47 | 02:19:25 | 00:00:00 | |
| DL1XH-west | 2026-09-04 18:38:20 | 50.56340 | 11.95498 | 63° | 22km/h | 20673m | -12.6m/s | -52.7°C | 0.3% | 52.5hPa | 2.5V | 08:20:48 | 02:19:24 | 00:00:00 | |
| DF8AY | 2026-09-04 18:38:17 | 50.56332 | 11.95473 | 64° | 27km/h | 20713m | -13m/s | -52.9°C | 0.3% | 52.2hPa | 2.5V | 08:21:39 | 02:19:21 | 00:00:00 | |
| DO3MHA-11 | 2026-09-04 18:38:17 | 50.56332 | 11.95473 | 65° | 29km/h | 20713m | -12.9m/s | -52.8°C | 4.0% | 52.1hPa | 2.6V | 00:00:00 | 02:19:21 | 00:00:00 | |
| ANDY1245 | 2026-09-04 18:38:16 | 50.56332 | 11.95473 | 65° | 27km/h | 20713m | -13.0m/s | -52.9°C | 1.0% | 52.2hPa | 2.6V | 08:21:00 | 00:00:00 | 00:00:00 | |
| SONDE2-11 | 2026-09-04 18:38:13 | 50.56319 | 11.95419 | 70° | 31km/h | 20779m | -13.1m/s | -53.0°C | 1.0% | 51.6hPa | 2.6V | 00:00:00 | 00:00:00 | 00:00:00 | |
| EDDB2-11 | 2026-09-04 18:38:12 | 50.56319 | 11.95419 | 70° | 31km/h | 20779m | -13.1m/s | -53.0°C | 1.0% | 51.6hPa | 2.6V | 00:00:00 | 00:00:00 | 00:00:00 | |
| DL1XH-15 | 2026-09-04 18:38:11 | 50.56310 | 11.95352 | 81° | 27km/h | 20861m | -13m/s | -53.4°C | 4.2% | 51hPa | 2.6V | 08:21:02 | 02:19:10 | 00:00:00 | |
| DL1XH-west | 2026-09-04 18:38:10 | 50.56315 | 11.95396 | 75° | 31km/h | 20806m | -13.4m/s | -53°C | 0.4% | 51.4hPa | 2.5V | 08:21:39 | 02:19:14 | 00:00:00 | |
| DF8AY | 2026-09-04 18:38:07 | 50.56311 | 11.95362 | 84° | 27km/h | 20847m | -13.3m/s | -53.3°C | 0.4% | 51.1hPa | 2.6V | 08:21:39 | 02:19:11 | 00:00:00 | |
| DO3MHA-11 | 2026-09-04 18:38:07 | 50.56311 | 11.95362 | 85° | 27km/h | 20848m | -13.2m/s | -53.2°C | 4.2% | 51.0hPa | 2.6V | 08:21:00 | 02:19:11 | 00:00:00 | |
| DM0DOS-11 | 2026-09-04 18:38:06 | 50.56313 | 11.95296 | 97° | 29km/h | 20928m | -13.3m/s | -52.9°C | 4.1% | 50.4hPa | 2.6V | 08:21:07 | 02:19:05 | 00:00:00 | |
| DJ2DS-15 | 2026-09-04 18:38:05 | 50.56310 | 11.95341 | 91° | 26km/h | 20875m | -13.5m/s | -53.4°C | 4.3% | 50.8hPa | 2.6V | 00:00:00 | 02:19:09 | 00:00:00 | |
| 13BRC | 2026-09-04 18:38:04 | 50.56310 | 11.95341 | 91° | 27km/h | 20875m | -13.5m/s | -53.4°C | 1.0% | 50.9hPa | 2.6V | 00:00:00 | 00:00:00 | 00:00:00 | |
| DL3JIN-12 | 2026-09-04 18:38:03 | 50.56310 | 11.95330 | 95° | 27km/h | 20888m | -13.1m/s | -53.5°C | 1.1% | 50.8hPa | 2.6V | 08:21:00 | 00:00:00 | 00:00:00 | |
| PG1ADW-2 | 2026-09-04 18:38:02 | 50.56312 | 11.95307 | 102° | 26km/h | 20915m | -13.5m/s | -53.2°C | 4.2% | 50.5hPa | 2.6V | 00:00:00 | 00:00:00 | 00:00:00 | |
| DL1XH-15 | 2026-09-04 18:38:01 | 50.56318 | 11.95246 | 89° | 22km/h | 20996m | -13.2m/s | -52.5°C | 3.8% | 49.9hPa | 2.6V | 08:21:12 | 02:19:00 | 00:00:00 | |
| DC4HF-4 | 2026-09-04 18:38:00 | 50.56314 | 11.95285 | 102° | 26km/h | 20942m | -13.4m/s | -52.7°C | 0.9% | 50.3hPa | 2.5V | 00:00:00 | 00:00:00 | 00:00:00 | |
| DL1XH1-15 | 2026-09-04 18:37:59 | 50.56318 | 11.95228 | 79° | 24km/h | 21023m | -13.5m/s | -52.5°C | 3.8% | 49.7hPa | 2.5V | 08:21:14 | 02:18:58 | 00:00:00 | |
| AA1-15 | 2026-09-04 18:37:59 | 50.56315 | 11.95274 | 99° | 26km/h | 20955m | -13.3m/s | -52.6°C | 0.3% | 50.2hPa | 2.5V | 08:29:18 | 02:19:03 | 00:00:00 | |
| DF8AY | 2026-09-04 18:37:57 | 50.56318 | 11.95246 | 90° | 22km/h | 20996m | -13.2m/s | -52.5°C | 0.2% | 49.9hPa | 2.6V | 08:21:39 | 02:19:00 | 00:00:00 | |
| D01LWL | 2026-09-04 18:37:53 | 50.56316 | 11.95218 | 80° | 24km/h | 21037m | -13.9m/s | -52.6°C | 0.9% | 49.6hPa | 2.6V | 00:00:00 | 00:00:00 | 00:00:00 | |
| DB0ND-19 | 2026-09-04 18:37:52 | 50.56315 | 11.95208 | 74° | 26km/h | 21050m | -13.5m/s | -52.6°C | 0.9% | 49.5hPa | 2.6V | 00:00:00 | 00:00:00 | 00:00:00 | |
| DL1XH-15 | 2026-09-04 18:37:51 | 50.56306 | 11.95145 | 78° | 26km/h | 21132m | -14.1m/s | -52.7°C | 3.8% | 48.9hPa | 2.6V | 08:21:22 | 02:18:50 | 00:00:00 | |
| DJ2DS-15 | 2026-09-04 18:37:51 | 50.56312 | 11.95187 | 75° | 27km/h | 21078m | -13.3m/s | -52.6°C | 0.9% | 49.3hPa | 2.5V | 00:00:00 | 00:00:00 | 00:00:00 | |
| DB0NH | 2026-09-04 18:37:50 | 50.56312 | 11.95187 | 76° | 24km/h | 21078m | -13.2m/s | -52.5°C | 3.9% | 49.2hPa | 2.5V | 00:00:00 | 02:18:54 | 00:00:00 | |
| DL1XH1-15 | 2026-09-04 18:37:49 | 50.56304 | 11.95125 | 83° | 24km/h | 21161m | -13.5m/s | -52.8°C | 3.9% | 48.6hPa | 2.5V | 08:21:24 | 02:18:48 | 00:00:00 | |
| DL1XH-west | 2026-09-04 18:37:49 | 50.56310 | 11.95176 | 75° | 29km/h | 21091m | -13.6m/s | -52.6°C | 0.2% | 49.2hPa | 2.5V | 08:21:39 | 02:18:53 | 00:00:00 | |
| HSKMA3-T | 2026-09-04 18:37:48 | 50.56308 | 11.95165 | 75° | 27km/h | 21105m | -13.7m/s | -52.7°C | 0.2% | 49.1hPa | 2.5V | 08:21:39 | 02:18:52 | 00:00:00 | |
| AA1-15 | 2026-09-04 18:37:47 | 50.56307 | 11.95155 | 79° | 27km/h | 21119m | -13.9m/s | -52.7°C | 0.2% | 49hPa | 2.5V | 08:29:18 | 02:18:51 | 00:00:00 | |
| DO3MHA-11 | 2026-09-04 18:37:47 | 50.56307 | 11.95155 | 79° | 26km/h | 21119m | -13.9m/s | -52.6°C | 3.8% | 48.9hPa | 2.6V | 00:00:00 | 02:18:51 | 00:00:00 | |
| DM0DOS-11 | 2026-09-04 18:37:46 | 50.56303 | 11.95095 | 89° | 26km/h | 21202m | -13.8m/s | -53.2°C | 4% | 48.3hPa | 2.6V | 08:21:27 | 02:18:45 | 00:00:00 | |
| DF8AY | 2026-09-04 18:37:45 | 50.56305 | 11.95135 | 84° | 26km/h | 21147m | -14.1m/s | -52.7°C | 0.2% | 48.8hPa | 2.6V | 08:21:39 | 02:18:49 | 00:00:00 | |
| DJ2DS-15 | 2026-09-04 18:37:45 | 50.56305 | 11.95134 | 84° | 26km/h | 21147m | -14.0m/s | -52.7°C | 3.9% | 48.7hPa | 2.5V | 00:00:00 | 02:18:49 | 00:00:00 | |
| SONDE2-11 | 2026-09-04 18:37:42 | 50.56303 | 11.95095 | 89° | 26km/h | 21202m | -13.8m/s | -53.2°C | 1.0% | 48.3hPa | 2.5V | 00:00:00 | 00:00:00 | 00:00:00 | |
| DL1XH-15 | 2026-09-04 18:37:41 | 50.56305 | 11.95039 | 96° | 29km/h | 21274m | -14.6m/s | -53.7°C | 4.1% | 47.8hPa | 2.5V | 08:21:32 | 02:18:40 | 00:00:00 | |
| PG1ADW-2 | 2026-09-04 18:37:41 | 50.56303 | 11.95095 | 90° | 24km/h | 21203m | -13.8m/s | -53.1°C | 4.0% | 48.3hPa | 2.6V | 00:00:00 | 02:18:45 | 00:00:00 | |
| OE5DXL-15 | 2026-09-04 18:37:40 | 50.56303 | 11.95084 | 93° | 18km/h | 21217m | -13.9m/s | -53.2°C | 4.0% | 48.2hPa | 2.6V | 00:00:00 | 00:00:00 | 00:00:00 | |
| DL1XH1-15 | 2026-09-04 18:37:39 | 50.56307 | 11.95016 | 102° | 29km/h | 21303m | -14.6m/s | -53.8°C | 4.1% | 47.6hPa | 2.6V | 08:21:34 | 02:18:38 | 00:00:00 | |
| HSKMA3-T | 2026-09-04 18:37:38 | 50.56304 | 11.95062 | 92° | 29km/h | 21245m | -14.1m/s | -53.5°C | 0.4% | 48hPa | 2.5V | 08:21:39 | 02:18:42 | 00:00:00 | |
| AA1-15 | 2026-09-04 18:37:36 | 50.56305 | 11.95039 | 97° | 29km/h | 21274m | -14.6m/s | -53.7°C | 0.4% | 47.8hPa | 2.5V | 08:29:18 | 02:18:40 | 00:00:00 | |
| DF8AY | 2026-09-04 18:37:34 | 50.56307 | 11.95016 | 102° | 29km/h | 21303m | -14.6m/s | -53.8°C | 0.3% | 47.6hPa | 2.6V | 08:21:39 | 02:18:38 | 00:00:00 | |
| DL1XH-15 | 2026-09-04 18:37:31 | 50.56314 | 11.94941 | 98° | 18km/h | 21416m | -13.8m/s | -53.8°C | 4.1% | 46.8hPa | 2.5V | 08:21:42 | 02:18:30 | 00:00:00 | |
| DL6DJ-15 | 2026-09-04 18:37:30 | 50.56312 | 11.94975 | 98° | 24km/h | 21359m | -14.1m/s | -53.8°C | 1.0% | 47.1hPa | 2.5V | 00:00:00 | 00:00:00 | 00:00:00 | |
| DL1XH1-15 | 2026-09-04 18:37:29 | 50.56316 | 11.94926 | 101° | 16km/h | 21444m | -14.1m/s | -53.9°C | 4.2% | 46.6hPa | 2.5V | 08:21:44 | 02:18:28 | 00:00:00 | |
| HSKMA3-T | 2026-09-04 18:37:27 | 50.56314 | 11.94949 | 93° | 20km/h | 21402m | -14.2m/s | -53.8°C | 0.4% | 46.9hPa | 2.6V | 08:22:30 | 02:18:31 | 00:00:00 | |
| AA1-15 | 2026-09-04 18:37:25 | 50.56315 | 11.94933 | 94° | 18km/h | 21430m | -14.1m/s | -53.8°C | 0.4% | 46.6hPa | 2.5V | 08:29:18 | 02:18:29 | 00:00:00 | |
| DF8AY | 2026-09-04 18:37:23 | 50.56316 | 11.94920 | 99° | 16km/h | 21458m | -14.5m/s | -53.9°C | 0.4% | 46.4hPa | 2.6V | 08:22:30 | 02:18:27 | 00:00:00 | |
| D01LWL | 2026-09-04 18:37:22 | 50.56317 | 11.94910 | 107° | 11km/h | 21487m | -14.5m/s | -54.0°C | 1.0% | 46.2hPa | 2.5V | 00:00:00 | 00:00:00 | 00:00:00 | |
| DL1XH-15 | 2026-09-04 18:37:21 | 50.56316 | 11.94899 | 17° | 5km/h | 21559m | -14.5m/s | -53.9°C | 4.2% | 45.7hPa | 2.5V | 08:21:52 | 02:18:20 | 00:00:00 | |
| PG1ADW-2 | 2026-09-04 18:37:21 | 50.56317 | 11.94910 | 108° | 13km/h | 21487m | -14.5m/s | -53.9°C | 4.2% | 46.2hPa | 2.5V | 00:00:00 | 00:00:00 | 00:00:00 | |
| DB0NH | 2026-09-04 18:37:20 | 50.56318 | 11.94906 | 100° | 15km/h | 21502m | -14.4m/s | -53.9°C | 4.3% | 46.1hPa | 2.5V | 00:00:00 | 02:18:24 | 00:00:00 | |
| DL1XH1-15 | 2026-09-04 18:37:19 | 50.56312 | 11.94897 | 19° | 7km/h | 21587m | -13.9m/s | -54.1°C | 4.3% | 45.5hPa | 2.5V | 08:21:54 | 02:18:18 | 00:00:00 | |
| HSKMA3-T | 2026-09-04 18:37:17 | 50.56317 | 11.94899 | 19° | 4km/h | 21545m | -14.2m/s | -53.9°C | 0.4% | 45.8hPa | 2.6V | 08:22:30 | 02:18:21 | 00:00:00 | |
| SONCRA | 2026-09-04 18:37:17 | 50.56316 | 11.94899 | 17° | 4km/h | 21559m | -14.5m/s | -54.0°C | 1.0% | 45.7hPa | 2.5V | 00:00:00 | 00:00:00 | 00:00:00 | |
| DM0DOS-11 | 2026-09-04 18:37:16 | 50.56307 | 11.94891 | 55° | 13km/h | 21632m | -14.6m/s | -54.1°C | 4.4% | 45.2hPa | 2.5V | 08:21:57 | 02:18:15 | 00:00:00 | |
| DL1XH-west | 2026-09-04 18:37:16 | 50.56316 | 11.94899 | 18° | 5km/h | 21559m | -14.5m/s | -54°C | 0.4% | 45.7hPa | 2.5V | 08:22:30 | 02:18:20 | 00:00:00 | |
| DF8AY | 2026-09-04 18:37:12 | 50.56309 | 11.94894 | 43° | 9km/h | 21616m | -15.2m/s | -54.1°C | 0.5% | 45.3hPa | 2.6V | 08:22:30 | 02:18:16 | 00:00:00 | |
| DL1XH-15 | 2026-09-04 18:37:11 | 50.56308 | 11.94855 | 107° | 26km/h | 21703m | -14.1m/s | -54.2°C | 4.5% | 44.7hPa | 2.5V | 08:22:02 | 02:18:10 | 00:00:00 | |
| SONDE2-11 | 2026-09-04 18:37:11 | 50.56306 | 11.94886 | 71° | 13km/h | 21646m | -14.1m/s | -54.1°C | 1.0% | 45.1hPa | 2.5V | 00:00:00 | 00:00:00 | 00:00:00 | |
| OE5DXL-15 | 2026-09-04 18:37:10 | 50.56306 | 11.94886 | 72° | 20km/h | 21646m | -14.0m/s | -54.1°C | 4.4% | 45.0hPa | 2.5V | 08:21:00 | 00:00:00 | 00:00:00 | |
| DL1XH1-15 | 2026-09-04 18:37:09 | 50.56313 | 11.94837 | 114° | 24km/h | 21732m | -14.2m/s | -54.3°C | 4.5% | 44.5hPa | 2.5V | 08:22:04 | 02:18:08 | 00:00:00 | |
| DL1ZP-14 | 2026-09-04 18:37:08 | 50.56306 | 11.94873 | 92° | 20km/h | 21675m | -13.5m/s | -54.1°C | 1.0% | 44.9hPa | 2.6V | 00:00:00 | 00:00:00 | 00:00:00 | |
| DO3MHA-11 | 2026-09-04 18:37:07 | 50.56306 | 11.94864 | 104° | 18km/h | 21689m | -13.9m/s | -54.1°C | 4.4% | 44.7hPa | 2.6V | 00:00:00 | 02:18:11 | 00:00:00 | |
| DM0DOS-11 | 2026-09-04 18:37:06 | 50.56319 | 11.94817 | 113° | 13km/h | 21775m | -14.1m/s | -54.2°C | 4.5% | 44.2hPa | 2.5V | 08:22:07 | 02:18:05 | 00:00:00 | |
| HSKMA3-T | 2026-09-04 18:37:06 | 50.56308 | 11.94855 | 107° | 26km/h | 21703m | -14.1m/s | -54.2°C | 0.6% | 44.7hPa | 2.5V | 08:22:30 | 02:18:10 | 00:00:00 | |
| AA1-15 | 2026-09-04 18:37:05 | 50.56310 | 11.94846 | 112° | 26km/h | 21717m | -14.3m/s | -54.3°C | 0.6% | 44.6hPa | 2.5V | 08:29:18 | 02:18:09 | 00:00:00 | |
| DF8AY | 2026-09-04 18:37:02 | 50.56317 | 11.94822 | 113° | 16km/h | 21761m | -13.9m/s | -54.2°C | 0.6% | 44.3hPa | 2.6V | 08:22:30 | 02:18:06 | 00:00:00 | |
| PG1ADW-2 | 2026-09-04 18:37:01 | 50.56319 | 11.94817 | 114° | 18km/h | 21775m | -14.1m/s | -54.2°C | 4.5% | 44.2hPa | 2.5V | 00:00:00 | 00:00:00 | 00:00:00 | |
| AM1SDL-15 | 2026-09-04 18:37:00 | 50.56320 | 11.94812 | 102° | 16km/h | 21789m | -13.9m/s | -54.1°C | 4.5% | 44.1hPa | 2.5V | 00:00:00 | 02:18:04 | 00:00:00 | |
| DL1XH1-15 | 2026-09-04 18:36:59 | 50.56320 | 11.94781 | 89° | 20km/h | 21875m | -14.4m/s | -53.3°C | 4.2% | 43.5hPa | 2.5V | 08:22:14 | 02:17:58 | 00:00:00 | |
| DO3MHA-11 | 2026-09-04 18:36:57 | 50.56321 | 11.94800 | 86° | 18km/h | 21832m | -14.1m/s | -53.9°C | 4.5% | 43.7hPa | 2.5V | 00:00:00 | 02:18:01 | 00:00:00 | |
| DJTTGO | 2026-09-04 18:36:56 | 50.56321 | 11.94800 | 87° | 13km/h | 21832m | -14.2m/s | -53.9°C | 1.0% | 43.8hPa | 2.5V | 00:00:00 | 00:00:00 | 00:00:00 | |
| DM0DOS-11 | 2026-09-04 18:36:55 | 50.56323 | 11.94748 | 103° | 22km/h | 21933m | -14.2m/s | -53.4°C | 4.2% | 43.1hPa | 2.5V | 08:22:18 | 02:17:54 | 00:00:00 | |
| DL1XH-west | 2026-09-04 18:36:55 | 50.56321 | 11.94788 | 84° | 16km/h | 21861m | -13.7m/s | -53.3°C | 0.4% | 43.6hPa | 2.5V | 08:22:30 | 02:17:59 | 00:00:00 | |
| DF8AY | 2026-09-04 18:36:52 | 50.56321 | 11.94765 | 96° | 22km/h | 21904m | -14.3m/s | -53.3°C | 0.4% | 43.3hPa | 2.6V | 08:22:30 | 02:17:56 | 00:00:00 | |
| D01LWL | 2026-09-04 18:36:51 | 50.56322 | 11.94757 | 98° | 20km/h | 21918m | -14.2m/s | -53.4°C | 1.0% | 43.2hPa | 2.5V | 00:00:00 | 00:00:00 | 00:00:00 | |
| DB0NH | 2026-09-04 18:36:50 | 50.56323 | 11.94748 | 104° | 20km/h | 21933m | -14.1m/s | -53.3°C | 4.2% | 43.1hPa | 2.5V | 00:00:00 | 02:17:54 | 00:00:00 | |
| DL1XH1-15 | 2026-09-04 18:36:49 | 50.56332 | 11.94701 | 107° | 24km/h | 22020m | -15m/s | -52.8°C | 4% | 42.5hPa | 2.5V | 08:22:24 | 02:17:48 | 00:00:00 | |
| SONCRA | 2026-09-04 18:36:46 | 50.56331 | 11.94710 | 107° | 20km/h | 22006m | -14.1m/s | -52.8°C | 1.0% | 42.6hPa | 2.5V | 00:00:00 | 00:00:00 | 00:00:00 | |
| DM0DOS-11 | 2026-09-04 18:36:45 | 50.56342 | 11.94663 | 114° | 27km/h | 22080m | -14.9m/s | -52.8°C | 4% | 42.1hPa | 2.5V | 08:22:28 | 02:17:44 | 00:00:00 | |
| DL1XH-west | 2026-09-04 18:36:45 | 50.56331 | 11.94710 | 108° | 22km/h | 22006m | -14.1m/s | -52.8°C | 0.4% | 42.6hPa | 2.5V | 08:22:30 | 02:17:49 | 00:00:00 | |
| HSKMA3-T | 2026-09-04 18:36:44 | 50.56333 | 11.94701 | 108° | 24km/h | 22020m | -15m/s | -52.8°C | 0.3% | 42.5hPa | 2.5V | 08:22:30 | 02:17:48 | 00:00:00 | |
| DF8AY | 2026-09-04 18:36:42 | 50.56337 | 11.94682 | 113° | 26km/h | 22050m | -14.9m/s | -52.8°C | 0.4% | 42.3hPa | 2.6V | 08:22:30 | 02:17:46 | 00:00:00 | |
| OE5DXL-15 | 2026-09-04 18:36:41 | 50.56342 | 11.94663 | 115° | 15km/h | 22080m | -14.9m/s | -52.8°C | 4.0% | 42.1hPa | 2.5V | 00:00:00 | 00:00:00 | 00:00:00 | |
| SONDE2-11 | 2026-09-04 18:36:40 | 50.56346 | 11.94653 | 121° | 27km/h | 22095m | -15.0m/s | -52.8°C | 0.9% | 42.0hPa | 2.5V | 00:00:00 | 00:00:00 | 00:00:00 | |
| DL1XH1-15 | 2026-09-04 18:36:39 | 50.56367 | 11.94613 | 141° | 24km/h | 22171m | -15.2m/s | -52.7°C | 4% | 41.5hPa | 2.5V | 08:22:34 | 02:17:38 | 00:00:00 | |
| DF8AY | 2026-09-04 18:36:36 | 50.56380 | 11.94597 | 144° | 18km/h | 22216m | -14.9m/s | -52.6°C | 0.3% | 41.3hPa | 2.5V | 08:23:21 | 02:17:35 | 00:00:00 | |
| DM0DOS-11 | 2026-09-04 18:36:35 | 50.56384 | 11.94593 | 145° | 16km/h | 22231m | -15.3m/s | -52.6°C | 3.9% | 41.1hPa | 2.5V | 08:22:38 | 02:17:34 | 00:00:00 | |
| DL1XH-west | 2026-09-04 18:36:34 | 50.56368 | 11.94613 | 141° | 24km/h | 22171m | -15.2m/s | -52.8°C | 0.3% | 41.5hPa | 2.5V | 08:23:21 | 02:17:38 | 00:00:00 | |
| DF7PN | 2026-09-04 18:36:34 | 50.56372 | 11.94607 | 139° | 20km/h | 22186m | -14.2m/s | -52.7°C | 0.9% | 41.4hPa | 2.5V | 00:00:00 | 00:00:00 | 00:00:00 | |
| ANDY1245 | 2026-09-04 18:36:32 | 50.56372 | 11.94607 | 140° | 22km/h | 22187m | -14.2m/s | -52.7°C | 0.9% | 41.4hPa | 2.5V | 00:00:00 | 00:00:00 | 00:00:00 | |
| DL6DJ-15 | 2026-09-04 18:36:28 | 50.56390 | 11.94586 | 146° | 11km/h | 22262m | -15.6m/s | -52.7°C | 0.9% | 41.0hPa | 2.5V | 00:00:00 | 00:00:00 | 00:00:00 | |
| DO3MHA-11 | 2026-09-04 18:36:27 | 50.56392 | 11.94583 | 155° | 9km/h | 22278m | -15.7m/s | -52.7°C | 4.0% | 40.8hPa | 2.5V | 00:00:00 | 02:17:31 | 00:00:00 | |
| DM0DOS-11 | 2026-09-04 18:36:25 | 50.56407 | 11.94573 | 159° | 9km/h | 22387m | -15.6m/s | -52.2°C | 3.8% | 40.2hPa | 2.5V | 08:22:48 | 02:17:24 | 00:00:00 | |
| HSKMA3-T | 2026-09-04 18:36:24 | 50.56399 | 11.94579 | 156° | 9km/h | 22325m | -15.9m/s | -52.5°C | 0.3% | 40.6hPa | 2.5V | 08:23:21 | 02:17:28 | 00:00:00 | |
| DL1XH-west | 2026-09-04 18:36:23 | 50.56401 | 11.94577 | 154° | 7km/h | 22341m | -15.6m/s | -52.3°C | 0.3% | 40.5hPa | 2.6V | 08:23:21 | 02:17:27 | 00:00:00 | |
| DF8AY | 2026-09-04 18:36:20 | 50.56407 | 11.94573 | 160° | 9km/h | 22387m | -15.6m/s | -52.3°C | 0.2% | 40.2hPa | 2.5V | 08:23:21 | 02:17:24 | 00:00:00 | |
| DB0NH | 2026-09-04 18:36:20 | 50.56407 | 11.94573 | 160° | 15km/h | 22388m | -15.5m/s | -52.2°C | 3.8% | 40.1hPa | 2.5V | 00:00:00 | 02:17:24 | 00:00:00 | |
| DL1XH1-15 | 2026-09-04 18:36:19 | 50.56410 | 11.94564 | 50° | 7km/h | 22482m | -16m/s | -52.8°C | 3.9% | 39.6hPa | 2.5V | 08:22:54 | 02:17:18 | 00:00:00 | |
| AM1SDL-15 | 2026-09-04 18:36:18 | 50.56410 | 11.94570 | 141° | 7km/h | 22419m | -15.8m/s | -52.3°C | 3.8% | 39.9hPa | 2.5V | 00:00:00 | 02:17:22 | 00:00:00 | |
| DO3MHA-11 | 2026-09-04 18:36:17 | 50.56410 | 11.94569 | 120° | 9km/h | 22435m | -16.5m/s | -52.3°C | 3.8% | 39.8hPa | 2.5V | 00:00:00 | 02:17:21 | 00:00:00 | |
| DM0DOS-11 | 2026-09-04 18:36:15 | 50.56402 | 11.94554 | 38° | 15km/h | 22545m | -15.9m/s | -53.1°C | 4.1% | 39.2hPa | 2.5V | 08:22:58 | 02:17:14 | 00:00:00 | |
| HSKMA3-T | 2026-09-04 18:36:14 | 50.56410 | 11.94564 | 50° | 7km/h | 22482m | -16m/s | -52.8°C | 0.3% | 39.6hPa | 2.5V | 08:23:21 | 02:17:18 | 00:00:00 | |
| DL1XH-west | 2026-09-04 18:36:12 | 50.56407 | 11.94560 | 41° | 9km/h | 22514m | -15.7m/s | -53°C | 0.3% | 39.4hPa | 2.6V | 08:23:21 | 02:17:16 | 00:00:00 | |
| DB0UT-7 | 2026-09-04 18:36:12 | 50.56407 | 11.94560 | 41° | 20km/h | 22514m | -15.6m/s | -52.9°C | 4.0% | 39.3hPa | 2.5V | 00:00:00 | 00:00:00 | 00:00:00 | |
| DK5PH-5 | 2026-09-04 18:36:11 | 50.56405 | 11.94557 | 34° | 20km/h | 22530m | -15.4m/s | -53.0°C | 4.1% | 39.2hPa | 2.5V | 00:00:00 | 02:17:15 | 00:00:00 | |
| OE5DXL-15 | 2026-09-04 18:36:10 | 50.56402 | 11.94553 | 39° | 22km/h | 22545m | -15.8m/s | -53.1°C | 4.1% | 39.2hPa | 2.5V | 00:00:00 | 00:00:00 | 00:00:00 | |
| DL1XH1-15 | 2026-09-04 18:36:09 | 50.56383 | 11.94525 | 41° | 20km/h | 22640m | -15.9m/s | -53.1°C | 4.1% | 38.6hPa | 2.5V | 08:23:04 | 02:17:08 | 00:00:00 | |
| DF8AY | 2026-09-04 18:36:09 | 50.56399 | 11.94550 | 41° | 15km/h | 22561m | -15.2m/s | -53.1°C | 0.3% | 39.1hPa | 2.5V | 08:23:21 | 02:17:13 | 00:00:00 | |
| AA1-15 | 2026-09-04 18:36:07 | 50.56393 | 11.94541 | 48° | 18km/h | 22592m | -15.7m/s | -53.1°C | 0.4% | 38.9hPa | 2.6V | 08:29:18 | 02:17:11 | 00:00:00 | |
| DO3MHA-11 | 2026-09-04 18:36:07 | 50.56393 | 11.94541 | 49° | 18km/h | 22592m | -15.7m/s | -53.1°C | 4.1% | 38.9hPa | 2.6V | 00:00:00 | 02:17:11 | 00:00:00 | |
| AM1SDL-15 | 2026-09-04 18:36:06 | 50.56390 | 11.94536 | 47° | 18km/h | 22609m | -16.2m/s | -53.0°C | 4.1% | 38.8hPa | 2.5V | 00:00:00 | 02:17:10 | 00:00:00 | |
| DM0DOS-11 | 2026-09-04 18:36:05 | 50.56371 | 11.94505 | 49° | 18km/h | 22704m | -15.5m/s | -53.2°C | 4.2% | 38.2hPa | 2.5V | 08:23:08 | 02:17:04 | 00:00:00 | |
| HSKMA3-T | 2026-09-04 18:36:04 | 50.56383 | 11.94525 | 41° | 20km/h | 22640m | -15.9m/s | -53.1°C | 0.4% | 38.6hPa | 2.5V | 08:23:21 | 02:17:08 | 00:00:00 | |
| DL1XH-west | 2026-09-04 18:36:01 | 50.56374 | 11.94510 | 50° | 16km/h | 22688m | -16m/s | -53.2°C | 0.5% | 38.3hPa | 2.5V | 08:23:21 | 02:17:05 | 00:00:00 | |
| PG1ADW-2 | 2026-09-04 18:36:01 | 50.56374 | 11.94510 | 50° | 22km/h | 22689m | -15.9m/s | -53.1°C | 4.2% | 38.3hPa | 2.5V | 00:00:00 | 00:00:00 | 00:00:00 | |
| DH8WE-5 | 2026-09-04 18:36:00 | 50.56374 | 11.94510 | 51° | 16km/h | 22689m | -16.0m/s | -53.2°C | 1.0% | 38.3hPa | 2.5V | 08:23:00 | 00:00:00 | 00:00:00 | |
| DL1XH1-15 | 2026-09-04 18:35:59 | 50.56363 | 11.94463 | 86° | 24km/h | 22798m | -14.9m/s | -53.4°C | 4.3% | 37.7hPa | 2.5V | 08:23:14 | 02:16:58 | 00:00:00 | |
| DF8AY | 2026-09-04 18:35:58 | 50.56366 | 11.94493 | 69° | 16km/h | 22736m | -15.8m/s | -53.3°C | 0.4% | 38hPa | 2.6V | 08:23:21 | 02:17:02 | 00:00:00 | |
| HSKMA3-T | 2026-09-04 18:35:54 | 50.56363 | 11.94463 | 87° | 24km/h | 22798m | -14.9m/s | -53.4°C | 0.5% | 37.7hPa | 2.5V | 08:23:21 | 02:16:58 | 00:00:00 | |
| DL1XH-west | 2026-09-04 18:35:51 | 50.56364 | 11.94432 | 101° | 27km/h | 22845m | -15.6m/s | -53.4°C | 0.5% | 37.4hPa | 2.5V | 08:23:21 | 02:16:55 | 00:00:00 | |
| DM0DOS-11 | 2026-09-04 18:35:50 | 50.56365 | 11.94421 | 102° | 27km/h | 22861m | -16m/s | -53.3°C | 4.3% | 37.3hPa | 2.5V | 08:23:18 | 02:16:54 | 00:00:00 | |
| D01LWL | 2026-09-04 18:35:49 | 50.56367 | 11.94410 | 100° | 26km/h | 22877m | -15.5m/s | -53.3°C | 1.0% | 37.2hPa | 2.5V | 00:00:00 | 00:00:00 | 00:00:00 | |
| DL1XH-15 | 2026-09-04 18:35:48 | 50.56376 | 11.94366 | 112° | 22km/h | 22955m | -16m/s | -52.8°C | 4.1% | 36.8hPa | 2.5V | 08:23:24 | 02:16:48 | 00:00:00 | |
| DF8AY | 2026-09-04 18:35:48 | 50.56368 | 11.94400 | 101° | 26km/h | 22893m | -15.4m/s | -53.1°C | 0.5% | 37.1hPa | 2.6V | 08:23:21 | 02:16:52 | 00:00:00 | |
| HSKMA3-T | 2026-09-04 18:35:44 | 50.56375 | 11.94366 | 113° | 22km/h | 22955m | -16m/s | -52.8°C | 0.3% | 36.8hPa | 2.5V | 08:24:12 | 02:16:48 | 00:00:00 | |
| DL1XH-west | 2026-09-04 18:35:41 | 50.56383 | 11.94340 | 115° | 26km/h | 23003m | -16m/s | -52.5°C | 0.3% | 36.5hPa | 2.5V | 08:24:12 | 02:16:45 | 00:00:00 | |
| DM0DOS-11 | 2026-09-04 18:35:40 | 50.56386 | 11.94331 | 115° | 26km/h | 23018m | -15.8m/s | -52.5°C | 4% | 36.4hPa | 2.5V | 08:23:28 | 02:16:44 | 00:00:00 | |
| DF8AY | 2026-09-04 18:35:37 | 50.56394 | 11.94302 | 109° | 27km/h | 23066m | -16.1m/s | -52.3°C | 0.3% | 36.1hPa | 2.6V | 08:24:12 | 02:16:41 | 00:00:00 | |
| HSKMA3-T | 2026-09-04 18:35:33 | 50.56404 | 11.94269 | 122° | 18km/h | 23130m | -15.3m/s | -52.1°C | 0.3% | 35.8hPa | 2.6V | 08:24:12 | 02:16:37 | 00:00:00 | |
| DL1XH-west | 2026-09-04 18:35:30 | 50.56409 | 11.94255 | 112° | 9km/h | 23178m | -15.8m/s | -52.2°C | 0.3% | 35.5hPa | 2.5V | 08:24:12 | 02:16:34 | 00:00:00 | |
| KRY50SP | 2026-09-04 18:35:29 | 50.56409 | 11.94255 | 113° | 9km/h | 23179m | -15.8m/s | -52.2°C | 0.9% | 35.5hPa | 2.5V | 00:00:00 | 00:00:00 | 00:00:00 | |
| DL1XH-15 | 2026-09-04 18:35:27 | 50.56408 | 11.94247 | 31° | 4km/h | 23274m | -16.4m/s | -52°C | 3.8% | 35hPa | 2.5V | 08:23:44 | 02:16:28 | 00:00:00 | |
| DF8AY | 2026-09-04 18:35:26 | 50.56409 | 11.94248 | 44° | 4km/h | 23242m | -15.6m/s | -52.1°C | 0.2% | 35.2hPa | 2.5V | 08:24:12 | 02:16:30 | 00:00:00 | |
| HSKMA3-T | 2026-09-04 18:35:22 | 50.56406 | 11.94245 | 66° | 4km/h | 23305m | -15.7m/s | -52.1°C | 0.3% | 34.8hPa | 2.6V | 08:24:12 | 02:16:26 | 00:00:00 | |
| DF8AY | 2026-09-04 18:35:20 | 50.56407 | 11.94230 | 89° | 7km/h | 23421m | -16.8m/s | -52.3°C | 0.3% | 34.2hPa | 2.5V | 08:24:12 | 02:16:19 | 00:00:00 | |
| DL1XH-west | 2026-09-04 18:35:19 | 50.56407 | 11.94241 | 98° | 5km/h | 23354m | -16.5m/s | -52.3°C | 0.3% | 34.5hPa | 2.5V | 08:24:12 | 02:16:23 | 00:00:00 | |
| SP3BTT-10 | 2026-09-04 18:35:19 | 50.56407 | 11.94240 | 99° | 9km/h | 23354m | -16.5m/s | -52.3°C | 4.0% | 34.5hPa | 2.5V | 00:00:00 | 00:00:00 | 00:00:00 | |
| DL1XH-15 | 2026-09-04 18:35:17 | 50.56407 | 11.94227 | 96° | 9km/h | 23437m | -16.3m/s | -52.3°C | 4% | 34.1hPa | 2.5V | 08:23:54 | 02:16:18 | 00:00:00 | |
| DO3MHA-11 | 2026-09-04 18:35:17 | 50.56407 | 11.94236 | 90° | 13km/h | 23387m | -16.8m/s | -52.2°C | 4.0% | 34.3hPa | 2.5V | 00:00:00 | 02:16:21 | 00:00:00 | |
| ANDY1245 | 2026-09-04 18:35:16 | 50.56407 | 11.94236 | 90° | 7km/h | 23387m | -16.8m/s | -52.3°C | 0.9% | 34.4hPa | 2.5V | 00:00:00 | 00:00:00 | 00:00:00 | |
| DM0DOS-11 | 2026-09-04 18:35:15 | 50.56413 | 11.94210 | 136° | 18km/h | 23505m | -16.6m/s | -52.4°C | 3.9% | 33.7hPa | 2.5V | 08:23:58 | 02:16:14 | 00:00:00 | |
| HSKMA3-T | 2026-09-04 18:35:11 | 50.56410 | 11.94215 | 129° | 15km/h | 23488m | -16.9m/s | -52.3°C | 0.3% | 33.8hPa | 2.5V | 08:24:12 | 02:16:15 | 00:00:00 | |
| DL1XH-west | 2026-09-04 18:35:08 | 50.56421 | 11.94200 | 145° | 24km/h | 23538m | -16.8m/s | -52.5°C | 0.3% | 33.6hPa | 2.6V | 08:24:12 | 02:16:12 | 00:00:00 | |
| DL1XH-15 | 2026-09-04 18:35:07 | 50.56446 | 11.94180 | 157° | 31km/h | 23605m | -17.1m/s | -52.3°C | 3.9% | 33.2hPa | 2.5V | 08:24:04 | 02:16:08 | 00:00:00 | |
| SONDE2-11 | 2026-09-04 18:35:07 | 50.56433 | 11.94190 | 153° | 27km/h | 23572m | -16.4m/s | -52.5°C | 0.9% | 33.4hPa | 2.6V | 00:00:00 | 00:00:00 | 00:00:00 | |
| EDDB2-11 | 2026-09-04 18:35:06 | 50.56439 | 11.94185 | 154° | 29km/h | 23588m | -16.4m/s | -52.5°C | 0.9% | 33.3hPa | 2.6V | 00:00:00 | 00:00:00 | 00:00:00 | |
| DM0DOS-11 | 2026-09-04 18:35:05 | 50.56475 | 11.94163 | 160° | 27km/h | 23672m | -17.3m/s | -52°C | 3.8% | 32.9hPa | 2.6V | 08:24:08 | 02:16:04 | 00:00:00 | |
| DF8AY | 2026-09-04 18:35:05 | 50.56439 | 11.94185 | 154° | 31km/h | 23588m | -16.4m/s | -52.5°C | 0.3% | 33.3hPa | 2.5V | 08:24:12 | 02:16:09 | 00:00:00 | |
| HSKMA3-T | 2026-09-04 18:35:00 | 50.56475 | 11.94163 | 161° | 27km/h | 23672m | -17.3m/s | -52°C | 0.2% | 32.9hPa | 2.6V | 08:24:12 | 02:16:04 | 00:00:00 | |
| DL3JIN-12 | 2026-09-04 18:34:58 | 50.56481 | 11.94160 | 162° | 26km/h | 23689m | -16.6m/s | -52.0°C | 0.9% | 32.8hPa | 2.5V | 08:24:00 | 00:00:00 | 00:00:00 | |
| DL1XH-15 | 2026-09-04 18:34:57 | 50.56512 | 11.94148 | 173° | 27km/h | 23774m | -16.9m/s | -52.2°C | 3.8% | 32.4hPa | 2.5V | 08:24:14 | 02:15:58 | 00:00:00 | |
| DL1XH-west | 2026-09-04 18:34:57 | 50.56493 | 11.94154 | 165° | 24km/h | 23723m | -17.1m/s | -52°C | 0.2% | 32.6hPa | 2.5V | 08:24:12 | 02:16:01 | 00:00:00 | |
| DO3MHA-11 | 2026-09-04 18:34:57 | 50.56493 | 11.94154 | 165° | 29km/h | 23723m | -17.0m/s | -52.0°C | 3.8% | 32.6hPa | 2.6V | 00:00:00 | 02:16:01 | 00:00:00 | |
| DM0DOS-11 | 2026-09-04 18:34:55 | 50.56543 | 11.94148 | 184° | 31km/h | 23842m | -17.4m/s | -52.5°C | 4% | 32hPa | 2.6V | 08:24:18 | 02:15:54 | 00:00:00 | |
| DF8AY | 2026-09-04 18:34:54 | 50.56512 | 11.94148 | 173° | 27km/h | 23774m | -16.9m/s | -52.2°C | 0.2% | 32.4hPa | 2.5V | 08:25:03 | 02:15:58 | 00:00:00 | |
| HSKMA3-T | 2026-09-04 18:34:50 | 50.56543 | 11.94148 | 185° | 31km/h | 23842m | -17.4m/s | -52.5°C | 0.3% | 32hPa | 2.6V | 08:25:03 | 02:15:54 | 00:00:00 | |
| AU51GT2 | 2026-09-04 18:34:50 | 50.56550 | 11.94149 | 186° | 29km/h | 23860m | -17.4m/s | -52.6°C | 0.9% | 31.9hPa | 2.5V | 00:00:00 | 00:00:00 | 00:00:00 | |
| OE5FHM-15 | 2026-09-04 18:34:49 | 50.56550 | 11.94149 | 187° | 20km/h | 23860m | -17.3m/s | -52.6°C | 4.0% | 31.9hPa | 2.5V | 00:00:00 | 02:15:53 | 00:00:00 | |
| OE5DRO-10 | 2026-09-04 18:34:48 | 50.56558 | 11.94151 | 191° | 16km/h | 23877m | -17.6m/s | -52.7°C | 4.0% | 31.8hPa | 2.5V | 00:00:00 | 00:00:00 | 00:00:00 | |
| DL1XH-15 | 2026-09-04 18:34:47 | 50.56579 | 11.94164 | 216° | 16km/h | 23947m | -17m/s | -52.8°C | 4.1% | 31.5hPa | 2.5V | 08:24:24 | 02:15:48 | 00:00:00 | |
| DL1XH-west | 2026-09-04 18:34:47 | 50.56564 | 11.94153 | 194° | 26km/h | 23894m | -17.2m/s | -52.8°C | 0.4% | 31.7hPa | 2.5V | 08:25:03 | 02:15:51 | 00:00:00 | |
| D01LWL | 2026-09-04 18:34:47 | 50.56575 | 11.94160 | 208° | 18km/h | 23930m | -17.2m/s | -52.8°C | 0.9% | 31.6hPa | 2.5V | 00:00:00 | 00:00:00 | 00:00:00 | |
| AA1-15 | 2026-09-04 18:34:44 | 50.56579 | 11.94164 | 217° | 16km/h | 23947m | -17m/s | -52.8°C | 0.3% | 31.5hPa | 2.5V | 08:29:18 | 02:15:48 | 00:00:00 | |
| DF8AY | 2026-09-04 18:34:43 | 50.56582 | 11.94168 | 227° | 13km/h | 23964m | -17.5m/s | -52.8°C | 0.3% | 31.4hPa | 2.5V | 08:25:03 | 02:15:47 | 00:00:00 | |
| HSKMA3-T | 2026-09-04 18:34:40 | 50.56586 | 11.94176 | 230° | 5km/h | 24016m | -17.5m/s | -52.9°C | 0.4% | 31.2hPa | 2.6V | 08:25:03 | 02:15:44 | 00:00:00 | |
| DL1XH-west | 2026-09-04 18:34:36 | 50.56592 | 11.94176 | 158° | 11km/h | 24088m | -17.8m/s | -52.8°C | 0.4% | 30.8hPa | 2.6V | 08:25:03 | 02:15:40 | 00:00:00 | |
| DF8AY | 2026-09-04 18:34:32 | 50.56609 | 11.94168 | 172° | 24km/h | 24158m | -17.4m/s | -52.7°C | 0.4% | 30.5hPa | 2.5V | 08:25:03 | 02:15:36 | 00:00:00 | |
| HSKMA3-T | 2026-09-04 18:34:30 | 50.56622 | 11.94167 | 185° | 29km/h | 24194m | -17.2m/s | -52.5°C | 0.4% | 30.3hPa | 2.6V | 08:25:03 | 02:15:34 | 00:00:00 | |
| DB0UT-7 | 2026-09-04 18:34:30 | 50.56622 | 11.94167 | 185° | 18km/h | 24194m | -17.1m/s | -52.4°C | 4.1% | 30.3hPa | 2.6V | 00:00:00 | 00:00:00 | 00:00:00 | |
| OE5DRO-10 | 2026-09-04 18:34:29 | 50.56630 | 11.94169 | 190° | 20km/h | 24211m | -17.3m/s | -52.3°C | 4.1% | 30.2hPa | 2.5V | 00:00:00 | 00:00:00 | 00:00:00 | |
| DL1XH-15 | 2026-09-04 18:34:27 | 50.56665 | 11.94187 | 205° | 26km/h | 24299m | -17.5m/s | -51.8°C | 3.8% | 29.8hPa | 2.5V | 08:24:44 | 02:15:28 | 00:00:00 | |
| DO3MHA-11 | 2026-09-04 18:34:27 | 50.56645 | 11.94175 | 197° | 22km/h | 24246m | -17.4m/s | -52.0°C | 4.0% | 30.0hPa | 2.6V | 00:00:00 | 02:15:31 | 00:00:00 | |
| DM0DOS-11 | 2026-09-04 18:34:25 | 50.56683 | 11.94202 | 213° | 16km/h | 24369m | -17.4m/s | -51.7°C | 3.8% | 29.5hPa | 2.6V | 08:24:48 | 02:15:24 | 00:00:00 | |
| DL1XH-west | 2026-09-04 18:34:25 | 50.56659 | 11.94183 | 204° | 27km/h | 24281m | -17.6m/s | -51.8°C | 0.3% | 29.9hPa | 2.6V | 08:25:03 | 02:15:29 | 00:00:00 | |
| DF8AY | 2026-09-04 18:34:22 | 50.56675 | 11.94195 | 207° | 20km/h | 24334m | -17.3m/s | -51.7°C | 0.2% | 29.6hPa | 2.5V | 08:25:03 | 02:15:26 | 00:00:00 | |
| HSKMA3-T | 2026-09-04 18:34:19 | 50.56686 | 11.94206 | 218° | 16km/h | 24386m | -17.2m/s | -51.8°C | 0.2% | 29.4hPa | 2.5V | 08:25:03 | 02:15:23 | 00:00:00 | |
| S52SK | 2026-09-04 18:34:18 | 50.56686 | 11.94206 | 219° | 16km/h | 24386m | -17.2m/s | -51.7°C | 0.9% | 29.4hPa | 2.6V | 00:00:00 | 00:00:00 | 00:00:00 | |
| DL1XH-15 | 2026-09-04 18:34:17 | 50.56696 | 11.94233 | 257° | 16km/h | 24475m | -17.9m/s | -51.6°C | 3.8% | 29hPa | 2.6V | 08:24:54 | 02:15:18 | 00:00:00 | |
| DO3MHA-11 | 2026-09-04 18:34:17 | 50.56691 | 11.94215 | 237° | 15km/h | 24421m | -17.8m/s | -51.7°C | 3.8% | 29.2hPa | 2.5V | 00:00:00 | 02:15:21 | 00:00:00 | |
| D01LWL | 2026-09-04 18:34:16 | 50.56695 | 11.94227 | 251° | 16km/h | 24457m | -17.8m/s | -51.7°C | 0.9% | 29.1hPa | 2.5V | 00:00:00 | 00:00:00 | 00:00:00 | |
| DM0DOS-11 | 2026-09-04 18:34:15 | 50.56696 | 11.94256 | 282° | 11km/h | 24546m | -17.3m/s | -51.5°C | 3.7% | 28.7hPa | 2.5V | 08:24:58 | 02:15:14 | 00:00:00 | |
| DL1XH-west | 2026-09-04 18:34:15 | 50.56695 | 11.94227 | 252° | 16km/h | 24457m | -17.8m/s | -51.7°C | 0.2% | 29.1hPa | 2.6V | 08:25:03 | 02:15:19 | 00:00:00 | |
| DF8AY | 2026-09-04 18:34:11 | 50.56696 | 11.94251 | 280° | 13km/h | 24528m | -18.1m/s | -51.6°C | 0.2% | 28.8hPa | 2.5V | 08:25:03 | 02:15:15 | 00:00:00 | |
| HSKMA3-T | 2026-09-04 18:34:08 | 50.56693 | 11.94262 | 318° | 9km/h | 24582m | -18.1m/s | -51.6°C | 0.2% | 28.5hPa | 2.6V | 08:25:03 | 02:15:12 | 00:00:00 | |
| DL1XH-15 | 2026-09-04 18:34:07 | 50.56684 | 11.94269 | 337° | 13km/h | 24655m | -18.3m/s | -51.6°C | 3.8% | 28.2hPa | 2.6V | 08:25:04 | 02:15:08 | 00:00:00 | |
| AA1-15 | 2026-09-04 18:34:06 | 50.56689 | 11.94266 | 329° | 9km/h | 24619m | -18m/s | -51.7°C | 0.2% | 28.4hPa | 2.5V | 08:29:18 | 02:15:10 | 00:00:00 | |
| PETON7-10 | 2026-09-04 18:34:06 | 50.56689 | 11.94266 | 330° | 15km/h | 24619m | -17.9m/s | -51.6°C | 3.8% | 28.3hPa | 2.5V | 00:00:00 | 02:15:10 | 00:00:00 | |
| DM0DOS-11 | 2026-09-04 18:34:05 | 50.56669 | 11.94281 | 334° | 18km/h | 24727m | -17.6m/s | -51.7°C | 3.8% | 27.9hPa | 2.5V | 08:25:08 | 02:15:04 | 00:00:00 | |
| DL1XH-west | 2026-09-04 18:34:04 | 50.56684 | 11.94270 | 337° | 15km/h | 24655m | -18.3m/s | -51.6°C | 0.2% | 28.2hPa | 2.6V | 08:25:54 | 02:15:08 | 00:00:00 | |
| DF8AY | 2026-09-04 18:34:01 | 50.56673 | 11.94278 | 330° | 18km/h | 24710m | -17.7m/s | -51.8°C | 0.2% | 28hPa | 2.5V | 08:25:54 | 02:15:05 | 00:00:00 | |
| HSKMA3-T | 2026-09-04 18:33:58 | 50.56661 | 11.94288 | 332° | 16km/h | 24763m | -18.2m/s | -51.8°C | 0.2% | 27.8hPa | 2.6V | 08:25:54 | 02:15:02 | 00:00:00 | |
| DO3MHA-11 | 2026-09-04 18:33:57 | 50.56657 | 11.94291 | 336° | 13km/h | 24781m | -17.8m/s | -51.8°C | 3.9% | 27.6hPa | 2.5V | 00:00:00 | 02:15:01 | 00:00:00 | |
| DH8WE-5 | 2026-09-04 18:33:56 | 50.56657 | 11.94291 | 336° | 15km/h | 24781m | -17.8m/s | -51.9°C | 0.9% | 27.7hPa | 2.5V | 08:25:00 | 00:00:00 | 00:00:00 | |
| DM0DOS-11 | 2026-09-04 18:33:55 | 50.56637 | 11.94288 | 29° | 15km/h | 24910m | -17.9m/s | -51.7°C | 3.8% | 27.1hPa | 2.5V | 08:25:18 | 02:14:54 | 00:00:00 | |
| DL1XH-west | 2026-09-04 18:33:53 | 50.56646 | 11.94294 | 13° | 13km/h | 24855m | -18.4m/s | -52°C | 0.3% | 27.4hPa | 2.6V | 08:25:54 | 02:14:57 | 00:00:00 | |
| DF8AY | 2026-09-04 18:33:50 | 50.56637 | 11.94288 | 29° | 15km/h | 24910m | -17.9m/s | -51.7°C | 0.2% | 27.1hPa | 2.5V | 08:25:54 | 02:14:54 | 00:00:00 | |
| HSKMA3-T | 2026-09-04 18:33:47 | 50.56627 | 11.94280 | 31° | 15km/h | 24963m | -17.9m/s | -51.5°C | 0.2% | 26.9hPa | 2.6V | 08:25:54 | 02:14:51 | 00:00:00 | |
| DO3MHA-11 | 2026-09-04 18:33:47 | 50.56627 | 11.94280 | 32° | 11km/h | 24964m | -17.9m/s | -51.4°C | 3.8% | 26.8hPa | 2.5V | 00:00:00 | 02:14:51 | 00:00:00 | |
| DL1XH-15 | 2026-09-04 18:33:46 | 50.56620 | 11.94274 | 26° | 11km/h | 25017m | -17.9m/s | -51.5°C | 3.8% | 26.6hPa | 2.5V | 08:25:24 | 02:14:48 | 00:00:00 | |
| DM0DOS-11 | 2026-09-04 18:33:45 | 50.56611 | 11.94272 | 355° | 9km/h | 25090m | -18.1m/s | -51.6°C | 3.8% | 26.4hPa | 2.5V | 08:25:28 | 02:14:44 | 00:00:00 | |
| DL1XH-west | 2026-09-04 18:33:43 | 50.56617 | 11.94272 | 22° | 7km/h | 25035m | -18.2m/s | -51.5°C | 0.2% | 26.6hPa | 2.5V | 08:25:54 | 02:14:47 | 00:00:00 | |
| DF8AY | 2026-09-04 18:33:39 | 50.56609 | 11.94272 | 355° | 11km/h | 25109m | -18.8m/s | -51.7°C | 0.2% | 26.3hPa | 2.5V | 08:25:54 | 02:14:43 | 00:00:00 | |
| OE5FHM-15 | 2026-09-04 18:33:39 | 50.56609 | 11.94272 | 356° | 16km/h | 25109m | -18.7m/s | -51.7°C | 3.8% | 26.3hPa | 2.5V | 00:00:00 | 02:14:43 | 00:00:00 | |
| DJ2DS-15 | 2026-09-04 18:33:38 | 50.56606 | 11.94273 | 347° | 9km/h | 25127m | -18.4m/s | -51.8°C | 0.8% | 26.2hPa | 2.5V | 00:00:00 | 00:00:00 | 00:00:00 | |
| DO3MHA-11 | 2026-09-04 18:33:37 | 50.56603 | 11.94273 | 351° | 9km/h | 25146m | -18.0m/s | -51.8°C | 3.8% | 26.1hPa | 2.5V | 08:25:00 | 02:14:41 | 00:00:00 | |
| DL1XH-15 | 2026-09-04 18:33:36 | 50.56594 | 11.94276 | 345° | 13km/h | 25201m | -18.6m/s | -52°C | 3.9% | 25.9hPa | 2.6V | 08:25:34 | 02:14:38 | 00:00:00 | |
| HSKMA3-T | 2026-09-04 18:33:36 | 50.56600 | 11.94274 | 353° | 13km/h | 25163m | -18.1m/s | -52°C | 0.3% | 26.1hPa | 2.6V | 08:25:54 | 02:14:40 | 00:00:00 | |
| DM0DOS-11 | 2026-09-04 18:33:35 | 50.56584 | 11.94280 | 343° | 7km/h | 25274m | -18.1m/s | -51.8°C | 3.9% | 25.6hPa | 2.6V | 08:25:38 | 02:14:34 | 00:00:00 | |
| DL1XH-west | 2026-09-04 18:33:33 | 50.56591 | 11.94277 | 351° | 11km/h | 25219m | -18.6m/s | -52°C | 0.3% | 25.8hPa | 2.5V | 08:25:54 | 02:14:37 | 00:00:00 | |
| DF8AY | 2026-09-04 18:33:28 | 50.56581 | 11.94282 | 344° | 7km/h | 25312m | -19.2m/s | -51.7°C | 0.2% | 25.5hPa | 2.5V | 08:25:54 | 02:14:32 | 00:00:00 | |
| ANDY1245 | 2026-09-04 18:33:27 | 50.56579 | 11.94282 | 350° | 9km/h | 25331m | -18.8m/s | -51.8°C | 0.9% | 25.4hPa | 2.6V | 00:00:00 | 00:00:00 | 00:00:00 | |
| DL1XH-15 | 2026-09-04 18:33:26 | 50.56572 | 11.94286 | 346° | 15km/h | 25389m | -19.6m/s | -52°C | 4% | 25.1hPa | 2.6V | 08:25:44 | 02:14:28 | 00:00:00 | |
| HSKMA3-T | 2026-09-04 18:33:26 | 50.56577 | 11.94283 | 345° | 9km/h | 25350m | -20m/s | -51.8°C | 0.2% | 25.3hPa | 2.5V | 08:25:54 | 02:14:30 | 00:00:00 | |
| DL1XH-west | 2026-09-04 18:33:22 | 50.56563 | 11.94289 | 349° | 18km/h | 25426m | -18.4m/s | -52.1°C | 0.4% | 25hPa | 2.5V | 08:25:54 | 02:14:26 | 00:00:00 | |
| DF8AY | 2026-09-04 18:33:17 | 50.56535 | 11.94296 | 354° | 24km/h | 25522m | -19.4m/s | -52.2°C | 0.4% | 24.6hPa | 2.6V | 08:25:54 | 02:14:21 | 00:00:00 | |
| DB0UT-7 | 2026-09-04 18:33:17 | 50.56535 | 11.94296 | 354° | 16km/h | 25522m | -19.4m/s | -52.2°C | 4.2% | 24.6hPa | 2.5V | 00:00:00 | 00:00:00 | 00:00:00 | |
| DL1XH-15 | 2026-09-04 18:33:16 | 50.56518 | 11.94298 | 0° | 20km/h | 25580m | -19.4m/s | -52.1°C | 4.2% | 24.4hPa | 2.5V | 08:25:54 | 02:14:18 | 00:00:00 | |
| HSKMA3-T | 2026-09-04 18:33:16 | 50.56529 | 11.94297 | 356° | 24km/h | 25542m | -19.3m/s | -52.3°C | 0.5% | 24.6hPa | 2.5V | 08:25:54 | 02:14:20 | 00:00:00 | |
| DL1XH-west | 2026-09-04 18:33:11 | 50.56503 | 11.94295 | 14° | 22km/h | 25638m | -19.6m/s | -51.9°C | 0.5% | 24.2hPa | 2.5V | 08:26:45 | 02:14:15 | 00:00:00 | |
| DF8AY | 2026-09-04 18:33:07 | 50.56481 | 11.94281 | 33° | 26km/h | 25716m | -19.7m/s | -51.5°C | 0.4% | 23.9hPa | 2.6V | 08:26:45 | 02:14:11 | 00:00:00 | |
| HSKMA3-T | 2026-09-04 18:33:05 | 50.56471 | 11.94269 | 48° | 22km/h | 25756m | -19.8m/s | -51.3°C | 0.4% | 23.7hPa | 2.5V | 08:26:45 | 02:14:09 | 00:00:00 | |
| AA1-15 | 2026-09-04 18:33:01 | 50.56466 | 11.94242 | 105° | 15km/h | 25834m | -19.2m/s | -50.8°C | 0.3% | 23.5hPa | 2.6V | 08:29:18 | 02:14:05 | 00:00:00 | |
| DL1XH-west | 2026-09-04 18:33:00 | 50.56467 | 11.94237 | 118° | 15km/h | 25853m | -19.2m/s | -50.7°C | 0.2% | 23.4hPa | 2.6V | 08:26:45 | 02:14:04 | 00:00:00 | |
| DF7PN | 2026-09-04 18:32:57 | 50.56474 | 11.94219 | 112° | 11km/h | 25931m | -19.6m/s | -50.3°C | 0.8% | 23.1hPa | 2.5V | 00:00:00 | 00:00:00 | 00:00:00 | |
| DL1XH-15 | 2026-09-04 18:32:56 | 50.56475 | 11.94211 | 81° | 11km/h | 25970m | -19.6m/s | -50°C | 3.8% | 23hPa | 2.5V | 08:26:14 | 02:13:58 | 00:00:00 | |
| DF8AY | 2026-09-04 18:32:56 | 50.56474 | 11.94219 | 112° | 11km/h | 25931m | -19.6m/s | -50.3°C | 0.2% | 23.1hPa | 2.6V | 08:26:45 | 02:14:00 | 00:00:00 | |
| HSKMA3-T | 2026-09-04 18:32:55 | 50.56475 | 11.94215 | 94° | 9km/h | 25951m | -19.1m/s | -50.2°C | 0.2% | 23.1hPa | 2.6V | 08:26:45 | 02:13:59 | 00:00:00 | |
| DL1XH-west | 2026-09-04 18:32:49 | 50.56470 | 11.94178 | 79° | 18km/h | 26066m | -19.7m/s | -49.6°C | 0.2% | 22.6hPa | 2.5V | 08:26:45 | 02:13:53 | 00:00:00 | |
| DO3MHA-11 | 2026-09-04 18:32:47 | 50.56469 | 11.94164 | 89° | 13km/h | 26106m | -18.6m/s | -49.3°C | 3.7% | 22.5hPa | 2.6V | 00:00:00 | 02:13:51 | 00:00:00 | |
| DL1XH-15 | 2026-09-04 18:32:46 | 50.56471 | 11.94145 | 108° | 13km/h | 26165m | -20m/s | -49°C | 3.6% | 22.3hPa | 2.6V | 08:26:24 | 02:13:48 | 00:00:00 | |
| DF8AY | 2026-09-04 18:32:46 | 50.56469 | 11.94157 | 95° | 16km/h | 26125m | -20.4m/s | -49.2°C | 0.1% | 22.4hPa | 2.5V | 08:26:45 | 02:13:50 | 00:00:00 | |
| HSKMA3-T | 2026-09-04 18:32:45 | 50.56470 | 11.94151 | 102° | 15km/h | 26145m | -19.9m/s | -49.1°C | 0.1% | 22.4hPa | 2.6V | 08:26:45 | 02:13:49 | 00:00:00 | |
| DL1XH-west | 2026-09-04 18:32:38 | 50.56484 | 11.94127 | 148° | 13km/h | 26289m | -21.3m/s | -48.7°C | 0.1% | 21.9hPa | 2.6V | 08:26:45 | 02:13:42 | 00:00:00 | |
| DO3MHA-11 | 2026-09-04 18:32:37 | 50.56487 | 11.94123 | 138° | 13km/h | 26311m | -20.5m/s | -48.5°C | 3.5% | 21.8hPa | 2.5V | 00:00:00 | 02:13:41 | 00:00:00 | |
| DL1XH-15 | 2026-09-04 18:32:36 | 50.56495 | 11.94109 | 122° | 16km/h | 26373m | -20.6m/s | -48°C | 3.4% | 21.6hPa | 2.5V | 08:26:34 | 02:13:38 | 00:00:00 | |
| DF8AY | 2026-09-04 18:32:36 | 50.56490 | 11.94119 | 131° | 15km/h | 26331m | -20.8m/s | -48.4°C | 0% | 21.7hPa | 2.5V | 08:26:45 | 02:13:40 | 00:00:00 | |
| DM0DOS-11 | 2026-09-04 18:32:35 | 50.56503 | 11.94091 | 138° | 9km/h | 26458m | -21.2m/s | -47.2°C | 3.1% | 21.3hPa | 2.5V | 08:26:38 | 02:13:34 | 00:00:00 | |
| HSKMA3-T | 2026-09-04 18:32:35 | 50.56492 | 11.94114 | 129° | 16km/h | 26352m | -21.3m/s | -48.2°C | 0% | 21.6hPa | 2.5V | 08:26:45 | 02:13:39 | 00:00:00 | |
| DL1XH-west | 2026-09-04 18:32:28 | 50.56506 | 11.94089 | 204° | 5km/h | 26501m | -21.2m/s | -47°C | 0% | 21.2hPa | 2.5V | 08:26:45 | 02:13:32 | 00:00:00 | |
| DO3MHA-11 | 2026-09-04 18:32:27 | 50.56507 | 11.94091 | 234° | 15km/h | 26522m | -20.9m/s | -47.0°C | 3.1% | 21.1hPa | 2.5V | 00:00:00 | 02:13:31 | 00:00:00 | |
| DL1XH-15 | 2026-09-04 18:32:26 | 50.56511 | 11.94104 | 250° | 16km/h | 26585m | -20.9m/s | -47.1°C | 3.1% | 20.9hPa | 2.5V | 08:26:44 | 02:13:28 | 00:00:00 | |
| DM0DOS-11 | 2026-09-04 18:32:25 | 50.56519 | 11.94126 | 222° | 16km/h | 26671m | -21.7m/s | -47.4°C | 3.2% | 20.6hPa | 2.5V | 08:26:48 | 02:13:24 | 00:00:00 | |
| HSKMA3-T | 2026-09-04 18:32:25 | 50.56510 | 11.94099 | 251° | 15km/h | 26564m | -21.2m/s | -47°C | 0% | 21hPa | 2.5V | 08:26:45 | 02:13:29 | 00:00:00 | |
| DL1XH-west | 2026-09-04 18:32:17 | 50.56529 | 11.94134 | 196° | 11km/h | 26736m | -21.9m/s | -47.3°C | 0% | 20.4hPa | 2.5V | 08:27:36 | 02:13:21 | 00:00:00 | |
| DO3MHA-11 | 2026-09-04 18:32:17 | 50.56529 | 11.94134 | 196° | 5km/h | 26737m | -21.8m/s | -47.3°C | 3.1% | 20.4hPa | 2.6V | 00:00:00 | 02:13:21 | 00:00:00 | |
| DL1XH-15 | 2026-09-04 18:32:15 | 50.56535 | 11.94136 | 178° | 4km/h | 26801m | -21.5m/s | -47.2°C | 3.1% | 20.2hPa | 2.6V | 08:26:54 | 02:13:18 | 00:00:00 | |
| HSKMA3-T | 2026-09-04 18:32:14 | 50.56534 | 11.94136 | 179° | 4km/h | 26801m | -21.5m/s | -47.3°C | 0% | 20.2hPa | 2.6V | 08:27:36 | 02:13:18 | 00:00:00 | |
| S52SK | 2026-09-04 18:32:13 | 50.56534 | 11.94136 | 180° | 4km/h | 26802m | -21.5m/s | -47.3°C | 0.6% | 20.2hPa | 2.6V | 00:00:00 | 00:00:00 | 00:00:00 | |
| DM0DOS-11 | 2026-09-04 18:32:10 | 50.56533 | 11.94138 | 335° | 5km/h | 26887m | -21.7m/s | -47.3°C | 3.1% | 20hPa | 2.6V | 08:26:58 | 02:13:14 | 00:00:00 | |
| DL1XH-west | 2026-09-04 18:32:07 | 50.56530 | 11.94138 | 94° | 4km/h | 26952m | -21.3m/s | -47.3°C | 0% | 19.8hPa | 2.5V | 08:27:36 | 02:13:11 | 00:00:00 | |
| DO3MHA-11 | 2026-09-04 18:32:07 | 50.56530 | 11.94138 | 95° | 18km/h | 26952m | -21.3m/s | -47.2°C | 3.1% | 19.7hPa | 2.5V | 08:27:00 | 02:13:11 | 00:00:00 | |
| DL1XH-15 | 2026-09-04 18:32:05 | 50.56532 | 11.94128 | 117° | 16km/h | 27013m | -19.8m/s | -47.3°C | 3.2% | 19.6hPa | 2.6V | 08:27:04 | 02:13:08 | 00:00:00 | |
| DF8AY | 2026-09-04 18:32:03 | 50.56534 | 11.94121 | 117° | 22km/h | 27032m | -19.6m/s | -47.2°C | 0% | 19.5hPa | 2.6V | 08:27:36 | 02:13:07 | 00:00:00 | |
| DL1XH-west | 2026-09-04 18:31:56 | 50.56552 | 11.94056 | 108° | 22km/h | 27159m | -18.7m/s | -46.9°C | 0% | 19.1hPa | 2.5V | 08:27:36 | 02:13:00 | 00:00:00 | |
| DL1XH-15 | 2026-09-04 18:31:55 | 50.56555 | 11.94041 | 118° | 18km/h | 27196m | -18.9m/s | -46.9°C | 3.1% | 19hPa | 2.5V | 08:27:14 | 02:12:58 | 00:00:00 | |
| HSKMA3-T | 2026-09-04 18:31:53 | 50.56558 | 11.94036 | 136° | 16km/h | 27216m | -19.9m/s | -46.8°C | 0% | 18.9hPa | 2.5V | 08:27:36 | 02:12:57 | 00:00:00 | |
| DO8TBO-1 | 2026-09-04 18:31:52 | 50.56561 | 11.94032 | 147° | 18km/h | 27236m | -20.1m/s | -46.7°C | 3.1% | 18.8hPa | 2.6V | 08:27:00 | 02:12:56 | 00:00:00 | |
| 13BRC | 2026-09-04 18:31:51 | 50.56565 | 11.94029 | 164° | 20km/h | 27257m | -21.5m/s | -46.7°C | 0.6% | 18.8hPa | 2.6V | 08:27:00 | 00:00:00 | 00:00:00 | |
| DM0DOS-11 | 2026-09-04 18:31:50 | 50.56601 | 11.94033 | 192° | 22km/h | 27393m | -22.8m/s | -47°C | 3.1% | 18.4hPa | 2.6V | 08:27:23 | 02:12:49 | 00:00:00 | |
| DL6DJ-15 | 2026-09-04 18:31:49 | 50.56582 | 11.94028 | 185° | 26km/h | 27323m | -23.5m/s | -46.9°C | 0.6% | 18.6hPa | 2.5V | 00:00:00 | 00:00:00 | 00:00:00 | |
| DO3MHA-11 | 2026-09-04 18:31:47 | 50.56588 | 11.94029 | 186° | 26km/h | 27347m | -23.3m/s | -46.9°C | 3.1% | 18.5hPa | 2.5V | 00:00:00 | 02:12:51 | 00:00:00 | |
| DL1XH-15 | 2026-09-04 18:31:45 | 50.56606 | 11.94035 | 195° | 18km/h | 27416m | -23.8m/s | -47.1°C | 3.2% | 18.4hPa | 2.5V | 08:27:24 | 02:12:48 | 00:00:00 | |
| DL1XH-west | 2026-09-04 18:31:45 | 50.56601 | 11.94033 | 192° | 22km/h | 27393m | -22.8m/s | -47°C | 0% | 18.4hPa | 2.6V | 08:27:36 | 02:12:49 | 00:00:00 | |
| DF8AY | 2026-09-04 18:31:42 | 50.56614 | 11.94039 | 206° | 15km/h | 27462m | -23.3m/s | -47.2°C | 0% | 18.3hPa | 2.5V | 08:27:36 | 02:12:46 | 00:00:00 | |
| DK5PH-5 | 2026-09-04 18:31:41 | 50.56616 | 11.94041 | 212° | 15km/h | 27486m | -23.1m/s | -47.2°C | 3.2% | 18.1hPa | 2.5V | 00:00:00 | 02:12:45 | 00:00:00 | |
| OE5DXL-15 | 2026-09-04 18:31:40 | 50.56619 | 11.94043 | 216° | 15km/h | 27508m | -22.0m/s | -47.3°C | 3.2% | 18.1hPa | 2.6V | 00:00:00 | 00:00:00 | 00:00:00 | |
| OE5FHM-15 | 2026-09-04 18:31:39 | 50.56620 | 11.94045 | 218° | 16km/h | 27530m | -23.0m/s | -47.4°C | 3.2% | 18.0hPa | 2.6V | 08:27:00 | 02:12:43 | 00:00:00 | |
| OE5DRO-10 | 2026-09-04 18:31:38 | 50.56621 | 11.94047 | 233° | 11km/h | 27554m | -22.9m/s | -47.4°C | 3.2% | 18.0hPa | 2.6V | 00:00:00 | 00:00:00 | 00:00:00 | |
| DM7RM-13 | 2026-09-04 18:31:37 | 50.56621 | 11.94047 | 233° | 4km/h | 27554m | -23.0m/s | -47.4°C | 0.7% | 18.0hPa | 2.6V | 08:27:00 | 00:00:00 | 00:00:00 | |
| DL1XH-15 | 2026-09-04 18:31:35 | 50.56622 | 11.94048 | 56° | 2km/h | 27645m | -22.8m/s | -46.9°C | 3.1% | 17.7hPa | 2.6V | 08:27:34 | 02:12:38 | 00:00:00 | |
| DL1XH-west | 2026-09-04 18:31:34 | 50.56622 | 11.94048 | 56° | 2km/h | 27645m | -22.8m/s | -46.9°C | 0% | 17.8hPa | 2.6V | 08:27:36 | 02:12:38 | 00:00:00 | |
| DF8AY | 2026-09-04 18:31:32 | 50.56620 | 11.94045 | 67° | 5km/h | 27690m | -22.7m/s | -46.8°C | 0% | 17.6hPa | 2.5V | 08:27:36 | 02:12:36 | 00:00:00 | |
| HSKMA3-T | 2026-09-04 18:31:31 | 50.56620 | 11.94043 | 71° | 5km/h | 27713m | -22.6m/s | -46.5°C | 0% | 17.6hPa | 2.5V | 08:28:27 | 02:12:35 | 00:00:00 | |
| DM0DOS-11 | 2026-09-04 18:31:30 | 50.56616 | 11.94017 | 86° | 18km/h | 27849m | -22.2m/s | -46.5°C | 3% | 17.2hPa | 2.5V | 08:30:00 | 02:12:29 | 00:00:00 | |
| DL1XH-west | 2026-09-04 18:31:24 | 50.56615 | 11.94010 | 85° | 20km/h | 27871m | -22.8m/s | -46.7°C | 0% | 17.1hPa | 2.5V | 08:28:27 | 02:12:28 | 00:00:00 | |
| DF8AY | 2026-09-04 18:31:22 | 50.56616 | 11.93993 | 93° | 22km/h | 27915m | -22.8m/s | -46.8°C | 0% | 17hPa | 2.6V | 08:28:27 | 02:12:26 | 00:00:00 | |
| HSKMA3-T | 2026-09-04 18:31:20 | 50.56617 | 11.93976 | 102° | 22km/h | 27960m | -21.7m/s | -46.8°C | 0% | 16.9hPa | 2.5V | 08:28:27 | 02:12:24 | 00:00:00 | |
| DB0NH | 2026-09-04 18:31:20 | 50.56617 | 11.93976 | 102° | 20km/h | 27961m | -21.6m/s | -46.8°C | 3.1% | 16.9hPa | 2.5V | 00:00:00 | 02:12:24 | 00:00:00 | |
| OE5DRO-10 | 2026-09-04 18:31:19 | 50.56618 | 11.93968 | 96° | 20km/h | 27982m | -21.3m/s | -46.7°C | 3.0% | 16.8hPa | 2.5V | 08:27:00 | 00:00:00 | 00:00:00 | |
| DL6DJ-15 | 2026-09-04 18:31:18 | 50.56620 | 11.93953 | 110° | 18km/h | 28026m | -22.9m/s | -46.7°C | 0.6% | 16.7hPa | 2.6V | 00:00:00 | 00:00:00 | 00:00:00 | |
| DM7RM-13 | 2026-09-04 18:31:16 | 50.56620 | 11.93953 | 111° | 20km/h | 28026m | -22.9m/s | -46.7°C | 0.6% | 16.7hPa | 2.6V | 08:28:00 | 00:00:00 | 00:00:00 | |
| DL1XH-15 | 2026-09-04 18:31:15 | 50.56625 | 11.93927 | 109° | 27km/h | 28092m | -22.5m/s | -46.9°C | 3% | 16.6hPa | 2.6V | 08:27:54 | 02:12:18 | 00:00:00 | |
| DL1XH-west | 2026-09-04 18:31:13 | 50.56628 | 11.93916 | 112° | 31km/h | 28115m | -23.2m/s | -46.9°C | 0% | 16.5hPa | 2.5V | 08:28:27 | 02:12:17 | 00:00:00 | |
| DF8AY | 2026-09-04 18:31:11 | 50.56634 | 11.93892 | 112° | 35km/h | 28160m | -22.4m/s | -46.9°C | 0% | 16.4hPa | 2.5V | 08:28:27 | 02:12:15 | 00:00:00 | |
| DK5PH-5 | 2026-09-04 18:31:11 | 50.56634 | 11.93892 | 112° | 16km/h | 28160m | -22.3m/s | -46.9°C | 3.0% | 16.3hPa | 2.6V | 00:00:00 | 02:12:15 | 00:00:00 | |
| OE5DXL-15 | 2026-09-04 18:31:10 | 50.56637 | 11.93880 | 115° | 16km/h | 28182m | -22.3m/s | -46.9°C | 3.1% | 16.3hPa | 2.6V | 00:00:00 | 00:00:00 | 00:00:00 | |
| DL1XH1-15 | 2026-09-04 18:31:09 | 50.56655 | 11.93835 | 140° | 9km/h | 28313m | -22.8m/s | -47.1°C | 3.1% | 16hPa | 2.6V | 08:28:04 | 02:12:08 | 00:00:00 | |
| HSKMA3-T | 2026-09-04 18:31:09 | 50.56640 | 11.93868 | 116° | 31km/h | 28203m | -21.5m/s | -47°C | 0% | 16.3hPa | 2.6V | 08:28:27 | 02:12:13 | 00:00:00 | |
| DL1XH-west | 2026-09-04 18:31:03 | 50.56656 | 11.93833 | 137° | 4km/h | 28336m | -23.6m/s | -47.2°C | 0% | 15.9hPa | 2.6V | 08:28:27 | 02:12:07 | 00:00:00 | |
| DF8AY | 2026-09-04 18:31:00 | 50.56655 | 11.93832 | 34° | 5km/h | 28407m | -23.9m/s | -47.5°C | 0% | 15.8hPa | 2.5V | 08:28:27 | 02:12:04 | 00:00:00 | |
| HSKMA3-T | 2026-09-04 18:30:58 | 50.56652 | 11.93827 | 56° | 13km/h | 28456m | -24.9m/s | -47.7°C | 0% | 15.7hPa | 2.6V | 08:28:27 | 02:12:02 | 00:00:00 | |
| AA1-15 | 2026-09-04 18:30:53 | 50.56647 | 11.93794 | 90° | 16km/h | 28581m | -25.6m/s | -47.5°C | 0% | 15.4hPa | 2.5V | 08:29:18 | 02:11:57 | 00:00:00 | |
| DL1XH-west | 2026-09-04 18:30:52 | 50.56646 | 11.93787 | 87° | 15km/h | 28606m | -25.4m/s | -47.5°C | 0% | 15.3hPa | 2.6V | 08:28:27 | 02:11:56 | 00:00:00 | |
| DF8AY | 2026-09-04 18:30:50 | 50.56644 | 11.93777 | 61° | 13km/h | 28656m | -24.6m/s | -47.4°C | 0% | 15.2hPa | 2.6V | 08:28:27 | 02:11:54 | 00:00:00 | |
| PETON7-10 | 2026-09-04 18:30:50 | 50.56644 | 11.93777 | 62° | 20km/h | 28656m | -24.6m/s | -47.4°C | 3.3% | 15.1hPa | 2.6V | 00:00:00 | 00:00:00 | 00:00:00 | |
| 13BRC | 2026-09-04 18:30:49 | 50.56644 | 11.93777 | 62° | 13km/h | 28656m | -24.6m/s | -47.4°C | 0.7% | 15.2hPa | 2.5V | 08:28:00 | 00:00:00 | 00:00:00 | |
| DM0DOS-11 | 2026-09-04 18:30:48 | 50.56625 | 11.93751 | 48° | 22km/h | 28793m | -23.6m/s | -46.9°C | 3.2% | 14.9hPa | 2.5V | 08:30:00 | 02:11:48 | 00:00:00 | |
| HSKMA3-T | 2026-09-04 18:30:48 | 50.56639 | 11.93769 | 44° | 15km/h | 28703m | -22.7m/s | -47.2°C | 0% | 15.1hPa | 2.5V | 08:28:27 | 02:11:52 | 00:00:00 | |
| DL6DJ-15 | 2026-09-04 18:30:47 | 50.56633 | 11.93761 | 36° | 18km/h | 28748m | -23.2m/s | -47.1°C | 0.6% | 15.0hPa | 2.5V | 00:00:00 | 00:00:00 | 00:00:00 | |
| HTAHTA | 2026-09-04 18:30:46 | 50.56633 | 11.93761 | 36° | 18km/h | 28748m | -23.2m/s | -47.1°C | 0.6% | 15.0hPa | 2.5V | 00:00:00 | 00:00:00 | 00:00:00 | |
| DL1XH-west | 2026-09-04 18:30:41 | 50.56616 | 11.93727 | 73° | 26km/h | 28862m | -22.9m/s | -46.9°C | 0% | 14.7hPa | 2.5V | 08:28:27 | 02:11:45 | 00:00:00 | |
| DK5PH-5 | 2026-09-04 18:30:41 | 50.56616 | 11.93727 | 73° | 18km/h | 28863m | -22.9m/s | -46.8°C | 3.1% | 14.7hPa | 2.6V | 00:00:00 | 02:11:45 | 00:00:00 | |
| OE5DXL-15 | 2026-09-04 18:30:40 | 50.56614 | 11.93718 | 87° | 18km/h | 28885m | -22.7m/s | -46.9°C | 3.2% | 14.6hPa | 2.6V | 00:00:00 | 00:00:00 | 00:00:00 | |
| DL1XH1-15 | 2026-09-04 18:30:39 | 50.56623 | 11.93669 | 107° | 16km/h | 29023m | -23m/s | -47°C | 3.3% | 14.3hPa | 2.6V | 08:28:34 | 02:11:38 | 00:00:00 | |
| DF8AY | 2026-09-04 18:30:39 | 50.56615 | 11.93708 | 98° | 24km/h | 28907m | -23.4m/s | -47°C | 0% | 14.6hPa | 2.6V | 08:29:18 | 02:11:43 | 00:00:00 | |
| HSKMA3-T | 2026-09-04 18:30:38 | 50.56616 | 11.93699 | 106° | 24km/h | 28930m | -23.1m/s | -47.1°C | 0% | 14.6hPa | 2.6V | 08:29:18 | 02:11:42 | 00:00:00 | |
| DL1XH-west | 2026-09-04 18:30:31 | 50.56624 | 11.93652 | 84° | 15km/h | 29091m | -23.9m/s | -46.7°C | 0% | 14.2hPa | 2.5V | 08:29:18 | 02:11:35 | 00:00:00 | |
| DF8AY | 2026-09-04 18:30:29 | 50.56625 | 11.93606 | 123° | 15km/h | 29286m | -25.5m/s | -46.2°C | 0% | 13.8hPa | 2.5V | 08:29:18 | 02:11:27 | 00:00:00 | |
| HSKMA3-T | 2026-09-04 18:30:27 | 50.56621 | 11.93628 | 88° | 16km/h | 29188m | -23.6m/s | -46.4°C | 0% | 14hPa | 2.6V | 08:29:18 | 02:11:31 | 00:00:00 | |
| DL1XH-15 | 2026-09-04 18:30:27 | 50.56623 | 11.93611 | 109° | 15km/h | 29261m | -25.3m/s | -46.2°C | 3.2% | 13.8hPa | 2.5V | 08:28:44 | 02:11:28 | 00:00:00 | |
| EDDB2-11 | 2026-09-04 18:30:26 | 50.56621 | 11.93622 | 97° | 15km/h | 29212m | -24.1m/s | -46.3°C | 0.6% | 13.9hPa | 2.5V | 00:00:00 | 00:00:00 | 00:00:00 | |
| DL1NUX | 2026-09-04 18:30:25 | 50.56630 | 11.93590 | 113° | 18km/h | 29360m | -23m/s | 0°C | 0% | 0hPa | 2.5V | 08:28:48 | 02:11:24 | 00:00:00 | |
| DJ2DS-15 | 2026-09-04 18:30:25 | 50.56622 | 11.93617 | 115° | 18km/h | 29236m | -25.1m/s | -46.2°C | 3.2% | 13.8hPa | 2.5V | 00:00:00 | 02:11:29 | 00:00:00 | |
| KRY50SP | 2026-09-04 18:30:24 | 50.56622 | 11.93617 | 115° | 13km/h | 29236m | -25.2m/s | -46.2°C | 0.7% | 13.9hPa | 2.6V | 08:29:00 | 00:00:00 | 00:00:00 | |
| DO3MHA-11 | 2026-09-04 18:30:23 | 50.56625 | 11.93606 | 123° | 20km/h | 29286m | -25.4m/s | -46.1°C | 3.2% | 13.7hPa | 2.6V | 00:00:00 | 02:11:27 | 00:00:00 | |
| OE5DRO-10 | 2026-09-04 18:30:22 | 50.56626 | 11.93601 | 118° | 20km/h | 29312m | -26.1m/s | -46.0°C | 3.2% | 13.7hPa | 2.6V | 00:00:00 | 00:00:00 | 00:00:00 | |
| DB0NH | 2026-09-04 18:30:20 | 50.56630 | 11.93590 | 114° | 18km/h | 29361m | -22.9m/s | -45.7°C | 3.1% | 13.6hPa | 2.6V | 00:00:00 | 02:11:24 | 00:00:00 | |
| DL1XH-west | 2026-09-04 18:30:20 | 50.56630 | 11.93590 | 114° | 18km/h | 29360m | -23m/s | -45.8°C | 0% | 13.6hPa | 2.5V | 08:29:18 | 02:11:24 | 00:00:00 | |
| DL1XH1-15 | 2026-09-04 18:30:19 | 50.56649 | 11.93551 | 146° | 24km/h | 29500m | -23.5m/s | -44.7°C | 2.8% | 13.3hPa | 2.6V | 08:28:54 | 02:11:18 | 00:00:00 | |
| DF8AY | 2026-09-04 18:30:18 | 50.56634 | 11.93577 | 119° | 20km/h | 29407m | -24m/s | -45.4°C | 0% | 13.5hPa | 2.5V | 08:29:18 | 02:11:22 | 00:00:00 | |
| HSKMA3-T | 2026-09-04 18:30:17 | 50.56637 | 11.93570 | 127° | 20km/h | 29431m | -23.9m/s | -45.3°C | 0% | 13.5hPa | 2.5V | 08:29:18 | 02:11:21 | 00:00:00 | |
| DM7RM-13 | 2026-09-04 18:30:15 | 50.56640 | 11.93564 | 129° | 22km/h | 29454m | -23.6m/s | -45.2°C | 0.6% | 13.4hPa | 2.5V | 08:29:00 | 00:00:00 | 00:00:00 | |
| DO3MHA-11 | 2026-09-04 18:30:13 | 50.56655 | 11.93545 | 152° | 20km/h | 29523m | -23.3m/s | -44.5°C | 2.8% | 13.2hPa | 2.5V | 00:00:00 | 02:11:17 | 00:00:00 | |
| DL1NUX | 2026-09-04 18:30:12 | 50.56681 | 11.93522 | 117° | 13km/h | 29663m | -23.8m/s | 0°C | 0% | 0hPa | 2.5V | 08:29:01 | 02:11:11 | 00:00:00 | |
| DL1XH-west | 2026-09-04 18:30:10 | 50.56672 | 11.93535 | 152° | 20km/h | 29592m | -23.1m/s | -44.3°C | 0% | 13.1hPa | 2.6V | 08:29:18 | 02:11:14 | 00:00:00 | |
| DF8AY | 2026-09-04 18:30:08 | 50.56679 | 11.93526 | 133° | 15km/h | 29639m | -24.2m/s | -44.2°C | 0% | 13.1hPa | 2.5V | 08:29:18 | 02:11:12 | 00:00:00 | |
| AA1-15 | 2026-09-04 18:30:07 | 50.56681 | 11.93522 | 117° | 13km/h | 29663m | -23.8m/s | -44.3°C | 0% | 13hPa | 2.5V | 08:29:18 | 02:11:11 | 00:00:00 | |
| DL1XH-west | 2026-09-04 18:30:00 | 50.56686 | 11.93468 | 116° | 24km/h | 29820m | -21m/s | -44.7°C | 0% | 12.7hPa | 2.5V | 08:29:18 | 02:11:04 | 00:00:00 | |
| DF8AY | 2026-09-04 18:29:58 | 50.56692 | 11.93452 | 137° | 24km/h | 29861m | -20.9m/s | -44.7°C | 0% | 12.6hPa | 2.6V | 08:29:18 | 02:11:02 | 00:00:00 | |
| HSKMA3-T | 2026-09-04 18:29:57 | 50.56697 | 11.93447 | 147° | 22km/h | 29882m | -20.8m/s | -44.5°C | 0% | 12.5hPa | 2.6V | 08:29:18 | 02:11:01 | 00:00:00 | |
| AA1-15 | 2026-09-04 18:29:55 | 50.56707 | 11.93440 | 168° | 24km/h | 29924m | -22m/s | -44°C | 0% | 12.5hPa | 2.5V | 08:29:18 | 02:10:59 | 00:00:00 | |
| DL1XH-15 | 2026-09-04 18:29:54 | 50.56713 | 11.93437 | 168° | 29km/h | 29947m | -24.4m/s | -43.8°C | 2.8% | 12.4hPa | 2.5V | 08:29:14 | 02:10:58 | 00:00:00 | |
| DO3MHA-11 | 2026-09-04 18:29:53 | 50.56721 | 11.93434 | 163° | 27km/h | 29972m | -26.3m/s | -43.6°C | 2.8% | 12.3hPa | 2.6V | 00:00:00 | 02:10:57 | 00:00:00 | |
| DL1NUX | 2026-09-04 18:29:52 | 50.56757 | 11.93394 | 111° | 27km/h | 30143m | -27.8m/s | 0°C | 0% | 0hPa | 2.6V | 00:00:00 | 02:10:51 | 00:00:00 | |
| DL1XH-west | 2026-09-04 18:29:49 | 50.56749 | 11.93414 | 133° | 29km/h | 30086m | -30.2m/s | -43.4°C | 0% | 12.2hPa | 2.5V | 18:12:15 | 02:10:53 | 00:00:00 | |
| DF8AY | 2026-09-04 18:29:47 | 50.56757 | 11.93394 | 112° | 29km/h | 30143m | -27.8m/s | -43.1°C | 0% | 12.1hPa | 2.6V | 18:12:15 | 02:10:51 | 00:00:00 | |
| HSKMA3-T | 2026-09-04 18:29:46 | 50.56758 | 11.93384 | 93° | 27km/h | 30170m | -27m/s | -43°C | 0% | 12hPa | 2.6V | 18:12:15 | 02:10:50 | 00:00:00 | |
| DL1XH-15 | 2026-09-04 18:29:44 | 50.56757 | 11.93368 | 71° | 9km/h | 30221m | -25.7m/s | -43°C | 2.6% | 11.9hPa | 2.5V | 08:30:00 | 02:10:48 | 00:00:00 | |
| AA1-15 | 2026-09-04 18:29:44 | 50.56757 | 11.93368 | 72° | 9km/h | 30221m | -25.7m/s | -43°C | 0% | 11.9hPa | 2.5V | 18:12:15 | 02:10:48 | 00:00:00 | |
| OE5DRO-10 | 2026-09-04 18:29:44 | 50.56757 | 11.93368 | 72° | 47km/h | 30221m | -25.7m/s | -42.9°C | 2.6% | 11.9hPa | 2.5V | 00:00:00 | 00:00:00 | 00:00:00 | |
| DO3MHA-11 | 2026-09-04 18:29:43 | 50.56756 | 11.93367 | 46° | 44km/h | 30246m | -24.6m/s | -42.8°C | 2.6% | 11.8hPa | 2.5V | 00:00:00 | 02:10:47 | 00:00:00 | |
| DL1NUX | 2026-09-04 18:29:41 | 50.56818 | 11.93398 | 174° | 66km/h | 30419m | -23.4m/s | 0°C | 0% | 0hPa | 2.5V | 00:00:00 | 02:10:40 | 00:00:00 | |
| DK5PH-5 | 2026-09-04 18:29:41 | 50.56760 | 11.93374 | 224° | 47km/h | 30296m | -25.2m/s | -42.6°C | 2.5% | 11.7hPa | 2.6V | 00:00:00 | 02:10:45 | 00:00:00 | |
| OE5DXL-15 | 2026-09-04 18:29:40 | 50.56767 | 11.93382 | 212° | 49km/h | 30321m | -25.4m/s | -42.5°C | 2.6% | 11.7hPa | 2.6V | 00:00:00 | 00:00:00 | 00:00:00 | |
| DL1XH1-15 | 2026-09-04 18:29:39 | 50.56850 | 11.93384 | 154° | 71km/h | 30462m | -21.1m/s | -42.6°C | 2.6% | 11.5hPa | 2.6V | 08:30:00 | 02:10:38 | 00:00:00 | |
| DL1XH-west | 2026-09-04 18:29:38 | 50.56788 | 11.93396 | 193° | 55km/h | 30371m | -25.5m/s | -42.5°C | 0% | 11.7hPa | 2.5V | 18:12:15 | 02:10:42 | 00:00:00 | |
| DF8AY | 2026-09-04 18:29:37 | 50.56802 | 11.93398 | 183° | 58km/h | 30396m | -25m/s | -42.5°C | 0% | 11.6hPa | 2.5V | 18:12:15 | 02:10:41 | 00:00:00 | |
| HSKMA3-T | 2026-09-04 18:29:36 | 50.56818 | 11.93398 | 174° | 66km/h | 30420m | -23.4m/s | -42.5°C | 0% | 11.6hPa | 2.5V | 18:12:15 | 02:10:40 | 00:00:00 | |
| DL1XH-west | 2026-09-04 18:29:27 | 50.56899 | 11.93237 | 75° | 51km/h | 30606m | -20.4m/s | -42.4°C | 0% | 11.2hPa | 2.5V | 18:12:15 | 02:10:31 | 00:00:00 | |
| DF8AY | 2026-09-04 18:29:26 | 50.56895 | 11.93220 | 61° | 44km/h | 30626m | -20.3m/s | -42.4°C | 0% | 11.2hPa | 2.5V | 18:12:15 | 02:10:30 | 00:00:00 | |
| HSKMA3-T | 2026-09-04 18:29:25 | 50.56888 | 11.93207 | 47° | 38km/h | 30647m | -20.1m/s | -42.3°C | 0% | 11.2hPa | 2.5V | 18:12:15 | 02:10:29 | 00:00:00 | |
| DL1XH-15 | 2026-09-04 18:29:24 | 50.56882 | 11.93198 | 27° | 33km/h | 30666m | -19.7m/s | -42.2°C | 2.6% | 11.1hPa | 2.6V | 08:30:00 | 02:10:28 | 00:00:00 | |
| DL1XH-west | 2026-09-04 18:29:16 | 50.56850 | 11.93259 | 248° | 38km/h | 30826m | -20.5m/s | -42.1°C | 0% | 10.8hPa | 2.6V | 18:12:15 | 02:10:20 | 00:00:00 | |
| DF8AY | 2026-09-04 18:29:15 | 50.56855 | 11.93273 | 232° | 42km/h | 30846m | -19.1m/s | -42.1°C | 0% | 10.8hPa | 2.5V | 18:12:15 | 02:10:19 | 00:00:00 | |
| HSKMA3-T | 2026-09-04 18:29:14 | 50.56863 | 11.93285 | 221° | 44km/h | 30865m | -19.5m/s | -42°C | 0% | 10.8hPa | 2.5V | 18:12:15 | 02:10:18 | 00:00:00 | |
| DL1XH-15 | 2026-09-04 18:29:14 | 50.56863 | 11.93285 | 220° | 44km/h | 30865m | -19.5m/s | -42°C | 2.5% | 10.8hPa | 2.5V | 08:30:00 | 02:10:18 | 00:00:00 | |
| DM7RM-13 | 2026-09-04 18:29:14 | 50.56862 | 11.93285 | 222° | 44km/h | 30866m | -19.5m/s | -42.0°C | 0.5% | 10.8hPa | 2.5V | 00:00:00 | 00:00:00 | 00:00:00 | |
| DO3MHA-11 | 2026-09-04 18:29:13 | 50.56872 | 11.93295 | 208° | 58km/h | 30884m | -18.7m/s | -42.0°C | 2.5% | 10.7hPa | 2.5V | 00:00:00 | 02:10:17 | 00:00:00 | |
| DK5PH-5 | 2026-09-04 18:29:11 | 50.56897 | 11.93308 | 192° | 46km/h | 30921m | -18.2m/s | -41.9°C | 2.5% | 10.7hPa | 2.5V | 00:00:00 | 02:10:15 | 00:00:00 | |
| OE5DXL-15 | 2026-09-04 18:29:10 | 50.56911 | 11.93310 | 183° | 46km/h | 30940m | -18.7m/s | -41.9°C | 2.5% | 10.6hPa | 2.5V | 00:00:00 | 00:00:00 | 00:00:00 | |
| OE5FHM-15 | 2026-09-04 18:29:09 | 50.56927 | 11.93310 | 179° | 44km/h | 30958m | -19.1m/s | -41.9°C | 2.5% | 10.6hPa | 2.5V | 00:00:00 | 02:10:13 | 00:00:00 | |
| DM0DOS-11 | 2026-09-04 18:29:08 | 50.57011 | 11.93267 | 141° | 51km/h | 31077m | -19.6m/s | -41.8°C | 2.4% | 10.4hPa | 2.5V | 08:30:00 | 02:10:07 | 00:00:00 | |
| DL1XH-west | 2026-09-04 18:29:06 | 50.56973 | 11.93297 | 162° | 62km/h | 31017m | -20.1m/s | -41.8°C | 0% | 10.6hPa | 2.6V | 18:12:15 | 02:10:10 | 00:00:00 | |
| DF8AY | 2026-09-04 18:29:05 | 50.56987 | 11.93289 | 157° | 58km/h | 31037m | -20.2m/s | -41.8°C | 0% | 10.5hPa | 2.5V | 18:12:15 | 02:10:09 | 00:00:00 | |
| DL1XH-15 | 2026-09-04 18:29:04 | 50.57000 | 11.93279 | 149° | 55km/h | 31057m | -20.4m/s | -41.8°C | 2.5% | 10.5hPa | 2.5V | 08:30:00 | 02:10:08 | 00:00:00 | |
| HSKMA3-T | 2026-09-04 18:29:04 | 50.57000 | 11.93279 | 150° | 55km/h | 31057m | -20.4m/s | -41.8°C | 0% | 10.5hPa | 2.5V | 18:12:15 | 02:10:08 | 00:00:00 | |
| DO3MHA-11 | 2026-09-04 18:29:03 | 50.57011 | 11.93267 | 142° | 55km/h | 31077m | -19.5m/s | -41.8°C | 2.4% | 10.4hPa | 2.5V | 00:00:00 | 02:10:07 | 08:30:00 | |
| SONCRA | 2026-09-04 18:29:00 | 50.57033 | 11.93205 | 96° | 46km/h | 31150m | -17.4m/s | -41.7°C | 0.5% | 10.3hPa | 2.5V | 00:00:00 | 00:00:00 | 00:00:00 | |
| KRY50SP | 2026-09-04 18:28:59 | 50.57030 | 11.93223 | 108° | 44km/h | 31132m | -17.7m/s | -41.7°C | 0.5% | 10.4hPa | 2.5V | 00:00:00 | 00:00:00 | 00:00:00 | |
| DM0DOS-11 | 2026-09-04 18:28:58 | 50.57020 | 11.93058 | 80° | 68km/h | 31269m | -23.8m/s | -42.1°C | 2.6% | 10.2hPa | 2.5V | 08:30:00 | 02:09:57 | 00:00:00 | |
| DL1XH-west | 2026-09-04 18:28:56 | 50.57029 | 11.93139 | 80° | 66km/h | 31204m | -19.2m/s | -41.9°C | 0% | 10.3hPa | 2.5V | 18:12:15 | 02:10:00 | 00:00:00 | |
| DL1XH-15 | 2026-09-04 18:28:54 | 50.57023 | 11.93086 | 79° | 71km/h | 31245m | -22.6m/s | -42°C | 2.6% | 10.2hPa | 2.6V | 08:30:00 | 02:09:58 | 00:00:00 | |
| DF8AY | 2026-09-04 18:28:54 | 50.57023 | 11.93086 | 80° | 71km/h | 31246m | -22.6m/s | -42°C | 0% | 10.2hPa | 2.6V | 18:12:15 | 02:09:58 | 00:00:00 | |
| HSKMA3-T | 2026-09-04 18:28:53 | 50.57020 | 11.93059 | 80° | 68km/h | 31269m | -23.8m/s | -42.1°C | 0% | 10.2hPa | 2.5V | 18:12:15 | 02:09:57 | 00:00:00 | |
| DO3MHA-11 | 2026-09-04 18:28:53 | 50.57020 | 11.93058 | 81° | 33km/h | 31269m | -23.7m/s | -42.1°C | 2.6% | 10.1hPa | 2.6V | 00:00:00 | 02:09:57 | 00:00:00 | |
| DB0UT-7 | 2026-09-04 18:28:52 | 50.57018 | 11.93034 | 83° | 22km/h | 31293m | -23.6m/s | -42.1°C | 2.7% | 10.1hPa | 2.6V | 00:00:00 | 00:00:00 | 00:00:00 | |
| PG1ADW-2 | 2026-09-04 18:28:51 | 50.57016 | 11.93011 | 82° | 27km/h | 31315m | -21.2m/s | -42.2°C | 2.6% | 10.0hPa | 2.6V | 00:00:00 | 00:00:00 | 00:00:00 | |
| PETON7-10 | 2026-09-04 18:28:50 | 50.57014 | 11.92993 | 87° | 24km/h | 31335m | -19.2m/s | -42.1°C | 2.6% | 10.0hPa | 2.6V | 00:00:00 | 02:09:54 | 00:00:00 | |
| DL1XH1-15 | 2026-09-04 18:28:49 | 50.57031 | 11.92983 | 168° | 18km/h | 31535m | -40.2m/s | -41.3°C | 2.3% | 9.8hPa | 2.6V | 08:30:00 | 02:09:48 | 00:00:00 | |
| DF8AY | 2026-09-04 18:28:45 | 50.57031 | 11.92983 | 169° | 18km/h | 31536m | -40.2m/s | -41.3°C | 0% | 9.8hPa | 2.6V | 18:12:15 | 02:09:48 | 00:00:00 | |
| DL1XH-west | 2026-09-04 18:28:45 | 50.57027 | 11.92983 | 180° | 16km/h | 31493m | -43.9m/s | -41.3°C | 0% | 9.9hPa | 2.5V | 18:12:15 | 02:09:49 | 00:00:00 | |
| HSKMA3-T | 2026-09-04 18:28:43 | 50.57036 | 11.92981 | 159° | 18km/h | 31573m | -34.4m/s | -41.3°C | 0% | 9.7hPa | 2.6V | 18:12:15 | 02:09:47 | 00:00:00 | |
| OE5MMP-10 | 2026-09-04 18:28:43 | 50.57036 | 11.92980 | 159° | 27km/h | 31573m | -34.3m/s | -41.2°C | 2.3% | 9.7hPa | 2.6V | 00:00:00 | 02:09:47 | 08:30:00 | |
| AM1SDL-15 | 2026-09-04 18:28:42 | 50.57040 | 11.92977 | 149° | 27km/h | 31604m | -28.1m/s | -41.2°C | 2.3% | 9.6hPa | 2.5V | 00:00:00 | 02:09:46 | 00:00:00 | |
| DK5PH-5 | 2026-09-04 18:28:41 | 50.57044 | 11.92972 | 131° | 26km/h | 31629m | -21.8m/s | -41.2°C | 2.3% | 9.5hPa | 2.5V | 00:00:00 | 02:09:45 | 08:30:00 | |
| OE5DXL-15 | 2026-09-04 18:28:40 | 50.57047 | 11.92964 | 122° | 24km/h | 31648m | -15.4m/s | -41.2°C | 2.3% | 9.5hPa | 2.5V | 00:00:00 | 00:00:00 | 00:00:00 | |
| OE5FHM-15 | 2026-09-04 18:28:39 | 50.57051 | 11.92954 | 118° | 24km/h | 31659m | -7.2m/s | -41.2°C | 2.4% | 9.5hPa | 2.5V | 00:00:00 | 02:09:43 | 00:00:00 | |
| DM0DOS-11 | 2026-09-04 18:28:38 | 50.57068 | 11.92912 | 134° | 29km/h | 31648m | 5.8m/s | -41.3°C | 2.4% | 9.6hPa | 2.5V | 08:30:00 | 02:09:39 | 00:00:00 | |
| DL1XH-west | 2026-09-04 18:28:35 | 50.57068 | 11.92912 | 134° | 29km/h | 31648m | 5.8m/s | -41.3°C | 0% | 9.6hPa | 2.5V | 18:12:15 | 02:09:39 | 00:00:00 | |
| DL1XH-15 | 2026-09-04 18:28:34 | 50.57073 | 11.92905 | 145° | 27km/h | 31642m | 6.3m/s | -41.4°C | 2.4% | 9.6hPa | 2.5V | 08:30:00 | 02:09:38 | 00:00:00 | |
| DF8AY | 2026-09-04 18:28:33 | 50.57079 | 11.92900 | 158° | 24km/h | 31636m | 5.7m/s | -41.4°C | 0% | 9.6hPa | 2.6V | 18:12:15 | 02:09:37 | 00:00:00 | |
| HSKMA3-T | 2026-09-04 18:28:32 | 50.57084 | 11.92897 | 164° | 22km/h | 31631m | 4.8m/s | -41.4°C | 0% | 9.6hPa | 2.6V | 18:12:15 | 02:09:36 | 00:00:00 | |
| DL1XH-west | 2026-09-04 18:28:25 | 50.57108 | 11.92851 | 108° | 24km/h | 31594m | 6.1m/s | -41.7°C | 0% | 9.7hPa | 2.6V | 18:12:15 | 02:09:29 | 00:00:00 | |
| DL1XH-15 | 2026-09-04 18:28:24 | 50.57110 | 11.92842 | 110° | 22km/h | 31588m | 5.7m/s | -41.7°C | 2.4% | 9.7hPa | 2.5V | 08:30:00 | 02:09:28 | 00:00:00 | |
| DF8AY | 2026-09-04 18:28:23 | 50.57112 | 11.92835 | 114° | 20km/h | 31582m | 5.1m/s | -41.7°C | 0% | 9.7hPa | 2.5V | 18:12:15 | 02:09:27 | 00:00:00 | |
| HSKMA3-T | 2026-09-04 18:28:22 | 50.57114 | 11.92827 | 118° | 20km/h | 31578m | 4.8m/s | -41.7°C | 0% | 9.7hPa | 2.5V | 18:12:15 | 02:09:26 | 00:00:00 | |
| DF8AY | 2026-09-04 18:28:18 | 50.57148 | 11.92756 | 135° | 15km/h | 31529m | 4.6m/s | -41.9°C | 0% | 9.8hPa | 2.5V | 18:12:15 | 02:09:17 | 00:00:00 | |
| OM5KV | 2026-09-04 18:28:17 | 50.57127 | 11.92791 | 124° | 31km/h | 31556m | 4.8m/s | -41.8°C | 0.5% | 9.7hPa | 2.5V | 00:00:00 | 00:00:00 | 00:00:00 | |
| DL1XH-15 | 2026-09-04 18:28:14 | 50.57145 | 11.92760 | 141° | 18km/h | 31533m | 5.2m/s | -41.9°C | 2.4% | 9.7hPa | 2.5V | 08:30:00 | 02:09:18 | 00:00:00 | |
| DL1XH-west | 2026-09-04 18:28:14 | 50.57145 | 11.92760 | 142° | 18km/h | 31533m | 5.2m/s | -41.9°C | 0% | 9.7hPa | 2.5V | 18:12:15 | 02:09:18 | 00:00:00 | |
| HSKMA3-T | 2026-09-04 18:28:11 | 50.57152 | 11.92745 | 101° | 16km/h | 31518m | 5.9m/s | -41.9°C | 0% | 9.8hPa | 2.6V | 18:12:15 | 02:09:15 | 00:00:00 | |
| NBG1-10 | 2026-09-04 18:28:11 | 50.57152 | 11.92745 | 101° | 18km/h | 31519m | 5.9m/s | -41.9°C | 2.5% | 9.7hPa | 2.6V | 00:00:00 | 02:09:15 | 08:30:00 | |
| OE5DXL-15 | 2026-09-04 18:28:10 | 50.57152 | 11.92738 | 92° | 18km/h | 31513m | 6.2m/s | -41.9°C | 2.5% | 9.7hPa | 2.6V | 00:00:00 | 00:00:00 | 08:30:00 | |
| OE5FHM-15 | 2026-09-04 18:28:09 | 50.57152 | 11.92728 | 89° | 18km/h | 31507m | 5.4m/s | -42.0°C | 2.5% | 9.7hPa | 2.6V | 00:00:00 | 02:09:13 | 00:00:00 | |
| DM0DOS-11 | 2026-09-04 18:28:08 | 50.57154 | 11.92686 | 125° | 11km/h | 31480m | 5.7m/s | -42.2°C | 2.5% | 9.8hPa | 2.6V | 08:30:00 | 02:09:08 | 00:00:00 | |
| DL1XH-west | 2026-09-04 18:28:03 | 50.57156 | 11.92683 | 145° | 9km/h | 31475m | 4.7m/s | -42.2°C | 0% | 9.8hPa | 2.6V | 18:12:15 | 02:09:07 | 00:00:00 | |
| DF8AY | 2026-09-04 18:28:02 | 50.57157 | 11.92681 | 137° | 9km/h | 31470m | 4.2m/s | -42.2°C | 0% | 9.8hPa | 2.5V | 18:12:15 | 02:09:06 | 00:00:00 | |
| HSKMA3-T | 2026-09-04 18:28:01 | 50.57159 | 11.92678 | 117° | 11km/h | 31465m | 5.1m/s | -42.2°C | 0% | 9.8hPa | 2.5V | 18:12:15 | 02:09:05 | 00:00:00 | |
| ANDY1245 | 2026-09-04 18:28:00 | 50.57159 | 11.92677 | 118° | 11km/h | 31466m | 5.1m/s | -42.2°C | 0.5% | 9.8hPa | 2.6V | 00:00:00 | 00:00:00 | 00:00:00 | |
| DL1XH1-15 | 2026-09-04 18:27:59 | 50.57153 | 11.92610 | 73° | 20km/h | 31428m | 5.8m/s | -42.2°C | 2.5% | 9.9hPa | 2.6V | 08:30:00 | 02:08:58 | 00:00:00 | |
| DM0DOS-11 | 2026-09-04 18:27:58 | 50.57152 | 11.92604 | 67° | 13km/h | 31422m | 5.4m/s | -42.2°C | 2.5% | 9.9hPa | 2.6V | 08:30:00 | 02:08:57 | 00:00:00 | |
| DL1XH-west | 2026-09-04 18:27:53 | 50.57152 | 11.92604 | 67° | 13km/h | 31422m | 5.4m/s | -42.2°C | 0% | 9.9hPa | 2.6V | 18:12:15 | 02:08:57 | 00:00:00 | |
| DF8AY | 2026-09-04 18:27:51 | 50.57148 | 11.92598 | 24° | 11km/h | 31412m | 4.7m/s | -42.2°C | 0% | 9.9hPa | 2.5V | 18:12:15 | 02:08:55 | 00:00:00 | |
| HSKMA3-T | 2026-09-04 18:27:50 | 50.57146 | 11.92596 | 17° | 15km/h | 31407m | 5.4m/s | -42.2°C | 0% | 9.9hPa | 2.5V | 18:12:15 | 02:08:54 | 00:00:00 | |
| DL1ZP-14 | 2026-09-04 18:27:49 | 50.57141 | 11.92594 | 19° | 18km/h | 31401m | 6.3m/s | -42.2°C | 0.5% | 9.9hPa | 2.5V | 00:00:00 | 00:00:00 | 00:00:00 | |
| DM0DOS-11 | 2026-09-04 18:27:48 | 50.57116 | 11.92561 | 67° | 11km/h | 31368m | 5.6m/s | -42.3°C | 2.5% | 10hPa | 2.5V | 08:30:00 | 02:08:47 | 00:00:00 | |
| DC4HF-4 | 2026-09-04 18:27:48 | 50.57131 | 11.92586 | 33° | 26km/h | 31390m | 5.1m/s | -42.2°C | 0.5% | 9.9hPa | 2.5V | 00:00:00 | 00:00:00 | 00:00:00 | |
| DL1XH-15 | 2026-09-04 18:27:46 | 50.57118 | 11.92566 | 57° | 18km/h | 31374m | 6.1m/s | -42.3°C | 2.5% | 10hPa | 2.5V | 08:30:00 | 02:08:48 | 00:00:00 | |
| DL1XH-west | 2026-09-04 18:27:42 | 50.57116 | 11.92558 | 70° | 7km/h | 31363m | 4.7m/s | -42.3°C | 0% | 10hPa | 2.6V | 18:12:15 | 02:08:46 | 00:00:00 | |
| DF8AY | 2026-09-04 18:27:41 | 50.57115 | 11.92555 | 52° | 7km/h | 31358m | 4.8m/s | -42.4°C | 0% | 10hPa | 2.6V | 18:12:15 | 02:08:45 | 00:00:00 | |
| HSKMA3-T | 2026-09-04 18:27:40 | 50.57113 | 11.92553 | 35° | 9km/h | 31353m | 5.7m/s | -42.4°C | 0% | 10hPa | 2.5V | 18:12:15 | 02:08:44 | 00:00:00 | |
| OE5DXL-15 | 2026-09-04 18:27:40 | 50.57113 | 11.92553 | 36° | 11km/h | 31354m | 5.7m/s | -42.3°C | 2.5% | 10.0hPa | 2.6V | 00:00:00 | 00:00:00 | 00:00:00 | |
| OE5FHM-15 | 2026-09-04 18:27:39 | 50.57111 | 11.92551 | 31° | 11km/h | 31348m | 5.9m/s | -42.3°C | 2.6% | 10.0hPa | 2.6V | 00:00:00 | 02:08:43 | 00:00:00 | |
| NBG1-10 | 2026-09-04 18:27:38 | 50.57107 | 11.92547 | 32° | 11km/h | 31342m | 5.8m/s | -42.3°C | 2.6% | 10.0hPa | 2.6V | 00:00:00 | 02:08:42 | 00:00:00 | |
| DH8WE-5 | 2026-09-04 18:27:37 | 50.57107 | 11.92547 | 33° | 20km/h | 31342m | 5.9m/s | -42.4°C | 0.5% | 10.0hPa | 2.6V | 00:00:00 | 00:00:00 | 00:00:00 | |
| DM0DOS-11 | 2026-09-04 18:27:36 | 50.57085 | 11.92525 | 283° | 4km/h | 31303m | 5.2m/s | -42.3°C | 2.6% | 10.1hPa | 2.6V | 08:30:00 | 02:08:35 | 00:00:00 | |
| DL1XH-west | 2026-09-04 18:27:31 | 50.57085 | 11.92525 | 284° | 4km/h | 31303m | 5.2m/s | -42.3°C | 0% | 10.1hPa | 2.6V | 18:12:15 | 02:08:35 | 00:00:00 | |
| HSKMA3-T | 2026-09-04 18:27:30 | 50.57085 | 11.92527 | 294° | 4km/h | 31298m | 4.8m/s | -42.3°C | 0% | 10.1hPa | 2.5V | 18:12:15 | 02:08:34 | 00:00:00 | |
| DL1XH1-15 | 2026-09-04 18:27:29 | 50.57067 | 11.92522 | 11° | 15km/h | 31264m | 6m/s | -42.2°C | 2.6% | 10.1hPa | 2.6V | 08:30:00 | 02:08:28 | 00:00:00 | |
| DM0DOS-11 | 2026-09-04 18:27:26 | 50.57060 | 11.92520 | 12° | 7km/h | 31249m | 4.9m/s | -42.1°C | 2.6% | 10.2hPa | 2.5V | 08:30:00 | 02:08:25 | 00:00:00 | |
| DL1XH-west | 2026-09-04 18:27:20 | 50.57058 | 11.92519 | 30° | 7km/h | 31243m | 6.1m/s | -42.1°C | 0% | 10.2hPa | 2.6V | 18:12:15 | 02:08:24 | 00:00:00 | |
| HSKMA3-T | 2026-09-04 18:27:19 | 50.57056 | 11.92517 | 47° | 9km/h | 31237m | 6.1m/s | -42.1°C | 0% | 10.2hPa | 2.6V | 18:12:15 | 02:08:23 | 00:00:00 | |
| DL1XH-west | 2026-09-04 18:27:10 | 50.57056 | 11.92495 | 53° | 13km/h | 31187m | 6.3m/s | -41.8°C | 0% | 10.3hPa | 2.6V | 18:12:15 | 02:08:14 | 00:00:00 | |
| HSKMA3-T | 2026-09-04 18:27:08 | 50.57050 | 11.92485 | 43° | 18km/h | 31176m | 4.7m/s | -41.8°C | 0% | 10.3hPa | 2.5V | 18:12:15 | 02:08:12 | 00:00:00 | |
| OE5MMP-10 | 2026-09-04 18:27:07 | 50.57047 | 11.92481 | 40° | 9km/h | 31171m | 5.6m/s | -41.7°C | 2.5% | 10.2hPa | 2.5V | 00:00:00 | 02:08:11 | 08:30:00 | |
| DM0DOS-11 | 2026-09-04 18:27:05 | 50.57049 | 11.92465 | 108° | 16km/h | 31131m | 5.7m/s | -41.9°C | 2.4% | 10.3hPa | 2.5V | 08:30:00 | 02:08:04 | 00:00:00 | |
| DL1XH-west | 2026-09-04 18:26:59 | 50.57050 | 11.92458 | 103° | 16km/h | 31125m | 5.4m/s | -41.9°C | 0% | 10.4hPa | 2.5V | 18:12:15 | 02:08:03 | 00:00:00 | |
| HSKMA3-T | 2026-09-04 18:26:58 | 50.57051 | 11.92452 | 100° | 15km/h | 31119m | 6m/s | -41.9°C | 0% | 10.4hPa | 2.6V | 18:12:15 | 02:08:02 | 00:00:00 | |
| DF8AY | 2026-09-04 18:26:49 | 50.57052 | 11.92410 | 137° | 11km/h | 31072m | 5.5m/s | -41.9°C | 0% | 10.4hPa | 2.5V | 18:12:15 | 02:07:53 | 00:00:00 | |
| DM0DOS-11 | 2026-09-04 18:26:48 | 50.57064 | 11.92407 | 162° | 13km/h | 31050m | 5.4m/s | -41.9°C | 2.5% | 10.5hPa | 2.5V | 08:30:00 | 02:07:49 | 00:00:00 | |
| DL1XH-west | 2026-09-04 18:26:48 | 50.57054 | 11.92408 | 165° | 13km/h | 31066m | 6.6m/s | -41.9°C | 0% | 10.5hPa | 2.6V | 18:12:15 | 02:07:52 | 00:00:00 | |
| DL1ZP-14 | 2026-09-04 18:26:47 | 50.57058 | 11.92408 | 180° | 13km/h | 31060m | 5.9m/s | -42.0°C | 0.5% | 10.5hPa | 2.6V | 00:00:00 | 00:00:00 | 00:00:00 | |
| DF8AY | 2026-09-04 18:26:39 | 50.57078 | 11.92373 | 129° | 18km/h | 31016m | 5.6m/s | -42°C | 0% | 10.5hPa | 2.5V | 18:12:15 | 02:07:43 | 00:00:00 | |
| DL1XH-west | 2026-09-04 18:26:37 | 50.57084 | 11.92364 | 145° | 16km/h | 31006m | 4.9m/s | -42.1°C | 0% | 10.5hPa | 2.5V | 18:12:15 | 02:07:41 | 00:00:00 | |
| OE5MMP-10 | 2026-09-04 18:26:37 | 50.57084 | 11.92364 | 145° | 15km/h | 31006m | 4.8m/s | -42.0°C | 2.5% | 10.5hPa | 2.5V | 00:00:00 | 02:07:41 | 00:00:00 | |
| DL1XH-15 | 2026-09-04 18:26:35 | 50.57092 | 11.92354 | 129° | 11km/h | 30989m | 5.5m/s | -42.1°C | 2.5% | 10.6hPa | 2.5V | 08:30:00 | 02:07:38 | 00:00:00 | |
| DF8AY | 2026-09-04 18:26:34 | 50.57105 | 11.92345 | 172° | 16km/h | 30962m | 5m/s | -42.1°C | 0% | 10.6hPa | 2.5V | 18:12:15 | 02:07:33 | 00:00:00 | |
| OE5DRO-10 | 2026-09-04 18:26:34 | 50.57092 | 11.92354 | 130° | 16km/h | 30990m | 5.5m/s | -42.0°C | 2.5% | 10.5hPa | 2.5V | 00:00:00 | 00:00:00 | 00:00:00 | |
| DO3MHA-11 | 2026-09-04 18:26:33 | 50.57093 | 11.92350 | 134° | 16km/h | 30984m | 4.8m/s | -42.0°C | 2.5% | 10.5hPa | 2.5V | 00:00:00 | 02:07:37 | 00:00:00 | |
| NBG1-10 | 2026-09-04 18:26:32 | 50.57095 | 11.92348 | 149° | 24km/h | 30980m | 5.0m/s | -42.0°C | 2.5% | 10.6hPa | 2.5V | 00:00:00 | 02:07:36 | 00:00:00 | |
| D01LWL | 2026-09-04 18:26:30 | 50.57105 | 11.92345 | 172° | 16km/h | 30962m | 5.0m/s | -42.1°C | 0.5% | 10.6hPa | 2.5V | 00:00:00 | 00:00:00 | 00:00:00 | |
| DL1XH1-15 | 2026-09-04 18:26:29 | 50.57121 | 11.92320 | 116° | 22km/h | 30935m | 4.5m/s | -42.1°C | 2.5% | 10.7hPa | 2.5V | 08:30:00 | 02:07:28 | 00:00:00 | |
| DL1XH-west | 2026-09-04 18:26:27 | 50.57113 | 11.92340 | 144° | 18km/h | 30952m | 5.9m/s | -42.1°C | 0% | 10.6hPa | 2.5V | 18:12:15 | 02:07:31 | 00:00:00 | |
| HSKMA3-T | 2026-09-04 18:26:26 | 50.57116 | 11.92335 | 126° | 20km/h | 30945m | 6.2m/s | -42.1°C | 0% | 10.7hPa | 2.6V | 18:12:15 | 02:07:30 | 00:00:00 | |
| DJ2DS-15 | 2026-09-04 18:26:26 | 50.57116 | 11.92335 | 125° | 18km/h | 30946m | 6.2m/s | -42.1°C | 0.5% | 10.7hPa | 2.5V | 00:00:00 | 00:00:00 | 00:00:00 | |
| DJ2DS-15 | 2026-09-04 18:26:24 | 50.57121 | 11.92320 | 117° | 22km/h | 30935m | 4.5m/s | -42.1°C | 2.5% | 10.6hPa | 2.5V | 00:00:00 | 02:07:28 | 00:00:00 | |
| OM5KV | 2026-09-04 18:26:23 | 50.57124 | 11.92312 | 123° | 22km/h | 30930m | 5.8m/s | -42.1°C | 0.5% | 10.7hPa | 2.6V | 00:00:00 | 00:00:00 | 00:00:00 | |
| 13BRC | 2026-09-04 18:26:22 | 50.57124 | 11.92312 | 123° | 22km/h | 30930m | 5.8m/s | -42.1°C | 0.5% | 10.7hPa | 2.6V | 00:00:00 | 00:00:00 | 00:00:00 | |
| DM7RM-13 | 2026-09-04 18:26:21 | 50.57127 | 11.92306 | 136° | 20km/h | 30924m | 5.9m/s | -42.1°C | 0.5% | 10.7hPa | 2.6V | 00:00:00 | 00:00:00 | 00:00:00 | |
| PETON7-10 | 2026-09-04 18:26:20 | 50.57136 | 11.92298 | 159° | 22km/h | 30914m | 4.6m/s | -42.1°C | 2.5% | 10.7hPa | 2.6V | 00:00:00 | 00:00:00 | 00:00:00 | |
| DL1XH1-15 | 2026-09-04 18:26:19 | 50.57157 | 11.92277 | 146° | 16km/h | 30882m | 5.1m/s | -42.2°C | 2.5% | 10.8hPa | 2.6V | 08:30:00 | 02:07:18 | 00:00:00 | |
| DF8AY | 2026-09-04 18:26:19 | 50.57144 | 11.92292 | 154° | 16km/h | 30904m | 6.2m/s | -42.2°C | 0% | 10.7hPa | 2.5V | 18:12:15 | 02:07:22 | 00:00:00 | |
| DL1XH-west | 2026-09-04 18:26:17 | 50.57147 | 11.92289 | 144° | 16km/h | 30898m | 5.7m/s | -42.2°C | 0% | 10.7hPa | 2.5V | 18:12:15 | 02:07:21 | 00:00:00 | |
| HSKMA3-T | 2026-09-04 18:26:15 | 50.57154 | 11.92281 | 139° | 16km/h | 30887m | 4.8m/s | -42.2°C | 0% | 10.7hPa | 2.6V | 18:12:15 | 02:07:19 | 00:00:00 | |
| OE5MMP-10 | 2026-09-04 18:26:15 | 50.57153 | 11.92281 | 139° | 22km/h | 30888m | 4.7m/s | -42.2°C | 2.5% | 10.7hPa | 2.6V | 00:00:00 | 02:07:19 | 00:00:00 | |
| DM0DOS-11 | 2026-09-04 18:26:14 | 50.57183 | 11.92256 | 138° | 27km/h | 30857m | 5.6m/s | -42.3°C | 2.5% | 10.8hPa | 2.6V | 08:30:00 | 02:07:13 | 00:00:00 | |
| DO3MHA-11 | 2026-09-04 18:26:13 | 50.57161 | 11.92273 | 155° | 26km/h | 30877m | 6.1m/s | -42.2°C | 2.5% | 10.7hPa | 2.6V | 00:00:00 | 02:07:17 | 00:00:00 | |
| AM1SDL-15 | 2026-09-04 18:26:12 | 50.57166 | 11.92270 | 160° | 22km/h | 30871m | 5.2m/s | -42.2°C | 2.5% | 10.7hPa | 2.6V | 00:00:00 | 02:07:16 | 00:00:00 | |
| OM5KV | 2026-09-04 18:26:11 | 50.57166 | 11.92270 | 161° | 22km/h | 30871m | 5.3m/s | -42.3°C | 0.5% | 10.8hPa | 2.6V | 00:00:00 | 00:00:00 | 00:00:00 | |
| OE5DXL-15 | 2026-09-04 18:26:10 | 50.57177 | 11.92262 | 150° | 26km/h | 30862m | 4.2m/s | -42.3°C | 2.5% | 10.7hPa | 2.6V | 00:00:00 | 00:00:00 | 00:00:00 | |
| DL1XH1-15 | 2026-09-04 18:26:09 | 50.57200 | 11.92212 | 126° | 16km/h | 30830m | 5.9m/s | -42.4°C | 2.6% | 10.8hPa | 2.6V | 08:30:00 | 02:07:08 | 00:00:00 | |
| DF8AY | 2026-09-04 18:26:07 | 50.57192 | 11.92238 | 119° | 29km/h | 30845m | 5.3m/s | -42.4°C | 0% | 10.8hPa | 2.5V | 18:12:15 | 02:07:11 | 00:00:00 | |
| DL1XH-west | 2026-09-04 18:26:06 | 50.57195 | 11.92227 | 113° | 27km/h | 30840m | 4.5m/s | -42.4°C | 0% | 10.8hPa | 2.5V | 18:12:15 | 02:07:10 | 00:00:00 | |
| HSKMA3-T | 2026-09-04 18:26:05 | 50.57197 | 11.92218 | 115° | 22km/h | 30835m | 5.2m/s | -42.4°C | 0% | 10.8hPa | 2.5V | 18:12:15 | 02:07:09 | 00:00:00 | |
| PETON7-10 | 2026-09-04 18:26:05 | 50.57197 | 11.92218 | 115° | 26km/h | 30836m | 5.2m/s | -42.4°C | 2.5% | 10.8hPa | 2.6V | 00:00:00 | 00:00:00 | 00:00:00 | |
| DJ2DS-15 | 2026-09-04 18:26:04 | 50.57200 | 11.92212 | 127° | 22km/h | 30831m | 5.8m/s | -42.4°C | 2.6% | 10.8hPa | 2.6V | 00:00:00 | 02:07:08 | 00:00:00 | |
| DO3MHA-11 | 2026-09-04 18:26:03 | 50.57203 | 11.92208 | 150° | 26km/h | 30825m | 5.3m/s | -42.4°C | 2.5% | 10.8hPa | 2.6V | 00:00:00 | 02:07:07 | 08:30:00 | |
| AU51GT2 | 2026-09-04 18:26:02 | 50.57206 | 11.92206 | 166° | 13km/h | 30820m | 4.9m/s | -42.4°C | 0.5% | 10.9hPa | 2.6V | 00:00:00 | 00:00:00 | 00:00:00 | |
| DM7RM-13 | 2026-09-04 18:26:01 | 50.57206 | 11.92206 | 168° | 15km/h | 30820m | 4.9m/s | -42.4°C | 0.5% | 10.9hPa | 2.6V | 00:00:00 | 00:00:00 | 00:00:00 | |
| AM1SDL-15 | 2026-09-04 18:26:00 | 50.57214 | 11.92203 | 165° | 27km/h | 30809m | 5.7m/s | -42.4°C | 2.5% | 10.8hPa | 2.6V | 00:00:00 | 02:07:04 | 00:00:00 | |
| DL1XH-15 | 2026-09-04 18:25:59 | 50.57256 | 11.92175 | 147° | 31km/h | 30777m | 4.2m/s | -42.5°C | 2.5% | 10.9hPa | 2.6V | 08:30:00 | 02:06:58 | 00:00:00 | |
| DF8AY | 2026-09-04 18:25:57 | 50.57233 | 11.92191 | 158° | 33km/h | 30792m | 5.6m/s | -42.5°C | 0% | 10.9hPa | 2.5V | 18:12:15 | 02:07:01 | 00:00:00 | |
| AA1-15 | 2026-09-04 18:25:56 | 50.57241 | 11.92187 | 158° | 33km/h | 30787m | 5.7m/s | -42.5°C | 0% | 10.9hPa | 2.5V | 18:12:15 | 02:07:00 | 00:00:00 | |
| DL1XH-west | 2026-09-04 18:25:55 | 50.57249 | 11.92181 | 155° | 33km/h | 30782m | 4.3m/s | -42.5°C | 0% | 10.9hPa | 2.5V | 18:12:15 | 02:06:59 | 00:00:00 | |
| SONCRA | 2026-09-04 18:25:53 | 50.57262 | 11.92167 | 136° | 29km/h | 30773m | 5.7m/s | -42.5°C | 0.5% | 10.9hPa | 2.5V | 00:00:00 | 00:00:00 | 00:00:00 | |
| HARRO8 | 2026-09-04 18:25:51 | 50.57270 | 11.92149 | 113° | 26km/h | 30761m | 5.3m/s | -42.6°C | 0.5% | 10.9hPa | 2.5V | 00:00:00 | 00:00:00 | 00:00:00 | |
| PETON7-10 | 2026-09-04 18:25:50 | 50.57272 | 11.92140 | 110° | 24km/h | 30756m | 4.4m/s | -42.6°C | 2.6% | 10.9hPa | 2.5V | 00:00:00 | 02:06:54 | 00:00:00 | |
| KRY50SP | 2026-09-04 18:25:49 | 50.57272 | 11.92141 | 110° | 20km/h | 30756m | 4.4m/s | -42.6°C | 0.5% | 11.0hPa | 2.5V | 00:00:00 | 00:00:00 | 00:00:00 | |
| DM0DOS-11 | 2026-09-04 18:25:48 | 50.57302 | 11.92126 | 160° | 31km/h | 30720m | 5.1m/s | -42.6°C | 2.6% | 11hPa | 2.5V | 08:30:00 | 02:06:47 | 00:00:00 | |
| DF8AY | 2026-09-04 18:25:46 | 50.57283 | 11.92129 | 186° | 20km/h | 30736m | 4.4m/s | -42.6°C | 0% | 11hPa | 2.6V | 18:12:15 | 02:06:50 | 00:00:00 | |
| DL1XH-15 | 2026-09-04 18:25:45 | 50.57295 | 11.92129 | 171° | 27km/h | 30726m | 5.5m/s | -42.6°C | 2.6% | 11hPa | 2.5V | 08:30:00 | 02:06:48 | 00:00:00 | |
| HSKMA3-T | 2026-09-04 18:25:44 | 50.57295 | 11.92129 | 172° | 27km/h | 30726m | 5.5m/s | -42.6°C | 0% | 11hPa | 2.5V | 18:12:15 | 02:06:48 | 00:00:00 | |
| DJ2DS-15 | 2026-09-04 18:25:44 | 50.57295 | 11.92129 | 172° | 26km/h | 30726m | 5.5m/s | -42.6°C | 2.6% | 11.0hPa | 2.6V | 00:00:00 | 02:06:48 | 00:00:00 | |
| DO3MHA-11 | 2026-09-04 18:25:43 | 50.57302 | 11.92126 | 161° | 26km/h | 30721m | 5.1m/s | -42.5°C | 2.6% | 11.0hPa | 2.6V | 00:00:00 | 02:06:47 | 00:00:00 | |
| DL3JIN-12 | 2026-09-04 18:25:42 | 50.57302 | 11.92126 | 162° | 31km/h | 30721m | 5.1m/s | -42.6°C | 0.6% | 11.0hPa | 2.6V | 00:00:00 | 00:00:00 | 00:00:00 | |
| DK5PH-5 | 2026-09-04 18:25:41 | 50.57317 | 11.92115 | 148° | 24km/h | 30711m | 4.3m/s | -42.5°C | 2.5% | 11.0hPa | 2.6V | 00:00:00 | 02:06:45 | 00:00:00 | |
| OE5DXL-15 | 2026-09-04 18:25:40 | 50.57323 | 11.92108 | 146° | 24km/h | 30707m | 4.9m/s | -42.5°C | 2.5% | 11.0hPa | 2.5V | 00:00:00 | 00:00:00 | 00:00:00 | |
| DL1XH1-15 | 2026-09-04 18:25:39 | 50.57352 | 11.92081 | 147° | 16km/h | 30674m | 5.4m/s | -42.7°C | 2.6% | 11.1hPa | 2.5V | 08:30:00 | 02:06:38 | 00:00:00 | |
| DF8AY | 2026-09-04 18:25:36 | 50.57345 | 11.92088 | 154° | 18km/h | 30685m | 4.9m/s | -42.6°C | 0% | 11.1hPa | 2.6V | 18:12:15 | 02:06:40 | 00:00:00 | |
| HSKMA3-T | 2026-09-04 18:25:34 | 50.57352 | 11.92081 | 148° | 16km/h | 30674m | 5.4m/s | -42.7°C | 0% | 11.1hPa | 2.5V | 18:12:15 | 02:06:38 | 00:00:00 | |
| DL1XH-west | 2026-09-04 18:25:33 | 50.57356 | 11.92078 | 156° | 16km/h | 30669m | 4.5m/s | -42.7°C | 0% | 11.1hPa | 2.5V | 18:12:15 | 02:06:37 | 00:00:00 | |
| AA1-15 | 2026-09-04 18:25:31 | 50.57365 | 11.92075 | 178° | 22km/h | 30659m | 6.2m/s | -42.7°C | 0% | 11.1hPa | 2.6V | 18:12:15 | 02:06:35 | 00:00:00 | |
| SP3BTT-10 | 2026-09-04 18:25:31 | 50.57365 | 11.92075 | 178° | 20km/h | 30659m | 6.1m/s | -42.7°C | 2.6% | 11.1hPa | 2.5V | 00:00:00 | 00:00:00 | 00:00:00 | |
| S52SK | 2026-09-04 18:25:30 | 50.57365 | 11.92075 | 179° | 22km/h | 30659m | 6.2m/s | -42.7°C | 0.5% | 11.1hPa | 2.5V | 00:00:00 | 00:00:00 | 00:00:00 | |
| DL1XH1-15 | 2026-09-04 18:25:29 | 50.57413 | 11.92049 | 137° | 29km/h | 30624m | 4.1m/s | -43°C | 2.7% | 11.2hPa | 2.5V | 08:30:00 | 02:06:28 | 00:00:00 | |
| DM0DOS-11 | 2026-09-04 18:25:28 | 50.57408 | 11.92057 | 140° | 33km/h | 30628m | 4.3m/s | -42.9°C | 2.6% | 11.2hPa | 2.5V | 08:30:00 | 02:06:29 | 00:00:00 | |
| DF8AY | 2026-09-04 18:25:25 | 50.57408 | 11.92057 | 141° | 33km/h | 30628m | 4.3m/s | -42.9°C | 0% | 11.2hPa | 2.5V | 18:12:15 | 02:06:29 | 00:00:00 | |
| HSKMA3-T | 2026-09-04 18:25:23 | 50.57419 | 11.92042 | 139° | 24km/h | 30619m | 5.3m/s | -43°C | 0% | 11.2hPa | 2.5V | 18:12:15 | 02:06:27 | 00:00:00 | |
| DL1XH-west | 2026-09-04 18:25:22 | 50.57423 | 11.92037 | 148° | 18km/h | 30614m | 5.9m/s | -43°C | 0% | 11.2hPa | 2.5V | 18:12:15 | 02:06:26 | 00:00:00 | |
| 13BRC | 2026-09-04 18:25:21 | 50.57426 | 11.92034 | 165° | 13km/h | 30608m | 5.4m/s | -43.0°C | 0.6% | 11.2hPa | 2.6V | 00:00:00 | 00:00:00 | 00:00:00 | |
| PETON7-10 | 2026-09-04 18:25:20 | 50.57429 | 11.92033 | 180° | 22km/h | 30603m | 4.5m/s | -43.0°C | 2.6% | 11.2hPa | 2.6V | 00:00:00 | 00:00:00 | 00:00:00 | |
| DL1XH1-15 | 2026-09-04 18:25:19 | 50.57456 | 11.92020 | 161° | 29km/h | 30573m | 5.4m/s | -43.1°C | 2.7% | 11.3hPa | 2.6V | 08:30:00 | 02:06:18 | 00:00:00 | |
| AA1-15 | 2026-09-04 18:25:15 | 50.57450 | 11.92024 | 157° | 27km/h | 30578m | 4.7m/s | -43.1°C | 0% | 11.3hPa | 2.6V | 18:12:15 | 02:06:19 | 00:00:00 | |
| NBG1-10 | 2026-09-04 18:25:15 | 50.57450 | 11.92024 | 158° | 18km/h | 30579m | 4.6m/s | -43.1°C | 2.7% | 11.2hPa | 2.6V | 00:00:00 | 02:06:19 | 00:00:00 | |
| DM0DOS-11 | 2026-09-04 18:25:14 | 50.57489 | 11.92004 | 138° | 22km/h | 30549m | 6m/s | -43°C | 2.6% | 11.3hPa | 2.6V | 08:30:00 | 02:06:13 | 00:00:00 | |
| HSKMA3-T | 2026-09-04 18:25:12 | 50.57471 | 11.92015 | 170° | 29km/h | 30562m | 4.6m/s | -43.1°C | 0% | 11.3hPa | 2.5V | 18:12:15 | 02:06:16 | 00:00:00 | |
| DL1XH-west | 2026-09-04 18:25:11 | 50.57478 | 11.92012 | 165° | 27km/h | 30558m | 3.9m/s | -43°C | 0% | 11.3hPa | 2.5V | 18:12:15 | 02:06:15 | 00:00:00 | |
| AA1-15 | 2026-09-04 18:25:04 | 50.57495 | 11.91971 | 112° | 11km/h | 30522m | 5.2m/s | -43°C | 0% | 11.4hPa | 2.6V | 18:12:15 | 02:06:08 | 00:00:00 | |
| HSKMA3-T | 2026-09-04 18:25:01 | 50.57503 | 11.91963 | 159° | 20km/h | 30508m | 5.8m/s | -43°C | 0% | 11.4hPa | 2.5V | 18:12:15 | 02:06:05 | 00:00:00 | |
| DL1XH-west | 2026-09-04 18:25:00 | 50.57508 | 11.91960 | 156° | 24km/h | 30502m | 5.9m/s | -43°C | 0% | 11.4hPa | 2.6V | 18:12:15 | 02:06:04 | 00:00:00 | |
| D01LWL | 2026-09-04 18:24:57 | 50.57533 | 11.91942 | 162° | 24km/h | 30482m | 5.5m/s | -43.0°C | 0.5% | 11.4hPa | 2.5V | 00:00:00 | 00:00:00 | 00:00:00 | |
| DM0DOS-11 | 2026-09-04 18:24:55 | 50.57552 | 11.91926 | 106° | 16km/h | 30452m | 4.8m/s | -43°C | 2.6% | 11.5hPa | 2.5V | 08:30:00 | 02:05:54 | 00:00:00 | |
| DF8AY | 2026-09-04 18:24:53 | 50.57546 | 11.91937 | 163° | 13km/h | 30468m | 4.2m/s | -43°C | 0% | 11.5hPa | 2.6V | 18:12:15 | 02:05:57 | 00:00:00 | |
| HSKMA3-T | 2026-09-04 18:24:51 | 50.57551 | 11.91932 | 119° | 13km/h | 30457m | 5.8m/s | -43°C | 0% | 11.5hPa | 2.5V | 18:12:15 | 02:05:55 | 00:00:00 | |
| AA1-15 | 2026-09-04 18:24:50 | 50.57552 | 11.91926 | 107° | 16km/h | 30452m | 4.8m/s | -43°C | 0% | 11.5hPa | 2.5V | 18:12:15 | 02:05:54 | 00:00:00 | |
| DL1XH-west | 2026-09-04 18:24:49 | 50.57554 | 11.91920 | 106° | 16km/h | 30447m | 4.3m/s | -43°C | 0% | 11.5hPa | 2.5V | 18:12:15 | 02:05:53 | 00:00:00 | |
| DC4HF-4 | 2026-09-04 18:24:47 | 50.57556 | 11.91910 | 129° | 9km/h | 30438m | 5.7m/s | -43.1°C | 0.5% | 11.5hPa | 2.6V | 00:00:00 | 00:00:00 | 00:00:00 | |
| SONDE2-11 | 2026-09-04 18:24:46 | 50.57561 | 11.91909 | 197° | 11km/h | 30427m | 4.8m/s | -43.1°C | 0.5% | 11.5hPa | 2.6V | 00:00:00 | 00:00:00 | 00:00:00 | |
| DB0UT-7 | 2026-09-04 18:24:45 | 50.57561 | 11.91909 | 198° | 20km/h | 30428m | 4.7m/s | -43.1°C | 2.6% | 11.5hPa | 2.6V | 00:00:00 | 02:05:49 | 00:00:00 | |
| DJ2DS-15 | 2026-09-04 18:24:44 | 50.57564 | 11.91911 | 199° | 18km/h | 30423m | 3.8m/s | -43.1°C | 2.6% | 11.5hPa | 2.6V | 00:00:00 | 02:05:48 | 00:00:00 | |
| DM0DOS-11 | 2026-09-04 18:24:43 | 50.57589 | 11.91896 | 121° | 16km/h | 30395m | 4.7m/s | -43.2°C | 2.6% | 11.6hPa | 2.6V | 08:30:00 | 02:05:42 | 00:00:00 | |
| DF8AY | 2026-09-04 18:24:43 | 50.57569 | 11.91913 | 190° | 18km/h | 30419m | 4.2m/s | -43.1°C | 0% | 11.6hPa | 2.6V | 18:12:15 | 02:05:47 | 00:00:00 | |
| HSKMA3-T | 2026-09-04 18:24:40 | 50.57583 | 11.91907 | 141° | 20km/h | 30404m | 4.5m/s | -43.2°C | 0% | 11.6hPa | 2.5V | 18:12:15 | 02:05:44 | 00:00:00 | |
| DL1XH-west | 2026-09-04 18:24:39 | 50.57586 | 11.91902 | 129° | 18km/h | 30399m | 4.5m/s | -43.2°C | 0% | 11.6hPa | 2.5V | 18:12:15 | 02:05:43 | 00:00:00 | |
| DF8AY | 2026-09-04 18:24:32 | 50.57606 | 11.91883 | 158° | 20km/h | 30365m | 5.1m/s | -43.3°C | 0% | 11.6hPa | 2.6V | 18:12:15 | 02:05:36 | 00:00:00 | |
| OE5MMP-10 | 2026-09-04 18:24:30 | 50.57614 | 11.91874 | 137° | 20km/h | 30356m | 4.7m/s | -43.3°C | 2.6% | 11.6hPa | 2.5V | 00:00:00 | 02:05:34 | 00:00:00 | |
| DL1XH1-15 | 2026-09-04 18:24:29 | 50.57637 | 11.91840 | 142° | 22km/h | 30326m | 4.8m/s | -43.5°C | 2.7% | 11.7hPa | 2.5V | 08:30:00 | 02:05:28 | 00:00:00 | |
| HSKMA3-T | 2026-09-04 18:24:29 | 50.57618 | 11.91867 | 129° | 22km/h | 30351m | 4.6m/s | -43.4°C | 0% | 11.7hPa | 2.5V | 18:12:15 | 02:05:33 | 00:00:00 | |
| DL1XH-west | 2026-09-04 18:24:28 | 50.57622 | 11.91861 | 129° | 20km/h | 30346m | 4.9m/s | -43.4°C | 0% | 11.7hPa | 2.6V | 18:12:15 | 02:05:32 | 00:00:00 | |
| DF8AY | 2026-09-04 18:24:21 | 50.57647 | 11.91823 | 121° | 16km/h | 30313m | 4.5m/s | -43.7°C | 0% | 11.7hPa | 2.6V | 18:12:15 | 02:05:25 | 00:00:00 | |
| OE5DRO-10 | 2026-09-04 18:24:21 | 50.57647 | 11.91823 | 122° | 24km/h | 30313m | 4.4m/s | -43.6°C | 2.7% | 11.7hPa | 2.5V | 00:00:00 | 00:00:00 | 00:00:00 | |
| PETON7-10 | 2026-09-04 18:24:20 | 50.57649 | 11.91818 | 117° | 24km/h | 30308m | 4.4m/s | -43.6°C | 2.7% | 11.7hPa | 2.5V | 00:00:00 | 02:05:24 | 00:00:00 | |
| DL1XH1-15 | 2026-09-04 18:24:19 | 50.57673 | 11.91799 | 146° | 35km/h | 30280m | 5.2m/s | -43.8°C | 2.7% | 11.8hPa | 2.5V | 08:30:00 | 02:05:18 | 00:00:00 | |
| HSKMA3-T | 2026-09-04 18:24:19 | 50.57650 | 11.91814 | 127° | 9km/h | 30304m | 4.6m/s | -43.7°C | 0% | 11.8hPa | 2.5V | 18:12:15 | 02:05:23 | 00:00:00 | |
| DL1XH-west | 2026-09-04 18:24:18 | 50.57652 | 11.91812 | 157° | 9km/h | 30299m | 4.5m/s | -43.7°C | 0% | 11.8hPa | 2.5V | 18:12:15 | 02:05:22 | 00:00:00 | |
| DM0DOS-11 | 2026-09-04 18:24:17 | 50.57687 | 11.91778 | 127° | 40km/h | 30270m | 4.8m/s | -43.8°C | 2.7% | 11.8hPa | 2.5V | 08:30:00 | 02:05:16 | 00:00:00 | |
| AA1-15 | 2026-09-04 18:24:12 | 50.57687 | 11.91778 | 128° | 40km/h | 30270m | 4.8m/s | -43.8°C | 0% | 11.8hPa | 2.5V | 18:12:15 | 02:05:16 | 00:00:00 | |
| DF8AY | 2026-09-04 18:24:11 | 50.57693 | 11.91766 | 119° | 37km/h | 30266m | 4.5m/s | -43.7°C | 0% | 11.8hPa | 2.6V | 18:12:15 | 02:05:15 | 00:00:00 | |
| HSKMA3-T | 2026-09-04 18:24:08 | 50.57701 | 11.91736 | 117° | 15km/h | 30251m | 4.8m/s | -43.7°C | 0% | 11.8hPa | 2.5V | 18:12:15 | 02:05:12 | 00:00:00 | |
| DL1XH-west | 2026-09-04 18:24:07 | 50.57703 | 11.91732 | 147° | 13km/h | 30246m | 4.6m/s | -43.7°C | 0% | 11.9hPa | 2.5V | 18:12:15 | 02:05:11 | 00:00:00 | |
| NBG1-10 | 2026-09-04 18:24:07 | 50.57703 | 11.91732 | 148° | 24km/h | 30247m | 4.6m/s | -43.7°C | 2.6% | 11.8hPa | 2.6V | 00:00:00 | 02:05:11 | 00:00:00 | |
| PETON7-10 | 2026-09-04 18:24:05 | 50.57711 | 11.91730 | 174° | 27km/h | 30237m | 5.1m/s | -43.7°C | 2.7% | 11.8hPa | 2.6V | 00:00:00 | 00:00:00 | 00:00:00 | |
| DM0DOS-11 | 2026-09-04 18:24:04 | 50.57755 | 11.91691 | 122° | 29km/h | 30207m | 5.3m/s | -44°C | 2.7% | 11.9hPa | 2.6V | 08:30:00 | 02:05:03 | 00:00:00 | |
| AA1-15 | 2026-09-04 18:24:01 | 50.57743 | 11.91710 | 144° | 38km/h | 30217m | 4.9m/s | -44°C | 0% | 11.9hPa | 2.6V | 18:12:15 | 02:05:05 | 00:00:00 | |
| DF8AY | 2026-09-04 18:24:00 | 50.57750 | 11.91701 | 133° | 33km/h | 30212m | 5.4m/s | -44°C | 0% | 11.9hPa | 2.6V | 18:12:15 | 02:05:04 | 00:00:00 | |
| HSKMA3-T | 2026-09-04 18:23:58 | 50.57758 | 11.91682 | 114° | 26km/h | 30201m | 5.1m/s | -44.1°C | 0% | 11.9hPa | 2.6V | 18:12:15 | 02:05:02 | 00:00:00 | |
| DL1XH-west | 2026-09-04 18:23:56 | 50.57762 | 11.91665 | 109° | 22km/h | 30191m | 5.4m/s | -44.2°C | 0% | 11.9hPa | 2.5V | 18:12:15 | 02:05:00 | 00:00:00 | |
| OM5KV | 2026-09-04 18:23:56 | 50.57762 | 11.91664 | 110° | 22km/h | 30191m | 5.4m/s | -44.2°C | 0.6% | 11.9hPa | 2.5V | 00:00:00 | 00:00:00 | 00:00:00 | |
| OM5KV | 2026-09-04 18:23:54 | 50.57764 | 11.91657 | 115° | 20km/h | 30186m | 5.3m/s | -44.2°C | 0.6% | 11.9hPa | 2.5V | 00:00:00 | 00:00:00 | 00:00:00 | |
| DO3MHA-11 | 2026-09-04 18:23:53 | 50.57769 | 11.91643 | 133° | 20km/h | 30176m | 4.7m/s | -44.2°C | 2.8% | 11.9hPa | 2.5V | 00:00:00 | 02:04:57 | 00:00:00 | |
| OE5MMP-10 | 2026-09-04 18:23:50 | 50.57781 | 11.91628 | 143° | 16km/h | 30161m | 5.8m/s | -44.2°C | 2.7% | 11.9hPa | 2.5V | 00:00:00 | 02:04:54 | 08:30:00 | |
| DL1XH1-15 | 2026-09-04 18:23:49 | 50.57808 | 11.91603 | 148° | 27km/h | 30130m | 4.2m/s | -44.4°C | 2.8% | 12.1hPa | 2.6V | 08:30:00 | 02:04:48 | 00:00:00 | |
| DF8AY | 2026-09-04 18:23:49 | 50.57784 | 11.91625 | 145° | 16km/h | 30155m | 4.9m/s | -44.3°C | 0% | 12hPa | 2.6V | 18:12:15 | 02:04:53 | 00:00:00 | |
| S52SK | 2026-09-04 18:23:48 | 50.57784 | 11.91625 | 146° | 16km/h | 30155m | 4.9m/s | -44.3°C | 0.6% | 12.0hPa | 2.5V | 00:00:00 | 00:00:00 | 00:00:00 | |
| DM0DOS-11 | 2026-09-04 18:23:47 | 50.57818 | 11.91591 | 133° | 22km/h | 30120m | 6m/s | -44.3°C | 2.8% | 12.1hPa | 2.5V | 08:30:00 | 02:04:46 | 00:00:00 | |
| HSKMA3-T | 2026-09-04 18:23:47 | 50.57792 | 11.91617 | 153° | 20km/h | 30145m | 5.4m/s | -44.3°C | 0% | 12hPa | 2.5V | 18:12:15 | 02:04:51 | 00:00:00 | |
| DL1XH-west | 2026-09-04 18:23:46 | 50.57797 | 11.91613 | 153° | 24km/h | 30140m | 6m/s | -44.3°C | 0% | 12.1hPa | 2.5V | 18:12:15 | 02:04:50 | 00:00:00 | |
| KRY50SP | 2026-09-04 18:23:45 | 50.57797 | 11.91613 | 154° | 24km/h | 30140m | 6.0m/s | -44.3°C | 0.6% | 12.0hPa | 2.5V | 00:00:00 | 00:00:00 | 00:00:00 | |
| SONDE2-11 | 2026-09-04 18:23:44 | 50.57814 | 11.91598 | 141° | 24km/h | 30126m | 4.7m/s | -44.4°C | 0.6% | 12.1hPa | 2.5V | 00:00:00 | 00:00:00 | 00:00:00 | |
| DO3MHA-11 | 2026-09-04 18:23:43 | 50.57814 | 11.91597 | 142° | 24km/h | 30126m | 4.7m/s | -44.3°C | 2.8% | 12.0hPa | 2.5V | 00:00:00 | 02:04:47 | 00:00:00 | |
| DL3JIN-12 | 2026-09-04 18:23:41 | 50.57821 | 11.91585 | 123° | 20km/h | 30115m | 5.4m/s | -44.3°C | 0.6% | 12.1hPa | 2.5V | 00:00:00 | 00:00:00 | 00:00:00 | |
| OE5DXL-15 | 2026-09-04 18:23:40 | 50.57824 | 11.91579 | 117° | 24km/h | 30110m | 4.2m/s | -44.3°C | 2.8% | 12.1hPa | 2.5V | 00:00:00 | 00:00:00 | 08:30:00 | |
| DL1XH1-15 | 2026-09-04 18:23:39 | 50.57850 | 11.91535 | 139° | 31km/h | 30077m | 6m/s | -44.4°C | 2.7% | 12.2hPa | 2.6V | 08:30:00 | 02:04:38 | 00:00:00 | |
| AA1-15 | 2026-09-04 18:23:39 | 50.57826 | 11.91572 | 121° | 20km/h | 30104m | 4.9m/s | -44.3°C | 0% | 12.1hPa | 2.6V | 18:12:15 | 02:04:43 | 00:00:00 | |
| DF8AY | 2026-09-04 18:23:38 | 50.57829 | 11.91565 | 129° | 22km/h | 30099m | 6m/s | -44.3°C | 0% | 12.1hPa | 2.6V | 18:12:15 | 02:04:42 | 00:00:00 | |
| HSKMA3-T | 2026-09-04 18:23:36 | 50.57838 | 11.91551 | 141° | 29km/h | 30088m | 5.2m/s | -44.4°C | 0% | 12.2hPa | 2.5V | 18:12:15 | 02:04:40 | 00:00:00 | |
| DL1XH-west | 2026-09-04 18:23:35 | 50.57844 | 11.91543 | 141° | 31km/h | 30083m | 4.8m/s | -44.4°C | 0% | 12.2hPa | 2.5V | 18:12:15 | 02:04:39 | 00:00:00 | |
| DF2AP-13 | 2026-09-04 18:23:35 | 50.57844 | 11.91543 | 142° | 22km/h | 30083m | 4.8m/s | -44.3°C | 2.8% | 12.1hPa | 2.6V | 00:00:00 | 02:04:39 | 00:00:00 | |
| NBG1-10 | 2026-09-04 18:23:34 | 50.57850 | 11.91535 | 140° | 22km/h | 30078m | 6.0m/s | -44.3°C | 2.7% | 12.1hPa | 2.6V | 00:00:00 | 02:04:38 | 00:00:00 | |
| DO3MHA-11 | 2026-09-04 18:23:33 | 50.57856 | 11.91527 | 137° | 27km/h | 30072m | 5.7m/s | -44.3°C | 2.8% | 12.1hPa | 2.6V | 00:00:00 | 02:04:37 | 00:00:00 | |
| DL6DJ-15 | 2026-09-04 18:23:32 | 50.57867 | 11.91510 | 133° | 29km/h | 30061m | 5.1m/s | -44.4°C | 0.6% | 12.2hPa | 2.6V | 00:00:00 | 00:00:00 | 00:00:00 | |
| OM5KV | 2026-09-04 18:23:30 | 50.57867 | 11.91510 | 134° | 31km/h | 30061m | 5.1m/s | -44.4°C | 0.6% | 12.2hPa | 2.6V | 00:00:00 | 00:00:00 | 00:00:00 | |
| DL1XH1-15 | 2026-09-04 18:23:29 | 50.57897 | 11.91455 | 106° | 16km/h | 30023m | 5.2m/s | -44.7°C | 2.8% | 12.3hPa | 2.6V | 08:30:00 | 02:04:28 | 00:00:00 | |
| DF8AY | 2026-09-04 18:23:28 | 50.57884 | 11.91484 | 136° | 31km/h | 30045m | 4.2m/s | -44.5°C | 0% | 12.2hPa | 2.6V | 18:12:15 | 02:04:32 | 00:00:00 | |
| HSKMA3-T | 2026-09-04 18:23:25 | 50.57895 | 11.91462 | 114° | 18km/h | 30029m | 6.2m/s | -44.7°C | 0% | 12.3hPa | 2.5V | 18:12:15 | 02:04:29 | 00:00:00 | |
| DL1XH-west | 2026-09-04 18:23:24 | 50.57897 | 11.91455 | 107° | 16km/h | 30023m | 5.3m/s | -44.7°C | 0% | 12.3hPa | 2.6V | 18:12:15 | 02:04:28 | 00:00:00 | |
| DB0ND-19 | 2026-09-04 18:23:24 | 50.57898 | 11.91450 | 112° | 15km/h | 30019m | 4.4m/s | -44.7°C | 0.6% | 12.3hPa | 2.5V | 00:00:00 | 00:00:00 | 00:00:00 | |
| DO3MHA-11 | 2026-09-04 18:23:23 | 50.57898 | 11.91450 | 113° | 24km/h | 30019m | 4.4m/s | -44.7°C | 2.8% | 12.2hPa | 2.5V | 00:00:00 | 02:04:27 | 00:00:00 | |
| AM1SDL-15 | 2026-09-04 18:23:22 | 50.57900 | 11.91444 | 127° | 22km/h | 30014m | 5.1m/s | -44.7°C | 2.8% | 12.3hPa | 2.5V | 00:00:00 | 02:04:26 | 00:00:00 | |
| PETON7-10 | 2026-09-04 18:23:20 | 50.57908 | 11.91433 | 144° | 20km/h | 30003m | 5.1m/s | -44.8°C | 2.8% | 12.3hPa | 2.5V | 00:00:00 | 00:00:00 | 00:00:00 | |
| DL1XH1-15 | 2026-09-04 18:23:19 | 50.57935 | 11.91387 | 118° | 18km/h | 29970m | 5.5m/s | -45.2°C | 2.9% | 12.4hPa | 2.5V | 08:30:00 | 02:04:18 | 00:00:00 | |
| AA1-15 | 2026-09-04 18:23:18 | 50.57919 | 11.91419 | 139° | 31km/h | 29993m | 5.4m/s | -44.9°C | 0% | 12.3hPa | 2.6V | 18:12:15 | 02:04:22 | 00:00:00 | |
| HSKMA3-T | 2026-09-04 18:23:14 | 50.57935 | 11.91387 | 118° | 18km/h | 29970m | 5.5m/s | -45.2°C | 0% | 12.4hPa | 2.5V | 18:12:15 | 02:04:18 | 00:00:00 | |
| DL1XH-west | 2026-09-04 18:23:13 | 50.57937 | 11.91381 | 123° | 16km/h | 29964m | 6.2m/s | -45.3°C | 0% | 12.4hPa | 2.5V | 18:12:15 | 02:04:17 | 00:00:00 | |
| SONDE2-11 | 2026-09-04 18:23:13 | 50.57940 | 11.91376 | 128° | 13km/h | 29958m | 5.2m/s | -45.3°C | 0.6% | 12.4hPa | 2.5V | 00:00:00 | 00:00:00 | 00:00:00 | |
| EDDB2-11 | 2026-09-04 18:23:12 | 50.57940 | 11.91376 | 128° | 13km/h | 29958m | 5.2m/s | -45.3°C | 0.6% | 12.4hPa | 2.5V | 00:00:00 | 00:00:00 | 00:00:00 | |
| SP3BTT-10 | 2026-09-04 18:23:11 | 50.57941 | 11.91372 | 127° | 16km/h | 29954m | 4.5m/s | -45.3°C | 3.0% | 12.3hPa | 2.5V | 00:00:00 | 00:00:00 | 00:00:00 | |
| DL1ZP-14 | 2026-09-04 18:23:10 | 50.57943 | 11.91365 | 93° | 9km/h | 29943m | 6.2m/s | -45.4°C | 0.6% | 12.4hPa | 2.5V | 00:00:00 | 00:00:00 | 00:00:00 | |
| DL1XH1-15 | 2026-09-04 18:23:09 | 50.57950 | 11.91332 | 129° | 26km/h | 29915m | 5.5m/s | -45.4°C | 3% | 12.5hPa | 2.5V | 08:30:00 | 02:04:08 | 00:00:00 | |
| OE5FHM-15 | 2026-09-04 18:23:09 | 50.57943 | 11.91365 | 94° | 18km/h | 29943m | 6.1m/s | -45.3°C | 2.9% | 12.4hPa | 2.5V | 00:00:00 | 02:04:13 | 00:00:00 | |
| DM0DOS-11 | 2026-09-04 18:23:08 | 50.57947 | 11.91340 | 121° | 24km/h | 29921m | 6.4m/s | -45.4°C | 3% | 12.5hPa | 2.5V | 08:30:00 | 02:04:09 | 00:00:00 | |
| AA1-15 | 2026-09-04 18:23:08 | 50.57943 | 11.91360 | 90° | 13km/h | 29937m | 5.1m/s | -45.4°C | 0% | 12.4hPa | 2.5V | 18:12:15 | 02:04:12 | 00:00:00 | |
| HSKMA3-T | 2026-09-04 18:23:04 | 50.57950 | 11.91332 | 130° | 26km/h | 29915m | 5.5m/s | -45.4°C | 0% | 12.5hPa | 2.5V | 18:12:15 | 02:04:08 | 00:00:00 | |
| DL1XH-west | 2026-09-04 18:23:02 | 50.57959 | 11.91316 | 129° | 24km/h | 29905m | 4.7m/s | -45.3°C | 0% | 12.5hPa | 2.6V | 18:12:15 | 02:04:06 | 00:00:00 | |
| OM5KV | 2026-09-04 18:23:01 | 50.57962 | 11.91309 | 122° | 20km/h | 29900m | 6.1m/s | -45.3°C | 0.6% | 12.5hPa | 2.5V | 00:00:00 | 00:00:00 | 00:00:00 | |
| DL1XH1-15 | 2026-09-04 18:22:59 | 50.57968 | 11.91275 | 123° | 20km/h | 29862m | 4.9m/s | -45.1°C | 3% | 12.6hPa | 2.5V | 08:30:00 | 02:03:58 | 00:00:00 | |
| DF8AY | 2026-09-04 18:22:58 | 50.57964 | 11.91293 | 79° | 9km/h | 29884m | 4.7m/s | -45.2°C | 0% | 12.5hPa | 2.5V | 18:12:15 | 02:04:02 | 00:00:00 | |
| AA1-15 | 2026-09-04 18:22:56 | 50.57964 | 11.91286 | 109° | 11km/h | 29873m | 5.6m/s | -45.2°C | 0% | 12.6hPa | 2.6V | 18:12:15 | 02:04:00 | 00:00:00 | |
| HSKMA3-T | 2026-09-04 18:22:54 | 50.57968 | 11.91275 | 124° | 20km/h | 29862m | 4.9m/s | -45.2°C | 0% | 12.6hPa | 2.5V | 18:12:15 | 02:03:58 | 00:00:00 | |
| DL1XH-west | 2026-09-04 18:22:51 | 50.57976 | 11.91251 | 105° | 24km/h | 29847m | 6m/s | -45.1°C | 0% | 12.6hPa | 2.6V | 18:12:15 | 02:03:55 | 00:00:00 | |
| DJ2DS-15 | 2026-09-04 18:22:50 | 50.57980 | 11.91220 | 120° | 15km/h | 29825m | 6.1m/s | -45.1°C | 0.6% | 12.7hPa | 2.5V | 00:00:00 | 00:00:00 | 00:00:00 | |
| KRY50SP | 2026-09-04 18:22:49 | 50.57977 | 11.91242 | 100° | 22km/h | 29841m | 5.3m/s | -45.1°C | 0.6% | 12.6hPa | 2.5V | 00:00:00 | 00:00:00 | 00:00:00 | |
| DM0DOS-11 | 2026-09-04 18:22:48 | 50.57985 | 11.91212 | 135° | 13km/h | 29814m | 4.6m/s | -45.1°C | 3% | 12.7hPa | 2.5V | 08:30:00 | 02:03:49 | 00:00:00 | |
| DF8AY | 2026-09-04 18:22:47 | 50.57980 | 11.91220 | 120° | 15km/h | 29825m | 6.1m/s | -45.1°C | 0% | 12.7hPa | 2.6V | 18:12:15 | 02:03:51 | 00:00:00 | |
| SONCRA | 2026-09-04 18:22:47 | 50.57983 | 11.91216 | 133° | 15km/h | 29819m | 5.2m/s | -45.1°C | 0.6% | 12.7hPa | 2.5V | 00:00:00 | 00:00:00 | 00:00:00 | |
| HSKMA3-T | 2026-09-04 18:22:43 | 50.57989 | 11.91203 | 111° | 15km/h | 29803m | 6.4m/s | -45°C | 0% | 12.7hPa | 2.5V | 18:12:15 | 02:03:47 | 00:00:00 | |
| DL1XH-west | 2026-09-04 18:22:40 | 50.57992 | 11.91183 | 110° | 22km/h | 29787m | 5.2m/s | -45°C | 0% | 12.7hPa | 2.5V | 18:12:15 | 02:03:44 | 00:00:00 | |
| OE5DXL-15 | 2026-09-04 18:22:40 | 50.57992 | 11.91183 | 110° | 18km/h | 29787m | 5.2m/s | -44.9°C | 2.9% | 12.7hPa | 2.5V | 00:00:00 | 00:00:00 | 00:00:00 | |
| DL1ZP-14 | 2026-09-04 18:22:39 | 50.57999 | 11.91167 | 132° | 26km/h | 29775m | 6.1m/s | -44.9°C | 0.6% | 12.8hPa | 2.5V | 00:00:00 | 00:00:00 | 00:00:00 | |
| DM0DOS-11 | 2026-09-04 18:22:38 | 50.58013 | 11.91146 | 137° | 22km/h | 29759m | 6.3m/s | -44.9°C | 2.9% | 12.8hPa | 2.5V | 08:30:00 | 02:03:39 | 00:00:00 | |
| AA1-15 | 2026-09-04 18:22:38 | 50.57999 | 11.91167 | 133° | 26km/h | 29774m | 6.1m/s | -44.9°C | 0% | 12.8hPa | 2.5V | 18:12:15 | 02:03:42 | 00:00:00 | |
| DF8AY | 2026-09-04 18:22:36 | 50.58009 | 11.91153 | 140° | 26km/h | 29764m | 4.7m/s | -44.9°C | 0% | 12.8hPa | 2.6V | 18:12:15 | 02:03:40 | 00:00:00 | |
| HSKMA3-T | 2026-09-04 18:22:33 | 50.58019 | 11.91135 | 126° | 15km/h | 29747m | 5.3m/s | -44.8°C | 0% | 12.8hPa | 2.5V | 18:12:15 | 02:03:37 | 00:00:00 | |
| DL1XH-west | 2026-09-04 18:22:29 | 50.58031 | 11.91119 | 147° | 20km/h | 29724m | 5.4m/s | -44.7°C | 0% | 12.8hPa | 2.5V | 18:12:15 | 02:03:33 | 00:00:00 | |
| DM0DOS-11 | 2026-09-04 18:22:28 | 50.58046 | 11.91092 | 114° | 26km/h | 29702m | 5.7m/s | -44.7°C | 2.8% | 12.9hPa | 2.5V | 08:30:00 | 02:03:29 | 00:00:00 | |
| AA1-15 | 2026-09-04 18:22:27 | 50.58039 | 11.91108 | 132° | 24km/h | 29714m | 5.5m/s | -44.7°C | 0% | 12.9hPa | 2.6V | 18:12:15 | 02:03:31 | 00:00:00 | |
| DF8AY | 2026-09-04 18:22:25 | 50.58046 | 11.91092 | 115° | 26km/h | 29702m | 5.7m/s | -44.7°C | 0% | 12.9hPa | 2.5V | 18:12:15 | 02:03:29 | 00:00:00 | |
| HSKMA3-T | 2026-09-04 18:22:23 | 50.58051 | 11.91074 | 121° | 24km/h | 29691m | 5.3m/s | -44.7°C | 0% | 12.9hPa | 2.5V | 18:12:15 | 02:03:27 | 00:00:00 | |
| DL1XH-west | 2026-09-04 18:22:19 | 50.58066 | 11.91058 | 167° | 15km/h | 29669m | 4.8m/s | -44.7°C | 0% | 13hPa | 2.6V | 18:12:15 | 02:03:23 | 00:00:00 | |
| DM0DOS-11 | 2026-09-04 18:22:18 | 50.58074 | 11.91048 | 102° | 13km/h | 29646m | 4.6m/s | -44.9°C | 2.8% | 13hPa | 2.6V | 08:30:00 | 02:03:19 | 00:00:00 | |
| AA1-15 | 2026-09-04 18:22:16 | 50.58073 | 11.91052 | 109° | 9km/h | 29651m | 5.3m/s | -44.8°C | 0% | 13hPa | 2.5V | 18:12:15 | 02:03:20 | 00:00:00 | |
| DF8AY | 2026-09-04 18:22:15 | 50.58074 | 11.91048 | 102° | 13km/h | 29646m | 4.6m/s | -44.9°C | 0% | 13hPa | 2.6V | 18:12:15 | 02:03:19 | 00:00:00 | |
| HSKMA3-T | 2026-09-04 18:22:13 | 50.58076 | 11.91038 | 123° | 15km/h | 29637m | 5.7m/s | -44.9°C | 0% | 13hPa | 2.5V | 18:12:15 | 02:03:17 | 00:00:00 | |
| DL1XH-west | 2026-09-04 18:22:09 | 50.58094 | 11.91018 | 146° | 26km/h | 29614m | 5m/s | -44.9°C | 0% | 13.1hPa | 2.6V | 18:12:15 | 02:03:13 | 00:00:00 | |
| OE5FHM-15 | 2026-09-04 18:22:09 | 50.58094 | 11.91018 | 146° | 22km/h | 29615m | 4.9m/s | -44.9°C | 2.8% | 13.0hPa | 2.6V | 00:00:00 | 02:03:13 | 00:00:00 | |
| KRY50SP | 2026-09-04 18:22:08 | 50.58099 | 11.91012 | 138° | 26km/h | 29609m | 6.2m/s | -44.9°C | 0.6% | 13.1hPa | 2.6V | 00:00:00 | 00:00:00 | 00:00:00 | |
| DM0DOS-11 | 2026-09-04 18:22:06 | 50.58116 | 11.90978 | 147° | 13km/h | 29570m | 4.4m/s | -45°C | 2.8% | 13.1hPa | 2.6V | 08:30:00 | 02:03:05 | 00:00:00 | |
| DF8AY | 2026-09-04 18:22:05 | 50.58108 | 11.90991 | 117° | 16km/h | 29592m | 5.3m/s | -44.9°C | 0% | 13.1hPa | 2.6V | 18:12:15 | 02:03:09 | 00:00:00 | |
| HSKMA3-T | 2026-09-04 18:22:03 | 50.58111 | 11.90983 | 137° | 11km/h | 29580m | 5.9m/s | -44.9°C | 0% | 13.1hPa | 2.5V | 18:12:15 | 02:03:07 | 00:00:00 | |
| AA1-15 | 2026-09-04 18:22:02 | 50.58113 | 11.90980 | 151° | 11km/h | 29575m | 5m/s | -45°C | 0% | 13.2hPa | 2.5V | 18:12:15 | 02:03:06 | 00:00:00 | |
| OE5MMP-10 | 2026-09-04 18:22:02 | 50.58113 | 11.90980 | 151° | 18km/h | 29575m | 4.9m/s | -44.9°C | 2.8% | 13.1hPa | 2.6V | 00:00:00 | 02:03:06 | 00:00:00 | |
| DB0UT-7 | 2026-09-04 18:22:00 | 50.58118 | 11.90974 | 136° | 16km/h | 29566m | 5.3m/s | -45.0°C | 2.8% | 13.1hPa | 2.6V | 00:00:00 | 02:03:04 | 00:00:00 | |
| DL1XH1-15 | 2026-09-04 18:21:59 | 50.58138 | 11.90928 | 138° | 22km/h | 29531m | 5.9m/s | -45.3°C | 2.9% | 13.2hPa | 2.6V | 08:30:00 | 02:02:58 | 00:00:00 | |
| DL1XH-west | 2026-09-04 18:21:59 | 50.58121 | 11.90969 | 124° | 20km/h | 29559m | 6.2m/s | -45.1°C | 0% | 13.2hPa | 2.6V | 18:12:15 | 02:03:03 | 00:00:00 | |
| DL6DJ-15 | 2026-09-04 18:21:59 | 50.58124 | 11.90962 | 116° | 24km/h | 29553m | 6.0m/s | -45.1°C | 0.6% | 13.2hPa | 2.5V | 00:00:00 | 00:00:00 | 00:00:00 | |
| AM1SDL-15 | 2026-09-04 18:21:58 | 50.58124 | 11.90962 | 117° | 22km/h | 29553m | 6.0m/s | -45.1°C | 2.8% | 13.1hPa | 2.5V | 00:00:00 | 02:03:02 | 00:00:00 | |
| OM5KV | 2026-09-04 18:21:57 | 50.58127 | 11.90953 | 117° | 27km/h | 29548m | 5.2m/s | -45.2°C | 0.6% | 13.2hPa | 2.5V | 00:00:00 | 00:00:00 | 00:00:00 | |
| DM0DOS-11 | 2026-09-04 18:21:56 | 50.58150 | 11.90915 | 144° | 20km/h | 29514m | 6.4m/s | -45.5°C | 2.9% | 13.3hPa | 2.5V | 08:30:00 | 02:02:55 | 00:00:00 | |
| DF8AY | 2026-09-04 18:21:54 | 50.58137 | 11.90928 | 138° | 22km/h | 29531m | 5.9m/s | -45.3°C | 0% | 13.2hPa | 2.6V | 18:12:15 | 02:02:58 | 00:00:00 | |
| HSKMA3-T | 2026-09-04 18:21:53 | 50.58142 | 11.90923 | 147° | 20km/h | 29525m | 5.4m/s | -45.4°C | 0% | 13.3hPa | 2.5V | 18:12:15 | 02:02:57 | 00:00:00 | |
| DL1XH-west | 2026-09-04 18:21:49 | 50.58158 | 11.90904 | 135° | 22km/h | 29502m | 5.2m/s | -45.6°C | 0% | 13.3hPa | 2.6V | 18:12:15 | 02:02:53 | 00:00:00 | |
| OE5DRO-10 | 2026-09-04 18:21:49 | 50.58158 | 11.90903 | 135° | 24km/h | 29503m | 5.2m/s | -45.6°C | 3.0% | 13.3hPa | 2.6V | 00:00:00 | 00:00:00 | 00:00:00 | |
| DL1XH-15 | 2026-09-04 18:21:48 | 50.58180 | 11.90874 | 137° | 26km/h | 29475m | 5.3m/s | -45.8°C | 2.9% | 13.3hPa | 2.6V | 08:30:00 | 02:02:48 | 00:00:00 | |
| DC4HF-4 | 2026-09-04 18:21:47 | 50.58166 | 11.90891 | 139° | 22km/h | 29491m | 6.7m/s | -45.7°C | 0.6% | 13.3hPa | 2.5V | 00:00:00 | 00:00:00 | 00:00:00 | |
| DM0DOS-11 | 2026-09-04 18:21:46 | 50.58193 | 11.90848 | 122° | 29km/h | 29457m | 5.1m/s | -45.8°C | 3% | 13.4hPa | 2.5V | 08:30:00 | 02:02:45 | 00:00:00 | |
| DF8AY | 2026-09-04 18:21:43 | 50.58184 | 11.90867 | 131° | 27km/h | 29469m | 6.6m/s | -45.8°C | 0% | 13.4hPa | 2.5V | 18:12:15 | 02:02:47 | 00:00:00 | |
| HSKMA3-T | 2026-09-04 18:21:42 | 50.58189 | 11.90858 | 124° | 29km/h | 29462m | 6.2m/s | -45.8°C | 0% | 13.4hPa | 2.5V | 18:12:15 | 02:02:46 | 00:00:00 | |
| DL1XH-west | 2026-09-04 18:21:38 | 50.58205 | 11.90824 | 143° | 22km/h | 29440m | 6.4m/s | -45.9°C | 0% | 13.4hPa | 2.5V | 18:12:15 | 02:02:42 | 00:00:00 | |
| DL3JIN-12 | 2026-09-04 18:21:37 | 50.58205 | 11.90824 | 144° | 22km/h | 29440m | 6.4m/s | -45.8°C | 0.6% | 13.4hPa | 2.6V | 00:00:00 | 00:00:00 | 00:00:00 | |
| DL1XH-15 | 2026-09-04 18:21:36 | 50.58221 | 11.90808 | 127° | 18km/h | 29420m | 6.3m/s | -46°C | 2.9% | 13.5hPa | 2.6V | 08:30:00 | 02:02:38 | 00:00:00 | |
| DM0DOS-11 | 2026-09-04 18:21:35 | 50.58228 | 11.90769 | 102° | 27km/h | 29396m | 5.8m/s | -46.1°C | 3% | 13.5hPa | 2.6V | 08:30:00 | 02:02:34 | 00:00:00 | |
| DF8AY | 2026-09-04 18:21:32 | 50.58225 | 11.90791 | 103° | 27km/h | 29407m | 6m/s | -46.1°C | 0% | 13.5hPa | 2.5V | 18:12:15 | 02:02:36 | 00:00:00 | |
| HSKMA3-T | 2026-09-04 18:21:32 | 50.58227 | 11.90780 | 100° | 29km/h | 29401m | 5.3m/s | -46.1°C | 0% | 13.5hPa | 2.5V | 18:12:15 | 02:02:35 | 00:00:00 | |
| DL1XH-west | 2026-09-04 18:21:28 | 50.58232 | 11.90751 | 118° | 20km/h | 29385m | 5m/s | -46.2°C | 0% | 13.6hPa | 2.5V | 18:12:15 | 02:02:32 | 00:00:00 | |
| 13BRC | 2026-09-04 18:21:27 | 50.58232 | 11.90751 | 119° | 20km/h | 29385m | 5.0m/s | -46.2°C | 0.6% | 13.5hPa | 2.6V | 00:00:00 | 00:00:00 | 00:00:00 | |
| DL1XH-15 | 2026-09-04 18:21:26 | 50.58241 | 11.90728 | 118° | 15km/h | 29362m | 5.4m/s | -46.3°C | 3% | 13.6hPa | 2.6V | 08:30:00 | 02:02:28 | 00:00:00 | |
| HSKMA3-T | 2026-09-04 18:21:21 | 50.58246 | 11.90715 | 127° | 9km/h | 29346m | 6.6m/s | -46.5°C | 0% | 13.6hPa | 2.5V | 18:12:15 | 02:02:25 | 00:00:00 | |
| PETON7-10 | 2026-09-04 18:21:20 | 50.58247 | 11.90712 | 126° | 13km/h | 29340m | 5.6m/s | -46.5°C | 3.1% | 13.6hPa | 2.5V | 00:00:00 | 02:02:24 | 00:00:00 | |
| DM0DOS-11 | 2026-09-04 18:21:18 | 50.58247 | 11.90699 | 76° | 18km/h | 29324m | 6.9m/s | -46.5°C | 3% | 13.7hPa | 2.5V | 08:30:00 | 02:02:21 | 00:00:00 | |
| DL1XH-west | 2026-09-04 18:21:17 | 50.58247 | 11.90699 | 76° | 20km/h | 29324m | 6.9m/s | -46.5°C | 0% | 13.7hPa | 2.5V | 18:12:15 | 02:02:21 | 00:00:00 | |
| DF8AY | 2026-09-04 18:21:11 | 50.58239 | 11.90649 | 86° | 7km/h | 29290m | 5.1m/s | -46.5°C | 0% | 13.8hPa | 2.5V | 18:12:15 | 02:02:15 | 00:00:00 | |
| HSKMA3-T | 2026-09-04 18:21:10 | 50.58239 | 11.90647 | 79° | 4km/h | 29285m | 5.1m/s | -46.5°C | 0% | 13.8hPa | 2.5V | 18:12:15 | 02:02:14 | 00:00:00 | |
| PG1ADW-2 | 2026-09-04 18:21:10 | 50.58239 | 11.90647 | 79° | 15km/h | 29285m | 5.1m/s | -46.5°C | 3.0% | 13.7hPa | 2.6V | 00:00:00 | 00:00:00 | 00:00:00 | |
| S52SK | 2026-09-04 18:21:09 | 50.58239 | 11.90647 | 80° | 4km/h | 29285m | 5.1m/s | -46.5°C | 0.6% | 13.8hPa | 2.6V | 00:00:00 | 00:00:00 | 00:00:00 | |
| DM0DOS-11 | 2026-09-04 18:21:08 | 50.58238 | 11.90641 | 86° | 9km/h | 29268m | 5.6m/s | -46.6°C | 3.1% | 13.8hPa | 2.6V | 08:30:00 | 02:02:11 | 00:00:00 | |
| DL1XH-west | 2026-09-04 18:21:06 | 50.58238 | 11.90637 | 94° | 13km/h | 29262m | 5.2m/s | -46.6°C | 0% | 13.8hPa | 2.5V | 18:12:15 | 02:02:10 | 00:00:00 | |
| DF8AY | 2026-09-04 18:21:00 | 50.58243 | 11.90608 | 84° | 15km/h | 29228m | 6.4m/s | -46.8°C | 0% | 13.9hPa | 2.5V | 18:12:15 | 02:02:04 | 00:00:00 | |
| HSKMA3-T | 2026-09-04 18:20:59 | 50.58242 | 11.90602 | 80° | 15km/h | 29222m | 5.3m/s | -46.8°C | 0% | 13.9hPa | 2.5V | 18:12:15 | 02:02:03 | 00:00:00 | |
| AA1-15 | 2026-09-04 18:20:58 | 50.58242 | 11.90596 | 88° | 15km/h | 29217m | 4.5m/s | -46.8°C | 0% | 13.9hPa | 2.6V | 18:12:15 | 02:02:02 | 00:00:00 | |
| DL1XH-west | 2026-09-04 18:20:55 | 50.58247 | 11.90583 | 150° | 18km/h | 29200m | 5.3m/s | -46.8°C | 0% | 13.9hPa | 2.5V | 18:12:15 | 02:01:59 | 00:00:00 | |
| DF8AY | 2026-09-04 18:20:50 | 50.58265 | 11.90556 | 112° | 22km/h | 29173m | 4.6m/s | -46.9°C | 0% | 14hPa | 2.5V | 18:12:15 | 02:01:54 | 00:00:00 | |
| HSKMA3-T | 2026-09-04 18:20:49 | 50.58267 | 11.90547 | 109° | 24km/h | 29169m | 5.2m/s | -46.9°C | 0% | 14hPa | 2.6V | 18:12:15 | 02:01:53 | 00:00:00 | |
| NBG1-10 | 2026-09-04 18:20:49 | 50.58267 | 11.90547 | 110° | 20km/h | 29169m | 5.2m/s | -46.8°C | 3.1% | 14.0hPa | 2.6V | 00:00:00 | 02:01:53 | 00:00:00 | |
| DM0DOS-11 | 2026-09-04 18:20:48 | 50.58274 | 11.90513 | 86° | 13km/h | 29141m | 6.3m/s | -46.9°C | 3.1% | 14.1hPa | 2.6V | 08:30:00 | 02:01:48 | 00:00:00 | |
| DL1XH-west | 2026-09-04 18:20:44 | 50.58274 | 11.90513 | 87° | 13km/h | 29141m | 6.3m/s | -46.9°C | 0% | 14.1hPa | 2.6V | 18:12:15 | 02:01:48 | 00:00:00 | |
| AA1-15 | 2026-09-04 18:20:42 | 50.58272 | 11.90503 | 65° | 15km/h | 29130m | 4.7m/s | -47°C | 0% | 14.1hPa | 2.6V | 18:12:15 | 02:01:46 | 00:00:00 | |
| HSKMA3-T | 2026-09-04 18:20:39 | 50.58272 | 11.90488 | 126° | 16km/h | 29114m | 6.2m/s | -47°C | 0% | 14.1hPa | 2.5V | 18:12:15 | 02:01:43 | 00:00:00 | |
| OE5FHM-15 | 2026-09-04 18:20:39 | 50.58272 | 11.90488 | 126° | 20km/h | 29114m | 6.2m/s | -47.0°C | 3.1% | 14.0hPa | 2.5V | 00:00:00 | 02:01:43 | 00:00:00 | |
| DM0DOS-11 | 2026-09-04 18:20:38 | 50.58289 | 11.90452 | 103° | 24km/h | 29086m | 5.5m/s | -47.1°C | 3.2% | 14.2hPa | 2.5V | 08:30:00 | 02:01:38 | 00:00:00 | |
| DL1XH-west | 2026-09-04 18:20:34 | 50.58289 | 11.90452 | 104° | 24km/h | 29086m | 5.5m/s | -47.1°C | 0% | 14.2hPa | 2.5V | 18:12:15 | 02:01:38 | 00:00:00 | |
| AA1-15 | 2026-09-04 18:20:30 | 50.58290 | 11.90416 | 89° | 20km/h | 29064m | 5.6m/s | -47.2°C | 0% | 14.2hPa | 2.6V | 18:12:15 | 02:01:34 | 00:00:00 | |
| DL1XH1-15 | 2026-09-04 18:20:29 | 50.58283 | 11.90377 | 78° | 15km/h | 29031m | 5.8m/s | -47.2°C | 3.2% | 14.3hPa | 2.5V | 08:30:00 | 02:01:28 | 00:00:00 | |
| HSKMA3-T | 2026-09-04 18:20:28 | 50.58289 | 11.90401 | 79° | 16km/h | 29054m | 5.1m/s | -47.2°C | 0% | 14.3hPa | 2.5V | 18:12:15 | 02:01:32 | 00:00:00 | |
| DL1XH-west | 2026-09-04 18:20:23 | 50.58283 | 11.90371 | 95° | 15km/h | 29025m | 6.1m/s | -47.3°C | 0% | 14.3hPa | 2.5V | 18:12:15 | 02:01:27 | 00:00:00 | |
| DO3MHA-11 | 2026-09-04 18:20:23 | 50.58283 | 11.90371 | 95° | 22km/h | 29025m | 6.1m/s | -47.2°C | 3.2% | 14.3hPa | 2.5V | 00:00:00 | 02:01:27 | 00:00:00 | |
| AM1SDL-15 | 2026-09-04 18:20:22 | 50.58284 | 11.90364 | 104° | 22km/h | 29020m | 4.9m/s | -47.2°C | 3.2% | 14.3hPa | 2.5V | 00:00:00 | 02:01:26 | 08:30:00 | |
| DB0NH | 2026-09-04 18:20:20 | 50.58285 | 11.90349 | 94° | 22km/h | 29009m | 6.1m/s | -47.2°C | 3.2% | 14.3hPa | 2.5V | 00:00:00 | 02:01:24 | 00:00:00 | |
| DL1XH1-15 | 2026-09-04 18:20:19 | 50.58279 | 11.90292 | 87° | 20km/h | 28976m | 5.1m/s | -47.2°C | 3.2% | 14.4hPa | 2.5V | 08:30:00 | 02:01:18 | 00:00:00 | |
| AA1-15 | 2026-09-04 18:20:18 | 50.58284 | 11.90329 | 76° | 27km/h | 28997m | 5.1m/s | -47.2°C | 0% | 14.4hPa | 2.5V | 18:12:15 | 02:01:22 | 00:00:00 | |
| HSKMA3-T | 2026-09-04 18:20:17 | 50.58282 | 11.90319 | 73° | 26km/h | 28993m | 4.6m/s | -47.2°C | 0% | 14.4hPa | 2.5V | 18:12:15 | 02:01:21 | 00:00:00 | |
| DL1XH-west | 2026-09-04 18:20:12 | 50.58278 | 11.90277 | 84° | 18km/h | 28967m | 5.4m/s | -47.1°C | 0% | 14.4hPa | 2.5V | 18:12:15 | 02:01:16 | 00:00:00 | |
| SONCRA | 2026-09-04 18:20:12 | 50.58277 | 11.90269 | 74° | 20km/h | 28961m | 6.3m/s | -47.1°C | 0.7% | 14.5hPa | 2.5V | 00:00:00 | 00:00:00 | 00:00:00 | |
| SP3BTT-10 | 2026-09-04 18:20:11 | 50.58277 | 11.90269 | 75° | 18km/h | 28961m | 6.3m/s | -47.1°C | 3.2% | 14.4hPa | 2.5V | 00:00:00 | 00:00:00 | 00:00:00 | |
| HARRO8 | 2026-09-04 18:20:10 | 50.58273 | 11.90254 | 63° | 22km/h | 28949m | 5.3m/s | -47.1°C | 0.7% | 14.5hPa | 2.6V | 00:00:00 | 00:00:00 | 00:00:00 | |
| DL1XH1-15 | 2026-09-04 18:20:09 | 50.58265 | 11.90216 | 66° | 20km/h | 28923m | 4.9m/s | -46.9°C | 3.1% | 14.6hPa | 2.6V | 08:30:00 | 02:01:08 | 00:00:00 | |
| AA1-15 | 2026-09-04 18:20:06 | 50.58267 | 11.90230 | 76° | 18km/h | 28932m | 5.1m/s | -47°C | 0% | 14.5hPa | 2.5V | 18:12:15 | 02:01:10 | 00:00:00 | |
| DL1XH-west | 2026-09-04 18:20:02 | 50.58258 | 11.90201 | 50° | 24km/h | 28911m | 5.7m/s | -46.9°C | 0% | 14.6hPa | 2.5V | 18:12:15 | 02:01:06 | 00:00:00 | |
| DH8WE-5 | 2026-09-04 18:20:01 | 50.58258 | 11.90201 | 51° | 24km/h | 28911m | 5.7m/s | -46.9°C | 0.7% | 14.6hPa | 2.6V | 00:00:00 | 00:00:00 | 00:00:00 | |
| DL1XH1-15 | 2026-09-04 18:19:59 | 50.58243 | 11.90144 | 67° | 18km/h | 28869m | 5.7m/s | -46.9°C | 3.1% | 14.7hPa | 2.6V | 08:30:00 | 02:00:58 | 00:00:00 | |
| HSKMA3-T | 2026-09-04 18:19:56 | 50.58245 | 11.90157 | 90° | 18km/h | 28880m | 4.9m/s | -46.9°C | 0% | 14.6hPa | 2.5V | 18:12:15 | 02:01:00 | 00:00:00 | |
| DF8AY | 2026-09-04 18:19:55 | 50.58244 | 11.90150 | 81° | 18km/h | 28875m | 6m/s | -46.9°C | 0% | 14.6hPa | 2.5V | 18:12:15 | 02:00:59 | 00:00:00 | |
| AA1-15 | 2026-09-04 18:19:54 | 50.58243 | 11.90144 | 67° | 18km/h | 28869m | 5.7m/s | -46.9°C | 0% | 14.7hPa | 2.6V | 18:12:15 | 02:00:58 | 00:00:00 | |
| DL1XH-west | 2026-09-04 18:19:51 | 50.58234 | 11.90127 | 39° | 16km/h | 28854m | 5.6m/s | -46.9°C | 0% | 14.7hPa | 2.5V | 18:12:15 | 02:00:55 | 00:00:00 | |
| HSKMA3-T | 2026-09-04 18:19:45 | 50.58219 | 11.90101 | 51° | 22km/h | 28820m | 5.9m/s | -46.9°C | 0% | 14.8hPa | 2.5V | 18:12:15 | 02:00:49 | 00:00:00 | |
| AA1-15 | 2026-09-04 18:19:44 | 50.58215 | 11.90094 | 52° | 24km/h | 28815m | 4.7m/s | -46.9°C | 0% | 14.8hPa | 2.5V | 18:12:15 | 02:00:48 | 00:00:00 | |
| DL1XH-west | 2026-09-04 18:19:40 | 50.58205 | 11.90068 | 67° | 13km/h | 28794m | 5.3m/s | -46.8°C | 0% | 14.8hPa | 2.5V | 18:12:15 | 02:00:44 | 00:00:00 | |
| OE5DXL-15 | 2026-09-04 18:19:40 | 50.58205 | 11.90068 | 68° | 15km/h | 28794m | 5.2m/s | -46.8°C | 3.1% | 14.8hPa | 2.5V | 00:00:00 | 00:00:00 | 00:00:00 | |
| DL1XH1-15 | 2026-09-04 18:19:39 | 50.58189 | 11.90051 | 32° | 13km/h | 28762m | 6m/s | -46.8°C | 3% | 14.9hPa | 2.5V | 08:30:00 | 02:00:38 | 00:00:00 | |
| HSKMA3-T | 2026-09-04 18:19:35 | 50.58192 | 11.90053 | 25° | 15km/h | 28767m | 5.4m/s | -46.8°C | 0% | 14.9hPa | 2.5V | 18:12:15 | 02:00:39 | 00:00:00 | |
| AA1-15 | 2026-09-04 18:19:33 | 50.58187 | 11.90048 | 46° | 11km/h | 28756m | 5m/s | -46.9°C | 0% | 14.9hPa | 2.5V | 18:12:15 | 02:00:37 | 00:00:00 | |
| DO3MHA-11 | 2026-09-04 18:19:33 | 50.58187 | 11.90048 | 46° | 16km/h | 28756m | 5.0m/s | -46.8°C | 3.1% | 14.9hPa | 2.6V | 00:00:00 | 02:00:37 | 00:00:00 | |
| DL1ZP-14 | 2026-09-04 18:19:32 | 50.58185 | 11.90044 | 54° | 13km/h | 28751m | 4.8m/s | -46.9°C | 0.7% | 14.9hPa | 2.6V | 00:00:00 | 00:00:00 | 00:00:00 | |
| KRY50SP | 2026-09-04 18:19:31 | 50.58185 | 11.90044 | 56° | 15km/h | 28751m | 4.8m/s | -46.9°C | 0.7% | 14.9hPa | 2.6V | 00:00:00 | 00:00:00 | 00:00:00 | |
| DL1XH1-15 | 2026-09-04 18:19:29 | 50.58174 | 11.89991 | 104° | 11km/h | 28709m | 4.4m/s | -47.1°C | 3.1% | 15hPa | 2.6V | 08:30:00 | 02:00:28 | 00:00:00 | |
| DL1XH-west | 2026-09-04 18:19:29 | 50.58178 | 11.90025 | 59° | 24km/h | 28734m | 5m/s | -47°C | 0% | 15hPa | 2.5V | 18:12:15 | 02:00:33 | 00:00:00 | |
| HSKMA3-T | 2026-09-04 18:19:25 | 50.58173 | 11.89996 | 104° | 15km/h | 28713m | 4.8m/s | -47°C | 0% | 15hPa | 2.6V | 18:12:15 | 02:00:29 | 00:00:00 | |
| DF8AY | 2026-09-04 18:19:23 | 50.58174 | 11.89987 | 90° | 9km/h | 28704m | 5.7m/s | -47.1°C | 0% | 15.1hPa | 2.5V | 18:12:15 | 02:00:27 | 00:00:00 | |
| DO3MHA-11 | 2026-09-04 18:19:23 | 50.58174 | 11.89987 | 91° | 11km/h | 28704m | 5.7m/s | -47.1°C | 3.2% | 15.0hPa | 2.5V | 00:00:00 | 02:00:27 | 00:00:00 | |
| AM1SDL-15 | 2026-09-04 18:19:22 | 50.58173 | 11.89984 | 51° | 16km/h | 28698m | 5.9m/s | -47.1°C | 3.2% | 15.0hPa | 2.6V | 00:00:00 | 02:00:26 | 00:00:00 | |
| DH8WE-5 | 2026-09-04 18:19:21 | 50.58172 | 11.89982 | 23° | 11km/h | 28692m | 5.4m/s | -47.2°C | 0.7% | 15.1hPa | 2.6V | 00:00:00 | 00:00:00 | 00:00:00 | |
| PETON7-10 | 2026-09-04 18:19:20 | 50.58169 | 11.89981 | 12° | 16km/h | 28687m | 4.5m/s | -47.2°C | 3.2% | 15.0hPa | 2.6V | 00:00:00 | 00:00:00 | 00:00:00 | |
| DL1XH1-15 | 2026-09-04 18:19:19 | 50.58164 | 11.89962 | 100° | 22km/h | 28656m | 6.3m/s | -47.5°C | 3.2% | 15.2hPa | 2.6V | 08:30:00 | 02:00:18 | 00:00:00 | |
| DL1XH-west | 2026-09-04 18:19:18 | 50.58164 | 11.89979 | 21° | 7km/h | 28678m | 5.8m/s | -47.3°C | 0% | 15.1hPa | 2.5V | 18:12:15 | 02:00:22 | 00:00:00 | |
| HSKMA3-T | 2026-09-04 18:19:14 | 50.58164 | 11.89962 | 100° | 22km/h | 28656m | 6.3m/s | -47.5°C | 0% | 15.2hPa | 2.6V | 18:12:15 | 02:00:18 | 00:00:00 | |
| DF8AY | 2026-09-04 18:19:12 | 50.58166 | 11.89942 | 96° | 29km/h | 28645m | 4.6m/s | -47.5°C | 0% | 15.2hPa | 2.5V | 18:12:15 | 02:00:16 | 00:00:00 | |
| DK5PH-5 | 2026-09-04 18:19:11 | 50.58167 | 11.89931 | 100° | 11km/h | 28640m | 5.1m/s | -47.5°C | 3.2% | 15.1hPa | 2.6V | 00:00:00 | 02:00:15 | 00:00:00 | |
| NBG1-10 | 2026-09-04 18:19:10 | 50.58168 | 11.89921 | 103° | 11km/h | 28635m | 5.8m/s | -47.5°C | 3.2% | 15.2hPa | 2.6V | 00:00:00 | 02:00:14 | 00:00:00 | |
| DL1XH1-15 | 2026-09-04 18:19:09 | 50.58164 | 11.89896 | 23° | 13km/h | 28603m | 4.2m/s | -47.5°C | 3.2% | 15.2hPa | 2.6V | 08:30:00 | 02:00:08 | 00:00:00 | |
| DL1XH-west | 2026-09-04 18:19:08 | 50.58170 | 11.89907 | 103° | 13km/h | 28624m | 5m/s | -47.5°C | 0% | 15.2hPa | 2.5V | 18:12:15 | 02:00:12 | 00:00:00 | |
| HSKMA3-T | 2026-09-04 18:19:04 | 50.58164 | 11.89896 | 23° | 13km/h | 28603m | 4.2m/s | -47.5°C | 0% | 15.2hPa | 2.6V | 18:12:15 | 02:00:08 | 00:00:00 | |
| DF8AY | 2026-09-04 18:19:01 | 50.58158 | 11.89891 | 68° | 5km/h | 28587m | 5.6m/s | -47.5°C | 0% | 15.3hPa | 2.5V | 18:12:15 | 02:00:05 | 00:00:00 | |
| DL1XH1-15 | 2026-09-04 18:18:59 | 50.58159 | 11.89857 | 92° | 16km/h | 28550m | 6.2m/s | -47.7°C | 3.3% | 15.4hPa | 2.5V | 08:30:00 | 01:59:58 | 00:00:00 | |
| OE5DRO-10 | 2026-09-04 18:18:58 | 50.58159 | 11.89882 | 100° | 11km/h | 28572m | 5.5m/s | -47.5°C | 3.2% | 15.3hPa | 2.6V | 00:00:00 | 00:00:00 | 00:00:00 | |
| DL1XH-15 | 2026-09-04 18:18:57 | 50.58160 | 11.89845 | 104° | 13km/h | 28538m | 5m/s | -47.7°C | 3.3% | 15.4hPa | 2.6V | 08:30:00 | 01:59:56 | 00:00:00 | |
| DL1XH-west | 2026-09-04 18:18:57 | 50.58160 | 11.89876 | 89° | 15km/h | 28566m | 6.1m/s | -47.6°C | 0% | 15.4hPa | 2.6V | 18:12:15 | 02:00:01 | 00:00:00 | |
| HSKMA3-T | 2026-09-04 18:18:53 | 50.58159 | 11.89850 | 102° | 15km/h | 28544m | 5.7m/s | -47.7°C | 0% | 15.4hPa | 2.6V | 18:12:15 | 01:59:57 | 00:00:00 | |
| AA1-15 | 2026-09-04 18:18:51 | 50.58161 | 11.89841 | 96° | 9km/h | 28534m | 5.1m/s | -47.8°C | 0% | 15.4hPa | 2.5V | 18:12:15 | 01:59:55 | 00:00:00 | |
| DL1XH1-15 | 2026-09-04 18:18:49 | 50.58155 | 11.89829 | 121° | 7km/h | 28495m | 5m/s | -47.9°C | 3.3% | 15.5hPa | 2.6V | 08:30:00 | 01:59:48 | 00:00:00 | |
| DL1XH-15 | 2026-09-04 18:18:47 | 50.58157 | 11.89823 | 99° | 11km/h | 28484m | 5.5m/s | -47.9°C | 3.3% | 15.6hPa | 2.6V | 08:30:00 | 01:59:46 | 00:00:00 | |
| DL1XH-west | 2026-09-04 18:18:46 | 50.58155 | 11.89832 | 45° | 4km/h | 28506m | 6.4m/s | -47.9°C | 0% | 15.5hPa | 2.5V | 18:12:15 | 01:59:50 | 00:00:00 | |
| HSKMA3-T | 2026-09-04 18:18:43 | 50.58156 | 11.89827 | 111° | 9km/h | 28489m | 6m/s | -47.9°C | 0.1% | 15.6hPa | 2.6V | 18:12:15 | 01:59:47 | 00:00:00 | |
| DF8AY | 2026-09-04 18:18:41 | 50.58157 | 11.89818 | 98° | 13km/h | 28478m | 4.8m/s | -47.8°C | 0% | 15.6hPa | 2.5V | 18:12:15 | 01:59:45 | 00:00:00 | |
| DK5PH-5 | 2026-09-04 18:18:41 | 50.58157 | 11.89818 | 98° | 15km/h | 28479m | 4.7m/s | -47.8°C | 3.3% | 15.5hPa | 2.5V | 00:00:00 | 01:59:45 | 00:00:00 | |
| SP3BTT-10 | 2026-09-04 18:18:40 | 50.58158 | 11.89813 | 106° | 20km/h | 28474m | 5.1m/s | -47.7°C | 3.3% | 15.5hPa | 2.5V | 00:00:00 | 00:00:00 | 00:00:00 | |
| DL1XH1-15 | 2026-09-04 18:18:39 | 50.58163 | 11.89792 | 62° | 7km/h | 28441m | 5.2m/s | -47.6°C | 3.3% | 15.7hPa | 2.5V | 08:30:00 | 01:59:38 | 00:00:00 | |
| OE5FHM-15 | 2026-09-04 18:18:39 | 50.58159 | 11.89808 | 116° | 15km/h | 28468m | 6.2m/s | -47.7°C | 3.3% | 15.6hPa | 2.5V | 00:00:00 | 01:59:43 | 00:00:00 | |
| SONCRA | 2026-09-04 18:18:38 | 50.58161 | 11.89804 | 126° | 11km/h | 28462m | 5.5m/s | -47.7°C | 0.7% | 15.6hPa | 2.5V | 00:00:00 | 00:00:00 | 00:00:00 | |
| DL1XH-15 | 2026-09-04 18:18:37 | 50.58162 | 11.89786 | 95° | 7km/h | 28432m | 4.8m/s | -47.6°C | 3.3% | 15.7hPa | 2.5V | 08:30:00 | 01:59:36 | 00:00:00 | |
| DL1XH-west | 2026-09-04 18:18:35 | 50.58164 | 11.89795 | 83° | 7km/h | 28446m | 6.2m/s | -47.7°C | 0% | 15.7hPa | 2.6V | 18:12:15 | 01:59:39 | 00:00:00 | |
| HSKMA3-T | 2026-09-04 18:18:32 | 50.58162 | 11.89786 | 96° | 7km/h | 28432m | 4.8m/s | -47.6°C | 0% | 15.7hPa | 2.5V | 18:12:15 | 01:59:36 | 00:00:00 | |
| DF8AY | 2026-09-04 18:18:30 | 50.58165 | 11.89781 | 152° | 15km/h | 28420m | 5.9m/s | -47.6°C | 0% | 15.7hPa | 2.6V | 18:12:15 | 01:59:34 | 00:00:00 | |
| AA1-15 | 2026-09-04 18:18:26 | 50.58181 | 11.89772 | 156° | 13km/h | 28399m | 5.6m/s | -47.5°C | 0% | 15.8hPa | 2.6V | 18:12:15 | 01:59:30 | 00:00:00 | |
| DL1XH-west | 2026-09-04 18:18:25 | 50.58184 | 11.89769 | 146° | 11km/h | 28393m | 4.9m/s | -47.4°C | 0% | 15.8hPa | 2.6V | 18:12:15 | 01:59:29 | 00:00:00 | |
| DL1XH-15 | 2026-09-04 18:18:23 | 50.58190 | 11.89759 | 126° | 15km/h | 28377m | 5.4m/s | -47.4°C | 3.3% | 15.8hPa | 2.5V | 08:30:00 | 01:59:26 | 00:00:00 | |
| HSKMA3-T | 2026-09-04 18:18:22 | 50.58190 | 11.89759 | 126° | 15km/h | 28377m | 5.4m/s | -47.4°C | 0% | 15.8hPa | 2.5V | 18:12:15 | 01:59:26 | 00:00:00 | |
| DF8AY | 2026-09-04 18:18:20 | 50.58194 | 11.89748 | 116° | 16km/h | 28367m | 4.8m/s | -47.3°C | 0% | 15.8hPa | 2.6V | 18:12:15 | 01:59:24 | 00:00:00 | |
| AA1-15 | 2026-09-04 18:18:15 | 50.58202 | 11.89722 | 142° | 18km/h | 28340m | 6.1m/s | -47.2°C | 0% | 15.9hPa | 2.6V | 18:12:15 | 01:59:19 | 00:00:00 | |
| DL1XH-west | 2026-09-04 18:18:14 | 50.58206 | 11.89718 | 149° | 22km/h | 28334m | 6.1m/s | -47.2°C | 0% | 15.9hPa | 2.6V | 18:12:15 | 01:59:18 | 00:00:00 | |
| DL1XH-15 | 2026-09-04 18:18:14 | 50.58217 | 11.89708 | 149° | 26km/h | 28324m | 4.3m/s | -47.2°C | 3.3% | 15.9hPa | 2.5V | 08:30:00 | 01:59:16 | 00:00:00 | |
| HSKMA3-T | 2026-09-04 18:18:11 | 50.58222 | 11.89703 | 143° | 22km/h | 28319m | 5.8m/s | -47.2°C | 0% | 16hPa | 2.5V | 18:12:15 | 01:59:15 | 00:00:00 | |
| DF8AY | 2026-09-04 18:18:09 | 50.58228 | 11.89691 | 106° | 16km/h | 28307m | 5.2m/s | -47.2°C | 0% | 16hPa | 2.6V | 18:12:15 | 01:59:13 | 00:00:00 | |
| DL1XH1-15 | 2026-09-04 18:18:09 | 50.58232 | 11.89652 | 107° | 22km/h | 28280m | 5m/s | -47.2°C | 3.2% | 16.1hPa | 2.6V | 08:30:00 | 01:59:08 | 00:00:00 | |
| OE5FHM-15 | 2026-09-04 18:18:09 | 50.58228 | 11.89691 | 107° | 24km/h | 28308m | 5.2m/s | -47.1°C | 3.2% | 16.0hPa | 2.6V | 00:00:00 | 01:59:13 | 08:30:00 | |
| DL1XH-15 | 2026-09-04 18:18:07 | 50.58236 | 11.89637 | 112° | 18km/h | 28269m | 6.2m/s | -47.2°C | 3.2% | 16.1hPa | 2.5V | 08:30:00 | 01:59:06 | 00:00:00 | |
| DL1XH-west | 2026-09-04 18:18:04 | 50.58232 | 11.89652 | 108° | 22km/h | 28280m | 5.1m/s | -47.2°C | 0% | 16.1hPa | 2.6V | 18:12:15 | 01:59:08 | 00:00:00 | |
| HSKMA3-T | 2026-09-04 18:18:01 | 50.58238 | 11.89630 | 120° | 18km/h | 28263m | 5.1m/s | -47.2°C | 0% | 16.1hPa | 2.5V | 18:12:15 | 01:59:05 | 00:00:00 | |
| DF8AY | 2026-09-04 18:17:59 | 50.58244 | 11.89619 | 142° | 22km/h | 28254m | 5.4m/s | -47.2°C | 0% | 16.1hPa | 2.6V | 18:12:15 | 01:59:03 | 00:00:00 | |
| DL1XH1-15 | 2026-09-04 18:17:59 | 50.58272 | 11.89580 | 120° | 29km/h | 28227m | 6m/s | -47.1°C | 3.2% | 16.2hPa | 2.5V | 08:30:00 | 01:58:58 | 00:00:00 | |
| AA1-15 | 2026-09-04 18:17:58 | 50.58249 | 11.89613 | 146° | 27km/h | 28248m | 6.3m/s | -47.1°C | 0% | 16.1hPa | 2.7V | 18:12:15 | 01:59:02 | 00:00:00 | |
| DL1XH-15 | 2026-09-04 18:17:57 | 50.58276 | 11.89560 | 99° | 26km/h | 28217m | 4.6m/s | -47.1°C | 3.2% | 16.2hPa | 2.6V | 08:30:00 | 01:58:56 | 00:00:00 | |
| DL1XH-west | 2026-09-04 18:17:53 | 50.58275 | 11.89570 | 108° | 26km/h | 28221m | 5.2m/s | -47.1°C | 0% | 16.2hPa | 2.5V | 18:12:15 | 01:58:57 | 00:00:00 | |
| HSKMA3-T | 2026-09-04 18:17:50 | 50.58278 | 11.89540 | 103° | 27km/h | 28206m | 5.7m/s | -47.1°C | 0% | 16.2hPa | 2.5V | 18:12:15 | 01:58:54 | 00:00:00 | |
| PETON7-10 | 2026-09-04 18:17:50 | 50.58278 | 11.89540 | 103° | 26km/h | 28207m | 5.6m/s | -47.0°C | 3.2% | 16.2hPa | 2.5V | 00:00:00 | 00:00:00 | 00:00:00 | |
| DL1XH1-15 | 2026-09-04 18:17:49 | 50.58295 | 11.89481 | 119° | 22km/h | 28173m | 5.2m/s | -47°C | 3.2% | 16.3hPa | 2.5V | 08:30:00 | 01:58:48 | 00:00:00 | |
| DF8AY | 2026-09-04 18:17:49 | 50.58283 | 11.89518 | 115° | 29km/h | 28195m | 5.2m/s | -47.1°C | 0% | 16.3hPa | 2.6V | 18:12:15 | 01:58:52 | 00:00:00 | |
| AA1-15 | 2026-09-04 18:17:45 | 50.58292 | 11.89489 | 116° | 24km/h | 28179m | 5.9m/s | -47°C | 0% | 16.3hPa | 2.5V | 18:12:15 | 01:58:49 | 00:00:00 | |
| DL1XH-west | 2026-09-04 18:17:42 | 50.58301 | 11.89466 | 129° | 24km/h | 28162m | 6.2m/s | -47°C | 0% | 16.4hPa | 2.6V | 18:12:15 | 01:58:46 | 00:00:00 | |
| HSKMA3-T | 2026-09-04 18:17:40 | 50.58309 | 11.89450 | 122° | 26km/h | 28152m | 4.5m/s | -47.1°C | 0% | 16.4hPa | 2.5V | 18:12:15 | 01:58:44 | 00:00:00 | |
| OE5DXL-15 | 2026-09-04 18:17:40 | 50.58309 | 11.89450 | 123° | 24km/h | 28152m | 4.4m/s | -47.0°C | 3.2% | 16.3hPa | 2.5V | 00:00:00 | 00:00:00 | 00:00:00 | |
| DL1XH1-15 | 2026-09-04 18:17:39 | 50.58318 | 11.89388 | 109° | 29km/h | 28118m | 5.4m/s | -47.1°C | 3.2% | 16.4hPa | 2.6V | 08:30:00 | 01:58:38 | 00:00:00 | |
| DF8AY | 2026-09-04 18:17:38 | 50.58313 | 11.89432 | 101° | 26km/h | 28140m | 6.2m/s | -47.1°C | 0% | 16.4hPa | 2.5V | 18:12:15 | 01:58:42 | 00:00:00 | |
| AA1-15 | 2026-09-04 18:17:33 | 50.58321 | 11.89378 | 114° | 27km/h | 28113m | 4.9m/s | -47.1°C | 0% | 16.5hPa | 2.5V | 18:12:15 | 01:58:37 | 00:00:00 | |
| DL1XH-west | 2026-09-04 18:17:32 | 50.58324 | 11.89368 | 116° | 26km/h | 28107m | 5.6m/s | -47.1°C | 0% | 16.5hPa | 2.5V | 18:12:15 | 01:58:36 | 00:00:00 | |
| HSKMA3-T | 2026-09-04 18:17:30 | 50.58328 | 11.89352 | 112° | 20km/h | 28096m | 5.4m/s | -47°C | 0% | 16.5hPa | 2.6V | 18:12:15 | 01:58:34 | 00:00:00 | |
| DF8AY | 2026-09-04 18:17:27 | 50.58335 | 11.89330 | 117° | 24km/h | 28079m | 5.8m/s | -46.9°C | 0% | 16.6hPa | 2.5V | 18:12:15 | 01:58:31 | 00:00:00 | |
| DL1XH-15 | 2026-09-04 18:17:27 | 50.58337 | 11.89279 | 72° | 29km/h | 28051m | 5m/s | -46.8°C | 3.1% | 16.6hPa | 2.5V | 08:30:00 | 01:58:26 | 00:00:00 | |
| DL1XH-west | 2026-09-04 18:17:22 | 50.58337 | 11.89279 | 73° | 29km/h | 28052m | 5m/s | -46.8°C | 0% | 16.6hPa | 2.5V | 18:12:15 | 01:58:26 | 00:00:00 | |
| HSKMA3-T | 2026-09-04 18:17:20 | 50.58333 | 11.89256 | 81° | 29km/h | 28041m | 6m/s | -46.8°C | 0% | 16.6hPa | 2.6V | 18:12:15 | 01:58:24 | 00:00:00 | |
| PETON7-10 | 2026-09-04 18:17:20 | 50.58333 | 11.89256 | 81° | 20km/h | 28042m | 5.9m/s | -46.8°C | 3.1% | 16.6hPa | 2.6V | 00:00:00 | 00:00:00 | 00:00:00 | |
| DL1XH1-15 | 2026-09-04 18:17:19 | 50.58336 | 11.89207 | 95° | 11km/h | 28008m | 5.2m/s | -46.9°C | 3.1% | 16.8hPa | 2.6V | 08:30:00 | 01:58:18 | 00:00:00 | |
| DF8AY | 2026-09-04 18:17:17 | 50.58334 | 11.89226 | 103° | 22km/h | 28026m | 5.2m/s | -46.9°C | 0% | 16.7hPa | 2.6V | 18:12:15 | 01:58:21 | 00:00:00 | |
| DL1XH-15 | 2026-09-04 18:17:17 | 50.58337 | 11.89197 | 109° | 15km/h | 27997m | 6.1m/s | -46.9°C | 3.2% | 16.8hPa | 2.6V | 08:30:00 | 01:58:16 | 00:00:00 | |
| AA1-15 | 2026-09-04 18:17:12 | 50.58337 | 11.89197 | 110° | 15km/h | 27997m | 6.1m/s | -46.9°C | 0% | 16.8hPa | 2.6V | 18:12:15 | 01:58:16 | 00:00:00 | |
| DL1XH-west | 2026-09-04 18:17:11 | 50.58339 | 11.89191 | 114° | 18km/h | 27991m | 6.2m/s | -46.9°C | 0% | 16.8hPa | 2.5V | 18:12:15 | 01:58:15 | 00:00:00 | |
| HSKMA3-T | 2026-09-04 18:17:09 | 50.58343 | 11.89176 | 107° | 22km/h | 27980m | 5.1m/s | -47°C | 0% | 16.8hPa | 2.5V | 18:12:15 | 01:58:13 | 00:00:00 | |
| DL1XH1-15 | 2026-09-04 18:17:09 | 50.58343 | 11.89139 | 86° | 18km/h | 27953m | 6.1m/s | -47°C | 3.2% | 16.9hPa | 2.5V | 08:30:00 | 01:58:08 | 00:00:00 | |
| DF8AY | 2026-09-04 18:17:06 | 50.58344 | 11.89153 | 82° | 18km/h | 27963m | 4.4m/s | -47°C | 0% | 16.9hPa | 2.5V | 18:12:15 | 01:58:10 | 00:00:00 | |
| AA1-15 | 2026-09-04 18:17:01 | 50.58342 | 11.89119 | 82° | 16km/h | 27937m | 5m/s | -46.9°C | 0% | 16.9hPa | 2.6V | 18:12:15 | 01:58:05 | 00:00:00 | |
| DL1XH-west | 2026-09-04 18:17:00 | 50.58341 | 11.89113 | 69° | 15km/h | 27931m | 6.8m/s | -46.9°C | 0% | 16.9hPa | 2.6V | 18:12:15 | 01:58:04 | 00:00:00 | |
| HSKMA3-T | 2026-09-04 18:16:58 | 50.58338 | 11.89104 | 58° | 11km/h | 27920m | 4.6m/s | -46.9°C | 0% | 17hPa | 2.5V | 18:12:15 | 01:58:02 | 00:00:00 | |
| DF8AY | 2026-09-04 18:16:56 | 50.58337 | 11.89096 | 95° | 13km/h | 27910m | 6.2m/s | -46.8°C | 0% | 17hPa | 2.6V | 18:12:15 | 01:58:00 | 00:00:00 | |
| DH8WE-5 | 2026-09-04 18:16:56 | 50.58336 | 11.89095 | 95° | 13km/h | 27910m | 6.2m/s | -46.8°C | 0.7% | 17.0hPa | 2.5V | 00:00:00 | 00:00:00 | 00:00:00 | |
| KRY50SP | 2026-09-04 18:16:55 | 50.58336 | 11.89095 | 95° | 13km/h | 27910m | 6.2m/s | -46.8°C | 0.7% | 17.0hPa | 2.5V | 00:00:00 | 00:00:00 | 00:00:00 | |
| DL1XH-15 | 2026-09-04 18:16:54 | 50.58342 | 11.89070 | 97° | 18km/h | 27888m | 5.6m/s | -46.7°C | 3.2% | 17.1hPa | 2.5V | 08:30:00 | 01:57:56 | 00:00:00 | |
| DL1XH-west | 2026-09-04 18:16:50 | 50.58340 | 11.89058 | 50° | 15km/h | 27876m | 5.6m/s | -46.6°C | 0% | 17.1hPa | 2.6V | 18:12:15 | 01:57:54 | 00:00:00 | |
| HSKMA3-T | 2026-09-04 18:16:48 | 50.58332 | 11.89050 | 28° | 9km/h | 27860m | 6.1m/s | -46.5°C | 0% | 17.1hPa | 2.5V | 18:12:15 | 01:57:51 | 00:00:00 | |
| DF8AY | 2026-09-04 18:16:45 | 50.58329 | 11.89030 | 95° | 13km/h | 27825m | 5.2m/s | -46.4°C | 0% | 17.2hPa | 2.5V | 18:12:15 | 01:57:45 | 00:00:00 | |
| OE5DRO-10 | 2026-09-04 18:16:45 | 50.58330 | 11.89046 | 71° | 9km/h | 27849m | 5.5m/s | -46.4°C | 3.1% | 17.1hPa | 2.5V | 00:00:00 | 00:00:00 | 00:00:00 | |
| KRY50SP | 2026-09-04 18:16:44 | 50.58330 | 11.89046 | 71° | 7km/h | 27849m | 5.5m/s | -46.5°C | 0.7% | 17.2hPa | 2.5V | 00:00:00 | 00:00:00 | 00:00:00 | |
| DL1XH-15 | 2026-09-04 18:16:43 | 50.58329 | 11.89035 | 84° | 13km/h | 27830m | 5.5m/s | -46.4°C | 3.1% | 17.2hPa | 2.5V | 08:30:00 | 01:57:46 | 00:00:00 | |
| DL1XH-west | 2026-09-04 18:16:40 | 50.58329 | 11.89026 | 107° | 13km/h | 27819m | 6.5m/s | -46.3°C | 0% | 17.2hPa | 2.5V | 18:12:15 | 01:57:44 | 00:00:00 | |
| AA1-15 | 2026-09-04 18:16:39 | 50.58330 | 11.89021 | 120° | 13km/h | 27813m | 5.5m/s | -46.3°C | 0% | 17.2hPa | 2.6V | 18:12:15 | 01:57:43 | 00:00:00 | |
| OE5FHM-15 | 2026-09-04 18:16:39 | 50.58330 | 11.89021 | 121° | 11km/h | 27814m | 5.4m/s | -46.3°C | 3.1% | 17.2hPa | 2.6V | 00:00:00 | 01:57:43 | 00:00:00 | |
| KRY50SP | 2026-09-04 18:16:38 | 50.58330 | 11.89021 | 121° | 13km/h | 27814m | 5.5m/s | -46.3°C | 0.7% | 17.3hPa | 2.5V | 00:00:00 | 00:00:00 | 00:00:00 | |
| DL1XH-15 | 2026-09-04 18:16:37 | 50.58324 | 11.89006 | 356° | 7km/h | 27773m | 5.9m/s | -46.2°C | 3% | 17.4hPa | 2.5V | 08:30:00 | 01:57:36 | 00:00:00 | |
| DM0DOS-11 | 2026-09-04 18:16:37 | 50.58328 | 11.89007 | 13° | 11km/h | 27785m | 5.6m/s | -46.2°C | 3.1% | 17.3hPa | 2.6V | 08:30:00 | 01:57:38 | 00:00:00 | |
| HSKMA3-T | 2026-09-04 18:16:36 | 50.58332 | 11.89011 | 61° | 7km/h | 27797m | 6.5m/s | -46.3°C | 0% | 17.3hPa | 2.5V | 18:12:15 | 01:57:40 | 00:00:00 | |
| DF8AY | 2026-09-04 18:16:35 | 50.58331 | 11.89008 | 29° | 9km/h | 27791m | 5.9m/s | -46.2°C | 0% | 17.3hPa | 2.5V | 18:12:15 | 01:57:39 | 00:00:00 | |
| PETON7-10 | 2026-09-04 18:16:35 | 50.58331 | 11.89008 | 29° | 9km/h | 27791m | 5.8m/s | -46.2°C | 3.1% | 17.2hPa | 2.5V | 00:00:00 | 00:00:00 | 00:00:00 | |
| SONCRA | 2026-09-04 18:16:34 | 50.58328 | 11.89007 | 13° | 11km/h | 27785m | 5.6m/s | -46.2°C | 0.7% | 17.3hPa | 2.5V | 00:00:00 | 00:00:00 | 00:00:00 | |
| DO3MHA-11 | 2026-09-04 18:16:33 | 50.58326 | 11.89006 | 4° | 9km/h | 27779m | 6.3m/s | -46.1°C | 3.0% | 17.3hPa | 2.5V | 00:00:00 | 01:57:37 | 00:00:00 | |
| KRY50SP | 2026-09-04 18:16:32 | 50.58325 | 11.89006 | 5° | 11km/h | 27779m | 6.3m/s | -46.2°C | 0.7% | 17.4hPa | 2.5V | 00:00:00 | 00:00:00 | 00:00:00 | |
| DJTTGO | 2026-09-04 18:16:31 | 50.58324 | 11.89006 | 358° | 7km/h | 27773m | 5.9m/s | -46.2°C | 0.7% | 17.4hPa | 2.5V | 00:00:00 | 00:00:00 | 00:00:00 | |
| DL1XH1-15 | 2026-09-04 18:16:29 | 50.58317 | 11.88986 | 109° | 11km/h | 27728m | 5.2m/s | -46.2°C | 3% | 17.5hPa | 2.5V | 08:30:00 | 01:57:28 | 00:00:00 | |
| DL1XH-west | 2026-09-04 18:16:29 | 50.58320 | 11.89005 | 38° | 7km/h | 27757m | 6.5m/s | -46.2°C | 0% | 17.4hPa | 2.6V | 18:12:15 | 01:57:33 | 00:00:00 | |
| AA1-15 | 2026-09-04 18:16:28 | 50.58318 | 11.89002 | 52° | 9km/h | 27751m | 5.8m/s | -46.2°C | 0% | 17.4hPa | 2.7V | 18:12:15 | 01:57:32 | 00:00:00 | |
| HSKMA3-T | 2026-09-04 18:16:25 | 50.58316 | 11.88990 | 98° | 13km/h | 27733m | 6.1m/s | -46.2°C | 0% | 17.4hPa | 2.5V | 18:12:15 | 01:57:29 | 00:00:00 | |
| DF8AY | 2026-09-04 18:16:24 | 50.58317 | 11.88986 | 110° | 11km/h | 27728m | 5.2m/s | -46.2°C | 0% | 17.5hPa | 2.5V | 18:12:15 | 01:57:28 | 00:00:00 | |
| DJ2DS-15 | 2026-09-04 18:16:24 | 50.58317 | 11.88986 | 110° | 9km/h | 27728m | 5.2m/s | -46.1°C | 3.0% | 17.4hPa | 2.5V | 00:00:00 | 01:57:28 | 08:30:00 | |
| DO3MHA-11 | 2026-09-04 18:16:23 | 50.58318 | 11.88982 | 107° | 11km/h | 27723m | 4.4m/s | -46.2°C | 3.0% | 17.4hPa | 2.5V | 00:00:00 | 01:57:27 | 00:00:00 | |
| S52SK | 2026-09-04 18:16:22 | 50.58318 | 11.88982 | 108° | 9km/h | 27723m | 4.5m/s | -46.2°C | 0.7% | 17.5hPa | 2.5V | 00:00:00 | 00:00:00 | 00:00:00 | |
| AM1SDL-15 | 2026-09-04 18:16:21 | 50.58317 | 11.88975 | 46° | 11km/h | 27712m | 6.4m/s | -46.3°C | 3.1% | 17.5hPa | 2.5V | 00:00:00 | 01:57:25 | 00:00:00 | |
| PETON7-10 | 2026-09-04 18:16:20 | 50.58315 | 11.88974 | 13° | 9km/h | 27706m | 5.7m/s | -46.4°C | 3.1% | 17.5hPa | 2.5V | 00:00:00 | 00:00:00 | 00:00:00 | |
| DL1XH1-15 | 2026-09-04 18:16:19 | 50.58301 | 11.88991 | 314° | 15km/h | 27673m | 6m/s | -46.7°C | 3.2% | 17.6hPa | 2.5V | 08:30:00 | 01:57:18 | 00:00:00 | |
| DL1XH-west | 2026-09-04 18:16:18 | 50.58310 | 11.88975 | 333° | 13km/h | 27695m | 6.5m/s | -46.6°C | 0% | 17.6hPa | 2.5V | 18:12:15 | 01:57:22 | 00:00:00 | |
| NBG1-10 | 2026-09-04 18:16:18 | 50.58310 | 11.88975 | 334° | 11km/h | 27695m | 6.4m/s | -46.6°C | 3.1% | 17.5hPa | 2.5V | 00:00:00 | 01:57:22 | 00:00:00 | |
| DL6DJ-15 | 2026-09-04 18:16:17 | 50.58307 | 11.88978 | 314° | 11km/h | 27689m | 5.9m/s | -46.7°C | 0.7% | 17.6hPa | 2.6V | 00:00:00 | 00:00:00 | 00:00:00 | |
| S52SK | 2026-09-04 18:16:16 | 50.58307 | 11.88978 | 316° | 13km/h | 27689m | 5.9m/s | -46.7°C | 0.7% | 17.6hPa | 2.6V | 00:00:00 | 00:00:00 | 00:00:00 | |
| DL1XH-15 | 2026-09-04 18:16:15 | 50.58295 | 11.88997 | 342° | 13km/h | 27662m | 5.2m/s | -46.7°C | 3.2% | 17.7hPa | 2.6V | 08:30:00 | 01:57:16 | 00:00:00 | |
| AA1-15 | 2026-09-04 18:16:15 | 50.58303 | 11.88987 | 305° | 15km/h | 27678m | 4.9m/s | -46.7°C | 0% | 17.6hPa | 2.5V | 18:12:15 | 01:57:19 | 00:00:00 | |
| HSKMA3-T | 2026-09-04 18:16:14 | 50.58301 | 11.88991 | 315° | 15km/h | 27673m | 6m/s | -46.7°C | 0% | 17.6hPa | 2.5V | 18:12:15 | 01:57:18 | 00:00:00 | |
| DO3MHA-11 | 2026-09-04 18:16:13 | 50.58298 | 11.88994 | 330° | 5km/h | 27667m | 5.8m/s | -46.7°C | 3.1% | 17.6hPa | 2.6V | 00:00:00 | 01:57:17 | 00:00:00 | |
| DK5PH-5 | 2026-09-04 18:16:11 | 50.58292 | 11.88997 | 352° | 11km/h | 27657m | 4.6m/s | -46.7°C | 3.2% | 17.6hPa | 2.6V | 00:00:00 | 01:57:15 | 00:00:00 | |
| OE5DXL-15 | 2026-09-04 18:16:10 | 50.58290 | 11.88998 | 354° | 11km/h | 27651m | 6.3m/s | -46.7°C | 3.1% | 17.6hPa | 2.6V | 00:00:00 | 00:00:00 | 00:00:00 | |
| DL1XH1-15 | 2026-09-04 18:16:09 | 50.58287 | 11.89002 | 312° | 9km/h | 27617m | 4.9m/s | -46.8°C | 3.1% | 17.8hPa | 2.6V | 08:30:00 | 01:57:08 | 00:00:00 | |
| OE5FHM-15 | 2026-09-04 18:16:09 | 50.58289 | 11.88998 | 338° | 13km/h | 27645m | 6.3m/s | -46.7°C | 3.2% | 17.7hPa | 2.6V | 00:00:00 | 01:57:13 | 00:00:00 | |
| DL3JIN-12 | 2026-09-04 18:16:08 | 50.58289 | 11.88998 | 0° | 0km/h | 27645m | 6.3m/s | -46.8°C | 0.8% | 17.7hPa | 2.6V | 00:00:00 | 00:00:00 | 00:00:00 | |
| DM0DOS-11 | 2026-09-04 18:16:07 | 50.58289 | 11.89000 | 323° | 5km/h | 27622m | 5.2m/s | -46.7°C | 3.1% | 17.8hPa | 2.6V | 08:30:00 | 01:57:09 | 00:00:00 | |
| DL1XH-west | 2026-09-04 18:16:07 | 50.58290 | 11.88998 | 218° | 2km/h | 27634m | 5.2m/s | -46.8°C | 0% | 17.7hPa | 2.5V | 18:12:15 | 01:57:11 | 00:00:00 | |
| OE5DRO-10 | 2026-09-04 18:16:07 | 50.58290 | 11.88998 | 219° | 9km/h | 27634m | 5.2m/s | -46.7°C | 3.1% | 17.7hPa | 2.5V | 00:00:00 | 00:00:00 | 00:00:00 | |
| DL1XH-15 | 2026-09-04 18:16:05 | 50.58285 | 11.89009 | 281° | 13km/h | 27605m | 6.6m/s | -46.8°C | 3.1% | 17.8hPa | 2.5V | 08:30:00 | 01:57:06 | 00:00:00 | |
| HSKMA3-T | 2026-09-04 18:16:04 | 50.58287 | 11.89002 | 313° | 9km/h | 27617m | 4.9m/s | -46.8°C | 0% | 17.8hPa | 2.6V | 18:12:15 | 01:57:08 | 00:00:00 | |
| DJ2DS-15 | 2026-09-04 18:16:04 | 50.58287 | 11.89002 | 313° | 13km/h | 27617m | 4.8m/s | -46.7°C | 3.1% | 17.7hPa | 2.7V | 00:00:00 | 01:57:08 | 00:00:00 | |
| SONCRA | 2026-09-04 18:16:03 | 50.58286 | 11.89005 | 298° | 9km/h | 27612m | 6.0m/s | -46.8°C | 0.7% | 17.8hPa | 2.7V | 00:00:00 | 00:00:00 | 00:00:00 | |
| DF8AY | 2026-09-04 18:16:03 | 50.58286 | 11.89005 | 299° | 11km/h | 27612m | 6m/s | -46.8°C | 0% | 17.8hPa | 2.5V | 18:12:15 | 01:57:07 | 00:00:00 | |
| HARRO8 | 2026-09-04 18:16:02 | 50.58285 | 11.89014 | 272° | 13km/h | 27599m | 5.8m/s | -46.9°C | 0.7% | 17.8hPa | 2.7V | 00:00:00 | 00:00:00 | 00:00:00 | |
| S52SK | 2026-09-04 18:16:01 | 50.58285 | 11.89009 | 283° | 13km/h | 27606m | 6.6m/s | -46.8°C | 0.7% | 17.8hPa | 2.7V | 00:00:00 | 00:00:00 | 00:00:00 | |
| DL1XH1-15 | 2026-09-04 18:15:59 | 50.58287 | 11.89036 | 205° | 13km/h | 27560m | 5.7m/s | -47.1°C | 3.2% | 17.9hPa | 2.7V | 08:30:00 | 01:56:58 | 00:00:00 | |
| DL1XH-west | 2026-09-04 18:15:56 | 50.58284 | 11.89032 | 243° | 5km/h | 27572m | 5.8m/s | -47°C | 0% | 17.9hPa | 2.5V | 18:12:15 | 01:57:00 | 00:00:00 | |
| DL1XH-15 | 2026-09-04 18:15:55 | 50.58293 | 11.89041 | 220° | 11km/h | 27549m | 5.5m/s | -47.1°C | 3.2% | 18hPa | 2.6V | 08:30:00 | 01:56:56 | 00:00:00 | |
| AA1-15 | 2026-09-04 18:15:53 | 50.58290 | 11.89038 | 209° | 13km/h | 27554m | 5.1m/s | -47.1°C | 0% | 17.9hPa | 2.6V | 18:12:15 | 01:56:57 | 00:00:00 | |
| DF8AY | 2026-09-04 18:15:52 | 50.58293 | 11.89041 | 221° | 11km/h | 27549m | 5.5m/s | -47.1°C | 0% | 18hPa | 2.6V | 18:12:15 | 01:56:56 | 00:00:00 | |
| PETON7-10 | 2026-09-04 18:15:50 | 50.58295 | 11.89049 | 268° | 22km/h | 27537m | 5.2m/s | -47.1°C | 3.2% | 17.9hPa | 2.5V | 00:00:00 | 00:00:00 | 08:30:00 | |
| DL1XH1-15 | 2026-09-04 18:15:49 | 50.58305 | 11.89085 | 221° | 18km/h | 27503m | 6m/s | -47.1°C | 3.2% | 18.1hPa | 2.5V | 08:30:00 | 01:56:48 | 00:00:00 | |
| DL1XH-west | 2026-09-04 18:15:46 | 50.58299 | 11.89074 | 239° | 20km/h | 27514m | 5.5m/s | -47.2°C | 0% | 18.1hPa | 2.5V | 18:12:15 | 01:56:50 | 00:00:00 | |
| DL1XH-15 | 2026-09-04 18:15:45 | 50.58313 | 11.89093 | 195° | 22km/h | 27493m | 4.2m/s | -47°C | 3.2% | 18.1hPa | 2.7V | 08:30:00 | 01:56:46 | 00:00:00 | |
| HSKMA3-T | 2026-09-04 18:15:43 | 50.58309 | 11.89090 | 208° | 20km/h | 27498m | 4.8m/s | -47°C | 0% | 18.1hPa | 2.6V | 18:12:15 | 01:56:47 | 00:00:00 | |
| AA1-15 | 2026-09-04 18:15:42 | 50.58313 | 11.89093 | 196° | 22km/h | 27493m | 4.2m/s | -47°C | 0% | 18.1hPa | 2.7V | 18:12:15 | 01:56:46 | 00:00:00 | |
| DO3MHA-11 | 2026-09-04 18:15:42 | 50.58313 | 11.89093 | 196° | 22km/h | 27493m | 4.2m/s | -47.0°C | 3.2% | 18.1hPa | 2.5V | 00:00:00 | 01:56:46 | 00:00:00 | |
| DK5PH-5 | 2026-09-04 18:15:41 | 50.58319 | 11.89095 | 190° | 20km/h | 27488m | 5.8m/s | -46.9°C | 3.2% | 18.1hPa | 2.5V | 00:00:00 | 01:56:45 | 00:00:00 | |
| OE5DXL-15 | 2026-09-04 18:15:40 | 50.58326 | 11.89096 | 187° | 20km/h | 27482m | 6.3m/s | -46.9°C | 3.2% | 18.1hPa | 2.5V | 00:00:00 | 00:00:00 | 00:00:00 | |
| DL1XH1-15 | 2026-09-04 18:15:39 | 50.58360 | 11.89111 | 221° | 13km/h | 27450m | 4.8m/s | -46.9°C | 3.2% | 18.2hPa | 2.5V | 08:30:00 | 01:56:38 | 00:00:00 | |
| OE5FHM-15 | 2026-09-04 18:15:39 | 50.58334 | 11.89098 | 188° | 20km/h | 27477m | 5.1m/s | -46.9°C | 3.2% | 18.1hPa | 2.6V | 00:00:00 | 01:56:43 | 00:00:00 | |
| D01LWL | 2026-09-04 18:15:38 | 50.58349 | 11.89102 | 194° | 24km/h | 27466m | 5.8m/s | -46.9°C | 0.7% | 18.2hPa | 2.6V | 00:00:00 | 00:00:00 | 00:00:00 | |
| DJ2DS-15 | 2026-09-04 18:15:37 | 50.58349 | 11.89102 | 194° | 24km/h | 27466m | 5.8m/s | -46.9°C | 0.7% | 18.2hPa | 2.6V | 00:00:00 | 00:00:00 | 00:00:00 | |
| DL1XH-15 | 2026-09-04 18:15:35 | 50.58366 | 11.89117 | 204° | 16km/h | 27440m | 5.1m/s | -46.8°C | 3.2% | 18.3hPa | 2.6V | 08:30:00 | 01:56:36 | 00:00:00 | |
| DL1XH-west | 2026-09-04 18:15:35 | 50.58357 | 11.89107 | 215° | 15km/h | 27455m | 4.7m/s | -46.9°C | 0% | 18.2hPa | 2.6V | 18:12:15 | 01:56:39 | 00:00:00 | |
| HSKMA3-T | 2026-09-04 18:15:32 | 50.58366 | 11.89117 | 204° | 16km/h | 27440m | 5.1m/s | -46.8°C | 0% | 18.3hPa | 2.6V | 18:12:15 | 01:56:36 | 00:00:00 | |
| AA1-15 | 2026-09-04 18:15:31 | 50.58371 | 11.89119 | 192° | 20km/h | 27435m | 5m/s | -46.8°C | 0% | 18.3hPa | 2.6V | 18:12:15 | 01:56:35 | 00:00:00 | |
| HARRO8 | 2026-09-04 18:15:30 | 50.58376 | 11.89120 | 181° | 20km/h | 27430m | 5.1m/s | -46.8°C | 0.7% | 18.3hPa | 2.5V | 00:00:00 | 00:00:00 | 00:00:00 | |
| OE5DRO-10 | 2026-09-04 18:15:29 | 50.58381 | 11.89120 | 173° | 20km/h | 27425m | 6.2m/s | -46.8°C | 3.2% | 18.3hPa | 2.5V | 00:00:00 | 00:00:00 | 00:00:00 | |
| SONDE2-11 | 2026-09-04 18:15:27 | 50.58392 | 11.89116 | 166° | 22km/h | 27413m | 4.4m/s | -46.8°C | 0.7% | 18.4hPa | 2.5V | 00:00:00 | 00:00:00 | 00:00:00 | |
| DL3JIN-12 | 2026-09-04 18:15:26 | 50.58392 | 11.89116 | 168° | 22km/h | 27414m | 4.4m/s | -46.8°C | 0.7% | 18.3hPa | 2.5V | 00:00:00 | 00:00:00 | 00:00:00 | |
| DL1XH-15 | 2026-09-04 18:15:25 | 50.58421 | 11.89125 | 206° | 22km/h | 27387m | 5.4m/s | -46.8°C | 3.2% | 18.4hPa | 2.5V | 08:30:00 | 01:56:26 | 00:00:00 | |
| DL1XH-west | 2026-09-04 18:15:24 | 50.58410 | 11.89117 | 198° | 26km/h | 27397m | 5m/s | -46.8°C | 0% | 18.4hPa | 2.6V | 18:12:15 | 01:56:28 | 00:00:00 | |
| HSKMA3-T | 2026-09-04 18:15:22 | 50.58421 | 11.89125 | 207° | 22km/h | 27387m | 5.4m/s | -46.8°C | 0% | 18.4hPa | 2.5V | 18:12:15 | 01:56:26 | 00:00:00 | |
| AA1-15 | 2026-09-04 18:15:20 | 50.58429 | 11.89130 | 193° | 13km/h | 27376m | 5m/s | -46.7°C | 0% | 18.5hPa | 2.5V | 18:12:15 | 01:56:24 | 00:00:00 | |
| PETON7-10 | 2026-09-04 18:15:20 | 50.58429 | 11.89130 | 194° | 16km/h | 27376m | 4.9m/s | -46.7°C | 3.2% | 18.4hPa | 2.6V | 00:00:00 | 01:56:24 | 00:00:00 | |
| S52SK | 2026-09-04 18:15:19 | 50.58429 | 11.89130 | 194° | 13km/h | 27376m | 5.0m/s | -46.7°C | 0.7% | 18.5hPa | 2.6V | 00:00:00 | 00:00:00 | 00:00:00 | |
| KRY50SP | 2026-09-04 18:15:17 | 50.58435 | 11.89130 | 175° | 15km/h | 27367m | 5.4m/s | -46.7°C | 0.7% | 18.5hPa | 2.6V | 00:00:00 | 00:00:00 | 00:00:00 | |
| ANDY1245 | 2026-09-04 18:15:16 | 50.58439 | 11.89129 | 176° | 16km/h | 27361m | 5.9m/s | -46.7°C | 0.8% | 18.5hPa | 2.6V | 00:00:00 | 00:00:00 | 00:00:00 | |
| DL6DJ-15 | 2026-09-04 18:15:15 | 50.58455 | 11.89127 | 171° | 22km/h | 27345m | 5.7m/s | -46.7°C | 0.7% | 18.5hPa | 2.6V | 00:00:00 | 00:00:00 | 00:00:00 | |
| DL1XH-15 | 2026-09-04 18:15:15 | 50.58465 | 11.89124 | 166° | 18km/h | 27334m | 4.7m/s | -46.7°C | 3.1% | 18.6hPa | 2.5V | 08:30:00 | 01:56:16 | 00:00:00 | |
| DM0DOS-11 | 2026-09-04 18:15:14 | 50.58478 | 11.89121 | 181° | 18km/h | 27318m | 5.2m/s | -46.7°C | 3.1% | 18.6hPa | 2.6V | 08:30:00 | 01:56:13 | 00:00:00 | |
| DL1XH-west | 2026-09-04 18:15:13 | 50.58460 | 11.89125 | 167° | 20km/h | 27339m | 5.8m/s | -46.7°C | 0% | 18.5hPa | 2.6V | 18:12:15 | 01:56:17 | 00:00:00 | |
| HSKMA3-T | 2026-09-04 18:15:11 | 50.58469 | 11.89122 | 170° | 16km/h | 27329m | 4.9m/s | -46.7°C | 0% | 18.6hPa | 2.5V | 18:12:15 | 01:56:15 | 00:00:00 | |
| DF8AY | 2026-09-04 18:15:09 | 50.58478 | 11.89121 | 181° | 18km/h | 27318m | 5.2m/s | -46.7°C | 0% | 18.6hPa | 2.6V | 18:12:15 | 01:56:13 | 00:00:00 | |
| DL1XH1-15 | 2026-09-04 18:15:09 | 50.58493 | 11.89111 | 121° | 13km/h | 27293m | 4.4m/s | -46.6°C | 3.1% | 18.7hPa | 2.5V | 08:30:00 | 01:56:08 | 00:00:00 | |
| OE5FHM-15 | 2026-09-04 18:15:09 | 50.58478 | 11.89121 | 182° | 20km/h | 27318m | 5.1m/s | -46.6°C | 3.1% | 18.6hPa | 2.6V | 00:00:00 | 01:56:13 | 00:00:00 | |
| KRY50SP | 2026-09-04 18:15:08 | 50.58478 | 11.89121 | 182° | 18km/h | 27318m | 5.2m/s | -46.7°C | 0.7% | 18.6hPa | 2.6V | 00:00:00 | 00:00:00 | 00:00:00 | |
| DL1XH-15 | 2026-09-04 18:15:07 | 50.58497 | 11.89104 | 143° | 13km/h | 27283m | 5.3m/s | -46.6°C | 3.1% | 18.7hPa | 2.6V | 08:30:00 | 01:56:06 | 00:00:00 | |
| AA1-15 | 2026-09-04 18:15:05 | 50.58492 | 11.89115 | 129° | 13km/h | 27298m | 5.2m/s | -46.7°C | 0% | 18.7hPa | 2.5V | 18:12:15 | 01:56:09 | 00:00:00 | |
| DF8AY | 2026-09-04 18:15:04 | 50.58509 | 11.89097 | 159° | 20km/h | 27268m | 4.6m/s | -46.6°C | 0% | 18.8hPa | 2.5V | 18:12:15 | 01:56:03 | 00:00:00 | |
| DL1XH-west | 2026-09-04 18:15:03 | 50.58495 | 11.89107 | 127° | 13km/h | 27288m | 5.1m/s | -46.6°C | 0% | 18.7hPa | 2.6V | 18:12:15 | 01:56:07 | 00:00:00 | |
| HSKMA3-T | 2026-09-04 18:15:00 | 50.58504 | 11.89099 | 164° | 18km/h | 27273m | 4.5m/s | -46.6°C | 0% | 18.8hPa | 2.5V | 18:12:15 | 01:56:04 | 00:00:00 | |
| DF8AY | 2026-09-04 18:14:54 | 50.58546 | 11.89039 | 121° | 20km/h | 27211m | 4.8m/s | -46.7°C | 0% | 18.9hPa | 2.5V | 18:12:15 | 01:55:52 | 00:00:00 | |
| DL1XH-west | 2026-09-04 18:14:52 | 50.58538 | 11.89062 | 133° | 13km/h | 27232m | 4.6m/s | -46.6°C | 0% | 18.9hPa | 2.6V | 18:12:15 | 01:55:56 | 00:00:00 | |
| HSKMA3-T | 2026-09-04 18:14:50 | 50.58541 | 11.89053 | 115° | 16km/h | 27221m | 5.8m/s | -46.7°C | 0% | 18.9hPa | 2.6V | 18:12:15 | 01:55:54 | 00:00:00 | |
| PETON7-10 | 2026-09-04 18:14:50 | 50.58541 | 11.89053 | 115° | 24km/h | 27221m | 5.7m/s | -46.6°C | 3.1% | 18.9hPa | 2.6V | 00:00:00 | 00:00:00 | 00:00:00 | |
| DM0DOS-11 | 2026-09-04 18:14:47 | 50.58562 | 11.89016 | 140° | 26km/h | 27192m | 4.5m/s | -46.8°C | 3.1% | 19hPa | 2.6V | 08:30:00 | 01:55:48 | 00:00:00 | |
| DL1XH-15 | 2026-09-04 18:14:47 | 50.58571 | 11.88999 | 123° | 31km/h | 27181m | 5.6m/s | -46.9°C | 3.2% | 19hPa | 2.5V | 08:30:00 | 01:55:46 | 00:00:00 | |
| AA1-15 | 2026-09-04 18:14:44 | 50.58562 | 11.89016 | 141° | 26km/h | 27192m | 4.5m/s | -46.8°C | 0% | 19hPa | 2.6V | 18:12:15 | 01:55:48 | 00:00:00 | |
| DL1XH-west | 2026-09-04 18:14:41 | 50.58575 | 11.88988 | 114° | 33km/h | 27176m | 4.6m/s | -46.9°C | 0% | 19hPa | 2.5V | 18:12:15 | 01:55:45 | 00:00:00 | |
| DK5PH-5 | 2026-09-04 18:14:41 | 50.58575 | 11.88988 | 114° | 18km/h | 27176m | 4.6m/s | -46.8°C | 3.1% | 19.0hPa | 2.6V | 00:00:00 | 01:55:45 | 00:00:00 | |
| OE5DXL-15 | 2026-09-04 18:14:40 | 50.58578 | 11.88977 | 106° | 18km/h | 27172m | 3.7m/s | -46.9°C | 3.1% | 19.0hPa | 2.6V | 00:00:00 | 00:00:00 | 08:30:00 | |
| DL1XH1-15 | 2026-09-04 18:14:39 | 50.58584 | 11.88932 | 108° | 16km/h | 27141m | 5.3m/s | -47°C | 3.2% | 19.1hPa | 2.5V | 08:30:00 | 01:55:38 | 00:00:00 | |
| HSKMA3-T | 2026-09-04 18:14:39 | 50.58579 | 11.88966 | 101° | 27km/h | 27167m | 4.8m/s | -46.9°C | 0% | 19hPa | 2.7V | 18:12:15 | 01:55:43 | 00:00:00 | |
| DF8AY | 2026-09-04 18:14:37 | 50.58581 | 11.88949 | 99° | 16km/h | 27157m | 4.9m/s | -46.9°C | 0% | 19.1hPa | 2.6V | 18:12:15 | 01:55:41 | 00:00:00 | |
| DM0DOS-11 | 2026-09-04 18:14:37 | 50.58588 | 11.88918 | 118° | 20km/h | 27132m | 4.2m/s | -47°C | 3.2% | 19.1hPa | 2.6V | 08:30:00 | 01:55:36 | 00:00:00 | |
| AA1-15 | 2026-09-04 18:14:34 | 50.58584 | 11.88932 | 108° | 16km/h | 27141m | 5.3m/s | -47°C | 0% | 19.1hPa | 2.5V | 18:12:15 | 01:55:38 | 00:00:00 | |
| DL1XH-west | 2026-09-04 18:14:31 | 50.58590 | 11.88910 | 125° | 22km/h | 27128m | 5m/s | -47°C | 0% | 19.2hPa | 2.5V | 18:12:15 | 01:55:35 | 00:00:00 | |
| SONCRA | 2026-09-04 18:14:30 | 50.58594 | 11.88904 | 131° | 20km/h | 27122m | 5.9m/s | -47.0°C | 0.7% | 19.2hPa | 2.5V | 00:00:00 | 00:00:00 | 00:00:00 | |
| DL1XH1-15 | 2026-09-04 18:14:29 | 50.58606 | 11.88862 | 94° | 20km/h | 27091m | 5.2m/s | -47.2°C | 3.2% | 19.3hPa | 2.5V | 08:30:00 | 01:55:28 | 00:00:00 | |
| HSKMA3-T | 2026-09-04 18:14:28 | 50.58600 | 11.88892 | 127° | 18km/h | 27112m | 4.4m/s | -47°C | 0% | 19.2hPa | 2.6V | 18:12:15 | 01:55:32 | 00:00:00 | |
| DF8AY | 2026-09-04 18:14:26 | 50.58604 | 11.88878 | 104° | 22km/h | 27101m | 5.6m/s | -47.1°C | 0% | 19.3hPa | 2.6V | 18:12:15 | 01:55:30 | 00:00:00 | |
| DO8TBO-1 | 2026-09-04 18:14:26 | 50.58604 | 11.88878 | 104° | 13km/h | 27102m | 5.5m/s | -47.1°C | 3.2% | 19.2hPa | 2.5V | 00:00:00 | 01:55:30 | 00:00:00 | |
| DJ2DS-15 | 2026-09-04 18:14:25 | 50.58605 | 11.88870 | 97° | 20km/h | 27096m | 4.5m/s | -47.2°C | 0.7% | 19.3hPa | 2.5V | 00:00:00 | 00:00:00 | 00:00:00 | |
| DM0DOS-11 | 2026-09-04 18:14:24 | 50.58612 | 11.88833 | 123° | 16km/h | 27066m | 4.5m/s | -47.6°C | 3.3% | 19.3hPa | 2.5V | 08:30:00 | 01:55:23 | 00:00:00 | |
| AA1-15 | 2026-09-04 18:14:23 | 50.58606 | 11.88855 | 97° | 16km/h | 27086m | 5.7m/s | -47.3°C | 0% | 19.3hPa | 2.5V | 18:12:15 | 01:55:27 | 00:00:00 | |
| DL1XH-west | 2026-09-04 18:14:21 | 50.58608 | 11.88844 | 113° | 15km/h | 27076m | 4.7m/s | -47.4°C | 0% | 19.3hPa | 2.6V | 18:12:15 | 01:55:25 | 00:00:00 | |
| HSKMA3-T | 2026-09-04 18:14:18 | 50.58614 | 11.88828 | 131° | 16km/h | 27061m | 4.5m/s | -47.7°C | 0% | 19.4hPa | 2.5V | 18:12:15 | 01:55:22 | 00:00:00 | |
| DL1XH-15 | 2026-09-04 18:14:17 | 50.58624 | 11.88798 | 86° | 20km/h | 27031m | 4.8m/s | -47.7°C | 3.2% | 19.4hPa | 2.5V | 08:30:00 | 01:55:16 | 00:00:00 | |
| DF8AY | 2026-09-04 18:14:15 | 50.58622 | 11.88816 | 127° | 11km/h | 27046m | 4m/s | -47.7°C | 0% | 19.4hPa | 2.6V | 18:12:15 | 01:55:19 | 00:00:00 | |
| AA1-15 | 2026-09-04 18:14:13 | 50.58624 | 11.88806 | 95° | 16km/h | 27037m | 5.7m/s | -47.7°C | 0% | 19.4hPa | 2.5V | 18:12:15 | 01:55:17 | 00:00:00 | |
| DF8AY | 2026-09-04 18:14:10 | 50.58619 | 11.88772 | 322° | 4km/h | 27000m | 5.4m/s | -47.9°C | 0% | 19.6hPa | 2.6V | 18:12:15 | 01:55:09 | 00:00:00 | |
| DL1XH-west | 2026-09-04 18:14:10 | 50.58623 | 11.88782 | 80° | 18km/h | 27024m | 4.1m/s | -47.8°C | 0% | 19.5hPa | 2.7V | 18:12:15 | 01:55:14 | 00:00:00 | |
| OE5DXL-15 | 2026-09-04 18:14:10 | 50.58623 | 11.88782 | 80° | 7km/h | 27024m | 4.0m/s | -47.7°C | 3.2% | 19.4hPa | 2.7V | 00:00:00 | 00:00:00 | 00:00:00 | |
| DL1XH1-15 | 2026-09-04 18:14:09 | 50.58618 | 11.88772 | 8° | 2km/h | 26994m | 5m/s | -48°C | 3.3% | 19.6hPa | 2.7V | 08:30:00 | 01:55:08 | 00:00:00 | |
| HSKMA3-T | 2026-09-04 18:14:07 | 50.58620 | 11.88771 | 1° | 4km/h | 27009m | 4.4m/s | -47.9°C | 0% | 19.5hPa | 2.5V | 18:12:15 | 01:55:11 | 00:00:00 | |
| DL1XH-15 | 2026-09-04 18:14:07 | 50.58617 | 11.88770 | 98° | 5km/h | 26985m | 4.5m/s | -48.1°C | 3.3% | 19.6hPa | 2.5V | 08:30:00 | 01:55:06 | 00:00:00 | |
| NBG1-10 | 2026-09-04 18:14:06 | 50.58619 | 11.88771 | 317° | 7km/h | 27005m | 4.2m/s | -47.8°C | 3.2% | 19.5hPa | 2.6V | 00:00:00 | 01:55:10 | 00:00:00 | |
| PETON7-10 | 2026-09-04 18:14:05 | 50.58619 | 11.88772 | 322° | 7km/h | 27000m | 5.3m/s | -47.9°C | 3.3% | 19.5hPa | 2.6V | 00:00:00 | 00:00:00 | 00:00:00 | |
| DM0DOS-11 | 2026-09-04 18:14:04 | 50.58621 | 11.88764 | 148° | 9km/h | 26969m | 4.8m/s | -48.1°C | 3.3% | 19.6hPa | 2.6V | 08:30:00 | 01:55:03 | 00:00:00 | |
| AA1-15 | 2026-09-04 18:14:03 | 50.58617 | 11.88772 | 64° | 4km/h | 26990m | 4.6m/s | -48°C | 0% | 19.6hPa | 2.6V | 18:12:15 | 01:55:07 | 00:00:00 | |
| DJ2DS-15 | 2026-09-04 18:14:03 | 50.58617 | 11.88771 | 65° | 9km/h | 26990m | 4.5m/s | -48.0°C | 3.3% | 19.6hPa | 2.5V | 00:00:00 | 01:55:07 | 00:00:00 | |
| DO3MHA-11 | 2026-09-04 18:14:02 | 50.58617 | 11.88770 | 99° | 9km/h | 26985m | 4.5m/s | -48.0°C | 3.3% | 19.5hPa | 2.5V | 00:00:00 | 01:55:06 | 00:00:00 | |
| ANDY1245 | 2026-09-04 18:14:01 | 50.58617 | 11.88770 | 99° | 5km/h | 26985m | 4.6m/s | -48.1°C | 0.8% | 19.6hPa | 2.5V | 00:00:00 | 00:00:00 | 00:00:00 | |
| DL1CLM-18 | 2026-09-04 18:14:00 | 50.58618 | 11.88768 | 125° | 7km/h | 26981m | 5.3m/s | 0°C | 0% | 0hPa | 2.5V | 00:00:00 | 00:00:00 | 00:00:00 | |
| DL1XH1-15 | 2026-09-04 18:13:59 | 50.58627 | 11.88746 | 109° | 9km/h | 26945m | 4.2m/s | -48.1°C | 3.3% | 19.7hPa | 2.5V | 08:30:00 | 01:54:58 | 00:00:00 | |
| DL1XH-west | 2026-09-04 18:13:59 | 50.58621 | 11.88764 | 149° | 9km/h | 26969m | 4.8m/s | -48.1°C | 0% | 19.6hPa | 2.6V | 18:12:15 | 01:55:03 | 00:00:00 | |
| HSKMA3-T | 2026-09-04 18:13:56 | 50.58626 | 11.88755 | 107° | 13km/h | 26954m | 5.3m/s | -48.1°C | 0% | 19.7hPa | 2.6V | 18:12:15 | 01:55:00 | 00:00:00 | |
| DF8AY | 2026-09-04 18:13:54 | 50.58627 | 11.88746 | 110° | 9km/h | 26946m | 4.2m/s | -48.1°C | 0% | 19.7hPa | 2.5V | 18:12:15 | 01:54:58 | 00:00:00 | |
| SONDE2-11 | 2026-09-04 18:13:54 | 50.58628 | 11.88744 | 138° | 7km/h | 26941m | 5.5m/s | -48.2°C | 0.8% | 19.7hPa | 2.6V | 00:00:00 | 00:00:00 | 00:00:00 | |
| DM0DOS-11 | 2026-09-04 18:13:53 | 50.58641 | 11.88747 | 174° | 9km/h | 26916m | 5.3m/s | -48.2°C | 3.3% | 19.8hPa | 2.6V | 08:30:00 | 01:54:52 | 00:00:00 | |
| AA1-15 | 2026-09-04 18:13:53 | 50.58628 | 11.88744 | 139° | 7km/h | 26941m | 5.5m/s | -48.2°C | 0.1% | 19.7hPa | 2.6V | 18:12:15 | 01:54:57 | 00:00:00 | |
| S3001 | 2026-09-04 18:13:53 | 50.58630 | 11.88743 | 180° | 7km/h | 26935m | 5.2m/s | -48.2°C | 0.8% | 19.7hPa | 2.5V | 00:00:00 | 00:00:00 | 00:00:00 | |
| DL1ZP-14 | 2026-09-04 18:13:51 | 50.58636 | 11.88745 | 199° | 13km/h | 26926m | 4.4m/s | -48.2°C | 0.7% | 19.8hPa | 2.5V | 00:00:00 | 00:00:00 | 00:00:00 | |
| PETON7-10 | 2026-09-04 18:13:50 | 50.58636 | 11.88745 | 200° | 7km/h | 26926m | 4.4m/s | -48.1°C | 3.3% | 19.7hPa | 2.6V | 00:00:00 | 01:54:54 | 00:00:00 | |
| DL1XH1-15 | 2026-09-04 18:13:49 | 50.58648 | 11.88741 | 158° | 5km/h | 26896m | 5.6m/s | -48.3°C | 3.3% | 19.9hPa | 2.6V | 08:30:00 | 01:54:48 | 00:00:00 | |
| DL1XH-west | 2026-09-04 18:13:48 | 50.58641 | 11.88747 | 175° | 9km/h | 26916m | 5.4m/s | -48.2°C | 0% | 19.8hPa | 2.6V | 18:12:15 | 01:54:52 | 00:00:00 | |
| DL1XH-15 | 2026-09-04 18:13:47 | 50.58650 | 11.88740 | 173° | 4km/h | 26885m | 5.2m/s | -48.3°C | 3.3% | 19.9hPa | 2.5V | 08:30:00 | 01:54:46 | 00:00:00 | |
| HSKMA3-T | 2026-09-04 18:13:46 | 50.58645 | 11.88744 | 138° | 7km/h | 26906m | 4.2m/s | -48.3°C | 0% | 19.8hPa | 2.7V | 18:12:15 | 01:54:50 | 00:00:00 | |
| AM1SDL-15 | 2026-09-04 18:13:45 | 50.58646 | 11.88742 | 141° | 7km/h | 26902m | 5.3m/s | -48.2°C | 3.3% | 19.8hPa | 2.7V | 00:00:00 | 01:54:49 | 00:00:00 | |
| DL3JIN-12 | 2026-09-04 18:13:44 | 50.58646 | 11.88742 | 142° | 7km/h | 26902m | 5.3m/s | -48.3°C | 0.8% | 19.9hPa | 2.5V | 00:00:00 | 00:00:00 | 00:00:00 | |
| DM0DOS-11 | 2026-09-04 18:13:43 | 50.58653 | 11.88741 | 215° | 9km/h | 26865m | 5.9m/s | -48.5°C | 3.4% | 19.9hPa | 2.5V | 08:30:00 | 01:54:42 | 00:00:00 | |
| DF8AY | 2026-09-04 18:13:43 | 50.58649 | 11.88740 | 178° | 4km/h | 26891m | 5.1m/s | -48.3°C | 0% | 19.9hPa | 2.5V | 18:12:15 | 01:54:47 | 00:00:00 | |
| AA1-15 | 2026-09-04 18:13:42 | 50.58650 | 11.88740 | 173° | 4km/h | 26885m | 5.2m/s | -48.3°C | 0.1% | 19.9hPa | 2.5V | 18:12:15 | 01:54:46 | 00:00:00 | |
| DL6DJ-15 | 2026-09-04 18:13:42 | 50.58651 | 11.88740 | 149° | 2km/h | 26880m | 5.7m/s | -48.3°C | 0.7% | 19.9hPa | 2.6V | 00:00:00 | 00:00:00 | 00:00:00 | |
| DK5PH-5 | 2026-09-04 18:13:41 | 50.58651 | 11.88740 | 150° | 13km/h | 26880m | 5.7m/s | -48.3°C | 3.3% | 19.9hPa | 2.6V | 00:00:00 | 01:54:45 | 00:00:00 | |
| OE5DXL-15 | 2026-09-04 18:13:40 | 50.58651 | 11.88739 | 177° | 13km/h | 26875m | 4.3m/s | -48.3°C | 3.3% | 19.9hPa | 2.7V | 00:00:00 | 00:00:00 | 00:00:00 | |
| DL1XH1-15 | 2026-09-04 18:13:39 | 50.58665 | 11.88749 | 181° | 13km/h | 26846m | 5.7m/s | -48.5°C | 3.4% | 20hPa | 2.7V | 08:30:00 | 01:54:38 | 00:00:00 | |
| OE5FHM-15 | 2026-09-04 18:13:39 | 50.58652 | 11.88740 | 207° | 13km/h | 26871m | 4.5m/s | -48.4°C | 3.4% | 19.9hPa | 2.6V | 00:00:00 | 01:54:43 | 08:30:00 | |
| KRY50SP | 2026-09-04 18:13:38 | 50.58652 | 11.88740 | 207° | 5km/h | 26871m | 4.6m/s | -48.5°C | 0.8% | 19.9hPa | 2.6V | 00:00:00 | 00:00:00 | 00:00:00 | |
| DL1XH-15 | 2026-09-04 18:13:37 | 50.58671 | 11.88747 | 158° | 11km/h | 26836m | 3.9m/s | -48.6°C | 3.4% | 20hPa | 2.6V | 08:30:00 | 01:54:36 | 00:00:00 | |
| DL1XH-west | 2026-09-04 18:13:37 | 50.58655 | 11.88744 | 215° | 13km/h | 26860m | 4.7m/s | -48.5°C | 0.1% | 20hPa | 2.5V | 18:12:15 | 01:54:41 | 00:00:00 | |
| HSKMA3-T | 2026-09-04 18:13:36 | 50.58658 | 11.88746 | 207° | 15km/h | 26856m | 4.1m/s | -48.5°C | 0.2% | 20hPa | 2.5V | 18:12:15 | 01:54:40 | 00:00:00 | |
| DF2AP-13 | 2026-09-04 18:13:35 | 50.58662 | 11.88748 | 196° | 11km/h | 26851m | 4.9m/s | -48.5°C | 3.4% | 20.0hPa | 2.6V | 00:00:00 | 01:54:39 | 08:30:00 | |
| DB0ND-19 | 2026-09-04 18:13:34 | 50.58665 | 11.88749 | 181° | 13km/h | 26846m | 5.7m/s | -48.6°C | 0.8% | 20.0hPa | 2.7V | 00:00:00 | 00:00:00 | 00:00:00 | |
| DM0DOS-11 | 2026-09-04 18:13:33 | 50.58680 | 11.88753 | 242° | 15km/h | 26816m | 4.9m/s | -48.6°C | 3.4% | 20.1hPa | 2.7V | 08:30:00 | 01:54:32 | 00:00:00 | |
| DF8AY | 2026-09-04 18:13:32 | 50.58671 | 11.88747 | 159° | 11km/h | 26836m | 3.9m/s | -48.6°C | 0.1% | 20.1hPa | 2.6V | 18:12:15 | 01:54:36 | 00:00:00 | |
| AA1-15 | 2026-09-04 18:13:31 | 50.58674 | 11.88746 | 172° | 11km/h | 26832m | 4.4m/s | -48.6°C | 0.1% | 20.1hPa | 2.5V | 18:12:15 | 01:54:35 | 00:00:00 | |
| ANDY1245 | 2026-09-04 18:13:29 | 50.58676 | 11.88746 | 197° | 9km/h | 26827m | 5.9m/s | -48.6°C | 0.8% | 20.1hPa | 2.7V | 00:00:00 | 00:00:00 | 00:00:00 | |
| SONCRA | 2026-09-04 18:13:28 | 50.58680 | 11.88753 | 242° | 13km/h | 26816m | 4.9m/s | -48.6°C | 0.8% | 20.1hPa | 2.7V | 00:00:00 | 00:00:00 | 00:00:00 | |
| DL1XH-15 | 2026-09-04 18:13:27 | 50.58684 | 11.88782 | 248° | 13km/h | 26786m | 5.5m/s | -48.6°C | 3.5% | 20.2hPa | 2.7V | 08:30:00 | 01:54:26 | 00:00:00 | |
| DL1XH-west | 2026-09-04 18:13:26 | 50.58682 | 11.88763 | 262° | 13km/h | 26806m | 5.8m/s | -48.6°C | 0.2% | 20.1hPa | 2.5V | 18:12:15 | 01:54:30 | 00:00:00 | |
| DF8AY | 2026-09-04 18:13:26 | 50.58685 | 11.88786 | 230° | 13km/h | 26781m | 4.6m/s | -48.6°C | 0.1% | 20.2hPa | 2.6V | 18:12:15 | 01:54:25 | 00:00:00 | |
| HSKMA3-T | 2026-09-04 18:13:25 | 50.58683 | 11.88768 | 270° | 11km/h | 26800m | 4.8m/s | -48.7°C | 0.1% | 20.2hPa | 2.5V | 18:12:15 | 01:54:29 | 00:00:00 | |
| SP3BTT-10 | 2026-09-04 18:13:24 | 50.58683 | 11.88773 | 270° | 13km/h | 26796m | 3.9m/s | -48.6°C | 3.5% | 20.1hPa | 2.5V | 00:00:00 | 00:00:00 | 00:00:00 | |
| DM0DOS-11 | 2026-09-04 18:13:23 | 50.58694 | 11.88789 | 160° | 16km/h | 26765m | 5.5m/s | -48.6°C | 3.5% | 20.3hPa | 2.5V | 08:30:00 | 01:54:22 | 00:00:00 | |
| AA1-15 | 2026-09-04 18:13:20 | 50.58688 | 11.88789 | 207° | 13km/h | 26777m | 4.6m/s | -48.6°C | 0.1% | 20.2hPa | 2.6V | 18:12:15 | 01:54:24 | 00:00:00 | |
| PETON7-10 | 2026-09-04 18:13:20 | 50.58688 | 11.88788 | 208° | 11km/h | 26777m | 4.5m/s | -48.6°C | 3.4% | 20.2hPa | 2.6V | 00:00:00 | 00:00:00 | 00:00:00 | |
| DM7RM-13 | 2026-09-04 18:13:19 | 50.58688 | 11.88789 | 208° | 13km/h | 26777m | 4.6m/s | -48.6°C | 0.8% | 20.2hPa | 2.6V | 00:00:00 | 00:00:00 | 00:00:00 | |
| DL1XH-15 | 2026-09-04 18:13:17 | 50.58717 | 11.88784 | 199° | 9km/h | 26735m | 6.2m/s | -48.5°C | 3.4% | 20.4hPa | 2.6V | 08:30:00 | 01:54:16 | 00:00:00 | |
| DL1XH-west | 2026-09-04 18:13:16 | 50.58702 | 11.88784 | 164° | 18km/h | 26756m | 5.5m/s | -48.6°C | 0.1% | 20.3hPa | 2.6V | 18:12:15 | 01:54:20 | 00:00:00 | |
| DF8AY | 2026-09-04 18:13:15 | 50.58719 | 11.88787 | 262° | 4km/h | 26724m | 4.7m/s | -48.5°C | 0% | 20.4hPa | 2.7V | 18:12:15 | 01:54:14 | 00:00:00 | |
| HSKMA3-T | 2026-09-04 18:13:15 | 50.58707 | 11.88783 | 174° | 18km/h | 26750m | 5.3m/s | -48.6°C | 0.1% | 20.3hPa | 2.6V | 18:12:15 | 01:54:19 | 00:00:00 | |
| OE5DRO-10 | 2026-09-04 18:13:15 | 50.58707 | 11.88782 | 175° | 11km/h | 26750m | 5.3m/s | -48.6°C | 3.4% | 20.3hPa | 2.6V | 00:00:00 | 00:00:00 | 00:00:00 | |
| DM0DOS-11 | 2026-09-04 18:13:13 | 50.58719 | 11.88791 | 262° | 7km/h | 26714m | 6.1m/s | -48.5°C | 3.3% | 20.4hPa | 2.6V | 08:30:00 | 01:54:12 | 00:00:00 | |
| AA1-15 | 2026-09-04 18:13:09 | 50.58719 | 11.88788 | 271° | 5km/h | 26719m | 4.7m/s | -48.5°C | 0% | 20.4hPa | 2.6V | 18:12:15 | 01:54:13 | 00:00:00 | |
| OE5FHM-15 | 2026-09-04 18:13:09 | 50.58719 | 11.88788 | 272° | 11km/h | 26719m | 4.7m/s | -48.4°C | 3.3% | 20.4hPa | 2.5V | 00:00:00 | 01:54:13 | 00:00:00 | |
| DH8WE-5 | 2026-09-04 18:13:08 | 50.58719 | 11.88788 | 272° | 5km/h | 26719m | 4.7m/s | -48.5°C | 0.8% | 20.4hPa | 2.5V | 00:00:00 | 00:00:00 | 00:00:00 | |
| DL1XH-15 | 2026-09-04 18:13:07 | 50.58727 | 11.88784 | 122° | 18km/h | 26682m | 4.2m/s | -48.6°C | 3.3% | 20.5hPa | 2.5V | 08:30:00 | 01:54:06 | 00:00:00 | |
| DL1XH-west | 2026-09-04 18:13:06 | 50.58721 | 11.88796 | 220° | 5km/h | 26704m | 4.7m/s | -48.6°C | 0% | 20.5hPa | 2.5V | 18:12:15 | 01:54:10 | 00:00:00 | |
| HSKMA3-T | 2026-09-04 18:13:05 | 50.58722 | 11.88796 | 166° | 5km/h | 26698m | 6m/s | -48.6°C | 0% | 20.5hPa | 2.5V | 18:12:15 | 01:54:09 | 00:00:00 | |
| PETON7-10 | 2026-09-04 18:13:05 | 50.58722 | 11.88796 | 166° | 11km/h | 26699m | 5.9m/s | -48.5°C | 3.3% | 20.4hPa | 2.5V | 00:00:00 | 01:54:09 | 00:00:00 | |
| DJ2DS-15 | 2026-09-04 18:13:03 | 50.58725 | 11.88790 | 120° | 13km/h | 26687m | 4.7m/s | -48.6°C | 3.4% | 20.5hPa | 2.5V | 00:00:00 | 01:54:07 | 00:00:00 | |
| DO3MHA-11 | 2026-09-04 18:13:02 | 50.58727 | 11.88784 | 123° | 13km/h | 26683m | 4.1m/s | -48.5°C | 3.3% | 20.5hPa | 2.5V | 00:00:00 | 01:54:06 | 00:00:00 | |
| DM7RM-13 | 2026-09-04 18:13:00 | 50.58733 | 11.88773 | 144° | 18km/h | 26673m | 5.7m/s | -48.6°C | 0.8% | 20.6hPa | 2.5V | 00:00:00 | 00:00:00 | 00:00:00 | |
| DL1XH1-15 | 2026-09-04 18:12:59 | 50.58746 | 11.88758 | 72° | 9km/h | 26642m | 4.6m/s | -48.8°C | 3.4% | 20.6hPa | 2.5V | 08:30:00 | 01:53:58 | 00:00:00 | |
| DF8AY | 2026-09-04 18:12:59 | 50.58737 | 11.88770 | 156° | 16km/h | 26667m | 4.8m/s | -48.6°C | 0% | 20.6hPa | 2.6V | 18:12:15 | 01:54:03 | 00:00:00 | |
| AA1-15 | 2026-09-04 18:12:58 | 50.58741 | 11.88768 | 163° | 15km/h | 26663m | 4.1m/s | -48.6°C | 0% | 20.6hPa | 2.7V | 18:12:15 | 01:54:02 | 00:00:00 | |
| DM0DOS-11 | 2026-09-04 18:12:57 | 50.58745 | 11.88764 | 136° | 7km/h | 26653m | 6m/s | -48.7°C | 3.3% | 20.6hPa | 2.6V | 08:30:00 | 01:54:00 | 00:00:00 | |
| DL1XH-west | 2026-09-04 18:12:56 | 50.58745 | 11.88764 | 136° | 7km/h | 26653m | 6m/s | -48.7°C | 0% | 20.6hPa | 2.6V | 18:12:15 | 01:54:00 | 00:00:00 | |
| HSKMA3-T | 2026-09-04 18:12:54 | 50.58746 | 11.88758 | 73° | 9km/h | 26642m | 4.6m/s | -48.8°C | 0.1% | 20.6hPa | 2.5V | 18:12:15 | 01:53:58 | 00:00:00 | |
| DF8AY | 2026-09-04 18:12:49 | 50.58747 | 11.88741 | 125° | 13km/h | 26616m | 5.6m/s | -49.1°C | 0.1% | 20.7hPa | 2.5V | 18:12:15 | 01:53:53 | 00:00:00 | |
| DL1XH1-15 | 2026-09-04 18:12:49 | 50.58760 | 11.88721 | 159° | 13km/h | 26590m | 5m/s | -49.4°C | 3.5% | 20.8hPa | 2.6V | 08:30:00 | 01:53:48 | 00:00:00 | |
| AA1-15 | 2026-09-04 18:12:48 | 50.58749 | 11.88736 | 124° | 16km/h | 26610m | 5.5m/s | -49.1°C | 0.1% | 20.8hPa | 2.5V | 18:12:15 | 01:53:52 | 00:00:00 | |
| DM0DOS-11 | 2026-09-04 18:12:47 | 50.58754 | 11.88727 | 136° | 15km/h | 26601m | 4.8m/s | -49.2°C | 3.5% | 20.8hPa | 2.7V | 08:30:00 | 01:53:50 | 00:00:00 | |
| DL1XH-15 | 2026-09-04 18:12:47 | 50.58766 | 11.88716 | 146° | 13km/h | 26579m | 5.7m/s | -49.5°C | 3.5% | 20.8hPa | 2.5V | 08:30:00 | 01:53:46 | 00:00:00 | |
| DL1XH-west | 2026-09-04 18:12:45 | 50.58757 | 11.88723 | 148° | 15km/h | 26595m | 6m/s | -49.3°C | 0.1% | 20.8hPa | 2.7V | 18:12:15 | 01:53:49 | 00:00:00 | |
| HSKMA3-T | 2026-09-04 18:12:43 | 50.58763 | 11.88719 | 158° | 13km/h | 26585m | 5m/s | -49.4°C | 0.2% | 20.8hPa | 2.5V | 18:12:15 | 01:53:47 | 00:00:00 | |
| DJ2DS-15 | 2026-09-04 18:12:43 | 50.58763 | 11.88719 | 158° | 16km/h | 26585m | 4.9m/s | -49.4°C | 3.5% | 20.8hPa | 2.7V | 00:00:00 | 01:53:47 | 00:00:00 | |
| DO3MHA-11 | 2026-09-04 18:12:42 | 50.58766 | 11.88716 | 147° | 15km/h | 26580m | 5.7m/s | -49.4°C | 3.5% | 20.8hPa | 2.7V | 00:00:00 | 01:53:46 | 00:00:00 | |
| DK5PH-5 | 2026-09-04 18:12:41 | 50.58768 | 11.88713 | 131° | 16km/h | 26574m | 5.7m/s | -49.4°C | 3.5% | 20.8hPa | 2.7V | 00:00:00 | 01:53:45 | 00:00:00 | |
| OE5DXL-15 | 2026-09-04 18:12:40 | 50.58770 | 11.88708 | 121° | 16km/h | 26569m | 4.7m/s | -49.4°C | 3.5% | 20.8hPa | 2.7V | 00:00:00 | 00:00:00 | 00:00:00 | |
| DL1XH1-15 | 2026-09-04 18:12:39 | 50.58784 | 11.88682 | 125° | 18km/h | 26537m | 5.7m/s | -49.8°C | 3.5% | 21hPa | 2.7V | 08:30:00 | 01:53:38 | 00:00:00 | |
| DF8AY | 2026-09-04 18:12:38 | 50.58774 | 11.88699 | 126° | 13km/h | 26558m | 6m/s | -49.6°C | 0.2% | 20.9hPa | 2.5V | 18:12:15 | 01:53:42 | 00:00:00 | |
| AA1-15 | 2026-09-04 18:12:37 | 50.58776 | 11.88695 | 135° | 13km/h | 26553m | 4.8m/s | -49.6°C | 0.1% | 20.9hPa | 2.5V | 18:12:15 | 01:53:41 | 00:00:00 | |
| DL1XH-west | 2026-09-04 18:12:35 | 50.58781 | 11.88687 | 131° | 15km/h | 26543m | 6m/s | -49.8°C | 0.2% | 21hPa | 2.6V | 18:12:15 | 01:53:39 | 00:00:00 | |
| HSKMA3-T | 2026-09-04 18:12:32 | 50.58789 | 11.88670 | 124° | 16km/h | 26527m | 5.1m/s | -49.9°C | 0.2% | 21hPa | 2.6V | 18:12:15 | 01:53:36 | 00:00:00 | |
| DO3MHA-11 | 2026-09-04 18:12:32 | 50.58788 | 11.88670 | 124° | 16km/h | 26527m | 5.1m/s | -49.9°C | 3.6% | 21.0hPa | 2.6V | 00:00:00 | 01:53:36 | 00:00:00 | |
| D01LWL | 2026-09-04 18:12:31 | 50.58791 | 11.88665 | 129° | 15km/h | 26521m | 6.1m/s | -49.9°C | 0.8% | 21.0hPa | 2.6V | 00:00:00 | 00:00:00 | 00:00:00 | |
| DL1XH1-15 | 2026-09-04 18:12:29 | 50.58807 | 11.88626 | 112° | 16km/h | 26484m | 6.1m/s | -50°C | 3.6% | 21.2hPa | 2.6V | 08:30:00 | 01:53:28 | 00:00:00 | |
| DF8AY | 2026-09-04 18:12:28 | 50.58799 | 11.88652 | 130° | 16km/h | 26506m | 5.6m/s | -50°C | 0.2% | 21.1hPa | 2.7V | 18:12:15 | 01:53:32 | 00:00:00 | |
| DL1XH-15 | 2026-09-04 18:12:27 | 50.58810 | 11.88616 | 113° | 13km/h | 26474m | 4.7m/s | -50.1°C | 3.6% | 21.2hPa | 2.7V | 08:30:00 | 01:53:26 | 00:00:00 | |
| AA1-15 | 2026-09-04 18:12:26 | 50.58804 | 11.88640 | 116° | 20km/h | 26495m | 4.9m/s | -50°C | 0.2% | 21.1hPa | 2.5V | 18:12:15 | 01:53:30 | 00:00:00 | |
| DL1XH-west | 2026-09-04 18:12:25 | 50.58806 | 11.88633 | 113° | 20km/h | 26490m | 4.7m/s | -50°C | 0.2% | 21.1hPa | 2.5V | 18:12:15 | 01:53:29 | 00:00:00 | |
| HARRO8 | 2026-09-04 18:12:24 | 50.58808 | 11.88626 | 112° | 16km/h | 26485m | 6.1m/s | -50.1°C | 0.9% | 21.2hPa | 2.6V | 00:00:00 | 00:00:00 | 00:00:00 | |
| DJ2DS-15 | 2026-09-04 18:12:23 | 50.58809 | 11.88621 | 114° | 16km/h | 26479m | 5.4m/s | -50.0°C | 3.6% | 21.2hPa | 2.6V | 00:00:00 | 01:53:27 | 00:00:00 | |
| DM0DOS-11 | 2026-09-04 18:12:22 | 50.58819 | 11.88588 | 127° | 15km/h | 26447m | 6.2m/s | -50.2°C | 3.7% | 21.3hPa | 2.6V | 08:30:00 | 01:53:21 | 00:00:00 | |
| HSKMA3-T | 2026-09-04 18:12:22 | 50.58810 | 11.88616 | 113° | 13km/h | 26474m | 4.7m/s | -50.1°C | 0.2% | 21.2hPa | 2.7V | 18:12:15 | 01:53:26 | 00:00:00 | |
| DO3MHA-11 | 2026-09-04 18:12:22 | 50.58810 | 11.88616 | 114° | 15km/h | 26474m | 4.7m/s | -50.0°C | 3.6% | 21.1hPa | 2.7V | 00:00:00 | 01:53:26 | 08:30:00 | |
| SONDE2-11 | 2026-09-04 18:12:21 | 50.58813 | 11.88605 | 112° | 16km/h | 26463m | 5.9m/s | -50.2°C | 0.8% | 21.2hPa | 2.5V | 00:00:00 | 00:00:00 | 00:00:00 | |
| PETON7-10 | 2026-09-04 18:12:20 | 50.58813 | 11.88605 | 113° | 15km/h | 26463m | 5.9m/s | -50.1°C | 0% | 21.2hPa | 2.5V | 00:00:00 | 01:53:24 | 00:00:00 | |
| DL1XH1-15 | 2026-09-04 18:12:19 | 50.58826 | 11.88575 | 127° | 15km/h | 26431m | 6.2m/s | -50.3°C | 3.7% | 21.3hPa | 2.5V | 08:30:00 | 01:53:18 | 00:00:00 | |
| DF8AY | 2026-09-04 18:12:17 | 50.58819 | 11.88588 | 128° | 15km/h | 26447m | 6.2m/s | -50.3°C | 0.3% | 21.3hPa | 2.6V | 18:12:15 | 01:53:21 | 00:00:00 | |
| AA1-15 | 2026-09-04 18:12:15 | 50.58824 | 11.88579 | 134° | 15km/h | 26437m | 4.7m/s | -50.3°C | 0.3% | 21.3hPa | 2.6V | 18:12:15 | 01:53:19 | 00:00:00 | |
| DL1XH-15 | 2026-09-04 18:12:14 | 50.58830 | 11.88564 | 108° | 16km/h | 26419m | 5.3m/s | -50.2°C | 3.7% | 21.4hPa | 2.5V | 08:30:00 | 01:53:16 | 00:00:00 | |
| DL1XH-west | 2026-09-04 18:12:14 | 50.58827 | 11.88575 | 128° | 15km/h | 26431m | 6.2m/s | -50.3°C | 0.3% | 21.4hPa | 2.5V | 18:12:15 | 01:53:18 | 00:00:00 | |
| HSKMA3-T | 2026-09-04 18:12:11 | 50.58831 | 11.88558 | 102° | 15km/h | 26414m | 6m/s | -50.2°C | 0.3% | 21.4hPa | 2.6V | 18:12:15 | 01:53:15 | 00:00:00 | |
| DF8AY | 2026-09-04 18:12:11 | 50.58830 | 11.88529 | 86° | 20km/h | 26387m | 5.1m/s | -50.2°C | 0.2% | 21.5hPa | 2.5V | 18:12:15 | 01:53:10 | 00:00:00 | |
| DK5PH-5 | 2026-09-04 18:12:11 | 50.58831 | 11.88558 | 103° | 16km/h | 26414m | 6.0m/s | -50.2°C | 3.7% | 21.3hPa | 2.6V | 00:00:00 | 01:53:15 | 00:00:00 | |
| OE5DXL-15 | 2026-09-04 18:12:10 | 50.58832 | 11.88553 | 90° | 16km/h | 26408m | 5.4m/s | -50.2°C | 3.7% | 21.4hPa | 2.7V | 00:00:00 | 00:00:00 | 00:00:00 | |
| DL1XH1-15 | 2026-09-04 18:12:09 | 50.58830 | 11.88513 | 99° | 18km/h | 26377m | 5.9m/s | -50.2°C | 3.7% | 21.5hPa | 2.7V | 08:30:00 | 01:53:08 | 00:00:00 | |
| OE5FHM-15 | 2026-09-04 18:12:09 | 50.58831 | 11.88548 | 81° | 16km/h | 26404m | 4.2m/s | -50.2°C | 3.7% | 21.4hPa | 2.6V | 00:00:00 | 01:53:13 | 00:00:00 | |
| DO8TBO-1 | 2026-09-04 18:12:08 | 50.58831 | 11.88543 | 80° | 18km/h | 26399m | 5.0m/s | -50.2°C | 3.7% | 21.4hPa | 2.6V | 00:00:00 | 01:53:12 | 00:00:00 | |
| S52SK | 2026-09-04 18:12:07 | 50.58831 | 11.88543 | 81° | 15km/h | 26399m | 5.1m/s | -50.2°C | 0.8% | 21.5hPa | 2.5V | 00:00:00 | 00:00:00 | 00:00:00 | |
| DH8WE-5 | 2026-09-04 18:12:06 | 50.58830 | 11.88536 | 82° | 18km/h | 26393m | 6.4m/s | -50.2°C | 0.8% | 21.5hPa | 2.5V | 00:00:00 | 00:00:00 | 00:00:00 | |
| DF2AP-13 | 2026-09-04 18:12:05 | 50.58830 | 11.88520 | 92° | 16km/h | 26383m | 4.9m/s | -50.2°C | 3.7% | 21.5hPa | 2.5V | 00:00:00 | 01:53:09 | 00:00:00 | |
| DL1XH-15 | 2026-09-04 18:12:04 | 50.58833 | 11.88503 | 128° | 11km/h | 26366m | 4.7m/s | -50.2°C | 3.7% | 21.6hPa | 2.5V | 08:30:00 | 01:53:06 | 00:00:00 | |
| AA1-15 | 2026-09-04 18:12:04 | 50.58830 | 11.88513 | 99° | 18km/h | 26377m | 5.9m/s | -50.2°C | 0.2% | 21.5hPa | 2.7V | 18:12:15 | 01:53:08 | 00:00:00 | |
| DL1XH-west | 2026-09-04 18:12:03 | 50.58831 | 11.88507 | 113° | 15km/h | 26371m | 5.8m/s | -50.2°C | 0.2% | 21.5hPa | 2.6V | 18:12:15 | 01:53:07 | 00:00:00 | |
| HSKMA3-T | 2026-09-04 18:12:01 | 50.58835 | 11.88499 | 133° | 13km/h | 26361m | 4.8m/s | -50.3°C | 0.2% | 21.6hPa | 2.5V | 18:12:15 | 01:53:05 | 00:00:00 | |
| DJ2DS-15 | 2026-09-04 18:12:01 | 50.58837 | 11.88495 | 127° | 13km/h | 26356m | 6.1m/s | -50.3°C | 0.8% | 21.6hPa | 2.5V | 00:00:00 | 00:00:00 | 00:00:00 | |
| D01LWL | 2026-09-04 18:12:00 | 50.58837 | 11.88495 | 127° | 13km/h | 26356m | 6.1m/s | -50.3°C | 0.8% | 21.6hPa | 2.5V | 00:00:00 | 00:00:00 | 00:00:00 | |
| DL1XH1-15 | 2026-09-04 18:11:59 | 50.58841 | 11.88460 | 81° | 20km/h | 26323m | 5m/s | -50.3°C | 3.7% | 21.7hPa | 2.5V | 08:30:00 | 01:52:58 | 00:00:00 | |
| DF8AY | 2026-09-04 18:11:56 | 50.58842 | 11.88473 | 92° | 15km/h | 26332m | 5.6m/s | -50.3°C | 0.2% | 21.6hPa | 2.6V | 18:12:15 | 01:53:00 | 00:00:00 | |
| AA1-15 | 2026-09-04 18:11:54 | 50.58841 | 11.88460 | 82° | 20km/h | 26323m | 5m/s | -50.3°C | 0.2% | 21.7hPa | 2.5V | 18:12:15 | 01:52:58 | 00:00:00 | |
| DL1XH-15 | 2026-09-04 18:11:53 | 50.58839 | 11.88442 | 83° | 26km/h | 26311m | 5.2m/s | -50.3°C | 3.7% | 21.7hPa | 2.7V | 08:30:00 | 01:52:56 | 00:00:00 | |
| DL1XH-west | 2026-09-04 18:11:53 | 50.58840 | 11.88452 | 82° | 24km/h | 26317m | 6.6m/s | -50.3°C | 0.3% | 21.7hPa | 2.5V | 18:12:15 | 01:52:57 | 00:00:00 | |
| HSKMA3-T | 2026-09-04 18:11:51 | 50.58839 | 11.88432 | 85° | 26km/h | 26306m | 5.1m/s | -50.3°C | 0.2% | 21.8hPa | 2.6V | 18:12:15 | 01:52:55 | 00:00:00 | |
| PETON7-10 | 2026-09-04 18:11:50 | 50.58838 | 11.88423 | 87° | 16km/h | 26301m | 6.0m/s | -50.2°C | 3.6% | 21.7hPa | 2.6V | 00:00:00 | 00:00:00 | 00:00:00 | |
| DL1XH1-15 | 2026-09-04 18:11:49 | 50.58842 | 11.88390 | 105° | 16km/h | 26268m | 4.8m/s | -50.3°C | 3.6% | 21.9hPa | 2.6V | 08:30:00 | 01:52:48 | 00:00:00 | |
| KRY50SP | 2026-09-04 18:11:48 | 50.58838 | 11.88415 | 90° | 16km/h | 26294m | 5.8m/s | -50.2°C | 0.8% | 21.8hPa | 2.5V | 00:00:00 | 00:00:00 | 00:00:00 | |
| DL1XH-15 | 2026-09-04 18:11:47 | 50.58843 | 11.88377 | 98° | 16km/h | 26258m | 5.9m/s | -50.4°C | 3.7% | 21.9hPa | 2.5V | 08:30:00 | 01:52:46 | 00:00:00 | |
| DF8AY | 2026-09-04 18:11:45 | 50.58840 | 11.88396 | 108° | 15km/h | 26273m | 5.5m/s | -50.3°C | 0.2% | 21.9hPa | 2.7V | 18:12:15 | 01:52:49 | 00:00:00 | |
| DL1XH-west | 2026-09-04 18:11:42 | 50.58843 | 11.88377 | 98° | 16km/h | 26258m | 5.9m/s | -50.4°C | 0.3% | 21.9hPa | 2.5V | 18:12:15 | 01:52:46 | 00:00:00 | |
| AA1-15 | 2026-09-04 18:11:41 | 50.58843 | 11.88371 | 87° | 15km/h | 26252m | 5.6m/s | -50.5°C | 0.3% | 21.9hPa | 2.6V | 18:12:15 | 01:52:45 | 00:00:00 | |
| DF8AY | 2026-09-04 18:11:39 | 50.58824 | 11.88321 | 49° | 20km/h | 26214m | 5.7m/s | -50.7°C | 0.3% | 22.1hPa | 2.7V | 18:12:15 | 01:52:38 | 00:00:00 | |
| OE5FHM-15 | 2026-09-04 18:11:39 | 50.58841 | 11.88360 | 64° | 18km/h | 26243m | 4.7m/s | -50.4°C | 3.7% | 21.9hPa | 2.6V | 00:00:00 | 01:52:43 | 00:00:00 | |
| DL1XH-15 | 2026-09-04 18:11:37 | 50.58819 | 11.88311 | 57° | 15km/h | 26203m | 5.1m/s | -50.7°C | 3.7% | 22.1hPa | 2.6V | 08:30:00 | 01:52:36 | 00:00:00 | |
| DL1XH-west | 2026-09-04 18:11:31 | 50.58817 | 11.88305 | 69° | 15km/h | 26198m | 6.3m/s | -50.7°C | 0.3% | 22.1hPa | 2.5V | 18:12:15 | 01:52:35 | 00:00:00 | |
| AA1-15 | 2026-09-04 18:11:30 | 50.58816 | 11.88300 | 81° | 15km/h | 26192m | 5.7m/s | -50.8°C | 0.3% | 22.2hPa | 2.5V | 18:12:15 | 01:52:34 | 00:00:00 | |
| D01LWL | 2026-09-04 18:11:29 | 50.58816 | 11.88294 | 85° | 13km/h | 26187m | 5.4m/s | -50.7°C | 0.9% | 22.2hPa | 2.7V | 00:00:00 | 00:00:00 | 00:00:00 | |
| DL1XH-15 | 2026-09-04 18:11:27 | 50.58808 | 11.88255 | 63° | 20km/h | 26148m | 5m/s | -50.8°C | 3.7% | 22.3hPa | 2.7V | 08:30:00 | 01:52:26 | 00:00:00 | |
| DF8AY | 2026-09-04 18:11:25 | 50.58812 | 11.88269 | 68° | 18km/h | 26159m | 5.8m/s | -50.7°C | 0.2% | 22.3hPa | 2.6V | 18:12:15 | 01:52:28 | 00:00:00 | |
| DL1XH-west | 2026-09-04 18:11:21 | 50.58806 | 11.88248 | 62° | 18km/h | 26143m | 6.2m/s | -50.8°C | 0.2% | 22.3hPa | 2.7V | 18:12:15 | 01:52:25 | 00:00:00 | |
| HSKMA3-T | 2026-09-04 18:11:20 | 50.58804 | 11.88242 | 62° | 15km/h | 26137m | 5.5m/s | -50.8°C | 0.3% | 22.3hPa | 2.6V | 18:12:15 | 01:52:24 | 00:00:00 | |
| AA1-15 | 2026-09-04 18:11:19 | 50.58802 | 11.88237 | 66° | 13km/h | 26132m | 4.6m/s | -50.8°C | 0.2% | 22.4hPa | 2.5V | 18:12:15 | 01:52:23 | 00:00:00 | |
| SONDE2-11 | 2026-09-04 18:11:19 | 50.58801 | 11.88232 | 75° | 15km/h | 26128m | 4.1m/s | -50.8°C | 0.9% | 22.4hPa | 2.6V | 00:00:00 | 00:00:00 | 00:00:00 | |
| EDDB2-11 | 2026-09-04 18:11:18 | 50.58801 | 11.88232 | 75° | 15km/h | 26128m | 4.1m/s | -50.8°C | 0.9% | 22.4hPa | 2.6V | 00:00:00 | 00:00:00 | 00:00:00 | |
| DL1XH-15 | 2026-09-04 18:11:17 | 50.58802 | 11.88181 | 107° | 20km/h | 26094m | 6.1m/s | -51.1°C | 3.8% | 22.5hPa | 2.6V | 08:30:00 | 01:52:16 | 00:00:00 | |
| DF8AY | 2026-09-04 18:11:13 | 50.58800 | 11.88189 | 101° | 24km/h | 26100m | 6m/s | -51.1°C | 0.3% | 22.5hPa | 2.6V | 18:12:15 | 01:52:17 | 00:00:00 | |
| DL1XH-west | 2026-09-04 18:11:10 | 50.58804 | 11.88167 | 104° | 16km/h | 26083m | 4.8m/s | -51.2°C | 0.3% | 22.5hPa | 2.7V | 18:12:15 | 01:52:14 | 00:00:00 | |
| AA1-15 | 2026-09-04 18:11:09 | 50.58805 | 11.88161 | 94° | 16km/h | 26077m | 6.3m/s | -51.2°C | 0.3% | 22.6hPa | 2.7V | 18:12:15 | 01:52:13 | 00:00:00 | |
| DF8AY | 2026-09-04 18:11:03 | 50.58799 | 11.88128 | 78° | 15km/h | 26045m | 4.4m/s | -51.2°C | 0.3% | 22.7hPa | 2.6V | 18:12:15 | 01:52:07 | 00:00:00 | |
| DL1XH-west | 2026-09-04 18:11:00 | 50.58797 | 11.88104 | 91° | 26km/h | 26027m | 5.7m/s | -51.3°C | 0.3% | 22.7hPa | 2.6V | 18:12:15 | 01:52:04 | 00:00:00 | |
| HSKMA3-T | 2026-09-04 18:10:59 | 50.58798 | 11.88094 | 97° | 24km/h | 26021m | 6.3m/s | -51.3°C | 0.4% | 22.8hPa | 2.6V | 18:12:15 | 01:52:03 | 00:00:00 | |
| AA1-15 | 2026-09-04 18:10:58 | 50.58799 | 11.88085 | 102° | 22km/h | 26016m | 5.2m/s | -51.3°C | 0.4% | 22.8hPa | 2.7V | 18:12:15 | 01:52:02 | 00:00:00 | |
| DM0DOS-11 | 2026-09-04 18:10:57 | 50.58800 | 11.88054 | 74° | 18km/h | 25994m | 5.5m/s | -51.3°C | 3.8% | 22.8hPa | 2.6V | 08:30:00 | 01:51:58 | 00:00:00 | |
| DF8AY | 2026-09-04 18:10:53 | 50.58799 | 11.88048 | 65° | 16km/h | 25989m | 5.2m/s | -51.3°C | 0.3% | 22.9hPa | 2.6V | 18:12:15 | 01:51:57 | 00:00:00 | |
| DL1XH-west | 2026-09-04 18:10:49 | 50.58792 | 11.88031 | 63° | 13km/h | 25967m | 5.9m/s | -51.3°C | 0.3% | 22.9hPa | 2.6V | 18:12:15 | 01:51:53 | 00:00:00 | |
| HSKMA3-T | 2026-09-04 18:10:48 | 50.58791 | 11.88025 | 69° | 18km/h | 25961m | 6.2m/s | -51.3°C | 0.3% | 23hPa | 2.6V | 18:12:15 | 01:51:52 | 00:00:00 | |
| NBG1-10 | 2026-09-04 18:10:48 | 50.58790 | 11.88025 | 70° | 20km/h | 25961m | 6.2m/s | -51.2°C | 3.7% | 22.9hPa | 2.7V | 00:00:00 | 01:51:52 | 00:00:00 | |
| DM0DOS-11 | 2026-09-04 18:10:47 | 50.58787 | 11.87989 | 90° | 24km/h | 25938m | 5.8m/s | -51.4°C | 3.8% | 23hPa | 2.7V | 08:30:00 | 01:51:48 | 00:00:00 | |
| AA1-15 | 2026-09-04 18:10:47 | 50.58789 | 11.88018 | 76° | 24km/h | 25955m | 5.2m/s | -51.3°C | 0.3% | 23hPa | 2.6V | 18:12:15 | 01:51:51 | 00:00:00 | |
| S3001 | 2026-09-04 18:10:46 | 50.58788 | 11.88008 | 81° | 24km/h | 25950m | 5.6m/s | -51.3°C | 0.9% | 23.0hPa | 2.7V | 00:00:00 | 00:00:00 | 00:00:00 | |
| AM1SDL-15 | 2026-09-04 18:10:45 | 50.58787 | 11.87999 | 87° | 20km/h | 25944m | 6.4m/s | -51.3°C | 3.8% | 23.0hPa | 2.7V | 00:00:00 | 01:51:49 | 00:00:00 | |
| DL1XH1-15 | 2026-09-04 18:10:44 | 50.58392 | 11.87771 | 316° | 15km/h | 25464m | 4.1m/s | -51.8°C | 4% | 24.8hPa | 2.6V | 08:30:00 | 01:50:18 | 00:00:00 | |
| DF8AY | 2026-09-04 18:10:43 | 50.58787 | 11.87980 | 89° | 20km/h | 25933m | 4.6m/s | -51.4°C | 0.4% | 23.1hPa | 2.5V | 18:12:15 | 01:51:47 | 00:00:00 | |
| DJ2DS-15 | 2026-09-04 18:10:43 | 50.58787 | 11.87980 | 90° | 20km/h | 25933m | 4.5m/s | -51.4°C | 3.9% | 23.0hPa | 2.6V | 00:00:00 | 01:51:47 | 00:00:00 | |
| DO3MHA-11 | 2026-09-04 18:10:42 | 50.58786 | 11.87972 | 81° | 18km/h | 25929m | 4.0m/s | -51.5°C | 3.9% | 23.1hPa | 2.6V | 00:00:00 | 01:51:46 | 00:00:00 | |
| DK5PH-5 | 2026-09-04 18:10:41 | 50.58785 | 11.87965 | 70° | 20km/h | 25924m | 5.8m/s | -51.6°C | 3.9% | 23.1hPa | 2.6V | 00:00:00 | 01:51:45 | 08:30:00 | |
| OE5DXL-15 | 2026-09-04 18:10:40 | 50.58783 | 11.87957 | 59° | 20km/h | 25918m | 6.1m/s | -51.7°C | 4.0% | 23.1hPa | 2.7V | 00:00:00 | 00:00:00 | 00:00:00 | |
| OE5FHM-15 | 2026-09-04 18:10:39 | 50.58779 | 11.87949 | 51° | 20km/h | 25912m | 5.0m/s | -51.7°C | 4.0% | 23.1hPa | 2.7V | 00:00:00 | 01:51:43 | 00:00:00 | |
| DM0DOS-11 | 2026-09-04 18:10:37 | 50.58766 | 11.87920 | 78° | 13km/h | 25885m | 4.4m/s | -51.8°C | 4% | 23.2hPa | 2.7V | 08:30:00 | 01:51:38 | 00:00:00 | |
| AA1-15 | 2026-09-04 18:10:37 | 50.58772 | 11.87936 | 49° | 20km/h | 25902m | 5.4m/s | -51.8°C | 0.4% | 23.2hPa | 2.5V | 18:12:15 | 01:51:41 | 00:00:00 | |
| DL1XH-15 | 2026-09-04 18:10:36 | 50.58764 | 11.87908 | 75° | 20km/h | 25875m | 6.3m/s | -51.8°C | 4% | 23.3hPa | 2.6V | 08:30:00 | 01:51:36 | 00:00:00 | |
| DF8AY | 2026-09-04 18:10:32 | 50.58764 | 11.87908 | 76° | 20km/h | 25875m | 6.3m/s | -51.8°C | 0.4% | 23.3hPa | 2.6V | 18:12:15 | 01:51:36 | 00:00:00 | |
| DO3MHA-11 | 2026-09-04 18:10:32 | 50.58764 | 11.87908 | 76° | 20km/h | 25876m | 6.2m/s | -51.7°C | 4.0% | 23.2hPa | 2.5V | 00:00:00 | 01:51:36 | 00:00:00 | |
| DB0UT-7 | 2026-09-04 18:10:31 | 50.58763 | 11.87899 | 71° | 22km/h | 25870m | 5.4m/s | -51.7°C | 4.0% | 23.3hPa | 2.5V | 00:00:00 | 00:00:00 | 08:30:00 | |
| S52SK | 2026-09-04 18:10:30 | 50.58763 | 11.87899 | 72° | 24km/h | 25870m | 5.5m/s | -51.8°C | 0.9% | 23.3hPa | 2.5V | 00:00:00 | 00:00:00 | 00:00:00 | |
| KRY50SP | 2026-09-04 18:10:29 | 50.58758 | 11.87882 | 62° | 24km/h | 25860m | 5.1m/s | -51.7°C | 0.9% | 23.3hPa | 2.5V | 00:00:00 | 00:00:00 | 00:00:00 | |
| DM0DOS-11 | 2026-09-04 18:10:28 | 50.58740 | 11.87855 | 32° | 22km/h | 25831m | 5.9m/s | -51.7°C | 3.9% | 23.4hPa | 2.5V | 08:30:00 | 01:51:28 | 00:00:00 | |
| DL1XH-15 | 2026-09-04 18:10:27 | 50.58732 | 11.87846 | 36° | 18km/h | 25820m | 5.6m/s | -51.7°C | 3.9% | 23.5hPa | 2.6V | 08:30:00 | 01:51:26 | 00:00:00 | |
| HSKMA3-T | 2026-09-04 18:10:27 | 50.58752 | 11.87869 | 47° | 18km/h | 25848m | 5.3m/s | -51.7°C | 0.4% | 23.4hPa | 2.7V | 18:12:15 | 01:51:31 | 00:00:00 | |
| AA1-15 | 2026-09-04 18:10:26 | 50.58749 | 11.87864 | 38° | 18km/h | 25843m | 4.9m/s | -51.7°C | 0.4% | 23.4hPa | 2.7V | 18:12:15 | 01:51:30 | 00:00:00 | |
| DF8AY | 2026-09-04 18:10:22 | 50.58732 | 11.87846 | 37° | 18km/h | 25821m | 5.6m/s | -51.7°C | 0.4% | 23.5hPa | 2.6V | 18:12:15 | 01:51:26 | 00:00:00 | |
| SONCRA | 2026-09-04 18:10:22 | 50.58729 | 11.87842 | 43° | 15km/h | 25815m | 5.9m/s | -51.7°C | 0.9% | 23.5hPa | 2.5V | 00:00:00 | 00:00:00 | 00:00:00 | |
| AM1SDL-15 | 2026-09-04 18:10:21 | 50.58729 | 11.87842 | 44° | 20km/h | 25815m | 5.9m/s | -51.6°C | 3.9% | 23.4hPa | 2.5V | 00:00:00 | 01:51:25 | 00:00:00 | |
| PETON7-10 | 2026-09-04 18:10:19 | 50.58724 | 11.87834 | 53° | 22km/h | 25805m | 4.3m/s | -51.6°C | 3.9% | 23.5hPa | 2.5V | 00:00:00 | 00:00:00 | 00:00:00 | |
| DL1XH-15 | 2026-09-04 18:10:18 | 50.58696 | 11.87790 | 44° | 20km/h | 25767m | 5.6m/s | -51.7°C | 3.9% | 23.6hPa | 2.5V | 08:30:00 | 01:51:16 | 00:00:00 | |
| DM0DOS-11 | 2026-09-04 18:10:17 | 50.58705 | 11.87803 | 42° | 26km/h | 25778m | 4.9m/s | -51.7°C | 3.9% | 23.6hPa | 2.7V | 08:30:00 | 01:51:18 | 00:00:00 | |
| HSKMA3-T | 2026-09-04 18:10:16 | 50.58715 | 11.87817 | 45° | 26km/h | 25788m | 5.4m/s | -51.7°C | 0.4% | 23.6hPa | 2.6V | 18:12:15 | 01:51:20 | 00:00:00 | |
| AA1-15 | 2026-09-04 18:10:15 | 50.58710 | 11.87810 | 43° | 27km/h | 25783m | 4.7m/s | -51.7°C | 0.3% | 23.6hPa | 2.7V | 18:12:15 | 01:51:19 | 00:00:00 | |
| DF8AY | 2026-09-04 18:10:11 | 50.58693 | 11.87785 | 40° | 16km/h | 25762m | 4.6m/s | -51.7°C | 0.4% | 23.7hPa | 2.6V | 18:12:15 | 01:51:15 | 00:00:00 | |
| DK5PH-5 | 2026-09-04 18:10:11 | 50.58693 | 11.87785 | 41° | 22km/h | 25763m | 4.5m/s | -51.7°C | 3.9% | 23.6hPa | 2.6V | 00:00:00 | 01:51:15 | 00:00:00 | |
| OE5DXL-15 | 2026-09-04 18:10:10 | 50.58690 | 11.87781 | 30° | 24km/h | 25758m | 4.3m/s | -51.7°C | 3.9% | 23.7hPa | 2.6V | 00:00:00 | 00:00:00 | 08:30:00 | |
| OE5FHM-15 | 2026-09-04 18:10:09 | 50.58686 | 11.87778 | 22° | 24km/h | 25753m | 5.9m/s | -51.7°C | 3.9% | 23.7hPa | 2.7V | 00:00:00 | 01:51:13 | 00:00:00 | |
| AM1SDL-15 | 2026-09-04 18:10:08 | 50.58680 | 11.87775 | 15° | 24km/h | 25747m | 5.8m/s | -51.7°C | 3.9% | 23.7hPa | 2.7V | 00:00:00 | 01:51:12 | 00:00:00 | |
| DL1XH-15 | 2026-09-04 18:10:07 | 50.58643 | 11.87762 | 13° | 26km/h | 25714m | 6.3m/s | -52°C | 4% | 23.9hPa | 2.7V | 08:30:00 | 01:51:06 | 00:00:00 | |
| AA1-15 | 2026-09-04 18:10:05 | 50.58661 | 11.87769 | 13° | 26km/h | 25731m | 6m/s | -51.8°C | 0.4% | 23.8hPa | 2.6V | 18:12:15 | 01:51:09 | 00:00:00 | |
| DF8AY | 2026-09-04 18:10:00 | 50.58630 | 11.87758 | 11° | 26km/h | 25703m | 4.8m/s | -52.1°C | 0.5% | 23.9hPa | 2.5V | 18:12:15 | 01:51:04 | 00:00:00 | |
| ANDY1245 | 2026-09-04 18:09:59 | 50.58630 | 11.87757 | 12° | 26km/h | 25704m | 4.8m/s | -52.1°C | 1.0% | 23.9hPa | 2.7V | 00:00:00 | 00:00:00 | 00:00:00 | |
| KRY50SP | 2026-09-04 18:09:58 | 50.58623 | 11.87756 | 10° | 24km/h | 25699m | 5.5m/s | -52.1°C | 0.9% | 23.9hPa | 2.7V | 00:00:00 | 00:00:00 | 00:00:00 | |
| DM0DOS-11 | 2026-09-04 18:09:57 | 50.58599 | 11.87751 | 7° | 24km/h | 25671m | 5.2m/s | -52°C | 4.1% | 24hPa | 2.7V | 08:30:00 | 01:50:58 | 00:00:00 | |
| DL1XH-15 | 2026-09-04 18:09:56 | 50.58587 | 11.87748 | 12° | 24km/h | 25661m | 5m/s | -52°C | 4% | 24hPa | 2.5V | 08:30:00 | 01:50:56 | 00:00:00 | |
| AA1-15 | 2026-09-04 18:09:54 | 50.58599 | 11.87751 | 8° | 24km/h | 25671m | 5.2m/s | -52.1°C | 0.5% | 24hPa | 2.7V | 18:12:15 | 01:50:58 | 00:00:00 | |
| DF8AY | 2026-09-04 18:09:49 | 50.58571 | 11.87740 | 19° | 20km/h | 25646m | 4.2m/s | -52.1°C | 0.5% | 24.1hPa | 2.7V | 18:12:15 | 01:50:53 | 00:00:00 | |
| DC4HF-4 | 2026-09-04 18:09:46 | 50.58553 | 11.87733 | 9° | 27km/h | 25631m | 5.0m/s | -52.0°C | 1.0% | 24.2hPa | 2.7V | 00:00:00 | 00:00:00 | 00:00:00 | |
| DL1XH-15 | 2026-09-04 18:09:46 | 50.58530 | 11.87735 | 336° | 18km/h | 25610m | 5m/s | -51.9°C | 4% | 24.3hPa | 2.7V | 08:30:00 | 01:50:46 | 00:00:00 | |
| EDDB2-11 | 2026-09-04 18:09:45 | 50.58546 | 11.87731 | 3° | 26km/h | 25626m | 4.4m/s | -52.0°C | 1.0% | 24.2hPa | 2.7V | 00:00:00 | 00:00:00 | 00:00:00 | |
| AA1-15 | 2026-09-04 18:09:43 | 50.58534 | 11.87733 | 346° | 20km/h | 25615m | 5.8m/s | -51.9°C | 0.5% | 24.2hPa | 2.7V | 18:12:15 | 01:50:47 | 00:00:00 | |
| DF8AY | 2026-09-04 18:09:38 | 50.58513 | 11.87746 | 344° | 18km/h | 25587m | 5.7m/s | -51.8°C | 0.4% | 24.4hPa | 2.6V | 18:12:15 | 01:50:42 | 00:00:00 | |
| HSKMA3-T | 2026-09-04 18:09:33 | 50.58485 | 11.87750 | 1° | 29km/h | 25561m | 5.1m/s | -51.9°C | 0.4% | 24.4hPa | 2.6V | 18:12:15 | 01:50:37 | 00:00:00 | |
| AA1-15 | 2026-09-04 18:09:32 | 50.58477 | 11.87750 | 360° | 27km/h | 25556m | 5.2m/s | -51.9°C | 0.4% | 24.4hPa | 2.6V | 18:12:15 | 01:50:36 | 00:00:00 | |
| DF8AY | 2026-09-04 18:09:28 | 50.58457 | 11.87754 | 347° | 16km/h | 25535m | 5.2m/s | -51.7°C | 0.5% | 24.5hPa | 2.5V | 18:12:15 | 01:50:32 | 00:00:00 | |
| DM0DOS-11 | 2026-09-04 18:09:27 | 50.58443 | 11.87757 | 358° | 18km/h | 25520m | 4.6m/s | -51.7°C | 4% | 24.6hPa | 2.7V | 08:30:00 | 01:50:29 | 00:00:00 | |
| HSKMA3-T | 2026-09-04 18:09:22 | 50.58432 | 11.87756 | 2° | 15km/h | 25504m | 4.8m/s | -51.8°C | 0.4% | 24.7hPa | 2.5V | 18:12:15 | 01:50:26 | 00:00:00 | |
| AA1-15 | 2026-09-04 18:09:21 | 50.58428 | 11.87756 | 0° | 18km/h | 25499m | 4.3m/s | -51.8°C | 0.4% | 24.7hPa | 2.5V | 18:12:15 | 01:50:25 | 00:00:00 | |
| DF8AY | 2026-09-04 18:09:17 | 50.58404 | 11.87760 | 344° | 24km/h | 25479m | 5.1m/s | -51.8°C | 0.4% | 24.8hPa | 2.5V | 18:12:15 | 01:50:21 | 00:00:00 | |
| PETON7-10 | 2026-09-04 18:09:17 | 50.58404 | 11.87760 | 344° | 15km/h | 25479m | 5.1m/s | -51.8°C | 4.0% | 24.7hPa | 2.7V | 00:00:00 | 01:50:21 | 00:00:00 | |
| DL1XH-15 | 2026-09-04 18:09:13 | 50.58387 | 11.87777 | 330° | 15km/h | 25454m | 5.6m/s | -51.8°C | 4% | 24.9hPa | 2.7V | 08:30:00 | 01:50:16 | 00:00:00 | |
| HSKMA3-T | 2026-09-04 18:09:12 | 50.58386 | 11.87777 | 331° | 15km/h | 25454m | 5.6m/s | -51.8°C | 0.5% | 24.9hPa | 2.7V | 18:12:15 | 01:50:16 | 00:00:00 | |
| AA1-15 | 2026-09-04 18:09:11 | 50.58383 | 11.87780 | 341° | 15km/h | 25449m | 4.9m/s | -51.8°C | 0.5% | 24.9hPa | 2.7V | 18:12:15 | 01:50:15 | 00:00:00 | |
| DK5PH-5 | 2026-09-04 18:09:11 | 50.58383 | 11.87780 | 342° | 9km/h | 25449m | 4.9m/s | -51.7°C | 4.0% | 24.8hPa | 2.7V | 00:00:00 | 01:50:15 | 00:00:00 | |
| OE5DXL-15 | 2026-09-04 18:09:10 | 50.58379 | 11.87781 | 348° | 9km/h | 25444m | 4.3m/s | -51.7°C | 4.1% | 24.8hPa | 2.5V | 00:00:00 | 00:00:00 | 00:00:00 | |
| OE5FHM-15 | 2026-09-04 18:09:09 | 50.58376 | 11.87782 | 350° | 9km/h | 25440m | 4.7m/s | -51.7°C | 4.0% | 24.9hPa | 2.5V | 00:00:00 | 01:50:13 | 08:30:00 | |
| OE5DRO-10 | 2026-09-04 18:09:08 | 50.58372 | 11.87784 | 348° | 9km/h | 25435m | 5.7m/s | -51.6°C | 4.1% | 24.9hPa | 2.5V | 00:00:00 | 00:00:00 | 00:00:00 | |
| DL1XH-15 | 2026-09-04 18:09:07 | 50.58353 | 11.87789 | 351° | 13km/h | 25404m | 5.4m/s | -51.6°C | 4% | 25.1hPa | 2.5V | 08:30:00 | 01:50:06 | 00:00:00 | |
| DF8AY | 2026-09-04 18:09:07 | 50.58370 | 11.87785 | 345° | 11km/h | 25429m | 5.1m/s | -51.7°C | 0.5% | 25hPa | 2.6V | 18:12:15 | 01:50:11 | 00:00:00 | |
| DL1XH-west | 2026-09-04 18:09:03 | 50.58357 | 11.87788 | 353° | 15km/h | 25409m | 4.5m/s | -51.6°C | 0.4% | 25hPa | 2.5V | 18:12:15 | 01:50:07 | 00:00:00 | |
| HTAHTA | 2026-09-04 18:09:03 | 50.58353 | 11.87789 | 351° | 11km/h | 25404m | 5.4m/s | -51.6°C | -1.0% | -1.0hPa | 2.6V | 00:00:00 | 00:00:00 | 00:00:00 | |
| DL1XH1-15 | 2026-09-04 18:09:02 | 50.58345 | 11.87792 | 358° | 7km/h | 25378m | 5.3m/s | -51.5°C | 3.9% | 25.1hPa | 2.6V | 08:30:00 | 01:50:01 | 00:00:00 | |
| HSKMA3-T | 2026-09-04 18:09:02 | 50.58353 | 11.87789 | 351° | 13km/h | 25404m | 5.4m/s | -51.6°C | 0.4% | 25.1hPa | 2.5V | 18:12:15 | 01:50:06 | 00:00:00 | |
| AA1-15 | 2026-09-04 18:09:00 | 50.58349 | 11.87791 | 340° | 5km/h | 25393m | 4.6m/s | -51.5°C | 0.4% | 25.1hPa | 2.7V | 18:12:15 | 01:50:04 | 00:00:00 | |
| AU51GT2 | 2026-09-04 18:08:58 | 50.58346 | 11.87792 | 347° | 5km/h | 25384m | 5.6m/s | -51.5°C | 0.9% | 25.1hPa | 2.7V | 00:00:00 | 00:00:00 | 00:00:00 | |
| DL1XH-15 | 2026-09-04 18:08:57 | 50.58335 | 11.87791 | 7° | 5km/h | 25354m | 4.3m/s | -51.4°C | 4% | 25.2hPa | 2.7V | 08:30:00 | 01:49:56 | 00:00:00 | |
| DM0DOS-11 | 2026-09-04 18:08:57 | 50.58337 | 11.87792 | 6° | 5km/h | 25358m | 4.7m/s | -51.4°C | 3.9% | 25.2hPa | 2.7V | 08:30:00 | 01:49:57 | 00:00:00 | |
| DF8AY | 2026-09-04 18:08:56 | 50.58342 | 11.87792 | 4° | 9km/h | 25373m | 4.4m/s | -51.5°C | 0.4% | 25.2hPa | 2.6V | 18:12:15 | 01:50:00 | 00:00:00 | |
| DB0ND-19 | 2026-09-04 18:08:55 | 50.58338 | 11.87792 | 5° | 5km/h | 25364m | 5.7m/s | -51.5°C | 0.9% | 25.2hPa | 2.7V | 00:00:00 | 00:00:00 | 00:00:00 | |
| SP3BTT-10 | 2026-09-04 18:08:54 | 50.58338 | 11.87792 | 6° | 5km/h | 25364m | 5.7m/s | -51.4°C | 3.9% | 25.2hPa | 2.7V | 00:00:00 | 00:00:00 | 08:30:00 | |
| DL1XH1-15 | 2026-09-04 18:08:53 | 50.58323 | 11.87794 | 326° | 9km/h | 25329m | 5.6m/s | -51.4°C | 3.9% | 25.3hPa | 2.7V | 08:30:00 | 01:49:51 | 00:00:00 | |
| DL1XH-west | 2026-09-04 18:08:52 | 50.58336 | 11.87791 | 7° | 5km/h | 25354m | 4.3m/s | -51.5°C | 0.5% | 25.2hPa | 2.7V | 18:12:15 | 01:49:56 | 00:00:00 | |
| HSKMA3-T | 2026-09-04 18:08:51 | 50.58334 | 11.87791 | 3° | 9km/h | 25349m | 6m/s | -51.5°C | 0.5% | 25.3hPa | 2.5V | 18:12:15 | 01:49:55 | 00:00:00 | |
| AA1-15 | 2026-09-04 18:08:49 | 50.58328 | 11.87791 | 353° | 13km/h | 25339m | 4.2m/s | -51.5°C | 0.4% | 25.3hPa | 2.6V | 18:12:15 | 01:49:53 | 00:00:00 | |
| ANDY1245 | 2026-09-04 18:08:49 | 50.58328 | 11.87791 | 354° | 13km/h | 25339m | 4.2m/s | -51.5°C | 1.0% | 25.3hPa | 2.6V | 00:00:00 | 00:00:00 | 00:00:00 | |
| DM0DOS-11 | 2026-09-04 18:08:47 | 50.58321 | 11.87805 | 287° | 5km/h | 25309m | 5.7m/s | -51.3°C | 3.9% | 25.4hPa | 2.6V | 08:30:00 | 01:49:47 | 00:00:00 | |
| DL1XH-15 | 2026-09-04 18:08:47 | 50.58320 | 11.87806 | 322° | 5km/h | 25304m | 5.1m/s | -51.2°C | 3.9% | 25.4hPa | 2.7V | 08:30:00 | 01:49:46 | 00:00:00 | |
| DF8AY | 2026-09-04 18:08:46 | 50.58321 | 11.87799 | 265° | 7km/h | 25319m | 4.4m/s | -51.4°C | 0.4% | 25.4hPa | 2.5V | 18:12:15 | 01:49:49 | 00:00:00 | |
| DH8WE-5 | 2026-09-04 18:08:44 | 50.58321 | 11.87802 | 265° | 7km/h | 25315m | 4.6m/s | -51.3°C | 0.9% | 25.4hPa | 2.6V | 00:00:00 | 00:00:00 | 00:00:00 | |
| DJ2DS-15 | 2026-09-04 18:08:43 | 50.58321 | 11.87804 | 288° | 7km/h | 25310m | 5.6m/s | -51.2°C | 3.9% | 25.4hPa | 2.6V | 00:00:00 | 01:49:47 | 00:00:00 | |
| DL1XH1-15 | 2026-09-04 18:08:42 | 50.58312 | 11.87805 | 9° | 11km/h | 25278m | 5.9m/s | -51.2°C | 3.8% | 25.6hPa | 2.6V | 08:30:00 | 01:49:41 | 00:00:00 | |
| DL1XH-west | 2026-09-04 18:08:41 | 50.58319 | 11.87807 | 349° | 5km/h | 25299m | 4.8m/s | -51.2°C | 0.3% | 25.5hPa | 2.7V | 18:12:15 | 01:49:45 | 00:00:00 | |
| HSKMA3-T | 2026-09-04 18:08:40 | 50.58317 | 11.87807 | 3° | 5km/h | 25294m | 5.9m/s | -51.2°C | 0.4% | 25.5hPa | 2.7V | 18:12:15 | 01:49:44 | 00:00:00 | |
| AA1-15 | 2026-09-04 18:08:39 | 50.58316 | 11.87807 | 17° | 5km/h | 25288m | 4.9m/s | -51.2°C | 0.3% | 25.5hPa | 2.5V | 18:12:15 | 01:49:43 | 00:00:00 | |
| DF8AY | 2026-09-04 18:08:34 | 50.58303 | 11.87807 | 327° | 11km/h | 25263m | 5.1m/s | -51.3°C | 0.3% | 25.6hPa | 2.7V | 18:12:15 | 01:49:38 | 00:00:00 | |
| DL1XH1-15 | 2026-09-04 18:08:32 | 50.58299 | 11.87824 | 22° | 7km/h | 25228m | 4.4m/s | -51.4°C | 3.9% | 25.7hPa | 2.7V | 08:30:00 | 01:49:31 | 00:00:00 | |
| DL1XH-west | 2026-09-04 18:08:30 | 50.58302 | 11.87821 | 257° | 7km/h | 25244m | 5.1m/s | -51.3°C | 0.4% | 25.7hPa | 2.6V | 18:12:15 | 01:49:34 | 00:00:00 | |
| HSKMA3-T | 2026-09-04 18:08:29 | 50.58302 | 11.87823 | 288° | 4km/h | 25238m | 5.6m/s | -51.4°C | 0.4% | 25.7hPa | 2.6V | 18:12:15 | 01:49:33 | 00:00:00 | |
| DL1XH-15 | 2026-09-04 18:08:27 | 50.58293 | 11.87822 | 310° | 7km/h | 25204m | 4.7m/s | -51.3°C | 3.9% | 25.8hPa | 2.7V | 08:30:00 | 01:49:26 | 00:00:00 | |
| DF8AY | 2026-09-04 18:08:24 | 50.58295 | 11.87820 | 11° | 4km/h | 25214m | 5m/s | -51.4°C | 0.4% | 25.8hPa | 2.5V | 18:12:15 | 01:49:28 | 00:00:00 | |
| DL1XH-west | 2026-09-04 18:08:20 | 50.58290 | 11.87827 | 314° | 11km/h | 25194m | 4.6m/s | -51.4°C | 0.4% | 25.9hPa | 2.5V | 18:12:15 | 01:49:24 | 00:00:00 | |
| HSKMA3-T | 2026-09-04 18:08:18 | 50.58287 | 11.87832 | 294° | 5km/h | 25185m | 5.7m/s | -51.4°C | 0.4% | 25.9hPa | 2.6V | 18:12:15 | 01:49:22 | 00:00:00 | |
| DM0DOS-11 | 2026-09-04 18:08:17 | 50.58290 | 11.87830 | 47° | 2km/h | 25159m | 5.3m/s | -51.4°C | 3.9% | 26hPa | 2.5V | 08:30:00 | 01:49:17 | 00:00:00 | |
| AA1-15 | 2026-09-04 18:08:17 | 50.58287 | 11.87833 | 204° | 4km/h | 25179m | 5.3m/s | -51.3°C | 0.4% | 26hPa | 2.6V | 18:12:15 | 01:49:21 | 00:00:00 | |
| DF8AY | 2026-09-04 18:08:13 | 50.58290 | 11.87830 | 47° | 2km/h | 25159m | 5.3m/s | -51.4°C | 0.4% | 26hPa | 2.5V | 18:12:15 | 01:49:17 | 00:00:00 | |
| DL1XH1-15 | 2026-09-04 18:08:12 | 50.58288 | 11.87842 | 294° | 11km/h | 25129m | 5.8m/s | -51.3°C | 3.9% | 26.1hPa | 2.7V | 08:30:00 | 01:49:11 | 00:00:00 | |
| DL1XH-west | 2026-09-04 18:08:09 | 50.58289 | 11.87835 | 268° | 7km/h | 25139m | 4.6m/s | -51.4°C | 0.4% | 26.1hPa | 2.7V | 18:12:15 | 01:49:13 | 00:00:00 | |
| HSKMA3-T | 2026-09-04 18:08:08 | 50.58289 | 11.87838 | 279° | 9km/h | 25134m | 4.1m/s | -51.3°C | 0.4% | 26.1hPa | 2.7V | 18:12:15 | 01:49:12 | 00:00:00 | |
| AA1-15 | 2026-09-04 18:08:06 | 50.58286 | 11.87846 | 310° | 13km/h | 25123m | 5.7m/s | -51.4°C | 0.5% | 26.2hPa | 2.5V | 18:12:15 | 01:49:10 | 00:00:00 | |
| DF8AY | 2026-09-04 18:08:03 | 50.58279 | 11.87852 | 55° | 5km/h | 25103m | 4.6m/s | -51.3°C | 0.4% | 26.2hPa | 2.7V | 18:12:15 | 01:49:06 | 00:00:00 | |
| DL1XH1-15 | 2026-09-04 18:08:03 | 50.58276 | 11.87837 | 97° | 7km/h | 25077m | 5.6m/s | -51.2°C | 3.9% | 26.4hPa | 2.7V | 08:30:00 | 01:49:01 | 00:00:00 | |
| DL1XH-west | 2026-09-04 18:07:59 | 50.58277 | 11.87844 | 72° | 9km/h | 25087m | 4.8m/s | -51.2°C | 0.4% | 26.3hPa | 2.6V | 18:12:15 | 01:49:03 | 00:00:00 | |
| HSKMA3-T | 2026-09-04 18:07:57 | 50.58276 | 11.87837 | 98° | 7km/h | 25077m | 5.6m/s | -51.2°C | 0.4% | 26.4hPa | 2.7V | 18:12:15 | 01:49:01 | 00:00:00 | |
| AA1-15 | 2026-09-04 18:07:56 | 50.58276 | 11.87835 | 125° | 4km/h | 25072m | 4.5m/s | -51.2°C | 0.4% | 26.4hPa | 2.7V | 18:12:15 | 01:49:00 | 00:00:00 | |
| DB0ND-19 | 2026-09-04 18:07:53 | 50.58272 | 11.87841 | 329° | 13km/h | 25052m | 5.0m/s | -51.2°C | 0.9% | 26.5hPa | 2.5V | 00:00:00 | 00:00:00 | 00:00:00 | |
| DL1XH1-15 | 2026-09-04 18:07:52 | 50.58260 | 11.87842 | 56° | 9km/h | 25028m | 5.1m/s | -51.2°C | 3.9% | 26.6hPa | 2.5V | 08:30:00 | 01:48:51 | 00:00:00 | |
| DF8AY | 2026-09-04 18:07:51 | 50.58268 | 11.87844 | 337° | 15km/h | 25047m | 4.9m/s | -51.2°C | 0.3% | 26.5hPa | 2.6V | 18:12:15 | 01:48:55 | 00:00:00 | |
| DL1XH-west | 2026-09-04 18:07:48 | 50.58262 | 11.87844 | 48° | 7km/h | 25032m | 3.8m/s | -51.2°C | 0.4% | 26.5hPa | 2.7V | 18:12:15 | 01:48:52 | 00:00:00 | |
| DM0DOS-11 | 2026-09-04 18:07:47 | 50.58255 | 11.87828 | 125° | 2km/h | 25002m | 6.1m/s | -51.1°C | 3.8% | 26.7hPa | 2.7V | 08:30:00 | 01:48:46 | 00:00:00 | |
| HSKMA3-T | 2026-09-04 18:07:47 | 50.58260 | 11.87841 | 56° | 9km/h | 25028m | 5.1m/s | -51.2°C | 0.4% | 26.6hPa | 2.5V | 18:12:15 | 01:48:51 | 00:00:00 | |
| AA1-15 | 2026-09-04 18:07:45 | 50.58257 | 11.87835 | 51° | 11km/h | 25017m | 4.6m/s | -51.1°C | 0.4% | 26.6hPa | 2.6V | 18:12:15 | 01:48:49 | 00:00:00 | |
| HARRO8 | 2026-09-04 18:07:45 | 50.58256 | 11.87832 | 51° | 7km/h | 25013m | 4.5m/s | -51.1°C | 0.9% | 26.6hPa | 2.7V | 00:00:00 | 00:00:00 | 00:00:00 | |
| DL1XH1-15 | 2026-09-04 18:07:43 | 50.58256 | 11.87829 | 6° | 9km/h | 24977m | 4.7m/s | -51.1°C | 3.8% | 26.8hPa | 2.7V | 08:30:00 | 01:48:41 | 00:00:00 | |
| DF8AY | 2026-09-04 18:07:41 | 50.58255 | 11.87828 | 179° | 5km/h | 24997m | 4.8m/s | -51.1°C | 0.3% | 26.7hPa | 2.7V | 18:12:15 | 01:48:45 | 00:00:00 | |
| DL1XH-west | 2026-09-04 18:07:37 | 50.58256 | 11.87829 | 6° | 9km/h | 24977m | 4.7m/s | -51.1°C | 0.4% | 26.8hPa | 2.7V | 18:12:15 | 01:48:41 | 00:00:00 | |
| HSKMA3-T | 2026-09-04 18:07:36 | 50.58253 | 11.87828 | 9° | 11km/h | 24973m | 4.7m/s | -51°C | 0.4% | 26.8hPa | 2.7V | 18:12:15 | 01:48:40 | 00:00:00 | |
| AA1-15 | 2026-09-04 18:07:34 | 50.58248 | 11.87826 | 21° | 9km/h | 24962m | 5.4m/s | -51°C | 0.3% | 26.8hPa | 2.5V | 18:12:15 | 01:48:38 | 00:00:00 | |
| OE5DRO-10 | 2026-09-04 18:07:33 | 50.58246 | 11.87824 | 38° | 11km/h | 24957m | 4.6m/s | -50.9°C | 3.8% | 26.8hPa | 2.6V | 00:00:00 | 00:00:00 | 00:00:00 | |
| DL1XH1-15 | 2026-09-04 18:07:32 | 50.58233 | 11.87798 | 61° | 13km/h | 24926m | 5.9m/s | -51°C | 3.8% | 27hPa | 2.5V | 08:30:00 | 01:48:31 | 00:00:00 | |
| DL1XH-15 | 2026-09-04 18:07:32 | 50.58244 | 11.87821 | 47° | 11km/h | 24952m | 4.7m/s | -51°C | 3.8% | 26.9hPa | 2.6V | 08:30:00 | 01:48:36 | 00:00:00 | |
| DF8AY | 2026-09-04 18:07:30 | 50.58240 | 11.87813 | 52° | 16km/h | 24941m | 5.7m/s | -51°C | 0.3% | 26.9hPa | 2.7V | 18:12:15 | 01:48:34 | 00:00:00 | |
| AM1SDL-15 | 2026-09-04 18:07:29 | 50.58237 | 11.87808 | 53° | 11km/h | 24936m | 4.4m/s | -51.0°C | 3.8% | 26.9hPa | 2.7V | 00:00:00 | 01:48:33 | 00:00:00 | |
| DJTTGO | 2026-09-04 18:07:28 | 50.58237 | 11.87808 | 54° | 18km/h | 24936m | 4.4m/s | -51.0°C | 0.9% | 27.0hPa | 2.7V | 00:00:00 | 00:00:00 | 00:00:00 | |
| DM0DOS-11 | 2026-09-04 18:07:27 | 50.58226 | 11.87790 | 10° | 11km/h | 24901m | 5m/s | -51.2°C | 3.9% | 27.1hPa | 2.7V | 08:30:00 | 01:48:26 | 00:00:00 | |
| HSKMA3-T | 2026-09-04 18:07:26 | 50.58232 | 11.87794 | 63° | 7km/h | 24921m | 4.7m/s | -51°C | 0.3% | 27hPa | 2.6V | 18:12:15 | 01:48:30 | 00:00:00 | |
| AA1-15 | 2026-09-04 18:07:24 | 50.58230 | 11.87792 | 20° | 5km/h | 24912m | 5.4m/s | -51.1°C | 0.3% | 27.1hPa | 2.7V | 18:12:15 | 01:48:28 | 00:00:00 | |
| DF8AY | 2026-09-04 18:07:19 | 50.58218 | 11.87785 | 48° | 9km/h | 24885m | 5.7m/s | -51.3°C | 0.4% | 27.2hPa | 2.6V | 18:12:15 | 01:48:23 | 00:00:00 | |
| PETON7-10 | 2026-09-04 18:07:17 | 50.58216 | 11.87779 | 49° | 11km/h | 24876m | 4.5m/s | 0°C | 0% | 0hPa | 2.6V | 00:00:00 | 00:00:00 | 00:00:00 | |
| DL1XH-west | 2026-09-04 18:07:16 | 50.58214 | 11.87777 | 28° | 9km/h | 24870m | 5.9m/s | -51.4°C | 0.4% | 27.2hPa | 2.7V | 18:12:15 | 01:48:20 | 00:00:00 | |
| DL1XH-15 | 2026-09-04 18:07:15 | 50.58203 | 11.87779 | 332° | 11km/h | 24849m | 5.8m/s | -51.4°C | 3.9% | 27.3hPa | 2.6V | 08:30:00 | 01:48:16 | 00:00:00 | |
| HSKMA3-T | 2026-09-04 18:07:15 | 50.58211 | 11.87776 | 5° | 11km/h | 24865m | 5.2m/s | -51.4°C | 0.4% | 27.2hPa | 2.7V | 18:12:15 | 01:48:19 | 00:00:00 | |
| AA1-15 | 2026-09-04 18:07:13 | 50.58205 | 11.87777 | 341° | 13km/h | 24855m | 5.3m/s | -51.4°C | 0.4% | 27.3hPa | 2.5V | 18:12:15 | 01:48:17 | 00:00:00 | |
| DL1XH1-15 | 2026-09-04 18:07:12 | 50.58189 | 11.87787 | 349° | 13km/h | 24824m | 4.1m/s | -51.4°C | 3.9% | 27.4hPa | 2.6V | 08:30:00 | 01:48:11 | 00:00:00 | |
| DF8AY | 2026-09-04 18:07:09 | 50.58196 | 11.87785 | 342° | 13km/h | 24833m | 5.9m/s | -51.4°C | 0.4% | 27.4hPa | 2.5V | 18:12:15 | 01:48:13 | 00:00:00 | |
| OE5FHM-15 | 2026-09-04 18:07:09 | 50.58195 | 11.87784 | 343° | 9km/h | 24834m | 5.9m/s | -51.4°C | 4.0% | 27.3hPa | 2.5V | 00:00:00 | 01:48:13 | 00:00:00 | |
| DM0DOS-11 | 2026-09-04 18:07:07 | 50.58179 | 11.87789 | 7° | 9km/h | 24797m | 6.2m/s | -51.4°C | 4% | 27.5hPa | 2.5V | 08:30:00 | 01:48:06 | 00:00:00 | |
| DL1XH-west | 2026-09-04 18:07:05 | 50.58184 | 11.87789 | 347° | 7km/h | 24813m | 5.7m/s | -51.5°C | 0.5% | 27.5hPa | 2.7V | 18:12:15 | 01:48:09 | 00:00:00 | |
| HSKMA3-T | 2026-09-04 18:07:04 | 50.58183 | 11.87789 | 349° | 5km/h | 24807m | 4.9m/s | -51.5°C | 0.4% | 27.5hPa | 2.7V | 18:12:15 | 01:48:08 | 00:00:00 | |
| AA1-15 | 2026-09-04 18:07:02 | 50.58179 | 11.87789 | 8° | 9km/h | 24797m | 6.2m/s | -51.4°C | 0.5% | 27.5hPa | 2.5V | 18:12:15 | 01:48:06 | 00:00:00 | |
| DF8AY | 2026-09-04 18:06:59 | 50.58171 | 11.87789 | 347° | 11km/h | 24781m | 5.7m/s | -51.3°C | 0.4% | 27.6hPa | 2.6V | 18:12:15 | 01:48:03 | 00:00:00 | |
| DL6DJ-15 | 2026-09-04 18:06:58 | 50.58167 | 11.87792 | 311° | 7km/h | 24771m | 4.3m/s | -51.3°C | 0.9% | 27.7hPa | 2.7V | 00:00:00 | 00:00:00 | 00:00:00 | |
| DM0DOS-11 | 2026-09-04 18:06:55 | 50.58159 | 11.87803 | 286° | 4km/h | 24734m | 4.5m/s | -51.2°C | 3.9% | 27.8hPa | 2.7V | 08:30:00 | 01:47:54 | 00:00:00 | |
| DL1XH-west | 2026-09-04 18:06:54 | 50.58163 | 11.87798 | 337° | 7km/h | 24755m | 4.9m/s | -51.2°C | 0.4% | 27.7hPa | 2.6V | 18:12:15 | 01:47:58 | 00:00:00 | |
| HSKMA3-T | 2026-09-04 18:06:53 | 50.58161 | 11.87799 | 340° | 5km/h | 24750m | 4.8m/s | -51.2°C | 0.4% | 27.8hPa | 2.6V | 18:12:15 | 01:47:57 | 00:00:00 | |
| AA1-15 | 2026-09-04 18:06:49 | 50.58159 | 11.87804 | 320° | 4km/h | 24729m | 5.5m/s | -51.2°C | 0.4% | 27.8hPa | 2.7V | 18:12:15 | 01:47:53 | 00:00:00 | |
| DF8AY | 2026-09-04 18:06:48 | 50.58157 | 11.87805 | 341° | 7km/h | 24723m | 5.8m/s | -51.2°C | 0.4% | 27.9hPa | 2.6V | 18:12:15 | 01:47:52 | 00:00:00 | |
| DL1XH-15 | 2026-09-04 18:06:47 | 50.58145 | 11.87823 | 304° | 13km/h | 24692m | 5.1m/s | -51°C | 4% | 28hPa | 2.6V | 08:30:00 | 01:47:46 | 00:00:00 | |
| PETON7-10 | 2026-09-04 18:06:46 | 50.58153 | 11.87808 | 333° | 13km/h | 24714m | 4.8m/s | 0°C | 0% | 0hPa | 2.6V | 00:00:00 | 00:00:00 | 00:00:00 | |
| SONCRA | 2026-09-04 18:06:44 | 50.58148 | 11.87814 | 303° | 11km/h | 24702m | 5.4m/s | -51.1°C | 0.9% | 27.9hPa | 2.6V | 00:00:00 | 00:00:00 | 00:00:00 | |
| DM0DOS-11 | 2026-09-04 18:06:43 | 50.58140 | 11.87830 | 328° | 13km/h | 24681m | 5.1m/s | -51°C | 3.9% | 28.1hPa | 2.6V | 08:30:00 | 01:47:44 | 00:00:00 | |
| DL1XH-west | 2026-09-04 18:06:43 | 50.58147 | 11.87818 | 298° | 13km/h | 24697m | 4.4m/s | -51.1°C | 0.5% | 28hPa | 2.5V | 18:12:15 | 01:47:47 | 00:00:00 | |
| HSKMA3-T | 2026-09-04 18:06:42 | 50.58145 | 11.87823 | 305° | 13km/h | 24692m | 5.1m/s | -51.1°C | 0.5% | 28hPa | 2.6V | 18:12:15 | 01:47:46 | 00:00:00 | |
| AA1-15 | 2026-09-04 18:06:39 | 50.58138 | 11.87832 | 330° | 9km/h | 24676m | 4.9m/s | -51°C | 0.4% | 28.1hPa | 2.7V | 18:12:15 | 01:47:43 | 00:00:00 | |
| OE5FHM-15 | 2026-09-04 18:06:39 | 50.58138 | 11.87832 | 330° | 9km/h | 24677m | 4.8m/s | -50.9°C | 3.9% | 28.0hPa | 2.7V | 00:00:00 | 01:47:43 | 00:00:00 | |
| DL1XH-15 | 2026-09-04 18:06:38 | 50.58131 | 11.87842 | 312° | 9km/h | 24640m | 4.2m/s | -50.7°C | 3.8% | 28.2hPa | 2.7V | 08:30:00 | 01:47:36 | 00:00:00 | |
| DF8AY | 2026-09-04 18:06:38 | 50.58135 | 11.87835 | 297° | 4km/h | 24665m | 5.6m/s | -50.9°C | 0.4% | 28.1hPa | 2.7V | 18:12:15 | 01:47:41 | 00:00:00 | |
| S52SK | 2026-09-04 18:06:38 | 50.58136 | 11.87834 | 322° | 7km/h | 24671m | 6.2m/s | -50.9°C | 0.9% | 28.1hPa | 2.5V | 00:00:00 | 00:00:00 | 00:00:00 | |
| DL1JEZ-13 | 2026-09-04 18:06:37 | 50.58136 | 11.87834 | 322° | 7km/h | 24671m | 6.2m/s | -50.9°C | 1.0% | 28.1hPa | 2.5V | 00:00:00 | 00:00:00 | 00:00:00 | |
| DB0UT-7 | 2026-09-04 18:06:36 | 50.58135 | 11.87837 | 280° | 13km/h | 24660m | 4.6m/s | -50.8°C | 3.9% | 28.1hPa | 2.5V | 00:00:00 | 00:00:00 | 00:00:00 | |
| DF2AP-13 | 2026-09-04 18:06:34 | 50.58134 | 11.87838 | 337° | 11km/h | 24649m | 5.6m/s | -50.8°C | 3.9% | 28.1hPa | 2.5V | 00:00:00 | 01:47:38 | 00:00:00 | |
| DM0DOS-11 | 2026-09-04 18:06:33 | 50.58127 | 11.87864 | 283° | 18km/h | 24619m | 4m/s | -50.6°C | 3.8% | 28.3hPa | 2.5V | 08:30:00 | 01:47:32 | 00:00:00 | |
| DL1XH-west | 2026-09-04 18:06:33 | 50.58133 | 11.87839 | 330° | 7km/h | 24644m | 4.4m/s | -50.8°C | 0.4% | 28.2hPa | 2.6V | 18:12:15 | 01:47:37 | 00:00:00 | |
| DF3TZ-5 | 2026-09-04 18:06:33 | 50.58132 | 11.87841 | 312° | 9km/h | 24640m | 4.2m/s | 0°C | -1.0% | 28.2hPa | 2.6V | 00:00:00 | 00:00:00 | 00:00:00 | |
| DL1XH1-15 | 2026-09-04 18:06:32 | 50.58126 | 11.87870 | 291° | 15km/h | 24614m | 5.8m/s | -50.6°C | 3.8% | 28.3hPa | 2.6V | 08:30:00 | 01:47:31 | 00:00:00 | |
| HSKMA3-T | 2026-09-04 18:06:32 | 50.58132 | 11.87841 | 312° | 9km/h | 24640m | 4.2m/s | -50.7°C | 0.4% | 28.2hPa | 2.7V | 18:12:15 | 01:47:36 | 00:00:00 | |
| AA1-15 | 2026-09-04 18:06:28 | 50.58127 | 11.87864 | 284° | 18km/h | 24619m | 4m/s | -50.7°C | 0.3% | 28.3hPa | 2.5V | 18:12:15 | 01:47:32 | 00:00:00 | |
| DF8AY | 2026-09-04 18:06:26 | 50.58124 | 11.87874 | 313° | 11km/h | 24609m | 5.6m/s | -50.6°C | 0.3% | 28.4hPa | 2.6V | 18:12:15 | 01:47:30 | 00:00:00 | |
| DM0DOS-11 | 2026-09-04 18:06:23 | 50.58112 | 11.87889 | 308° | 11km/h | 24568m | 4.8m/s | -50.6°C | 3.8% | 28.5hPa | 2.7V | 08:30:00 | 01:47:22 | 00:00:00 | |
| DJ2DS-15 | 2026-09-04 18:06:23 | 50.58118 | 11.87877 | 354° | 9km/h | 24594m | 5.5m/s | -50.5°C | 3.8% | 28.4hPa | 2.7V | 00:00:00 | 01:47:27 | 00:00:00 | |
| DL1XH1-15 | 2026-09-04 18:06:22 | 50.58111 | 11.87892 | 302° | 9km/h | 24563m | 5m/s | -50.6°C | 3.8% | 28.6hPa | 2.5V | 08:30:00 | 01:47:21 | 00:00:00 | |
| DL1XH-west | 2026-09-04 18:06:22 | 50.58117 | 11.87878 | 325° | 5km/h | 24588m | 5.3m/s | -50.6°C | 0.3% | 28.4hPa | 2.5V | 18:12:15 | 01:47:26 | 00:00:00 | |
| HSKMA3-T | 2026-09-04 18:06:21 | 50.58116 | 11.87880 | 303° | 7km/h | 24583m | 5m/s | -50.6°C | 0.3% | 28.5hPa | 2.5V | 18:12:15 | 01:47:25 | 00:00:00 | |
| AA1-15 | 2026-09-04 18:06:18 | 50.58112 | 11.87889 | 308° | 11km/h | 24568m | 4.8m/s | -50.6°C | 0.4% | 28.5hPa | 2.7V | 18:12:15 | 01:47:22 | 00:00:00 | |
| DL1XH-15 | 2026-09-04 18:06:17 | 50.58112 | 11.87914 | 273° | 15km/h | 24538m | 5m/s | -50.7°C | 3.8% | 28.7hPa | 2.7V | 08:30:00 | 01:47:16 | 00:00:00 | |
| DF8AY | 2026-09-04 18:06:16 | 50.58110 | 11.87895 | 280° | 7km/h | 24558m | 5m/s | -50.7°C | 0.4% | 28.6hPa | 2.5V | 18:12:15 | 01:47:20 | 00:00:00 | |
| AM1SDL-15 | 2026-09-04 18:06:15 | 50.58110 | 11.87898 | 257° | 9km/h | 24554m | 4.9m/s | -50.7°C | 3.8% | 28.6hPa | 2.6V | 00:00:00 | 01:47:19 | 00:00:00 | |
| DM0DOS-11 | 2026-09-04 18:06:13 | 50.58105 | 11.87926 | 3° | 7km/h | 24518m | 5.8m/s | -50.6°C | 3.8% | 28.8hPa | 2.6V | 08:30:00 | 01:47:12 | 00:00:00 | |
| SONCRA | 2026-09-04 18:06:13 | 50.58112 | 11.87908 | 259° | 13km/h | 24543m | 5.4m/s | -50.7°C | 0.9% | 28.7hPa | 2.6V | 00:00:00 | 00:00:00 | 00:00:00 | |
| DL1XH1-15 | 2026-09-04 18:06:12 | 50.58104 | 11.87926 | 22° | 5km/h | 24512m | 4.8m/s | -50.6°C | 3.8% | 28.8hPa | 2.6V | 08:30:00 | 01:47:11 | 00:00:00 | |
| DL1XH-west | 2026-09-04 18:06:11 | 50.58111 | 11.87919 | 292° | 13km/h | 24533m | 4.6m/s | -50.7°C | 0.4% | 28.7hPa | 2.7V | 18:12:15 | 01:47:15 | 00:00:00 | |
| HSKMA3-T | 2026-09-04 18:06:10 | 50.58109 | 11.87923 | 314° | 11km/h | 24529m | 4.8m/s | -50.7°C | 0.3% | 28.7hPa | 2.5V | 18:12:15 | 01:47:14 | 00:00:00 | |
| OE5DXL-15 | 2026-09-04 18:06:10 | 50.58109 | 11.87923 | 314° | 11km/h | 24529m | 4.7m/s | -50.6°C | 3.8% | 28.7hPa | 2.6V | 00:00:00 | 00:00:00 | 00:00:00 | |
| OE5FHM-15 | 2026-09-04 18:06:09 | 50.58107 | 11.87925 | 336° | 11km/h | 24524m | 5.7m/s | -50.6°C | 3.8% | 28.7hPa | 2.6V | 00:00:00 | 01:47:13 | 00:00:00 | |
| EDDB2-11 | 2026-09-04 18:06:08 | 50.58104 | 11.87926 | 22° | 4km/h | 24513m | 4.8m/s | -50.6°C | 0.9% | 28.8hPa | 2.6V | 00:00:00 | 00:00:00 | 00:00:00 | |
| DL1XH-15 | 2026-09-04 18:06:07 | 50.58102 | 11.87942 | 271° | 18km/h | 24487m | 5.1m/s | -50.5°C | 3.8% | 28.9hPa | 2.6V | 08:30:00 | 01:47:06 | 00:00:00 | |
| AA1-15 | 2026-09-04 18:06:07 | 50.58104 | 11.87926 | 23° | 5km/h | 24512m | 4.8m/s | -50.6°C | 0.4% | 28.8hPa | 2.6V | 18:12:15 | 01:47:11 | 00:00:00 | |
| DF8AY | 2026-09-04 18:06:06 | 50.58103 | 11.87925 | 346° | 2km/h | 24508m | 4.4m/s | -50.6°C | 0.4% | 28.8hPa | 2.7V | 18:12:15 | 01:47:10 | 00:00:00 | |
| DL1ZP-14 | 2026-09-04 18:06:05 | 50.58102 | 11.87930 | 274° | 11km/h | 24498m | 5.5m/s | -50.6°C | 0.9% | 28.9hPa | 2.7V | 00:00:00 | 00:00:00 | 00:00:00 | |
| DM0DOS-11 | 2026-09-04 18:06:03 | 50.58103 | 11.87962 | 254° | 9km/h | 24466m | 4.7m/s | -50.5°C | 3.8% | 29hPa | 2.7V | 08:30:00 | 01:47:02 | 00:00:00 | |
| DJ2DS-15 | 2026-09-04 18:06:03 | 50.58102 | 11.87935 | 273° | 13km/h | 24493m | 4.8m/s | -50.5°C | 3.8% | 28.8hPa | 2.7V | 00:00:00 | 01:47:07 | 00:00:00 | |
| DL1XH1-15 | 2026-09-04 18:06:02 | 50.58104 | 11.87966 | 251° | 9km/h | 24461m | 6m/s | -50.5°C | 3.8% | 29hPa | 2.7V | 08:30:00 | 01:47:01 | 00:00:00 | |
| DL1XH-west | 2026-09-04 18:06:01 | 50.58102 | 11.87949 | 270° | 16km/h | 24482m | 5.7m/s | -50.5°C | 0.3% | 28.9hPa | 2.6V | 18:12:15 | 01:47:05 | 00:00:00 | |
| HSKMA3-T | 2026-09-04 18:05:59 | 50.58102 | 11.87959 | 261° | 9km/h | 24471m | 5m/s | -50.5°C | 0.4% | 29hPa | 2.7V | 18:12:15 | 01:47:03 | 00:00:00 | |
| OE5DRO-10 | 2026-09-04 18:05:58 | 50.58103 | 11.87962 | 255° | 13km/h | 24466m | 4.7m/s | -50.5°C | 3.8% | 28.9hPa | 2.7V | 00:00:00 | 00:00:00 | 00:00:00 | |
| DL1XH-15 | 2026-09-04 18:05:57 | 50.58111 | 11.87979 | 200° | 11km/h | 24433m | 4.3m/s | -50.5°C | 3.8% | 29.1hPa | 2.7V | 08:30:00 | 01:46:56 | 00:00:00 | |
| DF8AY | 2026-09-04 18:05:56 | 50.58105 | 11.87973 | 241° | 9km/h | 24450m | 5m/s | -50.5°C | 0.4% | 29.1hPa | 2.5V | 18:12:15 | 01:46:59 | 00:00:00 | |
| AA1-15 | 2026-09-04 18:05:56 | 50.58104 | 11.87969 | 247° | 9km/h | 24455m | 5.7m/s | -50.6°C | 0.3% | 29hPa | 2.5V | 18:12:15 | 01:47:00 | 00:00:00 | |
| DL6DJ-15 | 2026-09-04 18:05:55 | 50.58105 | 11.87973 | 240° | 9km/h | 24450m | 5.0m/s | -50.5°C | 0.9% | 29.1hPa | 2.6V | 00:00:00 | 00:00:00 | 00:00:00 | |
| DM0DOS-11 | 2026-09-04 18:05:53 | 50.58123 | 11.87996 | 235° | 22km/h | 24413m | 4.5m/s | -50.4°C | 3.7% | 29.2hPa | 2.6V | 08:30:00 | 01:46:52 | 00:00:00 | |
| SP3BTT-10 | 2026-09-04 18:05:53 | 50.58108 | 11.87977 | 206° | 20km/h | 24439m | 5.6m/s | -50.4°C | 3.8% | 29.0hPa | 2.7V | 00:00:00 | 00:00:00 | 00:00:00 | |
| DL1XH1-15 | 2026-09-04 18:05:52 | 50.58126 | 11.88003 | 236° | 20km/h | 24408m | 4.7m/s | -50.4°C | 3.7% | 29.2hPa | 2.7V | 08:30:00 | 01:46:51 | 00:00:00 | |
| DL1XH-west | 2026-09-04 18:05:50 | 50.58117 | 11.87985 | 221° | 16km/h | 24424m | 6.2m/s | -50.4°C | 0.3% | 29.2hPa | 2.5V | 18:12:15 | 01:46:54 | 00:00:00 | |
| HSKMA3-T | 2026-09-04 18:05:49 | 50.58120 | 11.87990 | 231° | 20km/h | 24418m | 5.4m/s | -50.4°C | 0.3% | 29.2hPa | 2.6V | 18:12:15 | 01:46:53 | 00:00:00 | |
| D01LWL | 2026-09-04 18:05:48 | 50.58126 | 11.88003 | 236° | 18km/h | 24408m | 4.7m/s | -50.4°C | 0.9% | 29.2hPa | 2.6V | 00:00:00 | 00:00:00 | 00:00:00 | |
| DL1XH-15 | 2026-09-04 18:05:47 | 50.58135 | 11.88019 | 223° | 9km/h | 24383m | 5.9m/s | -50.3°C | 3.6% | 29.4hPa | 2.6V | 08:30:00 | 01:46:46 | 00:00:00 | |
| AA1-15 | 2026-09-04 18:05:45 | 50.58130 | 11.88013 | 228° | 11km/h | 24398m | 5.1m/s | -50.4°C | 0.3% | 29.3hPa | 2.7V | 18:12:15 | 01:46:49 | 00:00:00 | |
| PG1ADW-2 | 2026-09-04 18:05:45 | 50.58130 | 11.88013 | 229° | 15km/h | 24398m | 5.1m/s | -50.3°C | 3.7% | 29.3hPa | 2.5V | 00:00:00 | 01:46:49 | 00:00:00 | |
| DJ2DS-15 | 2026-09-04 18:05:43 | 50.58134 | 11.88017 | 218° | 15km/h | 24389m | 4.5m/s | -50.3°C | 3.6% | 29.3hPa | 2.5V | 00:00:00 | 01:46:47 | 00:00:00 | |
| DL1XH1-15 | 2026-09-04 18:05:42 | 50.58147 | 11.88037 | 200° | 15km/h | 24357m | 5.5m/s | -50.3°C | 3.7% | 29.5hPa | 2.5V | 08:30:00 | 01:46:41 | 00:00:00 | |
| DL1XH-west | 2026-09-04 18:05:40 | 50.58139 | 11.88026 | 229° | 15km/h | 24373m | 4.6m/s | -50.3°C | 0.2% | 29.4hPa | 2.7V | 18:12:15 | 01:46:44 | 00:00:00 | |
| HSKMA3-T | 2026-09-04 18:05:39 | 50.58141 | 11.88030 | 224° | 15km/h | 24368m | 4.7m/s | -50.3°C | 0.3% | 29.4hPa | 2.7V | 18:12:15 | 01:46:43 | 00:00:00 | |
| AA1-15 | 2026-09-04 18:05:34 | 50.58159 | 11.88042 | 205° | 18km/h | 24343m | 5.9m/s | -50.5°C | 0.3% | 29.6hPa | 2.6V | 18:12:15 | 01:46:38 | 00:00:00 | |
| DC4HF-4 | 2026-09-04 18:05:34 | 50.58159 | 11.88042 | 204° | 18km/h | 24343m | 5.9m/s | -50.5°C | 0.9% | 29.6hPa | 2.7V | 00:00:00 | 00:00:00 | 00:00:00 | |
| DF2AP-13 | 2026-09-04 18:05:33 | 50.58163 | 11.88046 | 214° | 20km/h | 24337m | 5.7m/s | -50.5°C | 3.7% | 29.5hPa | 2.7V | 00:00:00 | 01:46:37 | 00:00:00 | |
| DL1XH1-15 | 2026-09-04 18:05:32 | 50.58184 | 11.88073 | 225° | 11km/h | 24305m | 6m/s | -50.6°C | 3.7% | 29.7hPa | 2.7V | 08:30:00 | 01:46:31 | 00:00:00 | |
| HSKMA3-T | 2026-09-04 18:05:28 | 50.58182 | 11.88070 | 223° | 13km/h | 24311m | 4.5m/s | -50.6°C | 0.2% | 29.7hPa | 2.6V | 18:12:15 | 01:46:32 | 00:00:00 | |
| DL1XH-15 | 2026-09-04 18:05:27 | 50.58199 | 11.88080 | 172° | 20km/h | 24279m | 4.4m/s | -50.8°C | 3.7% | 29.8hPa | 2.6V | 08:30:00 | 01:46:26 | 00:00:00 | |
| DF8AY | 2026-09-04 18:05:24 | 50.58191 | 11.88081 | 193° | 13km/h | 24290m | 5.8m/s | -50.7°C | 0.3% | 29.8hPa | 2.6V | 18:12:15 | 01:46:28 | 00:00:00 | |
| AA1-15 | 2026-09-04 18:05:23 | 50.58194 | 11.88081 | 176° | 15km/h | 24284m | 5.5m/s | -50.7°C | 0.3% | 29.8hPa | 2.6V | 18:12:15 | 01:46:27 | 00:00:00 | |
| HSKMA3-T | 2026-09-04 18:05:18 | 50.58223 | 11.88086 | 203° | 27km/h | 24259m | 4.3m/s | -50.8°C | 0.4% | 29.9hPa | 2.5V | 18:12:15 | 01:46:22 | 00:00:00 | |
| DL1XH-west | 2026-09-04 18:05:17 | 50.58229 | 11.88090 | 203° | 27km/h | 24255m | 4.5m/s | -50.8°C | 0.3% | 30hPa | 2.6V | 18:12:15 | 01:46:21 | 00:00:00 | |
| DL1XH-15 | 2026-09-04 18:05:17 | 50.58258 | 11.88095 | 174° | 22km/h | 24230m | 5.4m/s | -50.9°C | 3.8% | 30.1hPa | 2.7V | 08:30:00 | 01:46:16 | 00:00:00 | |
| DF8AY | 2026-09-04 18:05:14 | 50.58247 | 11.88097 | 178° | 22km/h | 24240m | 4.5m/s | -50.9°C | 0.3% | 30hPa | 2.7V | 18:12:15 | 01:46:18 | 00:00:00 | |
| AA1-15 | 2026-09-04 18:05:13 | 50.58252 | 11.88096 | 174° | 22km/h | 24235m | 4.6m/s | -50.9°C | 0.3% | 30hPa | 2.7V | 18:12:15 | 01:46:17 | 00:00:00 | |
| HSKMA3-T | 2026-09-04 18:05:08 | 50.58279 | 11.88092 | 167° | 20km/h | 24210m | 6m/s | -50.9°C | 0.3% | 30.2hPa | 2.6V | 18:12:15 | 01:46:12 | 00:00:00 | |
| DL1XH-west | 2026-09-04 18:05:06 | 50.58289 | 11.88087 | 162° | 24km/h | 24200m | 4.4m/s | -51°C | 0.3% | 30.2hPa | 2.7V | 18:12:15 | 01:46:10 | 00:00:00 | |
| DF8AY | 2026-09-04 18:05:03 | 50.58319 | 11.88079 | 171° | 33km/h | 24179m | 4.9m/s | -51.2°C | 0.3% | 30.3hPa | 2.6V | 18:12:15 | 01:46:06 | 00:00:00 | |
| DM0DOS-11 | 2026-09-04 18:05:03 | 50.58346 | 11.88068 | 162° | 24km/h | 24159m | 5.1m/s | -51.4°C | 3.9% | 30.4hPa | 2.7V | 08:30:00 | 01:46:02 | 00:00:00 | |
| AA1-15 | 2026-09-04 18:05:03 | 50.58311 | 11.88080 | 173° | 33km/h | 24184m | 4.4m/s | -51.1°C | 0.3% | 30.3hPa | 2.6V | 18:12:15 | 01:46:07 | 00:00:00 | |
| HSKMA3-T | 2026-09-04 18:04:58 | 50.58346 | 11.88068 | 163° | 24km/h | 24159m | 5.1m/s | -51.4°C | 0.4% | 30.4hPa | 2.7V | 18:12:15 | 01:46:02 | 00:00:00 | |
| DL1XH-west | 2026-09-04 18:04:55 | 50.58364 | 11.88060 | 165° | 24km/h | 24143m | 4.5m/s | -51.6°C | 0.4% | 30.5hPa | 2.6V | 18:12:15 | 01:45:59 | 00:00:00 | |
| DM0DOS-11 | 2026-09-04 18:04:54 | 50.58407 | 11.88029 | 154° | 31km/h | 24107m | 4.7m/s | -51.7°C | 3.9% | 30.6hPa | 2.7V | 08:30:00 | 01:45:52 | 00:00:00 | |
| DF8AY | 2026-09-04 18:04:53 | 50.58375 | 11.88054 | 154° | 22km/h | 24132m | 5.5m/s | -51.6°C | 0.4% | 30.5hPa | 2.7V | 18:12:15 | 01:45:57 | 00:00:00 | |
| AA1-15 | 2026-09-04 18:04:52 | 50.58380 | 11.88050 | 151° | 24km/h | 24127m | 4.2m/s | -51.6°C | 0.4% | 30.6hPa | 2.5V | 18:12:15 | 01:45:56 | 00:00:00 | |
| AU51GT2 | 2026-09-04 18:04:50 | 50.58392 | 11.88040 | 154° | 29km/h | 24117m | 5.7m/s | -51.7°C | 1.0% | 30.6hPa | 2.6V | 00:00:00 | 00:00:00 | 00:00:00 | |
| DJ2DS-15 | 2026-09-04 18:04:48 | 50.58407 | 11.88029 | 154° | 31km/h | 24108m | 4.7m/s | -51.7°C | 1.0% | 30.6hPa | 2.6V | 00:00:00 | 00:00:00 | 00:00:00 | |
| DL1XH-15 | 2026-09-04 18:04:47 | 50.58434 | 11.88008 | 157° | 13km/h | 24077m | 4.7m/s | -51.9°C | 4% | 30.8hPa | 2.6V | 08:30:00 | 01:45:46 | 00:00:00 | |
| HSKMA3-T | 2026-09-04 18:04:47 | 50.58413 | 11.88024 | 152° | 27km/h | 24102m | 5.5m/s | -51.8°C | 0.3% | 30.6hPa | 2.7V | 18:12:15 | 01:45:51 | 00:00:00 | |
| D01LWL | 2026-09-04 18:04:45 | 50.58423 | 11.88015 | 151° | 18km/h | 24093m | 4.6m/s | -51.8°C | 0.9% | 30.7hPa | 2.6V | 00:00:00 | 00:00:00 | 00:00:00 | |
| DL1XH-west | 2026-09-04 18:04:44 | 50.58427 | 11.88012 | 156° | 16km/h | 24088m | 5.5m/s | -51.8°C | 0.5% | 30.7hPa | 2.6V | 18:12:15 | 01:45:48 | 00:00:00 | |
| DM0DOS-11 | 2026-09-04 18:04:43 | 50.58443 | 11.87994 | 125° | 15km/h | 24057m | 4.4m/s | -51.9°C | 4.1% | 30.9hPa | 2.6V | 08:30:00 | 01:45:42 | 00:00:00 | |
| DJ2DS-15 | 2026-09-04 18:04:43 | 50.58431 | 11.88010 | 161° | 11km/h | 24083m | 5.0m/s | -51.8°C | 4.0% | 30.7hPa | 2.6V | 00:00:00 | 01:45:47 | 00:00:00 | |
| DL1XH1-15 | 2026-09-04 18:04:42 | 50.58445 | 11.87989 | 134° | 16km/h | 24052m | 5.8m/s | -51.9°C | 4.1% | 30.9hPa | 2.6V | 08:30:00 | 01:45:41 | 00:00:00 | |
| AA1-15 | 2026-09-04 18:04:42 | 50.58434 | 11.88008 | 158° | 13km/h | 24077m | 4.7m/s | -51.9°C | 0.4% | 30.8hPa | 2.6V | 18:12:15 | 01:45:46 | 00:00:00 | |
| PG1ADW-2 | 2026-09-04 18:04:42 | 50.58434 | 11.88008 | 158° | 13km/h | 24078m | 4.7m/s | -51.8°C | 4.0% | 30.7hPa | 2.7V | 00:00:00 | 00:00:00 | 00:00:00 | |
| NBG1-10 | 2026-09-04 18:04:41 | 50.58437 | 11.88006 | 145° | 11km/h | 24073m | 4.9m/s | -51.8°C | 4.0% | 30.7hPa | 2.7V | 00:00:00 | 01:45:45 | 00:00:00 | |
| OE5DXL-15 | 2026-09-04 18:04:40 | 50.58439 | 11.88002 | 128° | 11km/h | 24068m | 5.9m/s | -51.8°C | 4.0% | 30.8hPa | 2.7V | 00:00:00 | 00:00:00 | 00:00:00 | |
| OE5FHM-15 | 2026-09-04 18:04:39 | 50.58441 | 11.87998 | 120° | 11km/h | 24062m | 4.5m/s | -51.8°C | 4.0% | 30.8hPa | 2.7V | 00:00:00 | 01:45:43 | 08:30:00 | |
| DH8WE-5 | 2026-09-04 18:04:38 | 50.58443 | 11.87993 | 126° | 15km/h | 24058m | 4.4m/s | -51.9°C | 1.0% | 30.9hPa | 2.6V | 00:00:00 | 00:00:00 | 00:00:00 | |
| DL1XH-15 | 2026-09-04 18:04:37 | 50.58463 | 11.87968 | 136° | 15km/h | 24027m | 4.6m/s | -51.9°C | 4% | 31hPa | 2.6V | 08:30:00 | 01:45:36 | 00:00:00 | |
| HSKMA3-T | 2026-09-04 18:04:37 | 50.58445 | 11.87989 | 135° | 16km/h | 24052m | 5.8m/s | -51.9°C | 0.5% | 30.9hPa | 2.6V | 18:12:15 | 01:45:41 | 00:00:00 | |
| DL1XH-west | 2026-09-04 18:04:34 | 50.58456 | 11.87976 | 144° | 18km/h | 24037m | 5.7m/s | -52°C | 0.5% | 31hPa | 2.7V | 18:12:15 | 01:45:38 | 00:00:00 | |
| DM0DOS-11 | 2026-09-04 18:04:33 | 50.58471 | 11.87960 | 163° | 5km/h | 24007m | 4.6m/s | -51.9°C | 4% | 31.1hPa | 2.7V | 08:30:00 | 01:45:32 | 00:00:00 | |
| DL1XH1-15 | 2026-09-04 18:04:33 | 50.58472 | 11.87959 | 132° | 4km/h | 24001m | 5.8m/s | -51.9°C | 4% | 31.1hPa | 2.7V | 08:30:00 | 01:45:31 | 00:00:00 | |
| AA1-15 | 2026-09-04 18:04:32 | 50.58463 | 11.87968 | 137° | 15km/h | 24027m | 4.6m/s | -51.9°C | 0.5% | 31hPa | 2.6V | 18:12:15 | 01:45:36 | 00:00:00 | |
| DF8AY | 2026-09-04 18:04:31 | 50.58465 | 11.87965 | 142° | 13km/h | 24022m | 4.5m/s | -51.9°C | 0.5% | 31.1hPa | 2.6V | 18:12:15 | 01:45:35 | 00:00:00 | |
| HSKMA3-T | 2026-09-04 18:04:26 | 50.58473 | 11.87958 | 71° | 4km/h | 23996m | 4.9m/s | -51.8°C | 0.4% | 31.2hPa | 2.6V | 18:12:15 | 01:45:30 | 00:00:00 | |
| DL1XH-15 | 2026-09-04 18:04:25 | 50.58473 | 11.87953 | 160° | 5km/h | 23976m | 4.8m/s | -51.9°C | 4% | 31.3hPa | 2.7V | 08:30:00 | 01:45:26 | 00:00:00 | |
| DL3JIN-12 | 2026-09-04 18:04:24 | 50.58472 | 11.87956 | 65° | 5km/h | 23992m | 4.1m/s | -51.8°C | 1.0% | 31.2hPa | 2.6V | 00:00:00 | 00:00:00 | 00:00:00 | |
| DM0DOS-11 | 2026-09-04 18:04:23 | 50.58480 | 11.87948 | 166° | 9km/h | 23957m | 4.6m/s | -52°C | 4% | 31.4hPa | 2.6V | 08:30:00 | 01:45:22 | 00:00:00 | |
| DJ2DS-15 | 2026-09-04 18:04:23 | 50.58472 | 11.87954 | 144° | 9km/h | 23982m | 5.3m/s | -51.8°C | 3.9% | 31.2hPa | 2.6V | 00:00:00 | 01:45:27 | 08:30:00 | |
| DL1XH1-15 | 2026-09-04 18:04:22 | 50.58482 | 11.87948 | 181° | 11km/h | 23951m | 6.1m/s | -52°C | 4% | 31.4hPa | 2.6V | 08:30:00 | 01:45:21 | 00:00:00 | |
| AA1-15 | 2026-09-04 18:04:21 | 50.58474 | 11.87952 | 158° | 5km/h | 23971m | 5.6m/s | -51.9°C | 0.4% | 31.3hPa | 2.7V | 18:12:15 | 01:45:25 | 00:00:00 | |
| DF8AY | 2026-09-04 18:04:20 | 50.58476 | 11.87951 | 148° | 7km/h | 23966m | 5.3m/s | -51.9°C | 0.5% | 31.3hPa | 2.7V | 18:12:15 | 01:45:24 | 00:00:00 | |
| AU51GT2 | 2026-09-04 18:04:19 | 50.58478 | 11.87950 | 153° | 7km/h | 23961m | 4.0m/s | -52.0°C | 1.0% | 31.4hPa | 2.6V | 00:00:00 | 00:00:00 | 00:00:00 | |
| KRY50SP | 2026-09-04 18:04:18 | 50.58480 | 11.87948 | 168° | 9km/h | 23957m | 4.6m/s | -52.0°C | 0% | 0hPa | 2.6V | 00:00:00 | 00:00:00 | 00:00:00 | |
| DL1XH-15 | 2026-09-04 18:04:17 | 50.58497 | 11.87948 | 162° | 11km/h | 23925m | 4.3m/s | -52.1°C | 4.1% | 31.5hPa | 2.6V | 08:30:00 | 01:45:16 | 00:00:00 | |
| HSKMA3-T | 2026-09-04 18:04:16 | 50.58485 | 11.87949 | 189° | 13km/h | 23946m | 5.3m/s | -52°C | 0.5% | 31.4hPa | 2.6V | 18:12:15 | 01:45:20 | 00:00:00 | |
| AM1SDL-15 | 2026-09-04 18:04:15 | 50.58488 | 11.87949 | 188° | 11km/h | 23941m | 4.9m/s | -52.0°C | 4.1% | 31.4hPa | 2.7V | 00:00:00 | 01:45:19 | 00:00:00 | |
| D01LWL | 2026-09-04 18:04:14 | 50.58492 | 11.87950 | 179° | 11km/h | 23935m | 5.9m/s | -52.0°C | 1.0% | 31.5hPa | 2.7V | 00:00:00 | 00:00:00 | 00:00:00 | |
| DM0DOS-11 | 2026-09-04 18:04:13 | 50.58508 | 11.87946 | 181° | 11km/h | 23906m | 4.5m/s | -52.2°C | 4.1% | 31.6hPa | 2.7V | 08:30:00 | 01:45:12 | 00:00:00 | |
| DL1XH1-15 | 2026-09-04 18:04:12 | 50.58511 | 11.87946 | 171° | 9km/h | 23901m | 5.6m/s | -52.2°C | 4.1% | 31.7hPa | 2.6V | 08:30:00 | 01:45:11 | 00:00:00 | |
| AA1-15 | 2026-09-04 18:04:09 | 50.58505 | 11.87946 | 182° | 13km/h | 23911m | 4.4m/s | -52.2°C | 0.5% | 31.6hPa | 2.7V | 18:12:15 | 01:45:13 | 00:00:00 | |
| HSKMA3-T | 2026-09-04 18:04:05 | 50.58515 | 11.87944 | 155° | 11km/h | 23891m | 4.2m/s | -52.2°C | 0.5% | 31.7hPa | 2.6V | 18:12:15 | 01:45:09 | 00:00:00 | |
| EDDB2-11 | 2026-09-04 18:04:04 | 50.58522 | 11.87941 | 173° | 18km/h | 23881m | 5.6m/s | -52.2°C | 1.0% | 31.7hPa | 2.6V | 00:00:00 | 00:00:00 | 00:00:00 | |
| S3001 | 2026-09-04 18:04:03 | 50.58550 | 11.87937 | 174° | 20km/h | 23856m | 4.6m/s | -52.1°C | 1.0% | 31.9hPa | 2.6V | 00:00:00 | 00:00:00 | 00:00:00 | |
| DL1XH1-15 | 2026-09-04 18:04:02 | 50.58555 | 11.87937 | 177° | 22km/h | 23851m | 5.4m/s | -52.1°C | 4% | 31.9hPa | 2.6V | 08:30:00 | 01:45:01 | 00:00:00 | |
| DF8AY | 2026-09-04 18:03:58 | 50.58550 | 11.87937 | 175° | 22km/h | 23856m | 4.6m/s | -52.1°C | 0.5% | 31.9hPa | 2.6V | 18:12:15 | 01:45:02 | 00:00:00 | |
| AA1-15 | 2026-09-04 18:03:55 | 50.58567 | 11.87936 | 177° | 22km/h | 23840m | 4.7m/s | -52°C | 0.5% | 31.9hPa | 2.7V | 18:12:15 | 01:44:59 | 00:00:00 | |
| HSKMA3-T | 2026-09-04 18:03:54 | 50.58572 | 11.87935 | 169° | 22km/h | 23835m | 5.3m/s | -52°C | 0.5% | 32hPa | 2.7V | 18:12:15 | 01:44:58 | 00:00:00 | |
| DL1XH1-15 | 2026-09-04 18:03:52 | 50.58613 | 11.87901 | 156° | 29km/h | 23799m | 5.8m/s | -51.9°C | 4% | 32.1hPa | 2.7V | 08:30:00 | 01:44:51 | 00:00:00 | |
| DF8AY | 2026-09-04 18:03:47 | 50.58613 | 11.87901 | 156° | 29km/h | 23799m | 5.8m/s | -51.9°C | 0.5% | 32.1hPa | 2.7V | 18:12:15 | 01:44:51 | 00:00:00 | |
| DC4HF-4 | 2026-09-04 18:03:46 | 50.58626 | 11.87893 | 163° | 26km/h | 23788m | 4.8m/s | -51.9°C | 0.9% | 32.2hPa | 2.6V | 00:00:00 | 00:00:00 | 00:00:00 | |
| DL1XH-west | 2026-09-04 18:03:45 | 50.58994 | 11.87324 | 117° | 20km/h | 23169m | 4.9m/s | -52°C | 0.5% | 35.5hPa | 2.6V | 18:12:15 | 01:42:44 | 00:00:00 | |
| DL1XH-15 | 2026-09-04 18:03:45 | 50.58645 | 11.87889 | 175° | 24km/h | 23773m | 3.7m/s | -51.8°C | 3.9% | 32.3hPa | 2.7V | 08:30:00 | 01:44:46 | 00:00:00 | |
| AA1-15 | 2026-09-04 18:03:45 | 50.58626 | 11.87893 | 163° | 26km/h | 23788m | 4.8m/s | -51.9°C | 0.4% | 32.2hPa | 2.6V | 18:12:15 | 01:44:49 | 00:00:00 | |
| HSKMA3-T | 2026-09-04 18:03:43 | 50.58639 | 11.87890 | 175° | 26km/h | 23778m | 5.1m/s | -51.8°C | 0.4% | 32.2hPa | 2.7V | 18:12:15 | 01:44:47 | 00:00:00 | |
| DJ2DS-15 | 2026-09-04 18:03:43 | 50.58639 | 11.87890 | 176° | 27km/h | 23778m | 5.0m/s | -51.8°C | 3.9% | 32.2hPa | 2.7V | 00:00:00 | 01:44:47 | 00:00:00 | |
| DL1XH1-15 | 2026-09-04 18:03:42 | 50.58670 | 11.87868 | 138° | 29km/h | 23747m | 5.6m/s | -51.9°C | 4% | 32.4hPa | 2.7V | 08:30:00 | 01:44:41 | 00:00:00 | |
| DF8AY | 2026-09-04 18:03:37 | 50.58670 | 11.87868 | 138° | 29km/h | 23747m | 5.6m/s | -51.9°C | 0.4% | 32.4hPa | 2.7V | 18:12:15 | 01:44:41 | 00:00:00 | |
| DJ2DS-15 | 2026-09-04 18:03:36 | 50.58676 | 11.87859 | 138° | 31km/h | 23742m | 4.6m/s | -51.9°C | 1.0% | 32.5hPa | 2.6V | 00:00:00 | 00:00:00 | 00:00:00 | |
| DL1XH-15 | 2026-09-04 18:03:35 | 50.58701 | 11.87828 | 150° | 31km/h | 23722m | 4.8m/s | -52°C | 4% | 32.5hPa | 2.6V | 08:30:00 | 01:44:36 | 00:00:00 | |
| AA1-15 | 2026-09-04 18:03:34 | 50.58689 | 11.87843 | 139° | 31km/h | 23732m | 5.9m/s | -51.9°C | 0.4% | 32.5hPa | 2.6V | 18:12:15 | 01:44:38 | 00:00:00 | |
| HSKMA3-T | 2026-09-04 18:03:33 | 50.58695 | 11.87835 | 143° | 31km/h | 23727m | 4.8m/s | -51.9°C | 0.5% | 32.5hPa | 2.6V | 18:12:15 | 01:44:37 | 00:00:00 | |
| EDDB2-11 | 2026-09-04 18:03:33 | 50.58701 | 11.87828 | 150° | 29km/h | 23722m | 4.8m/s | -52.0°C | 1.0% | 32.6hPa | 2.6V | 00:00:00 | 00:00:00 | 00:00:00 | |
| DL1XH1-15 | 2026-09-04 18:03:32 | 50.58738 | 11.87809 | 156° | 26km/h | 23697m | 5.2m/s | -51.9°C | 4% | 32.7hPa | 2.6V | 08:30:00 | 01:44:31 | 00:00:00 | |
| S3001 | 2026-09-04 18:03:32 | 50.58724 | 11.87815 | 165° | 31km/h | 23707m | 4.1m/s | -51.9°C | 1.0% | 32.6hPa | 2.7V | 00:00:00 | 00:00:00 | 00:00:00 | |
| DL1ZP-14 | 2026-09-04 18:03:29 | 50.58724 | 11.87815 | 165° | 31km/h | 23707m | 4.1m/s | -51.9°C | 1.0% | 32.6hPa | 2.7V | 00:00:00 | 00:00:00 | 00:00:00 | |
| AM1SDL-15 | 2026-09-04 18:03:27 | 50.58738 | 11.87809 | 157° | 29km/h | 23697m | 5.2m/s | -51.9°C | 4.0% | 32.6hPa | 2.6V | 00:00:00 | 01:44:31 | 00:00:00 | |
| DL1XH-15 | 2026-09-04 18:03:27 | 50.58765 | 11.87777 | 134° | 31km/h | 23673m | 3.9m/s | -52°C | 4% | 32.8hPa | 2.7V | 08:30:00 | 01:44:26 | 00:00:00 | |
| DF7PN | 2026-09-04 18:03:26 | 50.58754 | 11.87792 | 140° | 26km/h | 23682m | 5.5m/s | -52.0°C | 1.0% | 32.8hPa | 2.6V | 00:00:00 | 00:00:00 | 00:00:00 | |
| DF8AY | 2026-09-04 18:03:26 | 50.58743 | 11.87804 | 149° | 24km/h | 23692m | 4.4m/s | -52°C | 0.5% | 32.7hPa | 2.6V | 18:12:15 | 01:44:30 | 00:00:00 | |
| DM0DOS-11 | 2026-09-04 18:03:23 | 50.58784 | 11.87739 | 132° | 27km/h | 23653m | 4.7m/s | -52°C | 4% | 32.9hPa | 2.6V | 08:30:00 | 01:44:22 | 00:00:00 | |
| HSKMA3-T | 2026-09-04 18:03:23 | 50.58759 | 11.87785 | 139° | 29km/h | 23677m | 4.6m/s | -52°C | 0.4% | 32.8hPa | 2.7V | 18:12:15 | 01:44:27 | 00:00:00 | |
| AA1-15 | 2026-09-04 18:03:21 | 50.58770 | 11.87767 | 130° | 31km/h | 23668m | 5m/s | -52°C | 0.5% | 32.8hPa | 2.7V | 18:12:15 | 01:44:25 | 00:00:00 | |
| DL6DJ-15 | 2026-09-04 18:03:20 | 50.58775 | 11.87757 | 125° | 31km/h | 23663m | 5.8m/s | -52.0°C | 1.0% | 32.9hPa | 2.6V | 00:00:00 | 00:00:00 | 00:00:00 | |
| ANDY1245 | 2026-09-04 18:03:18 | 50.58780 | 11.87747 | 128° | 29km/h | 23658m | 4.6m/s | -52.0°C | 1.0% | 32.9hPa | 2.6V | 00:00:00 | 00:00:00 | 00:00:00 | |
| DL1XH-15 | 2026-09-04 18:03:17 | 50.58819 | 11.87701 | 138° | 29km/h | 23624m | 4.8m/s | -52.2°C | 4% | 33hPa | 2.6V | 08:30:00 | 01:44:16 | 00:00:00 | |
| DF8AY | 2026-09-04 18:03:15 | 50.58801 | 11.87720 | 153° | 29km/h | 23639m | 3.7m/s | -52.1°C | 0.4% | 33hPa | 2.7V | 18:12:15 | 01:44:19 | 00:00:00 | |
| S52SK | 2026-09-04 18:03:14 | 50.58801 | 11.87719 | 154° | 29km/h | 23639m | 3.7m/s | -52.1°C | 0% | 0hPa | 2.6V | 00:00:00 | 00:00:00 | 00:00:00 | |
| DM0DOS-11 | 2026-09-04 18:03:13 | 50.58841 | 11.87671 | 140° | 27km/h | 23604m | 4.8m/s | -52.2°C | 4.1% | 33.1hPa | 2.6V | 08:30:00 | 01:44:12 | 00:00:00 | |
| HSKMA3-T | 2026-09-04 18:03:13 | 50.58814 | 11.87708 | 144° | 29km/h | 23629m | 5.2m/s | -52.1°C | 0.5% | 33hPa | 2.6V | 18:12:15 | 01:44:17 | 00:00:00 | |
| AA1-15 | 2026-09-04 18:03:11 | 50.58825 | 11.87693 | 137° | 29km/h | 23620m | 4.2m/s | -52.2°C | 0.5% | 33.1hPa | 2.6V | 18:12:15 | 01:44:15 | 00:00:00 | |
| DK5PH-5 | 2026-09-04 18:03:11 | 50.58825 | 11.87693 | 138° | 22km/h | 23620m | 4.2m/s | -52.1°C | 4.0% | 33.0hPa | 2.6V | 00:00:00 | 01:44:15 | 00:00:00 | |
| DC4HF-4 | 2026-09-04 18:03:10 | 50.58835 | 11.87678 | 141° | 27km/h | 23609m | 5.4m/s | -52.2°C | 1.0% | 33.1hPa | 2.7V | 00:00:00 | 00:00:00 | 00:00:00 | |
| OE5FHM-15 | 2026-09-04 18:03:09 | 50.58835 | 11.87678 | 142° | 22km/h | 23609m | 5.3m/s | -52.1°C | 4.1% | 33.1hPa | 2.7V | 00:00:00 | 01:44:13 | 00:00:00 | |
| DL1XH-15 | 2026-09-04 18:03:07 | 50.58871 | 11.87622 | 135° | 29km/h | 23574m | 4.5m/s | -52.5°C | 4.2% | 33.3hPa | 2.7V | 08:30:00 | 01:44:06 | 00:00:00 | |
| DF8AY | 2026-09-04 18:03:05 | 50.58855 | 11.87648 | 130° | 29km/h | 23588m | 4.1m/s | -52.4°C | 0.5% | 33.2hPa | 2.6V | 18:12:15 | 01:44:09 | 00:00:00 | |
| HSKMA3-T | 2026-09-04 18:03:02 | 50.58871 | 11.87622 | 136° | 29km/h | 23574m | 4.5m/s | -52.5°C | 0.6% | 33.3hPa | 2.7V | 18:12:15 | 01:44:06 | 00:00:00 | |
| EDDB2-11 | 2026-09-04 18:03:02 | 50.58876 | 11.87613 | 133° | 27km/h | 23569m | 5.0m/s | -52.5°C | 1.0% | 33.3hPa | 2.6V | 00:00:00 | 00:00:00 | 00:00:00 | |
| S3001 | 2026-09-04 18:03:01 | 50.58881 | 11.87605 | 126° | 26km/h | 23564m | 5.5m/s | -52.5°C | 1.1% | 33.4hPa | 2.6V | 00:00:00 | 00:00:00 | 00:00:00 | |
| DJ2DS-15 | 2026-09-04 18:03:00 | 50.58884 | 11.87596 | 121° | 24km/h | 23559m | 4.2m/s | -52.4°C | 1.0% | 33.4hPa | 2.6V | 00:00:00 | 00:00:00 | 00:00:00 | |
| DL1XH-15 | 2026-09-04 18:02:58 | 50.58901 | 11.87554 | 119° | 16km/h | 23524m | 4.6m/s | -52.3°C | 4.1% | 33.6hPa | 2.6V | 08:30:00 | 01:43:56 | 00:00:00 | |
| DM0DOS-11 | 2026-09-04 18:02:56 | 50.58898 | 11.87566 | 116° | 16km/h | 23534m | 5.6m/s | -52.3°C | 4.1% | 33.5hPa | 2.6V | 08:30:00 | 01:43:58 | 00:00:00 | |
| AA1-15 | 2026-09-04 18:02:56 | 50.58893 | 11.87576 | 129° | 16km/h | 23544m | 4.8m/s | -52.4°C | 0.5% | 33.5hPa | 2.7V | 18:12:15 | 01:44:00 | 00:00:00 | |
| DF8AY | 2026-09-04 18:02:54 | 50.58898 | 11.87566 | 116° | 16km/h | 23534m | 5.6m/s | -52.3°C | 0.5% | 33.5hPa | 2.6V | 18:12:15 | 01:43:58 | 00:00:00 | |
| DO9LL-15 | 2026-09-04 18:02:54 | 50.58898 | 11.87566 | 117° | 15km/h | 23534m | 5.6m/s | -52.3°C | 4.1% | 33.5hPa | 2.6V | 00:00:00 | 01:43:58 | 00:00:00 | |
| DL1XH1-15 | 2026-09-04 18:02:52 | 50.58916 | 11.87526 | 120° | 20km/h | 23499m | 4.8m/s | -52.2°C | 4.1% | 33.7hPa | 2.6V | 08:30:00 | 01:43:51 | 00:00:00 | |
| HSKMA3-T | 2026-09-04 18:02:52 | 50.58901 | 11.87554 | 119° | 16km/h | 23524m | 4.6m/s | -52.3°C | 0.5% | 33.6hPa | 2.6V | 18:12:15 | 01:43:56 | 00:00:00 | |
| DO3MHA-11 | 2026-09-04 18:02:52 | 50.58901 | 11.87554 | 120° | 18km/h | 23524m | 4.5m/s | -52.3°C | 4.1% | 33.5hPa | 2.6V | 00:00:00 | 01:43:56 | 00:00:00 | |
| DM0DOS-11 | 2026-09-04 18:02:50 | 50.58923 | 11.87505 | 122° | 18km/h | 23484m | 5.3m/s | -52.1°C | 4.1% | 33.8hPa | 2.6V | 08:30:00 | 01:43:48 | 00:00:00 | |
| AU51GT2 | 2026-09-04 18:02:46 | 50.58921 | 11.87512 | 117° | 18km/h | 23490m | 5.0m/s | -52.1°C | -1.0% | 33.8hPa | 2.6V | 00:00:00 | 00:00:00 | 00:00:00 | |
| DF8AY | 2026-09-04 18:02:44 | 50.58923 | 11.87505 | 122° | 18km/h | 23485m | 5.3m/s | -52.1°C | 0.5% | 33.8hPa | 2.6V | 18:12:15 | 01:43:48 | 00:00:00 | |
| DL1XH-15 | 2026-09-04 18:02:43 | 50.58928 | 11.87495 | 125° | 15km/h | 23475m | 4m/s | -52.1°C | 4.2% | 33.8hPa | 2.7V | 08:30:00 | 01:43:46 | 00:00:00 | |
| DJ2DS-15 | 2026-09-04 18:02:43 | 50.58926 | 11.87500 | 127° | 11km/h | 23480m | 4.8m/s | -52.1°C | 4.2% | 33.7hPa | 2.6V | 00:00:00 | 01:43:47 | 00:00:00 | |
| DL1XH1-15 | 2026-09-04 18:02:42 | 50.58931 | 11.87472 | 105° | 9km/h | 23449m | 5.4m/s | -52.2°C | 4.2% | 33.9hPa | 2.6V | 08:30:00 | 01:43:41 | 00:00:00 | |
| AA1-15 | 2026-09-04 18:02:42 | 50.58928 | 11.87495 | 125° | 15km/h | 23475m | 4.1m/s | -52.2°C | 0.6% | 33.8hPa | 2.7V | 18:12:15 | 01:43:46 | 00:00:00 | |
| HSKMA3-T | 2026-09-04 18:02:41 | 50.58930 | 11.87490 | 112° | 13km/h | 23470m | 5.2m/s | -52.2°C | 0.6% | 33.9hPa | 2.7V | 18:12:15 | 01:43:45 | 00:00:00 | |
| DK5PH-5 | 2026-09-04 18:02:41 | 50.58930 | 11.87490 | 112° | 9km/h | 23471m | 5.2m/s | -52.1°C | 4.2% | 33.8hPa | 2.6V | 00:00:00 | 01:43:45 | 00:00:00 | |
| OE5DXL-15 | 2026-09-04 18:02:40 | 50.58930 | 11.87485 | 98° | 9km/h | 23465m | 5.5m/s | -52.1°C | 4.1% | 33.8hPa | 2.6V | 00:00:00 | 00:00:00 | 00:00:00 | |
| DM0DOS-11 | 2026-09-04 18:02:39 | 50.58934 | 11.87460 | 112° | 13km/h | 23435m | 5.7m/s | -52.1°C | 4.1% | 34hPa | 2.7V | 08:30:00 | 01:43:38 | 00:00:00 | |
| OE5FHM-15 | 2026-09-04 18:02:39 | 50.58930 | 11.87480 | 90° | 9km/h | 23460m | 4.5m/s | -52.1°C | 4.1% | 33.9hPa | 2.6V | 00:00:00 | 01:43:43 | 00:00:00 | |
| DL1XH-15 | 2026-09-04 18:02:37 | 50.58937 | 11.87450 | 109° | 15km/h | 23425m | 4.4m/s | -52.1°C | 4.1% | 34.1hPa | 2.6V | 08:30:00 | 01:43:36 | 00:00:00 | |
| DF8AY | 2026-09-04 18:02:33 | 50.58936 | 11.87456 | 108° | 15km/h | 23430m | 5m/s | -52.1°C | 0.5% | 34.1hPa | 2.6V | 18:12:15 | 01:43:37 | 00:00:00 | |
| HSKMA3-T | 2026-09-04 18:02:31 | 50.58938 | 11.87445 | 119° | 15km/h | 23421m | 5.4m/s | -52.1°C | 0.4% | 34.1hPa | 2.6V | 18:12:15 | 01:43:35 | 00:00:00 | |
| EDDB2-11 | 2026-09-04 18:02:30 | 50.58940 | 11.87441 | 131° | 13km/h | 23415m | 5.5m/s | -52.1°C | 1.0% | 34.1hPa | 2.7V | 00:00:00 | 00:00:00 | 00:00:00 | |
| DM0DOS-11 | 2026-09-04 18:02:29 | 50.58945 | 11.87428 | 64° | 2km/h | 23385m | 5.6m/s | -52°C | 4% | 34.3hPa | 2.7V | 08:30:00 | 01:43:28 | 00:00:00 | |
| NBG1-10 | 2026-09-04 18:02:29 | 50.58942 | 11.87437 | 140° | 5km/h | 23410m | 4.2m/s | -52.0°C | 4.1% | 34.1hPa | 2.7V | 00:00:00 | 01:43:33 | 00:00:00 | |
| OM5KV | 2026-09-04 18:02:28 | 50.58942 | 11.87437 | 140° | 13km/h | 23410m | 4.3m/s | -52.0°C | 1.0% | 34.1hPa | 2.7V | 00:00:00 | 00:00:00 | 00:00:00 | |
| DL1XH-15 | 2026-09-04 18:02:27 | 50.58945 | 11.87426 | 69° | 4km/h | 23375m | 4.5m/s | -52°C | 4% | 34.4hPa | 2.7V | 08:30:00 | 01:43:26 | 00:00:00 | |
| DF8AY | 2026-09-04 18:02:23 | 50.58946 | 11.87427 | 73° | 2km/h | 23380m | 4.6m/s | -52°C | 0.5% | 34.3hPa | 2.7V | 18:12:15 | 01:43:27 | 00:00:00 | |
| HSKMA3-T | 2026-09-04 18:02:21 | 50.58945 | 11.87424 | 67° | 7km/h | 23370m | 5.8m/s | -52°C | 0.5% | 34.4hPa | 2.6V | 18:12:15 | 01:43:25 | 00:00:00 | |
| OM5KV | 2026-09-04 18:02:20 | 50.58945 | 11.87424 | 68° | 7km/h | 23370m | 5.8m/s | -52.0°C | 1.0% | 34.4hPa | 2.6V | 00:00:00 | 00:00:00 | 00:00:00 | |
| DM0DOS-11 | 2026-09-04 18:02:19 | 50.58949 | 11.87402 | 113° | 5km/h | 23336m | 5.3m/s | -51.9°C | 4.1% | 34.6hPa | 2.6V | 08:30:00 | 01:43:18 | 00:00:00 | |
| DL6DJ-15 | 2026-09-04 18:02:18 | 50.58944 | 11.87413 | 99° | 9km/h | 23355m | 5.9m/s | -52.0°C | 1.0% | 34.5hPa | 2.6V | 00:00:00 | 00:00:00 | 00:00:00 | |
| DL1XH-15 | 2026-09-04 18:02:17 | 50.58948 | 11.87397 | 60° | 5km/h | 23326m | 4.5m/s | -51.9°C | 4.1% | 34.6hPa | 2.6V | 08:30:00 | 01:43:16 | 00:00:00 | |
| DF8AY | 2026-09-04 18:02:12 | 50.58948 | 11.87397 | 61° | 5km/h | 23326m | 4.5m/s | -51.9°C | 0.5% | 34.6hPa | 2.6V | 18:12:15 | 01:43:16 | 00:00:00 | |
| DL1XH1-15 | 2026-09-04 18:02:12 | 50.58947 | 11.87390 | 67° | 4km/h | 23301m | 5.7m/s | -51.8°C | 4% | 34.7hPa | 2.6V | 08:30:00 | 01:43:11 | 00:00:00 | |
| HSKMA3-T | 2026-09-04 18:02:11 | 50.58947 | 11.87395 | 59° | 5km/h | 23321m | 5.3m/s | -51.9°C | 0.5% | 34.6hPa | 2.6V | 18:12:15 | 01:43:15 | 00:00:00 | |
| DK5PH-5 | 2026-09-04 18:02:11 | 50.58947 | 11.87395 | 59° | 9km/h | 23322m | 5.3m/s | -51.8°C | 4.1% | 34.6hPa | 2.7V | 00:00:00 | 01:43:15 | 00:00:00 | |
| OE5DXL-15 | 2026-09-04 18:02:10 | 50.58947 | 11.87394 | 73° | 9km/h | 23316m | 5.4m/s | -51.8°C | 4.0% | 34.6hPa | 2.7V | 00:00:00 | 00:00:00 | 00:00:00 | |
| OE5FHM-15 | 2026-09-04 18:02:09 | 50.58947 | 11.87392 | 86° | 9km/h | 23311m | 4.4m/s | -51.8°C | 4.1% | 34.6hPa | 2.7V | 00:00:00 | 01:43:13 | 00:00:00 | |
| DL1XH-west | 2026-09-04 18:02:08 | 50.59001 | 11.87290 | 121° | 18km/h | 23144m | 5.1m/s | -51.8°C | 0.4% | 35.6hPa | 2.7V | 18:12:15 | 01:42:39 | 00:00:00 | |
| DL1XH-15 | 2026-09-04 18:02:07 | 50.58952 | 11.87387 | 186° | 11km/h | 23277m | 4.6m/s | -51.8°C | 4% | 34.9hPa | 2.7V | 08:30:00 | 01:43:06 | 00:00:00 | |
| DF8AY | 2026-09-04 18:02:03 | 50.58952 | 11.87387 | 186° | 11km/h | 23277m | 4.6m/s | -51.8°C | 0.4% | 34.9hPa | 2.7V | 18:12:15 | 01:43:06 | 00:00:00 | |
| DJ2DS-15 | 2026-09-04 18:02:03 | 50.58949 | 11.87387 | 184° | 9km/h | 23282m | 5.2m/s | -51.7°C | 4.0% | 34.8hPa | 2.7V | 00:00:00 | 01:43:07 | 00:00:00 | |
| DL1XH1-15 | 2026-09-04 18:02:02 | 50.58960 | 11.87385 | 142° | 5km/h | 23252m | 5.5m/s | -51.9°C | 4% | 35hPa | 2.7V | 08:30:00 | 01:43:01 | 00:00:00 | |
| AA1-15 | 2026-09-04 18:02:01 | 50.58954 | 11.87387 | 184° | 9km/h | 23272m | 5.2m/s | -51.8°C | 0.5% | 34.9hPa | 2.7V | 18:12:15 | 01:43:05 | 00:00:00 | |
| HSKMA3-T | 2026-09-04 18:02:00 | 50.58956 | 11.87388 | 176° | 7km/h | 23266m | 5.4m/s | -51.8°C | 0.5% | 34.9hPa | 2.6V | 18:12:15 | 01:43:04 | 00:00:00 | |
| EDDB2-11 | 2026-09-04 18:02:00 | 50.58958 | 11.87387 | 158° | 4km/h | 23261m | 4.6m/s | -51.8°C | 1.0% | 35.0hPa | 2.6V | 00:00:00 | 00:00:00 | 00:00:00 | |
| DL3JIN-12 | 2026-09-04 18:01:59 | 50.58956 | 11.87388 | 177° | 7km/h | 23267m | 5.4m/s | -51.8°C | 1.0% | 34.9hPa | 2.6V | 00:00:00 | 00:00:00 | 00:00:00 | |
| DM0DOS-11 | 2026-09-04 18:01:58 | 50.58962 | 11.87378 | 89° | 5km/h | 23232m | 5.1m/s | -51.9°C | 3.9% | 35.1hPa | 2.6V | 08:30:00 | 01:42:57 | 00:00:00 | |
| DC4HF-4 | 2026-09-04 18:01:58 | 50.58960 | 11.87385 | 142° | 4km/h | 23252m | 5.5m/s | -51.9°C | 1.0% | 35.0hPa | 2.6V | 00:00:00 | 00:00:00 | 00:00:00 | |
| DL1XH-15 | 2026-09-04 18:01:57 | 50.58962 | 11.87376 | 105° | 7km/h | 23227m | 3.9m/s | -51.9°C | 4% | 35.1hPa | 2.6V | 08:30:00 | 01:42:56 | 00:00:00 | |
| DL1ZP-14 | 2026-09-04 18:01:56 | 50.58961 | 11.87384 | 139° | 4km/h | 23247m | 4.6m/s | -51.9°C | 1.0% | 35.0hPa | 2.7V | 00:00:00 | 00:00:00 | 00:00:00 | |
| DF3TZ-5 | 2026-09-04 18:01:53 | 50.58962 | 11.87378 | 89° | 5km/h | 23232m | 5.1m/s | 0°C | -1.0% | 35.1hPa | 2.6V | 00:00:00 | 00:00:00 | 00:00:00 | |
| DL1XH1-15 | 2026-09-04 18:01:52 | 50.58976 | 11.87359 | 144° | 16km/h | 23203m | 5.7m/s | -51.9°C | 4.1% | 35.3hPa | 2.6V | 08:30:00 | 01:42:51 | 00:00:00 | |
| DF8AY | 2026-09-04 18:01:51 | 50.58963 | 11.87373 | 128° | 9km/h | 23223m | 5.4m/s | -52°C | 0.5% | 35.1hPa | 2.7V | 18:12:15 | 01:42:55 | 00:00:00 | |
| HSKMA3-T | 2026-09-04 18:01:49 | 50.58973 | 11.87363 | 150° | 18km/h | 23208m | 4.7m/s | -52°C | 0.5% | 35.2hPa | 2.6V | 18:12:15 | 01:42:52 | 00:00:00 | |
| AM1SDL-15 | 2026-09-04 18:01:49 | 50.58969 | 11.87366 | 151° | 16km/h | 23213m | 4.2m/s | -51.9°C | 4.0% | 35.2hPa | 2.7V | 00:00:00 | 01:42:53 | 00:00:00 | |
| AA1-15 | 2026-09-04 18:01:49 | 50.58969 | 11.87366 | 151° | 16km/h | 23213m | 4.3m/s | -52°C | 0.5% | 35.2hPa | 2.7V | 18:12:15 | 01:42:53 | 00:00:00 | |
| DM0DOS-11 | 2026-09-04 18:01:48 | 50.58986 | 11.87342 | 126° | 16km/h | 23184m | 5.8m/s | -52°C | 4.1% | 35.4hPa | 2.7V | 08:30:00 | 01:42:47 | 00:00:00 | |
| DJ2DS-15 | 2026-09-04 18:01:48 | 50.58976 | 11.87359 | 144° | 15km/h | 23203m | 5.7m/s | -51.9°C | 1.0% | 35.3hPa | 2.7V | 00:00:00 | 00:00:00 | 00:00:00 | |
| DL1XH-15 | 2026-09-04 18:01:47 | 50.58989 | 11.87336 | 128° | 18km/h | 23179m | 5.2m/s | -52°C | 4.1% | 35.4hPa | 2.7V | 08:30:00 | 01:42:46 | 00:00:00 | |
| DJ2DS-15 | 2026-09-04 18:01:43 | 50.58986 | 11.87342 | 127° | 18km/h | 23184m | 5.8m/s | -51.9°C | 4.1% | 35.3hPa | 2.7V | 00:00:00 | 01:42:47 | 00:00:00 | |
| DL1XH1-15 | 2026-09-04 18:01:42 | 50.58998 | 11.87303 | 101° | 18km/h | 23154m | 4.5m/s | -51.9°C | 4% | 35.5hPa | 2.7V | 08:30:00 | 01:42:41 | 00:00:00 | |
| DF8AY | 2026-09-04 18:01:41 | 50.58992 | 11.87330 | 125° | 20km/h | 23174m | 4.2m/s | -52°C | 0.5% | 35.5hPa | 2.6V | 18:12:15 | 01:42:45 | 00:00:00 | |
| AA1-15 | 2026-09-04 18:01:39 | 50.58996 | 11.87317 | 107° | 18km/h | 23164m | 5.8m/s | -52°C | 0.5% | 35.5hPa | 2.6V | 18:12:15 | 01:42:43 | 00:00:00 | |
| OE5FHM-15 | 2026-09-04 18:01:39 | 50.58996 | 11.87317 | 108° | 22km/h | 23164m | 5.7m/s | -51.9°C | 4.1% | 35.5hPa | 2.6V | 00:00:00 | 01:42:43 | 00:00:00 | |
| DL3JIN-12 | 2026-09-04 18:01:38 | 50.58996 | 11.87317 | 108° | 18km/h | 23164m | 5.8m/s | -52.0°C | 1.0% | 35.5hPa | 2.6V | 00:00:00 | 00:00:00 | 00:00:00 | |
| DL1XH-15 | 2026-09-04 18:01:37 | 50.59009 | 11.87273 | 126° | 15km/h | 23129m | 5.4m/s | -51.8°C | 3.9% | 35.7hPa | 2.6V | 08:30:00 | 01:42:36 | 00:00:00 | |
| AM1SDL-15 | 2026-09-04 18:01:37 | 50.58998 | 11.87303 | 102° | 16km/h | 23154m | 4.4m/s | -51.9°C | 4.0% | 35.5hPa | 2.7V | 00:00:00 | 01:42:41 | 00:00:00 | |
| OM5KV | 2026-09-04 18:01:36 | 50.58998 | 11.87303 | 102° | 18km/h | 23154m | 4.5m/s | -51.9°C | 1.0% | 35.5hPa | 2.6V | 00:00:00 | 00:00:00 | 00:00:00 | |
| S52SK | 2026-09-04 18:01:35 | 50.58999 | 11.87296 | 111° | 18km/h | 23150m | 5.6m/s | 0°C | 0% | 0hPa | 2.6V | 00:00:00 | 00:00:00 | 00:00:00 | |
| SONCRA | 2026-09-04 18:01:34 | 50.59006 | 11.87278 | 128° | 16km/h | 23135m | 4.9m/s | -51.8°C | 1.0% | 35.6hPa | 2.6V | 00:00:00 | 00:00:00 | 00:00:00 | |
| DF2AP-13 | 2026-09-04 18:01:33 | 50.59006 | 11.87278 | 129° | 24km/h | 23135m | 4.9m/s | -51.8°C | 3.9% | 35.6hPa | 2.6V | 00:00:00 | 01:42:37 | 00:00:00 | |
| DL1XH1-15 | 2026-09-04 18:01:32 | 50.59022 | 11.87249 | 125° | 20km/h | 23104m | 4.1m/s | -51.9°C | 4% | 35.8hPa | 2.6V | 08:30:00 | 01:42:31 | 00:00:00 | |
| DF8AY | 2026-09-04 18:01:30 | 50.59013 | 11.87264 | 131° | 15km/h | 23119m | 5.2m/s | -51.8°C | 0.4% | 35.7hPa | 2.7V | 18:12:15 | 01:42:34 | 00:00:00 | |
| HSKMA3-T | 2026-09-04 18:01:29 | 50.59016 | 11.87260 | 135° | 16km/h | 23114m | 5.7m/s | -51.8°C | 0.4% | 35.8hPa | 2.7V | 18:12:15 | 01:42:33 | 00:00:00 | |
| SONDE2-11 | 2026-09-04 18:01:29 | 50.59019 | 11.87255 | 133° | 18km/h | 23109m | 4.5m/s | -51.9°C | 1.0% | 35.8hPa | 2.7V | 00:00:00 | 00:00:00 | 00:00:00 | |
| DL1XH-west | 2026-09-04 18:01:28 | 50.59156 | 11.86564 | 75° | 18km/h | 22739m | 4.7m/s | -53.2°C | 0.6% | 37.9hPa | 2.7V | 18:12:15 | 01:41:17 | 00:00:00 | |
| DL1XH-15 | 2026-09-04 18:01:27 | 50.59032 | 11.87206 | 115° | 26km/h | 23080m | 5.5m/s | -51.9°C | 4% | 35.9hPa | 2.7V | 08:30:00 | 01:42:26 | 00:00:00 | |
| DB0UT-7 | 2026-09-04 18:01:27 | 50.59022 | 11.87249 | 126° | 26km/h | 23105m | 4.0m/s | -51.8°C | 4.0% | 35.8hPa | 2.6V | 00:00:00 | 00:00:00 | 00:00:00 | |
| KRY50SP | 2026-09-04 18:01:26 | 50.59022 | 11.87249 | 126° | 20km/h | 23105m | 4.1m/s | -51.9°C | 0% | 0hPa | 2.6V | 00:00:00 | 00:00:00 | 00:00:00 | |
| DL1ZP-14 | 2026-09-04 18:01:25 | 50.59027 | 11.87233 | 106° | 22km/h | 23094m | 5.0m/s | -51.9°C | 1.0% | 35.9hPa | 2.6V | 00:00:00 | 00:00:00 | 00:00:00 | |
| DJ2DS-15 | 2026-09-04 18:01:23 | 50.59030 | 11.87215 | 108° | 26km/h | 23086m | 5.1m/s | -51.8°C | 4.0% | 35.9hPa | 2.7V | 00:00:00 | 01:42:27 | 08:30:00 | |
| DL1XH1-15 | 2026-09-04 18:01:22 | 50.59050 | 11.87163 | 124° | 26km/h | 23054m | 4.9m/s | -52°C | 4% | 36.1hPa | 2.6V | 08:30:00 | 01:42:21 | 00:00:00 | |
| DF8AY | 2026-09-04 18:01:20 | 50.59039 | 11.87188 | 124° | 26km/h | 23070m | 4.5m/s | -51.9°C | 0.5% | 36hPa | 2.6V | 18:12:15 | 01:42:24 | 00:00:00 | |
| OM5KV | 2026-09-04 18:01:19 | 50.59039 | 11.87188 | 125° | 26km/h | 23071m | 4.5m/s | -51.9°C | 1.0% | 36.0hPa | 2.6V | 00:00:00 | 00:00:00 | 00:00:00 | |
| DM0DOS-11 | 2026-09-04 18:01:18 | 50.59064 | 11.87128 | 111° | 27km/h | 23035m | 5.8m/s | -52.1°C | 4% | 36.2hPa | 2.6V | 08:30:00 | 01:42:17 | 00:00:00 | |
| HSKMA3-T | 2026-09-04 18:01:18 | 50.59046 | 11.87172 | 122° | 26km/h | 23060m | 5m/s | -51.9°C | 0.5% | 36.1hPa | 2.6V | 18:12:15 | 01:42:22 | 00:00:00 | |
| DL6DJ-15 | 2026-09-04 18:01:16 | 50.59053 | 11.87155 | 127° | 26km/h | 23050m | 5.6m/s | -52.0°C | 1.0% | 36.1hPa | 2.6V | 00:00:00 | 00:00:00 | 00:00:00 | |
| OE5DRO-10 | 2026-09-04 18:01:13 | 50.59064 | 11.87127 | 112° | 26km/h | 23035m | 5.7m/s | -52.1°C | 4.0% | 36.2hPa | 2.6V | 00:00:00 | 00:00:00 | 00:00:00 | |
| DL1XH1-15 | 2026-09-04 18:01:12 | 50.59078 | 11.87066 | 116° | 24km/h | 23005m | 5.1m/s | -52.2°C | 4.1% | 36.4hPa | 2.6V | 08:30:00 | 01:42:11 | 00:00:00 | |
| DF8AY | 2026-09-04 18:01:09 | 50.59073 | 11.87085 | 114° | 27km/h | 23014m | 4.7m/s | -52.3°C | 0.5% | 36.3hPa | 2.7V | 18:12:15 | 01:42:13 | 00:00:00 | |
| HSKMA3-T | 2026-09-04 18:01:08 | 50.59075 | 11.87075 | 117° | 26km/h | 23010m | 4.2m/s | -52.2°C | 0.5% | 36.4hPa | 2.6V | 18:12:15 | 01:42:12 | 00:00:00 | |
| SONCRA | 2026-09-04 18:01:03 | 50.59091 | 11.87026 | 120° | 22km/h | 22980m | 4.6m/s | -52.2°C | 1.0% | 36.5hPa | 2.7V | 00:00:00 | 00:00:00 | 00:00:00 | |
| DL1XH1-15 | 2026-09-04 18:01:02 | 50.59100 | 11.86981 | 104° | 26km/h | 22955m | 5.7m/s | -52.3°C | 4% | 36.7hPa | 2.7V | 08:30:00 | 01:42:01 | 00:00:00 | |
| DF8AY | 2026-09-04 18:00:59 | 50.59097 | 11.87000 | 101° | 24km/h | 22965m | 4.8m/s | -52.3°C | 0.4% | 36.6hPa | 2.6V | 18:12:15 | 01:42:03 | 00:00:00 | |
| DM0DOS-11 | 2026-09-04 18:00:58 | 50.59108 | 11.86942 | 108° | 26km/h | 22934m | 4.5m/s | -52.3°C | 4% | 36.8hPa | 2.6V | 08:30:00 | 01:41:57 | 00:00:00 | |
| HSKMA3-T | 2026-09-04 18:00:57 | 50.59100 | 11.86981 | 105° | 26km/h | 22955m | 5.7m/s | -52.3°C | 0.4% | 36.7hPa | 2.7V | 18:12:15 | 01:42:01 | 00:00:00 | |
| S3001 | 2026-09-04 18:00:57 | 50.59124 | 11.86892 | 115° | 27km/h | 22911m | 5.3m/s | -52.5°C | 1.0% | 36.9hPa | 2.6V | 00:00:00 | 00:00:00 | 00:00:00 | |
| KRY50SP | 2026-09-04 18:00:56 | 50.59099 | 11.86981 | 106° | 26km/h | 22955m | 5.7m/s | -52.3°C | 0% | 0hPa | 2.6V | 00:00:00 | 00:00:00 | 00:00:00 | |
| OE5DRO-10 | 2026-09-04 18:00:54 | 50.59106 | 11.86952 | 109° | 29km/h | 22940m | 5.8m/s | -52.3°C | 4.0% | 36.7hPa | 2.6V | 00:00:00 | 00:00:00 | 00:00:00 | |
| DL1XH1-15 | 2026-09-04 18:00:52 | 50.59127 | 11.86882 | 108° | 27km/h | 22906m | 5.3m/s | -52.5°C | 4% | 36.9hPa | 2.6V | 08:30:00 | 01:41:51 | 00:00:00 | |
| DF8AY | 2026-09-04 18:00:48 | 50.59124 | 11.86892 | 115° | 27km/h | 22911m | 5.3m/s | -52.5°C | 0.4% | 36.9hPa | 2.7V | 18:12:15 | 01:41:52 | 00:00:00 | |
| DM0DOS-11 | 2026-09-04 18:00:48 | 50.59134 | 11.86836 | 106° | 35km/h | 22886m | 4.9m/s | -52.6°C | 4.1% | 37hPa | 2.7V | 08:30:00 | 01:41:47 | 00:00:00 | |
| HSKMA3-T | 2026-09-04 18:00:47 | 50.59126 | 11.86882 | 109° | 27km/h | 22906m | 5.3m/s | -52.5°C | 0.5% | 36.9hPa | 2.6V | 18:12:15 | 01:41:51 | 00:00:00 | |
| DC4HF-4 | 2026-09-04 18:00:46 | 50.59130 | 11.86860 | 101° | 29km/h | 22896m | 4.0m/s | -52.6°C | 1.0% | 37.0hPa | 2.6V | 00:00:00 | 00:00:00 | 00:00:00 | |
| OM5KV | 2026-09-04 18:00:45 | 50.59130 | 11.86860 | 103° | 29km/h | 22896m | 4.0m/s | -52.6°C | 1.0% | 37.0hPa | 2.6V | 00:00:00 | 00:00:00 | 00:00:00 | |
| DL1XH1-15 | 2026-09-04 18:00:43 | 50.59146 | 11.86767 | 112° | 22km/h | 22857m | 5.4m/s | -52.8°C | 4.1% | 37.2hPa | 2.6V | 08:30:00 | 01:41:41 | 00:00:00 | |
| PG1ADW-2 | 2026-09-04 18:00:42 | 50.59136 | 11.86823 | 108° | 26km/h | 22882m | 4.2m/s | -52.6°C | 4.1% | 37.0hPa | 2.6V | 00:00:00 | 00:00:00 | 00:00:00 | |
| DK5PH-5 | 2026-09-04 18:00:41 | 50.59139 | 11.86810 | 106° | 22km/h | 22877m | 5.3m/s | -52.6°C | 4.1% | 37.1hPa | 2.6V | 00:00:00 | 01:41:45 | 00:00:00 | |
| OE5DXL-15 | 2026-09-04 18:00:40 | 50.59141 | 11.86797 | 103° | 22km/h | 22872m | 5.1m/s | -52.6°C | 4.1% | 37.1hPa | 2.6V | 00:00:00 | 00:00:00 | 00:00:00 | |
| OE5FHM-15 | 2026-09-04 18:00:39 | 50.59142 | 11.86786 | 102° | 22km/h | 22867m | 4.4m/s | -52.6°C | 4.1% | 37.1hPa | 2.6V | 00:00:00 | 01:41:43 | 00:00:00 | |
| DM0DOS-11 | 2026-09-04 18:00:38 | 50.59153 | 11.86734 | 94° | 26km/h | 22838m | 4.8m/s | -52.9°C | 4.2% | 37.3hPa | 2.6V | 08:30:00 | 01:41:37 | 00:00:00 | |
| DF8AY | 2026-09-04 18:00:37 | 50.59146 | 11.86768 | 112° | 22km/h | 22857m | 5.4m/s | -52.8°C | 0.5% | 37.2hPa | 2.6V | 18:12:15 | 01:41:41 | 00:00:00 | |
| DJ2DS-15 | 2026-09-04 18:00:36 | 50.59150 | 11.86751 | 110° | 20km/h | 22848m | 4.4m/s | -52.8°C | 1.0% | 37.3hPa | 2.7V | 00:00:00 | 00:00:00 | 00:00:00 | |
| OE5DRO-10 | 2026-09-04 18:00:35 | 50.59150 | 11.86751 | 111° | 22km/h | 22848m | 4.3m/s | -52.8°C | 4.2% | 37.2hPa | 2.7V | 00:00:00 | 00:00:00 | 00:00:00 | |
| DF2AP-13 | 2026-09-04 18:00:33 | 50.59152 | 11.86734 | 95° | 20km/h | 22838m | 4.7m/s | -52.9°C | 4.2% | 37.3hPa | 2.7V | 00:00:00 | 01:41:37 | 00:00:00 | |
| DL1XH1-15 | 2026-09-04 18:00:32 | 50.59158 | 11.86671 | 95° | 24km/h | 22809m | 5.7m/s | -53°C | 4.2% | 37.5hPa | 2.7V | 08:30:00 | 01:41:31 | 00:00:00 | |
| HSKMA3-T | 2026-09-04 18:00:27 | 50.59158 | 11.86671 | 95° | 24km/h | 22809m | 5.7m/s | -53°C | 0.5% | 37.5hPa | 2.7V | 18:12:15 | 01:41:31 | 00:00:00 | |
| EDDB2-11 | 2026-09-04 18:00:27 | 50.59158 | 11.86662 | 88° | 22km/h | 22804m | 5.0m/s | -53.0°C | 1.1% | 37.5hPa | 2.6V | 00:00:00 | 00:00:00 | 00:00:00 | |
| OM5KV | 2026-09-04 18:00:25 | 50.59158 | 11.86662 | 90° | 24km/h | 22804m | 5.0m/s | -53.0°C | 1.1% | 37.5hPa | 2.6V | 00:00:00 | 00:00:00 | 00:00:00 | |
| DM0DOS-11 | 2026-09-04 18:00:23 | 50.59158 | 11.86637 | 97° | 20km/h | 22788m | 4.9m/s | -53°C | 4.2% | 37.6hPa | 2.6V | 08:30:00 | 01:41:27 | 00:00:00 | |
| DL1XH-15 | 2026-09-04 18:00:23 | 50.59159 | 11.86629 | 96° | 20km/h | 22783m | 3.9m/s | -53°C | 4.2% | 37.7hPa | 2.7V | 08:30:00 | 01:41:26 | 00:00:00 | |
| DJ2DS-15 | 2026-09-04 18:00:23 | 50.59158 | 11.86636 | 98° | 18km/h | 22788m | 4.9m/s | -53.0°C | 4.2% | 37.6hPa | 2.6V | 00:00:00 | 01:41:27 | 00:00:00 | |
| DO3MHA-11 | 2026-09-04 18:00:22 | 50.59159 | 11.86629 | 97° | 18km/h | 22784m | 3.8m/s | -53.0°C | 4.2% | 37.6hPa | 2.7V | 00:00:00 | 01:41:26 | 08:30:00 | |
| OM5KV | 2026-09-04 18:00:21 | 50.59159 | 11.86629 | 98° | 20km/h | 22784m | 3.9m/s | -53.0°C | 0% | 37.7hPa | 2.6V | 00:00:00 | 00:00:00 | 00:00:00 | |
| DF3TZ-5 | 2026-09-04 18:00:20 | 50.59159 | 11.86613 | 84° | 18km/h | 22774m | 5.5m/s | 0°C | -1.0% | -1.0hPa | 2.6V | 00:00:00 | 00:00:00 | 00:00:00 | |
| DL1XH1-15 | 2026-09-04 18:00:17 | 50.59155 | 11.86557 | 77° | 18km/h | 22735m | 4.5m/s | -53.2°C | 4.2% | 37.9hPa | 2.6V | 08:30:00 | 01:41:16 | 00:00:00 | |
| AA1-15 | 2026-09-04 18:00:17 | 50.59157 | 11.86591 | 87° | 18km/h | 22759m | 5.6m/s | -53.1°C | 0.6% | 37.8hPa | 2.6V | 18:12:15 | 01:41:21 | 00:00:00 | |
| DF8AY | 2026-09-04 18:00:16 | 50.59157 | 11.86584 | 91° | 16km/h | 22754m | 4.7m/s | -53.1°C | 0.5% | 37.8hPa | 2.6V | 18:12:15 | 01:41:20 | 00:00:00 | |
| DL1XH-west | 2026-09-04 18:00:13 | 50.59153 | 11.86535 | 80° | 18km/h | 22721m | 4.1m/s | -53.2°C | 0.5% | 38hPa | 2.6V | 18:12:15 | 01:41:13 | 00:00:00 | |
| DL1XH-15 | 2026-09-04 18:00:13 | 50.59155 | 11.86557 | 77° | 18km/h | 22735m | 4.5m/s | -53.2°C | 4.2% | 37.9hPa | 2.6V | 08:30:00 | 01:41:16 | 00:00:00 | |
| HSKMA3-T | 2026-09-04 18:00:06 | 50.59147 | 11.86515 | 60° | 20km/h | 22706m | 4.2m/s | -53.3°C | 0.5% | 38.1hPa | 2.7V | 18:12:15 | 01:41:10 | 00:00:00 | |
| DF8AY | 2026-09-04 18:00:05 | 50.59145 | 11.86508 | 65° | 20km/h | 22702m | 4.8m/s | -53.4°C | 0.6% | 38.1hPa | 2.6V | 18:12:15 | 01:41:09 | 00:00:00 | |
| DL1XH1-15 | 2026-09-04 18:00:04 | 50.59140 | 11.86478 | 32° | 5km/h | 22673m | 4.8m/s | -53.5°C | 4.4% | 38.3hPa | 2.6V | 08:30:00 | 01:41:03 | 00:00:00 | |
| DL1XH1-15 | 2026-09-04 18:00:04 | 50.59135 | 11.86472 | 33° | 7km/h | 22648m | 5.2m/s | -53.5°C | 4.4% | 38.5hPa | 2.7V | 08:30:00 | 01:40:58 | 00:00:00 | |
| DM0DOS-11 | 2026-09-04 18:00:03 | 50.59141 | 11.86479 | 61° | 7km/h | 22678m | 5.4m/s | -53.5°C | 4.4% | 38.3hPa | 2.6V | 08:30:00 | 01:41:04 | 00:00:00 | |
| DL1XH-west | 2026-09-04 17:59:58 | 50.59139 | 11.86477 | 20° | 4km/h | 22669m | 4.7m/s | -53.5°C | 0.6% | 38.3hPa | 2.6V | 18:12:15 | 01:41:02 | 00:00:00 | |
| DL1XH-15 | 2026-09-04 17:59:57 | 50.59132 | 11.86467 | 48° | 9km/h | 22640m | 4.6m/s | -53.5°C | 4.4% | 38.5hPa | 2.6V | 08:30:00 | 01:40:56 | 00:00:00 | |
| OE5DRO-10 | 2026-09-04 17:59:56 | 50.59137 | 11.86475 | 56° | 7km/h | 22659m | 4.5m/s | -53.4°C | 4.4% | 38.4hPa | 2.7V | 00:00:00 | 00:00:00 | 08:30:00 | |
| DM0DOS-11 | 2026-09-04 17:59:55 | 50.59129 | 11.86461 | 75° | 9km/h | 22630m | 4.6m/s | -53.5°C | 4.4% | 38.6hPa | 2.6V | 08:30:00 | 01:40:54 | 00:00:00 | |
| HSKMA3-T | 2026-09-04 17:59:55 | 50.59136 | 11.86474 | 44° | 5km/h | 22654m | 4.9m/s | -53.5°C | 0.7% | 38.4hPa | 2.7V | 18:12:15 | 01:40:59 | 00:00:00 | |
| SP3BTT-10 | 2026-09-04 17:59:54 | 50.59135 | 11.86472 | 34° | 16km/h | 22649m | 5.1m/s | -53.4°C | 4.4% | 38.4hPa | 2.6V | 00:00:00 | 00:00:00 | 00:00:00 | |
| DO3MHA-11 | 2026-09-04 17:59:52 | 50.59132 | 11.86467 | 49° | 9km/h | 22640m | 4.6m/s | -53.4°C | 4.4% | 38.5hPa | 2.6V | 00:00:00 | 01:40:56 | 00:00:00 | |
| DL1XH1-15 | 2026-09-04 17:59:49 | 50.59125 | 11.86442 | 96° | 9km/h | 22602m | 4.8m/s | -53.3°C | 4.3% | 38.7hPa | 2.6V | 08:30:00 | 01:40:48 | 00:00:00 | |
| DL1XH-west | 2026-09-04 17:59:47 | 50.59127 | 11.86451 | 55° | 7km/h | 22615m | 4.2m/s | -53.4°C | 0.7% | 38.7hPa | 2.7V | 18:12:15 | 01:40:51 | 00:00:00 | |
| AA1-15 | 2026-09-04 17:59:46 | 50.59126 | 11.86448 | 60° | 7km/h | 22611m | 3.7m/s | -53.4°C | 0.6% | 38.7hPa | 2.6V | 18:12:15 | 01:40:50 | 00:00:00 | |
| DB0UT-7 | 2026-09-04 17:59:45 | 50.59125 | 11.86445 | 78° | 16km/h | 22607m | 5.1m/s | -53.3°C | 4.4% | 38.7hPa | 2.6V | 00:00:00 | 01:40:49 | 00:00:00 | |
| DL1XH-15 | 2026-09-04 17:59:44 | 50.59126 | 11.86436 | 102° | 7km/h | 22593m | 4.1m/s | -53.3°C | 4.3% | 38.8hPa | 2.7V | 08:30:00 | 01:40:46 | 00:00:00 | |
| DF8AY | 2026-09-04 17:59:44 | 50.59125 | 11.86442 | 96° | 9km/h | 22602m | 4.8m/s | -53.3°C | 0.6% | 38.7hPa | 2.6V | 18:12:15 | 01:40:48 | 00:00:00 | |
| NBG1-10 | 2026-09-04 17:59:44 | 50.59125 | 11.86442 | 97° | 5km/h | 22602m | 4.7m/s | -53.3°C | 4.3% | 38.7hPa | 2.6V | 00:00:00 | 01:40:48 | 00:00:00 | |
| DM0DOS-11 | 2026-09-04 17:59:43 | 50.59126 | 11.86432 | 40° | 4km/h | 22583m | 4.8m/s | -53.2°C | 4.3% | 38.9hPa | 2.7V | 08:30:00 | 01:40:44 | 00:00:00 | |
| DL6DJ-15 | 2026-09-04 17:59:43 | 50.59126 | 11.86436 | 102° | 7km/h | 22593m | 4.1m/s | -53.3°C | 1.1% | 38.8hPa | 2.7V | 00:00:00 | 00:00:00 | 00:00:00 | |
| PG1ADW-2 | 2026-09-04 17:59:42 | 50.59126 | 11.86436 | 103° | 4km/h | 22593m | 4.0m/s | -53.3°C | 4.3% | 38.8hPa | 2.7V | 00:00:00 | 00:00:00 | 00:00:00 | |
| DK5PH-5 | 2026-09-04 17:59:41 | 50.59126 | 11.86433 | 86° | 5km/h | 22588m | 5.5m/s | -53.2°C | 4.2% | 38.8hPa | 2.7V | 00:00:00 | 01:40:45 | 00:00:00 | |
| OE5DXL-15 | 2026-09-04 17:59:40 | 50.59126 | 11.86432 | 41° | 5km/h | 22583m | 4.8m/s | -53.2°C | 4.3% | 38.8hPa | 2.7V | 00:00:00 | 00:00:00 | 00:00:00 | |
| DL1XH1-15 | 2026-09-04 17:59:39 | 50.59122 | 11.86432 | 296° | 4km/h | 22554m | 4.5m/s | -53.1°C | 4.3% | 39hPa | 2.7V | 08:30:00 | 01:40:38 | 00:00:00 | |
| DL1XH-west | 2026-09-04 17:59:36 | 50.59123 | 11.86430 | 345° | 2km/h | 22564m | 4m/s | -53.1°C | 0.6% | 39hPa | 2.6V | 18:12:15 | 01:40:40 | 00:00:00 | |
| DM0DOS-11 | 2026-09-04 17:59:35 | 50.59126 | 11.86434 | 161° | 9km/h | 22536m | 3.7m/s | -52.9°C | 4.4% | 39.1hPa | 2.6V | 08:30:00 | 01:40:34 | 00:00:00 | |
| DL1XH-15 | 2026-09-04 17:59:34 | 50.59122 | 11.86434 | 201° | 4km/h | 22545m | 5.7m/s | -53°C | 4.4% | 39.1hPa | 2.6V | 08:30:00 | 01:40:36 | 00:00:00 | |
| DF8AY | 2026-09-04 17:59:34 | 50.59122 | 11.86432 | 296° | 5km/h | 22554m | 4.5m/s | -53.1°C | 0.6% | 39hPa | 2.7V | 18:12:15 | 01:40:38 | 00:00:00 | |
| AA1-15 | 2026-09-04 17:59:31 | 50.59124 | 11.86434 | 170° | 7km/h | 22540m | 4.8m/s | -53°C | 0.7% | 39.1hPa | 2.6V | 18:12:15 | 01:40:35 | 00:00:00 | |
| SONCRA | 2026-09-04 17:59:30 | 50.59128 | 11.86432 | 155° | 7km/h | 22531m | 5.0m/s | -52.9°C | 1.1% | 39.2hPa | 2.6V | 00:00:00 | 00:00:00 | 00:00:00 | |
| DL1XH1-15 | 2026-09-04 17:59:29 | 50.59130 | 11.86427 | 120° | 2km/h | 22507m | 4.8m/s | -52.7°C | 4.3% | 39.3hPa | 2.6V | 08:30:00 | 01:40:28 | 00:00:00 | |
| DL1XH-west | 2026-09-04 17:59:26 | 50.59130 | 11.86429 | 89° | 2km/h | 22517m | 4.2m/s | -52.8°C | 0.6% | 39.3hPa | 2.7V | 18:12:15 | 01:40:30 | 00:00:00 | |
| AM1SDL-15 | 2026-09-04 17:59:25 | 50.59130 | 11.86428 | 98° | 7km/h | 22513m | 5.4m/s | -52.7°C | 4.3% | 39.2hPa | 2.6V | 00:00:00 | 01:40:29 | 00:00:00 | |
| DL1XH-15 | 2026-09-04 17:59:24 | 50.59131 | 11.86427 | 257° | 2km/h | 22499m | 5.5m/s | -52.7°C | 4.2% | 39.4hPa | 2.6V | 08:30:00 | 01:40:26 | 00:00:00 | |
| DF8AY | 2026-09-04 17:59:23 | 50.59131 | 11.86427 | 140° | 2km/h | 22503m | 3.9m/s | -52.7°C | 0.6% | 39.4hPa | 2.6V | 18:12:15 | 01:40:27 | 00:00:00 | |
| DJ2DS-15 | 2026-09-04 17:59:23 | 50.59131 | 11.86427 | 141° | 9km/h | 22503m | 3.9m/s | -52.6°C | 4.3% | 39.3hPa | 2.6V | 00:00:00 | 01:40:27 | 00:00:00 | |
| DO3MHA-11 | 2026-09-04 17:59:22 | 50.59131 | 11.86427 | 258° | 9km/h | 22499m | 5.5m/s | -52.6°C | 4.2% | 39.3hPa | 2.6V | 00:00:00 | 01:40:26 | 00:00:00 | |
| OM5KV | 2026-09-04 17:59:20 | 50.59131 | 11.86427 | 258° | 4km/h | 22494m | 4.3m/s | -52.7°C | 1.0% | 39.4hPa | 2.7V | 00:00:00 | 00:00:00 | 00:00:00 | |
| DL1XH1-15 | 2026-09-04 17:59:19 | 50.59148 | 11.86439 | 192° | 9km/h | 22462m | 4.2m/s | -52.5°C | 4.1% | 39.6hPa | 2.7V | 08:30:00 | 01:40:18 | 00:00:00 | |
| DF8AY | 2026-09-04 17:59:17 | 50.59152 | 11.86438 | 150° | 9km/h | 22452m | 5.8m/s | -52.5°C | 0.5% | 39.7hPa | 2.7V | 18:12:15 | 01:40:16 | 00:00:00 | |
| DL1XH-west | 2026-09-04 17:59:16 | 50.59143 | 11.86437 | 200° | 15km/h | 22471m | 4.9m/s | -52.6°C | 0.5% | 39.5hPa | 2.6V | 18:12:15 | 01:40:20 | 00:00:00 | |
| DM0DOS-11 | 2026-09-04 17:59:15 | 50.59158 | 11.86432 | 146° | 7km/h | 22438m | 5.4m/s | -52.4°C | 4.1% | 39.7hPa | 2.6V | 08:30:00 | 01:40:13 | 00:00:00 | |
| DL1XH-15 | 2026-09-04 17:59:14 | 50.59152 | 11.86438 | 150° | 9km/h | 22452m | 5.8m/s | -52.5°C | 4.1% | 39.7hPa | 2.7V | 08:30:00 | 01:40:16 | 00:00:00 | |
| HSKMA3-T | 2026-09-04 17:59:13 | 50.59150 | 11.86440 | 171° | 7km/h | 22458m | 4.4m/s | -52.5°C | 0.6% | 39.6hPa | 2.7V | 18:12:15 | 01:40:17 | 00:00:00 | |
| DL6DJ-15 | 2026-09-04 17:59:12 | 50.59154 | 11.86436 | 141° | 9km/h | 22447m | 4.9m/s | -52.5°C | 1.0% | 39.7hPa | 2.6V | 00:00:00 | 00:00:00 | 00:00:00 | |
| NBG1-10 | 2026-09-04 17:59:11 | 50.59154 | 11.86436 | 142° | 15km/h | 22447m | 4.8m/s | -52.4°C | 4.1% | 39.7hPa | 2.6V | 00:00:00 | 01:40:15 | 00:00:00 | |
| OE5DXL-15 | 2026-09-04 17:59:10 | 50.59156 | 11.86434 | 142° | 15km/h | 22443m | 4.1m/s | -52.4°C | 4.2% | 39.7hPa | 2.6V | 00:00:00 | 00:00:00 | 00:00:00 | |
| DL1XH1-15 | 2026-09-04 17:59:09 | 50.59168 | 11.86434 | 183° | 13km/h | 22414m | 4.7m/s | -52.3°C | 4.2% | 39.9hPa | 2.6V | 08:30:00 | 01:40:08 | 00:00:00 | |
| DL1XH-west | 2026-09-04 17:59:05 | 50.59165 | 11.86434 | 190° | 11km/h | 22420m | 5.4m/s | -52.4°C | 0.6% | 39.9hPa | 2.7V | 18:12:15 | 01:40:09 | 00:00:00 | |
| DL1XH-15 | 2026-09-04 17:59:04 | 50.59175 | 11.86435 | 182° | 13km/h | 22406m | 5.1m/s | -52.3°C | 4.2% | 39.9hPa | 2.6V | 08:30:00 | 01:40:06 | 00:00:00 | |
| AA1-15 | 2026-09-04 17:59:03 | 50.59171 | 11.86434 | 181° | 15km/h | 22410m | 3.9m/s | -52.3°C | 0.6% | 39.9hPa | 2.6V | 18:12:15 | 01:40:07 | 00:00:00 | |
| DF8AY | 2026-09-04 17:59:02 | 50.59175 | 11.86435 | 183° | 13km/h | 22406m | 5.1m/s | -52.3°C | 0.6% | 39.9hPa | 2.6V | 18:12:15 | 01:40:06 | 00:00:00 | |
| PG1ADW-2 | 2026-09-04 17:59:02 | 50.59175 | 11.86434 | 183° | 16km/h | 22406m | 5.1m/s | -52.2°C | 4.2% | 39.9hPa | 2.6V | 00:00:00 | 01:40:06 | 00:00:00 | |
| OM5KV | 2026-09-04 17:59:00 | 50.59178 | 11.86435 | 188° | 11km/h | 22401m | 4.9m/s | -52.3°C | 0% | 40.0hPa | 2.6V | 00:00:00 | 00:00:00 | 00:00:00 | |
| DL1XH1-15 | 2026-09-04 17:58:59 | 50.59203 | 11.86431 | 165° | 11km/h | 22367m | 5.1m/s | -52.2°C | 4% | 40.2hPa | 2.6V | 08:30:00 | 01:39:58 | 00:00:00 | |
| SONCRA | 2026-09-04 17:58:58 | 50.59188 | 11.86436 | 174° | 15km/h | 22386m | 5.4m/s | -52.2°C | 1.0% | 40.0hPa | 2.7V | 00:00:00 | 00:00:00 | 00:00:00 | |
| HARRO8 | 2026-09-04 17:58:57 | 50.59196 | 11.86433 | 167° | 16km/h | 22377m | 3.9m/s | -52.2°C | 1.0% | 40.1hPa | 2.7V | 00:00:00 | 00:00:00 | 00:00:00 | |
| DL1JEZ-13 | 2026-09-04 17:58:56 | 50.59192 | 11.86434 | 171° | 18km/h | 22381m | 4.2m/s | -52.2°C | 1.0% | 40.1hPa | 2.7V | 00:00:00 | 00:00:00 | 00:00:00 | |
| DL1XH-15 | 2026-09-04 17:58:54 | 50.59208 | 11.86428 | 152° | 11km/h | 22358m | 4.1m/s | -52.2°C | 3.9% | 40.2hPa | 2.7V | 08:30:00 | 01:39:56 | 00:00:00 | |
| DL1XH-west | 2026-09-04 17:58:54 | 50.59203 | 11.86431 | 165° | 11km/h | 22367m | 5.1m/s | -52.2°C | 0.5% | 40.2hPa | 2.6V | 18:12:15 | 01:39:58 | 00:00:00 | |
| HSKMA3-T | 2026-09-04 17:58:52 | 50.59208 | 11.86428 | 153° | 11km/h | 22359m | 4.1m/s | -52.2°C | 0.4% | 40.2hPa | 2.7V | 18:12:15 | 01:39:56 | 00:00:00 | |
| DF8AY | 2026-09-04 17:58:51 | 50.59211 | 11.86426 | 151° | 13km/h | 22354m | 5.4m/s | -52.2°C | 0.4% | 40.3hPa | 2.7V | 18:12:15 | 01:39:55 | 00:00:00 | |
| DL1ZP-14 | 2026-09-04 17:58:50 | 50.59218 | 11.86419 | 148° | 18km/h | 22344m | 4.1m/s | -52.3°C | 1.0% | 40.3hPa | 2.6V | 00:00:00 | 00:00:00 | 00:00:00 | |
| DJ2DS-15 | 2026-09-04 17:58:47 | 50.59226 | 11.86411 | 144° | 18km/h | 22335m | 4.6m/s | -52.4°C | 1.1% | 40.4hPa | 2.6V | 00:00:00 | 00:00:00 | 00:00:00 | |
| DF7PN | 2026-09-04 17:58:46 | 50.59230 | 11.86406 | 145° | 20km/h | 22330m | 4.2m/s | -52.5°C | 1.0% | -1.0hPa | 2.6V | 00:00:00 | 00:00:00 | 00:00:00 | |
| DL1XH-15 | 2026-09-04 17:58:44 | 50.59250 | 11.86388 | 153° | 20km/h | 22311m | 5.2m/s | -52.8°C | 4.3% | 40.5hPa | 2.6V | 08:30:00 | 01:39:46 | 00:00:00 | |
| DL1XH-west | 2026-09-04 17:58:44 | 50.59240 | 11.86397 | 151° | 24km/h | 22320m | 4.6m/s | -52.8°C | 0.7% | 40.5hPa | 2.7V | 18:12:15 | 01:39:48 | 00:00:00 | |
| DM0DOS-11 | 2026-09-04 17:58:43 | 50.59261 | 11.86380 | 161° | 15km/h | 22298m | 5.2m/s | -52.8°C | 4.1% | 40.6hPa | 2.7V | 08:30:00 | 01:39:43 | 00:00:00 | |
| HSKMA3-T | 2026-09-04 17:58:41 | 50.59254 | 11.86385 | 153° | 16km/h | 22306m | 4.5m/s | -52.8°C | 0.6% | 40.6hPa | 2.6V | 18:12:15 | 01:39:45 | 00:00:00 | |
| DF8AY | 2026-09-04 17:58:40 | 50.59258 | 11.86382 | 156° | 15km/h | 22303m | 3.8m/s | -52.8°C | 0.6% | 40.6hPa | 2.6V | 18:12:15 | 01:39:44 | 00:00:00 | |
| AA1-15 | 2026-09-04 17:58:36 | 50.59272 | 11.86375 | 160° | 13km/h | 22284m | 5.2m/s | -52.8°C | 0.5% | 40.7hPa | 2.6V | 18:12:15 | 01:39:40 | 00:00:00 | |
| AM1SDL-15 | 2026-09-04 17:58:35 | 50.59275 | 11.86373 | 155° | 18km/h | 22279m | 3.9m/s | -52.7°C | 4.1% | 40.7hPa | 2.6V | 00:00:00 | 01:39:39 | 08:30:00 | |
| DL1XH-15 | 2026-09-04 17:58:34 | 50.59286 | 11.86364 | 153° | 20km/h | 22265m | 4m/s | -52.8°C | 4.2% | 40.8hPa | 2.7V | 08:30:00 | 01:39:36 | 00:00:00 | |
| DL1XH-west | 2026-09-04 17:58:34 | 50.59278 | 11.86371 | 152° | 15km/h | 22275m | 4.1m/s | -52.8°C | 0.6% | 40.8hPa | 2.6V | 18:12:15 | 01:39:38 | 00:00:00 | |
| DM0DOS-11 | 2026-09-04 17:58:33 | 50.59298 | 11.86353 | 142° | 16km/h | 22252m | 4.7m/s | -52.8°C | 4.2% | 40.9hPa | 2.6V | 08:30:00 | 01:39:33 | 00:00:00 | |
| HSKMA3-T | 2026-09-04 17:58:30 | 50.59294 | 11.86357 | 148° | 18km/h | 22257m | 5.2m/s | -52.8°C | 0.5% | 40.9hPa | 2.6V | 18:12:15 | 01:39:34 | 00:00:00 | |
| DL1XH1-15 | 2026-09-04 17:58:29 | 50.59315 | 11.86328 | 144° | 22km/h | 22231m | 3.5m/s | -52.9°C | 4.3% | 41hPa | 2.6V | 08:30:00 | 01:39:28 | 00:00:00 | |
| DF8AY | 2026-09-04 17:58:29 | 50.59298 | 11.86353 | 142° | 16km/h | 22252m | 4.7m/s | -52.8°C | 0.6% | 40.9hPa | 2.6V | 18:12:15 | 01:39:33 | 00:00:00 | |
| OM5KV | 2026-09-04 17:58:29 | 50.59298 | 11.86353 | 143° | 16km/h | 22253m | 4.7m/s | -52.8°C | 0% | 40.9hPa | 2.7V | 00:00:00 | 00:00:00 | 00:00:00 | |
| SONCRA | 2026-09-04 17:58:27 | 50.59304 | 11.86344 | 134° | 16km/h | 22244m | 4.1m/s | -52.9°C | 1.1% | 41.0hPa | 2.7V | 00:00:00 | 00:00:00 | 00:00:00 | |
| OM5KV | 2026-09-04 17:58:25 | 50.59307 | 11.86339 | 138° | 20km/h | 22239m | 5.2m/s | -52.8°C | 1.1% | 41.0hPa | 2.7V | 00:00:00 | 00:00:00 | 00:00:00 | |
| DL1XH-15 | 2026-09-04 17:58:24 | 50.59324 | 11.86319 | 149° | 18km/h | 22222m | 4.6m/s | -52.9°C | 4.2% | 41.1hPa | 2.7V | 08:30:00 | 01:39:26 | 00:00:00 | |
| DL1XH-west | 2026-09-04 17:58:23 | 50.59320 | 11.86323 | 146° | 20km/h | 22226m | 4.9m/s | -52.9°C | 0.6% | 41.1hPa | 2.7V | 18:12:15 | 01:39:27 | 00:00:00 | |
| DM0DOS-11 | 2026-09-04 17:58:23 | 50.59336 | 11.86309 | 151° | 22km/h | 22208m | 4.8m/s | -53°C | 4.3% | 41.2hPa | 2.7V | 08:30:00 | 01:39:23 | 00:00:00 | |
| HSKMA3-T | 2026-09-04 17:58:19 | 50.59336 | 11.86309 | 152° | 22km/h | 22208m | 4.8m/s | -53°C | 0.6% | 41.2hPa | 2.7V | 18:12:15 | 01:39:23 | 00:00:00 | |
| DF8AY | 2026-09-04 17:58:18 | 50.59341 | 11.86304 | 146° | 22km/h | 22204m | 3.8m/s | -53°C | 0.6% | 41.2hPa | 2.7V | 18:12:15 | 01:39:22 | 00:00:00 | |
| DM0DOS-11 | 2026-09-04 17:58:13 | 50.59373 | 11.86225 | 111° | 22km/h | 22163m | 4.6m/s | -52.9°C | 4.2% | 41.5hPa | 2.6V | 08:30:00 | 01:39:13 | 00:00:00 | |
| DL1XH-west | 2026-09-04 17:58:12 | 50.59364 | 11.86254 | 119° | 31km/h | 22176m | 3.3m/s | -52.9°C | 0.5% | 41.4hPa | 2.7V | 18:12:15 | 01:39:16 | 00:00:00 | |
| DO3MHA-11 | 2026-09-04 17:58:12 | 50.59364 | 11.86254 | 119° | 22km/h | 22176m | 3.2m/s | -52.9°C | 4.2% | 41.4hPa | 2.6V | 00:00:00 | 01:39:16 | 00:00:00 | |
| DK5PH-5 | 2026-09-04 17:58:11 | 50.59368 | 11.86243 | 117° | 20km/h | 22173m | 3.9m/s | -52.9°C | 4.2% | 41.4hPa | 2.6V | 00:00:00 | 01:39:15 | 00:00:00 | |
| OE5DXL-15 | 2026-09-04 17:58:10 | 50.59371 | 11.86234 | 115° | 20km/h | 22168m | 5.1m/s | -53.0°C | 4.3% | 41.4hPa | 2.6V | 00:00:00 | 00:00:00 | 00:00:00 | |
| DL1XH1-15 | 2026-09-04 17:58:09 | 50.59386 | 11.86194 | 130° | 18km/h | 22141m | 5m/s | -52.8°C | 4.2% | 41.6hPa | 2.7V | 08:30:00 | 01:39:08 | 00:00:00 | |
| HSKMA3-T | 2026-09-04 17:58:08 | 50.59375 | 11.86218 | 115° | 18km/h | 22159m | 4.4m/s | -52.9°C | 0.6% | 41.5hPa | 2.6V | 18:12:15 | 01:39:12 | 00:00:00 | |
| DH8WE-5 | 2026-09-04 17:58:07 | 50.59375 | 11.86218 | 116° | 18km/h | 22159m | 4.4m/s | -52.9°C | 1.1% | 41.5hPa | 2.7V | 00:00:00 | 00:00:00 | 00:00:00 | |
| NBG1-10 | 2026-09-04 17:58:05 | 50.59383 | 11.86199 | 132° | 20km/h | 22145m | 3.4m/s | -52.8°C | 4.3% | 41.5hPa | 2.7V | 00:00:00 | 01:39:09 | 08:30:00 | |
| DM0DOS-11 | 2026-09-04 17:58:03 | 50.59402 | 11.86158 | 120° | 27km/h | 22118m | 4.3m/s | -52.8°C | 4.3% | 41.8hPa | 2.7V | 08:30:00 | 01:39:03 | 00:00:00 | |
| DL1XH-west | 2026-09-04 17:58:02 | 50.59392 | 11.86182 | 125° | 20km/h | 22132m | 3.7m/s | -52.8°C | 0.6% | 41.7hPa | 2.6V | 18:12:15 | 01:39:06 | 00:00:00 | |
| D01LWL | 2026-09-04 17:58:02 | 50.59396 | 11.86175 | 125° | 22km/h | 22127m | 5.3m/s | -52.8°C | 1.1% | 41.7hPa | 2.6V | 00:00:00 | 00:00:00 | 00:00:00 | |
| DL1XH1-15 | 2026-09-04 17:57:59 | 50.59411 | 11.86115 | 105° | 20km/h | 22095m | 4.8m/s | -52.8°C | 4.3% | 41.9hPa | 2.6V | 08:30:00 | 01:38:58 | 00:00:00 | |
| AA1-15 | 2026-09-04 17:57:59 | 50.59403 | 11.86158 | 120° | 27km/h | 22118m | 4.3m/s | -52.8°C | 0.6% | 41.8hPa | 2.7V | 18:12:15 | 01:39:03 | 00:00:00 | |
| DF8AY | 2026-09-04 17:57:58 | 50.59406 | 11.86149 | 114° | 26km/h | 22113m | 5.4m/s | -52.8°C | 0.7% | 41.8hPa | 2.7V | 18:12:15 | 01:39:02 | 00:00:00 | |
| HSKMA3-T | 2026-09-04 17:57:57 | 50.59408 | 11.86140 | 106° | 24km/h | 22108m | 4.6m/s | -52.7°C | 0.6% | 41.8hPa | 2.7V | 18:12:15 | 01:39:01 | 00:00:00 | |
| SONCRA | 2026-09-04 17:57:56 | 50.59409 | 11.86131 | 101° | 20km/h | 22104m | 3.5m/s | -52.7°C | 1.1% | 41.9hPa | 2.6V | 00:00:00 | 00:00:00 | 00:00:00 | |
| DM0DOS-11 | 2026-09-04 17:57:54 | 50.59418 | 11.86086 | 115° | 9km/h | 22072m | 4.1m/s | -52.8°C | 4.2% | 42.1hPa | 2.6V | 08:30:00 | 01:38:53 | 00:00:00 | |
| DL1XH-15 | 2026-09-04 17:57:53 | 50.59415 | 11.86100 | 111° | 18km/h | 22087m | 3.8m/s | -52.8°C | 4.2% | 42hPa | 2.7V | 08:30:00 | 01:38:56 | 00:00:00 | |
| DL1XH-west | 2026-09-04 17:57:52 | 50.59415 | 11.86100 | 111° | 18km/h | 22087m | 3.8m/s | -52.8°C | 0.6% | 42hPa | 2.7V | 18:12:15 | 01:38:56 | 00:00:00 | |
| SONDE2-11 | 2026-09-04 17:57:51 | 50.59416 | 11.86094 | 109° | 13km/h | 22082m | 5.4m/s | -52.8°C | 1.1% | 42.0hPa | 2.7V | 00:00:00 | 00:00:00 | 00:00:00 | |
| S3001 | 2026-09-04 17:57:50 | 50.59419 | 11.86082 | 127° | 9km/h | 22068m | 5.0m/s | -52.7°C | -1.0% | 42.1hPa | 2.7V | 00:00:00 | 00:00:00 | 00:00:00 | |
| DL1XH1-15 | 2026-09-04 17:57:49 | 50.59428 | 11.86063 | 110° | 18km/h | 22051m | 5.3m/s | -52.6°C | 4.2% | 42.2hPa | 2.7V | 08:30:00 | 01:38:48 | 00:00:00 | |
| DL1ZP-14 | 2026-09-04 17:57:48 | 50.59421 | 11.86079 | 136° | 13km/h | 22063m | 4.4m/s | -52.7°C | 1.1% | 42.1hPa | 2.6V | 00:00:00 | 00:00:00 | 00:00:00 | |
| DL1XH-15 | 2026-09-04 17:57:47 | 50.59430 | 11.86047 | 87° | 22km/h | 22041m | 4.1m/s | -52.5°C | 4.2% | 42.3hPa | 2.6V | 08:30:00 | 01:38:46 | 00:00:00 | |
| DF8AY | 2026-09-04 17:57:47 | 50.59421 | 11.86079 | 136° | 15km/h | 22063m | 4.4m/s | -52.7°C | 0.6% | 42.1hPa | 2.6V | 18:12:15 | 01:38:51 | 00:00:00 | |
| HSKMA3-T | 2026-09-04 17:57:46 | 50.59424 | 11.86074 | 132° | 16km/h | 22059m | 3.4m/s | -52.7°C | 0.6% | 42.2hPa | 2.6V | 18:12:15 | 01:38:50 | 00:00:00 | |
| DC4HF-4 | 2026-09-04 17:57:45 | 50.59427 | 11.86069 | 122° | 16km/h | 22056m | 4.0m/s | -52.7°C | 1.0% | 42.2hPa | 2.6V | 00:00:00 | 00:00:00 | 00:00:00 | |
| DL1XH-west | 2026-09-04 17:57:42 | 50.59430 | 11.86047 | 87° | 22km/h | 22042m | 4.1m/s | -52.6°C | 0.6% | 42.3hPa | 2.6V | 18:12:15 | 01:38:46 | 00:00:00 | |
| DO3MHA-11 | 2026-09-04 17:57:42 | 50.59430 | 11.86047 | 88° | 22km/h | 22042m | 4.0m/s | -52.5°C | 4.2% | 42.2hPa | 2.6V | 00:00:00 | 01:38:46 | 00:00:00 | |
| DK5PH-5 | 2026-09-04 17:57:41 | 50.59429 | 11.86038 | 87° | 22km/h | 22037m | 4.6m/s | -52.5°C | 4.1% | 42.3hPa | 2.6V | 00:00:00 | 01:38:45 | 00:00:00 | |
| DL1XH1-15 | 2026-09-04 17:57:40 | 50.59427 | 11.85978 | 88° | 22km/h | 22005m | 5.4m/s | -52.5°C | 4.1% | 42.5hPa | 2.6V | 08:30:00 | 01:38:38 | 00:00:00 | |
| DM0DOS-11 | 2026-09-04 17:57:39 | 50.59429 | 11.86020 | 91° | 22km/h | 22028m | 3.8m/s | -52.5°C | 4.1% | 42.4hPa | 2.6V | 08:30:00 | 01:38:43 | 00:00:00 | |
| HSKMA3-T | 2026-09-04 17:57:36 | 50.59428 | 11.85995 | 81° | 20km/h | 22014m | 4.6m/s | -52.5°C | 0.5% | 42.5hPa | 2.7V | 18:12:15 | 01:38:40 | 00:00:00 | |
| DJ2DS-15 | 2026-09-04 17:57:36 | 50.59428 | 11.85987 | 82° | 20km/h | 22010m | 4.3m/s | -52.5°C | 1.1% | 42.5hPa | 2.6V | 00:00:00 | 00:00:00 | 00:00:00 | |
| DL1XH-15 | 2026-09-04 17:57:34 | 50.59428 | 11.85959 | 97° | 26km/h | 21996m | 3.6m/s | -52.4°C | 4.1% | 42.6hPa | 2.6V | 08:30:00 | 01:38:36 | 00:00:00 | |
| DL1XH-west | 2026-09-04 17:57:31 | 50.59429 | 11.85950 | 97° | 24km/h | 21992m | 4.7m/s | -52.5°C | 0.5% | 42.6hPa | 2.7V | 18:12:15 | 01:38:35 | 00:00:00 | |
| D01LWL | 2026-09-04 17:57:31 | 50.59429 | 11.85940 | 92° | 22km/h | 21987m | 5.4m/s | -52.5°C | 1.1% | 42.6hPa | 2.7V | 00:00:00 | 00:00:00 | 00:00:00 | |
| DL1XH1-15 | 2026-09-04 17:57:30 | 50.59428 | 11.85893 | 84° | 22km/h | 21961m | 4.3m/s | -52.6°C | 4.1% | 42.8hPa | 2.7V | 08:30:00 | 01:38:28 | 00:00:00 | |
| DL1XH-15 | 2026-09-04 17:57:27 | 50.59426 | 11.85875 | 71° | 24km/h | 21952m | 4.1m/s | -52.5°C | 4.1% | 42.9hPa | 2.7V | 08:30:00 | 01:38:26 | 00:00:00 | |
| HSKMA3-T | 2026-09-04 17:57:25 | 50.59429 | 11.85902 | 91° | 22km/h | 21965m | 3.5m/s | -52.6°C | 0.5% | 42.8hPa | 2.6V | 18:12:15 | 01:38:29 | 00:00:00 | |
| DL1XH-west | 2026-09-04 17:57:21 | 50.59424 | 11.85866 | 72° | 24km/h | 21948m | 3.4m/s | -52.6°C | 0.5% | 42.9hPa | 2.6V | 18:12:15 | 01:38:25 | 00:00:00 | |
| DF8AY | 2026-09-04 17:57:20 | 50.59419 | 11.85811 | 73° | 22km/h | 21922m | 4.3m/s | -53°C | 0.6% | 43.1hPa | 2.6V | 18:12:15 | 01:38:19 | 00:00:00 | |
| DL1XH1-15 | 2026-09-04 17:57:19 | 50.59417 | 11.85803 | 70° | 20km/h | 21918m | 4.1m/s | -53°C | 4.3% | 43.1hPa | 2.6V | 08:30:00 | 01:38:18 | 00:00:00 | |
| DL1XH-15 | 2026-09-04 17:57:17 | 50.59414 | 11.85790 | 69° | 15km/h | 21908m | 4.6m/s | -53°C | 4.3% | 43.1hPa | 2.7V | 08:30:00 | 01:38:16 | 00:00:00 | |
| HSKMA3-T | 2026-09-04 17:57:14 | 50.59417 | 11.85803 | 70° | 20km/h | 21918m | 4.1m/s | -53°C | 0.7% | 43.1hPa | 2.6V | 18:12:15 | 01:38:18 | 00:00:00 | |
| DL1XH-west | 2026-09-04 17:57:11 | 50.59413 | 11.85785 | 62° | 13km/h | 21903m | 4m/s | -53°C | 0.6% | 43.2hPa | 2.6V | 18:12:15 | 01:38:15 | 00:00:00 | |
| DK5PH-5 | 2026-09-04 17:57:11 | 50.59412 | 11.85785 | 62° | 16km/h | 21904m | 4.0m/s | -52.9°C | 4.3% | 43.2hPa | 2.6V | 00:00:00 | 01:38:15 | 08:30:00 | |
| OE5DXL-15 | 2026-09-04 17:57:10 | 50.59410 | 11.85780 | 51° | 16km/h | 21899m | 5.3m/s | -52.9°C | 4.2% | 43.2hPa | 2.6V | 00:00:00 | 00:00:00 | 00:00:00 | |
| OE5FHM-15 | 2026-09-04 17:57:09 | 50.59408 | 11.85776 | 40° | 18km/h | 21894m | 5.0m/s | -52.9°C | 4.2% | 43.2hPa | 2.6V | 00:00:00 | 01:38:13 | 00:00:00 | |
| OM5KV | 2026-09-04 17:57:08 | 50.59408 | 11.85776 | 41° | 16km/h | 21894m | 5.1m/s | 0°C | 0% | 0hPa | 2.6V | 00:00:00 | 00:00:00 | 00:00:00 | |
| DL1XH-15 | 2026-09-04 17:57:07 | 50.59387 | 11.85747 | 40° | 16km/h | 21861m | 3.7m/s | -52.9°C | 4% | 43.5hPa | 2.6V | 08:30:00 | 01:38:06 | 00:00:00 | |
| AA1-15 | 2026-09-04 17:57:06 | 50.59398 | 11.85764 | 45° | 15km/h | 21880m | 4.9m/s | -52.9°C | 0.6% | 43.4hPa | 2.6V | 18:12:15 | 01:38:10 | 00:00:00 | |
| DF8AY | 2026-09-04 17:57:04 | 50.59393 | 11.85756 | 45° | 15km/h | 21870m | 4.9m/s | -52.9°C | 0.5% | 43.4hPa | 2.7V | 18:12:15 | 01:38:08 | 00:00:00 | |
| DM0DOS-11 | 2026-09-04 17:57:03 | 50.59380 | 11.85733 | 73° | 15km/h | 21848m | 4.9m/s | -52.9°C | 4% | 43.6hPa | 2.6V | 08:30:00 | 01:38:03 | 00:00:00 | |
| HSKMA3-T | 2026-09-04 17:57:03 | 50.59390 | 11.85751 | 41° | 16km/h | 21865m | 4.8m/s | -52.9°C | 0.4% | 43.5hPa | 2.7V | 18:12:15 | 01:38:07 | 00:00:00 | |
| DL1XH-west | 2026-09-04 17:57:01 | 50.59384 | 11.85742 | 48° | 16km/h | 21858m | 3.7m/s | -52.9°C | 0.5% | 43.5hPa | 2.6V | 18:12:15 | 01:38:05 | 00:00:00 | |
| NBG1-10 | 2026-09-04 17:56:59 | 50.59380 | 11.85732 | 74° | 22km/h | 21848m | 4.9m/s | -52.8°C | 4.0% | 43.5hPa | 2.6V | 00:00:00 | 01:38:03 | 00:00:00 | |
| AM1SDL-15 | 2026-09-04 17:56:58 | 50.59379 | 11.85727 | 83° | 15km/h | 21843m | 4.6m/s | -52.8°C | 4.0% | 43.6hPa | 2.6V | 00:00:00 | 01:38:02 | 00:00:00 | |
| DL1XH-15 | 2026-09-04 17:56:57 | 50.59370 | 11.85690 | 68° | 15km/h | 21815m | 4.6m/s | -53.4°C | 4.4% | 43.8hPa | 2.6V | 08:30:00 | 01:37:56 | 00:00:00 | |
| DF8AY | 2026-09-04 17:56:54 | 50.59374 | 11.85702 | 61° | 18km/h | 21824m | 3.6m/s | -53°C | 0.5% | 43.7hPa | 2.6V | 18:12:15 | 01:37:58 | 00:00:00 | |
| DM0DOS-11 | 2026-09-04 17:56:53 | 50.59367 | 11.85677 | 53° | 11km/h | 21801m | 4.9m/s | -53.6°C | 4.4% | 43.9hPa | 2.7V | 08:30:00 | 01:37:53 | 00:00:00 | |
| HSKMA3-T | 2026-09-04 17:56:52 | 50.59370 | 11.85690 | 69° | 15km/h | 21815m | 4.6m/s | -53.4°C | 0.7% | 43.8hPa | 2.6V | 18:12:15 | 01:37:56 | 00:00:00 | |
| DL1XH-west | 2026-09-04 17:56:50 | 50.59368 | 11.85681 | 63° | 11km/h | 21806m | 4.9m/s | -53.6°C | 0.7% | 43.9hPa | 2.7V | 18:12:15 | 01:37:54 | 00:00:00 | |
| AA1-15 | 2026-09-04 17:56:49 | 50.59367 | 11.85677 | 53° | 11km/h | 21801m | 4.9m/s | -53.6°C | 0.7% | 43.9hPa | 2.7V | 18:12:15 | 01:37:53 | 00:00:00 | |
| DL1ZP-14 | 2026-09-04 17:56:46 | 50.59365 | 11.85657 | 104° | 22km/h | 21783m | 4.9m/s | -53.6°C | 1.1% | 44.0hPa | 2.6V | 00:00:00 | 00:00:00 | 00:00:00 | |
| DL1XH-15 | 2026-09-04 17:56:45 | 50.59369 | 11.85623 | 93° | 35km/h | 21769m | 5m/s | -53.6°C | 4.3% | 44.1hPa | 2.7V | 08:30:00 | 01:37:46 | 00:00:00 | |
| DM0DOS-11 | 2026-09-04 17:56:43 | 50.59368 | 11.85583 | 86° | 31km/h | 21755m | 5m/s | -53.7°C | 4.3% | 44.2hPa | 2.6V | 08:30:00 | 01:37:43 | 00:00:00 | |
| DF8AY | 2026-09-04 17:56:43 | 50.59368 | 11.85636 | 100° | 31km/h | 21774m | 5.3m/s | -53.6°C | 0.6% | 44.1hPa | 2.7V | 18:12:15 | 01:37:47 | 00:00:00 | |
| HSKMA3-T | 2026-09-04 17:56:42 | 50.59369 | 11.85623 | 94° | 35km/h | 21769m | 5m/s | -53.6°C | 0.7% | 44.1hPa | 2.7V | 18:12:15 | 01:37:46 | 00:00:00 | |
| DO3MHA-11 | 2026-09-04 17:56:42 | 50.59369 | 11.85623 | 94° | 29km/h | 21769m | 4.9m/s | -53.5°C | 4.3% | 44.0hPa | 2.6V | 00:00:00 | 01:37:46 | 00:00:00 | |
| PG1ADW-2 | 2026-09-04 17:56:41 | 50.59369 | 11.85609 | 88° | 29km/h | 21765m | 3.9m/s | -53.5°C | 4.3% | 44.1hPa | 2.6V | 00:00:00 | 00:00:00 | 00:00:00 | |
| OE5DXL-15 | 2026-09-04 17:56:40 | 50.59369 | 11.85596 | 87° | 22km/h | 21760m | 4.2m/s | -53.6°C | 4.3% | 44.1hPa | 2.6V | 00:00:00 | 01:37:44 | 08:30:00 | |
| DL1XH1-15 | 2026-09-04 17:56:39 | 50.59364 | 11.85528 | 77° | 26km/h | 21732m | 4m/s | -53.7°C | 4.4% | 44.4hPa | 2.6V | 08:30:00 | 01:37:38 | 00:00:00 | |
| DL1XH-west | 2026-09-04 17:56:39 | 50.59368 | 11.85583 | 87° | 31km/h | 21755m | 5m/s | -53.7°C | 0.6% | 44.2hPa | 2.6V | 18:12:15 | 01:37:43 | 00:00:00 | |
| OE5FHM-15 | 2026-09-04 17:56:39 | 50.59368 | 11.85583 | 87° | 22km/h | 21756m | 5.0m/s | -53.6°C | 4.3% | 44.2hPa | 2.6V | 00:00:00 | 01:37:43 | 00:00:00 | |
| DL1XH-15 | 2026-09-04 17:56:37 | 50.59362 | 11.85511 | 88° | 20km/h | 21722m | 4.3m/s | -53.7°C | 4.4% | 44.5hPa | 2.6V | 08:30:00 | 01:37:36 | 00:00:00 | |
| DL6DJ-15 | 2026-09-04 17:56:36 | 50.59366 | 11.85549 | 80° | 26km/h | 21742m | 5.4m/s | -53.7°C | 1.1% | 44.3hPa | 2.7V | 00:00:00 | 00:00:00 | 00:00:00 | |
| AM1SDL-15 | 2026-09-04 17:56:34 | 50.59363 | 11.85528 | 78° | 22km/h | 21733m | 4.0m/s | -53.7°C | 4.4% | 44.3hPa | 2.7V | 00:00:00 | 01:37:38 | 00:00:00 | |
| DM0DOS-11 | 2026-09-04 17:56:33 | 50.59359 | 11.85478 | 68° | 22km/h | 21703m | 4.7m/s | -53.7°C | 4.4% | 44.6hPa | 2.7V | 08:30:00 | 01:37:32 | 00:00:00 | |
| DF8AY | 2026-09-04 17:56:33 | 50.59362 | 11.85519 | 82° | 22km/h | 21727m | 5.6m/s | -53.7°C | 0.7% | 44.4hPa | 2.6V | 18:12:15 | 01:37:37 | 00:00:00 | |
| AA1-15 | 2026-09-04 17:56:32 | 50.59362 | 11.85510 | 89° | 20km/h | 21722m | 4.3m/s | -53.7°C | 0.7% | 44.5hPa | 2.6V | 18:12:15 | 01:37:36 | 00:00:00 | |
| DO3MHA-11 | 2026-09-04 17:56:32 | 50.59362 | 11.85510 | 89° | 22km/h | 21723m | 4.3m/s | -53.6°C | 4.4% | 44.4hPa | 2.6V | 00:00:00 | 01:37:36 | 00:00:00 | |
| DL3JIN-12 | 2026-09-04 17:56:30 | 50.59362 | 11.85502 | 89° | 20km/h | 21719m | 4.0m/s | -53.7°C | 1.2% | 44.5hPa | 2.6V | 00:00:00 | 00:00:00 | 00:00:00 | |
| DL1XH1-15 | 2026-09-04 17:56:29 | 50.59352 | 11.85446 | 77° | 20km/h | 21685m | 4m/s | -53.6°C | 4.4% | 44.7hPa | 2.6V | 08:30:00 | 01:37:28 | 00:00:00 | |
| DL1XH-west | 2026-09-04 17:56:29 | 50.59360 | 11.85486 | 75° | 22km/h | 21708m | 5.4m/s | -53.7°C | 0.7% | 44.5hPa | 2.7V | 18:12:15 | 01:37:33 | 00:00:00 | |
| D01LWL | 2026-09-04 17:56:28 | 50.59357 | 11.85470 | 68° | 22km/h | 21699m | 4.1m/s | -53.7°C | 1.1% | 44.6hPa | 2.6V | 00:00:00 | 00:00:00 | 00:00:00 | |
| DO9LL-15 | 2026-09-04 17:56:27 | 50.59356 | 11.85470 | 69° | 18km/h | 21699m | 4.0m/s | -53.7°C | 4.4% | 44.6hPa | 2.6V | 00:00:00 | 01:37:31 | 00:00:00 | |
| NBG1-10 | 2026-09-04 17:56:26 | 50.59355 | 11.85462 | 72° | 18km/h | 21694m | 5.5m/s | -53.6°C | 4.4% | 44.6hPa | 2.6V | 00:00:00 | 01:37:30 | 00:00:00 | |
| DH8WE-5 | 2026-09-04 17:56:24 | 50.59353 | 11.85454 | 79° | 20km/h | 21689m | 4.6m/s | -53.7°C | 1.1% | 44.7hPa | 2.6V | 00:00:00 | 00:00:00 | 00:00:00 | |
| DM0DOS-11 | 2026-09-04 17:56:23 | 50.59339 | 11.85405 | 61° | 16km/h | 21656m | 4.8m/s | -53.5°C | 4.5% | 44.9hPa | 2.6V | 08:30:00 | 01:37:22 | 00:00:00 | |
| DF8AY | 2026-09-04 17:56:22 | 50.59349 | 11.85431 | 64° | 20km/h | 21675m | 5.3m/s | -53.6°C | 0.7% | 44.8hPa | 2.7V | 18:12:15 | 01:37:26 | 00:00:00 | |
| AA1-15 | 2026-09-04 17:56:20 | 50.59344 | 11.85417 | 55° | 20km/h | 21666m | 4.1m/s | -53.5°C | 0.7% | 44.8hPa | 2.6V | 18:12:15 | 01:37:24 | 00:00:00 | |
| DL1XH-west | 2026-09-04 17:56:18 | 50.59339 | 11.85405 | 62° | 16km/h | 21656m | 4.8m/s | -53.5°C | 0.8% | 44.9hPa | 2.6V | 18:12:15 | 01:37:22 | 00:00:00 | |
| S3001 | 2026-09-04 17:56:17 | 50.59335 | 11.85394 | 58° | 16km/h | 21647m | 5.2m/s | -53.5°C | -1.0% | 45.0hPa | 2.7V | 00:00:00 | 00:00:00 | 00:00:00 | |
| DL1ZP-14 | 2026-09-04 17:56:14 | 50.59329 | 11.85382 | 49° | 18km/h | 21637m | 4.7m/s | -53.4°C | 1.2% | 45.0hPa | 2.7V | 00:00:00 | 00:00:00 | 00:00:00 | |
| DM0DOS-11 | 2026-09-04 17:56:13 | 50.59310 | 11.85346 | 52° | 20km/h | 21608m | 4.3m/s | -53.2°C | 4.3% | 45.2hPa | 2.7V | 08:30:00 | 01:37:12 | 00:00:00 | |
| DF8AY | 2026-09-04 17:56:12 | 50.59323 | 11.85370 | 51° | 18km/h | 21627m | 4.9m/s | -53.4°C | 0.7% | 45.1hPa | 2.6V | 18:12:15 | 01:37:16 | 00:00:00 | |
| HSKMA3-T | 2026-09-04 17:56:11 | 50.59320 | 11.85365 | 50° | 18km/h | 21623m | 3.7m/s | -53.3°C | 0.7% | 45.1hPa | 2.6V | 18:12:15 | 01:37:15 | 00:00:00 | |
| AA1-15 | 2026-09-04 17:56:10 | 50.59317 | 11.85359 | 50° | 20km/h | 21618m | 5.4m/s | -53.3°C | 0.7% | 45.2hPa | 2.6V | 18:12:15 | 01:37:14 | 00:00:00 | |
| OE5DXL-15 | 2026-09-04 17:56:10 | 50.59317 | 11.85358 | 50° | 18km/h | 21618m | 5.3m/s | -53.3°C | 4.4% | 45.1hPa | 2.7V | 00:00:00 | 00:00:00 | 00:00:00 | |
| OE5FHM-15 | 2026-09-04 17:56:09 | 50.59313 | 11.85352 | 49° | 16km/h | 21613m | 5.2m/s | -53.2°C | 4.3% | 45.2hPa | 2.7V | 00:00:00 | 01:37:13 | 00:00:00 | |
| OE5DRO-10 | 2026-09-04 17:56:08 | 50.59310 | 11.85346 | 53° | 18km/h | 21608m | 4.2m/s | -53.2°C | 4.3% | 45.2hPa | 2.7V | 00:00:00 | 00:00:00 | 00:00:00 | |
| DL1XH-15 | 2026-09-04 17:56:07 | 50.59295 | 11.85312 | 38° | 18km/h | 21578m | 4m/s | -53.1°C | 4.2% | 45.5hPa | 2.7V | 08:30:00 | 01:37:06 | 00:00:00 | |
| DL1XH-west | 2026-09-04 17:56:07 | 50.59307 | 11.85339 | 59° | 20km/h | 21603m | 5.7m/s | -53.2°C | 0.6% | 45.3hPa | 2.7V | 18:12:15 | 01:37:11 | 00:00:00 | |
| DF8AY | 2026-09-04 17:56:01 | 50.59291 | 11.85307 | 37° | 16km/h | 21574m | 5.1m/s | -53.2°C | 0.6% | 45.5hPa | 2.7V | 18:12:15 | 01:37:05 | 00:00:00 | |
| HSKMA3-T | 2026-09-04 17:56:00 | 50.59288 | 11.85303 | 38° | 15km/h | 21569m | 5.3m/s | -53.1°C | 0.7% | 45.5hPa | 2.7V | 18:12:15 | 01:37:04 | 00:00:00 | |
| DL1XH1-15 | 2026-09-04 17:55:59 | 50.59265 | 11.85275 | 46° | 24km/h | 21539m | 5.8m/s | -53.1°C | 4.3% | 45.7hPa | 2.7V | 08:30:00 | 01:36:58 | 00:00:00 | |
| AA1-15 | 2026-09-04 17:55:59 | 50.59285 | 11.85300 | 38° | 15km/h | 21564m | 4.5m/s | -53.2°C | 0.7% | 45.6hPa | 2.6V | 18:12:15 | 01:37:03 | 00:00:00 | |
| AM1SDL-15 | 2026-09-04 17:55:58 | 50.59282 | 11.85296 | 36° | 15km/h | 21559m | 4.6m/s | -53.1°C | 4.3% | 45.5hPa | 2.6V | 00:00:00 | 01:37:02 | 00:00:00 | |
| DL1XH-15 | 2026-09-04 17:55:57 | 50.59258 | 11.85261 | 57° | 20km/h | 21529m | 4.7m/s | -53°C | 4.3% | 45.8hPa | 2.6V | 08:30:00 | 01:36:56 | 00:00:00 | |
| DL1XH-west | 2026-09-04 17:55:57 | 50.59278 | 11.85292 | 36° | 20km/h | 21554m | 5.5m/s | -53.1°C | 0.6% | 45.6hPa | 2.6V | 18:12:15 | 01:37:01 | 00:00:00 | |
| DF8AY | 2026-09-04 17:55:51 | 50.59255 | 11.85254 | 57° | 20km/h | 21524m | 5.6m/s | -53°C | 0.6% | 45.8hPa | 2.6V | 18:12:15 | 01:36:55 | 00:00:00 | |
| AA1-15 | 2026-09-04 17:55:49 | 50.59250 | 11.85242 | 48° | 16km/h | 21514m | 4.2m/s | -53°C | 0.6% | 45.9hPa | 2.6V | 18:12:15 | 01:36:53 | 00:00:00 | |
| DL1XH-15 | 2026-09-04 17:55:47 | 50.59235 | 11.85229 | 8° | 13km/h | 21480m | 4.1m/s | -53.1°C | 4.2% | 46.1hPa | 2.6V | 08:30:00 | 01:36:46 | 00:00:00 | |
| DL1XH-west | 2026-09-04 17:55:46 | 50.59206 | 11.85175 | 50° | 16km/h | 21416m | 4.6m/s | -53°C | 0.6% | 46.6hPa | 2.6V | 18:12:15 | 01:36:33 | 00:00:00 | |
| DM0DOS-11 | 2026-09-04 17:55:46 | 50.59232 | 11.85228 | 15° | 13km/h | 21475m | 5.1m/s | -53°C | 4.2% | 46.2hPa | 2.7V | 08:30:00 | 01:36:45 | 00:00:00 | |
| DF8AY | 2026-09-04 17:55:40 | 50.59229 | 11.85227 | 26° | 11km/h | 21470m | 5.7m/s | -53°C | 0.6% | 46.2hPa | 2.7V | 18:12:15 | 01:36:44 | 00:00:00 | |
| HSKMA3-T | 2026-09-04 17:55:38 | 50.59226 | 11.85221 | 56° | 11km/h | 21461m | 4m/s | -53°C | 0.6% | 46.3hPa | 2.6V | 18:12:15 | 01:36:42 | 00:00:00 | |
| AA1-15 | 2026-09-04 17:55:36 | 50.59221 | 11.85212 | 51° | 16km/h | 21451m | 5.5m/s | -53°C | 0.6% | 46.4hPa | 2.6V | 18:12:15 | 01:36:40 | 00:00:00 | |
| DL6DJ-15 | 2026-09-04 17:55:34 | 50.59216 | 11.85202 | 55° | 16km/h | 21441m | 5.3m/s | -53.0°C | 1.1% | 46.4hPa | 2.6V | 00:00:00 | 00:00:00 | 00:00:00 | |
| DM0DOS-11 | 2026-09-04 17:55:33 | 50.59211 | 11.85185 | 63° | 15km/h | 21427m | 4.5m/s | -53°C | 4.3% | 46.5hPa | 2.6V | 08:30:00 | 01:36:35 | 00:00:00 | |
| DF8AY | 2026-09-04 17:55:30 | 50.59209 | 11.85180 | 56° | 16km/h | 21421m | 5.7m/s | -53°C | 0.6% | 46.6hPa | 2.6V | 18:12:15 | 01:36:34 | 00:00:00 | |
| DL1XH1-15 | 2026-09-04 17:55:30 | 50.59199 | 11.85151 | 78° | 15km/h | 21392m | 4.3m/s | -53°C | 4.2% | 46.8hPa | 2.6V | 08:30:00 | 01:36:28 | 00:00:00 | |
| HSKMA3-T | 2026-09-04 17:55:28 | 50.59204 | 11.85170 | 51° | 15km/h | 21412m | 4.5m/s | -53°C | 0.6% | 46.7hPa | 2.6V | 18:12:15 | 01:36:32 | 00:00:00 | |
| AA1-15 | 2026-09-04 17:55:25 | 50.59200 | 11.85156 | 81° | 13km/h | 21397m | 4.1m/s | -53°C | 0.5% | 46.8hPa | 2.7V | 18:12:15 | 01:36:29 | 00:00:00 | |
| DL1XH-15 | 2026-09-04 17:55:22 | 50.59196 | 11.85138 | 65° | 20km/h | 21382m | 5.2m/s | -52.9°C | 4.2% | 46.8hPa | 2.6V | 08:30:00 | 01:36:26 | 00:00:00 | |
| DO3MHA-11 | 2026-09-04 17:55:21 | 50.59194 | 11.85130 | 66° | 22km/h | 21377m | 4.7m/s | -52.8°C | 4.2% | 46.8hPa | 2.6V | 00:00:00 | 01:36:25 | 00:00:00 | |
| NBG1-10 | 2026-09-04 17:55:20 | 50.59191 | 11.85121 | 71° | 27km/h | 21372m | 5.4m/s | -52.8°C | 4.2% | 46.9hPa | 2.7V | 00:00:00 | 01:36:24 | 00:00:00 | |
| DL1XH-west | 2026-09-04 17:55:19 | 50.59171 | 11.84914 | 94° | 20km/h | 21263m | 5.4m/s | -53°C | 0.6% | 47.7hPa | 2.7V | 18:12:15 | 01:36:02 | 00:00:00 | |
| DL1XH1-15 | 2026-09-04 17:55:19 | 50.59182 | 11.85069 | 83° | 16km/h | 21342m | 5.7m/s | -52.7°C | 4.2% | 47.1hPa | 2.6V | 08:30:00 | 01:36:18 | 00:00:00 | |
| DF8AY | 2026-09-04 17:55:19 | 50.59190 | 11.85111 | 75° | 26km/h | 21366m | 5.1m/s | -52.9°C | 0.6% | 47hPa | 2.7V | 18:12:15 | 01:36:23 | 00:00:00 | |
| HSKMA3-T | 2026-09-04 17:55:17 | 50.59186 | 11.85092 | 74° | 24km/h | 21357m | 5.7m/s | -52.8°C | 0.6% | 47hPa | 2.6V | 18:12:15 | 01:36:21 | 00:00:00 | |
| AA1-15 | 2026-09-04 17:55:15 | 50.59183 | 11.85076 | 75° | 18km/h | 21347m | 4.5m/s | -52.7°C | 0.6% | 47.1hPa | 2.6V | 18:12:15 | 01:36:19 | 00:00:00 | |
| DM0DOS-11 | 2026-09-04 17:55:13 | 50.59183 | 11.85050 | 91° | 16km/h | 21327m | 5.2m/s | -52.7°C | 4.2% | 47.2hPa | 2.7V | 08:30:00 | 01:36:15 | 00:00:00 | |
| DL1ZP-14 | 2026-09-04 17:55:12 | 50.59182 | 11.85056 | 95° | 15km/h | 21332m | 4.1m/s | -52.7°C | 1.1% | 47.2hPa | 2.7V | 00:00:00 | 00:00:00 | 00:00:00 | |
| DO3MHA-11 | 2026-09-04 17:55:11 | 50.59182 | 11.85050 | 92° | 27km/h | 21327m | 5.1m/s | -52.6°C | 4.2% | 47.2hPa | 2.7V | 00:00:00 | 01:36:15 | 00:00:00 | |
| DL1XH1-15 | 2026-09-04 17:55:09 | 50.59176 | 11.84979 | 75° | 37km/h | 21292m | 5.4m/s | -52.8°C | 4.1% | 47.5hPa | 2.7V | 08:30:00 | 01:36:08 | 00:00:00 | |
| DF8AY | 2026-09-04 17:55:08 | 50.59181 | 11.85027 | 84° | 22km/h | 21313m | 5.7m/s | -52.7°C | 0.6% | 47.4hPa | 2.6V | 18:12:15 | 01:36:12 | 00:00:00 | |
| HSKMA3-T | 2026-09-04 17:55:06 | 50.59180 | 11.85006 | 82° | 31km/h | 21303m | 4.5m/s | -52.7°C | 0.6% | 47.4hPa | 2.7V | 18:12:15 | 01:36:10 | 00:00:00 | |
| AM1SDL-15 | 2026-09-04 17:55:05 | 50.59178 | 11.84993 | 80° | 29km/h | 21298m | 5.6m/s | -52.7°C | 4.2% | 47.4hPa | 2.6V | 00:00:00 | 01:36:09 | 00:00:00 | |
| DM0DOS-11 | 2026-09-04 17:55:04 | 50.59171 | 11.84941 | 84° | 27km/h | 21278m | 6m/s | -53°C | 4.2% | 47.6hPa | 2.6V | 08:30:00 | 01:36:05 | 00:00:00 | |
| AA1-15 | 2026-09-04 17:55:04 | 50.59176 | 11.84979 | 75° | 37km/h | 21292m | 5.4m/s | -52.8°C | 0.5% | 47.5hPa | 2.7V | 18:12:15 | 01:36:08 | 00:00:00 | |
| DF8AY | 2026-09-04 17:54:57 | 50.59171 | 11.84905 | 88° | 22km/h | 21258m | 4.4m/s | -53°C | 0.6% | 47.8hPa | 2.7V | 18:12:15 | 01:36:01 | 00:00:00 | |
| HSKMA3-T | 2026-09-04 17:54:55 | 50.59170 | 11.84884 | 85° | 31km/h | 21250m | 5.3m/s | -53.1°C | 0.6% | 47.8hPa | 2.6V | 18:12:15 | 01:35:59 | 00:00:00 | |
| DL1XH-15 | 2026-09-04 17:54:52 | 50.59167 | 11.84841 | 78° | 40km/h | 21235m | 4.6m/s | -53°C | 4.3% | 47.9hPa | 2.7V | 08:30:00 | 01:35:56 | 00:00:00 | |
| AA1-15 | 2026-09-04 17:54:51 | 50.59164 | 11.84825 | 74° | 42km/h | 21230m | 5.4m/s | -53°C | 0.6% | 48hPa | 2.7V | 18:12:15 | 01:35:55 | 00:00:00 | |
| DF8AY | 2026-09-04 17:54:47 | 50.59152 | 11.84760 | 78° | 40km/h | 21210m | 4.3m/s | -52.9°C | 0.6% | 48.1hPa | 2.6V | 18:12:15 | 01:35:51 | 00:00:00 | |
| NBG1-10 | 2026-09-04 17:54:47 | 50.59152 | 11.84760 | 79° | 31km/h | 21211m | 4.3m/s | -52.8°C | 4.3% | 48.1hPa | 2.6V | 00:00:00 | 01:35:51 | 00:00:00 | |
| DL1XH-west | 2026-09-04 17:54:46 | 50.59133 | 11.84512 | 97° | 22km/h | 21117m | 4.8m/s | -52.8°C | 0.6% | 48.8hPa | 2.6V | 18:12:15 | 01:35:31 | 00:00:00 | |
| SONDE2-11 | 2026-09-04 17:54:45 | 50.59149 | 11.84732 | 82° | 31km/h | 21202m | 5.6m/s | -52.8°C | 1.1% | 48.2hPa | 2.7V | 00:00:00 | 00:00:00 | 00:00:00 | |
| HSKMA3-T | 2026-09-04 17:54:44 | 50.59148 | 11.84720 | 87° | 27km/h | 21196m | 4.5m/s | -52.8°C | 0.6% | 48.2hPa | 2.7V | 18:12:15 | 01:35:48 | 00:00:00 | |
| AA1-15 | 2026-09-04 17:54:39 | 50.59150 | 11.84669 | 82° | 26km/h | 21172m | 4.7m/s | -52.9°C | 0.6% | 48.4hPa | 2.6V | 18:12:15 | 01:35:43 | 00:00:00 | |
| OE5FHM-15 | 2026-09-04 17:54:39 | 50.59150 | 11.84669 | 83° | 29km/h | 21172m | 4.7m/s | -52.8°C | 4.2% | 48.4hPa | 2.6V | 00:00:00 | 01:35:43 | 00:00:00 | |
| OE5DXL-15 | 2026-09-04 17:54:38 | 50.59149 | 11.84658 | 76° | 29km/h | 21168m | 3.7m/s | -52.8°C | 4.2% | 48.4hPa | 2.6V | 00:00:00 | 00:00:00 | 00:00:00 | |
| DL1XH-15 | 2026-09-04 17:54:37 | 50.59132 | 11.84570 | 77° | 35km/h | 21140m | 3.5m/s | -52.8°C | 4.2% | 48.6hPa | 2.6V | 08:30:00 | 01:35:36 | 00:00:00 | |
| DL1XH-west | 2026-09-04 17:54:37 | 50.59133 | 11.84504 | 85° | 20km/h | 21112m | 5.2m/s | -52.8°C | 0.6% | 48.9hPa | 2.6V | 18:12:15 | 01:35:30 | 00:00:00 | |
| DF8AY | 2026-09-04 17:54:36 | 50.59144 | 11.84631 | 74° | 40km/h | 21158m | 5.3m/s | -52.9°C | 0.6% | 48.5hPa | 2.7V | 18:12:15 | 01:35:40 | 00:00:00 | |
| HSKMA3-T | 2026-09-04 17:54:34 | 50.59138 | 11.84599 | 73° | 42km/h | 21149m | 4.9m/s | -52.8°C | 0.6% | 48.6hPa | 2.6V | 18:12:15 | 01:35:38 | 00:00:00 | |
| OE5DRO-10 | 2026-09-04 17:54:33 | 50.59134 | 11.84584 | 74° | 29km/h | 21144m | 4.3m/s | -52.8°C | 4.2% | 48.6hPa | 2.7V | 00:00:00 | 00:00:00 | 00:00:00 | |
| DL6DJ-15 | 2026-09-04 17:54:32 | 50.59132 | 11.84570 | 77° | 33km/h | 21140m | 3.5m/s | -52.8°C | 1.1% | 48.6hPa | 2.7V | 00:00:00 | 00:00:00 | 00:00:00 | |
| DO3MHA-11 | 2026-09-04 17:54:31 | 50.59131 | 11.84557 | 84° | 26km/h | 21136m | 4.9m/s | -52.7°C | 4.2% | 48.6hPa | 2.7V | 00:00:00 | 01:35:35 | 00:00:00 | |
| DL1XH1-15 | 2026-09-04 17:54:29 | 50.59130 | 11.84488 | 67° | 24km/h | 21103m | 4.3m/s | -52.8°C | 4.2% | 48.9hPa | 2.7V | 08:30:00 | 01:35:28 | 00:00:00 | |
| AA1-15 | 2026-09-04 17:54:29 | 50.59131 | 11.84533 | 99° | 29km/h | 21126m | 4.5m/s | -52.8°C | 0.6% | 48.8hPa | 2.7V | 18:12:15 | 01:35:33 | 00:00:00 | |
| DL3JIN-12 | 2026-09-04 17:54:28 | 50.59131 | 11.84532 | 100° | 29km/h | 21126m | 4.5m/s | -52.8°C | 1.1% | 48.8hPa | 2.7V | 00:00:00 | 00:00:00 | 00:00:00 | |
| DL1XH-15 | 2026-09-04 17:54:27 | 50.59126 | 11.84468 | 72° | 31km/h | 21094m | 4.6m/s | -52.7°C | 4.1% | 49hPa | 2.7V | 08:30:00 | 01:35:26 | 00:00:00 | |
| DF8AY | 2026-09-04 17:54:25 | 50.59132 | 11.84496 | 72° | 20km/h | 21107m | 4.1m/s | -52.8°C | 0.7% | 48.9hPa | 2.6V | 18:12:15 | 01:35:29 | 00:00:00 | |
| HSKMA3-T | 2026-09-04 17:54:24 | 50.59130 | 11.84488 | 67° | 24km/h | 21103m | 4.4m/s | -52.8°C | 0.6% | 48.9hPa | 2.7V | 18:12:15 | 01:35:28 | 00:00:00 | |
| DJ2DS-15 | 2026-09-04 17:54:23 | 50.59128 | 11.84479 | 69° | 31km/h | 21099m | 4.8m/s | -52.7°C | 4.2% | 48.9hPa | 2.7V | 00:00:00 | 01:35:27 | 00:00:00 | |
| DH8WE-5 | 2026-09-04 17:54:22 | 50.59128 | 11.84479 | 69° | 27km/h | 21099m | 4.9m/s | -52.8°C | 1.1% | 49.0hPa | 2.6V | 00:00:00 | 00:00:00 | 00:00:00 | |
| DO3MHA-11 | 2026-09-04 17:54:21 | 50.59123 | 11.84455 | 76° | 29km/h | 21089m | 4.0m/s | -52.6°C | 4.1% | 49.0hPa | 2.6V | 00:00:00 | 01:35:25 | 08:30:00 | |
| DL1XH1-15 | 2026-09-04 17:54:19 | 50.59113 | 11.84375 | 86° | 26km/h | 21056m | 4.2m/s | -52.7°C | 4.2% | 49.3hPa | 2.6V | 08:30:00 | 01:35:18 | 00:00:00 | |
| SONCRA | 2026-09-04 17:54:19 | 50.59119 | 11.84430 | 75° | 31km/h | 21080m | 5.4m/s | -52.7°C | 1.1% | 49.1hPa | 2.6V | 00:00:00 | 00:00:00 | 00:00:00 | |
| DL1XH-west | 2026-09-04 17:54:19 | 50.59119 | 11.84430 | 76° | 31km/h | 21080m | 5.4m/s | -52.7°C | 0.5% | 49.1hPa | 2.6V | 18:12:15 | 01:35:23 | 00:00:00 | |
| DL1XH-15 | 2026-09-04 17:54:17 | 50.59112 | 11.84355 | 81° | 24km/h | 21047m | 4.2m/s | -52.7°C | 4.2% | 49.4hPa | 2.6V | 08:30:00 | 01:35:16 | 00:00:00 | |
| AA1-15 | 2026-09-04 17:54:16 | 50.59114 | 11.84396 | 83° | 27km/h | 21066m | 5.6m/s | -52.8°C | 0.6% | 49.2hPa | 2.7V | 18:12:15 | 01:35:20 | 00:00:00 | |
| DF8AY | 2026-09-04 17:54:15 | 50.59114 | 11.84385 | 86° | 27km/h | 21061m | 4.5m/s | -52.7°C | 0.6% | 49.3hPa | 2.7V | 18:12:15 | 01:35:19 | 00:00:00 | |
| HSKMA3-T | 2026-09-04 17:54:13 | 50.59113 | 11.84365 | 85° | 24km/h | 21052m | 5.4m/s | -52.7°C | 0.5% | 49.4hPa | 2.6V | 18:12:15 | 01:35:17 | 00:00:00 | |
| DM0DOS-11 | 2026-09-04 17:54:12 | 50.59111 | 11.84345 | 79° | 27km/h | 21042m | 4.5m/s | -52.7°C | 4.2% | 49.4hPa | 2.6V | 08:30:00 | 01:35:15 | 00:00:00 | |
| DK5PH-5 | 2026-09-04 17:54:11 | 50.59111 | 11.84345 | 80° | 29km/h | 21043m | 4.5m/s | -52.6°C | 4.2% | 49.4hPa | 2.6V | 00:00:00 | 01:35:15 | 00:00:00 | |
| DL1ZP-14 | 2026-09-04 17:54:10 | 50.59110 | 11.84333 | 78° | 31km/h | 21038m | 5.5m/s | -52.7°C | 1.1% | 49.4hPa | 2.7V | 00:00:00 | 00:00:00 | 00:00:00 | |
| DL1XH1-15 | 2026-09-04 17:54:09 | 50.59096 | 11.84253 | 79° | 35km/h | 21012m | 4.9m/s | -52.8°C | 4.1% | 49.6hPa | 2.6V | 08:30:00 | 01:35:08 | 00:00:00 | |
| OE5FHM-15 | 2026-09-04 17:54:09 | 50.59108 | 11.84320 | 77° | 29km/h | 21033m | 4.2m/s | -52.7°C | 4.2% | 49.4hPa | 2.7V | 00:00:00 | 01:35:13 | 00:00:00 | |
| OE5DXL-15 | 2026-09-04 17:54:08 | 50.59105 | 11.84306 | 74° | 29km/h | 21028m | 4.2m/s | -52.7°C | 4.1% | 49.5hPa | 2.7V | 00:00:00 | 00:00:00 | 00:00:00 | |
| DL1XH-15 | 2026-09-04 17:54:07 | 50.59094 | 11.84226 | 89° | 35km/h | 21002m | 4.2m/s | -52.9°C | 4.1% | 49.7hPa | 2.7V | 08:30:00 | 01:35:06 | 00:00:00 | |
| AA1-15 | 2026-09-04 17:54:06 | 50.59100 | 11.84279 | 72° | 35km/h | 21019m | 3.8m/s | -52.8°C | 0.5% | 49.6hPa | 2.6V | 18:12:15 | 01:35:10 | 00:00:00 | |
| DF8AY | 2026-09-04 17:54:05 | 50.59097 | 11.84266 | 75° | 35km/h | 21016m | 3.3m/s | -52.8°C | 0.6% | 49.6hPa | 2.6V | 18:12:15 | 01:35:09 | 00:00:00 | |
| HSKMA3-T | 2026-09-04 17:54:03 | 50.59094 | 11.84240 | 85° | 35km/h | 21007m | 4.8m/s | -52.9°C | 0.6% | 49.7hPa | 2.7V | 18:12:15 | 01:35:07 | 00:00:00 | |
| DM0DOS-11 | 2026-09-04 17:54:03 | 50.59094 | 11.84213 | 91° | 31km/h | 20998m | 4.1m/s | -52.9°C | 4.1% | 49.8hPa | 2.7V | 08:30:00 | 01:35:05 | 00:00:00 | |
| DF2AP-13 | 2026-09-04 17:54:02 | 50.59094 | 11.84226 | 90° | 31km/h | 21003m | 4.1m/s | -52.8°C | 4.1% | 49.7hPa | 2.7V | 00:00:00 | 01:35:06 | 00:00:00 | |
| DO3MHA-11 | 2026-09-04 17:54:01 | 50.59094 | 11.84213 | 92° | 27km/h | 20998m | 4.0m/s | -52.9°C | 4.1% | 49.7hPa | 2.7V | 00:00:00 | 01:35:05 | 00:00:00 | |
| DL1XH1-15 | 2026-09-04 17:53:59 | 50.59088 | 11.84142 | 68° | 27km/h | 20965m | 5.1m/s | -53.3°C | 4.2% | 50hPa | 2.7V | 08:30:00 | 01:34:58 | 00:00:00 | |
| DL1XH-15 | 2026-09-04 17:53:57 | 50.59083 | 11.84121 | 74° | 31km/h | 20956m | 4.8m/s | -53.5°C | 4.3% | 50.1hPa | 2.6V | 08:30:00 | 01:34:56 | 00:00:00 | |
| DF8AY | 2026-09-04 17:53:55 | 50.59090 | 11.84153 | 73° | 27km/h | 20970m | 4.8m/s | -53.2°C | 0.6% | 50hPa | 2.7V | 18:12:15 | 01:34:59 | 00:00:00 | |
| D01LWL | 2026-09-04 17:53:53 | 50.59085 | 11.84132 | 69° | 27km/h | 20960m | 4.0m/s | -53.4°C | 1.1% | 50.0hPa | 2.6V | 00:00:00 | 00:00:00 | 00:00:00 | |
| DM0DOS-11 | 2026-09-04 17:53:52 | 50.59081 | 11.84108 | 81° | 33km/h | 20951m | 5m/s | -53.5°C | 4.3% | 50.1hPa | 2.6V | 08:30:00 | 01:34:55 | 00:00:00 | |
| HSKMA3-T | 2026-09-04 17:53:52 | 50.59083 | 11.84121 | 75° | 31km/h | 20956m | 4.8m/s | -53.5°C | 0.6% | 50.1hPa | 2.6V | 18:12:15 | 01:34:56 | 00:00:00 | |
| DF8AY | 2026-09-04 17:53:50 | 50.59078 | 11.84032 | 92° | 26km/h | 20919m | 4.6m/s | -53.6°C | 0.7% | 50.4hPa | 2.6V | 18:12:15 | 01:34:48 | 00:00:00 | |
| DL1XH-west | 2026-09-04 17:53:50 | 50.59040 | 11.83789 | 78° | 31km/h | 20825m | 4.8m/s | -53.6°C | 0.7% | 51.1hPa | 2.6V | 18:12:15 | 01:34:27 | 00:00:00 | |
| DL1XH1-15 | 2026-09-04 17:53:49 | 50.59078 | 11.84032 | 91° | 26km/h | 20919m | 4.5m/s | -53.6°C | 4.4% | 50.4hPa | 2.6V | 08:30:00 | 01:34:48 | 00:00:00 | |
| SONCRA | 2026-09-04 17:53:48 | 50.59079 | 11.84071 | 86° | 27km/h | 20938m | 5.2m/s | -53.7°C | 1.1% | 50.2hPa | 2.7V | 00:00:00 | 00:00:00 | 00:00:00 | |
| DL1XH-15 | 2026-09-04 17:53:47 | 50.59078 | 11.84010 | 86° | 29km/h | 20911m | 4.1m/s | -53.8°C | 4.4% | 50.4hPa | 2.7V | 08:30:00 | 01:34:46 | 00:00:00 | |
| AA1-15 | 2026-09-04 17:53:45 | 50.59078 | 11.84042 | 88° | 24km/h | 20924m | 5.2m/s | -53.6°C | 0.7% | 50.3hPa | 2.6V | 18:12:15 | 01:34:49 | 00:00:00 | |
| ANDY1245 | 2026-09-04 17:53:44 | 50.59078 | 11.84042 | 89° | 24km/h | 20925m | 5.2m/s | -53.6°C | 1.2% | 50.3hPa | 2.7V | 00:00:00 | 00:00:00 | 00:00:00 | |
| DM0DOS-11 | 2026-09-04 17:53:42 | 50.59077 | 11.83998 | 80° | 31km/h | 20906m | 5.3m/s | -53.9°C | 4.4% | 50.5hPa | 2.7V | 08:30:00 | 01:34:45 | 00:00:00 | |
| HSKMA3-T | 2026-09-04 17:53:41 | 50.59077 | 11.83998 | 81° | 31km/h | 20906m | 5.3m/s | -53.9°C | 0.7% | 50.5hPa | 2.7V | 18:12:15 | 01:34:45 | 00:00:00 | |
| DO3MHA-11 | 2026-09-04 17:53:41 | 50.59077 | 11.83998 | 81° | 37km/h | 20907m | 5.3m/s | -53.8°C | 4.4% | 50.4hPa | 2.7V | 00:00:00 | 01:34:45 | 00:00:00 | |
| DL1XH1-15 | 2026-09-04 17:53:39 | 50.59063 | 11.83890 | 72° | 37km/h | 20875m | 4.5m/s | -53.8°C | 4.4% | 50.7hPa | 2.7V | 08:30:00 | 01:34:38 | 00:00:00 | |
| OE5FHM-15 | 2026-09-04 17:53:39 | 50.59073 | 11.83971 | 78° | 27km/h | 20897m | 4.0m/s | -53.8°C | 4.4% | 50.5hPa | 2.6V | 00:00:00 | 01:34:43 | 00:00:00 | |
| PG1ADW-2 | 2026-09-04 17:53:38 | 50.59071 | 11.83955 | 81° | 29km/h | 20893m | 5.4m/s | -53.8°C | 4.4% | 50.5hPa | 2.6V | 00:00:00 | 01:34:42 | 00:00:00 | |
| DL1XH-15 | 2026-09-04 17:53:37 | 50.59058 | 11.83866 | 66° | 27km/h | 20866m | 5m/s | -53.8°C | 4.4% | 50.8hPa | 2.6V | 08:30:00 | 01:34:36 | 00:00:00 | |
| AA1-15 | 2026-09-04 17:53:35 | 50.59066 | 11.83905 | 78° | 42km/h | 20879m | 4.7m/s | -53.8°C | 0.7% | 50.7hPa | 2.7V | 18:12:15 | 01:34:39 | 00:00:00 | |
| DF8AY | 2026-09-04 17:53:34 | 50.59063 | 11.83890 | 72° | 37km/h | 20875m | 4.5m/s | -53.8°C | 0.7% | 50.7hPa | 2.7V | 18:12:15 | 01:34:38 | 00:00:00 | |
| DJTTGO | 2026-09-04 17:53:33 | 50.59063 | 11.83890 | 73° | 37km/h | 20875m | 4.5m/s | -53.8°C | 1.1% | 50.7hPa | 2.6V | 00:00:00 | 00:00:00 | 00:00:00 | |
| DM0DOS-11 | 2026-09-04 17:53:32 | 50.59055 | 11.83856 | 66° | 24km/h | 20861m | 4.7m/s | -53.7°C | 4.5% | 50.8hPa | 2.6V | 08:30:00 | 01:34:35 | 00:00:00 | |
| HSKMA3-T | 2026-09-04 17:53:31 | 50.59055 | 11.83856 | 66° | 24km/h | 20861m | 4.7m/s | -53.7°C | 0.8% | 50.8hPa | 2.6V | 18:12:15 | 01:34:35 | 00:00:00 | |
| DO3MHA-11 | 2026-09-04 17:53:31 | 50.59055 | 11.83856 | 67° | 24km/h | 20862m | 4.7m/s | -53.7°C | 4.5% | 50.8hPa | 2.6V | 00:00:00 | 01:34:35 | 00:00:00 | |
| DL6DJ-15 | 2026-09-04 17:53:30 | 50.59050 | 11.83841 | 59° | 18km/h | 20852m | 5.3m/s | -53.7°C | 1.1% | 50.9hPa | 2.6V | 00:00:00 | 00:00:00 | 00:00:00 | |
| DL1XH-15 | 2026-09-04 17:53:27 | 50.59038 | 11.83777 | 74° | 31km/h | 20821m | 4.4m/s | -53.6°C | 4.4% | 51.1hPa | 2.6V | 08:30:00 | 01:34:26 | 00:00:00 | |
| DL1XH-west | 2026-09-04 17:53:27 | 50.59038 | 11.83777 | 74° | 31km/h | 20821m | 4.4m/s | -53.6°C | 0.7% | 51.1hPa | 2.6V | 18:12:15 | 01:34:26 | 00:00:00 | |
| AA1-15 | 2026-09-04 17:53:24 | 50.59041 | 11.83801 | 80° | 31km/h | 20830m | 3.8m/s | -53.6°C | 0.7% | 51hPa | 2.6V | 18:12:15 | 01:34:28 | 00:00:00 | |
| DB0UT-7 | 2026-09-04 17:53:24 | 50.59041 | 11.83801 | 80° | 20km/h | 20830m | 3.7m/s | -53.6°C | 4.4% | 51.0hPa | 2.7V | 00:00:00 | 00:00:00 | 00:00:00 | |
| DM0DOS-11 | 2026-09-04 17:53:22 | 50.59035 | 11.83766 | 70° | 27km/h | 20816m | 4m/s | -53.5°C | 4.4% | 51.2hPa | 2.7V | 08:30:00 | 01:34:25 | 00:00:00 | |
| HSKMA3-T | 2026-09-04 17:53:20 | 50.59033 | 11.83756 | 70° | 26km/h | 20812m | 4.2m/s | -53.5°C | 0.7% | 51.2hPa | 2.7V | 18:12:15 | 01:34:24 | 00:00:00 | |
| DL1XH1-15 | 2026-09-04 17:53:19 | 50.59017 | 11.83713 | 42° | 22km/h | 20786m | 3.6m/s | -53.4°C | 4.3% | 51.4hPa | 2.7V | 08:30:00 | 01:34:18 | 00:00:00 | |
| DL1XH-15 | 2026-09-04 17:53:17 | 50.59010 | 11.83701 | 56° | 20km/h | 20776m | 4.7m/s | -53.4°C | 4.3% | 51.5hPa | 2.7V | 08:30:00 | 01:34:16 | 00:00:00 | |
| DL1XH-west | 2026-09-04 17:53:16 | 50.59002 | 11.83675 | 72° | 18km/h | 20758m | 3.2m/s | -53.3°C | 0.6% | 51.7hPa | 2.6V | 18:12:15 | 01:34:12 | 00:00:00 | |
| AA1-15 | 2026-09-04 17:53:14 | 50.59017 | 11.83713 | 42° | 22km/h | 20786m | 3.6m/s | -53.5°C | 0.6% | 51.4hPa | 2.7V | 18:12:15 | 01:34:18 | 00:00:00 | |
| DM0DOS-11 | 2026-09-04 17:53:12 | 50.59007 | 11.83695 | 63° | 18km/h | 20772m | 4.2m/s | -53.4°C | 4.3% | 51.5hPa | 2.6V | 08:30:00 | 01:34:15 | 00:00:00 | |
| SONDE2-11 | 2026-09-04 17:53:12 | 50.59007 | 11.83695 | 63° | 18km/h | 20772m | 4.2m/s | -53.4°C | 1.1% | 51.5hPa | 2.6V | 00:00:00 | 00:00:00 | 00:00:00 | |
| DO3MHA-11 | 2026-09-04 17:53:11 | 50.59007 | 11.83695 | 64° | 18km/h | 20772m | 4.1m/s | -53.4°C | 4.3% | 51.5hPa | 2.6V | 00:00:00 | 01:34:15 | 00:00:00 | |
| DL1XH1-15 | 2026-09-04 17:53:09 | 50.58999 | 11.83647 | 74° | 18km/h | 20740m | 4.5m/s | -53.5°C | 4.3% | 51.8hPa | 2.6V | 08:30:00 | 01:34:08 | 00:00:00 | |
| HSKMA3-T | 2026-09-04 17:53:09 | 50.59004 | 11.83681 | 66° | 18km/h | 20762m | 4.4m/s | -53.3°C | 0.6% | 51.6hPa | 2.6V | 18:12:15 | 01:34:13 | 00:00:00 | |
| DF8AY | 2026-09-04 17:53:03 | 50.58997 | 11.83640 | 61° | 18km/h | 20736m | 4.9m/s | -53.5°C | 0.7% | 51.8hPa | 2.6V | 18:12:15 | 01:34:07 | 00:00:00 | |
| DM0DOS-11 | 2026-09-04 17:53:02 | 50.58991 | 11.83628 | 47° | 22km/h | 20727m | 4.3m/s | -53.5°C | 4.3% | 51.9hPa | 2.6V | 08:30:00 | 01:34:05 | 00:00:00 | |
| AA1-15 | 2026-09-04 17:53:02 | 50.58995 | 11.83634 | 51° | 20km/h | 20731m | 4.2m/s | -53.5°C | 0.7% | 51.9hPa | 2.6V | 18:12:15 | 01:34:06 | 00:00:00 | |
| DF2AP-13 | 2026-09-04 17:53:02 | 50.58995 | 11.83634 | 51° | 18km/h | 20732m | 4.1m/s | -53.5°C | 4.4% | 51.8hPa | 2.6V | 00:00:00 | 01:34:06 | 00:00:00 | |
| DO3MHA-11 | 2026-09-04 17:53:01 | 50.58991 | 11.83628 | 48° | 16km/h | 20727m | 4.3m/s | -53.5°C | 4.3% | 51.8hPa | 2.6V | 00:00:00 | 01:34:05 | 00:00:00 | |
| DL1XH-west | 2026-09-04 17:53:01 | 50.58991 | 11.83628 | 48° | 22km/h | 20727m | 4.4m/s | -53.5°C | 0.6% | 51.9hPa | 2.6V | 18:12:15 | 01:34:05 | 00:00:00 | |
| DH8WE-5 | 2026-09-04 17:53:00 | 50.58991 | 11.83628 | 48° | 22km/h | 20727m | 4.4m/s | -53.5°C | 1.1% | 51.9hPa | 2.6V | 00:00:00 | 00:00:00 | 00:00:00 | |
| DL1XH1-15 | 2026-09-04 17:52:59 | 50.58974 | 11.83589 | 93° | 15km/h | 20697m | 5.3m/s | -53.8°C | 4.3% | 52.1hPa | 2.6V | 08:30:00 | 01:33:58 | 00:00:00 | |
| HSKMA3-T | 2026-09-04 17:52:58 | 50.58981 | 11.83609 | 51° | 18km/h | 20714m | 4.1m/s | -53.5°C | 0.6% | 52hPa | 2.7V | 18:12:15 | 01:34:02 | 00:00:00 | |
| DF8AY | 2026-09-04 17:52:53 | 50.58975 | 11.83584 | 111° | 16km/h | 20692m | 4.5m/s | -53.9°C | 0.6% | 52.2hPa | 2.7V | 18:12:15 | 01:33:57 | 00:00:00 | |
| DB0ND-19 | 2026-09-04 17:52:53 | 50.58977 | 11.83578 | 116° | 16km/h | 20688m | 3.7m/s | -53.9°C | 1.1% | 52.2hPa | 2.7V | 00:00:00 | 00:00:00 | 00:00:00 | |
| DM0DOS-11 | 2026-09-04 17:52:52 | 50.58979 | 11.83572 | 117° | 15km/h | 20683m | 5.2m/s | -53.9°C | 4.3% | 52.3hPa | 2.7V | 08:30:00 | 01:33:55 | 00:00:00 | |
| DL1XH-west | 2026-09-04 17:52:51 | 50.58979 | 11.83572 | 117° | 15km/h | 20683m | 5.2m/s | -53.9°C | 0.6% | 52.3hPa | 2.7V | 18:12:15 | 01:33:55 | 00:00:00 | |
| HSKMA3-T | 2026-09-04 17:52:47 | 50.58981 | 11.83554 | 86° | 15km/h | 20665m | 4.4m/s | -54°C | 0.6% | 52.4hPa | 2.6V | 18:12:15 | 01:33:51 | 00:00:00 | |
| SONCRA | 2026-09-04 17:52:46 | 50.58980 | 11.83541 | 78° | 15km/h | 20657m | 4.5m/s | -54.0°C | 1.1% | 52.5hPa | 2.6V | 00:00:00 | 00:00:00 | 00:00:00 | |
| DF8AY | 2026-09-04 17:52:42 | 50.58977 | 11.83523 | 77° | 18km/h | 20642m | 5m/s | -54°C | 0.8% | 52.6hPa | 2.6V | 18:12:15 | 01:33:46 | 00:00:00 | |
| DL1XH-west | 2026-09-04 17:52:40 | 50.58963 | 11.83422 | 70° | 15km/h | 20586m | 3m/s | -54.4°C | 0.7% | 53.1hPa | 2.6V | 18:12:15 | 01:33:33 | 00:00:00 | |
| DL1XH1-15 | 2026-09-04 17:52:40 | 50.58968 | 11.83452 | 81° | 18km/h | 20608m | 4.4m/s | -54.4°C | 4.5% | 52.9hPa | 2.6V | 08:30:00 | 01:33:38 | 00:00:00 | |
| OE5FHM-15 | 2026-09-04 17:52:39 | 50.58974 | 11.83496 | 83° | 20km/h | 20630m | 3.1m/s | -54.0°C | 4.4% | 52.7hPa | 2.7V | 00:00:00 | 01:33:43 | 00:00:00 | |
| OE5DXL-15 | 2026-09-04 17:52:38 | 50.58973 | 11.83486 | 79° | 20km/h | 20626m | 4.4m/s | -54.1°C | 4.4% | 52.7hPa | 2.7V | 00:00:00 | 00:00:00 | 00:00:00 | |
| DL1XH-15 | 2026-09-04 17:52:37 | 50.58966 | 11.83438 | 79° | 16km/h | 20599m | 4.7m/s | -54.3°C | 4.4% | 52.9hPa | 2.7V | 08:30:00 | 01:33:36 | 00:00:00 | |
| HSKMA3-T | 2026-09-04 17:52:37 | 50.58972 | 11.83477 | 74° | 24km/h | 20621m | 4.7m/s | -54.2°C | 0.7% | 52.8hPa | 2.7V | 18:12:15 | 01:33:41 | 00:00:00 | |
| DF8AY | 2026-09-04 17:52:32 | 50.58967 | 11.83439 | 79° | 16km/h | 20599m | 4.7m/s | -54.3°C | 0.7% | 52.9hPa | 2.7V | 18:12:15 | 01:33:36 | 00:00:00 | |
| DF2AP-13 | 2026-09-04 17:52:32 | 50.58967 | 11.83438 | 80° | 20km/h | 20600m | 4.7m/s | -54.3°C | 4.4% | 52.9hPa | 2.7V | 00:00:00 | 01:33:36 | 00:00:00 | |
| DO3MHA-11 | 2026-09-04 17:52:31 | 50.58966 | 11.83432 | 73° | 18km/h | 20595m | 5.1m/s | -54.3°C | 4.4% | 52.9hPa | 2.7V | 00:00:00 | 01:33:35 | 00:00:00 | |
| KRY50SP | 2026-09-04 17:52:30 | 50.58966 | 11.83432 | 73° | 15km/h | 20595m | 5.1m/s | 0°C | 0% | 0hPa | 2.7V | 00:00:00 | 00:00:00 | 00:00:00 | |
| DL1XH1-15 | 2026-09-04 17:52:29 | 50.58964 | 11.83385 | 99° | 22km/h | 20564m | 4.3m/s | -54.4°C | 4.4% | 53.2hPa | 2.7V | 08:30:00 | 01:33:28 | 00:00:00 | |
| DL1XH-west | 2026-09-04 17:52:28 | 50.58962 | 11.83416 | 81° | 16km/h | 20583m | 4.6m/s | -54.3°C | 0.7% | 53.1hPa | 2.6V | 18:12:15 | 01:33:32 | 00:00:00 | |
| DL6DJ-15 | 2026-09-04 17:52:28 | 50.58962 | 11.83409 | 93° | 16km/h | 20578m | 5.0m/s | -54.3°C | 1.2% | 53.1hPa | 2.6V | 00:00:00 | 00:00:00 | 00:00:00 | |
| DL1XH-15 | 2026-09-04 17:52:27 | 50.58966 | 11.83368 | 108° | 24km/h | 20556m | 4.9m/s | -54.3°C | 4.4% | 53.3hPa | 2.6V | 08:30:00 | 01:33:26 | 00:00:00 | |
| AA1-15 | 2026-09-04 17:52:27 | 50.58962 | 11.83409 | 93° | 18km/h | 20578m | 5m/s | -54.3°C | 0.7% | 53.1hPa | 2.6V | 18:12:15 | 01:33:31 | 00:00:00 | |
| HSKMA3-T | 2026-09-04 17:52:26 | 50.58962 | 11.83402 | 98° | 20km/h | 20573m | 4m/s | -54.4°C | 0.7% | 53.2hPa | 2.6V | 18:12:15 | 01:33:30 | 00:00:00 | |
| DF8AY | 2026-09-04 17:52:21 | 50.58969 | 11.83359 | 114° | 24km/h | 20551m | 4.8m/s | -54.3°C | 0.7% | 53.4hPa | 2.6V | 18:12:15 | 01:33:25 | 00:00:00 | |
| DO3MHA-11 | 2026-09-04 17:52:21 | 50.58969 | 11.83359 | 114° | 16km/h | 20552m | 4.7m/s | -54.3°C | 4.4% | 53.3hPa | 2.6V | 00:00:00 | 01:33:25 | 00:00:00 | |
| SP3BTT-10 | 2026-09-04 17:52:20 | 50.58971 | 11.83350 | 115° | 27km/h | 20547m | 3.4m/s | -54.3°C | 4.4% | 53.3hPa | 2.7V | 00:00:00 | 00:00:00 | 00:00:00 | |
| DL1XH1-15 | 2026-09-04 17:52:19 | 50.58976 | 11.83219 | 89° | 18km/h | 20476m | 4m/s | -55.1°C | 4.5% | 54hPa | 2.7V | 08:30:00 | 01:33:08 | 00:00:00 | |
| DL1XH-west | 2026-09-04 17:52:18 | 50.58982 | 11.83058 | 86° | 22km/h | 20403m | 3.5m/s | -55.4°C | 0.9% | 54.6hPa | 2.7V | 18:12:15 | 01:32:52 | 00:00:00 | |
| HSKMA3-T | 2026-09-04 17:52:15 | 50.58973 | 11.83320 | 71° | 13km/h | 20526m | 4.9m/s | -54.5°C | 0.7% | 53.6hPa | 2.6V | 18:12:15 | 01:33:19 | 00:00:00 | |
| AA1-15 | 2026-09-04 17:52:14 | 50.58972 | 11.83315 | 80° | 13km/h | 20522m | 4.5m/s | -54.5°C | 0.7% | 53.6hPa | 2.6V | 18:12:15 | 01:33:18 | 00:00:00 | |
| DF8AY | 2026-09-04 17:52:10 | 50.58971 | 11.83282 | 90° | 29km/h | 20503m | 4.3m/s | -54.8°C | 0.7% | 53.8hPa | 2.7V | 18:12:15 | 01:33:14 | 00:00:00 | |
| SONDE2-11 | 2026-09-04 17:52:10 | 50.58971 | 11.83270 | 95° | 29km/h | 20499m | 4.8m/s | -54.9°C | 1.2% | 53.8hPa | 2.6V | 00:00:00 | 00:00:00 | 00:00:00 | |
| OE5FHM-15 | 2026-09-04 17:52:09 | 50.58971 | 11.83270 | 96° | 27km/h | 20499m | 4.8m/s | -54.8°C | 4.5% | 53.7hPa | 2.6V | 00:00:00 | 01:33:13 | 00:00:00 | |
| OE5DXL-15 | 2026-09-04 17:52:08 | 50.58972 | 11.83258 | 101° | 27km/h | 20494m | 5.0m/s | -54.9°C | 4.6% | 53.8hPa | 2.6V | 00:00:00 | 00:00:00 | 08:30:00 | |
| DL1XH-15 | 2026-09-04 17:52:07 | 50.58976 | 11.83206 | 97° | 15km/h | 20466m | 5m/s | -55.2°C | 4.5% | 54hPa | 2.7V | 08:30:00 | 01:33:06 | 00:00:00 | |
| HSKMA3-T | 2026-09-04 17:52:05 | 50.58976 | 11.83227 | 94° | 22km/h | 20480m | 5.1m/s | -55.1°C | 0.7% | 54hPa | 2.6V | 18:12:15 | 01:33:09 | 00:00:00 | |
| DJ2DS-15 | 2026-09-04 17:52:03 | 50.58976 | 11.83212 | 91° | 26km/h | 20472m | 4.6m/s | -55.1°C | 4.5% | 54.0hPa | 2.6V | 00:00:00 | 01:33:07 | 00:00:00 | |
| ANDY1245 | 2026-09-04 17:52:02 | 50.58976 | 11.83212 | 92° | 16km/h | 20472m | 4.7m/s | -55.2°C | 1.2% | 54.0hPa | 2.6V | 00:00:00 | 00:00:00 | 00:00:00 | |
| DM0DOS-11 | 2026-09-04 17:52:01 | 50.58978 | 11.83192 | 102° | 20km/h | 20458m | 3.7m/s | -55.4°C | 4.7% | 54.1hPa | 2.6V | 08:30:00 | 01:33:04 | 00:00:00 | |
| DF8AY | 2026-09-04 17:52:01 | 50.58978 | 11.83192 | 102° | 20km/h | 20458m | 3.7m/s | -55.4°C | 0.8% | 54.1hPa | 2.6V | 18:12:15 | 01:33:04 | 00:00:00 | |
| DO3MHA-11 | 2026-09-04 17:52:01 | 50.58977 | 11.83199 | 105° | 27km/h | 20462m | 3.8m/s | -55.3°C | 4.6% | 54.0hPa | 2.6V | 00:00:00 | 01:33:05 | 00:00:00 | |
| AM1SDL-15 | 2026-09-04 17:51:59 | 50.58979 | 11.83183 | 97° | 27km/h | 20454m | 5.0m/s | -55.4°C | 4.7% | 54.1hPa | 2.6V | 00:00:00 | 01:33:03 | 00:00:00 | |
| DH8WE-5 | 2026-09-04 17:51:58 | 50.58979 | 11.83183 | 98° | 24km/h | 20454m | 5.1m/s | -55.4°C | 1.2% | 54.2hPa | 2.6V | 00:00:00 | 00:00:00 | 00:00:00 | |
| DL1XH-15 | 2026-09-04 17:51:57 | 50.58983 | 11.83098 | 90° | 31km/h | 20421m | 4.9m/s | -55.3°C | 4.7% | 54.5hPa | 2.6V | 08:30:00 | 01:32:56 | 00:00:00 | |
| AA1-15 | 2026-09-04 17:51:57 | 50.58980 | 11.83162 | 91° | 31km/h | 20444m | 3.9m/s | -55.4°C | 0.8% | 54.2hPa | 2.7V | 18:12:15 | 01:33:01 | 00:00:00 | |
| HSKMA3-T | 2026-09-04 17:51:55 | 50.58981 | 11.83136 | 97° | 33km/h | 20435m | 4.7m/s | -55.3°C | 0.8% | 54.3hPa | 2.7V | 18:12:15 | 01:32:59 | 00:00:00 | |
| AU51GT2 | 2026-09-04 17:51:54 | 50.58982 | 11.83123 | 97° | 31km/h | 20431m | 4.2m/s | -55.3°C | 1.3% | 54.4hPa | 2.7V | 00:00:00 | 00:00:00 | 00:00:00 | |
| DM0DOS-11 | 2026-09-04 17:51:51 | 50.58982 | 11.83076 | 85° | 24km/h | 20412m | 5.1m/s | -55.3°C | 4.7% | 54.5hPa | 2.7V | 08:30:00 | 01:32:54 | 00:00:00 | |
| DF8AY | 2026-09-04 17:51:49 | 50.58982 | 11.83067 | 86° | 22km/h | 20407m | 4.7m/s | -55.4°C | 0.8% | 54.6hPa | 2.7V | 18:12:15 | 01:32:53 | 00:00:00 | |
| DL1XH-15 | 2026-09-04 17:51:47 | 50.58981 | 11.82983 | 99° | 38km/h | 20376m | 4.3m/s | -55.5°C | 4.6% | 54.9hPa | 2.7V | 08:30:00 | 01:32:46 | 00:00:00 | |
| DC4HF-4 | 2026-09-04 17:51:45 | 50.58980 | 11.83027 | 85° | 33km/h | 20390m | 4.2m/s | -55.6°C | 1.2% | 54.7hPa | 2.6V | 00:00:00 | 00:00:00 | 00:00:00 | |
| HSKMA3-T | 2026-09-04 17:51:44 | 50.58979 | 11.83013 | 89° | 37km/h | 20386m | 4.4m/s | -55.5°C | 0.8% | 54.8hPa | 2.6V | 18:12:15 | 01:32:48 | 00:00:00 | |
| SONCRA | 2026-09-04 17:51:44 | 50.58979 | 11.82998 | 94° | 37km/h | 20381m | 5.5m/s | -55.5°C | 1.2% | 54.8hPa | 2.6V | 00:00:00 | 00:00:00 | 00:00:00 | |
| DJ2DS-15 | 2026-09-04 17:51:43 | 50.58979 | 11.82998 | 95° | 27km/h | 20381m | 5.4m/s | -55.5°C | 4.5% | 54.7hPa | 2.6V | 00:00:00 | 01:32:47 | 00:00:00 | |
| DM0DOS-11 | 2026-09-04 17:51:42 | 50.58984 | 11.82955 | 99° | 35km/h | 20368m | 4.6m/s | -55.5°C | 4.5% | 54.9hPa | 2.6V | 08:30:00 | 01:32:44 | 00:00:00 | |
| DL1XH-west | 2026-09-04 17:51:41 | 50.58985 | 11.82912 | 88° | 20km/h | 20349m | 5.3m/s | -55.5°C | 0.8% | 55.1hPa | 2.7V | 18:12:15 | 01:32:40 | 00:00:00 | |
| DF8AY | 2026-09-04 17:51:39 | 50.58985 | 11.82942 | 94° | 31km/h | 20363m | 5.4m/s | -55.5°C | 0.7% | 55hPa | 2.6V | 18:12:15 | 01:32:43 | 00:00:00 | |
| SONDE2-11 | 2026-09-04 17:51:39 | 50.58985 | 11.82930 | 88° | 26km/h | 20358m | 4.2m/s | -55.5°C | 1.2% | 55.0hPa | 2.6V | 00:00:00 | 00:00:00 | 00:00:00 | |
| OE5DXL-15 | 2026-09-04 17:51:38 | 50.58985 | 11.82930 | 89° | 22km/h | 20358m | 4.2m/s | -55.4°C | 4.6% | 54.9hPa | 2.6V | 00:00:00 | 00:00:00 | 00:00:00 | |
| DL1XH-15 | 2026-09-04 17:51:37 | 50.58983 | 11.82879 | 79° | 24km/h | 20331m | 5.4m/s | -55.6°C | 4.5% | 55.2hPa | 2.6V | 08:30:00 | 01:32:36 | 00:00:00 | |
| DM0DOS-11 | 2026-09-04 17:51:35 | 50.58981 | 11.82858 | 78° | 29km/h | 20322m | 3.5m/s | -55.9°C | 4.7% | 55.3hPa | 2.6V | 08:30:00 | 01:32:34 | 00:00:00 | |
| HSKMA3-T | 2026-09-04 17:51:33 | 50.58984 | 11.82888 | 85° | 22km/h | 20336m | 4.5m/s | -55.5°C | 0.7% | 55.2hPa | 2.6V | 18:12:15 | 01:32:37 | 00:00:00 | |
| DL1XH-west | 2026-09-04 17:51:30 | 50.58980 | 11.82858 | 79° | 29km/h | 20322m | 3.5m/s | -55.9°C | 0.8% | 55.3hPa | 2.6V | 18:12:15 | 01:32:34 | 00:00:00 | |
| DF8AY | 2026-09-04 17:51:29 | 50.58979 | 11.82847 | 85° | 29km/h | 20318m | 5.1m/s | -56.1°C | 0.8% | 55.4hPa | 2.7V | 18:12:15 | 01:32:33 | 00:00:00 | |
| NBG1-10 | 2026-09-04 17:51:29 | 50.58979 | 11.82847 | 85° | 18km/h | 20318m | 5.0m/s | -56.0°C | 4.7% | 55.3hPa | 2.7V | 00:00:00 | 01:32:33 | 00:00:00 | |
| DO9LL-15 | 2026-09-04 17:51:27 | 50.58980 | 11.82825 | 97° | 16km/h | 20308m | 4.5m/s | -56.4°C | 5.0% | 55.4hPa | 2.7V | 00:00:00 | 01:32:31 | 00:00:00 | |
| DL6DJ-15 | 2026-09-04 17:51:25 | 50.58981 | 11.82804 | 95° | 24km/h | 20298m | 4.9m/s | -56.4°C | 1.3% | 55.5hPa | 2.7V | 00:00:00 | 00:00:00 | 00:00:00 | |
| DL1XH1-15 | 2026-09-04 17:51:23 | 50.58984 | 11.82761 | 81° | 20km/h | 20273m | 6.5m/s | -56.7°C | 5.1% | 55.7hPa | 2.7V | 08:30:00 | 01:32:24 | 00:00:00 | |
| HSKMA3-T | 2026-09-04 17:51:23 | 50.58983 | 11.82786 | 98° | 22km/h | 20289m | 5.3m/s | -56.6°C | 0.9% | 55.6hPa | 2.6V | 18:12:15 | 01:32:27 | 00:00:00 | |
| DJ2DS-15 | 2026-09-04 17:51:23 | 50.58982 | 11.82786 | 99° | 18km/h | 20290m | 5.3m/s | -56.5°C | 4.9% | 55.5hPa | 2.6V | 00:00:00 | 01:32:27 | 00:00:00 | |
| DM0DOS-11 | 2026-09-04 17:51:22 | 50.58982 | 11.82752 | 67° | 24km/h | 20267m | 5.8m/s | -56.7°C | 5.1% | 55.8hPa | 2.6V | 08:30:00 | 01:32:23 | 00:00:00 | |
| DF8AY | 2026-09-04 17:51:19 | 50.58980 | 11.82743 | 60° | 26km/h | 20262m | 4.7m/s | -56.7°C | 1% | 55.8hPa | 2.6V | 18:12:15 | 01:32:22 | 00:00:00 | |
| D01LWL | 2026-09-04 17:51:18 | 50.58976 | 11.82734 | 61° | 27km/h | 20257m | 5.3m/s | -56.8°C | 1.3% | 55.9hPa | 2.6V | 00:00:00 | 00:00:00 | 00:00:00 | |
| DL1XH-15 | 2026-09-04 17:51:17 | 50.58964 | 11.82688 | 60° | 16km/h | 20232m | 5.3m/s | -56.8°C | 5.1% | 56.1hPa | 2.6V | 08:30:00 | 01:32:16 | 00:00:00 | |
| PG1ADW-2 | 2026-09-04 17:51:16 | 50.58973 | 11.82724 | 66° | 13km/h | 20252m | 5.9m/s | -56.7°C | 5.1% | 55.9hPa | 2.6V | 00:00:00 | 00:00:00 | 00:00:00 | |
| DM0DOS-11 | 2026-09-04 17:51:14 | 50.58960 | 11.82677 | 84° | 7km/h | 20215m | 6.7m/s | -56.8°C | 5.2% | 56.3hPa | 2.6V | 08:30:00 | 01:32:13 | 00:00:00 | |
| DL1XH-west | 2026-09-04 17:51:14 | 50.58961 | 11.82669 | 97° | 7km/h | 20198m | 6.5m/s | -56.6°C | 1% | 56.4hPa | 2.7V | 18:12:15 | 01:32:10 | 00:00:00 | |
| HSKMA3-T | 2026-09-04 17:51:13 | 50.58966 | 11.82695 | 65° | 20km/h | 20238m | 5m/s | -56.8°C | 1% | 56hPa | 2.7V | 18:12:15 | 01:32:17 | 00:00:00 | |
| DO3MHA-11 | 2026-09-04 17:51:12 | 50.58964 | 11.82688 | 61° | 9km/h | 20233m | 5.3m/s | -56.8°C | 5.1% | 56.0hPa | 2.6V | 00:00:00 | 01:32:16 | 00:00:00 | |
| HARRO8 | 2026-09-04 17:51:11 | 50.58960 | 11.82680 | 64° | 7km/h | 20221m | 5.4m/s | -56.8°C | 1.4% | 56.2hPa | 2.6V | 00:00:00 | 00:00:00 | 00:00:00 | |
| AM1SDL-15 | 2026-09-04 17:51:10 | 50.58960 | 11.82680 | 65° | 9km/h | 20222m | 5.3m/s | -56.8°C | 5.2% | 56.2hPa | 2.6V | 00:00:00 | 01:32:14 | 08:30:00 | |
| DC4HF-4 | 2026-09-04 17:51:09 | 50.58960 | 11.82674 | 105° | 5km/h | 20209m | 5.3m/s | -56.7°C | 1.3% | 56.3hPa | 2.6V | 00:00:00 | 00:00:00 | 00:00:00 | |
| SONDE2-11 | 2026-09-04 17:51:08 | 50.58960 | 11.82671 | 108° | 5km/h | 20204m | 4.9m/s | -56.7°C | 1.3% | 56.4hPa | 2.6V | 00:00:00 | 00:00:00 | 00:00:00 | |
| DL1XH-15 | 2026-09-04 17:51:07 | 50.58959 | 11.82654 | 87° | 13km/h | 20178m | 6m/s | -56.6°C | 5% | 56.6hPa | 2.6V | 08:30:00 | 01:32:06 | 00:00:00 | |
| DF8AY | 2026-09-04 17:51:07 | 50.58960 | 11.82671 | 109° | 7km/h | 20204m | 4.9m/s | -56.7°C | 0.9% | 56.4hPa | 2.7V | 18:12:15 | 01:32:11 | 00:00:00 | |
| AA1-15 | 2026-09-04 17:51:02 | 50.58959 | 11.82654 | 87° | 13km/h | 20178m | 6m/s | -56.6°C | 0.9% | 56.6hPa | 2.6V | 18:12:15 | 01:32:06 | 00:00:00 | |
| DJ2DS-15 | 2026-09-04 17:50:59 | 50.58960 | 11.82635 | 101° | 7km/h | 20157m | 3.6m/s | -56.4°C | 1.3% | 56.8hPa | 2.7V | 00:00:00 | 00:00:00 | 00:00:00 | |
| AM1SDL-15 | 2026-09-04 17:50:58 | 50.58960 | 11.82635 | 102° | 11km/h | 20157m | 3.6m/s | -56.4°C | 5.1% | 56.7hPa | 2.7V | 00:00:00 | 01:32:02 | 00:00:00 | |
| DL1XH-15 | 2026-09-04 17:50:57 | 50.58968 | 11.82616 | 140° | 7km/h | 20127m | 4.1m/s | -56.1°C | 5.1% | 57hPa | 2.7V | 08:30:00 | 01:31:56 | 00:00:00 | |
| DF8AY | 2026-09-04 17:50:56 | 50.58962 | 11.82628 | 122° | 11km/h | 20148m | 5.7m/s | -56.3°C | 1% | 56.9hPa | 2.6V | 18:12:15 | 01:32:00 | 00:00:00 | |
| DL1XH-west | 2026-09-04 17:50:55 | 50.58963 | 11.82624 | 129° | 11km/h | 20142m | 4.9m/s | -56.3°C | 1% | 56.9hPa | 2.6V | 18:12:15 | 01:31:59 | 00:00:00 | |
| HSKMA3-T | 2026-09-04 17:50:52 | 50.58968 | 11.82616 | 141° | 7km/h | 20127m | 4.1m/s | -56.1°C | 1% | 57hPa | 2.7V | 18:12:15 | 01:31:56 | 00:00:00 | |
| DB0ND-19 | 2026-09-04 17:50:49 | 50.58974 | 11.82605 | 125° | 11km/h | 20108m | 4.7m/s | -55.9°C | 1.3% | 57.2hPa | 2.6V | 00:00:00 | 00:00:00 | 00:00:00 | |
| DL1XH-15 | 2026-09-04 17:50:47 | 50.58979 | 11.82588 | 106° | 7km/h | 20077m | 4.5m/s | -55.6°C | 4.9% | 57.5hPa | 2.6V | 08:30:00 | 01:31:46 | 00:00:00 | |
| DF8AY | 2026-09-04 17:50:45 | 50.58977 | 11.82596 | 109° | 7km/h | 20093m | 4.4m/s | -55.8°C | 0.9% | 57.3hPa | 2.7V | 18:12:15 | 01:31:49 | 00:00:00 | |
| DL1XH-west | 2026-09-04 17:50:44 | 50.58978 | 11.82594 | 107° | 7km/h | 20088m | 5.9m/s | -55.8°C | 0.9% | 57.4hPa | 2.6V | 18:12:15 | 01:31:48 | 00:00:00 | |
| KRY50SP | 2026-09-04 17:50:44 | 50.58978 | 11.82594 | 108° | 7km/h | 20088m | 5.9m/s | 0°C | 0% | 0hPa | 2.7V | 00:00:00 | 00:00:00 | 00:00:00 | |
| DL1XH1-15 | 2026-09-04 17:50:43 | 50.58980 | 11.82584 | 124° | 4km/h | 20067m | 5.1m/s | -55.6°C | 4.9% | 57.6hPa | 2.7V | 08:30:00 | 01:31:44 | 00:00:00 | |
| HSKMA3-T | 2026-09-04 17:50:41 | 50.58979 | 11.82586 | 107° | 5km/h | 20072m | 6.1m/s | -55.6°C | 0.8% | 57.5hPa | 2.6V | 18:12:15 | 01:31:45 | 00:00:00 | |
| DK5PH-5 | 2026-09-04 17:50:41 | 50.58979 | 11.82586 | 107° | 9km/h | 20073m | 6.0m/s | -55.6°C | 4.8% | 57.5hPa | 2.7V | 00:00:00 | 01:31:45 | 00:00:00 | |
| HARRO8 | 2026-09-04 17:50:40 | 50.58981 | 11.82583 | 151° | 4km/h | 20062m | 4.0m/s | -55.5°C | 1.3% | 57.6hPa | 2.7V | 00:00:00 | 00:00:00 | 00:00:00 | |
| OE5FHM-15 | 2026-09-04 17:50:39 | 50.58980 | 11.82583 | 152° | 9km/h | 20062m | 4.0m/s | -55.5°C | 4.9% | 57.6hPa | 2.7V | 00:00:00 | 01:31:43 | 00:00:00 | |
| OE5DXL-15 | 2026-09-04 17:50:38 | 50.58982 | 11.82582 | 154° | 9km/h | 20058m | 5.0m/s | -55.4°C | 4.9% | 57.6hPa | 2.7V | 00:00:00 | 00:00:00 | 00:00:00 | |
| DL1XH-15 | 2026-09-04 17:50:37 | 50.58999 | 11.82569 | 151° | 11km/h | 20027m | 4.5m/s | -55.2°C | 4.8% | 58hPa | 2.7V | 08:30:00 | 01:31:36 | 00:00:00 | |
| DF8AY | 2026-09-04 17:50:35 | 50.58990 | 11.82575 | 155° | 15km/h | 20041m | 5m/s | -55.3°C | 0.9% | 57.8hPa | 2.6V | 18:12:15 | 01:31:39 | 00:00:00 | |
| DL1XH-west | 2026-09-04 17:50:34 | 50.58994 | 11.82573 | 159° | 13km/h | 20036m | 5.4m/s | -55.3°C | 0.8% | 57.9hPa | 2.6V | 18:12:15 | 01:31:38 | 00:00:00 | |
| DL1XH1-15 | 2026-09-04 17:50:33 | 50.59003 | 11.82564 | 127° | 11km/h | 20016m | 5.3m/s | -55.1°C | 4.8% | 58hPa | 2.6V | 08:30:00 | 01:31:34 | 00:00:00 | |
| HSKMA3-T | 2026-09-04 17:50:31 | 50.59002 | 11.82567 | 140° | 11km/h | 20022m | 6.1m/s | -55.2°C | 0.9% | 58hPa | 2.7V | 18:12:15 | 01:31:35 | 00:00:00 | |
| DO3MHA-11 | 2026-09-04 17:50:31 | 50.59002 | 11.82567 | 140° | 7km/h | 20022m | 6.1m/s | -55.1°C | 4.8% | 58.0hPa | 2.6V | 00:00:00 | 01:31:35 | 00:00:00 | |
| DF7PN | 2026-09-04 17:50:29 | 50.59005 | 11.82560 | 115° | 7km/h | 20011m | 4.3m/s | -55.0°C | 1.3% | 58.1hPa | 2.6V | 00:00:00 | 00:00:00 | 00:00:00 | |
| DL1XH-15 | 2026-09-04 17:50:27 | 50.59009 | 11.82550 | 155° | 11km/h | 19976m | 4.3m/s | -54.7°C | 4.7% | 58.4hPa | 2.6V | 08:30:00 | 01:31:26 | 00:00:00 | |
| DL1XH-west | 2026-09-04 17:50:24 | 50.59006 | 11.82554 | 141° | 5km/h | 19987m | 5.5m/s | -54.8°C | 0.8% | 58.3hPa | 2.7V | 18:12:15 | 01:31:28 | 00:00:00 | |
| DL1XH1-15 | 2026-09-04 17:50:23 | 50.59015 | 11.82548 | 176° | 11km/h | 19966m | 5.7m/s | -54.6°C | 4.7% | 58.5hPa | 2.6V | 08:30:00 | 01:31:24 | 00:00:00 | |
| DJ2DS-15 | 2026-09-04 17:50:23 | 50.59007 | 11.82552 | 146° | 11km/h | 19981m | 5.3m/s | -54.7°C | 4.7% | 58.3hPa | 2.6V | 00:00:00 | 01:31:27 | 00:00:00 | |
| DM0DOS-11 | 2026-09-04 17:50:22 | 50.59018 | 11.82548 | 183° | 11km/h | 19961m | 4.7m/s | -54.5°C | 4.7% | 58.5hPa | 2.7V | 08:30:00 | 01:31:23 | 00:00:00 | |
| HSKMA3-T | 2026-09-04 17:50:20 | 50.59015 | 11.82548 | 176° | 13km/h | 19967m | 5.7m/s | -54.6°C | 0.8% | 58.5hPa | 2.6V | 18:12:15 | 01:31:24 | 00:00:00 | |
| AA1-15 | 2026-09-04 17:50:18 | 50.59020 | 11.82548 | 178° | 9km/h | 19956m | 4.5m/s | -54.5°C | 0.8% | 58.6hPa | 2.7V | 18:12:15 | 01:31:22 | 00:00:00 | |
| DB0ND-19 | 2026-09-04 17:50:18 | 50.59023 | 11.82547 | 155° | 7km/h | 19952m | 5.7m/s | -54.5°C | 1.3% | 58.6hPa | 2.7V | 00:00:00 | 00:00:00 | 00:00:00 | |
| DL1XH-15 | 2026-09-04 17:50:17 | 50.59027 | 11.82535 | 111° | 4km/h | 19926m | 4.3m/s | -54.2°C | 4.6% | 58.9hPa | 2.7V | 08:30:00 | 01:31:16 | 00:00:00 | |
| DF8AY | 2026-09-04 17:50:14 | 50.59026 | 11.82539 | 107° | 7km/h | 19936m | 5.9m/s | -54.3°C | 0.8% | 58.8hPa | 2.6V | 18:12:15 | 01:31:18 | 00:00:00 | |
| DL1XH-west | 2026-09-04 17:50:13 | 50.59027 | 11.82537 | 103° | 5km/h | 19931m | 5.2m/s | -54.2°C | 0.8% | 58.9hPa | 2.6V | 18:12:15 | 01:31:17 | 00:00:00 | |
| DM0DOS-11 | 2026-09-04 17:50:12 | 50.59031 | 11.82530 | 151° | 11km/h | 19911m | 5.3m/s | -54.1°C | 4.5% | 59hPa | 2.6V | 08:30:00 | 01:31:13 | 00:00:00 | |
| HSKMA3-T | 2026-09-04 17:50:10 | 50.59029 | 11.82532 | 140° | 7km/h | 19917m | 6.1m/s | -54.2°C | 0.7% | 59hPa | 2.7V | 18:12:15 | 01:31:14 | 00:00:00 | |
| OE5FHM-15 | 2026-09-04 17:50:09 | 50.59031 | 11.82530 | 152° | 15km/h | 19911m | 5.3m/s | -54.1°C | 4.5% | 59.0hPa | 2.6V | 00:00:00 | 01:31:13 | 00:00:00 | |
| OE5DXL-15 | 2026-09-04 17:50:08 | 50.59034 | 11.82528 | 167° | 13km/h | 19906m | 5.0m/s | -54.0°C | 4.5% | 59.0hPa | 2.6V | 00:00:00 | 00:00:00 | 00:00:00 | |
| DL1XH-15 | 2026-09-04 17:50:07 | 50.59053 | 11.82524 | 129° | 11km/h | 19875m | 4.5m/s | -53.8°C | 4.4% | 59.3hPa | 2.6V | 08:30:00 | 01:31:06 | 00:00:00 | |
| AA1-15 | 2026-09-04 17:50:06 | 50.59041 | 11.82528 | 187° | 15km/h | 19895m | 4.2m/s | -54°C | 0.7% | 59.1hPa | 2.6V | 18:12:15 | 01:31:10 | 00:00:00 | |
| EDDB2-11 | 2026-09-04 17:50:06 | 50.59045 | 11.82529 | 185° | 15km/h | 19891m | 4.8m/s | -53.9°C | 1.2% | 59.2hPa | 2.6V | 00:00:00 | 00:00:00 | 00:00:00 | |
| SP3BTT-10 | 2026-09-04 17:50:05 | 50.59045 | 11.82529 | 186° | 20km/h | 19891m | 4.7m/s | -53.9°C | 4.5% | 59.2hPa | 2.6V | 00:00:00 | 00:00:00 | 00:00:00 | |
| DL1XH1-15 | 2026-09-04 17:50:03 | 50.59055 | 11.82518 | 103° | 7km/h | 19865m | 4.9m/s | -53.7°C | 4.5% | 59.4hPa | 2.6V | 08:30:00 | 01:31:04 | 00:00:00 | |
| DL1XH-west | 2026-09-04 17:50:03 | 50.59051 | 11.82527 | 150° | 13km/h | 19880m | 4.9m/s | -53.9°C | 0.7% | 59.3hPa | 2.7V | 18:12:15 | 01:31:07 | 00:00:00 | |
| DJ2DS-15 | 2026-09-04 17:50:03 | 50.59051 | 11.82527 | 150° | 13km/h | 19880m | 4.9m/s | -53.8°C | 4.4% | 59.3hPa | 2.6V | 00:00:00 | 01:31:07 | 00:00:00 | |
| DM0DOS-11 | 2026-09-04 17:50:02 | 50.59056 | 11.82514 | 105° | 9km/h | 19860m | 4.9m/s | -53.7°C | 4.5% | 59.5hPa | 2.6V | 08:30:00 | 01:31:03 | 00:00:00 | |
| HSKMA3-T | 2026-09-04 17:50:00 | 50.59055 | 11.82518 | 104° | 7km/h | 19865m | 4.9m/s | -53.7°C | 0.7% | 59.4hPa | 2.6V | 18:12:15 | 01:31:04 | 00:00:00 | |
| DB0UT-7 | 2026-09-04 17:49:58 | 50.59057 | 11.82511 | 115° | 16km/h | 19855m | 5.7m/s | -53.6°C | 4.5% | 59.5hPa | 2.7V | 00:00:00 | 01:31:02 | 08:30:00 | |
| DL1XH-15 | 2026-09-04 17:49:57 | 50.59063 | 11.82490 | 113° | 11km/h | 19827m | 4.2m/s | -53.5°C | 4.4% | 59.8hPa | 2.6V | 08:30:00 | 01:30:56 | 00:00:00 | |
| AA1-15 | 2026-09-04 17:49:55 | 50.59061 | 11.82500 | 118° | 9km/h | 19840m | 5.6m/s | -53.6°C | 0.7% | 59.7hPa | 2.6V | 18:12:15 | 01:30:59 | 00:00:00 | |
| KRY50SP | 2026-09-04 17:49:54 | 50.59061 | 11.82500 | 119° | 9km/h | 19840m | 5.6m/s | 0°C | 0% | 0hPa | 2.7V | 00:00:00 | 00:00:00 | 00:00:00 | |
| DL1XH1-15 | 2026-09-04 17:49:53 | 50.59068 | 11.82480 | 133° | 20km/h | 19817m | 5.2m/s | -53.4°C | 4.4% | 59.9hPa | 2.7V | 08:30:00 | 01:30:54 | 00:00:00 | |
| DL1XH-west | 2026-09-04 17:49:53 | 50.59062 | 11.82494 | 105° | 9km/h | 19831m | 3.6m/s | -53.5°C | 0.7% | 59.8hPa | 2.6V | 18:12:15 | 01:30:57 | 00:00:00 | |
| DM0DOS-11 | 2026-09-04 17:49:52 | 50.59071 | 11.82474 | 135° | 22km/h | 19812m | 3.9m/s | -53.3°C | 4.3% | 60hPa | 2.7V | 08:30:00 | 01:30:53 | 00:00:00 | |
| HSKMA3-T | 2026-09-04 17:49:49 | 50.59071 | 11.82474 | 136° | 22km/h | 19812m | 3.9m/s | -53.3°C | 0.7% | 60hPa | 2.7V | 18:12:15 | 01:30:53 | 00:00:00 | |
| OE5DRO-10 | 2026-09-04 17:49:48 | 50.59075 | 11.82468 | 135° | 18km/h | 19808m | 5.1m/s | -53.3°C | 4.4% | 59.9hPa | 2.7V | 00:00:00 | 00:00:00 | 00:00:00 | |
| DL1XH-15 | 2026-09-04 17:49:47 | 50.59096 | 11.82438 | 144° | 18km/h | 19778m | 3.9m/s | -53.2°C | 4.3% | 60.2hPa | 2.7V | 08:30:00 | 01:30:46 | 00:00:00 | |
| DB0ND-19 | 2026-09-04 17:49:47 | 50.59082 | 11.82457 | 131° | 18km/h | 19798m | 4.5m/s | -53.2°C | -1.0% | 60.1hPa | 2.6V | 00:00:00 | 00:00:00 | 00:00:00 | |
| AM1SDL-15 | 2026-09-04 17:49:46 | 50.59082 | 11.82456 | 132° | 15km/h | 19798m | 4.4m/s | -53.2°C | 4.3% | 60.0hPa | 2.6V | 00:00:00 | 01:30:50 | 00:00:00 | |
| D01LWL | 2026-09-04 17:49:45 | 50.59088 | 11.82447 | 140° | 18km/h | 19789m | 5.3m/s | -53.2°C | 1.1% | 60.2hPa | 2.6V | 00:00:00 | 00:00:00 | 00:00:00 | |
| DL1XH1-15 | 2026-09-04 17:49:43 | 50.59101 | 11.82429 | 123° | 13km/h | 19769m | 5.3m/s | -53.1°C | 4.3% | 60.3hPa | 2.6V | 08:30:00 | 01:30:44 | 00:00:00 | |
| DJ2DS-15 | 2026-09-04 17:49:43 | 50.59092 | 11.82442 | 146° | 20km/h | 19783m | 5.3m/s | -53.1°C | 4.3% | 60.2hPa | 2.6V | 00:00:00 | 01:30:47 | 00:00:00 | |
| DM0DOS-11 | 2026-09-04 17:49:42 | 50.59103 | 11.82425 | 103° | 9km/h | 19764m | 4.1m/s | -53.1°C | 4.3% | 60.4hPa | 2.6V | 08:30:00 | 01:30:43 | 00:00:00 | |
| DL1XH-west | 2026-09-04 17:49:42 | 50.59096 | 11.82438 | 145° | 18km/h | 19778m | 3.9m/s | -53.2°C | 0.6% | 60.2hPa | 2.7V | 18:12:15 | 01:30:46 | 00:00:00 | |
| HSKMA3-T | 2026-09-04 17:49:38 | 50.59103 | 11.82422 | 99° | 9km/h | 19760m | 3.9m/s | -53.1°C | 0.6% | 60.4hPa | 2.6V | 18:12:15 | 01:30:42 | 00:00:00 | |
| DL1XH-15 | 2026-09-04 17:49:37 | 50.59120 | 11.82385 | 125° | 31km/h | 19731m | 4.8m/s | -52.9°C | 4.3% | 60.7hPa | 2.6V | 08:30:00 | 01:30:36 | 00:00:00 | |
| OE5DXL-15 | 2026-09-04 17:49:37 | 50.59104 | 11.82418 | 110° | 35km/h | 19756m | 5.0m/s | -53.1°C | 4.3% | 60.4hPa | 2.7V | 00:00:00 | 00:00:00 | 00:00:00 | |
| PG1ADW-2 | 2026-09-04 17:49:36 | 50.59105 | 11.82414 | 127° | 24km/h | 19751m | 4.6m/s | -53.0°C | 4.3% | 60.5hPa | 2.7V | 00:00:00 | 01:30:40 | 00:00:00 | |
| EDDB2-11 | 2026-09-04 17:49:35 | 50.59111 | 11.82403 | 129° | 22km/h | 19742m | 5.7m/s | -53.0°C | 1.1% | 60.6hPa | 2.7V | 00:00:00 | 00:00:00 | 00:00:00 | |
| AM1SDL-15 | 2026-09-04 17:49:34 | 50.59111 | 11.82403 | 130° | 26km/h | 19743m | 5.7m/s | -52.9°C | 4.2% | 60.5hPa | 2.7V | 00:00:00 | 01:30:38 | 00:00:00 | |
| DL1XH1-15 | 2026-09-04 17:49:33 | 50.59128 | 11.82366 | 125° | 27km/h | 19721m | 4.9m/s | -52.9°C | 4.2% | 60.8hPa | 2.7V | 08:30:00 | 01:30:34 | 00:00:00 | |
| DM0DOS-11 | 2026-09-04 17:49:32 | 50.59132 | 11.82358 | 128° | 24km/h | 19716m | 4.4m/s | -52.8°C | 4.2% | 60.9hPa | 2.7V | 08:30:00 | 01:30:33 | 00:00:00 | |
| DL1XH-west | 2026-09-04 17:49:32 | 50.59120 | 11.82385 | 125° | 31km/h | 19731m | 4.8m/s | -52.9°C | 0.6% | 60.7hPa | 2.6V | 18:12:15 | 01:30:36 | 00:00:00 | |
| AA1-15 | 2026-09-04 17:49:30 | 50.59128 | 11.82366 | 125° | 27km/h | 19721m | 4.9m/s | -52.9°C | 0.6% | 60.8hPa | 2.7V | 18:12:15 | 01:30:34 | 00:00:00 | |
| HSKMA3-T | 2026-09-04 17:49:28 | 50.59136 | 11.82351 | 136° | 22km/h | 19712m | 4.6m/s | -52.8°C | 0.6% | 60.9hPa | 2.7V | 18:12:15 | 01:30:32 | 00:00:00 | |
| DB0UT-7 | 2026-09-04 17:49:28 | 50.59136 | 11.82351 | 136° | 35km/h | 19712m | 4.5m/s | -52.8°C | 4.2% | 60.8hPa | 2.7V | 00:00:00 | 00:00:00 | 00:00:00 | |
| DF7PN | 2026-09-04 17:49:27 | 50.59140 | 11.82346 | 141° | 20km/h | 19707m | 5.6m/s | -52.8°C | 1.1% | 60.9hPa | 2.7V | 00:00:00 | 00:00:00 | 00:00:00 | |
| DL1XH-15 | 2026-09-04 17:49:26 | 50.59159 | 11.82306 | 103° | 20km/h | 19678m | 4.8m/s | -52.8°C | 4.2% | 61.2hPa | 2.7V | 08:30:00 | 01:30:25 | 00:00:00 | |
| KRY50SP | 2026-09-04 17:49:25 | 50.59144 | 11.82340 | 143° | 24km/h | 19702m | 4.6m/s | 0°C | 0% | 0hPa | 2.6V | 00:00:00 | 00:00:00 | 00:00:00 | |
| DL1XH1-15 | 2026-09-04 17:49:23 | 50.59160 | 11.82298 | 110° | 22km/h | 19673m | 5.6m/s | -52.9°C | 4.2% | 61.2hPa | 2.6V | 08:30:00 | 01:30:24 | 00:00:00 | |
| DJ2DS-15 | 2026-09-04 17:49:23 | 50.59156 | 11.82321 | 118° | 27km/h | 19688m | 5.9m/s | -52.7°C | 4.1% | 61.1hPa | 2.7V | 00:00:00 | 01:30:27 | 08:30:00 | |
| DM0DOS-11 | 2026-09-04 17:49:22 | 50.59163 | 11.82290 | 121° | 24km/h | 19667m | 4.9m/s | -52.9°C | 4.2% | 61.3hPa | 2.6V | 08:30:00 | 01:30:23 | 00:00:00 | |
| DL1XH-west | 2026-09-04 17:49:22 | 50.59157 | 11.82313 | 104° | 20km/h | 19683m | 4.7m/s | -52.8°C | 0.6% | 61.2hPa | 2.7V | 18:12:15 | 01:30:26 | 00:00:00 | |
| HSKMA3-T | 2026-09-04 17:49:18 | 50.59166 | 11.82282 | 128° | 26km/h | 19663m | 4.5m/s | -53°C | 0.6% | 61.4hPa | 2.6V | 18:12:15 | 01:30:22 | 00:00:00 | |
| NBG1-10 | 2026-09-04 17:49:17 | 50.59171 | 11.82273 | 131° | 35km/h | 19658m | 4.7m/s | -53.0°C | 4.3% | 61.3hPa | 2.6V | 00:00:00 | 01:30:21 | 00:00:00 | |
| DB0ND-19 | 2026-09-04 17:49:16 | 50.59180 | 11.82256 | 127° | 29km/h | 19648m | 4.7m/s | -53.1°C | -1.0% | 61.5hPa | 2.6V | 00:00:00 | 00:00:00 | 00:00:00 | |
| D01LWL | 2026-09-04 17:49:14 | 50.59190 | 11.82237 | 133° | 31km/h | 19638m | 5.7m/s | -53.0°C | 1.1% | 61.6hPa | 2.6V | 00:00:00 | 00:00:00 | 00:00:00 | |
| DL1XH1-15 | 2026-09-04 17:49:13 | 50.59206 | 11.82209 | 122° | 29km/h | 19624m | 4.6m/s | -52.9°C | 4.2% | 61.7hPa | 2.6V | 08:30:00 | 01:30:14 | 00:00:00 | |
| DM0DOS-11 | 2026-09-04 17:49:12 | 50.59209 | 11.82199 | 109° | 29km/h | 19619m | 5.6m/s | -53°C | 4.2% | 61.8hPa | 2.7V | 08:30:00 | 01:30:13 | 00:00:00 | |
| DL1XH-west | 2026-09-04 17:49:12 | 50.59196 | 11.82228 | 136° | 31km/h | 19633m | 4.8m/s | -53°C | 0.6% | 61.6hPa | 2.6V | 18:12:15 | 01:30:16 | 00:00:00 | |
| HSKMA3-T | 2026-09-04 17:49:07 | 50.59212 | 11.82176 | 95° | 29km/h | 19610m | 3.8m/s | -53°C | 0.5% | 61.9hPa | 2.7V | 18:12:15 | 01:30:11 | 00:00:00 | |
| HARRO8 | 2026-09-04 17:49:06 | 50.59213 | 11.82164 | 100° | 29km/h | 19605m | 6.0m/s | -53.0°C | 1.1% | 61.9hPa | 2.7V | 00:00:00 | 00:00:00 | 00:00:00 | |
| KRY50SP | 2026-09-04 17:49:05 | 50.59215 | 11.82153 | 111° | 31km/h | 19600m | 5.5m/s | 0°C | 0% | 0hPa | 2.7V | 00:00:00 | 00:00:00 | 00:00:00 | |
| EDDB2-11 | 2026-09-04 17:49:04 | 50.59222 | 11.82128 | 120° | 37km/h | 19588m | 5.2m/s | -53.0°C | 1.1% | 62.1hPa | 2.7V | 00:00:00 | 00:00:00 | 00:00:00 | |
| DL1XH1-15 | 2026-09-04 17:49:03 | 50.59236 | 11.82086 | 111° | 40km/h | 19574m | 4.3m/s | -53.2°C | 4.2% | 62.2hPa | 2.7V | 08:30:00 | 01:30:04 | 00:00:00 | |
| DJ2DS-15 | 2026-09-04 17:49:03 | 50.59222 | 11.82128 | 121° | 40km/h | 19588m | 5.1m/s | -53.0°C | 4.1% | 62.0hPa | 2.6V | 00:00:00 | 01:30:07 | 00:00:00 | |
| DM0DOS-11 | 2026-09-04 17:49:02 | 50.59240 | 11.82071 | 108° | 40km/h | 19570m | 3.5m/s | -53.3°C | 4.3% | 62.2hPa | 2.6V | 08:30:00 | 01:30:03 | 00:00:00 | |
| DL1XH-west | 2026-09-04 17:49:01 | 50.59232 | 11.82101 | 117° | 40km/h | 19579m | 5m/s | -53.1°C | 0.5% | 62.1hPa | 2.7V | 18:12:15 | 01:30:05 | 00:00:00 | |
| HSKMA3-T | 2026-09-04 17:48:57 | 50.59246 | 11.82043 | 111° | 38km/h | 19562m | 4.9m/s | -53.4°C | 0.6% | 62.3hPa | 2.6V | 18:12:15 | 01:30:01 | 00:00:00 | |
| PG1ADW-2 | 2026-09-04 17:48:56 | 50.59249 | 11.82028 | 114° | 38km/h | 19558m | 4.0m/s | -53.3°C | 4.2% | 62.3hPa | 2.6V | 00:00:00 | 00:00:00 | 00:00:00 | |
| DL1XH1-15 | 2026-09-04 17:48:53 | 50.59266 | 11.81933 | 95° | 37km/h | 19533m | 5m/s | -53.4°C | 4.3% | 62.6hPa | 2.6V | 08:30:00 | 01:29:54 | 00:00:00 | |
| DM0DOS-11 | 2026-09-04 17:48:52 | 50.59267 | 11.81919 | 96° | 33km/h | 19528m | 4.4m/s | -53.4°C | 4.3% | 62.6hPa | 2.6V | 08:30:00 | 01:29:53 | 00:00:00 | |
| DL1XH-west | 2026-09-04 17:48:51 | 50.59265 | 11.81947 | 98° | 40km/h | 19538m | 4.7m/s | -53.5°C | 0.6% | 62.6hPa | 2.6V | 18:12:15 | 01:29:55 | 00:00:00 | |
| DF8AY | 2026-09-04 17:48:50 | 50.59266 | 11.81933 | 96° | 37km/h | 19533m | 5m/s | -53.4°C | 0.6% | 62.6hPa | 2.6V | 18:12:15 | 01:29:54 | 00:00:00 | |
| HSKMA3-T | 2026-09-04 17:48:47 | 50.59270 | 11.81894 | 105° | 35km/h | 19520m | 4m/s | -53.3°C | 0.6% | 62.7hPa | 2.7V | 18:12:15 | 01:29:51 | 00:00:00 | |
| DC4HF-4 | 2026-09-04 17:48:45 | 50.59277 | 11.81848 | 99° | 44km/h | 19508m | 4.4m/s | -53.2°C | 1.2% | 62.9hPa | 2.7V | 00:00:00 | 00:00:00 | 00:00:00 | |
| NBG1-10 | 2026-09-04 17:48:44 | 50.59277 | 11.81848 | 100° | 38km/h | 19508m | 4.3m/s | -53.2°C | 4.3% | 62.8hPa | 2.7V | 00:00:00 | 01:29:48 | 00:00:00 | |
| D01LWL | 2026-09-04 17:48:43 | 50.59280 | 11.81814 | 92° | 42km/h | 19500m | 3.6m/s | -53.2°C | 1.1% | 62.9hPa | 2.7V | 00:00:00 | 00:00:00 | 00:00:00 | |
| DM0DOS-11 | 2026-09-04 17:48:42 | 50.59281 | 11.81767 | 94° | 37km/h | 19488m | 3.7m/s | -53.2°C | 4.3% | 63hPa | 2.7V | 08:30:00 | 01:29:43 | 00:00:00 | |
| DL1XH-west | 2026-09-04 17:48:41 | 50.59280 | 11.81797 | 92° | 40km/h | 19496m | 3.5m/s | -53.2°C | 0.6% | 63hPa | 2.7V | 18:12:15 | 01:29:45 | 00:00:00 | |
| DF8AY | 2026-09-04 17:48:40 | 50.59281 | 11.81782 | 94° | 38km/h | 19492m | 4.3m/s | -53.2°C | 0.6% | 63hPa | 2.7V | 18:12:15 | 01:29:44 | 00:00:00 | |
| HSKMA3-T | 2026-09-04 17:48:36 | 50.59282 | 11.81724 | 86° | 37km/h | 19476m | 4.2m/s | -53.1°C | 0.6% | 63.2hPa | 2.6V | 18:12:15 | 01:29:40 | 00:00:00 | |
| DF8AY | 2026-09-04 17:48:34 | 50.59281 | 11.81618 | 92° | 38km/h | 19447m | 4.3m/s | -53.3°C | 0.6% | 63.5hPa | 2.6V | 18:12:15 | 01:29:33 | 00:00:00 | |
| DL1XH1-15 | 2026-09-04 17:48:33 | 50.59281 | 11.81633 | 89° | 38km/h | 19451m | 3.7m/s | -53.2°C | 4.2% | 63.4hPa | 2.6V | 08:30:00 | 01:29:34 | 00:00:00 | |
| DL1XH-west | 2026-09-04 17:48:30 | 50.59281 | 11.81633 | 89° | 38km/h | 19451m | 3.7m/s | -53.2°C | 0.6% | 63.4hPa | 2.6V | 18:12:15 | 01:29:34 | 00:00:00 | |
| HSKMA3-T | 2026-09-04 17:48:25 | 50.59283 | 11.81558 | 87° | 38km/h | 19429m | 4.7m/s | -53.4°C | 0.6% | 63.6hPa | 2.7V | 18:12:15 | 01:29:29 | 00:00:00 | |
| DJTTGO | 2026-09-04 17:48:24 | 50.59283 | 11.81558 | 88° | 38km/h | 19430m | 4.7m/s | -53.4°C | 1.2% | 63.6hPa | 2.7V | 00:00:00 | 00:00:00 | 00:00:00 | |
| DL1XH1-15 | 2026-09-04 17:48:23 | 50.59275 | 11.81485 | 76° | 37km/h | 19410m | 3.7m/s | -53.4°C | 4.2% | 63.8hPa | 2.7V | 08:30:00 | 01:29:24 | 00:00:00 | |
| DM0DOS-11 | 2026-09-04 17:48:22 | 50.59272 | 11.81471 | 75° | 38km/h | 19405m | 4.9m/s | -53.4°C | 4.1% | 63.9hPa | 2.7V | 08:30:00 | 01:29:23 | 00:00:00 | |
| DL1XH-west | 2026-09-04 17:48:20 | 50.59275 | 11.81485 | 77° | 37km/h | 19410m | 3.7m/s | -53.4°C | 0.6% | 63.8hPa | 2.7V | 18:12:15 | 01:29:24 | 00:00:00 | |
| DF8AY | 2026-09-04 17:48:18 | 50.59270 | 11.81456 | 76° | 40km/h | 19401m | 3.7m/s | -53.4°C | 0.5% | 63.9hPa | 2.7V | 18:12:15 | 01:29:22 | 00:00:00 | |
| HSKMA3-T | 2026-09-04 17:48:14 | 50.59265 | 11.81394 | 89° | 38km/h | 19385m | 3.1m/s | -53.5°C | 0.5% | 64.1hPa | 2.6V | 18:12:15 | 01:29:18 | 00:00:00 | |
| DL1XH1-15 | 2026-09-04 17:48:13 | 50.59259 | 11.81336 | 71° | 35km/h | 19370m | 3.6m/s | -53.5°C | 4.1% | 64.2hPa | 2.6V | 08:30:00 | 01:29:14 | 00:00:00 | |
| OE5DRO-10 | 2026-09-04 17:48:13 | 50.59264 | 11.81379 | 87° | 33km/h | 19382m | 4.1m/s | -53.5°C | 4.1% | 64.0hPa | 2.6V | 00:00:00 | 00:00:00 | 00:00:00 | |
| DM0DOS-11 | 2026-09-04 17:48:12 | 50.59256 | 11.81323 | 70° | 33km/h | 19366m | 4.9m/s | -53.5°C | 4.1% | 64.2hPa | 2.6V | 08:30:00 | 01:29:13 | 00:00:00 | |
| DL1XH-west | 2026-09-04 17:48:09 | 50.59256 | 11.81323 | 70° | 33km/h | 19366m | 4.9m/s | -53.5°C | 0.5% | 64.2hPa | 2.6V | 18:12:15 | 01:29:13 | 00:00:00 | |
| DF8AY | 2026-09-04 17:48:08 | 50.59254 | 11.81312 | 69° | 29km/h | 19362m | 4.1m/s | -53.5°C | 0.5% | 64.3hPa | 2.6V | 18:12:15 | 01:29:12 | 00:00:00 | |
| SONCRA | 2026-09-04 17:48:06 | 50.59248 | 11.81291 | 64° | 29km/h | 19353m | 5.1m/s | -53.7°C | 1.1% | 64.4hPa | 2.6V | 00:00:00 | 00:00:00 | 00:00:00 | |
| ANDY1245 | 2026-09-04 17:48:05 | 50.59247 | 11.81290 | 66° | 29km/h | 19353m | 5.1m/s | -53.7°C | 1.2% | 64.4hPa | 2.6V | 00:00:00 | 00:00:00 | 00:00:00 | |
| HARRO8 | 2026-09-04 17:48:04 | 50.59241 | 11.81268 | 69° | 29km/h | 19345m | 3.6m/s | -53.9°C | 1.2% | 64.5hPa | 2.6V | 00:00:00 | 00:00:00 | 00:00:00 | |
| DL1XH1-15 | 2026-09-04 17:48:03 | 50.59235 | 11.81220 | 82° | 35km/h | 19326m | 5.2m/s | -54.8°C | 4.5% | 64.7hPa | 2.6V | 08:30:00 | 01:29:04 | 00:00:00 | |
| HSKMA3-T | 2026-09-04 17:48:03 | 50.59239 | 11.81257 | 75° | 29km/h | 19340m | 5.2m/s | -54.2°C | 0.6% | 64.5hPa | 2.6V | 18:12:15 | 01:29:07 | 00:00:00 | |
| AM1SDL-15 | 2026-09-04 17:48:03 | 50.59239 | 11.81257 | 75° | 33km/h | 19340m | 5.1m/s | -54.2°C | 4.3% | 64.5hPa | 2.6V | 00:00:00 | 01:29:07 | 00:00:00 | |
| DM0DOS-11 | 2026-09-04 17:48:02 | 50.59234 | 11.81206 | 81° | 38km/h | 19322m | 4.2m/s | -54.9°C | 4.5% | 64.7hPa | 2.7V | 08:30:00 | 01:29:03 | 00:00:00 | |
| DL1XH-west | 2026-09-04 17:47:58 | 50.59232 | 11.81191 | 82° | 38km/h | 19318m | 4.4m/s | -54.9°C | 0.8% | 64.7hPa | 2.7V | 18:12:15 | 01:29:02 | 00:00:00 | |
| DF8AY | 2026-09-04 17:47:57 | 50.59231 | 11.81176 | 83° | 38km/h | 19313m | 4.7m/s | -55°C | 0.8% | 64.8hPa | 2.7V | 18:12:15 | 01:29:01 | 00:00:00 | |
| DL3JIN-12 | 2026-09-04 17:47:56 | 50.59231 | 11.81176 | 84° | 38km/h | 19313m | 4.7m/s | -55.0°C | 1.3% | 64.8hPa | 2.7V | 00:00:00 | 00:00:00 | 00:00:00 | |
| ANDY1245 | 2026-09-04 17:47:55 | 50.59230 | 11.81161 | 81° | 37km/h | 19309m | 3.6m/s | -55.0°C | 1.3% | 64.8hPa | 2.7V | 00:00:00 | 00:00:00 | 00:00:00 | |
| OE5DRO-10 | 2026-09-04 17:47:54 | 50.59225 | 11.81135 | 71° | 29km/h | 19300m | 4.9m/s | -55.0°C | 4.4% | 64.8hPa | 2.7V | 00:00:00 | 00:00:00 | 00:00:00 | |
| DL1XH1-15 | 2026-09-04 17:47:53 | 50.59213 | 11.81091 | 63° | 27km/h | 19282m | 4.2m/s | -55.2°C | 4.4% | 65.1hPa | 2.7V | 08:30:00 | 01:28:54 | 00:00:00 | |
| DM0DOS-11 | 2026-09-04 17:47:53 | 50.59209 | 11.81082 | 61° | 27km/h | 19277m | 5.4m/s | -55.2°C | 4.5% | 65.2hPa | 2.6V | 08:30:00 | 01:28:53 | 00:00:00 | |
| HSKMA3-T | 2026-09-04 17:47:52 | 50.59219 | 11.81111 | 65° | 29km/h | 19291m | 5.2m/s | -55.1°C | 0.7% | 65hPa | 2.7V | 18:12:15 | 01:28:56 | 00:00:00 | |
| DL1XH-west | 2026-09-04 17:47:48 | 50.59206 | 11.81072 | 64° | 27km/h | 19272m | 4.2m/s | -55.3°C | 0.7% | 65.2hPa | 2.6V | 18:12:15 | 01:28:52 | 00:00:00 | |
| DF8AY | 2026-09-04 17:47:47 | 50.59204 | 11.81062 | 70° | 27km/h | 19268m | 4.4m/s | -55.3°C | 0.6% | 65.2hPa | 2.6V | 18:12:15 | 01:28:51 | 00:00:00 | |
| DB0UT-7 | 2026-09-04 17:47:46 | 50.59202 | 11.81051 | 80° | 35km/h | 19263m | 5.1m/s | -55.4°C | 4.6% | 65.2hPa | 2.6V | 00:00:00 | 00:00:00 | 00:00:00 | |
| DL2RXE-15 | 2026-09-04 17:47:45 | 50.59202 | 11.81051 | 80° | 27km/h | 19263m | 5.1m/s | -55.4°C | 1.2% | 65.3hPa | 2.6V | 00:00:00 | 00:00:00 | 00:00:00 | |
| DL1XH1-15 | 2026-09-04 17:47:43 | 50.59200 | 11.80981 | 91° | 31km/h | 19234m | 4.7m/s | -56°C | 4.8% | 65.6hPa | 2.6V | 08:30:00 | 01:28:44 | 00:00:00 | |
| DM0DOS-11 | 2026-09-04 17:47:42 | 50.59200 | 11.80969 | 88° | 31km/h | 19230m | 4.4m/s | -56.1°C | 4.9% | 65.6hPa | 2.6V | 08:30:00 | 01:28:43 | 00:00:00 | |
| HSKMA3-T | 2026-09-04 17:47:41 | 50.59200 | 11.80994 | 90° | 31km/h | 19239m | 5.1m/s | -55.9°C | 0.8% | 65.5hPa | 2.6V | 18:12:15 | 01:28:45 | 00:00:00 | |
| DL1XH-west | 2026-09-04 17:47:37 | 50.59198 | 11.80945 | 77° | 31km/h | 19220m | 4.3m/s | -56.1°C | 0.9% | 65.7hPa | 2.7V | 18:12:15 | 01:28:41 | 00:00:00 | |
| DL3JIN-12 | 2026-09-04 17:47:36 | 50.59197 | 11.80945 | 78° | 31km/h | 19220m | 4.3m/s | -56.1°C | 1.4% | 65.7hPa | 2.7V | 00:00:00 | 00:00:00 | 00:00:00 | |
| SONCRA | 2026-09-04 17:47:35 | 50.59194 | 11.80921 | 76° | 27km/h | 19212m | 5.4m/s | -56.2°C | 1.3% | 65.8hPa | 2.7V | 00:00:00 | 00:00:00 | 00:00:00 | |
| DL1XH1-15 | 2026-09-04 17:47:33 | 50.59189 | 11.80864 | 85° | 33km/h | 19187m | 3.8m/s | -56.3°C | 5% | 66.1hPa | 2.7V | 08:30:00 | 01:28:34 | 00:00:00 | |
| PG1ADW-2 | 2026-09-04 17:47:33 | 50.59191 | 11.80899 | 83° | 35km/h | 19202m | 4.7m/s | -56.2°C | 5.0% | 65.9hPa | 2.7V | 00:00:00 | 00:00:00 | 00:00:00 | |
| DM0DOS-11 | 2026-09-04 17:47:32 | 50.59188 | 11.80850 | 89° | 35km/h | 19183m | 5.5m/s | -56.2°C | 5% | 66.1hPa | 2.7V | 08:30:00 | 01:28:33 | 00:00:00 | |
| HSKMA3-T | 2026-09-04 17:47:30 | 50.59189 | 11.80864 | 86° | 33km/h | 19187m | 3.8m/s | -56.3°C | 0.9% | 66.1hPa | 2.7V | 18:12:15 | 01:28:34 | 00:00:00 | |
| DL1XH-west | 2026-09-04 17:47:27 | 50.59189 | 11.80820 | 93° | 40km/h | 19174m | 3.9m/s | -56.2°C | 0.9% | 66.2hPa | 2.6V | 18:12:15 | 01:28:31 | 00:00:00 | |
| DF8AY | 2026-09-04 17:47:26 | 50.59189 | 11.80804 | 90° | 42km/h | 19169m | 5.3m/s | -56.2°C | 0.9% | 66.3hPa | 2.6V | 18:12:15 | 01:28:30 | 00:00:00 | |
| DF7PN | 2026-09-04 17:47:23 | 50.59187 | 11.80755 | 85° | 37km/h | 19155m | 5.3m/s | -56.1°C | 1.3% | 66.4hPa | 2.6V | 00:00:00 | 00:00:00 | 00:00:00 | |
| DM0DOS-11 | 2026-09-04 17:47:22 | 50.59184 | 11.80702 | 82° | 33km/h | 19135m | 4.5m/s | -55.9°C | 4.9% | 66.6hPa | 2.6V | 08:30:00 | 01:28:23 | 00:00:00 | |
| HSKMA3-T | 2026-09-04 17:47:19 | 50.59184 | 11.80702 | 82° | 33km/h | 19135m | 4.6m/s | -55.9°C | 0.9% | 66.6hPa | 2.6V | 18:12:15 | 01:28:23 | 00:00:00 | |
| DF8AY | 2026-09-04 17:47:17 | 50.59182 | 11.80662 | 90° | 35km/h | 19122m | 5m/s | -55.8°C | 0.9% | 66.8hPa | 2.7V | 18:12:15 | 01:28:20 | 00:00:00 | |
| DL1XH-west | 2026-09-04 17:47:17 | 50.59183 | 11.80676 | 87° | 33km/h | 19127m | 5.1m/s | -55.8°C | 0.8% | 66.7hPa | 2.7V | 18:12:15 | 01:28:21 | 00:00:00 | |
| OE5DRO-10 | 2026-09-04 17:47:16 | 50.59182 | 11.80662 | 91° | 38km/h | 19122m | 4.9m/s | -55.7°C | 4.8% | 66.7hPa | 2.7V | 00:00:00 | 00:00:00 | 00:00:00 | |
| AM1SDL-15 | 2026-09-04 17:47:15 | 50.59182 | 11.80649 | 91° | 37km/h | 19117m | 4.5m/s | -55.7°C | 4.8% | 66.8hPa | 2.7V | 00:00:00 | 01:28:19 | 00:00:00 | |
| DL1XH1-15 | 2026-09-04 17:47:13 | 50.59179 | 11.80574 | 83° | 37km/h | 19093m | 4.9m/s | -55.7°C | 4.9% | 67.1hPa | 2.7V | 08:30:00 | 01:28:14 | 00:00:00 | |
| HSKMA3-T | 2026-09-04 17:47:08 | 50.59176 | 11.80545 | 79° | 37km/h | 19083m | 5.5m/s | -55.7°C | 0.8% | 67.2hPa | 2.7V | 18:12:15 | 01:28:12 | 00:00:00 | |
| DL1XH-west | 2026-09-04 17:47:06 | 50.59172 | 11.80516 | 81° | 37km/h | 19073m | 4.8m/s | -55.6°C | 0.9% | 67.3hPa | 2.6V | 18:12:15 | 01:28:10 | 00:00:00 | |
| DF8AY | 2026-09-04 17:47:05 | 50.59171 | 11.80502 | 84° | 37km/h | 19068m | 5.2m/s | -55.6°C | 0.8% | 67.3hPa | 2.6V | 18:12:15 | 01:28:09 | 00:00:00 | |
| SP3BTT-10 | 2026-09-04 17:47:05 | 50.59171 | 11.80502 | 84° | 38km/h | 19069m | 5.1m/s | -55.5°C | 4.8% | 67.2hPa | 2.6V | 00:00:00 | 00:00:00 | 08:30:00 | |
| SONCRA | 2026-09-04 17:47:04 | 50.59170 | 11.80487 | 85° | 37km/h | 19064m | 4.0m/s | -55.6°C | 1.3% | 67.3hPa | 2.6V | 00:00:00 | 00:00:00 | 00:00:00 | |
| DL1XH1-15 | 2026-09-04 17:47:03 | 50.59165 | 11.80424 | 80° | 40km/h | 19045m | 4.2m/s | -55.4°C | 4.8% | 67.5hPa | 2.6V | 08:30:00 | 01:28:04 | 00:00:00 | |
| AM1SDL-15 | 2026-09-04 17:47:03 | 50.59169 | 11.80472 | 85° | 38km/h | 19059m | 5.0m/s | -55.5°C | 4.8% | 67.4hPa | 2.6V | 00:00:00 | 01:28:07 | 00:00:00 | |
| DM0DOS-11 | 2026-09-04 17:47:02 | 50.59163 | 11.80408 | 81° | 38km/h | 19041m | 5m/s | -55.4°C | 4.8% | 67.6hPa | 2.6V | 08:30:00 | 01:28:03 | 00:00:00 | |
| HSKMA3-T | 2026-09-04 17:46:58 | 50.59162 | 11.80393 | 82° | 37km/h | 19036m | 4.4m/s | -55.3°C | 0.8% | 67.7hPa | 2.6V | 18:12:15 | 01:28:02 | 00:00:00 | |
| DL1XH-west | 2026-09-04 17:46:56 | 50.59159 | 11.80366 | 80° | 37km/h | 19027m | 5.3m/s | -55.3°C | 0.9% | 67.7hPa | 2.7V | 18:12:15 | 01:28:00 | 00:00:00 | |
| DF8AY | 2026-09-04 17:46:54 | 50.59155 | 11.80337 | 77° | 37km/h | 19018m | 4.2m/s | -55.2°C | 0.8% | 67.8hPa | 2.6V | 18:12:15 | 01:27:58 | 00:00:00 | |
| PG1ADW-2 | 2026-09-04 17:46:53 | 50.59153 | 11.80323 | 77° | 37km/h | 19014m | 5.1m/s | 0°C | 0% | 0hPa | 2.6V | 00:00:00 | 01:27:57 | 00:00:00 | |
| DM0DOS-11 | 2026-09-04 17:46:52 | 50.59144 | 11.80271 | 70° | 38km/h | 18996m | 5.2m/s | -55°C | 4.6% | 68.1hPa | 2.6V | 08:30:00 | 01:27:53 | 00:00:00 | |
| AA1-15 | 2026-09-04 17:46:52 | 50.59151 | 11.80310 | 76° | 33km/h | 19009m | 4.6m/s | -55.1°C | 0.8% | 68hPa | 2.7V | 18:12:15 | 01:27:56 | 00:00:00 | |
| HSKMA3-T | 2026-09-04 17:46:48 | 50.59140 | 11.80257 | 69° | 42km/h | 18991m | 4.2m/s | -55.1°C | 0.8% | 68.2hPa | 2.6V | 18:12:15 | 01:27:52 | 00:00:00 | |
| DL1XH-west | 2026-09-04 17:46:46 | 50.59133 | 11.80226 | 70° | 40km/h | 18984m | 4.5m/s | -55.1°C | 0.8% | 68.2hPa | 2.7V | 18:12:15 | 01:27:50 | 00:00:00 | |
| DL6DJ-15 | 2026-09-04 17:46:46 | 50.59130 | 11.80211 | 68° | 37km/h | 18979m | 4.7m/s | -55.0°C | 1.3% | 68.3hPa | 2.6V | 00:00:00 | 00:00:00 | 00:00:00 | |
| DF8AY | 2026-09-04 17:46:43 | 50.59122 | 11.80186 | 63° | 35km/h | 18970m | 4.1m/s | -55°C | 0.8% | 68.4hPa | 2.6V | 18:12:15 | 01:27:47 | 00:00:00 | |
| DL1XH1-15 | 2026-09-04 17:46:43 | 50.59110 | 11.80147 | 65° | 38km/h | 18956m | 4.1m/s | -54.9°C | 4.6% | 68.5hPa | 2.7V | 08:30:00 | 01:27:44 | 00:00:00 | |
| HSKMA3-T | 2026-09-04 17:46:38 | 50.59102 | 11.80119 | 68° | 37km/h | 18947m | 5.4m/s | -54.9°C | 0.7% | 68.6hPa | 2.7V | 18:12:15 | 01:27:42 | 00:00:00 | |
| DL1XH-west | 2026-09-04 17:46:35 | 50.59093 | 11.80079 | 72° | 37km/h | 18934m | 5.4m/s | -54.9°C | 0.8% | 68.8hPa | 2.6V | 18:12:15 | 01:27:39 | 00:00:00 | |
| DL1XH1-15 | 2026-09-04 17:46:35 | 50.59078 | 11.80011 | 66° | 33km/h | 18911m | 3.5m/s | -54.9°C | 4.7% | 69hPa | 2.6V | 08:30:00 | 01:27:34 | 00:00:00 | |
| DF8AY | 2026-09-04 17:46:32 | 50.59084 | 11.80037 | 70° | 37km/h | 18920m | 5.4m/s | -54.9°C | 0.8% | 68.9hPa | 2.7V | 18:12:15 | 01:27:36 | 00:00:00 | |
| HSKMA3-T | 2026-09-04 17:46:27 | 50.59067 | 11.79971 | 69° | 40km/h | 18899m | 4.3m/s | -55°C | 0.8% | 69.1hPa | 2.6V | 18:12:15 | 01:27:31 | 00:00:00 | |
| DL1XH1-15 | 2026-09-04 17:46:25 | 50.59053 | 11.79872 | 92° | 35km/h | 18867m | 4.3m/s | -55.2°C | 4.6% | 69.5hPa | 2.6V | 08:30:00 | 01:27:24 | 00:00:00 | |
| DL1XH-west | 2026-09-04 17:46:24 | 50.59057 | 11.79929 | 73° | 37km/h | 18885m | 4.1m/s | -55.1°C | 0.8% | 69.3hPa | 2.7V | 18:12:15 | 01:27:28 | 00:00:00 | |
| DM0DOS-11 | 2026-09-04 17:46:22 | 50.59053 | 11.79858 | 93° | 33km/h | 18863m | 5.1m/s | -55.2°C | 4.6% | 69.5hPa | 2.7V | 08:30:00 | 01:27:23 | 00:00:00 | |
| DF8AY | 2026-09-04 17:46:21 | 50.59053 | 11.79886 | 90° | 37km/h | 18871m | 3.7m/s | -55.2°C | 0.8% | 69.4hPa | 2.6V | 18:12:15 | 01:27:25 | 00:00:00 | |
| HSKMA3-T | 2026-09-04 17:46:17 | 50.59055 | 11.79833 | 94° | 31km/h | 18855m | 4.1m/s | -55.2°C | 0.8% | 69.6hPa | 2.7V | 18:12:15 | 01:27:21 | 00:00:00 | |
| DL1XH1-15 | 2026-09-04 17:46:15 | 50.59053 | 11.79733 | 91° | 40km/h | 18824m | 4.2m/s | -55°C | 4.6% | 70hPa | 2.7V | 08:30:00 | 01:27:14 | 00:00:00 | |
| DL1XH-west | 2026-09-04 17:46:14 | 50.59055 | 11.79792 | 87° | 35km/h | 18841m | 5m/s | -55.1°C | 0.9% | 69.8hPa | 2.6V | 18:12:15 | 01:27:18 | 00:00:00 | |
| PG1ADW-2 | 2026-09-04 17:46:13 | 50.59055 | 11.79778 | 85° | 38km/h | 18836m | 4.2m/s | 0°C | 0% | 0hPa | 2.6V | 00:00:00 | 00:00:00 | 00:00:00 | |
| ANDY1245 | 2026-09-04 17:46:12 | 50.59055 | 11.79778 | 86° | 37km/h | 18836m | 4.2m/s | -55.1°C | 1.4% | 69.8hPa | 2.6V | 00:00:00 | 00:00:00 | 00:00:00 | |
| DM0DOS-11 | 2026-09-04 17:46:11 | 50.59053 | 11.79717 | 94° | 40km/h | 18820m | 3.4m/s | -55°C | 4.6% | 70hPa | 2.6V | 08:30:00 | 01:27:13 | 00:00:00 | |
| DF8AY | 2026-09-04 17:46:10 | 50.59053 | 11.79733 | 91° | 40km/h | 18824m | 4.2m/s | -55°C | 0.8% | 70hPa | 2.7V | 18:12:15 | 01:27:14 | 00:00:00 | |
| HSKMA3-T | 2026-09-04 17:46:07 | 50.59055 | 11.79686 | 92° | 37km/h | 18812m | 4.7m/s | -55°C | 0.8% | 70.1hPa | 2.6V | 18:12:15 | 01:27:11 | 00:00:00 | |
| DL1XH1-15 | 2026-09-04 17:46:05 | 50.59050 | 11.79581 | 83° | 37km/h | 18784m | 4.7m/s | -55°C | 4.4% | 70.4hPa | 2.6V | 08:30:00 | 01:27:04 | 00:00:00 | |
| DM0DOS-11 | 2026-09-04 17:46:04 | 50.59049 | 11.79567 | 83° | 37km/h | 18780m | 3.3m/s | -55.1°C | 4.3% | 70.5hPa | 2.6V | 08:30:00 | 01:27:03 | 00:00:00 | |
| DL1XH-west | 2026-09-04 17:46:03 | 50.59052 | 11.79627 | 85° | 38km/h | 18796m | 4.2m/s | -55°C | 0.7% | 70.3hPa | 2.7V | 18:12:15 | 01:27:07 | 00:00:00 | |
| DF8AY | 2026-09-04 17:45:59 | 50.59049 | 11.79567 | 83° | 37km/h | 18780m | 3.3m/s | -55.1°C | 0.6% | 70.5hPa | 2.6V | 18:12:15 | 01:27:03 | 00:00:00 | |
| HSKMA3-T | 2026-09-04 17:45:57 | 50.59047 | 11.79536 | 89° | 40km/h | 18773m | 4.7m/s | -55.2°C | 0.7% | 70.5hPa | 2.7V | 18:12:15 | 01:27:01 | 00:00:00 | |
| DL1XH1-15 | 2026-09-04 17:45:55 | 50.59045 | 11.79413 | 80° | 46km/h | 18743m | 4.1m/s | -56.1°C | 4.8% | 70.8hPa | 2.6V | 08:30:00 | 01:26:54 | 00:00:00 | |
| DM0DOS-11 | 2026-09-04 17:45:54 | 50.59043 | 11.79396 | 78° | 46km/h | 18739m | 3.6m/s | -56.2°C | 4.9% | 70.9hPa | 2.6V | 08:30:00 | 01:26:53 | 00:00:00 | |
| DF8AY | 2026-09-04 17:45:54 | 50.59043 | 11.79396 | 79° | 46km/h | 18739m | 3.6m/s | -56.2°C | 0.9% | 70.9hPa | 2.6V | 18:12:15 | 01:26:53 | 00:00:00 | |
| DL1ZP-14 | 2026-09-04 17:45:53 | 50.59049 | 11.79466 | 88° | 44km/h | 18756m | 4.4m/s | -55.8°C | 1.3% | 70.7hPa | 2.6V | 00:00:00 | 00:00:00 | 00:00:00 | |
| DL1XH-15 | 2026-09-04 17:45:52 | 50.59038 | 11.79363 | 75° | 40km/h | 18731m | 4.3m/s | -56.3°C | 5% | 71hPa | 2.7V | 08:30:00 | 01:26:51 | 00:00:00 | |
| DL1XH-west | 2026-09-04 17:45:52 | 50.59048 | 11.79449 | 85° | 44km/h | 18752m | 3.5m/s | -56°C | 0.9% | 70.8hPa | 2.7V | 18:12:15 | 01:26:56 | 00:00:00 | |
| HSKMA3-T | 2026-09-04 17:45:46 | 50.59036 | 11.79347 | 77° | 38km/h | 18728m | 2.8m/s | -56.5°C | 1% | 71hPa | 2.7V | 18:12:15 | 01:26:50 | 00:00:00 | |
| DM0DOS-11 | 2026-09-04 17:45:44 | 50.59027 | 11.79226 | 83° | 49km/h | 18700m | 4.5m/s | -56.6°C | 4.9% | 71.3hPa | 2.6V | 08:30:00 | 01:26:43 | 00:00:00 | |
| DL6DJ-15 | 2026-09-04 17:45:44 | 50.59031 | 11.79299 | 85° | 44km/h | 18716m | 3.7m/s | -56.6°C | 1.4% | 71.2hPa | 2.6V | 00:00:00 | 00:00:00 | 00:00:00 | |
| DL1XH-15 | 2026-09-04 17:45:42 | 50.59023 | 11.79187 | 80° | 49km/h | 18693m | 3.1m/s | -56.6°C | 5% | 71.4hPa | 2.6V | 08:30:00 | 01:26:41 | 00:00:00 | |
| DL1XH-west | 2026-09-04 17:45:41 | 50.59029 | 11.79263 | 85° | 46km/h | 18708m | 4.3m/s | -56.6°C | 0.9% | 71.3hPa | 2.7V | 18:12:15 | 01:26:45 | 00:00:00 | |
| DF8AY | 2026-09-04 17:45:38 | 50.59025 | 11.79207 | 82° | 51km/h | 18696m | 3.6m/s | -56.6°C | 0.9% | 71.4hPa | 2.6V | 18:12:15 | 01:26:42 | 00:00:00 | |
| HSKMA3-T | 2026-09-04 17:45:36 | 50.59021 | 11.79169 | 79° | 46km/h | 18689m | 4.5m/s | -56.7°C | 1% | 71.5hPa | 2.6V | 18:12:15 | 01:26:40 | 00:00:00 | |
| DL1XH1-15 | 2026-09-04 17:45:35 | 50.59019 | 11.79084 | 97° | 29km/h | 18664m | 5m/s | -56.6°C | 5% | 71.8hPa | 2.6V | 08:30:00 | 01:26:34 | 00:00:00 | |
| DL1XH-west | 2026-09-04 17:45:31 | 50.59018 | 11.79096 | 97° | 31km/h | 18669m | 4.5m/s | -56.6°C | 1% | 71.7hPa | 2.6V | 18:12:15 | 01:26:35 | 00:00:00 | |
| DF8AY | 2026-09-04 17:45:27 | 50.59023 | 11.79047 | 102° | 35km/h | 18652m | 4.6m/s | -56.6°C | 1% | 71.9hPa | 2.7V | 18:12:15 | 01:26:31 | 00:00:00 | |
| HSKMA3-T | 2026-09-04 17:45:25 | 50.59026 | 11.79019 | 101° | 37km/h | 18644m | 3.6m/s | -56.6°C | 1% | 72hPa | 2.6V | 18:12:15 | 01:26:29 | 00:00:00 | |
| DM0DOS-11 | 2026-09-04 17:45:24 | 50.59033 | 11.78941 | 99° | 33km/h | 18620m | 3.1m/s | -56.7°C | 5% | 72.3hPa | 2.6V | 08:30:00 | 01:26:23 | 00:00:00 | |
| DL1XH1-15 | 2026-09-04 17:45:22 | 50.59032 | 11.78954 | 99° | 33km/h | 18624m | 4.1m/s | -56.7°C | 5% | 72.2hPa | 2.6V | 08:30:00 | 01:26:24 | 00:00:00 | |
| DL1XH-west | 2026-09-04 17:45:20 | 50.59032 | 11.78954 | 99° | 33km/h | 18624m | 4.1m/s | -56.7°C | 1% | 72.2hPa | 2.6V | 18:12:15 | 01:26:24 | 00:00:00 | |
| AA1-15 | 2026-09-04 17:45:19 | 50.59033 | 11.78941 | 100° | 33km/h | 18620m | 3.2m/s | -56.7°C | 1% | 72.3hPa | 2.6V | 18:12:15 | 01:26:23 | 00:00:00 | |
| DF8AY | 2026-09-04 17:45:17 | 50.59035 | 11.78917 | 95° | 29km/h | 18612m | 3.9m/s | -56.7°C | 1% | 72.3hPa | 2.7V | 18:12:15 | 01:26:21 | 00:00:00 | |
| DM0DOS-11 | 2026-09-04 17:45:14 | 50.59044 | 11.78811 | 105° | 33km/h | 18581m | 4.5m/s | -57°C | 5.2% | 72.7hPa | 2.6V | 08:30:00 | 01:26:13 | 00:00:00 | |
| HSKMA3-T | 2026-09-04 17:45:14 | 50.59037 | 11.78878 | 95° | 37km/h | 18601m | 4.1m/s | -56.8°C | 1% | 72.5hPa | 2.6V | 18:12:15 | 01:26:18 | 00:00:00 | |
| DL1XH1-15 | 2026-09-04 17:45:12 | 50.59042 | 11.78823 | 101° | 33km/h | 18585m | 3.5m/s | -56.9°C | 5.1% | 72.7hPa | 2.7V | 08:30:00 | 01:26:14 | 00:00:00 | |
| DL1XH-west | 2026-09-04 17:45:09 | 50.59044 | 11.78810 | 105° | 33km/h | 18581m | 4.5m/s | -57°C | 1.1% | 72.7hPa | 2.6V | 18:12:15 | 01:26:13 | 00:00:00 | |
| DF8AY | 2026-09-04 17:45:06 | 50.59051 | 11.78774 | 109° | 29km/h | 18569m | 4.3m/s | -57°C | 1.1% | 72.8hPa | 2.6V | 18:12:15 | 01:26:10 | 00:00:00 | |
| D01LWL | 2026-09-04 17:45:05 | 50.59053 | 11.78764 | 106° | 26km/h | 18566m | 3.1m/s | -57.0°C | 1.5% | 72.8hPa | 2.6V | 00:00:00 | 00:00:00 | 00:00:00 | |
| DM0DOS-11 | 2026-09-04 17:45:04 | 50.59066 | 11.78690 | 106° | 37km/h | 18541m | 4.4m/s | -56.9°C | 5.1% | 73.2hPa | 2.6V | 08:30:00 | 01:26:03 | 00:00:00 | |
| AA1-15 | 2026-09-04 17:45:03 | 50.59057 | 11.78742 | 104° | 31km/h | 18559m | 4.8m/s | -56.9°C | 1.1% | 73hPa | 2.7V | 18:12:15 | 01:26:07 | 00:00:00 | |
| DL1XH-west | 2026-09-04 17:44:58 | 50.59068 | 11.78676 | 107° | 38km/h | 18537m | 5.1m/s | -56.9°C | 1.1% | 73.2hPa | 2.7V | 18:12:15 | 01:26:02 | 00:00:00 | |
| DF8AY | 2026-09-04 17:44:56 | 50.59074 | 11.78646 | 106° | 38km/h | 18529m | 3m/s | -56.9°C | 1.1% | 73.3hPa | 2.7V | 18:12:15 | 01:26:00 | 00:00:00 | |
| DL1XH1-15 | 2026-09-04 17:44:55 | 50.59084 | 11.78567 | 93° | 35km/h | 18503m | 2.9m/s | -56.7°C | 5% | 73.6hPa | 2.6V | 08:30:00 | 01:25:54 | 00:00:00 | |
| HSKMA3-T | 2026-09-04 17:44:53 | 50.59082 | 11.78594 | 98° | 33km/h | 18511m | 5.2m/s | -56.8°C | 1% | 73.5hPa | 2.7V | 18:12:15 | 01:25:56 | 00:00:00 | |
| DL1XH-west | 2026-09-04 17:44:48 | 50.59084 | 11.78539 | 92° | 35km/h | 18495m | 4.5m/s | -56.8°C | 1% | 73.7hPa | 2.6V | 18:12:15 | 01:25:52 | 00:00:00 | |
| DF7PN | 2026-09-04 17:44:48 | 50.59084 | 11.78539 | 91° | 33km/h | 18495m | 4.5m/s | -56.8°C | 1.4% | 73.7hPa | 2.7V | 00:00:00 | 00:00:00 | 00:00:00 | |
| DH8WE-5 | 2026-09-04 17:44:46 | 50.59084 | 11.78525 | 93° | 35km/h | 18491m | 4.0m/s | -56.7°C | 1.4% | 73.8hPa | 2.7V | 00:00:00 | 00:00:00 | 00:00:00 | |
| DL1XH1-15 | 2026-09-04 17:44:45 | 50.59089 | 11.78423 | 92° | 35km/h | 18463m | 3m/s | -56.5°C | 5.1% | 74.1hPa | 2.7V | 08:30:00 | 01:25:44 | 00:00:00 | |
| DF8AY | 2026-09-04 17:44:45 | 50.59086 | 11.78496 | 95° | 40km/h | 18482m | 3.8m/s | -56.7°C | 1.1% | 73.9hPa | 2.6V | 18:12:15 | 01:25:49 | 00:00:00 | |
| DM0DOS-11 | 2026-09-04 17:44:44 | 50.59089 | 11.78408 | 93° | 37km/h | 18459m | 4.7m/s | -56.5°C | 5% | 74.1hPa | 2.6V | 08:30:00 | 01:25:43 | 00:00:00 | |
| HSKMA3-T | 2026-09-04 17:44:42 | 50.59088 | 11.78450 | 93° | 37km/h | 18470m | 4.8m/s | -56.6°C | 1.1% | 74hPa | 2.7V | 18:12:15 | 01:25:46 | 00:00:00 | |
| DL1XH-west | 2026-09-04 17:44:37 | 50.59090 | 11.78378 | 93° | 40km/h | 18450m | 4.5m/s | -56.5°C | 1% | 74.2hPa | 2.6V | 18:12:15 | 01:25:41 | 00:00:00 | |
| DL1XH1-15 | 2026-09-04 17:44:35 | 50.59091 | 11.78259 | 90° | 44km/h | 18421m | 5m/s | -56.4°C | 4.9% | 74.6hPa | 2.6V | 08:30:00 | 01:25:34 | 00:00:00 | |
| DL1XH-15 | 2026-09-04 17:44:34 | 50.59091 | 11.78243 | 90° | 38km/h | 18416m | 3.8m/s | -56.4°C | 4.9% | 74.6hPa | 2.6V | 08:30:00 | 01:25:33 | 00:00:00 | |
| DF8AY | 2026-09-04 17:44:34 | 50.59091 | 11.78330 | 91° | 42km/h | 18438m | 3.2m/s | -56.3°C | 0.9% | 74.4hPa | 2.7V | 18:12:15 | 01:25:38 | 00:00:00 | |
| HSKMA3-T | 2026-09-04 17:44:31 | 50.59091 | 11.78277 | 90° | 46km/h | 18425m | 3.9m/s | -56.3°C | 0.9% | 74.5hPa | 2.6V | 18:12:15 | 01:25:35 | 00:00:00 | |
| DO3MHA-11 | 2026-09-04 17:44:31 | 50.59091 | 11.78277 | 91° | 38km/h | 18425m | 3.9m/s | -56.3°C | 4.9% | 74.5hPa | 2.7V | 00:00:00 | 01:25:35 | 00:00:00 | |
| DL3JIN-12 | 2026-09-04 17:44:30 | 50.59091 | 11.78277 | 91° | 46km/h | 18425m | 3.9m/s | -56.3°C | 1.4% | 74.5hPa | 2.7V | 00:00:00 | 00:00:00 | 00:00:00 | |
| SONCRA | 2026-09-04 17:44:29 | 50.59091 | 11.78228 | 91° | 37km/h | 18412m | 3.5m/s | -56.5°C | 1.4% | 74.7hPa | 2.7V | 00:00:00 | 00:00:00 | 00:00:00 | |
| DB0NH | 2026-09-04 17:44:27 | 50.59091 | 11.78214 | 93° | 88km/h | 18409m | 4.5m/s | -56.4°C | 4.9% | 74.7hPa | 2.7V | 00:00:00 | 01:25:31 | 00:00:00 | |
| AM1SDL-15 | 2026-09-04 17:44:26 | 50.59092 | 11.78199 | 93° | 40km/h | 18404m | 4.3m/s | -56.4°C | 4.9% | 74.7hPa | 2.7V | 00:00:00 | 01:25:30 | 00:00:00 | |
| OE5DRO-10 | 2026-09-04 17:44:25 | 50.59092 | 11.78184 | 92° | 38km/h | 18400m | 3.8m/s | -56.5°C | 4.9% | 74.8hPa | 2.6V | 00:00:00 | 00:00:00 | 00:00:00 | |
| DM0DOS-11 | 2026-09-04 17:44:24 | 50.59095 | 11.78090 | 94° | 46km/h | 18374m | 3.9m/s | -56.9°C | 5.1% | 75.1hPa | 2.6V | 08:30:00 | 01:25:23 | 00:00:00 | |
| DF8AY | 2026-09-04 17:44:23 | 50.59093 | 11.78154 | 91° | 37km/h | 18391m | 4.5m/s | -56.6°C | 1% | 74.9hPa | 2.6V | 18:12:15 | 01:25:27 | 00:00:00 | |
| HSKMA3-T | 2026-09-04 17:44:20 | 50.59094 | 11.78108 | 94° | 44km/h | 18379m | 4.7m/s | -56.8°C | 1% | 75hPa | 2.6V | 18:12:15 | 01:25:24 | 00:00:00 | |
| AA1-15 | 2026-09-04 17:44:18 | 50.59095 | 11.78073 | 92° | 44km/h | 18370m | 4.9m/s | -57°C | 1.1% | 75.2hPa | 2.6V | 18:12:15 | 01:25:22 | 00:00:00 | |
| DL1XH-west | 2026-09-04 17:44:16 | 50.59095 | 11.78039 | 86° | 42km/h | 18361m | 3.5m/s | -57.1°C | 1.1% | 75.3hPa | 2.7V | 18:12:15 | 01:25:20 | 00:00:00 | |
| AM1SDL-15 | 2026-09-04 17:44:14 | 50.59093 | 11.78006 | 87° | 40km/h | 18353m | 4.5m/s | -57.0°C | 5.2% | 75.3hPa | 2.7V | 00:00:00 | 01:25:18 | 00:00:00 | |
| DL1XH-15 | 2026-09-04 17:44:13 | 50.59088 | 11.77922 | 88° | 37km/h | 18329m | 4.5m/s | -57°C | 5.2% | 75.6hPa | 2.7V | 08:30:00 | 01:25:12 | 00:00:00 | |
| DF8AY | 2026-09-04 17:44:12 | 50.59092 | 11.77976 | 84° | 37km/h | 18345m | 4.1m/s | -57°C | 1.1% | 75.5hPa | 2.7V | 18:12:15 | 01:25:16 | 00:00:00 | |
| HSKMA3-T | 2026-09-04 17:44:09 | 50.59089 | 11.77936 | 86° | 33km/h | 18333m | 3.6m/s | -56.9°C | 1% | 75.6hPa | 2.6V | 18:12:15 | 01:25:13 | 00:00:00 | |
| DL1XH-west | 2026-09-04 17:44:05 | 50.59088 | 11.77873 | 88° | 44km/h | 18316m | 4.9m/s | -56.9°C | 1.1% | 75.8hPa | 2.6V | 18:12:15 | 01:25:09 | 00:00:00 | |
| SP3BTT-10 | 2026-09-04 17:44:05 | 50.59088 | 11.77873 | 88° | 40km/h | 18317m | 4.9m/s | -56.8°C | 5.2% | 75.8hPa | 2.6V | 00:00:00 | 00:00:00 | 00:00:00 | |
| DL1XH1-15 | 2026-09-04 17:44:04 | 50.59086 | 11.77791 | 92° | 37km/h | 18295m | 4.3m/s | -56.8°C | 5.2% | 76.1hPa | 2.6V | 08:30:00 | 01:25:04 | 00:00:00 | |
| DL1XH-15 | 2026-09-04 17:44:03 | 50.59086 | 11.77763 | 89° | 31km/h | 18286m | 5.3m/s | -56.8°C | 5.1% | 76.2hPa | 2.6V | 08:30:00 | 01:25:02 | 00:00:00 | |
| DF8AY | 2026-09-04 17:44:02 | 50.59086 | 11.77822 | 87° | 42km/h | 18304m | 4.5m/s | -56.9°C | 1.1% | 76hPa | 2.7V | 18:12:15 | 01:25:06 | 00:00:00 | |
| HSKMA3-T | 2026-09-04 17:43:59 | 50.59086 | 11.77777 | 92° | 35km/h | 18291m | 3.8m/s | -56.8°C | 1% | 76.1hPa | 2.6V | 18:12:15 | 01:25:03 | 00:00:00 | |
| DL1XH-west | 2026-09-04 17:43:55 | 50.59086 | 11.77728 | 93° | 29km/h | 18273m | 5.3m/s | -56.6°C | 1% | 76.3hPa | 2.7V | 18:12:15 | 01:24:59 | 00:00:00 | |
| DL1XH1-15 | 2026-09-04 17:43:54 | 50.59088 | 11.77658 | 92° | 38km/h | 18251m | 3.4m/s | -56.5°C | 5.1% | 76.6hPa | 2.6V | 08:30:00 | 01:24:54 | 00:00:00 | |
| AA1-15 | 2026-09-04 17:43:54 | 50.59087 | 11.77715 | 95° | 33km/h | 18268m | 3.9m/s | -56.6°C | 1% | 76.4hPa | 2.7V | 18:12:15 | 01:24:58 | 00:00:00 | |
| EDDB2-11 | 2026-09-04 17:43:53 | 50.59087 | 11.77702 | 93° | 33km/h | 18264m | 4.0m/s | -56.6°C | 1.4% | 76.4hPa | 2.7V | 00:00:00 | 00:00:00 | 00:00:00 | |
| DL1XH-15 | 2026-09-04 17:43:52 | 50.59093 | 11.77611 | 103° | 40km/h | 18238m | 3.6m/s | -56.5°C | 5% | 76.8hPa | 2.7V | 08:30:00 | 01:24:51 | 00:00:00 | |
| DF8AY | 2026-09-04 17:43:51 | 50.59088 | 11.77674 | 91° | 38km/h | 18255m | 4.6m/s | -56.6°C | 1% | 76.5hPa | 2.6V | 18:12:15 | 01:24:55 | 00:00:00 | |
| HSKMA3-T | 2026-09-04 17:43:48 | 50.59090 | 11.77627 | 101° | 40km/h | 18242m | 4.7m/s | -56.5°C | 1% | 76.7hPa | 2.7V | 18:12:15 | 01:24:52 | 00:00:00 | |
| DF7PN | 2026-09-04 17:43:46 | 50.59097 | 11.77582 | 100° | 35km/h | 18229m | 5.2m/s | 0°C | -1.0% | -1.0hPa | 2.6V | 00:00:00 | 00:00:00 | 00:00:00 | |
| DL1XH1-15 | 2026-09-04 17:43:45 | 50.59105 | 11.77517 | 101° | 35km/h | 18206m | 4.2m/s | -56.3°C | 5% | 77.2hPa | 2.6V | 08:30:00 | 01:24:44 | 00:00:00 | |
| DL1XH-west | 2026-09-04 17:43:44 | 50.59098 | 11.77568 | 98° | 35km/h | 18224m | 4.2m/s | -56.5°C | 1% | 76.9hPa | 2.6V | 18:12:15 | 01:24:48 | 00:00:00 | |
| DL1XH-15 | 2026-09-04 17:43:42 | 50.59108 | 11.77474 | 98° | 38km/h | 18191m | 4.8m/s | -56.3°C | 5% | 77.3hPa | 2.7V | 08:30:00 | 01:24:41 | 00:00:00 | |
| DF8AY | 2026-09-04 17:43:41 | 50.59103 | 11.77530 | 104° | 33km/h | 18210m | 4.3m/s | -56.4°C | 1.1% | 77.1hPa | 2.6V | 18:12:15 | 01:24:45 | 00:00:00 | |
| HSKMA3-T | 2026-09-04 17:43:37 | 50.59108 | 11.77474 | 99° | 38km/h | 18191m | 4.8m/s | -56.3°C | 1% | 77.3hPa | 2.7V | 18:12:15 | 01:24:41 | 00:00:00 | |
| DL1XH1-15 | 2026-09-04 17:43:35 | 50.59124 | 11.77369 | 103° | 40km/h | 18158m | 4.9m/s | -56.2°C | 4.8% | 77.7hPa | 2.7V | 08:30:00 | 01:24:34 | 00:00:00 | |
| DM0DOS-11 | 2026-09-04 17:43:34 | 50.59126 | 11.77354 | 104° | 40km/h | 18154m | 3.8m/s | -56.3°C | 4.8% | 77.8hPa | 2.7V | 08:30:00 | 01:24:33 | 00:00:00 | |
| DL1XH-west | 2026-09-04 17:43:34 | 50.59115 | 11.77429 | 105° | 38km/h | 18178m | 4.2m/s | -56.3°C | 1% | 77.5hPa | 2.6V | 18:12:15 | 01:24:38 | 00:00:00 | |
| DF8AY | 2026-09-04 17:43:30 | 50.59124 | 11.77369 | 104° | 40km/h | 18158m | 4.9m/s | -56.3°C | 0.9% | 77.7hPa | 2.7V | 18:12:15 | 01:24:34 | 00:00:00 | |
| HSKMA3-T | 2026-09-04 17:43:27 | 50.59130 | 11.77324 | 101° | 37km/h | 18144m | 4.6m/s | -56.2°C | 0.9% | 77.9hPa | 2.6V | 18:12:15 | 01:24:31 | 00:00:00 | |
| DL1XH-west | 2026-09-04 17:43:24 | 50.59137 | 11.77281 | 107° | 38km/h | 18131m | 5m/s | -56.2°C | 1% | 78hPa | 2.7V | 18:12:15 | 01:24:28 | 00:00:00 | |
| SONDE2-11 | 2026-09-04 17:43:22 | 50.59145 | 11.77237 | 106° | 37km/h | 18117m | 4.5m/s | -56.5°C | 1.5% | 78.2hPa | 2.6V | 00:00:00 | 00:00:00 | 00:00:00 | |
| DL1XH-15 | 2026-09-04 17:43:21 | 50.59163 | 11.77160 | 110° | 40km/h | 18093m | 5.4m/s | -56.6°C | 5.2% | 78.5hPa | 2.6V | 08:30:00 | 01:24:20 | 00:00:00 | |
| DF8AY | 2026-09-04 17:43:19 | 50.59152 | 11.77207 | 109° | 42km/h | 18107m | 5.4m/s | -56.5°C | 1.1% | 78.4hPa | 2.6V | 18:12:15 | 01:24:23 | 00:00:00 | |
| AA1-15 | 2026-09-04 17:43:17 | 50.59159 | 11.77175 | 111° | 42km/h | 18098m | 4.6m/s | -56.5°C | 1.1% | 78.5hPa | 2.7V | 18:12:15 | 01:24:21 | 00:00:00 | |
| HSKMA3-T | 2026-09-04 17:43:16 | 50.59163 | 11.77160 | 111° | 40km/h | 18093m | 5.4m/s | -56.6°C | 1.1% | 78.5hPa | 2.6V | 18:12:15 | 01:24:20 | 00:00:00 | |
| DM0DOS-11 | 2026-09-04 17:43:14 | 50.59192 | 11.77060 | 113° | 38km/h | 18059m | 4.1m/s | -56.6°C | 5.1% | 79hPa | 2.6V | 08:30:00 | 01:24:13 | 00:00:00 | |
| DL1XH-west | 2026-09-04 17:43:13 | 50.59174 | 11.77117 | 116° | 40km/h | 18078m | 5.3m/s | -56.6°C | 1.1% | 78.7hPa | 2.7V | 18:12:15 | 01:24:17 | 00:00:00 | |
| Es werden nur die letzten 3500 von 5274 Frames angezeigt. GPX/KML und Diagramme bleiben verfügbar. | |||||||||||||||